<?xml version='1.0' encoding='UTF-8'?><gpx version="1.1" creator="JPX - https://github.com/jenetics/jpx" xmlns="http://www.topografix.com/GPX/1/1"><trk><trkseg><trkpt lat="45.4836883" lon="10.32073"><ele>134.0</ele><time>2026-03-28T07:00:42.844Z</time></trkpt><trkpt lat="45.483595" lon="10.3207517"><ele>134.0</ele><time>2026-03-28T07:05:29.845Z</time></trkpt><trkpt lat="45.483535" lon="10.32072"><ele>134.0</ele><time>2026-03-28T07:05:30.845Z</time></trkpt><trkpt lat="45.4834483" lon="10.3206783"><ele>134.0</ele><time>2026-03-28T07:05:32.845Z</time></trkpt><trkpt lat="45.4834967" lon="10.3207683"><ele>134.0</ele><time>2026-03-28T07:05:36.845Z</time></trkpt><trkpt lat="45.4835717" lon="10.3208117"><ele>134.0</ele><time>2026-03-28T07:05:38.844Z</time></trkpt><trkpt lat="45.48366" lon="10.3208683"><ele>134.0</ele><time>2026-03-28T07:05:40.844Z</time></trkpt><trkpt lat="45.483735" lon="10.3208883"><ele>134.0</ele><time>2026-03-28T07:05:42.844Z</time></trkpt><trkpt lat="45.4836533" lon="10.32084"><ele>134.0</ele><time>2026-03-28T07:07:08.845Z</time></trkpt><trkpt lat="45.4835717" lon="10.32082"><ele>134.0</ele><time>2026-03-28T07:07:12.845Z</time></trkpt><trkpt lat="45.48348" lon="10.3208017"><ele>134.0</ele><time>2026-03-28T07:07:15.845Z</time></trkpt><trkpt lat="45.4834" lon="10.320785"><ele>134.0</ele><time>2026-03-28T07:07:17.845Z</time></trkpt><trkpt lat="45.483325" lon="10.3207567"><ele>134.0</ele><time>2026-03-28T07:07:19.845Z</time></trkpt><trkpt lat="45.4832367" lon="10.32071"><ele>134.0</ele><time>2026-03-28T07:07:22.845Z</time></trkpt><trkpt lat="45.4831717" lon="10.32066"><ele>134.0</ele><time>2026-03-28T07:07:25.846Z</time></trkpt><trkpt lat="45.4831317" lon="10.3205883"><ele>134.0</ele><time>2026-03-28T07:07:30.845Z</time></trkpt><trkpt lat="45.4831517" lon="10.320475"><ele>134.0</ele><time>2026-03-28T07:09:10.845Z</time></trkpt><trkpt lat="45.4831633" lon="10.320385"><ele>134.0</ele><time>2026-03-28T07:09:12.845Z</time></trkpt><trkpt lat="45.4832067" lon="10.3203133"><ele>134.0</ele><time>2026-03-28T07:09:14.845Z</time></trkpt><trkpt lat="45.48327" lon="10.32023"><ele>134.0</ele><time>2026-03-28T07:09:16.845Z</time></trkpt><trkpt lat="45.4833617" lon="10.320155"><ele>134.0</ele><time>2026-03-28T07:09:18.846Z</time></trkpt><trkpt lat="45.4834783" lon="10.32014"><ele>134.0</ele><time>2026-03-28T07:09:20.846Z</time></trkpt><trkpt lat="45.48354" lon="10.3201733"><ele>134.0</ele><time>2026-03-28T07:09:21.845Z</time></trkpt><trkpt lat="45.483635" lon="10.3202283"><ele>134.0</ele><time>2026-03-28T07:09:23.846Z</time></trkpt><trkpt lat="45.48372" lon="10.3202817"><ele>134.16666666666666</ele><time>2026-03-28T07:09:25.845Z</time></trkpt><trkpt lat="45.4838117" lon="10.3203333"><ele>134.33333333333331</ele><time>2026-03-28T07:09:27.845Z</time></trkpt><trkpt lat="45.4838917" lon="10.320405"><ele>134.5</ele><time>2026-03-28T07:09:29.846Z</time></trkpt><trkpt lat="45.48394" lon="10.3204633"><ele>134.66666666666666</ele><time>2026-03-28T07:09:31.845Z</time></trkpt><trkpt lat="45.48397" lon="10.3205683"><ele>134.83333333333334</ele><time>2026-03-28T07:09:44.845Z</time></trkpt><trkpt lat="45.4840083" lon="10.32072"><ele>135.0</ele><time>2026-03-28T07:09:46.846Z</time></trkpt><trkpt lat="45.484045" lon="10.320815"><ele>135.0</ele><time>2026-03-28T07:09:47.845Z</time></trkpt><trkpt lat="45.4840933" lon="10.3209167"><ele>135.0</ele><time>2026-03-28T07:09:48.845Z</time></trkpt><trkpt lat="45.4841633" lon="10.32099"><ele>135.0</ele><time>2026-03-28T07:09:49.845Z</time></trkpt><trkpt lat="45.484255" lon="10.3210317"><ele>135.0</ele><time>2026-03-28T07:09:50.846Z</time></trkpt><trkpt lat="45.48433" lon="10.3210217"><ele>135.0</ele><time>2026-03-28T07:09:51.845Z</time></trkpt><trkpt lat="45.4844583" lon="10.3209733"><ele>135.0</ele><time>2026-03-28T07:09:53.845Z</time></trkpt><trkpt lat="45.4845433" lon="10.3209467"><ele>135.0</ele><time>2026-03-28T07:09:54.845Z</time></trkpt><trkpt lat="45.4846283" lon="10.3209317"><ele>135.0</ele><time>2026-03-28T07:09:55.846Z</time></trkpt><trkpt lat="45.4847117" lon="10.3209417"><ele>135.0</ele><time>2026-03-28T07:09:56.845Z</time></trkpt><trkpt lat="45.4847867" lon="10.3209783"><ele>135.0</ele><time>2026-03-28T07:09:57.846Z</time></trkpt><trkpt lat="45.4848583" lon="10.3210267"><ele>135.0</ele><time>2026-03-28T07:09:58.845Z</time></trkpt><trkpt lat="45.4849283" lon="10.321085"><ele>135.0</ele><time>2026-03-28T07:09:59.846Z</time></trkpt><trkpt lat="45.4849967" lon="10.3211267"><ele>135.0</ele><time>2026-03-28T07:10:00.845Z</time></trkpt><trkpt lat="45.4850633" lon="10.3211783"><ele>135.0</ele><time>2026-03-28T07:10:01.846Z</time></trkpt><trkpt lat="45.4851583" lon="10.3212533"><ele>135.0</ele><time>2026-03-28T07:10:03.846Z</time></trkpt><trkpt lat="45.4852333" lon="10.3213117"><ele>135.0</ele><time>2026-03-28T07:10:05.845Z</time></trkpt><trkpt lat="45.4852883" lon="10.3213617"><ele>135.0</ele><time>2026-03-28T07:10:07.846Z</time></trkpt><trkpt lat="45.4853367" lon="10.3214217"><ele>135.16666666666666</ele><time>2026-03-28T07:10:09.845Z</time></trkpt><trkpt lat="45.485395" lon="10.321515"><ele>135.33333333333334</ele><time>2026-03-28T07:10:12.846Z</time></trkpt><trkpt lat="45.4854267" lon="10.3215967"><ele>135.5</ele><time>2026-03-28T07:10:14.846Z</time></trkpt><trkpt lat="45.48547" lon="10.3217"><ele>135.66666666666669</ele><time>2026-03-28T07:10:16.846Z</time></trkpt><trkpt lat="45.4855183" lon="10.3217883"><ele>135.83333333333334</ele><time>2026-03-28T07:10:18.845Z</time></trkpt><trkpt lat="45.485575" lon="10.32187"><ele>136.0</ele><time>2026-03-28T07:10:20.846Z</time></trkpt><trkpt lat="45.4856383" lon="10.3219683"><ele>136.0</ele><time>2026-03-28T07:10:22.846Z</time></trkpt><trkpt lat="45.4857183" lon="10.3220867"><ele>136.0</ele><time>2026-03-28T07:10:24.845Z</time></trkpt><trkpt lat="45.4857833" lon="10.322235"><ele>136.0</ele><time>2026-03-28T07:10:26.845Z</time></trkpt><trkpt lat="45.485805" lon="10.32232"><ele>136.0</ele><time>2026-03-28T07:10:27.845Z</time></trkpt><trkpt lat="45.4858283" lon="10.32241"><ele>136.0</ele><time>2026-03-28T07:10:28.846Z</time></trkpt><trkpt lat="45.485855" lon="10.3224983"><ele>136.0</ele><time>2026-03-28T07:10:29.846Z</time></trkpt><trkpt lat="45.4858917" lon="10.3225833"><ele>136.0</ele><time>2026-03-28T07:10:30.845Z</time></trkpt><trkpt lat="45.4859317" lon="10.3226583"><ele>136.0</ele><time>2026-03-28T07:10:31.845Z</time></trkpt><trkpt lat="45.4859817" lon="10.3227217"><ele>136.0</ele><time>2026-03-28T07:10:32.845Z</time></trkpt><trkpt lat="45.4860683" lon="10.322805"><ele>136.0</ele><time>2026-03-28T07:10:34.845Z</time></trkpt><trkpt lat="45.4861467" lon="10.32284"><ele>136.0</ele><time>2026-03-28T07:10:36.845Z</time></trkpt><trkpt lat="45.4862117" lon="10.3228483"><ele>136.0</ele><time>2026-03-28T07:10:38.845Z</time></trkpt><trkpt lat="45.4863083" lon="10.3227917"><ele>136.6</ele><time>2026-03-28T07:10:41.846Z</time></trkpt><trkpt lat="45.4864017" lon="10.3227017"><ele>137.2</ele><time>2026-03-28T07:10:43.845Z</time></trkpt><trkpt lat="45.4864767" lon="10.3226133"><ele>137.8</ele><time>2026-03-28T07:10:45.845Z</time></trkpt><trkpt lat="45.486535" lon="10.3225617"><ele>138.4</ele><time>2026-03-28T07:10:47.845Z</time></trkpt><trkpt lat="45.4865983" lon="10.32248"><ele>139.0</ele><time>2026-03-28T07:10:50.846Z</time></trkpt><trkpt lat="45.4865167" lon="10.32241"><ele>139.0</ele><time>2026-03-28T07:12:56.844Z</time></trkpt><trkpt lat="45.4865033" lon="10.3225083"><ele>139.0</ele><time>2026-03-28T07:12:58.845Z</time></trkpt><trkpt lat="45.4865717" lon="10.32253"><ele>139.0</ele><time>2026-03-28T07:13:01.845Z</time></trkpt><trkpt lat="45.4865483" lon="10.322435"><ele>139.0</ele><time>2026-03-28T07:13:04.845Z</time></trkpt><trkpt lat="45.4865033" lon="10.3223667"><ele>139.0</ele><time>2026-03-28T07:13:07.844Z</time></trkpt><trkpt lat="45.486435" lon="10.322305"><ele>139.0</ele><time>2026-03-28T07:16:29.845Z</time></trkpt><trkpt lat="45.48638" lon="10.3222367"><ele>139.0</ele><time>2026-03-28T07:16:31.844Z</time></trkpt><trkpt lat="45.48632" lon="10.3221633"><ele>138.4</ele><time>2026-03-28T07:16:33.844Z</time></trkpt><trkpt lat="45.4862467" lon="10.3220317"><ele>137.8</ele><time>2026-03-28T07:16:35.844Z</time></trkpt><trkpt lat="45.4862033" lon="10.321965"><ele>137.2</ele><time>2026-03-28T07:16:36.845Z</time></trkpt><trkpt lat="45.4860817" lon="10.3218883"><ele>136.6</ele><time>2026-03-28T07:16:38.845Z</time></trkpt><trkpt lat="45.48602" lon="10.3218633"><ele>136.0</ele><time>2026-03-28T07:16:39.844Z</time></trkpt><trkpt lat="45.4859417" lon="10.321825"><ele>136.0</ele><time>2026-03-28T07:16:40.844Z</time></trkpt><trkpt lat="45.485855" lon="10.3217717"><ele>136.0</ele><time>2026-03-28T07:16:41.844Z</time></trkpt><trkpt lat="45.4857833" lon="10.3216983"><ele>136.0</ele><time>2026-03-28T07:16:42.844Z</time></trkpt><trkpt lat="45.4857167" lon="10.3216167"><ele>136.0</ele><time>2026-03-28T07:16:43.845Z</time></trkpt><trkpt lat="45.48565" lon="10.3215233"><ele>136.0</ele><time>2026-03-28T07:16:44.845Z</time></trkpt><trkpt lat="45.4855817" lon="10.321445"><ele>136.0</ele><time>2026-03-28T07:16:45.844Z</time></trkpt><trkpt lat="45.4855233" lon="10.3213633"><ele>136.0</ele><time>2026-03-28T07:16:46.845Z</time></trkpt><trkpt lat="45.48546" lon="10.3212867"><ele>136.0</ele><time>2026-03-28T07:16:47.844Z</time></trkpt><trkpt lat="45.4853833" lon="10.3212233"><ele>136.0</ele><time>2026-03-28T07:16:48.844Z</time></trkpt><trkpt lat="45.4852983" lon="10.3211633"><ele>136.0</ele><time>2026-03-28T07:16:49.845Z</time></trkpt><trkpt lat="45.4852067" lon="10.3211167"><ele>136.0</ele><time>2026-03-28T07:16:50.844Z</time></trkpt><trkpt lat="45.4851083" lon="10.321065"><ele>135.8</ele><time>2026-03-28T07:16:51.844Z</time></trkpt><trkpt lat="45.4850167" lon="10.321"><ele>135.6</ele><time>2026-03-28T07:16:52.845Z</time></trkpt><trkpt lat="45.48492" lon="10.3209417"><ele>135.4</ele><time>2026-03-28T07:16:53.844Z</time></trkpt><trkpt lat="45.4848283" lon="10.320885"><ele>135.2</ele><time>2026-03-28T07:16:54.844Z</time></trkpt><trkpt lat="45.48475" lon="10.3208367"><ele>135.0</ele><time>2026-03-28T07:16:55.845Z</time></trkpt><trkpt lat="45.48468" lon="10.320765"><ele>135.0</ele><time>2026-03-28T07:16:56.845Z</time></trkpt><trkpt lat="45.484645" lon="10.32069"><ele>135.0</ele><time>2026-03-28T07:16:57.845Z</time></trkpt><trkpt lat="45.4846217" lon="10.3205933"><ele>135.0</ele><time>2026-03-28T07:16:58.845Z</time></trkpt><trkpt lat="45.48462" lon="10.3204817"><ele>135.0</ele><time>2026-03-28T07:16:59.844Z</time></trkpt><trkpt lat="45.4846333" lon="10.3203617"><ele>135.0</ele><time>2026-03-28T07:17:00.844Z</time></trkpt><trkpt lat="45.484655" lon="10.32023"><ele>135.0</ele><time>2026-03-28T07:17:01.844Z</time></trkpt><trkpt lat="45.48467" lon="10.3200917"><ele>135.0</ele><time>2026-03-28T07:17:02.844Z</time></trkpt><trkpt lat="45.4846883" lon="10.3199483"><ele>135.0</ele><time>2026-03-28T07:17:03.845Z</time></trkpt><trkpt lat="45.4847233" lon="10.3198033"><ele>135.0</ele><time>2026-03-28T07:17:04.844Z</time></trkpt><trkpt lat="45.484765" lon="10.3196733"><ele>135.0</ele><time>2026-03-28T07:17:05.844Z</time></trkpt><trkpt lat="45.4848133" lon="10.319535"><ele>135.0</ele><time>2026-03-28T07:17:06.844Z</time></trkpt><trkpt lat="45.484875" lon="10.3194183"><ele>135.0</ele><time>2026-03-28T07:17:07.845Z</time></trkpt><trkpt lat="45.4849433" lon="10.319305"><ele>135.0</ele><time>2026-03-28T07:17:08.844Z</time></trkpt><trkpt lat="45.4850183" lon="10.319195"><ele>135.0</ele><time>2026-03-28T07:17:09.844Z</time></trkpt><trkpt lat="45.4850967" lon="10.319095"><ele>135.0</ele><time>2026-03-28T07:17:10.844Z</time></trkpt><trkpt lat="45.4851883" lon="10.3190083"><ele>135.0</ele><time>2026-03-28T07:17:11.845Z</time></trkpt><trkpt lat="45.485295" lon="10.31893"><ele>135.0</ele><time>2026-03-28T07:17:12.845Z</time></trkpt><trkpt lat="45.485405" lon="10.31885"><ele>135.0</ele><time>2026-03-28T07:17:13.844Z</time></trkpt><trkpt lat="45.4855267" lon="10.3187833"><ele>135.0</ele><time>2026-03-28T07:17:14.844Z</time></trkpt><trkpt lat="45.4856483" lon="10.3187333"><ele>135.0</ele><time>2026-03-28T07:17:15.844Z</time></trkpt><trkpt lat="45.48578" lon="10.3187067"><ele>135.0</ele><time>2026-03-28T07:17:16.844Z</time></trkpt><trkpt lat="45.4859117" lon="10.31868"><ele>135.0</ele><time>2026-03-28T07:17:17.845Z</time></trkpt><trkpt lat="45.4860517" lon="10.3186533"><ele>135.0</ele><time>2026-03-28T07:17:18.844Z</time></trkpt><trkpt lat="45.4862017" lon="10.3186267"><ele>135.0</ele><time>2026-03-28T07:17:19.844Z</time></trkpt><trkpt lat="45.486345" lon="10.318615"><ele>135.0</ele><time>2026-03-28T07:17:20.844Z</time></trkpt><trkpt lat="45.4864983" lon="10.3186017"><ele>135.0</ele><time>2026-03-28T07:17:21.844Z</time></trkpt><trkpt lat="45.486665" lon="10.31859"><ele>135.0</ele><time>2026-03-28T07:17:22.844Z</time></trkpt><trkpt lat="45.4868383" lon="10.318585"><ele>135.0</ele><time>2026-03-28T07:17:23.845Z</time></trkpt><trkpt lat="45.4870167" lon="10.3185783"><ele>135.0</ele><time>2026-03-28T07:17:24.845Z</time></trkpt><trkpt lat="45.4871917" lon="10.31857"><ele>135.0</ele><time>2026-03-28T07:17:25.844Z</time></trkpt><trkpt lat="45.4873817" lon="10.3185517"><ele>135.33333333333334</ele><time>2026-03-28T07:17:26.845Z</time></trkpt><trkpt lat="45.4875783" lon="10.3185367"><ele>135.66666666666669</ele><time>2026-03-28T07:17:27.845Z</time></trkpt><trkpt lat="45.487765" lon="10.318525"><ele>136.0</ele><time>2026-03-28T07:17:28.845Z</time></trkpt><trkpt lat="45.4879583" lon="10.3185133"><ele>136.66666666666669</ele><time>2026-03-28T07:17:29.844Z</time></trkpt><trkpt lat="45.4881517" lon="10.3185133"><ele>137.33333333333334</ele><time>2026-03-28T07:17:30.845Z</time></trkpt><trkpt lat="45.488355" lon="10.318515"><ele>138.0</ele><time>2026-03-28T07:17:31.844Z</time></trkpt><trkpt lat="45.4885517" lon="10.318495"><ele>138.0</ele><time>2026-03-28T07:17:32.844Z</time></trkpt><trkpt lat="45.488755" lon="10.318485"><ele>138.0</ele><time>2026-03-28T07:17:33.844Z</time></trkpt><trkpt lat="45.488955" lon="10.3184783"><ele>138.0</ele><time>2026-03-28T07:17:34.845Z</time></trkpt><trkpt lat="45.4891583" lon="10.3184733"><ele>138.0</ele><time>2026-03-28T07:17:35.844Z</time></trkpt><trkpt lat="45.4893617" lon="10.318475"><ele>138.0</ele><time>2026-03-28T07:17:36.844Z</time></trkpt><trkpt lat="45.489565" lon="10.3184683"><ele>138.0</ele><time>2026-03-28T07:17:37.844Z</time></trkpt><trkpt lat="45.489775" lon="10.31847"><ele>138.0</ele><time>2026-03-28T07:17:38.844Z</time></trkpt><trkpt lat="45.4899817" lon="10.318465"><ele>138.0</ele><time>2026-03-28T07:17:39.845Z</time></trkpt><trkpt lat="45.4901883" lon="10.318455"><ele>138.0</ele><time>2026-03-28T07:17:40.845Z</time></trkpt><trkpt lat="45.4903967" lon="10.318455"><ele>138.0</ele><time>2026-03-28T07:17:41.844Z</time></trkpt><trkpt lat="45.4906033" lon="10.318465"><ele>138.0</ele><time>2026-03-28T07:17:42.845Z</time></trkpt><trkpt lat="45.4908183" lon="10.3184567"><ele>138.0</ele><time>2026-03-28T07:17:43.845Z</time></trkpt><trkpt lat="45.4910333" lon="10.31846"><ele>138.0</ele><time>2026-03-28T07:17:44.845Z</time></trkpt><trkpt lat="45.4912367" lon="10.3184483"><ele>138.0</ele><time>2026-03-28T07:17:45.844Z</time></trkpt><trkpt lat="45.4914517" lon="10.318445"><ele>138.0</ele><time>2026-03-28T07:17:46.845Z</time></trkpt><trkpt lat="45.4916683" lon="10.3184383"><ele>137.66666666666666</ele><time>2026-03-28T07:17:47.844Z</time></trkpt><trkpt lat="45.4918833" lon="10.3184383"><ele>137.33333333333331</ele><time>2026-03-28T07:17:48.844Z</time></trkpt><trkpt lat="45.4920983" lon="10.3184367"><ele>137.0</ele><time>2026-03-28T07:17:49.845Z</time></trkpt><trkpt lat="45.4923117" lon="10.3184383"><ele>137.66666666666666</ele><time>2026-03-28T07:17:50.844Z</time></trkpt><trkpt lat="45.49253" lon="10.3184317"><ele>138.33333333333334</ele><time>2026-03-28T07:17:51.845Z</time></trkpt><trkpt lat="45.4927383" lon="10.3184267"><ele>139.0</ele><time>2026-03-28T07:17:52.845Z</time></trkpt><trkpt lat="45.4929483" lon="10.3184167"><ele>139.0</ele><time>2026-03-28T07:17:53.844Z</time></trkpt><trkpt lat="45.493165" lon="10.318415"><ele>139.0</ele><time>2026-03-28T07:17:54.844Z</time></trkpt><trkpt lat="45.49338" lon="10.3184267"><ele>139.0</ele><time>2026-03-28T07:17:55.844Z</time></trkpt><trkpt lat="45.4935833" lon="10.31847"><ele>139.66666666666669</ele><time>2026-03-28T07:17:56.844Z</time></trkpt><trkpt lat="45.49377" lon="10.31853"><ele>140.33333333333334</ele><time>2026-03-28T07:17:57.845Z</time></trkpt><trkpt lat="45.4939517" lon="10.3186267"><ele>141.0</ele><time>2026-03-28T07:17:58.844Z</time></trkpt><trkpt lat="45.4941283" lon="10.3187567"><ele>141.33333333333334</ele><time>2026-03-28T07:17:59.845Z</time></trkpt><trkpt lat="45.4943017" lon="10.318905"><ele>141.66666666666669</ele><time>2026-03-28T07:18:00.844Z</time></trkpt><trkpt lat="45.4944733" lon="10.3190583"><ele>142.0</ele><time>2026-03-28T07:18:01.845Z</time></trkpt><trkpt lat="45.494635" lon="10.3192217"><ele>141.66666666666669</ele><time>2026-03-28T07:18:02.845Z</time></trkpt><trkpt lat="45.4947867" lon="10.3194"><ele>141.33333333333334</ele><time>2026-03-28T07:18:03.845Z</time></trkpt><trkpt lat="45.494945" lon="10.3195733"><ele>141.0</ele><time>2026-03-28T07:18:04.844Z</time></trkpt><trkpt lat="45.4951017" lon="10.319755"><ele>141.0</ele><time>2026-03-28T07:18:05.845Z</time></trkpt><trkpt lat="45.4952583" lon="10.3199383"><ele>141.0</ele><time>2026-03-28T07:18:06.845Z</time></trkpt><trkpt lat="45.4953917" lon="10.320125"><ele>141.0</ele><time>2026-03-28T07:18:07.844Z</time></trkpt><trkpt lat="45.495515" lon="10.320315"><ele>141.0</ele><time>2026-03-28T07:18:08.844Z</time></trkpt><trkpt lat="45.495625" lon="10.3205167"><ele>141.0</ele><time>2026-03-28T07:18:09.845Z</time></trkpt><trkpt lat="45.49575" lon="10.320745"><ele>141.0</ele><time>2026-03-28T07:18:10.844Z</time></trkpt><trkpt lat="45.49586" lon="10.320975"><ele>140.66666666666666</ele><time>2026-03-28T07:18:11.844Z</time></trkpt><trkpt lat="45.49596" lon="10.3212167"><ele>140.33333333333331</ele><time>2026-03-28T07:18:12.845Z</time></trkpt><trkpt lat="45.4960417" lon="10.32146"><ele>140.0</ele><time>2026-03-28T07:18:13.845Z</time></trkpt><trkpt lat="45.4961083" lon="10.3217233"><ele>140.0</ele><time>2026-03-28T07:18:14.845Z</time></trkpt><trkpt lat="45.49616" lon="10.3219917"><ele>140.0</ele><time>2026-03-28T07:18:15.844Z</time></trkpt><trkpt lat="45.4962067" lon="10.32227"><ele>140.0</ele><time>2026-03-28T07:18:16.845Z</time></trkpt><trkpt lat="45.496245" lon="10.3225467"><ele>140.33333333333331</ele><time>2026-03-28T07:18:17.845Z</time></trkpt><trkpt lat="45.496275" lon="10.3228283"><ele>140.66666666666666</ele><time>2026-03-28T07:18:18.844Z</time></trkpt><trkpt lat="45.4962917" lon="10.323115"><ele>141.0</ele><time>2026-03-28T07:18:19.844Z</time></trkpt><trkpt lat="45.4963" lon="10.3234117"><ele>141.66666666666666</ele><time>2026-03-28T07:18:20.845Z</time></trkpt><trkpt lat="45.4963017" lon="10.3237183"><ele>142.33333333333331</ele><time>2026-03-28T07:18:21.844Z</time></trkpt><trkpt lat="45.4963033" lon="10.3240133"><ele>143.0</ele><time>2026-03-28T07:18:22.845Z</time></trkpt><trkpt lat="45.496295" lon="10.3243083"><ele>143.0</ele><time>2026-03-28T07:18:23.845Z</time></trkpt><trkpt lat="45.49629" lon="10.3246017"><ele>143.0</ele><time>2026-03-28T07:18:24.844Z</time></trkpt><trkpt lat="45.4962783" lon="10.32489"><ele>143.0</ele><time>2026-03-28T07:18:25.845Z</time></trkpt><trkpt lat="45.4962833" lon="10.3251767"><ele>142.66666666666666</ele><time>2026-03-28T07:18:26.844Z</time></trkpt><trkpt lat="45.4962833" lon="10.3254567"><ele>142.33333333333334</ele><time>2026-03-28T07:18:27.845Z</time></trkpt><trkpt lat="45.4962967" lon="10.3257367"><ele>142.0</ele><time>2026-03-28T07:18:28.844Z</time></trkpt><trkpt lat="45.4963233" lon="10.3260133"><ele>142.0</ele><time>2026-03-28T07:18:29.845Z</time></trkpt><trkpt lat="45.496355" lon="10.3262867"><ele>142.0</ele><time>2026-03-28T07:18:30.845Z</time></trkpt><trkpt lat="45.4963867" lon="10.3265667"><ele>142.0</ele><time>2026-03-28T07:18:31.845Z</time></trkpt><trkpt lat="45.496425" lon="10.3268367"><ele>142.0</ele><time>2026-03-28T07:18:32.845Z</time></trkpt><trkpt lat="45.4964783" lon="10.3271083"><ele>142.0</ele><time>2026-03-28T07:18:33.845Z</time></trkpt><trkpt lat="45.4965417" lon="10.32738"><ele>142.0</ele><time>2026-03-28T07:18:34.844Z</time></trkpt><trkpt lat="45.496615" lon="10.3276617"><ele>142.66666666666669</ele><time>2026-03-28T07:18:35.844Z</time></trkpt><trkpt lat="45.4967033" lon="10.327935"><ele>143.33333333333334</ele><time>2026-03-28T07:18:36.844Z</time></trkpt><trkpt lat="45.4967933" lon="10.328195"><ele>144.0</ele><time>2026-03-28T07:18:37.845Z</time></trkpt><trkpt lat="45.4968933" lon="10.3284583"><ele>144.33333333333334</ele><time>2026-03-28T07:18:38.844Z</time></trkpt><trkpt lat="45.4969983" lon="10.3287083"><ele>144.66666666666669</ele><time>2026-03-28T07:18:39.844Z</time></trkpt><trkpt lat="45.497125" lon="10.328965"><ele>145.0</ele><time>2026-03-28T07:18:40.845Z</time></trkpt><trkpt lat="45.497245" lon="10.3292083"><ele>144.33333333333334</ele><time>2026-03-28T07:18:41.844Z</time></trkpt><trkpt lat="45.497375" lon="10.3294417"><ele>143.66666666666666</ele><time>2026-03-28T07:18:42.845Z</time></trkpt><trkpt lat="45.4975183" lon="10.3296717"><ele>143.0</ele><time>2026-03-28T07:18:43.845Z</time></trkpt><trkpt lat="45.4976717" lon="10.3299"><ele>143.0</ele><time>2026-03-28T07:18:44.844Z</time></trkpt><trkpt lat="45.497855" lon="10.33013"><ele>143.0</ele><time>2026-03-28T07:18:45.844Z</time></trkpt><trkpt lat="45.4980383" lon="10.33035"><ele>143.5</ele><time>2026-03-28T07:18:46.845Z</time></trkpt><trkpt lat="45.49823" lon="10.3305517"><ele>144.0</ele><time>2026-03-28T07:18:47.845Z</time></trkpt><trkpt lat="45.4984017" lon="10.3307683"><ele>144.0</ele><time>2026-03-28T07:18:48.844Z</time></trkpt><trkpt lat="45.4985633" lon="10.3309767"><ele>144.0</ele><time>2026-03-28T07:18:49.844Z</time></trkpt><trkpt lat="45.4987283" lon="10.3311783"><ele>144.0</ele><time>2026-03-28T07:18:50.845Z</time></trkpt><trkpt lat="45.498885" lon="10.3313783"><ele>143.66666666666666</ele><time>2026-03-28T07:18:51.845Z</time></trkpt><trkpt lat="45.4990433" lon="10.3315733"><ele>143.33333333333331</ele><time>2026-03-28T07:18:52.845Z</time></trkpt><trkpt lat="45.4991933" lon="10.331755"><ele>143.0</ele><time>2026-03-28T07:18:53.845Z</time></trkpt><trkpt lat="45.4993367" lon="10.3319383"><ele>143.0</ele><time>2026-03-28T07:18:54.844Z</time></trkpt><trkpt lat="45.49948" lon="10.3321283"><ele>143.0</ele><time>2026-03-28T07:18:55.845Z</time></trkpt><trkpt lat="45.4996333" lon="10.33231"><ele>143.0</ele><time>2026-03-28T07:18:56.844Z</time></trkpt><trkpt lat="45.4997917" lon="10.3324967"><ele>143.33333333333331</ele><time>2026-03-28T07:18:57.844Z</time></trkpt><trkpt lat="45.499945" lon="10.3326767"><ele>143.66666666666666</ele><time>2026-03-28T07:18:58.844Z</time></trkpt><trkpt lat="45.500085" lon="10.3328617"><ele>144.0</ele><time>2026-03-28T07:18:59.844Z</time></trkpt><trkpt lat="45.500225" lon="10.333045"><ele>144.0</ele><time>2026-03-28T07:19:00.845Z</time></trkpt><trkpt lat="45.500375" lon="10.3332317"><ele>144.0</ele><time>2026-03-28T07:19:01.845Z</time></trkpt><trkpt lat="45.500525" lon="10.3334183"><ele>144.0</ele><time>2026-03-28T07:19:02.845Z</time></trkpt><trkpt lat="45.5006817" lon="10.3336033"><ele>144.0</ele><time>2026-03-28T07:19:03.845Z</time></trkpt><trkpt lat="45.5008383" lon="10.3337867"><ele>144.0</ele><time>2026-03-28T07:19:04.844Z</time></trkpt><trkpt lat="45.5009967" lon="10.3339617"><ele>144.0</ele><time>2026-03-28T07:19:05.845Z</time></trkpt><trkpt lat="45.5011617" lon="10.334135"><ele>143.66666666666666</ele><time>2026-03-28T07:19:06.844Z</time></trkpt><trkpt lat="45.501325" lon="10.3343083"><ele>143.33333333333331</ele><time>2026-03-28T07:19:07.845Z</time></trkpt><trkpt lat="45.501485" lon="10.33447"><ele>143.0</ele><time>2026-03-28T07:19:08.844Z</time></trkpt><trkpt lat="45.50164" lon="10.3346283"><ele>143.33333333333331</ele><time>2026-03-28T07:19:09.845Z</time></trkpt><trkpt lat="45.5017817" lon="10.3347733"><ele>143.66666666666666</ele><time>2026-03-28T07:19:10.845Z</time></trkpt><trkpt lat="45.501925" lon="10.3349083"><ele>144.0</ele><time>2026-03-28T07:19:11.844Z</time></trkpt><trkpt lat="45.5020683" lon="10.33503"><ele>144.33333333333334</ele><time>2026-03-28T07:19:12.845Z</time></trkpt><trkpt lat="45.5022117" lon="10.3351617"><ele>144.66666666666669</ele><time>2026-03-28T07:19:13.844Z</time></trkpt><trkpt lat="45.5023567" lon="10.33531"><ele>145.0</ele><time>2026-03-28T07:19:14.845Z</time></trkpt><trkpt lat="45.5025067" lon="10.3354517"><ele>145.0</ele><time>2026-03-28T07:19:15.845Z</time></trkpt><trkpt lat="45.5026583" lon="10.3355983"><ele>145.0</ele><time>2026-03-28T07:19:16.845Z</time></trkpt><trkpt lat="45.5028133" lon="10.3357433"><ele>145.0</ele><time>2026-03-28T07:19:17.844Z</time></trkpt><trkpt lat="45.5029583" lon="10.335895"><ele>145.33333333333334</ele><time>2026-03-28T07:19:18.844Z</time></trkpt><trkpt lat="45.5031067" lon="10.3360467"><ele>145.66666666666666</ele><time>2026-03-28T07:19:19.845Z</time></trkpt><trkpt lat="45.5032567" lon="10.336195"><ele>146.0</ele><time>2026-03-28T07:19:20.844Z</time></trkpt><trkpt lat="45.5034067" lon="10.3363467"><ele>146.0</ele><time>2026-03-28T07:19:21.845Z</time></trkpt><trkpt lat="45.5035533" lon="10.3365"><ele>146.0</ele><time>2026-03-28T07:19:22.844Z</time></trkpt><trkpt lat="45.5036967" lon="10.3366633"><ele>146.0</ele><time>2026-03-28T07:19:23.844Z</time></trkpt><trkpt lat="45.5038367" lon="10.3368233"><ele>146.0</ele><time>2026-03-28T07:19:24.845Z</time></trkpt><trkpt lat="45.5039683" lon="10.3369817"><ele>146.0</ele><time>2026-03-28T07:19:25.844Z</time></trkpt><trkpt lat="45.5041017" lon="10.337145"><ele>146.0</ele><time>2026-03-28T07:19:26.845Z</time></trkpt><trkpt lat="45.5042267" lon="10.3372967"><ele>146.5</ele><time>2026-03-28T07:19:27.844Z</time></trkpt><trkpt lat="45.504335" lon="10.3374183"><ele>147.0</ele><time>2026-03-28T07:19:28.844Z</time></trkpt><trkpt lat="45.5044417" lon="10.337545"><ele>147.5</ele><time>2026-03-28T07:19:29.845Z</time></trkpt><trkpt lat="45.50453" lon="10.3376817"><ele>148.0</ele><time>2026-03-28T07:19:30.844Z</time></trkpt><trkpt lat="45.5045967" lon="10.3377867"><ele>148.0</ele><time>2026-03-28T07:19:31.844Z</time></trkpt><trkpt lat="45.5046483" lon="10.3378783"><ele>148.0</ele><time>2026-03-28T07:19:32.844Z</time></trkpt><trkpt lat="45.5046683" lon="10.3380233"><ele>148.0</ele><time>2026-03-28T07:19:34.845Z</time></trkpt><trkpt lat="45.50465" lon="10.3381267"><ele>148.0</ele><time>2026-03-28T07:19:37.845Z</time></trkpt><trkpt lat="45.5046233" lon="10.3382533"><ele>148.0</ele><time>2026-03-28T07:19:39.844Z</time></trkpt><trkpt lat="45.5046067" lon="10.3383433"><ele>148.0</ele><time>2026-03-28T07:19:40.845Z</time></trkpt><trkpt lat="45.5045833" lon="10.33845"><ele>148.0</ele><time>2026-03-28T07:19:41.845Z</time></trkpt><trkpt lat="45.504555" lon="10.3385617"><ele>148.0</ele><time>2026-03-28T07:19:42.845Z</time></trkpt><trkpt lat="45.5045183" lon="10.338685"><ele>148.0</ele><time>2026-03-28T07:19:43.844Z</time></trkpt><trkpt lat="45.5044633" lon="10.3388217"><ele>148.0</ele><time>2026-03-28T07:19:44.844Z</time></trkpt><trkpt lat="45.5044083" lon="10.3389683"><ele>148.0</ele><time>2026-03-28T07:19:45.845Z</time></trkpt><trkpt lat="45.50436" lon="10.33913"><ele>148.0</ele><time>2026-03-28T07:19:46.845Z</time></trkpt><trkpt lat="45.5043017" lon="10.3392883"><ele>148.0</ele><time>2026-03-28T07:19:47.844Z</time></trkpt><trkpt lat="45.5042433" lon="10.3394567"><ele>148.0</ele><time>2026-03-28T07:19:48.844Z</time></trkpt><trkpt lat="45.5041883" lon="10.3396283"><ele>148.0</ele><time>2026-03-28T07:19:49.844Z</time></trkpt><trkpt lat="45.5041317" lon="10.3398117"><ele>148.0</ele><time>2026-03-28T07:19:50.844Z</time></trkpt><trkpt lat="45.5040767" lon="10.34001"><ele>148.0</ele><time>2026-03-28T07:19:51.845Z</time></trkpt><trkpt lat="45.504025" lon="10.3401917"><ele>148.0</ele><time>2026-03-28T07:19:52.845Z</time></trkpt><trkpt lat="45.5039733" lon="10.34039"><ele>148.0</ele><time>2026-03-28T07:19:53.844Z</time></trkpt><trkpt lat="45.5039133" lon="10.34056"><ele>148.0</ele><time>2026-03-28T07:19:54.844Z</time></trkpt><trkpt lat="45.5038583" lon="10.3407483"><ele>148.0</ele><time>2026-03-28T07:19:55.844Z</time></trkpt><trkpt lat="45.5037883" lon="10.340945"><ele>148.0</ele><time>2026-03-28T07:19:56.844Z</time></trkpt><trkpt lat="45.50374" lon="10.3411467"><ele>148.0</ele><time>2026-03-28T07:19:57.845Z</time></trkpt><trkpt lat="45.503695" lon="10.3413283"><ele>148.25</ele><time>2026-03-28T07:19:58.844Z</time></trkpt><trkpt lat="45.5036467" lon="10.34151"><ele>148.5</ele><time>2026-03-28T07:19:59.844Z</time></trkpt><trkpt lat="45.503605" lon="10.3416833"><ele>148.75</ele><time>2026-03-28T07:20:00.845Z</time></trkpt><trkpt lat="45.5035583" lon="10.3418483"><ele>149.0</ele><time>2026-03-28T07:20:01.845Z</time></trkpt><trkpt lat="45.5035133" lon="10.34201"><ele>149.0</ele><time>2026-03-28T07:20:02.845Z</time></trkpt><trkpt lat="45.5034717" lon="10.34217"><ele>149.0</ele><time>2026-03-28T07:20:03.845Z</time></trkpt><trkpt lat="45.5034267" lon="10.34233"><ele>149.0</ele><time>2026-03-28T07:20:04.844Z</time></trkpt><trkpt lat="45.5033883" lon="10.342475"><ele>149.0</ele><time>2026-03-28T07:20:05.845Z</time></trkpt><trkpt lat="45.503355" lon="10.3426033"><ele>149.0</ele><time>2026-03-28T07:20:06.845Z</time></trkpt><trkpt lat="45.5033183" lon="10.3427317"><ele>149.0</ele><time>2026-03-28T07:20:07.844Z</time></trkpt><trkpt lat="45.5032767" lon="10.3428633"><ele>149.0</ele><time>2026-03-28T07:20:08.844Z</time></trkpt><trkpt lat="45.5032367" lon="10.3430033"><ele>149.0</ele><time>2026-03-28T07:20:09.845Z</time></trkpt><trkpt lat="45.5032033" lon="10.343145"><ele>149.0</ele><time>2026-03-28T07:20:10.844Z</time></trkpt><trkpt lat="45.5031617" lon="10.343285"><ele>149.0</ele><time>2026-03-28T07:20:11.844Z</time></trkpt><trkpt lat="45.50312" lon="10.3434217"><ele>149.0</ele><time>2026-03-28T07:20:12.845Z</time></trkpt><trkpt lat="45.5030833" lon="10.343565"><ele>149.0</ele><time>2026-03-28T07:20:13.845Z</time></trkpt><trkpt lat="45.5030367" lon="10.34371"><ele>149.0</ele><time>2026-03-28T07:20:14.845Z</time></trkpt><trkpt lat="45.50299" lon="10.343865"><ele>149.0</ele><time>2026-03-28T07:20:15.845Z</time></trkpt><trkpt lat="45.5029483" lon="10.3440083"><ele>149.0</ele><time>2026-03-28T07:20:16.844Z</time></trkpt><trkpt lat="45.50291" lon="10.3441717"><ele>149.0</ele><time>2026-03-28T07:20:17.844Z</time></trkpt><trkpt lat="45.502875" lon="10.3443383"><ele>149.0</ele><time>2026-03-28T07:20:18.844Z</time></trkpt><trkpt lat="45.5028417" lon="10.3445033"><ele>149.0</ele><time>2026-03-28T07:20:19.844Z</time></trkpt><trkpt lat="45.50281" lon="10.3446683"><ele>149.0</ele><time>2026-03-28T07:20:20.844Z</time></trkpt><trkpt lat="45.5027883" lon="10.3448367"><ele>149.25</ele><time>2026-03-28T07:20:21.845Z</time></trkpt><trkpt lat="45.502755" lon="10.3449983"><ele>149.5</ele><time>2026-03-28T07:20:22.845Z</time></trkpt><trkpt lat="45.5027217" lon="10.34516"><ele>149.75</ele><time>2026-03-28T07:20:23.845Z</time></trkpt><trkpt lat="45.5026767" lon="10.3453117"><ele>150.0</ele><time>2026-03-28T07:20:24.845Z</time></trkpt><trkpt lat="45.5026367" lon="10.3454667"><ele>150.0</ele><time>2026-03-28T07:20:25.845Z</time></trkpt><trkpt lat="45.5026033" lon="10.345615"><ele>150.0</ele><time>2026-03-28T07:20:26.845Z</time></trkpt><trkpt lat="45.5025517" lon="10.34576"><ele>150.0</ele><time>2026-03-28T07:20:27.844Z</time></trkpt><trkpt lat="45.502495" lon="10.3458767"><ele>150.0</ele><time>2026-03-28T07:20:28.844Z</time></trkpt><trkpt lat="45.5024417" lon="10.3460033"><ele>150.0</ele><time>2026-03-28T07:20:29.844Z</time></trkpt><trkpt lat="45.5024" lon="10.3461267"><ele>150.0</ele><time>2026-03-28T07:20:30.844Z</time></trkpt><trkpt lat="45.5023667" lon="10.3462317"><ele>150.0</ele><time>2026-03-28T07:20:31.844Z</time></trkpt><trkpt lat="45.5023333" lon="10.346325"><ele>150.0</ele><time>2026-03-28T07:20:32.844Z</time></trkpt><trkpt lat="45.5023" lon="10.34645"><ele>150.0</ele><time>2026-03-28T07:20:34.845Z</time></trkpt><trkpt lat="45.5022833" lon="10.34656"><ele>150.0</ele><time>2026-03-28T07:20:36.844Z</time></trkpt><trkpt lat="45.5022533" lon="10.3466417"><ele>150.0</ele><time>2026-03-28T07:20:37.845Z</time></trkpt><trkpt lat="45.5021967" lon="10.34672"><ele>149.8</ele><time>2026-03-28T07:20:38.845Z</time></trkpt><trkpt lat="45.502135" lon="10.3467933"><ele>149.6</ele><time>2026-03-28T07:20:39.844Z</time></trkpt><trkpt lat="45.5020867" lon="10.3468817"><ele>149.4</ele><time>2026-03-28T07:20:40.845Z</time></trkpt><trkpt lat="45.50208" lon="10.3470633"><ele>149.2</ele><time>2026-03-28T07:20:42.844Z</time></trkpt><trkpt lat="45.5021183" lon="10.34717"><ele>149.0</ele><time>2026-03-28T07:20:43.844Z</time></trkpt><trkpt lat="45.5021733" lon="10.3472567"><ele>148.8</ele><time>2026-03-28T07:20:44.844Z</time></trkpt><trkpt lat="45.502255" lon="10.3473233"><ele>148.60000000000002</ele><time>2026-03-28T07:20:45.844Z</time></trkpt><trkpt lat="45.5023367" lon="10.3473867"><ele>148.4</ele><time>2026-03-28T07:20:46.845Z</time></trkpt><trkpt lat="45.5024033" lon="10.347495"><ele>148.20000000000002</ele><time>2026-03-28T07:20:47.845Z</time></trkpt><trkpt lat="45.5024417" lon="10.347625"><ele>148.0</ele><time>2026-03-28T07:20:48.844Z</time></trkpt><trkpt lat="45.5024483" lon="10.3477617"><ele>148.0</ele><time>2026-03-28T07:20:49.845Z</time></trkpt><trkpt lat="45.5024267" lon="10.3479233"><ele>148.0</ele><time>2026-03-28T07:20:50.845Z</time></trkpt><trkpt lat="45.502415" lon="10.3480833"><ele>148.0</ele><time>2026-03-28T07:20:51.845Z</time></trkpt><trkpt lat="45.502405" lon="10.3482633"><ele>148.0</ele><time>2026-03-28T07:20:52.845Z</time></trkpt><trkpt lat="45.5023967" lon="10.3484383"><ele>148.25</ele><time>2026-03-28T07:20:53.845Z</time></trkpt><trkpt lat="45.502385" lon="10.3486267"><ele>148.5</ele><time>2026-03-28T07:20:54.845Z</time></trkpt><trkpt lat="45.5023667" lon="10.34883"><ele>148.75</ele><time>2026-03-28T07:20:55.845Z</time></trkpt><trkpt lat="45.50234" lon="10.3490467"><ele>149.0</ele><time>2026-03-28T07:20:56.844Z</time></trkpt><trkpt lat="45.502325" lon="10.3492517"><ele>149.0</ele><time>2026-03-28T07:20:57.844Z</time></trkpt><trkpt lat="45.5023067" lon="10.3494483"><ele>149.0</ele><time>2026-03-28T07:20:58.845Z</time></trkpt><trkpt lat="45.5022983" lon="10.3496483"><ele>149.0</ele><time>2026-03-28T07:20:59.844Z</time></trkpt><trkpt lat="45.5022967" lon="10.349845"><ele>149.0</ele><time>2026-03-28T07:21:00.845Z</time></trkpt><trkpt lat="45.5022917" lon="10.350035"><ele>149.5</ele><time>2026-03-28T07:21:01.844Z</time></trkpt><trkpt lat="45.50228" lon="10.35023"><ele>150.0</ele><time>2026-03-28T07:21:02.844Z</time></trkpt><trkpt lat="45.5022683" lon="10.3504183"><ele>150.5</ele><time>2026-03-28T07:21:03.844Z</time></trkpt><trkpt lat="45.5022583" lon="10.350595"><ele>151.0</ele><time>2026-03-28T07:21:04.844Z</time></trkpt><trkpt lat="45.5022483" lon="10.3507717"><ele>151.0</ele><time>2026-03-28T07:21:05.845Z</time></trkpt><trkpt lat="45.502245" lon="10.3509483"><ele>151.0</ele><time>2026-03-28T07:21:06.844Z</time></trkpt><trkpt lat="45.502225" lon="10.3511133"><ele>151.0</ele><time>2026-03-28T07:21:07.844Z</time></trkpt><trkpt lat="45.5022133" lon="10.351285"><ele>151.0</ele><time>2026-03-28T07:21:08.844Z</time></trkpt><trkpt lat="45.5021933" lon="10.3514617"><ele>151.0</ele><time>2026-03-28T07:21:09.845Z</time></trkpt><trkpt lat="45.5021783" lon="10.3516433"><ele>151.0</ele><time>2026-03-28T07:21:10.845Z</time></trkpt><trkpt lat="45.5021583" lon="10.35182"><ele>151.0</ele><time>2026-03-28T07:21:11.845Z</time></trkpt><trkpt lat="45.5021433" lon="10.3520017"><ele>151.0</ele><time>2026-03-28T07:21:12.844Z</time></trkpt><trkpt lat="45.5021217" lon="10.3521983"><ele>150.75</ele><time>2026-03-28T07:21:13.844Z</time></trkpt><trkpt lat="45.5021117" lon="10.3523917"><ele>150.5</ele><time>2026-03-28T07:21:14.844Z</time></trkpt><trkpt lat="45.5020967" lon="10.3525917"><ele>150.25</ele><time>2026-03-28T07:21:15.845Z</time></trkpt><trkpt lat="45.5020817" lon="10.3527967"><ele>150.0</ele><time>2026-03-28T07:21:16.844Z</time></trkpt><trkpt lat="45.5020867" lon="10.3529983"><ele>149.8</ele><time>2026-03-28T07:21:17.845Z</time></trkpt><trkpt lat="45.502075" lon="10.3531817"><ele>149.6</ele><time>2026-03-28T07:21:18.844Z</time></trkpt><trkpt lat="45.5020733" lon="10.3533417"><ele>149.4</ele><time>2026-03-28T07:21:19.844Z</time></trkpt><trkpt lat="45.5020717" lon="10.35349"><ele>149.2</ele><time>2026-03-28T07:21:20.845Z</time></trkpt><trkpt lat="45.5020583" lon="10.3536283"><ele>149.0</ele><time>2026-03-28T07:21:21.844Z</time></trkpt><trkpt lat="45.5020383" lon="10.35375"><ele>149.0</ele><time>2026-03-28T07:21:22.844Z</time></trkpt><trkpt lat="45.50201" lon="10.3538567"><ele>149.0</ele><time>2026-03-28T07:21:23.844Z</time></trkpt><trkpt lat="45.501975" lon="10.35396"><ele>149.0</ele><time>2026-03-28T07:21:24.845Z</time></trkpt><trkpt lat="45.50194" lon="10.3540633"><ele>149.0</ele><time>2026-03-28T07:21:25.844Z</time></trkpt><trkpt lat="45.50191" lon="10.3541833"><ele>149.0</ele><time>2026-03-28T07:21:26.845Z</time></trkpt><trkpt lat="45.5018933" lon="10.3543117"><ele>149.0</ele><time>2026-03-28T07:21:27.845Z</time></trkpt><trkpt lat="45.5019033" lon="10.3544433"><ele>149.2</ele><time>2026-03-28T07:21:28.844Z</time></trkpt><trkpt lat="45.501925" lon="10.3545767"><ele>149.4</ele><time>2026-03-28T07:21:29.844Z</time></trkpt><trkpt lat="45.5019417" lon="10.3547233"><ele>149.6</ele><time>2026-03-28T07:21:30.844Z</time></trkpt><trkpt lat="45.5019433" lon="10.35488"><ele>149.8</ele><time>2026-03-28T07:21:31.844Z</time></trkpt><trkpt lat="45.5019333" lon="10.3550417"><ele>150.0</ele><time>2026-03-28T07:21:32.844Z</time></trkpt><trkpt lat="45.50193" lon="10.355225"><ele>150.0</ele><time>2026-03-28T07:21:33.845Z</time></trkpt><trkpt lat="45.5019183" lon="10.355415"><ele>150.0</ele><time>2026-03-28T07:21:34.845Z</time></trkpt><trkpt lat="45.5019067" lon="10.3556117"><ele>150.0</ele><time>2026-03-28T07:21:35.844Z</time></trkpt><trkpt lat="45.5018933" lon="10.35581"><ele>150.0</ele><time>2026-03-28T07:21:36.844Z</time></trkpt><trkpt lat="45.50188" lon="10.3560167"><ele>150.5</ele><time>2026-03-28T07:21:37.844Z</time></trkpt><trkpt lat="45.5018617" lon="10.35622"><ele>151.0</ele><time>2026-03-28T07:21:38.845Z</time></trkpt><trkpt lat="45.5018533" lon="10.3564283"><ele>151.5</ele><time>2026-03-28T07:21:39.844Z</time></trkpt><trkpt lat="45.5018317" lon="10.3566383"><ele>152.0</ele><time>2026-03-28T07:21:40.845Z</time></trkpt><trkpt lat="45.5018167" lon="10.356855"><ele>152.33333333333331</ele><time>2026-03-28T07:21:41.844Z</time></trkpt><trkpt lat="45.5018017" lon="10.3570683"><ele>152.66666666666666</ele><time>2026-03-28T07:21:42.844Z</time></trkpt><trkpt lat="45.5018117" lon="10.3572917"><ele>153.0</ele><time>2026-03-28T07:21:43.845Z</time></trkpt><trkpt lat="45.5018533" lon="10.357505"><ele>153.0</ele><time>2026-03-28T07:21:44.844Z</time></trkpt><trkpt lat="45.501885" lon="10.3577167"><ele>153.0</ele><time>2026-03-28T07:21:45.844Z</time></trkpt><trkpt lat="45.5019267" lon="10.35793"><ele>153.0</ele><time>2026-03-28T07:21:46.845Z</time></trkpt><trkpt lat="45.5019867" lon="10.3581383"><ele>152.66666666666666</ele><time>2026-03-28T07:21:47.844Z</time></trkpt><trkpt lat="45.502055" lon="10.3583333"><ele>152.33333333333331</ele><time>2026-03-28T07:21:48.844Z</time></trkpt><trkpt lat="45.5021333" lon="10.3585317"><ele>152.0</ele><time>2026-03-28T07:21:49.844Z</time></trkpt><trkpt lat="45.5022117" lon="10.35873"><ele>152.0</ele><time>2026-03-28T07:21:50.844Z</time></trkpt><trkpt lat="45.5022883" lon="10.3589117"><ele>152.0</ele><time>2026-03-28T07:21:51.844Z</time></trkpt><trkpt lat="45.5023533" lon="10.3590667"><ele>152.0</ele><time>2026-03-28T07:21:52.845Z</time></trkpt><trkpt lat="45.5024233" lon="10.359215"><ele>152.0</ele><time>2026-03-28T07:21:53.844Z</time></trkpt><trkpt lat="45.5024933" lon="10.3593683"><ele>152.0</ele><time>2026-03-28T07:21:54.845Z</time></trkpt><trkpt lat="45.5025583" lon="10.3595133"><ele>152.0</ele><time>2026-03-28T07:21:55.845Z</time></trkpt><trkpt lat="45.5026167" lon="10.3596767"><ele>152.0</ele><time>2026-03-28T07:21:56.844Z</time></trkpt><trkpt lat="45.50268" lon="10.3598417"><ele>152.0</ele><time>2026-03-28T07:21:57.844Z</time></trkpt><trkpt lat="45.5027433" lon="10.3600067"><ele>152.5</ele><time>2026-03-28T07:21:58.844Z</time></trkpt><trkpt lat="45.5028133" lon="10.3601767"><ele>153.0</ele><time>2026-03-28T07:21:59.845Z</time></trkpt><trkpt lat="45.5029" lon="10.36035"><ele>153.5</ele><time>2026-03-28T07:22:00.844Z</time></trkpt><trkpt lat="45.5029783" lon="10.360525"><ele>154.0</ele><time>2026-03-28T07:22:01.844Z</time></trkpt><trkpt lat="45.50305" lon="10.3607067"><ele>154.0</ele><time>2026-03-28T07:22:02.845Z</time></trkpt><trkpt lat="45.5031267" lon="10.3608867"><ele>154.0</ele><time>2026-03-28T07:22:03.844Z</time></trkpt><trkpt lat="45.5031983" lon="10.361065"><ele>154.0</ele><time>2026-03-28T07:22:04.844Z</time></trkpt><trkpt lat="45.5032733" lon="10.3612317"><ele>154.0</ele><time>2026-03-28T07:22:05.844Z</time></trkpt><trkpt lat="45.5033417" lon="10.3613917"><ele>154.5</ele><time>2026-03-28T07:22:06.844Z</time></trkpt><trkpt lat="45.50341" lon="10.361535"><ele>155.0</ele><time>2026-03-28T07:22:07.844Z</time></trkpt><trkpt lat="45.503475" lon="10.36168"><ele>155.5</ele><time>2026-03-28T07:22:08.845Z</time></trkpt><trkpt lat="45.503535" lon="10.36183"><ele>156.0</ele><time>2026-03-28T07:22:09.845Z</time></trkpt><trkpt lat="45.5036" lon="10.3619817"><ele>156.0</ele><time>2026-03-28T07:22:10.844Z</time></trkpt><trkpt lat="45.5036717" lon="10.3621417"><ele>156.0</ele><time>2026-03-28T07:22:11.844Z</time></trkpt><trkpt lat="45.503735" lon="10.3623033"><ele>156.0</ele><time>2026-03-28T07:22:12.845Z</time></trkpt><trkpt lat="45.5037883" lon="10.362475"><ele>156.0</ele><time>2026-03-28T07:22:13.845Z</time></trkpt><trkpt lat="45.5038433" lon="10.3626117"><ele>156.0</ele><time>2026-03-28T07:22:14.844Z</time></trkpt><trkpt lat="45.5039017" lon="10.3627383"><ele>156.0</ele><time>2026-03-28T07:22:15.845Z</time></trkpt><trkpt lat="45.5039417" lon="10.3628517"><ele>156.0</ele><time>2026-03-28T07:22:16.845Z</time></trkpt><trkpt lat="45.5039933" lon="10.3629683"><ele>156.0</ele><time>2026-03-28T07:22:17.844Z</time></trkpt><trkpt lat="45.5040367" lon="10.3630817"><ele>156.0</ele><time>2026-03-28T07:22:18.844Z</time></trkpt><trkpt lat="45.5040817" lon="10.3631833"><ele>156.2</ele><time>2026-03-28T07:22:19.844Z</time></trkpt><trkpt lat="45.50413" lon="10.3633067"><ele>156.39999999999998</ele><time>2026-03-28T07:22:20.845Z</time></trkpt><trkpt lat="45.5041933" lon="10.3634217"><ele>156.6</ele><time>2026-03-28T07:22:21.845Z</time></trkpt><trkpt lat="45.5042583" lon="10.3635433"><ele>156.79999999999998</ele><time>2026-03-28T07:22:22.845Z</time></trkpt><trkpt lat="45.5043317" lon="10.3636733"><ele>157.0</ele><time>2026-03-28T07:22:23.845Z</time></trkpt><trkpt lat="45.504405" lon="10.3638083"><ele>156.5</ele><time>2026-03-28T07:22:24.844Z</time></trkpt><trkpt lat="45.50449" lon="10.36395"><ele>156.0</ele><time>2026-03-28T07:22:25.844Z</time></trkpt><trkpt lat="45.50456" lon="10.3640883"><ele>155.5</ele><time>2026-03-28T07:22:26.844Z</time></trkpt><trkpt lat="45.5046333" lon="10.3642317"><ele>155.0</ele><time>2026-03-28T07:22:27.844Z</time></trkpt><trkpt lat="45.5047033" lon="10.3643767"><ele>155.0</ele><time>2026-03-28T07:22:28.844Z</time></trkpt><trkpt lat="45.50477" lon="10.364525"><ele>155.0</ele><time>2026-03-28T07:22:29.845Z</time></trkpt><trkpt lat="45.5048317" lon="10.3646783"><ele>155.0</ele><time>2026-03-28T07:22:30.844Z</time></trkpt><trkpt lat="45.504895" lon="10.36482"><ele>155.0</ele><time>2026-03-28T07:22:31.845Z</time></trkpt><trkpt lat="45.504955" lon="10.3649583"><ele>155.0</ele><time>2026-03-28T07:22:32.844Z</time></trkpt><trkpt lat="45.5050267" lon="10.3650867"><ele>155.0</ele><time>2026-03-28T07:22:33.845Z</time></trkpt><trkpt lat="45.5050867" lon="10.3652267"><ele>155.0</ele><time>2026-03-28T07:22:34.844Z</time></trkpt><trkpt lat="45.505145" lon="10.36536"><ele>155.0</ele><time>2026-03-28T07:22:35.845Z</time></trkpt><trkpt lat="45.5052083" lon="10.3654883"><ele>155.2</ele><time>2026-03-28T07:22:36.844Z</time></trkpt><trkpt lat="45.505265" lon="10.3656117"><ele>155.4</ele><time>2026-03-28T07:22:37.845Z</time></trkpt><trkpt lat="45.505325" lon="10.3657333"><ele>155.6</ele><time>2026-03-28T07:22:38.845Z</time></trkpt><trkpt lat="45.5053817" lon="10.3658583"><ele>155.8</ele><time>2026-03-28T07:22:39.845Z</time></trkpt><trkpt lat="45.50541" lon="10.3659917"><ele>156.0</ele><time>2026-03-28T07:22:40.845Z</time></trkpt><trkpt lat="45.505475" lon="10.3661233"><ele>156.0</ele><time>2026-03-28T07:22:41.844Z</time></trkpt><trkpt lat="45.505535" lon="10.3662517"><ele>156.0</ele><time>2026-03-28T07:22:42.844Z</time></trkpt><trkpt lat="45.5055967" lon="10.3663817"><ele>156.0</ele><time>2026-03-28T07:22:43.844Z</time></trkpt><trkpt lat="45.505655" lon="10.3665033"><ele>156.0</ele><time>2026-03-28T07:22:44.844Z</time></trkpt><trkpt lat="45.5057117" lon="10.36664"><ele>156.0</ele><time>2026-03-28T07:22:45.845Z</time></trkpt><trkpt lat="45.50577" lon="10.36677"><ele>156.2</ele><time>2026-03-28T07:22:46.844Z</time></trkpt><trkpt lat="45.5058333" lon="10.3668983"><ele>156.39999999999998</ele><time>2026-03-28T07:22:47.844Z</time></trkpt><trkpt lat="45.5058933" lon="10.367025"><ele>156.6</ele><time>2026-03-28T07:22:48.845Z</time></trkpt><trkpt lat="45.505955" lon="10.3671617"><ele>156.79999999999998</ele><time>2026-03-28T07:22:49.844Z</time></trkpt><trkpt lat="45.5060167" lon="10.3673017"><ele>157.0</ele><time>2026-03-28T07:22:50.845Z</time></trkpt><trkpt lat="45.50608" lon="10.36745"><ele>157.0</ele><time>2026-03-28T07:22:51.845Z</time></trkpt><trkpt lat="45.5061617" lon="10.3676"><ele>157.0</ele><time>2026-03-28T07:22:52.844Z</time></trkpt><trkpt lat="45.50623" lon="10.367755"><ele>157.0</ele><time>2026-03-28T07:22:53.845Z</time></trkpt><trkpt lat="45.506305" lon="10.3679167"><ele>157.0</ele><time>2026-03-28T07:22:54.845Z</time></trkpt><trkpt lat="45.5063833" lon="10.3680767"><ele>156.75</ele><time>2026-03-28T07:22:55.844Z</time></trkpt><trkpt lat="45.50646" lon="10.3682333"><ele>156.5</ele><time>2026-03-28T07:22:56.844Z</time></trkpt><trkpt lat="45.5065383" lon="10.3683917"><ele>156.25</ele><time>2026-03-28T07:22:57.845Z</time></trkpt><trkpt lat="45.5066083" lon="10.3685533"><ele>156.0</ele><time>2026-03-28T07:22:58.844Z</time></trkpt><trkpt lat="45.50668" lon="10.368715"><ele>156.25</ele><time>2026-03-28T07:22:59.844Z</time></trkpt><trkpt lat="45.5067567" lon="10.36888"><ele>156.5</ele><time>2026-03-28T07:23:00.845Z</time></trkpt><trkpt lat="45.506835" lon="10.3690317"><ele>156.75</ele><time>2026-03-28T07:23:01.844Z</time></trkpt><trkpt lat="45.5069083" lon="10.3691917"><ele>157.0</ele><time>2026-03-28T07:23:02.844Z</time></trkpt><trkpt lat="45.5069783" lon="10.3693567"><ele>157.0</ele><time>2026-03-28T07:23:03.844Z</time></trkpt><trkpt lat="45.5070483" lon="10.3695317"><ele>157.0</ele><time>2026-03-28T07:23:04.844Z</time></trkpt><trkpt lat="45.5071217" lon="10.3696933"><ele>157.0</ele><time>2026-03-28T07:23:05.844Z</time></trkpt><trkpt lat="45.5072" lon="10.3698633"><ele>157.0</ele><time>2026-03-28T07:23:06.844Z</time></trkpt><trkpt lat="45.5072783" lon="10.370025"><ele>157.0</ele><time>2026-03-28T07:23:07.844Z</time></trkpt><trkpt lat="45.507355" lon="10.3701817"><ele>157.0</ele><time>2026-03-28T07:23:08.845Z</time></trkpt><trkpt lat="45.5074317" lon="10.3703583"><ele>157.0</ele><time>2026-03-28T07:23:09.844Z</time></trkpt><trkpt lat="45.5075083" lon="10.3705283"><ele>157.0</ele><time>2026-03-28T07:23:10.845Z</time></trkpt><trkpt lat="45.5075817" lon="10.370705"><ele>157.25</ele><time>2026-03-28T07:23:11.845Z</time></trkpt><trkpt lat="45.5076567" lon="10.3708767"><ele>157.5</ele><time>2026-03-28T07:23:12.844Z</time></trkpt><trkpt lat="45.5077317" lon="10.3710467"><ele>157.75</ele><time>2026-03-28T07:23:13.844Z</time></trkpt><trkpt lat="45.5078033" lon="10.3712083"><ele>158.0</ele><time>2026-03-28T07:23:14.845Z</time></trkpt><trkpt lat="45.507875" lon="10.3713717"><ele>158.5</ele><time>2026-03-28T07:23:15.844Z</time></trkpt><trkpt lat="45.5079517" lon="10.37152"><ele>159.0</ele><time>2026-03-28T07:23:16.845Z</time></trkpt><trkpt lat="45.5080233" lon="10.3716733"><ele>159.5</ele><time>2026-03-28T07:23:17.844Z</time></trkpt><trkpt lat="45.508095" lon="10.3718167"><ele>160.0</ele><time>2026-03-28T07:23:18.844Z</time></trkpt><trkpt lat="45.5081533" lon="10.3719633"><ele>160.0</ele><time>2026-03-28T07:23:19.845Z</time></trkpt><trkpt lat="45.508215" lon="10.3721133"><ele>160.0</ele><time>2026-03-28T07:23:20.845Z</time></trkpt><trkpt lat="45.5082833" lon="10.37227"><ele>160.0</ele><time>2026-03-28T07:23:21.844Z</time></trkpt><trkpt lat="45.5083467" lon="10.372415"><ele>160.0</ele><time>2026-03-28T07:23:22.845Z</time></trkpt><trkpt lat="45.5084117" lon="10.3725633"><ele>160.25</ele><time>2026-03-28T07:23:23.844Z</time></trkpt><trkpt lat="45.50848" lon="10.3726967"><ele>160.5</ele><time>2026-03-28T07:23:24.844Z</time></trkpt><trkpt lat="45.5085383" lon="10.3728383"><ele>160.75</ele><time>2026-03-28T07:23:25.845Z</time></trkpt><trkpt lat="45.508595" lon="10.37298"><ele>161.0</ele><time>2026-03-28T07:23:26.844Z</time></trkpt><trkpt lat="45.50865" lon="10.3731133"><ele>160.4</ele><time>2026-03-28T07:23:27.845Z</time></trkpt><trkpt lat="45.50869" lon="10.3732633"><ele>159.8</ele><time>2026-03-28T07:23:28.845Z</time></trkpt><trkpt lat="45.5087267" lon="10.3734017"><ele>159.20000000000002</ele><time>2026-03-28T07:23:29.844Z</time></trkpt><trkpt lat="45.5087583" lon="10.3735333"><ele>158.60000000000002</ele><time>2026-03-28T07:23:30.845Z</time></trkpt><trkpt lat="45.5087817" lon="10.3736433"><ele>158.0</ele><time>2026-03-28T07:23:31.844Z</time></trkpt><trkpt lat="45.5087933" lon="10.3737317"><ele>158.0</ele><time>2026-03-28T07:23:32.845Z</time></trkpt><trkpt lat="45.508795" lon="10.37386"><ele>158.0</ele><time>2026-03-28T07:23:34.845Z</time></trkpt><trkpt lat="45.50876" lon="10.3739833"><ele>158.0</ele><time>2026-03-28T07:23:36.845Z</time></trkpt><trkpt lat="45.5087383" lon="10.3740683"><ele>158.0</ele><time>2026-03-28T07:23:37.845Z</time></trkpt><trkpt lat="45.5087117" lon="10.37417"><ele>158.0</ele><time>2026-03-28T07:23:38.845Z</time></trkpt><trkpt lat="45.5086883" lon="10.374275"><ele>158.0</ele><time>2026-03-28T07:23:39.844Z</time></trkpt><trkpt lat="45.50871" lon="10.3743933"><ele>158.0</ele><time>2026-03-28T07:23:40.844Z</time></trkpt><trkpt lat="45.5087467" lon="10.3745033"><ele>158.0</ele><time>2026-03-28T07:23:41.844Z</time></trkpt><trkpt lat="45.5087833" lon="10.3746067"><ele>158.0</ele><time>2026-03-28T07:23:42.844Z</time></trkpt><trkpt lat="45.5088217" lon="10.37472"><ele>158.0</ele><time>2026-03-28T07:23:43.844Z</time></trkpt><trkpt lat="45.5088467" lon="10.374855"><ele>158.0</ele><time>2026-03-28T07:23:44.845Z</time></trkpt><trkpt lat="45.50886" lon="10.3749967"><ele>158.0</ele><time>2026-03-28T07:23:45.844Z</time></trkpt><trkpt lat="45.5088683" lon="10.3751483"><ele>158.0</ele><time>2026-03-28T07:23:46.844Z</time></trkpt><trkpt lat="45.5088817" lon="10.375305"><ele>158.0</ele><time>2026-03-28T07:23:47.844Z</time></trkpt><trkpt lat="45.5088883" lon="10.3754633"><ele>158.0</ele><time>2026-03-28T07:23:48.845Z</time></trkpt><trkpt lat="45.508895" lon="10.3756283"><ele>158.0</ele><time>2026-03-28T07:23:49.845Z</time></trkpt><trkpt lat="45.508905" lon="10.3757917"><ele>158.0</ele><time>2026-03-28T07:23:50.844Z</time></trkpt><trkpt lat="45.5089133" lon="10.3759583"><ele>158.0</ele><time>2026-03-28T07:23:51.845Z</time></trkpt><trkpt lat="45.5089183" lon="10.3761283"><ele>158.0</ele><time>2026-03-28T07:23:52.844Z</time></trkpt><trkpt lat="45.5089167" lon="10.3762933"><ele>158.0</ele><time>2026-03-28T07:23:53.844Z</time></trkpt><trkpt lat="45.5089183" lon="10.3764533"><ele>157.75</ele><time>2026-03-28T07:23:54.844Z</time></trkpt><trkpt lat="45.50893" lon="10.37661"><ele>157.5</ele><time>2026-03-28T07:23:55.844Z</time></trkpt><trkpt lat="45.5089367" lon="10.3767717"><ele>157.25</ele><time>2026-03-28T07:23:56.844Z</time></trkpt><trkpt lat="45.508955" lon="10.376935"><ele>157.0</ele><time>2026-03-28T07:23:57.845Z</time></trkpt><trkpt lat="45.5089533" lon="10.3770983"><ele>157.25</ele><time>2026-03-28T07:23:58.844Z</time></trkpt><trkpt lat="45.5089567" lon="10.3772667"><ele>157.5</ele><time>2026-03-28T07:23:59.844Z</time></trkpt><trkpt lat="45.508965" lon="10.37744"><ele>157.75</ele><time>2026-03-28T07:24:00.844Z</time></trkpt><trkpt lat="45.50897" lon="10.37762"><ele>158.0</ele><time>2026-03-28T07:24:01.844Z</time></trkpt><trkpt lat="45.5089717" lon="10.3777967"><ele>158.0</ele><time>2026-03-28T07:24:02.845Z</time></trkpt><trkpt lat="45.5089767" lon="10.3779817"><ele>158.0</ele><time>2026-03-28T07:24:03.844Z</time></trkpt><trkpt lat="45.508985" lon="10.3781667"><ele>158.0</ele><time>2026-03-28T07:24:04.845Z</time></trkpt><trkpt lat="45.5089917" lon="10.378355"><ele>158.0</ele><time>2026-03-28T07:24:05.845Z</time></trkpt><trkpt lat="45.5089933" lon="10.3785567"><ele>157.75</ele><time>2026-03-28T07:24:06.845Z</time></trkpt><trkpt lat="45.5090033" lon="10.3787467"><ele>157.5</ele><time>2026-03-28T07:24:07.845Z</time></trkpt><trkpt lat="45.5090083" lon="10.3789483"><ele>157.25</ele><time>2026-03-28T07:24:08.844Z</time></trkpt><trkpt lat="45.5090133" lon="10.37915"><ele>157.0</ele><time>2026-03-28T07:24:09.844Z</time></trkpt><trkpt lat="45.50902" lon="10.3793583"><ele>157.0</ele><time>2026-03-28T07:24:10.845Z</time></trkpt><trkpt lat="45.5090283" lon="10.3795633"><ele>157.0</ele><time>2026-03-28T07:24:11.845Z</time></trkpt><trkpt lat="45.509035" lon="10.37977"><ele>157.0</ele><time>2026-03-28T07:24:12.844Z</time></trkpt><trkpt lat="45.50904" lon="10.3799733"><ele>157.0</ele><time>2026-03-28T07:24:13.845Z</time></trkpt><trkpt lat="45.5090417" lon="10.3801717"><ele>157.0</ele><time>2026-03-28T07:24:14.844Z</time></trkpt><trkpt lat="45.5090467" lon="10.38038"><ele>157.0</ele><time>2026-03-28T07:24:15.845Z</time></trkpt><trkpt lat="45.50905" lon="10.3805783"><ele>157.0</ele><time>2026-03-28T07:24:16.845Z</time></trkpt><trkpt lat="45.509055" lon="10.3807817"><ele>157.0</ele><time>2026-03-28T07:24:17.845Z</time></trkpt><trkpt lat="45.5090617" lon="10.3809817"><ele>157.5</ele><time>2026-03-28T07:24:18.845Z</time></trkpt><trkpt lat="45.5090833" lon="10.3811883"><ele>158.0</ele><time>2026-03-28T07:24:19.844Z</time></trkpt><trkpt lat="45.509085" lon="10.38139"><ele>158.5</ele><time>2026-03-28T07:24:20.844Z</time></trkpt><trkpt lat="45.5090883" lon="10.3815983"><ele>159.0</ele><time>2026-03-28T07:24:21.844Z</time></trkpt><trkpt lat="45.5090983" lon="10.3818"><ele>159.0</ele><time>2026-03-28T07:24:22.844Z</time></trkpt><trkpt lat="45.5091033" lon="10.3819983"><ele>159.0</ele><time>2026-03-28T07:24:23.845Z</time></trkpt><trkpt lat="45.50911" lon="10.3822017"><ele>159.0</ele><time>2026-03-28T07:24:24.844Z</time></trkpt><trkpt lat="45.5091167" lon="10.3824067"><ele>159.0</ele><time>2026-03-28T07:24:25.845Z</time></trkpt><trkpt lat="45.5091233" lon="10.38259"><ele>159.0</ele><time>2026-03-28T07:24:26.844Z</time></trkpt><trkpt lat="45.5091283" lon="10.382785"><ele>159.0</ele><time>2026-03-28T07:24:27.845Z</time></trkpt><trkpt lat="45.5091317" lon="10.3829733"><ele>159.0</ele><time>2026-03-28T07:24:28.845Z</time></trkpt><trkpt lat="45.5091417" lon="10.3831633"><ele>159.0</ele><time>2026-03-28T07:24:29.844Z</time></trkpt><trkpt lat="45.5091467" lon="10.3833667"><ele>159.0</ele><time>2026-03-28T07:24:30.845Z</time></trkpt><trkpt lat="45.5091583" lon="10.3835617"><ele>159.0</ele><time>2026-03-28T07:24:31.845Z</time></trkpt><trkpt lat="45.5091617" lon="10.383765"><ele>159.0</ele><time>2026-03-28T07:24:32.844Z</time></trkpt><trkpt lat="45.5091667" lon="10.3839667"><ele>159.0</ele><time>2026-03-28T07:24:33.845Z</time></trkpt><trkpt lat="45.50917" lon="10.3841683"><ele>159.0</ele><time>2026-03-28T07:24:34.845Z</time></trkpt><trkpt lat="45.5091767" lon="10.3843683"><ele>159.0</ele><time>2026-03-28T07:24:35.845Z</time></trkpt><trkpt lat="45.509185" lon="10.3845683"><ele>159.0</ele><time>2026-03-28T07:24:36.845Z</time></trkpt><trkpt lat="45.509185" lon="10.38476"><ele>159.0</ele><time>2026-03-28T07:24:37.845Z</time></trkpt><trkpt lat="45.5091917" lon="10.3849467"><ele>159.0</ele><time>2026-03-28T07:24:38.844Z</time></trkpt><trkpt lat="45.50919" lon="10.3851333"><ele>159.0</ele><time>2026-03-28T07:24:39.844Z</time></trkpt><trkpt lat="45.50919" lon="10.385325"><ele>159.0</ele><time>2026-03-28T07:24:40.844Z</time></trkpt><trkpt lat="45.5091967" lon="10.3855167"><ele>159.0</ele><time>2026-03-28T07:24:41.844Z</time></trkpt><trkpt lat="45.5092033" lon="10.3857133"><ele>159.0</ele><time>2026-03-28T07:24:42.844Z</time></trkpt><trkpt lat="45.5092067" lon="10.3859167"><ele>159.0</ele><time>2026-03-28T07:24:43.844Z</time></trkpt><trkpt lat="45.5092083" lon="10.38612"><ele>159.0</ele><time>2026-03-28T07:24:44.844Z</time></trkpt><trkpt lat="45.5092267" lon="10.386335"><ele>159.0</ele><time>2026-03-28T07:24:45.845Z</time></trkpt><trkpt lat="45.5092383" lon="10.38655"><ele>159.0</ele><time>2026-03-28T07:24:46.844Z</time></trkpt><trkpt lat="45.5092483" lon="10.3867717"><ele>159.0</ele><time>2026-03-28T07:24:47.844Z</time></trkpt><trkpt lat="45.5092583" lon="10.3870033"><ele>159.0</ele><time>2026-03-28T07:24:48.845Z</time></trkpt><trkpt lat="45.5092567" lon="10.3872233"><ele>158.66666666666666</ele><time>2026-03-28T07:24:49.844Z</time></trkpt><trkpt lat="45.5092617" lon="10.3874533"><ele>158.33333333333331</ele><time>2026-03-28T07:24:50.845Z</time></trkpt><trkpt lat="45.5092717" lon="10.3876833"><ele>158.0</ele><time>2026-03-28T07:24:51.844Z</time></trkpt><trkpt lat="45.5092817" lon="10.38792"><ele>158.0</ele><time>2026-03-28T07:24:52.845Z</time></trkpt><trkpt lat="45.5092883" lon="10.3881533"><ele>158.0</ele><time>2026-03-28T07:24:53.844Z</time></trkpt><trkpt lat="45.509305" lon="10.3883833"><ele>158.0</ele><time>2026-03-28T07:24:54.844Z</time></trkpt><trkpt lat="45.5093083" lon="10.3886083"><ele>158.0</ele><time>2026-03-28T07:24:55.845Z</time></trkpt><trkpt lat="45.509315" lon="10.38883"><ele>158.0</ele><time>2026-03-28T07:24:56.845Z</time></trkpt><trkpt lat="45.5093317" lon="10.3890517"><ele>158.0</ele><time>2026-03-28T07:24:57.844Z</time></trkpt><trkpt lat="45.5093367" lon="10.3892683"><ele>158.0</ele><time>2026-03-28T07:24:58.845Z</time></trkpt><trkpt lat="45.5093433" lon="10.3894883"><ele>158.0</ele><time>2026-03-28T07:24:59.844Z</time></trkpt><trkpt lat="45.5093567" lon="10.389705"><ele>158.0</ele><time>2026-03-28T07:25:00.844Z</time></trkpt><trkpt lat="45.509365" lon="10.38992"><ele>158.0</ele><time>2026-03-28T07:25:01.845Z</time></trkpt><trkpt lat="45.5093817" lon="10.3901233"><ele>158.0</ele><time>2026-03-28T07:25:02.845Z</time></trkpt><trkpt lat="45.509395" lon="10.3903217"><ele>158.0</ele><time>2026-03-28T07:25:03.845Z</time></trkpt><trkpt lat="45.5094033" lon="10.3905183"><ele>158.0</ele><time>2026-03-28T07:25:04.845Z</time></trkpt><trkpt lat="45.509415" lon="10.3907083"><ele>158.0</ele><time>2026-03-28T07:25:05.844Z</time></trkpt><trkpt lat="45.50943" lon="10.3908983"><ele>158.0</ele><time>2026-03-28T07:25:06.844Z</time></trkpt><trkpt lat="45.5094383" lon="10.39109"><ele>158.0</ele><time>2026-03-28T07:25:07.844Z</time></trkpt><trkpt lat="45.5094483" lon="10.3912833"><ele>158.0</ele><time>2026-03-28T07:25:08.844Z</time></trkpt><trkpt lat="45.5094533" lon="10.391475"><ele>158.5</ele><time>2026-03-28T07:25:09.844Z</time></trkpt><trkpt lat="45.5094633" lon="10.39166"><ele>159.0</ele><time>2026-03-28T07:25:10.844Z</time></trkpt><trkpt lat="45.5094667" lon="10.3918483"><ele>159.5</ele><time>2026-03-28T07:25:11.844Z</time></trkpt><trkpt lat="45.5094683" lon="10.3920383"><ele>160.0</ele><time>2026-03-28T07:25:12.844Z</time></trkpt><trkpt lat="45.50948" lon="10.3922283"><ele>160.25</ele><time>2026-03-28T07:25:13.844Z</time></trkpt><trkpt lat="45.5095017" lon="10.3924217"><ele>160.5</ele><time>2026-03-28T07:25:14.844Z</time></trkpt><trkpt lat="45.5095283" lon="10.3926167"><ele>160.75</ele><time>2026-03-28T07:25:15.845Z</time></trkpt><trkpt lat="45.5095617" lon="10.3928067"><ele>161.0</ele><time>2026-03-28T07:25:16.845Z</time></trkpt><trkpt lat="45.5095933" lon="10.3929717"><ele>161.0</ele><time>2026-03-28T07:25:17.844Z</time></trkpt><trkpt lat="45.5096183" lon="10.3931283"><ele>161.0</ele><time>2026-03-28T07:25:18.845Z</time></trkpt><trkpt lat="45.5096367" lon="10.3932783"><ele>161.0</ele><time>2026-03-28T07:25:19.844Z</time></trkpt><trkpt lat="45.50965" lon="10.3934317"><ele>161.0</ele><time>2026-03-28T07:25:20.845Z</time></trkpt><trkpt lat="45.50966" lon="10.3935933"><ele>161.0</ele><time>2026-03-28T07:25:21.845Z</time></trkpt><trkpt lat="45.50967" lon="10.39376"><ele>161.0</ele><time>2026-03-28T07:25:22.844Z</time></trkpt><trkpt lat="45.509685" lon="10.3939183"><ele>161.0</ele><time>2026-03-28T07:25:23.844Z</time></trkpt><trkpt lat="45.5097017" lon="10.3940633"><ele>161.0</ele><time>2026-03-28T07:25:24.845Z</time></trkpt><trkpt lat="45.50971" lon="10.39421"><ele>161.0</ele><time>2026-03-28T07:25:25.845Z</time></trkpt><trkpt lat="45.5097083" lon="10.3943583"><ele>161.0</ele><time>2026-03-28T07:25:26.845Z</time></trkpt><trkpt lat="45.5097133" lon="10.3945167"><ele>161.0</ele><time>2026-03-28T07:25:27.844Z</time></trkpt><trkpt lat="45.50972" lon="10.3946783"><ele>161.0</ele><time>2026-03-28T07:25:28.845Z</time></trkpt><trkpt lat="45.5097417" lon="10.394835"><ele>161.0</ele><time>2026-03-28T07:25:29.845Z</time></trkpt><trkpt lat="45.5097467" lon="10.3950017"><ele>161.0</ele><time>2026-03-28T07:25:30.844Z</time></trkpt><trkpt lat="45.50976" lon="10.3951683"><ele>161.0</ele><time>2026-03-28T07:25:31.844Z</time></trkpt><trkpt lat="45.5097667" lon="10.3953233"><ele>161.0</ele><time>2026-03-28T07:25:32.845Z</time></trkpt><trkpt lat="45.509775" lon="10.3954583"><ele>161.0</ele><time>2026-03-28T07:25:33.845Z</time></trkpt><trkpt lat="45.5097867" lon="10.3955933"><ele>161.0</ele><time>2026-03-28T07:25:34.844Z</time></trkpt><trkpt lat="45.5097967" lon="10.39573"><ele>161.0</ele><time>2026-03-28T07:25:35.845Z</time></trkpt><trkpt lat="45.5098033" lon="10.39587"><ele>161.0</ele><time>2026-03-28T07:25:36.844Z</time></trkpt><trkpt lat="45.5098117" lon="10.3960083"><ele>161.0</ele><time>2026-03-28T07:25:37.845Z</time></trkpt><trkpt lat="45.5098217" lon="10.3961317"><ele>161.0</ele><time>2026-03-28T07:25:38.844Z</time></trkpt><trkpt lat="45.5098317" lon="10.3962467"><ele>161.0</ele><time>2026-03-28T07:25:39.844Z</time></trkpt><trkpt lat="45.5098367" lon="10.3963617"><ele>161.0</ele><time>2026-03-28T07:25:40.845Z</time></trkpt><trkpt lat="45.5098433" lon="10.39648"><ele>161.0</ele><time>2026-03-28T07:25:41.844Z</time></trkpt><trkpt lat="45.5098567" lon="10.3966017"><ele>161.0</ele><time>2026-03-28T07:25:42.845Z</time></trkpt><trkpt lat="45.5098617" lon="10.3967283"><ele>161.0</ele><time>2026-03-28T07:25:43.844Z</time></trkpt><trkpt lat="45.5098683" lon="10.3968567"><ele>161.0</ele><time>2026-03-28T07:25:44.844Z</time></trkpt><trkpt lat="45.5098717" lon="10.396975"><ele>161.0</ele><time>2026-03-28T07:25:45.845Z</time></trkpt><trkpt lat="45.5098767" lon="10.39709"><ele>161.0</ele><time>2026-03-28T07:25:46.845Z</time></trkpt><trkpt lat="45.5098833" lon="10.3971983"><ele>161.0</ele><time>2026-03-28T07:25:47.845Z</time></trkpt><trkpt lat="45.50989" lon="10.3973017"><ele>160.5</ele><time>2026-03-28T07:25:48.845Z</time></trkpt><trkpt lat="45.509905" lon="10.3974133"><ele>160.0</ele><time>2026-03-28T07:25:49.844Z</time></trkpt><trkpt lat="45.50993" lon="10.39752"><ele>159.5</ele><time>2026-03-28T07:25:50.844Z</time></trkpt><trkpt lat="45.5099733" lon="10.3976233"><ele>159.0</ele><time>2026-03-28T07:25:51.844Z</time></trkpt><trkpt lat="45.510025" lon="10.3977083"><ele>158.5</ele><time>2026-03-28T07:25:52.845Z</time></trkpt><trkpt lat="45.5100933" lon="10.3977617"><ele>158.0</ele><time>2026-03-28T07:25:53.845Z</time></trkpt><trkpt lat="45.5101667" lon="10.397795"><ele>158.0</ele><time>2026-03-28T07:25:54.845Z</time></trkpt><trkpt lat="45.5102383" lon="10.3978217"><ele>158.0</ele><time>2026-03-28T07:25:55.844Z</time></trkpt><trkpt lat="45.5103067" lon="10.3978417"><ele>158.0</ele><time>2026-03-28T07:25:56.844Z</time></trkpt><trkpt lat="45.51039" lon="10.39785"><ele>158.0</ele><time>2026-03-28T07:25:57.844Z</time></trkpt><trkpt lat="45.510465" lon="10.39786"><ele>158.0</ele><time>2026-03-28T07:25:58.844Z</time></trkpt><trkpt lat="45.5105367" lon="10.39788"><ele>158.0</ele><time>2026-03-28T07:25:59.845Z</time></trkpt><trkpt lat="45.510655" lon="10.39792"><ele>158.4</ele><time>2026-03-28T07:26:01.844Z</time></trkpt><trkpt lat="45.5107617" lon="10.397975"><ele>158.8</ele><time>2026-03-28T07:26:03.844Z</time></trkpt><trkpt lat="45.510865" lon="10.3980417"><ele>159.2</ele><time>2026-03-28T07:26:05.845Z</time></trkpt><trkpt lat="45.5109067" lon="10.3981917"><ele>159.6</ele><time>2026-03-28T07:26:07.844Z</time></trkpt><trkpt lat="45.51091" lon="10.3982867"><ele>160.0</ele><time>2026-03-28T07:26:08.845Z</time></trkpt><trkpt lat="45.5108933" lon="10.398385"><ele>158.66666666666669</ele><time>2026-03-28T07:26:09.844Z</time></trkpt><trkpt lat="45.5108667" lon="10.39848"><ele>157.33333333333334</ele><time>2026-03-28T07:26:10.844Z</time></trkpt><trkpt lat="45.5108367" lon="10.398575"><ele>156.0</ele><time>2026-03-28T07:26:11.845Z</time></trkpt><trkpt lat="45.5108033" lon="10.39868"><ele>154.66666666666666</ele><time>2026-03-28T07:26:12.845Z</time></trkpt><trkpt lat="45.5107717" lon="10.3987867"><ele>153.33333333333331</ele><time>2026-03-28T07:26:13.845Z</time></trkpt><trkpt lat="45.51075" lon="10.3988867"><ele>152.0</ele><time>2026-03-28T07:26:14.844Z</time></trkpt><trkpt lat="45.5107283" lon="10.3989867"><ele>151.66666666666666</ele><time>2026-03-28T07:26:15.844Z</time></trkpt><trkpt lat="45.5107317" lon="10.3991617"><ele>151.33333333333331</ele><time>2026-03-28T07:26:17.844Z</time></trkpt><trkpt lat="45.510755" lon="10.39925"><ele>151.0</ele><time>2026-03-28T07:26:18.844Z</time></trkpt><trkpt lat="45.51079" lon="10.399325"><ele>150.66666666666666</ele><time>2026-03-28T07:26:19.845Z</time></trkpt><trkpt lat="45.5108317" lon="10.3993933"><ele>150.33333333333334</ele><time>2026-03-28T07:26:20.844Z</time></trkpt><trkpt lat="45.5109067" lon="10.399535"><ele>150.0</ele><time>2026-03-28T07:26:22.844Z</time></trkpt><trkpt lat="45.5109417" lon="10.3996133"><ele>150.5</ele><time>2026-03-28T07:26:23.844Z</time></trkpt><trkpt lat="45.51098" lon="10.3996933"><ele>151.0</ele><time>2026-03-28T07:26:24.844Z</time></trkpt><trkpt lat="45.5110183" lon="10.39979"><ele>151.5</ele><time>2026-03-28T07:26:25.844Z</time></trkpt><trkpt lat="45.5110533" lon="10.3998833"><ele>152.0</ele><time>2026-03-28T07:26:26.844Z</time></trkpt><trkpt lat="45.5110833" lon="10.3999817"><ele>152.5</ele><time>2026-03-28T07:26:27.844Z</time></trkpt><trkpt lat="45.511115" lon="10.4000883"><ele>153.0</ele><time>2026-03-28T07:26:28.844Z</time></trkpt><trkpt lat="45.511155" lon="10.4002"><ele>153.0</ele><time>2026-03-28T07:26:29.845Z</time></trkpt><trkpt lat="45.5111883" lon="10.4003333"><ele>153.0</ele><time>2026-03-28T07:26:30.845Z</time></trkpt><trkpt lat="45.5112233" lon="10.4004833"><ele>153.0</ele><time>2026-03-28T07:26:31.844Z</time></trkpt><trkpt lat="45.51125" lon="10.4006317"><ele>153.0</ele><time>2026-03-28T07:26:32.844Z</time></trkpt><trkpt lat="45.5112817" lon="10.4007767"><ele>153.0</ele><time>2026-03-28T07:26:33.844Z</time></trkpt><trkpt lat="45.5113083" lon="10.400915"><ele>152.83333333333334</ele><time>2026-03-28T07:26:34.845Z</time></trkpt><trkpt lat="45.511325" lon="10.4010417"><ele>152.66666666666666</ele><time>2026-03-28T07:26:35.845Z</time></trkpt><trkpt lat="45.5113467" lon="10.4011517"><ele>152.5</ele><time>2026-03-28T07:26:36.845Z</time></trkpt><trkpt lat="45.5113633" lon="10.40125"><ele>152.33333333333331</ele><time>2026-03-28T07:26:37.844Z</time></trkpt><trkpt lat="45.5113833" lon="10.401365"><ele>152.16666666666666</ele><time>2026-03-28T07:26:38.844Z</time></trkpt><trkpt lat="45.5114017" lon="10.401495"><ele>152.0</ele><time>2026-03-28T07:26:39.844Z</time></trkpt><trkpt lat="45.5114117" lon="10.4016467"><ele>152.5</ele><time>2026-03-28T07:26:40.845Z</time></trkpt><trkpt lat="45.5114167" lon="10.4018183"><ele>153.0</ele><time>2026-03-28T07:26:41.845Z</time></trkpt><trkpt lat="45.511415" lon="10.4020017"><ele>153.5</ele><time>2026-03-28T07:26:42.844Z</time></trkpt><trkpt lat="45.511415" lon="10.4022083"><ele>154.0</ele><time>2026-03-28T07:26:43.845Z</time></trkpt><trkpt lat="45.5114183" lon="10.4024233"><ele>154.25</ele><time>2026-03-28T07:26:44.845Z</time></trkpt><trkpt lat="45.5114217" lon="10.4026283"><ele>154.5</ele><time>2026-03-28T07:26:45.845Z</time></trkpt><trkpt lat="45.5114283" lon="10.4028283"><ele>154.75</ele><time>2026-03-28T07:26:46.845Z</time></trkpt><trkpt lat="45.5114217" lon="10.4030183"><ele>155.0</ele><time>2026-03-28T07:26:47.845Z</time></trkpt><trkpt lat="45.511425" lon="10.4031883"><ele>155.33333333333331</ele><time>2026-03-28T07:26:48.844Z</time></trkpt><trkpt lat="45.51142" lon="10.4033283"><ele>155.66666666666666</ele><time>2026-03-28T07:26:49.844Z</time></trkpt><trkpt lat="45.511415" lon="10.4034283"><ele>156.0</ele><time>2026-03-28T07:26:50.844Z</time></trkpt><trkpt lat="45.5113933" lon="10.4035217"><ele>156.33333333333334</ele><time>2026-03-28T07:26:51.845Z</time></trkpt><trkpt lat="45.5113667" lon="10.403625"><ele>156.66666666666669</ele><time>2026-03-28T07:26:52.844Z</time></trkpt><trkpt lat="45.5113567" lon="10.4037433"><ele>157.0</ele><time>2026-03-28T07:26:53.844Z</time></trkpt><trkpt lat="45.5113833" lon="10.403845"><ele>157.2</ele><time>2026-03-28T07:26:54.845Z</time></trkpt><trkpt lat="45.5114367" lon="10.40394"><ele>157.39999999999998</ele><time>2026-03-28T07:26:55.844Z</time></trkpt><trkpt lat="45.511515" lon="10.4040417"><ele>157.60000000000002</ele><time>2026-03-28T07:26:56.844Z</time></trkpt><trkpt lat="45.5115783" lon="10.4041617"><ele>157.8</ele><time>2026-03-28T07:26:57.844Z</time></trkpt><trkpt lat="45.5116433" lon="10.4042983"><ele>158.0</ele><time>2026-03-28T07:26:58.845Z</time></trkpt><trkpt lat="45.511705" lon="10.4044533"><ele>158.0</ele><time>2026-03-28T07:26:59.844Z</time></trkpt><trkpt lat="45.51177" lon="10.4046133"><ele>158.0</ele><time>2026-03-28T07:27:00.844Z</time></trkpt><trkpt lat="45.5118367" lon="10.404765"><ele>158.0</ele><time>2026-03-28T07:27:01.844Z</time></trkpt><trkpt lat="45.5119117" lon="10.404925"><ele>158.0</ele><time>2026-03-28T07:27:02.844Z</time></trkpt><trkpt lat="45.5119833" lon="10.405095"><ele>158.0</ele><time>2026-03-28T07:27:03.845Z</time></trkpt><trkpt lat="45.5120517" lon="10.40528"><ele>158.0</ele><time>2026-03-28T07:27:04.844Z</time></trkpt><trkpt lat="45.5121133" lon="10.405465"><ele>158.0</ele><time>2026-03-28T07:27:05.845Z</time></trkpt><trkpt lat="45.5121583" lon="10.40566"><ele>158.0</ele><time>2026-03-28T07:27:06.844Z</time></trkpt><trkpt lat="45.512195" lon="10.4058617"><ele>158.33333333333331</ele><time>2026-03-28T07:27:07.845Z</time></trkpt><trkpt lat="45.51222" lon="10.40607"><ele>158.66666666666666</ele><time>2026-03-28T07:27:08.845Z</time></trkpt><trkpt lat="45.5122433" lon="10.4062867"><ele>159.0</ele><time>2026-03-28T07:27:09.844Z</time></trkpt><trkpt lat="45.512255" lon="10.4065017"><ele>159.25</ele><time>2026-03-28T07:27:10.845Z</time></trkpt><trkpt lat="45.5122567" lon="10.40671"><ele>159.5</ele><time>2026-03-28T07:27:11.845Z</time></trkpt><trkpt lat="45.5122617" lon="10.40691"><ele>159.75</ele><time>2026-03-28T07:27:12.844Z</time></trkpt><trkpt lat="45.512265" lon="10.4070967"><ele>160.0</ele><time>2026-03-28T07:27:13.844Z</time></trkpt><trkpt lat="45.51227" lon="10.4072617"><ele>160.16666666666669</ele><time>2026-03-28T07:27:14.844Z</time></trkpt><trkpt lat="45.51225" lon="10.4073833"><ele>160.33333333333334</ele><time>2026-03-28T07:27:15.845Z</time></trkpt><trkpt lat="45.51222" lon="10.407485"><ele>160.5</ele><time>2026-03-28T07:27:16.845Z</time></trkpt><trkpt lat="45.51219" lon="10.40757"><ele>160.66666666666666</ele><time>2026-03-28T07:27:17.845Z</time></trkpt><trkpt lat="45.5121517" lon="10.4076717"><ele>160.83333333333331</ele><time>2026-03-28T07:27:18.845Z</time></trkpt><trkpt lat="45.5121217" lon="10.4077917"><ele>161.0</ele><time>2026-03-28T07:27:19.845Z</time></trkpt><trkpt lat="45.512105" lon="10.40792"><ele>161.25</ele><time>2026-03-28T07:27:20.844Z</time></trkpt><trkpt lat="45.5120717" lon="10.408055"><ele>161.5</ele><time>2026-03-28T07:27:21.845Z</time></trkpt><trkpt lat="45.512025" lon="10.4082083"><ele>161.75</ele><time>2026-03-28T07:27:22.845Z</time></trkpt><trkpt lat="45.5119783" lon="10.4083533"><ele>162.0</ele><time>2026-03-28T07:27:23.844Z</time></trkpt><trkpt lat="45.5119" lon="10.4085033"><ele>162.0</ele><time>2026-03-28T07:27:24.845Z</time></trkpt><trkpt lat="45.5118083" lon="10.40864"><ele>162.0</ele><time>2026-03-28T07:27:25.844Z</time></trkpt><trkpt lat="45.5117083" lon="10.4087633"><ele>162.0</ele><time>2026-03-28T07:27:26.844Z</time></trkpt><trkpt lat="45.51159" lon="10.4089067"><ele>162.0</ele><time>2026-03-28T07:27:27.844Z</time></trkpt><trkpt lat="45.5114833" lon="10.409075"><ele>163.5</ele><time>2026-03-28T07:27:28.845Z</time></trkpt><trkpt lat="45.511415" lon="10.40924"><ele>165.0</ele><time>2026-03-28T07:27:29.845Z</time></trkpt><trkpt lat="45.511365" lon="10.4094117"><ele>166.5</ele><time>2026-03-28T07:27:30.845Z</time></trkpt><trkpt lat="45.51133" lon="10.4095867"><ele>168.0</ele><time>2026-03-28T07:27:31.845Z</time></trkpt><trkpt lat="45.5113167" lon="10.40976"><ele>169.25</ele><time>2026-03-28T07:27:32.844Z</time></trkpt><trkpt lat="45.511315" lon="10.4099417"><ele>170.5</ele><time>2026-03-28T07:27:33.844Z</time></trkpt><trkpt lat="45.5113233" lon="10.410125"><ele>171.75</ele><time>2026-03-28T07:27:34.844Z</time></trkpt><trkpt lat="45.5113233" lon="10.4103133"><ele>173.0</ele><time>2026-03-28T07:27:35.845Z</time></trkpt><trkpt lat="45.5113333" lon="10.410505"><ele>173.5</ele><time>2026-03-28T07:27:36.845Z</time></trkpt><trkpt lat="45.511345" lon="10.4106867"><ele>174.0</ele><time>2026-03-28T07:27:37.844Z</time></trkpt><trkpt lat="45.5113167" lon="10.4108833"><ele>174.5</ele><time>2026-03-28T07:27:38.844Z</time></trkpt><trkpt lat="45.511285" lon="10.41108"><ele>175.0</ele><time>2026-03-28T07:27:39.844Z</time></trkpt><trkpt lat="45.5112483" lon="10.411295"><ele>174.66666666666669</ele><time>2026-03-28T07:27:40.844Z</time></trkpt><trkpt lat="45.511215" lon="10.4115167"><ele>174.33333333333334</ele><time>2026-03-28T07:27:41.844Z</time></trkpt><trkpt lat="45.5111883" lon="10.411745"><ele>174.0</ele><time>2026-03-28T07:27:42.845Z</time></trkpt><trkpt lat="45.51118" lon="10.4119833"><ele>173.33333333333334</ele><time>2026-03-28T07:27:43.844Z</time></trkpt><trkpt lat="45.511185" lon="10.412215"><ele>172.66666666666669</ele><time>2026-03-28T07:27:44.845Z</time></trkpt><trkpt lat="45.511195" lon="10.412435"><ele>172.0</ele><time>2026-03-28T07:27:45.844Z</time></trkpt><trkpt lat="45.5112083" lon="10.4126417"><ele>172.0</ele><time>2026-03-28T07:27:46.844Z</time></trkpt><trkpt lat="45.511225" lon="10.412845"><ele>172.0</ele><time>2026-03-28T07:27:47.845Z</time></trkpt><trkpt lat="45.5112367" lon="10.4130417"><ele>172.0</ele><time>2026-03-28T07:27:48.844Z</time></trkpt><trkpt lat="45.5112567" lon="10.4132233"><ele>172.0</ele><time>2026-03-28T07:27:49.844Z</time></trkpt><trkpt lat="45.5112867" lon="10.4134067"><ele>171.75</ele><time>2026-03-28T07:27:50.844Z</time></trkpt><trkpt lat="45.5113117" lon="10.4135833"><ele>171.5</ele><time>2026-03-28T07:27:51.845Z</time></trkpt><trkpt lat="45.5113567" lon="10.413765"><ele>171.25</ele><time>2026-03-28T07:27:52.844Z</time></trkpt><trkpt lat="45.5114283" lon="10.4139533"><ele>171.0</ele><time>2026-03-28T07:27:53.845Z</time></trkpt><trkpt lat="45.5115217" lon="10.4141433"><ele>171.0</ele><time>2026-03-28T07:27:54.844Z</time></trkpt><trkpt lat="45.51163" lon="10.41433"><ele>171.0</ele><time>2026-03-28T07:27:55.844Z</time></trkpt><trkpt lat="45.511755" lon="10.41451"><ele>171.0</ele><time>2026-03-28T07:27:56.844Z</time></trkpt><trkpt lat="45.5118883" lon="10.414675"><ele>171.0</ele><time>2026-03-28T07:27:57.844Z</time></trkpt><trkpt lat="45.5120317" lon="10.4148317"><ele>171.0</ele><time>2026-03-28T07:27:58.844Z</time></trkpt><trkpt lat="45.5121933" lon="10.4149683"><ele>171.0</ele><time>2026-03-28T07:27:59.844Z</time></trkpt><trkpt lat="45.512365" lon="10.4150917"><ele>171.0</ele><time>2026-03-28T07:28:00.844Z</time></trkpt><trkpt lat="45.5125483" lon="10.4152083"><ele>171.0</ele><time>2026-03-28T07:28:01.844Z</time></trkpt><trkpt lat="45.5127367" lon="10.41532"><ele>171.0</ele><time>2026-03-28T07:28:02.845Z</time></trkpt><trkpt lat="45.5129267" lon="10.4154367"><ele>172.33333333333334</ele><time>2026-03-28T07:28:03.844Z</time></trkpt><trkpt lat="45.5131133" lon="10.4155467"><ele>173.66666666666669</ele><time>2026-03-28T07:28:04.844Z</time></trkpt><trkpt lat="45.5132983" lon="10.4156583"><ele>175.0</ele><time>2026-03-28T07:28:05.845Z</time></trkpt><trkpt lat="45.5134867" lon="10.415775"><ele>175.0</ele><time>2026-03-28T07:28:06.845Z</time></trkpt><trkpt lat="45.51369" lon="10.4158983"><ele>175.0</ele><time>2026-03-28T07:28:07.845Z</time></trkpt><trkpt lat="45.5138833" lon="10.4160117"><ele>175.0</ele><time>2026-03-28T07:28:08.845Z</time></trkpt><trkpt lat="45.514085" lon="10.41614"><ele>175.0</ele><time>2026-03-28T07:28:09.845Z</time></trkpt><trkpt lat="45.5142733" lon="10.4162817"><ele>175.0</ele><time>2026-03-28T07:28:10.845Z</time></trkpt><trkpt lat="45.5144583" lon="10.416445"><ele>175.0</ele><time>2026-03-28T07:28:11.844Z</time></trkpt><trkpt lat="45.5146267" lon="10.41664"><ele>176.0</ele><time>2026-03-28T07:28:12.844Z</time></trkpt><trkpt lat="45.514775" lon="10.41686"><ele>177.0</ele><time>2026-03-28T07:28:13.845Z</time></trkpt><trkpt lat="45.5149133" lon="10.4170867"><ele>178.0</ele><time>2026-03-28T07:28:14.844Z</time></trkpt><trkpt lat="45.5150483" lon="10.417345"><ele>179.0</ele><time>2026-03-28T07:28:15.844Z</time></trkpt><trkpt lat="45.5151433" lon="10.4176283"><ele>180.0</ele><time>2026-03-28T07:28:16.845Z</time></trkpt><trkpt lat="45.5152133" lon="10.4179233"><ele>181.0</ele><time>2026-03-28T07:28:17.844Z</time></trkpt><trkpt lat="45.5152833" lon="10.41822"><ele>181.66666666666669</ele><time>2026-03-28T07:28:18.844Z</time></trkpt><trkpt lat="45.5153283" lon="10.4185133"><ele>182.33333333333334</ele><time>2026-03-28T07:28:19.845Z</time></trkpt><trkpt lat="45.5153533" lon="10.4188267"><ele>183.0</ele><time>2026-03-28T07:28:20.844Z</time></trkpt><trkpt lat="45.5153567" lon="10.4191383"><ele>183.0</ele><time>2026-03-28T07:28:21.844Z</time></trkpt><trkpt lat="45.515355" lon="10.4194483"><ele>183.0</ele><time>2026-03-28T07:28:22.844Z</time></trkpt><trkpt lat="45.5153367" lon="10.4197683"><ele>183.0</ele><time>2026-03-28T07:28:23.845Z</time></trkpt><trkpt lat="45.5153167" lon="10.4200833"><ele>183.0</ele><time>2026-03-28T07:28:24.844Z</time></trkpt><trkpt lat="45.515295" lon="10.4203983"><ele>183.0</ele><time>2026-03-28T07:28:25.844Z</time></trkpt><trkpt lat="45.5152783" lon="10.4206967"><ele>183.0</ele><time>2026-03-28T07:28:26.844Z</time></trkpt><trkpt lat="45.515265" lon="10.4209767"><ele>183.0</ele><time>2026-03-28T07:28:27.844Z</time></trkpt><trkpt lat="45.515255" lon="10.4212467"><ele>183.0</ele><time>2026-03-28T07:28:28.844Z</time></trkpt><trkpt lat="45.5152467" lon="10.4214983"><ele>183.0</ele><time>2026-03-28T07:28:29.845Z</time></trkpt><trkpt lat="45.51523" lon="10.4217267"><ele>183.0</ele><time>2026-03-28T07:28:30.844Z</time></trkpt><trkpt lat="45.5152233" lon="10.4219317"><ele>183.0</ele><time>2026-03-28T07:28:31.844Z</time></trkpt><trkpt lat="45.51521" lon="10.422115"><ele>183.0</ele><time>2026-03-28T07:28:32.845Z</time></trkpt><trkpt lat="45.5151817" lon="10.4222833"><ele>183.0</ele><time>2026-03-28T07:28:33.844Z</time></trkpt><trkpt lat="45.5151367" lon="10.422435"><ele>183.0</ele><time>2026-03-28T07:28:34.844Z</time></trkpt><trkpt lat="45.5150833" lon="10.4225717"><ele>183.0</ele><time>2026-03-28T07:28:35.844Z</time></trkpt><trkpt lat="45.515045" lon="10.4227183"><ele>183.0</ele><time>2026-03-28T07:28:36.844Z</time></trkpt><trkpt lat="45.51501" lon="10.422875"><ele>183.0</ele><time>2026-03-28T07:28:37.844Z</time></trkpt><trkpt lat="45.5150167" lon="10.4230283"><ele>183.0</ele><time>2026-03-28T07:28:38.844Z</time></trkpt><trkpt lat="45.5150367" lon="10.4231867"><ele>182.5</ele><time>2026-03-28T07:28:39.845Z</time></trkpt><trkpt lat="45.5150717" lon="10.4233433"><ele>182.0</ele><time>2026-03-28T07:28:40.845Z</time></trkpt><trkpt lat="45.51509" lon="10.4235117"><ele>181.5</ele><time>2026-03-28T07:28:41.845Z</time></trkpt><trkpt lat="45.5150967" lon="10.4236883"><ele>181.0</ele><time>2026-03-28T07:28:42.844Z</time></trkpt><trkpt lat="45.5150883" lon="10.4238817"><ele>180.66666666666669</ele><time>2026-03-28T07:28:43.844Z</time></trkpt><trkpt lat="45.51507" lon="10.424085"><ele>180.33333333333334</ele><time>2026-03-28T07:28:44.844Z</time></trkpt><trkpt lat="45.5150483" lon="10.4242983"><ele>180.0</ele><time>2026-03-28T07:28:45.844Z</time></trkpt><trkpt lat="45.5150217" lon="10.424525"><ele>180.33333333333334</ele><time>2026-03-28T07:28:46.844Z</time></trkpt><trkpt lat="45.5149967" lon="10.4247667"><ele>180.66666666666669</ele><time>2026-03-28T07:28:47.844Z</time></trkpt><trkpt lat="45.514975" lon="10.4250167"><ele>181.0</ele><time>2026-03-28T07:28:48.845Z</time></trkpt><trkpt lat="45.5149617" lon="10.4252783"><ele>181.66666666666669</ele><time>2026-03-28T07:28:49.845Z</time></trkpt><trkpt lat="45.51494" lon="10.4255433"><ele>182.33333333333334</ele><time>2026-03-28T07:28:50.844Z</time></trkpt><trkpt lat="45.5149167" lon="10.4258083"><ele>183.0</ele><time>2026-03-28T07:28:51.844Z</time></trkpt><trkpt lat="45.5148917" lon="10.4260717"><ele>182.66666666666666</ele><time>2026-03-28T07:28:52.844Z</time></trkpt><trkpt lat="45.5148667" lon="10.4263367"><ele>182.33333333333331</ele><time>2026-03-28T07:28:53.844Z</time></trkpt><trkpt lat="45.514845" lon="10.4265967"><ele>182.0</ele><time>2026-03-28T07:28:54.844Z</time></trkpt><trkpt lat="45.5148233" lon="10.426855"><ele>182.0</ele><time>2026-03-28T07:28:55.845Z</time></trkpt><trkpt lat="45.5148083" lon="10.4271083"><ele>182.0</ele><time>2026-03-28T07:28:56.845Z</time></trkpt><trkpt lat="45.5147867" lon="10.4273517"><ele>182.0</ele><time>2026-03-28T07:28:57.844Z</time></trkpt><trkpt lat="45.51477" lon="10.4275967"><ele>182.66666666666666</ele><time>2026-03-28T07:28:58.844Z</time></trkpt><trkpt lat="45.51475" lon="10.4278283"><ele>183.33333333333334</ele><time>2026-03-28T07:28:59.844Z</time></trkpt><trkpt lat="45.5147333" lon="10.4280667"><ele>184.0</ele><time>2026-03-28T07:29:00.844Z</time></trkpt><trkpt lat="45.5147167" lon="10.4283033"><ele>184.0</ele><time>2026-03-28T07:29:01.845Z</time></trkpt><trkpt lat="45.5147067" lon="10.4285433"><ele>184.0</ele><time>2026-03-28T07:29:02.844Z</time></trkpt><trkpt lat="45.5146817" lon="10.4287783"><ele>184.0</ele><time>2026-03-28T07:29:03.845Z</time></trkpt><trkpt lat="45.5146617" lon="10.4290083"><ele>184.0</ele><time>2026-03-28T07:29:04.844Z</time></trkpt><trkpt lat="45.5146367" lon="10.429245"><ele>184.0</ele><time>2026-03-28T07:29:05.845Z</time></trkpt><trkpt lat="45.5146083" lon="10.42947"><ele>184.0</ele><time>2026-03-28T07:29:06.844Z</time></trkpt><trkpt lat="45.5145817" lon="10.4297017"><ele>183.33333333333334</ele><time>2026-03-28T07:29:07.844Z</time></trkpt><trkpt lat="45.5145517" lon="10.4299317"><ele>182.66666666666666</ele><time>2026-03-28T07:29:08.844Z</time></trkpt><trkpt lat="45.5145333" lon="10.4301733"><ele>182.0</ele><time>2026-03-28T07:29:09.844Z</time></trkpt><trkpt lat="45.514505" lon="10.4304183"><ele>182.0</ele><time>2026-03-28T07:29:10.844Z</time></trkpt><trkpt lat="45.5144883" lon="10.43067"><ele>182.0</ele><time>2026-03-28T07:29:11.844Z</time></trkpt><trkpt lat="45.51448" lon="10.430915"><ele>182.0</ele><time>2026-03-28T07:29:12.844Z</time></trkpt><trkpt lat="45.5144767" lon="10.4311667"><ele>182.33333333333331</ele><time>2026-03-28T07:29:13.844Z</time></trkpt><trkpt lat="45.5144633" lon="10.4314033"><ele>182.66666666666666</ele><time>2026-03-28T07:29:14.845Z</time></trkpt><trkpt lat="45.5144483" lon="10.4316533"><ele>183.0</ele><time>2026-03-28T07:29:15.845Z</time></trkpt><trkpt lat="45.51444" lon="10.4319067"><ele>183.33333333333334</ele><time>2026-03-28T07:29:16.845Z</time></trkpt><trkpt lat="45.5144367" lon="10.4321717"><ele>183.66666666666669</ele><time>2026-03-28T07:29:17.844Z</time></trkpt><trkpt lat="45.5144367" lon="10.43244"><ele>184.0</ele><time>2026-03-28T07:29:18.844Z</time></trkpt><trkpt lat="45.514445" lon="10.43271"><ele>184.0</ele><time>2026-03-28T07:29:19.845Z</time></trkpt><trkpt lat="45.5144617" lon="10.4329883"><ele>184.0</ele><time>2026-03-28T07:29:20.845Z</time></trkpt><trkpt lat="45.514485" lon="10.4332633"><ele>184.0</ele><time>2026-03-28T07:29:21.844Z</time></trkpt><trkpt lat="45.5144983" lon="10.4335417"><ele>183.0</ele><time>2026-03-28T07:29:22.845Z</time></trkpt><trkpt lat="45.5145067" lon="10.4338217"><ele>182.0</ele><time>2026-03-28T07:29:23.844Z</time></trkpt><trkpt lat="45.5145183" lon="10.43411"><ele>181.0</ele><time>2026-03-28T07:29:24.844Z</time></trkpt><trkpt lat="45.5145367" lon="10.4343967"><ele>180.66666666666669</ele><time>2026-03-28T07:29:25.845Z</time></trkpt><trkpt lat="45.514555" lon="10.4346933"><ele>180.33333333333334</ele><time>2026-03-28T07:29:26.844Z</time></trkpt><trkpt lat="45.5145633" lon="10.4349817"><ele>180.0</ele><time>2026-03-28T07:29:27.845Z</time></trkpt><trkpt lat="45.5145767" lon="10.43526"><ele>181.0</ele><time>2026-03-28T07:29:28.844Z</time></trkpt><trkpt lat="45.5145883" lon="10.4355217"><ele>182.0</ele><time>2026-03-28T07:29:29.844Z</time></trkpt><trkpt lat="45.5146" lon="10.4357683"><ele>183.0</ele><time>2026-03-28T07:29:30.844Z</time></trkpt><trkpt lat="45.51459" lon="10.4359833"><ele>182.75</ele><time>2026-03-28T07:29:31.844Z</time></trkpt><trkpt lat="45.5145567" lon="10.436185"><ele>182.5</ele><time>2026-03-28T07:29:32.845Z</time></trkpt><trkpt lat="45.5145033" lon="10.436355"><ele>182.25</ele><time>2026-03-28T07:29:33.844Z</time></trkpt><trkpt lat="45.51446" lon="10.4364967"><ele>182.0</ele><time>2026-03-28T07:29:34.844Z</time></trkpt><trkpt lat="45.51442" lon="10.4366383"><ele>182.0</ele><time>2026-03-28T07:29:35.845Z</time></trkpt><trkpt lat="45.5143967" lon="10.4367867"><ele>182.0</ele><time>2026-03-28T07:29:36.844Z</time></trkpt><trkpt lat="45.514395" lon="10.4369533"><ele>182.0</ele><time>2026-03-28T07:29:37.844Z</time></trkpt><trkpt lat="45.5143983" lon="10.4371217"><ele>182.0</ele><time>2026-03-28T07:29:38.844Z</time></trkpt><trkpt lat="45.5143917" lon="10.4373"><ele>181.75</ele><time>2026-03-28T07:29:39.844Z</time></trkpt><trkpt lat="45.5143683" lon="10.4374967"><ele>181.5</ele><time>2026-03-28T07:29:40.845Z</time></trkpt><trkpt lat="45.5143233" lon="10.4376983"><ele>181.25</ele><time>2026-03-28T07:29:41.844Z</time></trkpt><trkpt lat="45.514265" lon="10.437905"><ele>181.0</ele><time>2026-03-28T07:29:42.844Z</time></trkpt><trkpt lat="45.5142033" lon="10.43812"><ele>180.66666666666669</ele><time>2026-03-28T07:29:43.844Z</time></trkpt><trkpt lat="45.5141483" lon="10.4383367"><ele>180.33333333333334</ele><time>2026-03-28T07:29:44.845Z</time></trkpt><trkpt lat="45.5140983" lon="10.4385567"><ele>180.0</ele><time>2026-03-28T07:29:45.844Z</time></trkpt><trkpt lat="45.51404" lon="10.4387733"><ele>180.0</ele><time>2026-03-28T07:29:46.845Z</time></trkpt><trkpt lat="45.5139767" lon="10.438985"><ele>180.0</ele><time>2026-03-28T07:29:47.844Z</time></trkpt><trkpt lat="45.513905" lon="10.4391983"><ele>180.0</ele><time>2026-03-28T07:29:48.844Z</time></trkpt><trkpt lat="45.5138267" lon="10.4394133"><ele>179.66666666666666</ele><time>2026-03-28T07:29:49.844Z</time></trkpt><trkpt lat="45.5137483" lon="10.439635"><ele>179.33333333333331</ele><time>2026-03-28T07:29:50.844Z</time></trkpt><trkpt lat="45.51366" lon="10.4398433"><ele>179.0</ele><time>2026-03-28T07:29:51.844Z</time></trkpt><trkpt lat="45.51357" lon="10.4400517"><ele>179.0</ele><time>2026-03-28T07:29:52.844Z</time></trkpt><trkpt lat="45.5134717" lon="10.4402633"><ele>179.0</ele><time>2026-03-28T07:29:53.844Z</time></trkpt><trkpt lat="45.5133783" lon="10.4404683"><ele>179.0</ele><time>2026-03-28T07:29:54.845Z</time></trkpt><trkpt lat="45.5132817" lon="10.44067"><ele>179.0</ele><time>2026-03-28T07:29:55.844Z</time></trkpt><trkpt lat="45.5131833" lon="10.4408583"><ele>179.0</ele><time>2026-03-28T07:29:56.845Z</time></trkpt><trkpt lat="45.513075" lon="10.44104"><ele>179.0</ele><time>2026-03-28T07:29:57.845Z</time></trkpt><trkpt lat="45.5129683" lon="10.4412267"><ele>178.66666666666666</ele><time>2026-03-28T07:29:58.844Z</time></trkpt><trkpt lat="45.51286" lon="10.4414083"><ele>178.33333333333334</ele><time>2026-03-28T07:29:59.845Z</time></trkpt><trkpt lat="45.5127567" lon="10.441575"><ele>178.0</ele><time>2026-03-28T07:30:00.844Z</time></trkpt><trkpt lat="45.5126467" lon="10.441735"><ele>178.0</ele><time>2026-03-28T07:30:01.845Z</time></trkpt><trkpt lat="45.5125433" lon="10.441885"><ele>178.0</ele><time>2026-03-28T07:30:02.844Z</time></trkpt><trkpt lat="45.51244" lon="10.4420233"><ele>178.0</ele><time>2026-03-28T07:30:03.844Z</time></trkpt><trkpt lat="45.5123333" lon="10.4421567"><ele>178.0</ele><time>2026-03-28T07:30:04.844Z</time></trkpt><trkpt lat="45.5122333" lon="10.44228"><ele>178.25</ele><time>2026-03-28T07:30:05.844Z</time></trkpt><trkpt lat="45.5121383" lon="10.44239"><ele>178.5</ele><time>2026-03-28T07:30:06.844Z</time></trkpt><trkpt lat="45.512055" lon="10.4424983"><ele>178.75</ele><time>2026-03-28T07:30:07.844Z</time></trkpt><trkpt lat="45.51197" lon="10.4425917"><ele>179.0</ele><time>2026-03-28T07:30:08.845Z</time></trkpt><trkpt lat="45.511875" lon="10.4426717"><ele>178.6</ele><time>2026-03-28T07:30:09.845Z</time></trkpt><trkpt lat="45.5117717" lon="10.442725"><ele>178.2</ele><time>2026-03-28T07:30:10.845Z</time></trkpt><trkpt lat="45.51167" lon="10.442765"><ele>177.79999999999998</ele><time>2026-03-28T07:30:11.845Z</time></trkpt><trkpt lat="45.5115567" lon="10.4428333"><ele>177.39999999999998</ele><time>2026-03-28T07:30:12.844Z</time></trkpt><trkpt lat="45.5114767" lon="10.4429383"><ele>177.0</ele><time>2026-03-28T07:30:13.844Z</time></trkpt><trkpt lat="45.5114217" lon="10.4430767"><ele>177.0</ele><time>2026-03-28T07:30:14.844Z</time></trkpt><trkpt lat="45.511385" lon="10.4432333"><ele>177.0</ele><time>2026-03-28T07:30:15.844Z</time></trkpt><trkpt lat="45.5113433" lon="10.443385"><ele>177.0</ele><time>2026-03-28T07:30:16.844Z</time></trkpt><trkpt lat="45.5112867" lon="10.4435367"><ele>177.0</ele><time>2026-03-28T07:30:17.844Z</time></trkpt><trkpt lat="45.511215" lon="10.4436783"><ele>177.0</ele><time>2026-03-28T07:30:18.845Z</time></trkpt><trkpt lat="45.5111283" lon="10.4438283"><ele>177.0</ele><time>2026-03-28T07:30:19.845Z</time></trkpt><trkpt lat="45.5110367" lon="10.4439717"><ele>177.0</ele><time>2026-03-28T07:30:20.845Z</time></trkpt><trkpt lat="45.5109333" lon="10.44412"><ele>177.0</ele><time>2026-03-28T07:30:21.845Z</time></trkpt><trkpt lat="45.5108217" lon="10.4442917"><ele>177.0</ele><time>2026-03-28T07:30:22.844Z</time></trkpt><trkpt lat="45.5107017" lon="10.44448"><ele>177.0</ele><time>2026-03-28T07:30:23.844Z</time></trkpt><trkpt lat="45.510585" lon="10.444685"><ele>177.0</ele><time>2026-03-28T07:30:24.844Z</time></trkpt><trkpt lat="45.510465" lon="10.4448867"><ele>177.33333333333334</ele><time>2026-03-28T07:30:25.845Z</time></trkpt><trkpt lat="45.51035" lon="10.4451083"><ele>177.66666666666669</ele><time>2026-03-28T07:30:26.845Z</time></trkpt><trkpt lat="45.5102433" lon="10.4453417"><ele>178.0</ele><time>2026-03-28T07:30:27.845Z</time></trkpt><trkpt lat="45.5101383" lon="10.445585"><ele>178.0</ele><time>2026-03-28T07:30:28.844Z</time></trkpt><trkpt lat="45.5100317" lon="10.4458283"><ele>178.0</ele><time>2026-03-28T07:30:29.845Z</time></trkpt><trkpt lat="45.509925" lon="10.446085"><ele>178.0</ele><time>2026-03-28T07:30:30.845Z</time></trkpt><trkpt lat="45.5098167" lon="10.4463517"><ele>178.0</ele><time>2026-03-28T07:30:31.845Z</time></trkpt><trkpt lat="45.5097033" lon="10.4466167"><ele>178.0</ele><time>2026-03-28T07:30:32.845Z</time></trkpt><trkpt lat="45.5095833" lon="10.4468917"><ele>178.0</ele><time>2026-03-28T07:30:33.845Z</time></trkpt><trkpt lat="45.5094617" lon="10.4471833"><ele>177.0</ele><time>2026-03-28T07:30:34.845Z</time></trkpt><trkpt lat="45.5093417" lon="10.4474733"><ele>176.0</ele><time>2026-03-28T07:30:35.844Z</time></trkpt><trkpt lat="45.5092083" lon="10.4477633"><ele>176.5</ele><time>2026-03-28T07:30:36.844Z</time></trkpt><trkpt lat="45.5090717" lon="10.448055"><ele>177.0</ele><time>2026-03-28T07:30:37.845Z</time></trkpt><trkpt lat="45.5089383" lon="10.4483517"><ele>177.0</ele><time>2026-03-28T07:30:38.845Z</time></trkpt><trkpt lat="45.50881" lon="10.4486467"><ele>177.0</ele><time>2026-03-28T07:30:39.844Z</time></trkpt><trkpt lat="45.5086767" lon="10.4489417"><ele>177.0</ele><time>2026-03-28T07:30:40.844Z</time></trkpt><trkpt lat="45.5085417" lon="10.4492383"><ele>177.0</ele><time>2026-03-28T07:30:41.845Z</time></trkpt><trkpt lat="45.50841" lon="10.449545"><ele>176.5</ele><time>2026-03-28T07:30:42.845Z</time></trkpt><trkpt lat="45.508285" lon="10.4498483"><ele>176.0</ele><time>2026-03-28T07:30:43.844Z</time></trkpt><trkpt lat="45.508155" lon="10.4501433"><ele>176.0</ele><time>2026-03-28T07:30:44.845Z</time></trkpt><trkpt lat="45.508035" lon="10.4504283"><ele>176.0</ele><time>2026-03-28T07:30:45.844Z</time></trkpt><trkpt lat="45.5079083" lon="10.450705"><ele>175.5</ele><time>2026-03-28T07:30:46.845Z</time></trkpt><trkpt lat="45.5077833" lon="10.4509867"><ele>175.0</ele><time>2026-03-28T07:30:47.845Z</time></trkpt><trkpt lat="45.507665" lon="10.4512617"><ele>176.0</ele><time>2026-03-28T07:30:48.844Z</time></trkpt><trkpt lat="45.50754" lon="10.451535"><ele>177.0</ele><time>2026-03-28T07:30:49.845Z</time></trkpt><trkpt lat="45.50741" lon="10.4517917"><ele>177.0</ele><time>2026-03-28T07:30:50.844Z</time></trkpt><trkpt lat="45.507275" lon="10.4520333"><ele>177.0</ele><time>2026-03-28T07:30:51.844Z</time></trkpt><trkpt lat="45.50713" lon="10.4522683"><ele>177.0</ele><time>2026-03-28T07:30:52.844Z</time></trkpt><trkpt lat="45.50698" lon="10.452475"><ele>177.0</ele><time>2026-03-28T07:30:53.844Z</time></trkpt><trkpt lat="45.5068267" lon="10.4526717"><ele>177.0</ele><time>2026-03-28T07:30:54.845Z</time></trkpt><trkpt lat="45.50668" lon="10.4528433"><ele>177.0</ele><time>2026-03-28T07:30:55.844Z</time></trkpt><trkpt lat="45.50653" lon="10.453"><ele>176.75</ele><time>2026-03-28T07:30:56.844Z</time></trkpt><trkpt lat="45.5063917" lon="10.45313"><ele>176.5</ele><time>2026-03-28T07:30:57.845Z</time></trkpt><trkpt lat="45.5062583" lon="10.4532467"><ele>176.25</ele><time>2026-03-28T07:30:58.845Z</time></trkpt><trkpt lat="45.50615" lon="10.4533317"><ele>176.0</ele><time>2026-03-28T07:30:59.845Z</time></trkpt><trkpt lat="45.50607" lon="10.4533767"><ele>176.0</ele><time>2026-03-28T07:31:00.844Z</time></trkpt><trkpt lat="45.506005" lon="10.4534033"><ele>176.0</ele><time>2026-03-28T07:31:01.844Z</time></trkpt><trkpt lat="45.5059217" lon="10.4534117"><ele>176.0</ele><time>2026-03-28T07:31:03.844Z</time></trkpt><trkpt lat="45.5058233" lon="10.45338"><ele>176.0</ele><time>2026-03-28T07:31:05.844Z</time></trkpt><trkpt lat="45.5057533" lon="10.4533717"><ele>176.0</ele><time>2026-03-28T07:31:06.845Z</time></trkpt><trkpt lat="45.505665" lon="10.4534"><ele>176.0</ele><time>2026-03-28T07:31:07.844Z</time></trkpt><trkpt lat="45.5055867" lon="10.453475"><ele>176.0</ele><time>2026-03-28T07:31:08.844Z</time></trkpt><trkpt lat="45.5055383" lon="10.4535983"><ele>176.0</ele><time>2026-03-28T07:31:09.844Z</time></trkpt><trkpt lat="45.50552" lon="10.4537433"><ele>176.0</ele><time>2026-03-28T07:31:10.845Z</time></trkpt><trkpt lat="45.5055333" lon="10.4538983"><ele>176.0</ele><time>2026-03-28T07:31:11.845Z</time></trkpt><trkpt lat="45.50555" lon="10.4540633"><ele>176.0</ele><time>2026-03-28T07:31:12.845Z</time></trkpt><trkpt lat="45.50556" lon="10.4542383"><ele>176.33333333333331</ele><time>2026-03-28T07:31:13.844Z</time></trkpt><trkpt lat="45.505565" lon="10.45444"><ele>176.66666666666666</ele><time>2026-03-28T07:31:14.845Z</time></trkpt><trkpt lat="45.5055683" lon="10.45466"><ele>177.0</ele><time>2026-03-28T07:31:15.845Z</time></trkpt><trkpt lat="45.5055617" lon="10.45489"><ele>177.33333333333334</ele><time>2026-03-28T07:31:16.845Z</time></trkpt><trkpt lat="45.5055733" lon="10.455135"><ele>177.66666666666669</ele><time>2026-03-28T07:31:17.845Z</time></trkpt><trkpt lat="45.5055783" lon="10.455385"><ele>178.0</ele><time>2026-03-28T07:31:18.844Z</time></trkpt><trkpt lat="45.5055917" lon="10.455655"><ele>178.0</ele><time>2026-03-28T07:31:19.845Z</time></trkpt><trkpt lat="45.5056033" lon="10.45593"><ele>178.0</ele><time>2026-03-28T07:31:20.844Z</time></trkpt><trkpt lat="45.5056183" lon="10.4562117"><ele>178.0</ele><time>2026-03-28T07:31:21.844Z</time></trkpt><trkpt lat="45.5056417" lon="10.4564917"><ele>178.0</ele><time>2026-03-28T07:31:22.844Z</time></trkpt><trkpt lat="45.50567" lon="10.4567833"><ele>178.0</ele><time>2026-03-28T07:31:23.845Z</time></trkpt><trkpt lat="45.5057033" lon="10.4570767"><ele>178.0</ele><time>2026-03-28T07:31:24.844Z</time></trkpt><trkpt lat="45.505745" lon="10.4573783"><ele>178.0</ele><time>2026-03-28T07:31:25.844Z</time></trkpt><trkpt lat="45.5057733" lon="10.45765"><ele>178.0</ele><time>2026-03-28T07:31:26.844Z</time></trkpt><trkpt lat="45.5058133" lon="10.4579217"><ele>178.0</ele><time>2026-03-28T07:31:27.844Z</time></trkpt><trkpt lat="45.5058467" lon="10.4581783"><ele>178.33333333333334</ele><time>2026-03-28T07:31:28.845Z</time></trkpt><trkpt lat="45.5058783" lon="10.4584217"><ele>178.66666666666666</ele><time>2026-03-28T07:31:29.844Z</time></trkpt><trkpt lat="45.5059017" lon="10.4586517"><ele>179.0</ele><time>2026-03-28T07:31:30.845Z</time></trkpt><trkpt lat="45.5059283" lon="10.4588683"><ele>179.25</ele><time>2026-03-28T07:31:31.844Z</time></trkpt><trkpt lat="45.5059583" lon="10.4590733"><ele>179.5</ele><time>2026-03-28T07:31:32.844Z</time></trkpt><trkpt lat="45.50599" lon="10.459265"><ele>179.75</ele><time>2026-03-28T07:31:33.844Z</time></trkpt><trkpt lat="45.5060067" lon="10.4594717"><ele>180.0</ele><time>2026-03-28T07:31:34.845Z</time></trkpt><trkpt lat="45.50603" lon="10.459675"><ele>180.0</ele><time>2026-03-28T07:31:35.845Z</time></trkpt><trkpt lat="45.506055" lon="10.4598817"><ele>180.0</ele><time>2026-03-28T07:31:36.845Z</time></trkpt><trkpt lat="45.5060883" lon="10.4600883"><ele>180.0</ele><time>2026-03-28T07:31:37.845Z</time></trkpt><trkpt lat="45.5061217" lon="10.4602883"><ele>180.0</ele><time>2026-03-28T07:31:38.844Z</time></trkpt><trkpt lat="45.5061583" lon="10.4604917"><ele>180.0</ele><time>2026-03-28T07:31:39.844Z</time></trkpt><trkpt lat="45.5061917" lon="10.460695"><ele>180.0</ele><time>2026-03-28T07:31:40.844Z</time></trkpt><trkpt lat="45.5062267" lon="10.460885"><ele>180.0</ele><time>2026-03-28T07:31:41.844Z</time></trkpt><trkpt lat="45.506265" lon="10.4610833"><ele>180.0</ele><time>2026-03-28T07:31:42.845Z</time></trkpt><trkpt lat="45.5063083" lon="10.4612867"><ele>180.25</ele><time>2026-03-28T07:31:43.844Z</time></trkpt><trkpt lat="45.50635" lon="10.4614833"><ele>180.5</ele><time>2026-03-28T07:31:44.845Z</time></trkpt><trkpt lat="45.5063933" lon="10.4616883"><ele>180.75</ele><time>2026-03-28T07:31:45.844Z</time></trkpt><trkpt lat="45.5064367" lon="10.4618833"><ele>181.0</ele><time>2026-03-28T07:31:46.845Z</time></trkpt><trkpt lat="45.5064717" lon="10.4620767"><ele>181.25</ele><time>2026-03-28T07:31:47.845Z</time></trkpt><trkpt lat="45.5065083" lon="10.4622633"><ele>181.5</ele><time>2026-03-28T07:31:48.844Z</time></trkpt><trkpt lat="45.506545" lon="10.4624383"><ele>181.75</ele><time>2026-03-28T07:31:49.845Z</time></trkpt><trkpt lat="45.5065783" lon="10.4626067"><ele>182.0</ele><time>2026-03-28T07:31:50.845Z</time></trkpt><trkpt lat="45.5066033" lon="10.4627683"><ele>182.0</ele><time>2026-03-28T07:31:51.844Z</time></trkpt><trkpt lat="45.50663" lon="10.4629167"><ele>182.0</ele><time>2026-03-28T07:31:52.844Z</time></trkpt><trkpt lat="45.5066533" lon="10.463055"><ele>182.0</ele><time>2026-03-28T07:31:53.845Z</time></trkpt><trkpt lat="45.5066767" lon="10.4631733"><ele>182.0</ele><time>2026-03-28T07:31:54.845Z</time></trkpt><trkpt lat="45.5066867" lon="10.46327"><ele>182.0</ele><time>2026-03-28T07:31:55.845Z</time></trkpt><trkpt lat="45.5066933" lon="10.4634517"><ele>182.0</ele><time>2026-03-28T07:31:57.844Z</time></trkpt><trkpt lat="45.5066817" lon="10.463545"><ele>182.0</ele><time>2026-03-28T07:31:58.845Z</time></trkpt><trkpt lat="45.5066583" lon="10.4636533"><ele>182.0</ele><time>2026-03-28T07:31:59.845Z</time></trkpt><trkpt lat="45.5066333" lon="10.4637633"><ele>182.0</ele><time>2026-03-28T07:32:00.844Z</time></trkpt><trkpt lat="45.5066217" lon="10.46387"><ele>182.0</ele><time>2026-03-28T07:32:01.844Z</time></trkpt><trkpt lat="45.5066717" lon="10.4640117"><ele>182.0</ele><time>2026-03-28T07:32:03.845Z</time></trkpt><trkpt lat="45.5067833" lon="10.4640433"><ele>182.0</ele><time>2026-03-28T07:32:05.845Z</time></trkpt><trkpt lat="45.506845" lon="10.4640183"><ele>182.0</ele><time>2026-03-28T07:32:06.845Z</time></trkpt><trkpt lat="45.5069033" lon="10.4639683"><ele>182.0</ele><time>2026-03-28T07:32:07.844Z</time></trkpt><trkpt lat="45.50697" lon="10.463915"><ele>182.0</ele><time>2026-03-28T07:32:08.844Z</time></trkpt><trkpt lat="45.5070467" lon="10.46387"><ele>182.0</ele><time>2026-03-28T07:32:09.844Z</time></trkpt><trkpt lat="45.50713" lon="10.463845"><ele>182.0</ele><time>2026-03-28T07:32:10.844Z</time></trkpt><trkpt lat="45.507225" lon="10.4638267"><ele>182.0</ele><time>2026-03-28T07:32:11.845Z</time></trkpt><trkpt lat="45.5073333" lon="10.463815"><ele>182.0</ele><time>2026-03-28T07:32:12.845Z</time></trkpt><trkpt lat="45.507435" lon="10.463805"><ele>182.0</ele><time>2026-03-28T07:32:13.844Z</time></trkpt><trkpt lat="45.5075367" lon="10.4637917"><ele>182.0</ele><time>2026-03-28T07:32:14.844Z</time></trkpt><trkpt lat="45.5076383" lon="10.4637783"><ele>182.0</ele><time>2026-03-28T07:32:15.844Z</time></trkpt><trkpt lat="45.5077383" lon="10.4637683"><ele>182.0</ele><time>2026-03-28T07:32:16.844Z</time></trkpt><trkpt lat="45.5078367" lon="10.463765"><ele>182.0</ele><time>2026-03-28T07:32:17.845Z</time></trkpt><trkpt lat="45.5079367" lon="10.4637567"><ele>182.0</ele><time>2026-03-28T07:32:18.844Z</time></trkpt><trkpt lat="45.5080183" lon="10.4637533"><ele>182.0</ele><time>2026-03-28T07:32:19.845Z</time></trkpt><trkpt lat="45.5080917" lon="10.46375"><ele>182.0</ele><time>2026-03-28T07:32:20.844Z</time></trkpt><trkpt lat="45.5081633" lon="10.46374"><ele>182.0</ele><time>2026-03-28T07:32:21.844Z</time></trkpt><trkpt lat="45.5082617" lon="10.4637033"><ele>183.0</ele><time>2026-03-28T07:32:23.844Z</time></trkpt><trkpt lat="45.5083067" lon="10.4636333"><ele>184.0</ele><time>2026-03-28T07:32:28.845Z</time></trkpt><trkpt lat="45.5082683" lon="10.4635183"><ele>185.0</ele><time>2026-03-28T07:32:31.845Z</time></trkpt><trkpt lat="45.5082167" lon="10.463415"><ele>186.0</ele><time>2026-03-28T07:32:34.845Z</time></trkpt><trkpt lat="45.5081867" lon="10.46332"><ele>187.0</ele><time>2026-03-28T07:32:37.844Z</time></trkpt><trkpt lat="45.5081633" lon="10.46322"><ele>188.0</ele><time>2026-03-28T07:32:40.845Z</time></trkpt><trkpt lat="45.5081033" lon="10.463255"><ele>188.0</ele><time>2026-03-28T07:44:11.845Z</time></trkpt><trkpt lat="45.5080283" lon="10.4632883"><ele>188.0</ele><time>2026-03-28T07:44:13.845Z</time></trkpt><trkpt lat="45.5079267" lon="10.4632733"><ele>188.0</ele><time>2026-03-28T07:44:15.846Z</time></trkpt><trkpt lat="45.5078367" lon="10.4632517"><ele>188.0</ele><time>2026-03-28T07:44:17.845Z</time></trkpt><trkpt lat="45.5077733" lon="10.4632467"><ele>188.0</ele><time>2026-03-28T07:44:19.846Z</time></trkpt><trkpt lat="45.5077033" lon="10.4632667"><ele>188.0</ele><time>2026-03-28T07:44:21.845Z</time></trkpt><trkpt lat="45.5076317" lon="10.4632767"><ele>187.14285714285714</ele><time>2026-03-28T07:44:23.845Z</time></trkpt><trkpt lat="45.5075667" lon="10.4632767"><ele>186.28571428571428</ele><time>2026-03-28T07:44:26.846Z</time></trkpt><trkpt lat="45.507495" lon="10.463315"><ele>185.42857142857144</ele><time>2026-03-28T07:45:31.846Z</time></trkpt><trkpt lat="45.5074117" lon="10.4633317"><ele>184.57142857142856</ele><time>2026-03-28T07:45:33.845Z</time></trkpt><trkpt lat="45.507335" lon="10.4633333"><ele>183.71428571428572</ele><time>2026-03-28T07:45:35.846Z</time></trkpt><trkpt lat="45.507265" lon="10.4633367"><ele>182.85714285714286</ele><time>2026-03-28T07:45:37.845Z</time></trkpt><trkpt lat="45.5072033" lon="10.4633767"><ele>182.0</ele><time>2026-03-28T07:45:40.846Z</time></trkpt><trkpt lat="45.50728" lon="10.46348"><ele>182.0</ele><time>2026-03-28T08:07:06.843Z</time></trkpt><trkpt lat="45.5073567" lon="10.46349"><ele>182.0</ele><time>2026-03-28T08:07:16.843Z</time></trkpt><trkpt lat="45.507425" lon="10.4634717"><ele>182.0</ele><time>2026-03-28T08:07:28.844Z</time></trkpt><trkpt lat="45.507495" lon="10.4634767"><ele>182.0</ele><time>2026-03-28T08:08:36.843Z</time></trkpt><trkpt lat="45.5076017" lon="10.4634967"><ele>182.0</ele><time>2026-03-28T08:13:16.842Z</time></trkpt><trkpt lat="45.5076833" lon="10.4635583"><ele>182.0</ele><time>2026-03-28T08:15:55.842Z</time></trkpt><trkpt lat="45.5077817" lon="10.4635683"><ele>182.0</ele><time>2026-03-28T08:17:57.842Z</time></trkpt><trkpt lat="45.5078833" lon="10.463555"><ele>182.0</ele><time>2026-03-28T08:20:52.841Z</time></trkpt><trkpt lat="45.5079833" lon="10.4635383"><ele>182.0</ele><time>2026-03-28T08:23:45.841Z</time></trkpt><trkpt lat="45.508095" lon="10.4635"><ele>182.0</ele><time>2026-03-28T08:26:50.84Z</time></trkpt><trkpt lat="45.508165" lon="10.4634917"><ele>182.0</ele><time>2026-03-28T08:27:04.84Z</time></trkpt><trkpt lat="45.5082567" lon="10.463495"><ele>183.0</ele><time>2026-03-28T08:27:06.839Z</time></trkpt><trkpt lat="45.5083317" lon="10.4635083"><ele>184.0</ele><time>2026-03-28T08:27:08.839Z</time></trkpt><trkpt lat="45.508355" lon="10.4636"><ele>185.0</ele><time>2026-03-28T08:27:12.839Z</time></trkpt><trkpt lat="45.5082717" lon="10.4636633"><ele>186.0</ele><time>2026-03-28T08:27:31.839Z</time></trkpt><trkpt lat="45.5082067" lon="10.4636817"><ele>187.0</ele><time>2026-03-28T08:27:32.839Z</time></trkpt><trkpt lat="45.5081233" lon="10.4636967"><ele>188.0</ele><time>2026-03-28T08:27:33.839Z</time></trkpt><trkpt lat="45.50803" lon="10.4637083"><ele>188.0</ele><time>2026-03-28T08:27:34.839Z</time></trkpt><trkpt lat="45.507935" lon="10.4637217"><ele>188.0</ele><time>2026-03-28T08:27:35.84Z</time></trkpt><trkpt lat="45.5078383" lon="10.4637417"><ele>188.0</ele><time>2026-03-28T08:27:36.84Z</time></trkpt><trkpt lat="45.5077383" lon="10.4637633"><ele>188.0</ele><time>2026-03-28T08:27:37.839Z</time></trkpt><trkpt lat="45.50763" lon="10.4637883"><ele>188.0</ele><time>2026-03-28T08:27:38.84Z</time></trkpt><trkpt lat="45.5075233" lon="10.4637967"><ele>187.2</ele><time>2026-03-28T08:27:39.839Z</time></trkpt><trkpt lat="45.507415" lon="10.4638017"><ele>186.4</ele><time>2026-03-28T08:27:40.84Z</time></trkpt><trkpt lat="45.5073183" lon="10.46381"><ele>185.6</ele><time>2026-03-28T08:27:41.839Z</time></trkpt><trkpt lat="45.5072367" lon="10.4638167"><ele>184.79999999999998</ele><time>2026-03-28T08:27:42.84Z</time></trkpt><trkpt lat="45.5071717" lon="10.4638217"><ele>184.0</ele><time>2026-03-28T08:27:43.839Z</time></trkpt><trkpt lat="45.5070683" lon="10.46381"><ele>183.6</ele><time>2026-03-28T08:27:45.839Z</time></trkpt><trkpt lat="45.50698" lon="10.4637533"><ele>183.2</ele><time>2026-03-28T08:27:47.839Z</time></trkpt><trkpt lat="45.5068967" lon="10.463665"><ele>182.79999999999998</ele><time>2026-03-28T08:27:49.839Z</time></trkpt><trkpt lat="45.50678" lon="10.4636083"><ele>182.39999999999998</ele><time>2026-03-28T08:27:51.84Z</time></trkpt><trkpt lat="45.5066867" lon="10.4636917"><ele>182.0</ele><time>2026-03-28T08:27:53.84Z</time></trkpt><trkpt lat="45.50665" lon="10.463865"><ele>182.0</ele><time>2026-03-28T08:27:55.84Z</time></trkpt><trkpt lat="45.5066617" lon="10.463965"><ele>182.0</ele><time>2026-03-28T08:27:56.84Z</time></trkpt><trkpt lat="45.506695" lon="10.464065"><ele>182.0</ele><time>2026-03-28T08:27:57.839Z</time></trkpt><trkpt lat="45.5067233" lon="10.4641817"><ele>182.0</ele><time>2026-03-28T08:27:58.84Z</time></trkpt><trkpt lat="45.50674" lon="10.464305"><ele>182.0</ele><time>2026-03-28T08:27:59.839Z</time></trkpt><trkpt lat="45.5067417" lon="10.4644417"><ele>182.0</ele><time>2026-03-28T08:28:00.84Z</time></trkpt><trkpt lat="45.5067367" lon="10.464585"><ele>182.2</ele><time>2026-03-28T08:28:01.839Z</time></trkpt><trkpt lat="45.5067283" lon="10.464735"><ele>182.39999999999998</ele><time>2026-03-28T08:28:02.839Z</time></trkpt><trkpt lat="45.5067167" lon="10.46488"><ele>182.60000000000002</ele><time>2026-03-28T08:28:03.84Z</time></trkpt><trkpt lat="45.5067" lon="10.4650417"><ele>182.8</ele><time>2026-03-28T08:28:04.839Z</time></trkpt><trkpt lat="45.50669" lon="10.4652183"><ele>183.0</ele><time>2026-03-28T08:28:05.84Z</time></trkpt><trkpt lat="45.5066833" lon="10.4653983"><ele>183.0</ele><time>2026-03-28T08:28:06.84Z</time></trkpt><trkpt lat="45.5066717" lon="10.465575"><ele>183.0</ele><time>2026-03-28T08:28:07.84Z</time></trkpt><trkpt lat="45.5066583" lon="10.4657583"><ele>183.0</ele><time>2026-03-28T08:28:08.84Z</time></trkpt><trkpt lat="45.50666" lon="10.4659317"><ele>183.0</ele><time>2026-03-28T08:28:09.839Z</time></trkpt><trkpt lat="45.506665" lon="10.4661133"><ele>183.25</ele><time>2026-03-28T08:28:10.839Z</time></trkpt><trkpt lat="45.5066783" lon="10.4663017"><ele>183.5</ele><time>2026-03-28T08:28:11.84Z</time></trkpt><trkpt lat="45.506705" lon="10.466485"><ele>183.75</ele><time>2026-03-28T08:28:12.839Z</time></trkpt><trkpt lat="45.5067367" lon="10.4666783"><ele>184.0</ele><time>2026-03-28T08:28:13.839Z</time></trkpt><trkpt lat="45.5067667" lon="10.46687"><ele>184.0</ele><time>2026-03-28T08:28:14.839Z</time></trkpt><trkpt lat="45.5068033" lon="10.4670633"><ele>184.0</ele><time>2026-03-28T08:28:15.839Z</time></trkpt><trkpt lat="45.5068383" lon="10.4672667"><ele>184.0</ele><time>2026-03-28T08:28:16.84Z</time></trkpt><trkpt lat="45.50687" lon="10.4674633"><ele>184.0</ele><time>2026-03-28T08:28:17.84Z</time></trkpt><trkpt lat="45.5068967" lon="10.4676667"><ele>183.75</ele><time>2026-03-28T08:28:18.84Z</time></trkpt><trkpt lat="45.506925" lon="10.4678633"><ele>183.5</ele><time>2026-03-28T08:28:19.84Z</time></trkpt><trkpt lat="45.5069617" lon="10.4680667"><ele>183.25</ele><time>2026-03-28T08:28:20.839Z</time></trkpt><trkpt lat="45.5069933" lon="10.4682667"><ele>183.0</ele><time>2026-03-28T08:28:21.839Z</time></trkpt><trkpt lat="45.50702" lon="10.468465"><ele>183.75</ele><time>2026-03-28T08:28:22.839Z</time></trkpt><trkpt lat="45.5070483" lon="10.4686683"><ele>184.5</ele><time>2026-03-28T08:28:23.84Z</time></trkpt><trkpt lat="45.50708" lon="10.46887"><ele>185.25</ele><time>2026-03-28T08:28:24.84Z</time></trkpt><trkpt lat="45.507105" lon="10.4690817"><ele>186.0</ele><time>2026-03-28T08:28:25.84Z</time></trkpt><trkpt lat="45.507115" lon="10.4692817"><ele>186.75</ele><time>2026-03-28T08:28:26.84Z</time></trkpt><trkpt lat="45.5071217" lon="10.4695033"><ele>187.5</ele><time>2026-03-28T08:28:27.839Z</time></trkpt><trkpt lat="45.5071017" lon="10.4696983"><ele>188.25</ele><time>2026-03-28T08:28:28.839Z</time></trkpt><trkpt lat="45.5070833" lon="10.4698983"><ele>189.0</ele><time>2026-03-28T08:28:29.839Z</time></trkpt><trkpt lat="45.5070517" lon="10.470105"><ele>189.0</ele><time>2026-03-28T08:28:30.839Z</time></trkpt><trkpt lat="45.5070167" lon="10.4703083"><ele>189.0</ele><time>2026-03-28T08:28:31.84Z</time></trkpt><trkpt lat="45.5069767" lon="10.470505"><ele>189.0</ele><time>2026-03-28T08:28:32.839Z</time></trkpt><trkpt lat="45.5069367" lon="10.4706817"><ele>189.0</ele><time>2026-03-28T08:28:33.839Z</time></trkpt><trkpt lat="45.506895" lon="10.4708633"><ele>189.5</ele><time>2026-03-28T08:28:34.839Z</time></trkpt><trkpt lat="45.50685" lon="10.47102"><ele>190.0</ele><time>2026-03-28T08:28:35.84Z</time></trkpt><trkpt lat="45.5068067" lon="10.4711733"><ele>190.5</ele><time>2026-03-28T08:28:36.84Z</time></trkpt><trkpt lat="45.5067633" lon="10.4713283"><ele>191.0</ele><time>2026-03-28T08:28:37.84Z</time></trkpt><trkpt lat="45.5067217" lon="10.471485"><ele>191.5</ele><time>2026-03-28T08:28:38.839Z</time></trkpt><trkpt lat="45.5066917" lon="10.4716533"><ele>192.0</ele><time>2026-03-28T08:28:39.84Z</time></trkpt><trkpt lat="45.5066617" lon="10.4718367"><ele>192.5</ele><time>2026-03-28T08:28:40.839Z</time></trkpt><trkpt lat="45.5066417" lon="10.472025"><ele>193.0</ele><time>2026-03-28T08:28:41.839Z</time></trkpt><trkpt lat="45.506615" lon="10.4722267"><ele>194.33333333333331</ele><time>2026-03-28T08:28:42.839Z</time></trkpt><trkpt lat="45.5065917" lon="10.472435"><ele>195.66666666666669</ele><time>2026-03-28T08:28:43.839Z</time></trkpt><trkpt lat="45.50656" lon="10.4726617"><ele>197.0</ele><time>2026-03-28T08:28:44.84Z</time></trkpt><trkpt lat="45.506535" lon="10.4728967"><ele>196.33333333333334</ele><time>2026-03-28T08:28:45.839Z</time></trkpt><trkpt lat="45.5065117" lon="10.47313"><ele>195.66666666666669</ele><time>2026-03-28T08:28:46.84Z</time></trkpt><trkpt lat="45.50648" lon="10.473355"><ele>195.0</ele><time>2026-03-28T08:28:47.839Z</time></trkpt><trkpt lat="45.506455" lon="10.4735583"><ele>195.0</ele><time>2026-03-28T08:28:48.839Z</time></trkpt><trkpt lat="45.506435" lon="10.4737533"><ele>195.0</ele><time>2026-03-28T08:28:49.839Z</time></trkpt><trkpt lat="45.5064233" lon="10.4739067"><ele>195.0</ele><time>2026-03-28T08:28:50.84Z</time></trkpt><trkpt lat="45.506405" lon="10.4740317"><ele>195.0</ele><time>2026-03-28T08:28:51.839Z</time></trkpt><trkpt lat="45.5063783" lon="10.4741417"><ele>195.0</ele><time>2026-03-28T08:28:52.84Z</time></trkpt><trkpt lat="45.50634" lon="10.474235"><ele>195.0</ele><time>2026-03-28T08:28:53.839Z</time></trkpt><trkpt lat="45.5062983" lon="10.4743317"><ele>195.0</ele><time>2026-03-28T08:28:54.839Z</time></trkpt><trkpt lat="45.5062633" lon="10.4744133"><ele>195.0</ele><time>2026-03-28T08:28:55.839Z</time></trkpt><trkpt lat="45.5062217" lon="10.4744933"><ele>195.0</ele><time>2026-03-28T08:28:56.839Z</time></trkpt><trkpt lat="45.506155" lon="10.4745983"><ele>195.0</ele><time>2026-03-28T08:28:58.839Z</time></trkpt><trkpt lat="45.5060467" lon="10.4746267"><ele>195.0</ele><time>2026-03-28T08:29:00.84Z</time></trkpt><trkpt lat="45.5059817" lon="10.4745867"><ele>194.8</ele><time>2026-03-28T08:29:01.839Z</time></trkpt><trkpt lat="45.5059217" lon="10.4745167"><ele>194.6</ele><time>2026-03-28T08:29:02.839Z</time></trkpt><trkpt lat="45.50587" lon="10.4744083"><ele>194.39999999999998</ele><time>2026-03-28T08:29:03.839Z</time></trkpt><trkpt lat="45.5058333" lon="10.4742833"><ele>194.2</ele><time>2026-03-28T08:29:04.839Z</time></trkpt><trkpt lat="45.5058017" lon="10.4741367"><ele>194.0</ele><time>2026-03-28T08:29:05.839Z</time></trkpt><trkpt lat="45.5057783" lon="10.473965"><ele>194.0</ele><time>2026-03-28T08:29:06.839Z</time></trkpt><trkpt lat="45.505755" lon="10.4737883"><ele>194.0</ele><time>2026-03-28T08:29:07.839Z</time></trkpt><trkpt lat="45.50572" lon="10.4736133"><ele>194.0</ele><time>2026-03-28T08:29:08.84Z</time></trkpt><trkpt lat="45.5056833" lon="10.4734383"><ele>194.0</ele><time>2026-03-28T08:29:09.84Z</time></trkpt><trkpt lat="45.505635" lon="10.4732717"><ele>194.00000000000003</ele><time>2026-03-28T08:29:10.84Z</time></trkpt><trkpt lat="45.50558" lon="10.4731367"><ele>194.0</ele><time>2026-03-28T08:29:11.839Z</time></trkpt><trkpt lat="45.5055133" lon="10.47305"><ele>194.0</ele><time>2026-03-28T08:29:12.839Z</time></trkpt><trkpt lat="45.5054533" lon="10.4730133"><ele>194.0</ele><time>2026-03-28T08:29:13.839Z</time></trkpt><trkpt lat="45.5053783" lon="10.4730617"><ele>194.00000000000003</ele><time>2026-03-28T08:29:15.839Z</time></trkpt><trkpt lat="45.5053233" lon="10.4731417"><ele>194.0</ele><time>2026-03-28T08:29:16.839Z</time></trkpt><trkpt lat="45.5052467" lon="10.4732467"><ele>194.25</ele><time>2026-03-28T08:29:17.839Z</time></trkpt><trkpt lat="45.5051667" lon="10.4733733"><ele>194.5</ele><time>2026-03-28T08:29:18.839Z</time></trkpt><trkpt lat="45.5050733" lon="10.4735033"><ele>194.75</ele><time>2026-03-28T08:29:19.839Z</time></trkpt><trkpt lat="45.50497" lon="10.4736333"><ele>195.0</ele><time>2026-03-28T08:29:20.839Z</time></trkpt><trkpt lat="45.5048633" lon="10.473765"><ele>194.75</ele><time>2026-03-28T08:29:21.84Z</time></trkpt><trkpt lat="45.50475" lon="10.4738767"><ele>194.5</ele><time>2026-03-28T08:29:22.839Z</time></trkpt><trkpt lat="45.5046383" lon="10.47396"><ele>194.25</ele><time>2026-03-28T08:29:23.84Z</time></trkpt><trkpt lat="45.504525" lon="10.47401"><ele>194.0</ele><time>2026-03-28T08:29:24.839Z</time></trkpt><trkpt lat="45.504405" lon="10.4740517"><ele>196.75</ele><time>2026-03-28T08:29:25.839Z</time></trkpt><trkpt lat="45.5042833" lon="10.4740633"><ele>199.5</ele><time>2026-03-28T08:29:26.839Z</time></trkpt><trkpt lat="45.5041517" lon="10.474055"><ele>202.25</ele><time>2026-03-28T08:29:27.84Z</time></trkpt><trkpt lat="45.50402" lon="10.4740317"><ele>205.0</ele><time>2026-03-28T08:29:28.839Z</time></trkpt><trkpt lat="45.503885" lon="10.474015"><ele>206.25</ele><time>2026-03-28T08:29:29.84Z</time></trkpt><trkpt lat="45.5037317" lon="10.4740083"><ele>207.5</ele><time>2026-03-28T08:29:30.839Z</time></trkpt><trkpt lat="45.5035833" lon="10.4740067"><ele>208.75</ele><time>2026-03-28T08:29:31.839Z</time></trkpt><trkpt lat="45.5034533" lon="10.4740267"><ele>210.0</ele><time>2026-03-28T08:29:32.84Z</time></trkpt><trkpt lat="45.503325" lon="10.4740633"><ele>210.0</ele><time>2026-03-28T08:29:33.839Z</time></trkpt><trkpt lat="45.5032033" lon="10.474145"><ele>210.0</ele><time>2026-03-28T08:29:34.839Z</time></trkpt><trkpt lat="45.5030767" lon="10.47425"><ele>210.0</ele><time>2026-03-28T08:29:35.839Z</time></trkpt><trkpt lat="45.50294" lon="10.474365"><ele>210.0</ele><time>2026-03-28T08:29:36.84Z</time></trkpt><trkpt lat="45.5028" lon="10.4744783"><ele>209.75</ele><time>2026-03-28T08:29:37.84Z</time></trkpt><trkpt lat="45.502655" lon="10.4746"><ele>209.5</ele><time>2026-03-28T08:29:38.84Z</time></trkpt><trkpt lat="45.5025233" lon="10.4746633"><ele>209.25</ele><time>2026-03-28T08:29:39.84Z</time></trkpt><trkpt lat="45.5024" lon="10.47468"><ele>209.0</ele><time>2026-03-28T08:29:40.839Z</time></trkpt><trkpt lat="45.5022617" lon="10.4746383"><ele>208.75</ele><time>2026-03-28T08:29:41.839Z</time></trkpt><trkpt lat="45.5021217" lon="10.4745767"><ele>208.5</ele><time>2026-03-28T08:29:42.84Z</time></trkpt><trkpt lat="45.5019867" lon="10.474495"><ele>208.25</ele><time>2026-03-28T08:29:43.84Z</time></trkpt><trkpt lat="45.5018517" lon="10.4743983"><ele>208.0</ele><time>2026-03-28T08:29:44.84Z</time></trkpt><trkpt lat="45.50172" lon="10.4743033"><ele>208.0</ele><time>2026-03-28T08:29:45.84Z</time></trkpt><trkpt lat="45.5016017" lon="10.4742033"><ele>208.0</ele><time>2026-03-28T08:29:46.839Z</time></trkpt><trkpt lat="45.5015017" lon="10.4741083"><ele>208.0</ele><time>2026-03-28T08:29:47.839Z</time></trkpt><trkpt lat="45.5014067" lon="10.4740317"><ele>208.0</ele><time>2026-03-28T08:29:48.84Z</time></trkpt><trkpt lat="45.5013433" lon="10.4739833"><ele>208.0</ele><time>2026-03-28T08:29:49.839Z</time></trkpt><trkpt lat="45.5012417" lon="10.4740233"><ele>208.0</ele><time>2026-03-28T08:29:51.84Z</time></trkpt><trkpt lat="45.501145" lon="10.474055"><ele>208.0</ele><time>2026-03-28T08:29:53.839Z</time></trkpt><trkpt lat="45.5010817" lon="10.473975"><ele>208.0</ele><time>2026-03-28T08:29:54.839Z</time></trkpt><trkpt lat="45.50102" lon="10.4738483"><ele>208.0</ele><time>2026-03-28T08:29:55.84Z</time></trkpt><trkpt lat="45.5009633" lon="10.473715"><ele>208.0</ele><time>2026-03-28T08:29:56.84Z</time></trkpt><trkpt lat="45.500905" lon="10.4735833"><ele>208.2</ele><time>2026-03-28T08:29:57.84Z</time></trkpt><trkpt lat="45.5008483" lon="10.4734483"><ele>208.4</ele><time>2026-03-28T08:29:58.84Z</time></trkpt><trkpt lat="45.5008017" lon="10.4733117"><ele>208.6</ele><time>2026-03-28T08:29:59.839Z</time></trkpt><trkpt lat="45.5007633" lon="10.4731967"><ele>208.79999999999998</ele><time>2026-03-28T08:30:00.84Z</time></trkpt><trkpt lat="45.5007167" lon="10.4730967"><ele>209.0</ele><time>2026-03-28T08:30:01.839Z</time></trkpt><trkpt lat="45.5006767" lon="10.4729983"><ele>208.50000000000003</ele><time>2026-03-28T08:30:02.839Z</time></trkpt><trkpt lat="45.5006133" lon="10.4729333"><ele>208.0</ele><time>2026-03-28T08:30:03.84Z</time></trkpt><trkpt lat="45.5005333" lon="10.4729217"><ele>207.5</ele><time>2026-03-28T08:30:04.839Z</time></trkpt><trkpt lat="45.5004483" lon="10.4729283"><ele>207.0</ele><time>2026-03-28T08:30:05.838Z</time></trkpt><trkpt lat="45.5003617" lon="10.47292"><ele>206.50000000000003</ele><time>2026-03-28T08:30:06.838Z</time></trkpt><trkpt lat="45.5002683" lon="10.4729117"><ele>206.0</ele><time>2026-03-28T08:30:07.838Z</time></trkpt><trkpt lat="45.5001733" lon="10.4728917"><ele>205.20000000000002</ele><time>2026-03-28T08:30:08.839Z</time></trkpt><trkpt lat="45.5000683" lon="10.4728617"><ele>204.4</ele><time>2026-03-28T08:30:09.838Z</time></trkpt><trkpt lat="45.499965" lon="10.472835"><ele>203.6</ele><time>2026-03-28T08:30:10.839Z</time></trkpt><trkpt lat="45.49986" lon="10.4728067"><ele>202.8</ele><time>2026-03-28T08:30:11.838Z</time></trkpt><trkpt lat="45.4997567" lon="10.47278"><ele>202.0</ele><time>2026-03-28T08:30:12.838Z</time></trkpt><trkpt lat="45.4996567" lon="10.4727533"><ele>201.39999999999998</ele><time>2026-03-28T08:30:13.838Z</time></trkpt><trkpt lat="45.499555" lon="10.472725"><ele>200.79999999999998</ele><time>2026-03-28T08:30:14.838Z</time></trkpt><trkpt lat="45.4994517" lon="10.4726983"><ele>200.2</ele><time>2026-03-28T08:30:15.838Z</time></trkpt><trkpt lat="45.499355" lon="10.472665"><ele>199.6</ele><time>2026-03-28T08:30:16.839Z</time></trkpt><trkpt lat="45.49927" lon="10.4726467"><ele>199.0</ele><time>2026-03-28T08:30:17.838Z</time></trkpt><trkpt lat="45.4991933" lon="10.4726167"><ele>198.99999999999997</ele><time>2026-03-28T08:30:18.839Z</time></trkpt><trkpt lat="45.4990867" lon="10.4725783"><ele>199.0</ele><time>2026-03-28T08:30:20.839Z</time></trkpt><trkpt lat="45.4990217" lon="10.4726033"><ele>199.0</ele><time>2026-03-28T08:30:22.839Z</time></trkpt><trkpt lat="45.4990033" lon="10.472765"><ele>199.0</ele><time>2026-03-28T08:30:25.838Z</time></trkpt><trkpt lat="45.4990033" lon="10.472865"><ele>198.99999999999997</ele><time>2026-03-28T08:30:26.838Z</time></trkpt><trkpt lat="45.4990083" lon="10.4729767"><ele>199.0</ele><time>2026-03-28T08:30:27.839Z</time></trkpt><trkpt lat="45.4990067" lon="10.4731033"><ele>199.2</ele><time>2026-03-28T08:30:28.839Z</time></trkpt><trkpt lat="45.4990033" lon="10.4732333"><ele>199.39999999999998</ele><time>2026-03-28T08:30:29.839Z</time></trkpt><trkpt lat="45.4990017" lon="10.4733717"><ele>199.6</ele><time>2026-03-28T08:30:30.838Z</time></trkpt><trkpt lat="45.499" lon="10.47352"><ele>199.8</ele><time>2026-03-28T08:30:31.839Z</time></trkpt><trkpt lat="45.4990017" lon="10.47368"><ele>200.0</ele><time>2026-03-28T08:30:32.839Z</time></trkpt><trkpt lat="45.4989983" lon="10.4738383"><ele>200.5</ele><time>2026-03-28T08:30:33.839Z</time></trkpt><trkpt lat="45.4989933" lon="10.4740033"><ele>201.0</ele><time>2026-03-28T08:30:34.838Z</time></trkpt><trkpt lat="45.49899" lon="10.4741783"><ele>201.5</ele><time>2026-03-28T08:30:35.839Z</time></trkpt><trkpt lat="45.498985" lon="10.47436"><ele>202.0</ele><time>2026-03-28T08:30:36.838Z</time></trkpt><trkpt lat="45.4989783" lon="10.47453"><ele>202.39999999999998</ele><time>2026-03-28T08:30:37.839Z</time></trkpt><trkpt lat="45.4989683" lon="10.4747033"><ele>202.79999999999998</ele><time>2026-03-28T08:30:38.838Z</time></trkpt><trkpt lat="45.4989617" lon="10.4748617"><ele>203.2</ele><time>2026-03-28T08:30:39.838Z</time></trkpt><trkpt lat="45.49895" lon="10.475"><ele>203.6</ele><time>2026-03-28T08:30:40.838Z</time></trkpt><trkpt lat="45.4989417" lon="10.475115"><ele>204.0</ele><time>2026-03-28T08:30:41.839Z</time></trkpt><trkpt lat="45.498935" lon="10.4752083"><ele>204.0</ele><time>2026-03-28T08:30:42.838Z</time></trkpt><trkpt lat="45.498925" lon="10.4753567"><ele>204.0</ele><time>2026-03-28T08:30:44.838Z</time></trkpt><trkpt lat="45.4988967" lon="10.4754433"><ele>204.0</ele><time>2026-03-28T08:30:46.839Z</time></trkpt><trkpt lat="45.4988117" lon="10.4754617"><ele>204.0</ele><time>2026-03-28T08:30:48.839Z</time></trkpt><trkpt lat="45.498685" lon="10.47545"><ele>204.0</ele><time>2026-03-28T08:30:50.838Z</time></trkpt><trkpt lat="45.4986067" lon="10.4754583"><ele>204.79999999999998</ele><time>2026-03-28T08:30:51.839Z</time></trkpt><trkpt lat="45.4985167" lon="10.47546"><ele>205.6</ele><time>2026-03-28T08:30:52.839Z</time></trkpt><trkpt lat="45.4984167" lon="10.4754617"><ele>206.4</ele><time>2026-03-28T08:30:53.838Z</time></trkpt><trkpt lat="45.4983083" lon="10.4754633"><ele>207.2</ele><time>2026-03-28T08:30:54.839Z</time></trkpt><trkpt lat="45.4981917" lon="10.4754683"><ele>208.0</ele><time>2026-03-28T08:30:55.838Z</time></trkpt><trkpt lat="45.4980683" lon="10.475475"><ele>208.0</ele><time>2026-03-28T08:30:56.839Z</time></trkpt><trkpt lat="45.4979383" lon="10.4754667"><ele>208.0</ele><time>2026-03-28T08:30:57.838Z</time></trkpt><trkpt lat="45.49781" lon="10.47546"><ele>208.0</ele><time>2026-03-28T08:30:58.838Z</time></trkpt><trkpt lat="45.497685" lon="10.4754367"><ele>208.0</ele><time>2026-03-28T08:30:59.839Z</time></trkpt><trkpt lat="45.4975583" lon="10.4754"><ele>207.25</ele><time>2026-03-28T08:31:00.838Z</time></trkpt><trkpt lat="45.4974217" lon="10.4753567"><ele>206.5</ele><time>2026-03-28T08:31:01.838Z</time></trkpt><trkpt lat="45.497285" lon="10.4753233"><ele>205.75</ele><time>2026-03-28T08:31:02.839Z</time></trkpt><trkpt lat="45.4971583" lon="10.4752767"><ele>205.0</ele><time>2026-03-28T08:31:03.838Z</time></trkpt><trkpt lat="45.4970383" lon="10.4752483"><ele>205.0</ele><time>2026-03-28T08:31:04.838Z</time></trkpt><trkpt lat="45.4969183" lon="10.47521"><ele>205.0</ele><time>2026-03-28T08:31:05.838Z</time></trkpt><trkpt lat="45.49679" lon="10.4751683"><ele>205.0</ele><time>2026-03-28T08:31:06.839Z</time></trkpt><trkpt lat="45.4966567" lon="10.4751317"><ele>205.0</ele><time>2026-03-28T08:31:07.838Z</time></trkpt><trkpt lat="45.496505" lon="10.4751083"><ele>205.0</ele><time>2026-03-28T08:31:08.838Z</time></trkpt><trkpt lat="45.496345" lon="10.4751"><ele>205.0</ele><time>2026-03-28T08:31:09.838Z</time></trkpt><trkpt lat="45.496185" lon="10.4750883"><ele>205.0</ele><time>2026-03-28T08:31:10.839Z</time></trkpt><trkpt lat="45.49602" lon="10.475065"><ele>205.5</ele><time>2026-03-28T08:31:11.838Z</time></trkpt><trkpt lat="45.495865" lon="10.4750517"><ele>206.0</ele><time>2026-03-28T08:31:12.839Z</time></trkpt><trkpt lat="45.4957183" lon="10.4750217"><ele>206.5</ele><time>2026-03-28T08:31:13.839Z</time></trkpt><trkpt lat="45.4955883" lon="10.4750033"><ele>207.0</ele><time>2026-03-28T08:31:14.839Z</time></trkpt><trkpt lat="45.4954733" lon="10.4749883"><ele>207.25</ele><time>2026-03-28T08:31:15.838Z</time></trkpt><trkpt lat="45.49535" lon="10.4749733"><ele>207.5</ele><time>2026-03-28T08:31:16.838Z</time></trkpt><trkpt lat="45.4952217" lon="10.4749683"><ele>207.75</ele><time>2026-03-28T08:31:17.839Z</time></trkpt><trkpt lat="45.4950717" lon="10.4749717"><ele>208.0</ele><time>2026-03-28T08:31:18.839Z</time></trkpt><trkpt lat="45.4949083" lon="10.474965"><ele>208.0</ele><time>2026-03-28T08:31:19.838Z</time></trkpt><trkpt lat="45.4947417" lon="10.47495"><ele>208.0</ele><time>2026-03-28T08:31:20.838Z</time></trkpt><trkpt lat="45.49456" lon="10.4749283"><ele>208.0</ele><time>2026-03-28T08:31:21.839Z</time></trkpt><trkpt lat="45.494385" lon="10.4749"><ele>208.0</ele><time>2026-03-28T08:31:22.839Z</time></trkpt><trkpt lat="45.4942217" lon="10.4748783"><ele>208.0</ele><time>2026-03-28T08:31:23.838Z</time></trkpt><trkpt lat="45.4940617" lon="10.47486"><ele>208.0</ele><time>2026-03-28T08:31:24.839Z</time></trkpt><trkpt lat="45.4939233" lon="10.47485"><ele>208.0</ele><time>2026-03-28T08:31:25.839Z</time></trkpt><trkpt lat="45.4937867" lon="10.4748567"><ele>208.0</ele><time>2026-03-28T08:31:26.838Z</time></trkpt><trkpt lat="45.49367" lon="10.4748783"><ele>208.0</ele><time>2026-03-28T08:31:27.838Z</time></trkpt><trkpt lat="45.493555" lon="10.4749067"><ele>208.0</ele><time>2026-03-28T08:31:28.838Z</time></trkpt><trkpt lat="45.493445" lon="10.4749283"><ele>209.0</ele><time>2026-03-28T08:31:29.839Z</time></trkpt><trkpt lat="45.4933217" lon="10.4749267"><ele>210.0</ele><time>2026-03-28T08:31:30.839Z</time></trkpt><trkpt lat="45.493195" lon="10.4749183"><ele>211.0</ele><time>2026-03-28T08:31:31.838Z</time></trkpt><trkpt lat="45.4930583" lon="10.4749017"><ele>212.0</ele><time>2026-03-28T08:31:32.838Z</time></trkpt><trkpt lat="45.4929383" lon="10.4748967"><ele>212.8</ele><time>2026-03-28T08:31:33.839Z</time></trkpt><trkpt lat="45.4928567" lon="10.4748917"><ele>213.6</ele><time>2026-03-28T08:31:34.838Z</time></trkpt><trkpt lat="45.49278" lon="10.4748317"><ele>214.40000000000003</ele><time>2026-03-28T08:31:36.838Z</time></trkpt><trkpt lat="45.492765" lon="10.4746233"><ele>215.20000000000002</ele><time>2026-03-28T08:31:38.839Z</time></trkpt><trkpt lat="45.4927633" lon="10.474475"><ele>216.0</ele><time>2026-03-28T08:31:39.839Z</time></trkpt><trkpt lat="45.4927367" lon="10.47431"><ele>216.0</ele><time>2026-03-28T08:31:40.839Z</time></trkpt><trkpt lat="45.492705" lon="10.4741417"><ele>216.00000000000003</ele><time>2026-03-28T08:31:41.838Z</time></trkpt><trkpt lat="45.4926733" lon="10.473985"><ele>216.00000000000003</ele><time>2026-03-28T08:31:42.838Z</time></trkpt><trkpt lat="45.4926383" lon="10.4738533"><ele>216.0</ele><time>2026-03-28T08:31:43.839Z</time></trkpt><trkpt lat="45.4925917" lon="10.4737317"><ele>216.0</ele><time>2026-03-28T08:31:44.838Z</time></trkpt><trkpt lat="45.4925383" lon="10.4736167"><ele>215.0</ele><time>2026-03-28T08:31:45.839Z</time></trkpt><trkpt lat="45.4924833" lon="10.4735"><ele>214.0</ele><time>2026-03-28T08:31:46.839Z</time></trkpt><trkpt lat="45.4924383" lon="10.47338"><ele>213.0</ele><time>2026-03-28T08:31:47.839Z</time></trkpt><trkpt lat="45.4923917" lon="10.4732783"><ele>212.0</ele><time>2026-03-28T08:31:48.839Z</time></trkpt><trkpt lat="45.49234" lon="10.4731933"><ele>211.0</ele><time>2026-03-28T08:31:49.838Z</time></trkpt><trkpt lat="45.4922833" lon="10.4731083"><ele>210.0</ele><time>2026-03-28T08:31:50.838Z</time></trkpt><trkpt lat="45.4922133" lon="10.47302"><ele>210.0</ele><time>2026-03-28T08:31:51.838Z</time></trkpt><trkpt lat="45.49213" lon="10.4729433"><ele>210.0</ele><time>2026-03-28T08:31:52.838Z</time></trkpt><trkpt lat="45.4920383" lon="10.4728783"><ele>210.0</ele><time>2026-03-28T08:31:53.839Z</time></trkpt><trkpt lat="45.4919417" lon="10.472825"><ele>210.0</ele><time>2026-03-28T08:31:54.838Z</time></trkpt><trkpt lat="45.4918467" lon="10.47282"><ele>210.0</ele><time>2026-03-28T08:31:55.838Z</time></trkpt><trkpt lat="45.491745" lon="10.4728383"><ele>208.75</ele><time>2026-03-28T08:31:56.839Z</time></trkpt><trkpt lat="45.4916317" lon="10.4728667"><ele>207.5</ele><time>2026-03-28T08:31:57.839Z</time></trkpt><trkpt lat="45.49151" lon="10.4729067"><ele>206.25</ele><time>2026-03-28T08:31:58.838Z</time></trkpt><trkpt lat="45.4913867" lon="10.4729467"><ele>205.0</ele><time>2026-03-28T08:31:59.838Z</time></trkpt><trkpt lat="45.4912667" lon="10.4729717"><ele>204.0</ele><time>2026-03-28T08:32:00.838Z</time></trkpt><trkpt lat="45.4911367" lon="10.4730017"><ele>203.0</ele><time>2026-03-28T08:32:01.839Z</time></trkpt><trkpt lat="45.491005" lon="10.473035"><ele>202.0</ele><time>2026-03-28T08:32:02.839Z</time></trkpt><trkpt lat="45.4908833" lon="10.473065"><ele>201.0</ele><time>2026-03-28T08:32:03.839Z</time></trkpt><trkpt lat="45.4907733" lon="10.4730883"><ele>201.0</ele><time>2026-03-28T08:32:04.838Z</time></trkpt><trkpt lat="45.4906783" lon="10.4731117"><ele>201.0</ele><time>2026-03-28T08:32:05.838Z</time></trkpt><trkpt lat="45.4905817" lon="10.473135"><ele>201.0</ele><time>2026-03-28T08:32:06.838Z</time></trkpt><trkpt lat="45.49048" lon="10.47317"><ele>201.0</ele><time>2026-03-28T08:32:07.839Z</time></trkpt><trkpt lat="45.4903767" lon="10.4732267"><ele>201.0</ele><time>2026-03-28T08:32:08.839Z</time></trkpt><trkpt lat="45.490265" lon="10.4733067"><ele>198.0</ele><time>2026-03-28T08:32:09.838Z</time></trkpt><trkpt lat="45.4901567" lon="10.4733883"><ele>195.0</ele><time>2026-03-28T08:32:10.839Z</time></trkpt><trkpt lat="45.4900517" lon="10.4734733"><ele>192.0</ele><time>2026-03-28T08:32:11.838Z</time></trkpt><trkpt lat="45.4899483" lon="10.4735683"><ele>189.0</ele><time>2026-03-28T08:32:12.839Z</time></trkpt><trkpt lat="45.4898533" lon="10.473665"><ele>189.0</ele><time>2026-03-28T08:32:13.839Z</time></trkpt><trkpt lat="45.4897633" lon="10.4737583"><ele>189.0</ele><time>2026-03-28T08:32:14.838Z</time></trkpt><trkpt lat="45.4896617" lon="10.473865"><ele>189.0</ele><time>2026-03-28T08:32:15.838Z</time></trkpt><trkpt lat="45.4895567" lon="10.47396"><ele>189.0</ele><time>2026-03-28T08:32:16.839Z</time></trkpt><trkpt lat="45.48945" lon="10.474035"><ele>188.25</ele><time>2026-03-28T08:32:17.839Z</time></trkpt><trkpt lat="45.48934" lon="10.4741167"><ele>187.5</ele><time>2026-03-28T08:32:18.838Z</time></trkpt><trkpt lat="45.48923" lon="10.4741967"><ele>186.75</ele><time>2026-03-28T08:32:19.838Z</time></trkpt><trkpt lat="45.4891183" lon="10.4742717"><ele>186.0</ele><time>2026-03-28T08:32:20.838Z</time></trkpt><trkpt lat="45.4890017" lon="10.4743383"><ele>186.0</ele><time>2026-03-28T08:32:21.839Z</time></trkpt><trkpt lat="45.48891" lon="10.47439"><ele>186.0</ele><time>2026-03-28T08:32:22.838Z</time></trkpt><trkpt lat="45.488845" lon="10.47442"><ele>186.0</ele><time>2026-03-28T08:32:23.839Z</time></trkpt><trkpt lat="45.4887533" lon="10.4744517"><ele>186.0</ele><time>2026-03-28T08:32:34.839Z</time></trkpt><trkpt lat="45.48862" lon="10.474515"><ele>186.0</ele><time>2026-03-28T08:32:36.839Z</time></trkpt><trkpt lat="45.4885317" lon="10.4745583"><ele>185.60000000000002</ele><time>2026-03-28T08:32:37.838Z</time></trkpt><trkpt lat="45.4884417" lon="10.4746117"><ele>185.2</ele><time>2026-03-28T08:32:38.839Z</time></trkpt><trkpt lat="45.4883483" lon="10.47467"><ele>184.8</ele><time>2026-03-28T08:32:39.838Z</time></trkpt><trkpt lat="45.4882567" lon="10.4747317"><ele>184.39999999999998</ele><time>2026-03-28T08:32:40.839Z</time></trkpt><trkpt lat="45.4881667" lon="10.474795"><ele>184.0</ele><time>2026-03-28T08:32:41.838Z</time></trkpt><trkpt lat="45.4880733" lon="10.4748583"><ele>184.0</ele><time>2026-03-28T08:32:42.838Z</time></trkpt><trkpt lat="45.48797" lon="10.4749167"><ele>184.0</ele><time>2026-03-28T08:32:43.839Z</time></trkpt><trkpt lat="45.4878667" lon="10.4749633"><ele>184.0</ele><time>2026-03-28T08:32:44.838Z</time></trkpt><trkpt lat="45.4877667" lon="10.4750267"><ele>184.0</ele><time>2026-03-28T08:32:45.838Z</time></trkpt><trkpt lat="45.4876717" lon="10.47509"><ele>184.0</ele><time>2026-03-28T08:32:46.838Z</time></trkpt><trkpt lat="45.487585" lon="10.475165"><ele>184.0</ele><time>2026-03-28T08:32:47.838Z</time></trkpt><trkpt lat="45.4875217" lon="10.4752317"><ele>184.0</ele><time>2026-03-28T08:32:48.839Z</time></trkpt><trkpt lat="45.487465" lon="10.47532"><ele>184.0</ele><time>2026-03-28T08:32:50.839Z</time></trkpt><trkpt lat="45.4874333" lon="10.4754067"><ele>184.0</ele><time>2026-03-28T08:32:54.839Z</time></trkpt><trkpt lat="45.4873783" lon="10.4754733"><ele>184.0</ele><time>2026-03-28T08:32:57.839Z</time></trkpt><trkpt lat="45.4872717" lon="10.4755283"><ele>184.0</ele><time>2026-03-28T08:32:59.839Z</time></trkpt><trkpt lat="45.487205" lon="10.47553"><ele>184.0</ele><time>2026-03-28T08:33:00.838Z</time></trkpt><trkpt lat="45.487135" lon="10.4755383"><ele>184.0</ele><time>2026-03-28T08:33:01.839Z</time></trkpt><trkpt lat="45.4870483" lon="10.47552"><ele>184.0</ele><time>2026-03-28T08:33:03.839Z</time></trkpt><trkpt lat="45.4869717" lon="10.4754083"><ele>184.0</ele><time>2026-03-28T08:33:05.839Z</time></trkpt><trkpt lat="45.4869367" lon="10.4753067"><ele>184.0</ele><time>2026-03-28T08:33:06.838Z</time></trkpt><trkpt lat="45.486895" lon="10.4751983"><ele>184.0</ele><time>2026-03-28T08:33:07.839Z</time></trkpt><trkpt lat="45.4868583" lon="10.47508"><ele>184.2</ele><time>2026-03-28T08:33:08.839Z</time></trkpt><trkpt lat="45.4868383" lon="10.47496"><ele>184.39999999999998</ele><time>2026-03-28T08:33:09.839Z</time></trkpt><trkpt lat="45.4868083" lon="10.4748367"><ele>184.6</ele><time>2026-03-28T08:33:10.839Z</time></trkpt><trkpt lat="45.4867833" lon="10.4747133"><ele>184.8</ele><time>2026-03-28T08:33:11.838Z</time></trkpt><trkpt lat="45.4867567" lon="10.4745767"><ele>185.0</ele><time>2026-03-28T08:33:12.838Z</time></trkpt><trkpt lat="45.4867283" lon="10.4744317"><ele>185.0</ele><time>2026-03-28T08:33:13.839Z</time></trkpt><trkpt lat="45.486695" lon="10.4742717"><ele>185.0</ele><time>2026-03-28T08:33:14.839Z</time></trkpt><trkpt lat="45.4866667" lon="10.47411"><ele>185.0</ele><time>2026-03-28T08:33:15.839Z</time></trkpt><trkpt lat="45.4866433" lon="10.47395"><ele>185.0</ele><time>2026-03-28T08:33:16.838Z</time></trkpt><trkpt lat="45.4866167" lon="10.4737817"><ele>185.0</ele><time>2026-03-28T08:33:17.839Z</time></trkpt><trkpt lat="45.4865967" lon="10.473635"><ele>185.0</ele><time>2026-03-28T08:33:18.838Z</time></trkpt><trkpt lat="45.486565" lon="10.4735067"><ele>185.0</ele><time>2026-03-28T08:33:19.838Z</time></trkpt><trkpt lat="45.486535" lon="10.4733967"><ele>185.0</ele><time>2026-03-28T08:33:20.838Z</time></trkpt><trkpt lat="45.4865" lon="10.4733017"><ele>185.0</ele><time>2026-03-28T08:33:21.839Z</time></trkpt><trkpt lat="45.48644" lon="10.4732067"><ele>185.0</ele><time>2026-03-28T08:33:23.838Z</time></trkpt><trkpt lat="45.4863733" lon="10.4730817"><ele>185.0</ele><time>2026-03-28T08:33:54.838Z</time></trkpt><trkpt lat="45.48633" lon="10.473005"><ele>185.0</ele><time>2026-03-28T08:33:55.839Z</time></trkpt><trkpt lat="45.4862817" lon="10.4729283"><ele>185.0</ele><time>2026-03-28T08:33:56.839Z</time></trkpt><trkpt lat="45.4862433" lon="10.472835"><ele>185.0</ele><time>2026-03-28T08:33:57.838Z</time></trkpt><trkpt lat="45.486205" lon="10.4727517"><ele>185.0</ele><time>2026-03-28T08:33:58.838Z</time></trkpt><trkpt lat="45.4861533" lon="10.47269"><ele>185.0</ele><time>2026-03-28T08:33:59.838Z</time></trkpt><trkpt lat="45.486065" lon="10.4725633"><ele>184.6</ele><time>2026-03-28T08:34:01.839Z</time></trkpt><trkpt lat="45.4860133" lon="10.4725083"><ele>184.2</ele><time>2026-03-28T08:34:02.839Z</time></trkpt><trkpt lat="45.48596" lon="10.4724467"><ele>183.8</ele><time>2026-03-28T08:34:03.838Z</time></trkpt><trkpt lat="45.4858633" lon="10.4723383"><ele>183.4</ele><time>2026-03-28T08:34:05.839Z</time></trkpt><trkpt lat="45.4857533" lon="10.4722867"><ele>183.0</ele><time>2026-03-28T08:34:07.839Z</time></trkpt><trkpt lat="45.4856617" lon="10.472305"><ele>183.0</ele><time>2026-03-28T08:34:09.838Z</time></trkpt><trkpt lat="45.4855867" lon="10.472225"><ele>183.0</ele><time>2026-03-28T08:34:11.838Z</time></trkpt><trkpt lat="45.485555" lon="10.47214"><ele>183.0</ele><time>2026-03-28T08:34:12.838Z</time></trkpt><trkpt lat="45.485535" lon="10.4720533"><ele>183.0</ele><time>2026-03-28T08:34:13.838Z</time></trkpt><trkpt lat="45.4855183" lon="10.4719233"><ele>183.0</ele><time>2026-03-28T08:34:15.839Z</time></trkpt><trkpt lat="45.4854867" lon="10.4717933"><ele>183.0</ele><time>2026-03-28T08:34:21.839Z</time></trkpt><trkpt lat="45.4854633" lon="10.4716483"><ele>182.4</ele><time>2026-03-28T08:34:23.838Z</time></trkpt><trkpt lat="45.4854367" lon="10.4715533"><ele>181.8</ele><time>2026-03-28T08:34:24.838Z</time></trkpt><trkpt lat="45.4854017" lon="10.4714233"><ele>181.2</ele><time>2026-03-28T08:34:25.838Z</time></trkpt><trkpt lat="45.4853767" lon="10.4712733"><ele>180.6</ele><time>2026-03-28T08:34:26.838Z</time></trkpt><trkpt lat="45.48535" lon="10.4711067"><ele>180.0</ele><time>2026-03-28T08:34:27.838Z</time></trkpt><trkpt lat="45.48532" lon="10.4709383"><ele>178.75</ele><time>2026-03-28T08:34:28.839Z</time></trkpt><trkpt lat="45.48529" lon="10.4707717"><ele>177.5</ele><time>2026-03-28T08:34:29.838Z</time></trkpt><trkpt lat="45.4852683" lon="10.4706083"><ele>176.25</ele><time>2026-03-28T08:34:30.838Z</time></trkpt><trkpt lat="45.4852433" lon="10.47044"><ele>175.0</ele><time>2026-03-28T08:34:31.838Z</time></trkpt><trkpt lat="45.485215" lon="10.4702833"><ele>174.4</ele><time>2026-03-28T08:34:32.838Z</time></trkpt><trkpt lat="45.4851883" lon="10.47013"><ele>173.8</ele><time>2026-03-28T08:34:33.839Z</time></trkpt><trkpt lat="45.4851783" lon="10.4699717"><ele>173.2</ele><time>2026-03-28T08:34:34.839Z</time></trkpt><trkpt lat="45.485155" lon="10.469825"><ele>172.6</ele><time>2026-03-28T08:34:35.838Z</time></trkpt><trkpt lat="45.4851333" lon="10.4696917"><ele>172.0</ele><time>2026-03-28T08:34:36.839Z</time></trkpt><trkpt lat="45.4851217" lon="10.469555"><ele>171.75</ele><time>2026-03-28T08:34:37.839Z</time></trkpt><trkpt lat="45.4851217" lon="10.4694033"><ele>171.5</ele><time>2026-03-28T08:34:38.838Z</time></trkpt><trkpt lat="45.4851283" lon="10.4692317"><ele>171.25</ele><time>2026-03-28T08:34:39.838Z</time></trkpt><trkpt lat="45.4851317" lon="10.4690417"><ele>171.0</ele><time>2026-03-28T08:34:40.838Z</time></trkpt><trkpt lat="45.4851317" lon="10.4688383"><ele>170.66666666666666</ele><time>2026-03-28T08:34:41.838Z</time></trkpt><trkpt lat="45.4851167" lon="10.4686267"><ele>170.33333333333331</ele><time>2026-03-28T08:34:42.839Z</time></trkpt><trkpt lat="45.4851017" lon="10.4684133"><ele>170.0</ele><time>2026-03-28T08:34:43.838Z</time></trkpt><trkpt lat="45.4850867" lon="10.468195"><ele>170.0</ele><time>2026-03-28T08:34:44.838Z</time></trkpt><trkpt lat="45.4850717" lon="10.4679783"><ele>170.0</ele><time>2026-03-28T08:34:45.838Z</time></trkpt><trkpt lat="45.485055" lon="10.4677583"><ele>170.0</ele><time>2026-03-28T08:34:46.839Z</time></trkpt><trkpt lat="45.4850367" lon="10.4675417"><ele>169.75</ele><time>2026-03-28T08:34:47.838Z</time></trkpt><trkpt lat="45.4850167" lon="10.46733"><ele>169.5</ele><time>2026-03-28T08:34:48.839Z</time></trkpt><trkpt lat="45.48499" lon="10.4671233"><ele>169.25</ele><time>2026-03-28T08:34:49.839Z</time></trkpt><trkpt lat="45.4849567" lon="10.4669117"><ele>169.0</ele><time>2026-03-28T08:34:50.839Z</time></trkpt><trkpt lat="45.4849317" lon="10.466685"><ele>169.0</ele><time>2026-03-28T08:34:51.839Z</time></trkpt><trkpt lat="45.4849033" lon="10.46646"><ele>169.0</ele><time>2026-03-28T08:34:52.838Z</time></trkpt><trkpt lat="45.4848733" lon="10.4662267"><ele>169.0</ele><time>2026-03-28T08:34:53.839Z</time></trkpt><trkpt lat="45.4848467" lon="10.465995"><ele>168.33333333333334</ele><time>2026-03-28T08:34:54.839Z</time></trkpt><trkpt lat="45.48482" lon="10.465755"><ele>167.66666666666666</ele><time>2026-03-28T08:34:55.838Z</time></trkpt><trkpt lat="45.4847933" lon="10.46552"><ele>167.0</ele><time>2026-03-28T08:34:56.838Z</time></trkpt><trkpt lat="45.48476" lon="10.4652983"><ele>166.66666666666666</ele><time>2026-03-28T08:34:57.839Z</time></trkpt><trkpt lat="45.4847367" lon="10.4650917"><ele>166.33333333333334</ele><time>2026-03-28T08:34:58.839Z</time></trkpt><trkpt lat="45.484715" lon="10.4648717"><ele>166.0</ele><time>2026-03-28T08:34:59.838Z</time></trkpt><trkpt lat="45.4846967" lon="10.464645"><ele>165.66666666666669</ele><time>2026-03-28T08:35:00.838Z</time></trkpt><trkpt lat="45.4846717" lon="10.4644183"><ele>165.33333333333334</ele><time>2026-03-28T08:35:01.838Z</time></trkpt><trkpt lat="45.4846467" lon="10.4641883"><ele>165.0</ele><time>2026-03-28T08:35:02.839Z</time></trkpt><trkpt lat="45.4846283" lon="10.4639767"><ele>165.0</ele><time>2026-03-28T08:35:03.838Z</time></trkpt><trkpt lat="45.4846117" lon="10.4637633"><ele>165.0</ele><time>2026-03-28T08:35:04.838Z</time></trkpt><trkpt lat="45.4845983" lon="10.4635617"><ele>165.0</ele><time>2026-03-28T08:35:05.839Z</time></trkpt><trkpt lat="45.48459" lon="10.4633683"><ele>165.0</ele><time>2026-03-28T08:35:06.838Z</time></trkpt><trkpt lat="45.4845917" lon="10.4631733"><ele>165.0</ele><time>2026-03-28T08:35:07.839Z</time></trkpt><trkpt lat="45.4845983" lon="10.463005"><ele>165.0</ele><time>2026-03-28T08:35:08.837Z</time></trkpt><trkpt lat="45.484605" lon="10.4628333"><ele>165.0</ele><time>2026-03-28T08:35:09.838Z</time></trkpt><trkpt lat="45.484615" lon="10.4626583"><ele>165.0</ele><time>2026-03-28T08:35:10.837Z</time></trkpt><trkpt lat="45.4846217" lon="10.4624817"><ele>164.75</ele><time>2026-03-28T08:35:11.837Z</time></trkpt><trkpt lat="45.4846333" lon="10.4623083"><ele>164.5</ele><time>2026-03-28T08:35:12.838Z</time></trkpt><trkpt lat="45.4846567" lon="10.4621383"><ele>164.25</ele><time>2026-03-28T08:35:13.837Z</time></trkpt><trkpt lat="45.484665" lon="10.4619667"><ele>164.0</ele><time>2026-03-28T08:35:14.838Z</time></trkpt><trkpt lat="45.484665" lon="10.4617883"><ele>163.75</ele><time>2026-03-28T08:35:15.837Z</time></trkpt><trkpt lat="45.4846717" lon="10.461585"><ele>163.5</ele><time>2026-03-28T08:35:16.838Z</time></trkpt><trkpt lat="45.4846683" lon="10.46138"><ele>163.25</ele><time>2026-03-28T08:35:17.838Z</time></trkpt><trkpt lat="45.4846683" lon="10.46117"><ele>163.0</ele><time>2026-03-28T08:35:18.837Z</time></trkpt><trkpt lat="45.4846683" lon="10.4609633"><ele>162.75</ele><time>2026-03-28T08:35:19.837Z</time></trkpt><trkpt lat="45.484665" lon="10.46077"><ele>162.5</ele><time>2026-03-28T08:35:20.838Z</time></trkpt><trkpt lat="45.48466" lon="10.46059"><ele>162.25</ele><time>2026-03-28T08:35:21.838Z</time></trkpt><trkpt lat="45.4846583" lon="10.4604167"><ele>162.0</ele><time>2026-03-28T08:35:22.837Z</time></trkpt><trkpt lat="45.4846567" lon="10.460245"><ele>162.0</ele><time>2026-03-28T08:35:23.838Z</time></trkpt><trkpt lat="45.4846533" lon="10.460075"><ele>162.0</ele><time>2026-03-28T08:35:24.838Z</time></trkpt><trkpt lat="45.48465" lon="10.4599133"><ele>162.0</ele><time>2026-03-28T08:35:25.837Z</time></trkpt><trkpt lat="45.484645" lon="10.4597767"><ele>162.0</ele><time>2026-03-28T08:35:26.838Z</time></trkpt><trkpt lat="45.484635" lon="10.4596567"><ele>162.0</ele><time>2026-03-28T08:35:27.838Z</time></trkpt><trkpt lat="45.48463" lon="10.459555"><ele>161.83333333333334</ele><time>2026-03-28T08:35:28.837Z</time></trkpt><trkpt lat="45.4846267" lon="10.459465"><ele>161.66666666666666</ele><time>2026-03-28T08:35:29.837Z</time></trkpt><trkpt lat="45.4846233" lon="10.459335"><ele>161.5</ele><time>2026-03-28T08:35:31.838Z</time></trkpt><trkpt lat="45.4846167" lon="10.459245"><ele>161.33333333333331</ele><time>2026-03-28T08:35:33.837Z</time></trkpt><trkpt lat="45.4846167" lon="10.4591467"><ele>161.16666666666666</ele><time>2026-03-28T08:35:36.838Z</time></trkpt><trkpt lat="45.4846483" lon="10.459055"><ele>161.0</ele><time>2026-03-28T08:35:39.838Z</time></trkpt><trkpt lat="45.4846067" lon="10.4591967"><ele>161.0</ele><time>2026-03-28T08:35:46.838Z</time></trkpt><trkpt lat="45.48462" lon="10.4593917"><ele>161.0</ele><time>2026-03-28T08:35:48.838Z</time></trkpt><trkpt lat="45.4846283" lon="10.4594983"><ele>161.0</ele><time>2026-03-28T08:35:49.838Z</time></trkpt><trkpt lat="45.4846317" lon="10.4596033"><ele>161.0</ele><time>2026-03-28T08:35:50.837Z</time></trkpt><trkpt lat="45.4846367" lon="10.4597067"><ele>161.0</ele><time>2026-03-28T08:35:51.837Z</time></trkpt><trkpt lat="45.48464" lon="10.45981"><ele>161.0</ele><time>2026-03-28T08:35:52.837Z</time></trkpt><trkpt lat="45.4846467" lon="10.45992"><ele>161.16666666666666</ele><time>2026-03-28T08:35:53.838Z</time></trkpt><trkpt lat="45.484655" lon="10.4600283"><ele>161.33333333333331</ele><time>2026-03-28T08:35:54.838Z</time></trkpt><trkpt lat="45.484655" lon="10.460135"><ele>161.5</ele><time>2026-03-28T08:35:55.837Z</time></trkpt><trkpt lat="45.4846567" lon="10.4602367"><ele>161.66666666666666</ele><time>2026-03-28T08:35:56.837Z</time></trkpt><trkpt lat="45.48466" lon="10.4603267"><ele>161.83333333333334</ele><time>2026-03-28T08:35:57.837Z</time></trkpt><trkpt lat="45.4846617" lon="10.46049"><ele>162.0</ele><time>2026-03-28T08:35:59.838Z</time></trkpt><trkpt lat="45.48466" lon="10.4606567"><ele>162.0</ele><time>2026-03-28T08:36:01.837Z</time></trkpt><trkpt lat="45.48466" lon="10.46083"><ele>162.0</ele><time>2026-03-28T08:36:03.838Z</time></trkpt><trkpt lat="45.484665" lon="10.4609267"><ele>162.0</ele><time>2026-03-28T08:36:04.837Z</time></trkpt><trkpt lat="45.484665" lon="10.46102"><ele>162.0</ele><time>2026-03-28T08:36:05.838Z</time></trkpt><trkpt lat="45.4846667" lon="10.461125"><ele>162.0</ele><time>2026-03-28T08:36:06.838Z</time></trkpt><trkpt lat="45.484665" lon="10.4612283"><ele>162.0</ele><time>2026-03-28T08:36:07.837Z</time></trkpt><trkpt lat="45.484665" lon="10.461345"><ele>162.16666666666666</ele><time>2026-03-28T08:36:08.837Z</time></trkpt><trkpt lat="45.484665" lon="10.4614617"><ele>162.33333333333334</ele><time>2026-03-28T08:36:09.837Z</time></trkpt><trkpt lat="45.484665" lon="10.4615783"><ele>162.5</ele><time>2026-03-28T08:36:10.837Z</time></trkpt><trkpt lat="45.4846633" lon="10.4617"><ele>162.66666666666669</ele><time>2026-03-28T08:36:11.838Z</time></trkpt><trkpt lat="45.4846617" lon="10.4618233"><ele>162.83333333333334</ele><time>2026-03-28T08:36:12.838Z</time></trkpt><trkpt lat="45.4846567" lon="10.461945"><ele>163.0</ele><time>2026-03-28T08:36:13.838Z</time></trkpt><trkpt lat="45.4846483" lon="10.4620733"><ele>163.14285714285714</ele><time>2026-03-28T08:36:14.837Z</time></trkpt><trkpt lat="45.4846417" lon="10.4621917"><ele>163.28571428571428</ele><time>2026-03-28T08:36:15.838Z</time></trkpt><trkpt lat="45.484635" lon="10.4622983"><ele>163.42857142857142</ele><time>2026-03-28T08:36:16.837Z</time></trkpt><trkpt lat="45.484625" lon="10.4624017"><ele>163.57142857142856</ele><time>2026-03-28T08:36:17.837Z</time></trkpt><trkpt lat="45.48462" lon="10.4625"><ele>163.71428571428572</ele><time>2026-03-28T08:36:18.838Z</time></trkpt><trkpt lat="45.4846133" lon="10.4625967"><ele>163.85714285714283</ele><time>2026-03-28T08:36:19.837Z</time></trkpt><trkpt lat="45.48461" lon="10.4627"><ele>164.0</ele><time>2026-03-28T08:36:20.837Z</time></trkpt><trkpt lat="45.48461" lon="10.4628067"><ele>164.0</ele><time>2026-03-28T08:36:21.837Z</time></trkpt><trkpt lat="45.484605" lon="10.4629133"><ele>164.0</ele><time>2026-03-28T08:36:22.838Z</time></trkpt><trkpt lat="45.4845967" lon="10.463055"><ele>164.0</ele><time>2026-03-28T08:36:24.837Z</time></trkpt><trkpt lat="45.484565" lon="10.4631483"><ele>164.0</ele><time>2026-03-28T08:36:27.837Z</time></trkpt><trkpt lat="45.4844833" lon="10.4631067"><ele>164.0</ele><time>2026-03-28T08:36:32.838Z</time></trkpt><trkpt lat="45.4844333" lon="10.4630067"><ele>164.0</ele><time>2026-03-28T08:36:49.838Z</time></trkpt><trkpt lat="45.4843917" lon="10.4628917"><ele>163.75</ele><time>2026-03-28T08:36:50.837Z</time></trkpt><trkpt lat="45.484345" lon="10.4627533"><ele>163.5</ele><time>2026-03-28T08:36:51.837Z</time></trkpt><trkpt lat="45.4842983" lon="10.4626033"><ele>163.25</ele><time>2026-03-28T08:36:52.838Z</time></trkpt><trkpt lat="45.4842417" lon="10.4624583"><ele>163.0</ele><time>2026-03-28T08:36:53.837Z</time></trkpt><trkpt lat="45.4841833" lon="10.4623017"><ele>163.0</ele><time>2026-03-28T08:36:54.838Z</time></trkpt><trkpt lat="45.4841183" lon="10.4621567"><ele>163.0</ele><time>2026-03-28T08:36:55.838Z</time></trkpt><trkpt lat="45.4840617" lon="10.4620317"><ele>163.0</ele><time>2026-03-28T08:36:56.837Z</time></trkpt><trkpt lat="45.4840133" lon="10.4619217"><ele>163.0</ele><time>2026-03-28T08:36:57.838Z</time></trkpt><trkpt lat="45.4839617" lon="10.4618233"><ele>163.0</ele><time>2026-03-28T08:36:58.837Z</time></trkpt><trkpt lat="45.48393" lon="10.4617383"><ele>163.0</ele><time>2026-03-28T08:36:59.837Z</time></trkpt><trkpt lat="45.4839233" lon="10.4616367"><ele>163.0</ele><time>2026-03-28T08:37:00.838Z</time></trkpt><trkpt lat="45.4839283" lon="10.4614967"><ele>163.0</ele><time>2026-03-28T08:37:01.837Z</time></trkpt><trkpt lat="45.4839383" lon="10.4613067"><ele>163.0</ele><time>2026-03-28T08:37:02.838Z</time></trkpt><trkpt lat="45.4839467" lon="10.4611083"><ele>163.0</ele><time>2026-03-28T08:37:03.837Z</time></trkpt><trkpt lat="45.4839467" lon="10.4609017"><ele>163.0</ele><time>2026-03-28T08:37:04.838Z</time></trkpt><trkpt lat="45.4839433" lon="10.4606917"><ele>163.0</ele><time>2026-03-28T08:37:05.838Z</time></trkpt><trkpt lat="45.48393" lon="10.4604883"><ele>163.0</ele><time>2026-03-28T08:37:06.837Z</time></trkpt><trkpt lat="45.4839117" lon="10.4602933"><ele>163.0</ele><time>2026-03-28T08:37:07.838Z</time></trkpt><trkpt lat="45.4838867" lon="10.4601083"><ele>162.75</ele><time>2026-03-28T08:37:08.838Z</time></trkpt><trkpt lat="45.4838567" lon="10.4599117"><ele>162.5</ele><time>2026-03-28T08:37:09.837Z</time></trkpt><trkpt lat="45.4838217" lon="10.459725"><ele>162.25</ele><time>2026-03-28T08:37:10.837Z</time></trkpt><trkpt lat="45.4837983" lon="10.4595633"><ele>162.0</ele><time>2026-03-28T08:37:11.838Z</time></trkpt><trkpt lat="45.4837883" lon="10.4594283"><ele>161.8</ele><time>2026-03-28T08:37:12.837Z</time></trkpt><trkpt lat="45.4837967" lon="10.4593117"><ele>161.6</ele><time>2026-03-28T08:37:13.838Z</time></trkpt><trkpt lat="45.4838217" lon="10.4592117"><ele>161.4</ele><time>2026-03-28T08:37:14.838Z</time></trkpt><trkpt lat="45.4838817" lon="10.4591067"><ele>161.20000000000002</ele><time>2026-03-28T08:37:15.837Z</time></trkpt><trkpt lat="45.4839617" lon="10.4589917"><ele>161.0</ele><time>2026-03-28T08:37:16.838Z</time></trkpt><trkpt lat="45.48406" lon="10.45885"><ele>160.25</ele><time>2026-03-28T08:37:17.837Z</time></trkpt><trkpt lat="45.4841583" lon="10.45869"><ele>159.5</ele><time>2026-03-28T08:37:18.837Z</time></trkpt><trkpt lat="45.4842617" lon="10.4585417"><ele>158.75</ele><time>2026-03-28T08:37:19.838Z</time></trkpt><trkpt lat="45.4843633" lon="10.4583983"><ele>158.0</ele><time>2026-03-28T08:37:20.838Z</time></trkpt><trkpt lat="45.4844517" lon="10.45826"><ele>158.0</ele><time>2026-03-28T08:37:21.837Z</time></trkpt><trkpt lat="45.4845117" lon="10.4581267"><ele>158.0</ele><time>2026-03-28T08:37:22.837Z</time></trkpt><trkpt lat="45.48455" lon="10.458005"><ele>158.0</ele><time>2026-03-28T08:37:23.838Z</time></trkpt><trkpt lat="45.484565" lon="10.4578717"><ele>158.0</ele><time>2026-03-28T08:37:24.837Z</time></trkpt><trkpt lat="45.484565" lon="10.4576967"><ele>158.0</ele><time>2026-03-28T08:37:25.837Z</time></trkpt><trkpt lat="45.4845633" lon="10.4575"><ele>158.0</ele><time>2026-03-28T08:37:26.837Z</time></trkpt><trkpt lat="45.4845633" lon="10.4572867"><ele>158.0</ele><time>2026-03-28T08:37:27.837Z</time></trkpt><trkpt lat="45.4845667" lon="10.4570533"><ele>158.0</ele><time>2026-03-28T08:37:28.838Z</time></trkpt><trkpt lat="45.48457" lon="10.4568233"><ele>158.0</ele><time>2026-03-28T08:37:29.837Z</time></trkpt><trkpt lat="45.4845767" lon="10.4566133"><ele>158.0</ele><time>2026-03-28T08:37:30.837Z</time></trkpt><trkpt lat="45.484575" lon="10.4564033"><ele>158.0</ele><time>2026-03-28T08:37:31.838Z</time></trkpt><trkpt lat="45.4845717" lon="10.4562017"><ele>158.0</ele><time>2026-03-28T08:37:32.837Z</time></trkpt><trkpt lat="45.4845733" lon="10.4560083"><ele>157.75</ele><time>2026-03-28T08:37:33.837Z</time></trkpt><trkpt lat="45.48457" lon="10.45582"><ele>157.5</ele><time>2026-03-28T08:37:34.838Z</time></trkpt><trkpt lat="45.4845683" lon="10.4556467"><ele>157.25</ele><time>2026-03-28T08:37:35.838Z</time></trkpt><trkpt lat="45.4845667" lon="10.4554683"><ele>157.0</ele><time>2026-03-28T08:37:36.837Z</time></trkpt><trkpt lat="45.4845633" lon="10.45528"><ele>156.75</ele><time>2026-03-28T08:37:37.837Z</time></trkpt><trkpt lat="45.48456" lon="10.4550883"><ele>156.5</ele><time>2026-03-28T08:37:38.838Z</time></trkpt><trkpt lat="45.4845617" lon="10.4549017"><ele>156.25</ele><time>2026-03-28T08:37:39.837Z</time></trkpt><trkpt lat="45.4845633" lon="10.454725"><ele>156.0</ele><time>2026-03-28T08:37:40.838Z</time></trkpt><trkpt lat="45.4845633" lon="10.4545633"><ele>155.83333333333334</ele><time>2026-03-28T08:37:41.837Z</time></trkpt><trkpt lat="45.4845667" lon="10.4544167"><ele>155.66666666666666</ele><time>2026-03-28T08:37:42.837Z</time></trkpt><trkpt lat="45.4845717" lon="10.4542967"><ele>155.5</ele><time>2026-03-28T08:37:43.837Z</time></trkpt><trkpt lat="45.4845783" lon="10.4541833"><ele>155.33333333333331</ele><time>2026-03-28T08:37:44.838Z</time></trkpt><trkpt lat="45.4845833" lon="10.4540833"><ele>155.16666666666666</ele><time>2026-03-28T08:37:45.837Z</time></trkpt><trkpt lat="45.48454" lon="10.4539567"><ele>155.0</ele><time>2026-03-28T08:37:47.837Z</time></trkpt><trkpt lat="45.4844467" lon="10.453955"><ele>155.0</ele><time>2026-03-28T08:37:50.838Z</time></trkpt><trkpt lat="45.4843683" lon="10.4539667"><ele>155.0</ele><time>2026-03-28T08:37:52.837Z</time></trkpt><trkpt lat="45.4843033" lon="10.45396"><ele>155.0</ele><time>2026-03-28T08:37:53.838Z</time></trkpt><trkpt lat="45.4842233" lon="10.4539417"><ele>155.0</ele><time>2026-03-28T08:37:54.837Z</time></trkpt><trkpt lat="45.4841367" lon="10.45392"><ele>155.0</ele><time>2026-03-28T08:37:55.838Z</time></trkpt><trkpt lat="45.4840367" lon="10.4539017"><ele>155.0</ele><time>2026-03-28T08:37:56.837Z</time></trkpt><trkpt lat="45.4839183" lon="10.45388"><ele>155.0</ele><time>2026-03-28T08:37:57.838Z</time></trkpt><trkpt lat="45.4837917" lon="10.4538517"><ele>155.0</ele><time>2026-03-28T08:37:58.837Z</time></trkpt><trkpt lat="45.4836467" lon="10.4538333"><ele>155.0</ele><time>2026-03-28T08:37:59.837Z</time></trkpt><trkpt lat="45.4834967" lon="10.453815"><ele>155.0</ele><time>2026-03-28T08:38:00.838Z</time></trkpt><trkpt lat="45.4833483" lon="10.4537917"><ele>154.33333333333331</ele><time>2026-03-28T08:38:01.838Z</time></trkpt><trkpt lat="45.4831933" lon="10.4537683"><ele>153.66666666666666</ele><time>2026-03-28T08:38:02.837Z</time></trkpt><trkpt lat="45.48304" lon="10.45375"><ele>153.0</ele><time>2026-03-28T08:38:03.838Z</time></trkpt><trkpt lat="45.4828817" lon="10.4537283"><ele>152.66666666666666</ele><time>2026-03-28T08:38:04.837Z</time></trkpt><trkpt lat="45.4827167" lon="10.4537033"><ele>152.33333333333331</ele><time>2026-03-28T08:38:05.837Z</time></trkpt><trkpt lat="45.4825517" lon="10.45368"><ele>152.0</ele><time>2026-03-28T08:38:06.838Z</time></trkpt><trkpt lat="45.482395" lon="10.453645"><ele>152.0</ele><time>2026-03-28T08:38:07.837Z</time></trkpt><trkpt lat="45.48223" lon="10.4536167"><ele>152.0</ele><time>2026-03-28T08:38:08.838Z</time></trkpt><trkpt lat="45.4820683" lon="10.4535817"><ele>152.0</ele><time>2026-03-28T08:38:09.837Z</time></trkpt><trkpt lat="45.481905" lon="10.45356"><ele>152.0</ele><time>2026-03-28T08:38:10.838Z</time></trkpt><trkpt lat="45.4817533" lon="10.4535283"><ele>152.0</ele><time>2026-03-28T08:38:11.837Z</time></trkpt><trkpt lat="45.4815983" lon="10.4535067"><ele>152.0</ele><time>2026-03-28T08:38:12.838Z</time></trkpt><trkpt lat="45.4814333" lon="10.45349"><ele>152.0</ele><time>2026-03-28T08:38:13.838Z</time></trkpt><trkpt lat="45.4812667" lon="10.4534733"><ele>152.0</ele><time>2026-03-28T08:38:14.838Z</time></trkpt><trkpt lat="45.4811" lon="10.4534533"><ele>152.0</ele><time>2026-03-28T08:38:15.838Z</time></trkpt><trkpt lat="45.4809467" lon="10.4534317"><ele>152.0</ele><time>2026-03-28T08:38:16.837Z</time></trkpt><trkpt lat="45.4808017" lon="10.4534033"><ele>152.0</ele><time>2026-03-28T08:38:17.838Z</time></trkpt><trkpt lat="45.4806633" lon="10.4533817"><ele>152.0</ele><time>2026-03-28T08:38:18.837Z</time></trkpt><trkpt lat="45.4805217" lon="10.4533683"><ele>152.0</ele><time>2026-03-28T08:38:19.837Z</time></trkpt><trkpt lat="45.4804" lon="10.4533467"><ele>152.0</ele><time>2026-03-28T08:38:20.837Z</time></trkpt><trkpt lat="45.4802917" lon="10.4533283"><ele>152.0</ele><time>2026-03-28T08:38:21.837Z</time></trkpt><trkpt lat="45.48019" lon="10.4533167"><ele>152.0</ele><time>2026-03-28T08:38:22.837Z</time></trkpt><trkpt lat="45.4800967" lon="10.4533183"><ele>152.0</ele><time>2026-03-28T08:38:23.837Z</time></trkpt><trkpt lat="45.48001" lon="10.4533267"><ele>152.0</ele><time>2026-03-28T08:38:24.837Z</time></trkpt><trkpt lat="45.479925" lon="10.4533567"><ele>152.0</ele><time>2026-03-28T08:38:25.838Z</time></trkpt><trkpt lat="45.4798433" lon="10.4534067"><ele>152.0</ele><time>2026-03-28T08:38:26.837Z</time></trkpt><trkpt lat="45.479755" lon="10.4534717"><ele>152.0</ele><time>2026-03-28T08:38:27.838Z</time></trkpt><trkpt lat="45.4796717" lon="10.453545"><ele>152.0</ele><time>2026-03-28T08:38:28.838Z</time></trkpt><trkpt lat="45.479575" lon="10.4536283"><ele>152.0</ele><time>2026-03-28T08:38:29.837Z</time></trkpt><trkpt lat="45.47948" lon="10.453715"><ele>151.75</ele><time>2026-03-28T08:38:30.838Z</time></trkpt><trkpt lat="45.47938" lon="10.4538067"><ele>151.5</ele><time>2026-03-28T08:38:31.838Z</time></trkpt><trkpt lat="45.479275" lon="10.4539117"><ele>151.25</ele><time>2026-03-28T08:38:32.837Z</time></trkpt><trkpt lat="45.4791633" lon="10.4540267"><ele>151.0</ele><time>2026-03-28T08:38:33.837Z</time></trkpt><trkpt lat="45.4790383" lon="10.4541633"><ele>151.0</ele><time>2026-03-28T08:38:34.837Z</time></trkpt><trkpt lat="45.4789167" lon="10.4543117"><ele>151.0</ele><time>2026-03-28T08:38:35.837Z</time></trkpt><trkpt lat="45.4787883" lon="10.4544933"><ele>151.0</ele><time>2026-03-28T08:38:36.837Z</time></trkpt><trkpt lat="45.4786483" lon="10.4546783"><ele>151.0</ele><time>2026-03-28T08:38:37.838Z</time></trkpt><trkpt lat="45.4784933" lon="10.4548633"><ele>151.0</ele><time>2026-03-28T08:38:38.837Z</time></trkpt><trkpt lat="45.4783317" lon="10.4550683"><ele>151.0</ele><time>2026-03-28T08:38:39.838Z</time></trkpt><trkpt lat="45.4781733" lon="10.4552717"><ele>151.0</ele><time>2026-03-28T08:38:40.838Z</time></trkpt><trkpt lat="45.4780217" lon="10.455455"><ele>151.0</ele><time>2026-03-28T08:38:41.838Z</time></trkpt><trkpt lat="45.4778833" lon="10.4556217"><ele>151.0</ele><time>2026-03-28T08:38:42.837Z</time></trkpt><trkpt lat="45.4777617" lon="10.455755"><ele>151.6</ele><time>2026-03-28T08:38:43.838Z</time></trkpt><trkpt lat="45.4776617" lon="10.45588"><ele>152.2</ele><time>2026-03-28T08:38:44.837Z</time></trkpt><trkpt lat="45.47757" lon="10.4559783"><ele>152.8</ele><time>2026-03-28T08:38:45.837Z</time></trkpt><trkpt lat="45.4774983" lon="10.4560567"><ele>153.4</ele><time>2026-03-28T08:38:46.837Z</time></trkpt><trkpt lat="45.47745" lon="10.45612"><ele>154.0</ele><time>2026-03-28T08:38:47.838Z</time></trkpt><trkpt lat="45.4773783" lon="10.4562433"><ele>153.8</ele><time>2026-03-28T08:38:49.838Z</time></trkpt><trkpt lat="45.4773417" lon="10.45634"><ele>153.60000000000002</ele><time>2026-03-28T08:38:50.837Z</time></trkpt><trkpt lat="45.4773017" lon="10.45646"><ele>153.4</ele><time>2026-03-28T08:38:51.837Z</time></trkpt><trkpt lat="45.4772517" lon="10.4566233"><ele>153.20000000000002</ele><time>2026-03-28T08:38:52.838Z</time></trkpt><trkpt lat="45.4772117" lon="10.4568083"><ele>153.0</ele><time>2026-03-28T08:38:53.837Z</time></trkpt><trkpt lat="45.477175" lon="10.4570333"><ele>153.0</ele><time>2026-03-28T08:38:54.838Z</time></trkpt><trkpt lat="45.477145" lon="10.4572767"><ele>153.0</ele><time>2026-03-28T08:38:55.837Z</time></trkpt><trkpt lat="45.4771067" lon="10.4575333"><ele>153.0</ele><time>2026-03-28T08:38:56.837Z</time></trkpt><trkpt lat="45.4770583" lon="10.4577717"><ele>153.5</ele><time>2026-03-28T08:38:57.837Z</time></trkpt><trkpt lat="45.477005" lon="10.4579967"><ele>154.0</ele><time>2026-03-28T08:38:58.838Z</time></trkpt><trkpt lat="45.4769767" lon="10.4581933"><ele>154.5</ele><time>2026-03-28T08:38:59.837Z</time></trkpt><trkpt lat="45.4769483" lon="10.4583667"><ele>155.0</ele><time>2026-03-28T08:39:00.838Z</time></trkpt><trkpt lat="45.4769117" lon="10.4585217"><ele>155.0</ele><time>2026-03-28T08:39:01.838Z</time></trkpt><trkpt lat="45.47687" lon="10.4586817"><ele>155.0</ele><time>2026-03-28T08:39:02.837Z</time></trkpt><trkpt lat="45.47683" lon="10.45884"><ele>155.0</ele><time>2026-03-28T08:39:03.838Z</time></trkpt><trkpt lat="45.4768" lon="10.458985"><ele>155.0</ele><time>2026-03-28T08:39:04.838Z</time></trkpt><trkpt lat="45.47676" lon="10.4591"><ele>155.0</ele><time>2026-03-28T08:39:05.837Z</time></trkpt><trkpt lat="45.47673" lon="10.45921"><ele>155.0</ele><time>2026-03-28T08:39:06.837Z</time></trkpt><trkpt lat="45.4766967" lon="10.4592967"><ele>155.0</ele><time>2026-03-28T08:39:07.837Z</time></trkpt><trkpt lat="45.476655" lon="10.459375"><ele>155.0</ele><time>2026-03-28T08:39:08.837Z</time></trkpt><trkpt lat="45.4766" lon="10.459435"><ele>155.0</ele><time>2026-03-28T08:39:09.837Z</time></trkpt><trkpt lat="45.4765267" lon="10.4594667"><ele>155.0</ele><time>2026-03-28T08:39:10.837Z</time></trkpt><trkpt lat="45.47645" lon="10.4595"><ele>155.0</ele><time>2026-03-28T08:39:11.837Z</time></trkpt><trkpt lat="45.4763833" lon="10.4595467"><ele>155.0</ele><time>2026-03-28T08:39:12.837Z</time></trkpt><trkpt lat="45.4763083" lon="10.459585"><ele>155.0</ele><time>2026-03-28T08:39:14.837Z</time></trkpt><trkpt lat="45.4762417" lon="10.459635"><ele>155.0</ele><time>2026-03-28T08:39:17.837Z</time></trkpt><trkpt lat="45.4761317" lon="10.4597283"><ele>155.0</ele><time>2026-03-28T08:39:19.837Z</time></trkpt><trkpt lat="45.476055" lon="10.459795"><ele>155.0</ele><time>2026-03-28T08:39:20.838Z</time></trkpt><trkpt lat="45.475975" lon="10.4598767"><ele>155.0</ele><time>2026-03-28T08:39:21.837Z</time></trkpt><trkpt lat="45.4758767" lon="10.4599783"><ele>155.0</ele><time>2026-03-28T08:39:22.838Z</time></trkpt><trkpt lat="45.4757667" lon="10.46008"><ele>155.0</ele><time>2026-03-28T08:39:23.838Z</time></trkpt><trkpt lat="45.4756417" lon="10.460175"><ele>155.0</ele><time>2026-03-28T08:39:24.837Z</time></trkpt><trkpt lat="45.4755" lon="10.4602767"><ele>155.0</ele><time>2026-03-28T08:39:25.837Z</time></trkpt><trkpt lat="45.47535" lon="10.4603783"><ele>154.0</ele><time>2026-03-28T08:39:26.838Z</time></trkpt><trkpt lat="45.4752" lon="10.4604817"><ele>153.0</ele><time>2026-03-28T08:39:27.837Z</time></trkpt><trkpt lat="45.4750483" lon="10.460575"><ele>152.0</ele><time>2026-03-28T08:39:28.838Z</time></trkpt><trkpt lat="45.474895" lon="10.4606717"><ele>152.0</ele><time>2026-03-28T08:39:29.837Z</time></trkpt><trkpt lat="45.474755" lon="10.4607733"><ele>152.0</ele><time>2026-03-28T08:39:30.837Z</time></trkpt><trkpt lat="45.47462" lon="10.460885"><ele>152.0</ele><time>2026-03-28T08:39:31.838Z</time></trkpt><trkpt lat="45.474485" lon="10.4609967"><ele>152.66666666666666</ele><time>2026-03-28T08:39:32.838Z</time></trkpt><trkpt lat="45.474355" lon="10.4611167"><ele>153.33333333333334</ele><time>2026-03-28T08:39:33.837Z</time></trkpt><trkpt lat="45.4742233" lon="10.461245"><ele>154.0</ele><time>2026-03-28T08:39:34.838Z</time></trkpt><trkpt lat="45.4740883" lon="10.4613917"><ele>154.0</ele><time>2026-03-28T08:39:35.838Z</time></trkpt><trkpt lat="45.473965" lon="10.4615717"><ele>154.0</ele><time>2026-03-28T08:39:36.838Z</time></trkpt><trkpt lat="45.4738267" lon="10.4617433"><ele>154.0</ele><time>2026-03-28T08:39:37.837Z</time></trkpt><trkpt lat="45.4736583" lon="10.4619083"><ele>153.66666666666669</ele><time>2026-03-28T08:39:38.838Z</time></trkpt><trkpt lat="45.473485" lon="10.4620683"><ele>153.33333333333334</ele><time>2026-03-28T08:39:39.837Z</time></trkpt><trkpt lat="45.473305" lon="10.46222"><ele>153.0</ele><time>2026-03-28T08:39:40.837Z</time></trkpt><trkpt lat="45.4731267" lon="10.4623833"><ele>152.66666666666666</ele><time>2026-03-28T08:39:41.837Z</time></trkpt><trkpt lat="45.4729433" lon="10.462565"><ele>152.33333333333331</ele><time>2026-03-28T08:39:42.838Z</time></trkpt><trkpt lat="45.4727567" lon="10.4627417"><ele>152.0</ele><time>2026-03-28T08:39:43.837Z</time></trkpt><trkpt lat="45.4725817" lon="10.4629333"><ele>152.33333333333331</ele><time>2026-03-28T08:39:44.837Z</time></trkpt><trkpt lat="45.47241" lon="10.4631233"><ele>152.66666666666666</ele><time>2026-03-28T08:39:45.837Z</time></trkpt><trkpt lat="45.4722467" lon="10.463305"><ele>153.0</ele><time>2026-03-28T08:39:46.838Z</time></trkpt><trkpt lat="45.47209" lon="10.4634683"><ele>153.0</ele><time>2026-03-28T08:39:47.838Z</time></trkpt><trkpt lat="45.4719317" lon="10.463615"><ele>153.0</ele><time>2026-03-28T08:39:48.837Z</time></trkpt><trkpt lat="45.4717717" lon="10.46374"><ele>153.0</ele><time>2026-03-28T08:39:49.837Z</time></trkpt><trkpt lat="45.4716067" lon="10.4638317"><ele>153.0</ele><time>2026-03-28T08:39:50.838Z</time></trkpt><trkpt lat="45.4714417" lon="10.4639083"><ele>153.0</ele><time>2026-03-28T08:39:51.837Z</time></trkpt><trkpt lat="45.4712917" lon="10.4639783"><ele>153.0</ele><time>2026-03-28T08:39:52.838Z</time></trkpt><trkpt lat="45.47114" lon="10.4640933"><ele>152.66666666666666</ele><time>2026-03-28T08:39:53.837Z</time></trkpt><trkpt lat="45.4710067" lon="10.4642667"><ele>152.33333333333331</ele><time>2026-03-28T08:39:54.837Z</time></trkpt><trkpt lat="45.4708717" lon="10.4644833"><ele>152.0</ele><time>2026-03-28T08:39:55.838Z</time></trkpt><trkpt lat="45.470735" lon="10.4647033"><ele>152.0</ele><time>2026-03-28T08:39:56.837Z</time></trkpt><trkpt lat="45.4706083" lon="10.4649267"><ele>152.0</ele><time>2026-03-28T08:39:57.837Z</time></trkpt><trkpt lat="45.4704967" lon="10.465135"><ele>152.0</ele><time>2026-03-28T08:39:58.838Z</time></trkpt><trkpt lat="45.4703867" lon="10.4653183"><ele>152.0</ele><time>2026-03-28T08:39:59.838Z</time></trkpt><trkpt lat="45.4702667" lon="10.4654683"><ele>152.0</ele><time>2026-03-28T08:40:00.838Z</time></trkpt><trkpt lat="45.4701417" lon="10.465625"><ele>152.0</ele><time>2026-03-28T08:40:01.838Z</time></trkpt><trkpt lat="45.4700083" lon="10.4657617"><ele>152.0</ele><time>2026-03-28T08:40:02.838Z</time></trkpt><trkpt lat="45.4698833" lon="10.4659"><ele>152.0</ele><time>2026-03-28T08:40:03.837Z</time></trkpt><trkpt lat="45.4697867" lon="10.4660383"><ele>152.0</ele><time>2026-03-28T08:40:04.837Z</time></trkpt><trkpt lat="45.469725" lon="10.4661733"><ele>152.0</ele><time>2026-03-28T08:40:05.837Z</time></trkpt><trkpt lat="45.4696817" lon="10.4663317"><ele>152.5</ele><time>2026-03-28T08:40:06.837Z</time></trkpt><trkpt lat="45.4696383" lon="10.4665067"><ele>153.0</ele><time>2026-03-28T08:40:07.837Z</time></trkpt><trkpt lat="45.46959" lon="10.466705"><ele>153.5</ele><time>2026-03-28T08:40:08.837Z</time></trkpt><trkpt lat="45.4695467" lon="10.4669133"><ele>154.0</ele><time>2026-03-28T08:40:09.838Z</time></trkpt><trkpt lat="45.4695033" lon="10.4671217"><ele>154.0</ele><time>2026-03-28T08:40:10.837Z</time></trkpt><trkpt lat="45.469455" lon="10.4673217"><ele>154.0</ele><time>2026-03-28T08:40:11.837Z</time></trkpt><trkpt lat="45.469395" lon="10.4675133"><ele>154.0</ele><time>2026-03-28T08:40:12.838Z</time></trkpt><trkpt lat="45.4693183" lon="10.46768"><ele>154.0</ele><time>2026-03-28T08:40:13.837Z</time></trkpt><trkpt lat="45.4692217" lon="10.4678317"><ele>154.0</ele><time>2026-03-28T08:40:14.837Z</time></trkpt><trkpt lat="45.4691083" lon="10.4679533"><ele>154.0</ele><time>2026-03-28T08:40:15.838Z</time></trkpt><trkpt lat="45.4689833" lon="10.4680583"><ele>154.0</ele><time>2026-03-28T08:40:16.837Z</time></trkpt><trkpt lat="45.4688433" lon="10.4681367"><ele>154.0</ele><time>2026-03-28T08:40:17.837Z</time></trkpt><trkpt lat="45.4686983" lon="10.4682167"><ele>154.0</ele><time>2026-03-28T08:40:18.837Z</time></trkpt><trkpt lat="45.4685483" lon="10.4682883"><ele>154.0</ele><time>2026-03-28T08:40:19.837Z</time></trkpt><trkpt lat="45.468395" lon="10.46834"><ele>154.0</ele><time>2026-03-28T08:40:20.838Z</time></trkpt><trkpt lat="45.4682467" lon="10.4683817"><ele>154.0</ele><time>2026-03-28T08:40:21.837Z</time></trkpt><trkpt lat="45.4681183" lon="10.46841"><ele>154.0</ele><time>2026-03-28T08:40:22.838Z</time></trkpt><trkpt lat="45.4680133" lon="10.4684283"><ele>154.0</ele><time>2026-03-28T08:40:23.837Z</time></trkpt><trkpt lat="45.46794" lon="10.4684417"><ele>154.0</ele><time>2026-03-28T08:40:24.837Z</time></trkpt><trkpt lat="45.4678467" lon="10.4685033"><ele>154.0</ele><time>2026-03-28T08:40:26.837Z</time></trkpt><trkpt lat="45.4678183" lon="10.4685867"><ele>154.0</ele><time>2026-03-28T08:40:27.837Z</time></trkpt><trkpt lat="45.467805" lon="10.4687033"><ele>154.0</ele><time>2026-03-28T08:40:28.837Z</time></trkpt><trkpt lat="45.4677933" lon="10.4688467"><ele>154.0</ele><time>2026-03-28T08:40:29.838Z</time></trkpt><trkpt lat="45.46778" lon="10.469015"><ele>154.0</ele><time>2026-03-28T08:40:30.837Z</time></trkpt><trkpt lat="45.4677617" lon="10.4692017"><ele>154.0</ele><time>2026-03-28T08:40:31.838Z</time></trkpt><trkpt lat="45.46774" lon="10.4694067"><ele>153.33333333333334</ele><time>2026-03-28T08:40:32.838Z</time></trkpt><trkpt lat="45.467715" lon="10.4696333"><ele>152.66666666666666</ele><time>2026-03-28T08:40:33.837Z</time></trkpt><trkpt lat="45.4676833" lon="10.4698717"><ele>152.0</ele><time>2026-03-28T08:40:34.837Z</time></trkpt><trkpt lat="45.46764" lon="10.4701267"><ele>152.0</ele><time>2026-03-28T08:40:35.837Z</time></trkpt><trkpt lat="45.467585" lon="10.470395"><ele>152.0</ele><time>2026-03-28T08:40:36.838Z</time></trkpt><trkpt lat="45.4675267" lon="10.470665"><ele>152.0</ele><time>2026-03-28T08:40:37.837Z</time></trkpt><trkpt lat="45.4674583" lon="10.4709483"><ele>152.33333333333331</ele><time>2026-03-28T08:40:38.837Z</time></trkpt><trkpt lat="45.46741" lon="10.4712317"><ele>152.66666666666666</ele><time>2026-03-28T08:40:39.837Z</time></trkpt><trkpt lat="45.4673733" lon="10.471495"><ele>153.0</ele><time>2026-03-28T08:40:40.837Z</time></trkpt><trkpt lat="45.46734" lon="10.471725"><ele>153.20000000000002</ele><time>2026-03-28T08:40:41.837Z</time></trkpt><trkpt lat="45.467305" lon="10.4719033"><ele>153.4</ele><time>2026-03-28T08:40:42.838Z</time></trkpt><trkpt lat="45.46726" lon="10.4720267"><ele>153.60000000000002</ele><time>2026-03-28T08:40:43.837Z</time></trkpt><trkpt lat="45.4672183" lon="10.4721067"><ele>153.8</ele><time>2026-03-28T08:40:44.838Z</time></trkpt><trkpt lat="45.4671567" lon="10.4721333"><ele>154.0</ele><time>2026-03-28T08:40:45.838Z</time></trkpt><trkpt lat="45.46703" lon="10.472075"><ele>154.8</ele><time>2026-03-28T08:40:47.838Z</time></trkpt><trkpt lat="45.466955" lon="10.4720233"><ele>155.60000000000002</ele><time>2026-03-28T08:40:48.838Z</time></trkpt><trkpt lat="45.4668817" lon="10.47196"><ele>156.4</ele><time>2026-03-28T08:40:49.837Z</time></trkpt><trkpt lat="45.4667917" lon="10.4719217"><ele>157.20000000000002</ele><time>2026-03-28T08:40:50.837Z</time></trkpt><trkpt lat="45.466705" lon="10.4718817"><ele>158.0</ele><time>2026-03-28T08:40:51.838Z</time></trkpt><trkpt lat="45.4666117" lon="10.4718483"><ele>158.0</ele><time>2026-03-28T08:40:52.838Z</time></trkpt><trkpt lat="45.4665367" lon="10.4718317"><ele>158.0</ele><time>2026-03-28T08:40:53.838Z</time></trkpt><trkpt lat="45.4664733" lon="10.471845"><ele>158.0</ele><time>2026-03-28T08:40:54.837Z</time></trkpt><trkpt lat="45.466385" lon="10.471955"><ele>158.0</ele><time>2026-03-28T08:40:56.838Z</time></trkpt><trkpt lat="45.4663317" lon="10.472015"><ele>158.0</ele><time>2026-03-28T08:40:57.837Z</time></trkpt><trkpt lat="45.4662517" lon="10.4720517"><ele>158.0</ele><time>2026-03-28T08:40:58.837Z</time></trkpt><trkpt lat="45.466155" lon="10.4720883"><ele>158.0</ele><time>2026-03-28T08:40:59.837Z</time></trkpt><trkpt lat="45.4660567" lon="10.47213"><ele>158.0</ele><time>2026-03-28T08:41:00.837Z</time></trkpt><trkpt lat="45.4659533" lon="10.47218"><ele>158.0</ele><time>2026-03-28T08:41:01.838Z</time></trkpt><trkpt lat="45.4658483" lon="10.472235"><ele>158.0</ele><time>2026-03-28T08:41:02.837Z</time></trkpt><trkpt lat="45.465735" lon="10.4722917"><ele>158.0</ele><time>2026-03-28T08:41:03.838Z</time></trkpt><trkpt lat="45.465625" lon="10.47235"><ele>158.0</ele><time>2026-03-28T08:41:04.838Z</time></trkpt><trkpt lat="45.465515" lon="10.4724"><ele>158.0</ele><time>2026-03-28T08:41:05.838Z</time></trkpt><trkpt lat="45.4653983" lon="10.4724517"><ele>158.0</ele><time>2026-03-28T08:41:06.837Z</time></trkpt><trkpt lat="45.46527" lon="10.4724733"><ele>158.0</ele><time>2026-03-28T08:41:07.837Z</time></trkpt><trkpt lat="45.4651333" lon="10.4724933"><ele>158.0</ele><time>2026-03-28T08:41:08.837Z</time></trkpt><trkpt lat="45.464985" lon="10.4725033"><ele>158.0</ele><time>2026-03-28T08:41:09.838Z</time></trkpt><trkpt lat="45.4648417" lon="10.4724867"><ele>158.0</ele><time>2026-03-28T08:41:10.837Z</time></trkpt><trkpt lat="45.46469" lon="10.47246"><ele>158.0</ele><time>2026-03-28T08:41:11.837Z</time></trkpt><trkpt lat="45.4645383" lon="10.47244"><ele>158.25</ele><time>2026-03-28T08:41:12.838Z</time></trkpt><trkpt lat="45.4643867" lon="10.4724233"><ele>158.5</ele><time>2026-03-28T08:41:13.838Z</time></trkpt><trkpt lat="45.4642517" lon="10.4723967"><ele>158.75</ele><time>2026-03-28T08:41:14.837Z</time></trkpt><trkpt lat="45.46414" lon="10.4723917"><ele>159.0</ele><time>2026-03-28T08:41:15.837Z</time></trkpt><trkpt lat="45.4640517" lon="10.4723883"><ele>159.0</ele><time>2026-03-28T08:41:16.837Z</time></trkpt><trkpt lat="45.4639783" lon="10.4723833"><ele>159.0</ele><time>2026-03-28T08:41:17.837Z</time></trkpt><trkpt lat="45.4638917" lon="10.4723833"><ele>159.0</ele><time>2026-03-28T08:41:19.837Z</time></trkpt><trkpt lat="45.46384" lon="10.4725117"><ele>159.0</ele><time>2026-03-28T08:41:23.838Z</time></trkpt><trkpt lat="45.4638217" lon="10.4726267"><ele>159.0</ele><time>2026-03-28T08:41:24.838Z</time></trkpt><trkpt lat="45.4638067" lon="10.4728033"><ele>159.25</ele><time>2026-03-28T08:41:25.837Z</time></trkpt><trkpt lat="45.4637883" lon="10.4729967"><ele>159.5</ele><time>2026-03-28T08:41:26.837Z</time></trkpt><trkpt lat="45.463775" lon="10.4732033"><ele>159.75</ele><time>2026-03-28T08:41:27.837Z</time></trkpt><trkpt lat="45.46376" lon="10.47342"><ele>160.0</ele><time>2026-03-28T08:41:28.837Z</time></trkpt><trkpt lat="45.463745" lon="10.473645"><ele>160.66666666666669</ele><time>2026-03-28T08:41:29.838Z</time></trkpt><trkpt lat="45.4637283" lon="10.4738867"><ele>161.33333333333334</ele><time>2026-03-28T08:41:30.838Z</time></trkpt><trkpt lat="45.4637083" lon="10.4741283"><ele>162.0</ele><time>2026-03-28T08:41:31.837Z</time></trkpt><trkpt lat="45.46369" lon="10.474325"><ele>162.0</ele><time>2026-03-28T08:41:32.838Z</time></trkpt><trkpt lat="45.46368" lon="10.4744817"><ele>162.0</ele><time>2026-03-28T08:41:33.838Z</time></trkpt><trkpt lat="45.46367" lon="10.47459"><ele>162.0</ele><time>2026-03-28T08:41:34.838Z</time></trkpt><trkpt lat="45.463595" lon="10.4746683"><ele>162.0</ele><time>2026-03-28T08:41:36.838Z</time></trkpt><trkpt lat="45.4634783" lon="10.4746167"><ele>162.0</ele><time>2026-03-28T08:41:38.838Z</time></trkpt><trkpt lat="45.4634067" lon="10.4745333"><ele>162.0</ele><time>2026-03-28T08:41:39.837Z</time></trkpt><trkpt lat="45.4633217" lon="10.4744317"><ele>162.0</ele><time>2026-03-28T08:41:40.838Z</time></trkpt><trkpt lat="45.4632283" lon="10.474325"><ele>162.0</ele><time>2026-03-28T08:41:41.838Z</time></trkpt><trkpt lat="45.46313" lon="10.4742283"><ele>162.0</ele><time>2026-03-28T08:41:42.837Z</time></trkpt><trkpt lat="45.4630317" lon="10.474135"><ele>162.0</ele><time>2026-03-28T08:41:43.837Z</time></trkpt><trkpt lat="45.462945" lon="10.47406"><ele>162.0</ele><time>2026-03-28T08:41:44.837Z</time></trkpt><trkpt lat="45.46288" lon="10.473995"><ele>162.0</ele><time>2026-03-28T08:41:45.838Z</time></trkpt><trkpt lat="45.4627883" lon="10.4738983"><ele>162.0</ele><time>2026-03-28T08:41:47.837Z</time></trkpt><trkpt lat="45.462725" lon="10.4738283"><ele>162.0</ele><time>2026-03-28T08:42:00.837Z</time></trkpt><trkpt lat="45.4626483" lon="10.47377"><ele>162.0</ele><time>2026-03-28T08:42:02.838Z</time></trkpt><trkpt lat="45.4625283" lon="10.47383"><ele>162.0</ele><time>2026-03-28T08:42:04.838Z</time></trkpt><trkpt lat="45.462465" lon="10.4738683"><ele>162.0</ele><time>2026-03-28T08:42:05.838Z</time></trkpt><trkpt lat="45.4623583" lon="10.473985"><ele>162.0</ele><time>2026-03-28T08:42:07.838Z</time></trkpt><trkpt lat="45.4622867" lon="10.47408"><ele>162.0</ele><time>2026-03-28T08:42:08.837Z</time></trkpt><trkpt lat="45.462205" lon="10.474205"><ele>162.0</ele><time>2026-03-28T08:42:09.837Z</time></trkpt><trkpt lat="45.4621167" lon="10.4743267"><ele>162.0</ele><time>2026-03-28T08:42:10.838Z</time></trkpt><trkpt lat="45.462035" lon="10.47445"><ele>162.0</ele><time>2026-03-28T08:42:11.838Z</time></trkpt><trkpt lat="45.4619633" lon="10.4745617"><ele>162.0</ele><time>2026-03-28T08:42:12.838Z</time></trkpt><trkpt lat="45.4618983" lon="10.474665"><ele>162.0</ele><time>2026-03-28T08:42:13.837Z</time></trkpt><trkpt lat="45.46183" lon="10.47476"><ele>161.33333333333334</ele><time>2026-03-28T08:42:14.837Z</time></trkpt><trkpt lat="45.4617683" lon="10.4748517"><ele>160.66666666666666</ele><time>2026-03-28T08:42:15.838Z</time></trkpt><trkpt lat="45.461705" lon="10.4749467"><ele>160.0</ele><time>2026-03-28T08:42:16.837Z</time></trkpt><trkpt lat="45.46165" lon="10.475035"><ele>159.33333333333331</ele><time>2026-03-28T08:42:17.837Z</time></trkpt><trkpt lat="45.4615983" lon="10.4751133"><ele>158.66666666666666</ele><time>2026-03-28T08:42:18.838Z</time></trkpt><trkpt lat="45.46155" lon="10.475185"><ele>158.0</ele><time>2026-03-28T08:42:19.837Z</time></trkpt><trkpt lat="45.4614783" lon="10.475285"><ele>158.0</ele><time>2026-03-28T08:42:21.837Z</time></trkpt><trkpt lat="45.4614233" lon="10.4753533"><ele>158.0</ele><time>2026-03-28T08:42:23.838Z</time></trkpt><trkpt lat="45.4613467" lon="10.4754067"><ele>158.0</ele><time>2026-03-28T08:42:25.837Z</time></trkpt><trkpt lat="45.461235" lon="10.4753933"><ele>158.0</ele><time>2026-03-28T08:42:27.837Z</time></trkpt><trkpt lat="45.4611617" lon="10.4753317"><ele>158.0</ele><time>2026-03-28T08:42:28.837Z</time></trkpt><trkpt lat="45.46107" lon="10.47525"><ele>157.75</ele><time>2026-03-28T08:42:29.838Z</time></trkpt><trkpt lat="45.460965" lon="10.4751617"><ele>157.5</ele><time>2026-03-28T08:42:30.837Z</time></trkpt><trkpt lat="45.46085" lon="10.4750667"><ele>157.25</ele><time>2026-03-28T08:42:31.837Z</time></trkpt><trkpt lat="45.4607283" lon="10.4749683"><ele>157.0</ele><time>2026-03-28T08:42:32.837Z</time></trkpt><trkpt lat="45.4606117" lon="10.4748783"><ele>157.0</ele><time>2026-03-28T08:42:33.837Z</time></trkpt><trkpt lat="45.4605167" lon="10.474805"><ele>157.0</ele><time>2026-03-28T08:42:34.838Z</time></trkpt><trkpt lat="45.4604467" lon="10.47474"><ele>157.0</ele><time>2026-03-28T08:42:35.838Z</time></trkpt><trkpt lat="45.4603817" lon="10.4746917"><ele>157.0</ele><time>2026-03-28T08:42:36.838Z</time></trkpt><trkpt lat="45.4603267" lon="10.4746433"><ele>157.0</ele><time>2026-03-28T08:42:37.837Z</time></trkpt><trkpt lat="45.4602117" lon="10.4746667"><ele>157.0</ele><time>2026-03-28T08:42:39.838Z</time></trkpt><trkpt lat="45.4601683" lon="10.4747333"><ele>156.6</ele><time>2026-03-28T08:42:40.837Z</time></trkpt><trkpt lat="45.460125" lon="10.47483"><ele>156.2</ele><time>2026-03-28T08:42:41.838Z</time></trkpt><trkpt lat="45.4600783" lon="10.4749467"><ele>155.8</ele><time>2026-03-28T08:42:42.838Z</time></trkpt><trkpt lat="45.4600217" lon="10.475085"><ele>155.4</ele><time>2026-03-28T08:42:43.838Z</time></trkpt><trkpt lat="45.4599483" lon="10.475235"><ele>155.0</ele><time>2026-03-28T08:42:44.837Z</time></trkpt><trkpt lat="45.4598733" lon="10.4754067"><ele>155.0</ele><time>2026-03-28T08:42:45.838Z</time></trkpt><trkpt lat="45.4598" lon="10.4756033"><ele>155.0</ele><time>2026-03-28T08:42:46.838Z</time></trkpt><trkpt lat="45.459725" lon="10.47582"><ele>155.0</ele><time>2026-03-28T08:42:47.837Z</time></trkpt><trkpt lat="45.45965" lon="10.4760383"><ele>154.66666666666666</ele><time>2026-03-28T08:42:48.838Z</time></trkpt><trkpt lat="45.4595717" lon="10.4762617"><ele>154.33333333333334</ele><time>2026-03-28T08:42:49.837Z</time></trkpt><trkpt lat="45.4594917" lon="10.476475"><ele>154.0</ele><time>2026-03-28T08:42:50.837Z</time></trkpt><trkpt lat="45.4594033" lon="10.4766883"><ele>154.0</ele><time>2026-03-28T08:42:51.838Z</time></trkpt><trkpt lat="45.4593167" lon="10.4769067"><ele>154.0</ele><time>2026-03-28T08:42:52.837Z</time></trkpt><trkpt lat="45.4592183" lon="10.477115"><ele>154.0</ele><time>2026-03-28T08:42:53.838Z</time></trkpt><trkpt lat="45.4591283" lon="10.4773317"><ele>154.0</ele><time>2026-03-28T08:42:54.837Z</time></trkpt><trkpt lat="45.45904" lon="10.4775633"><ele>154.0</ele><time>2026-03-28T08:42:55.836Z</time></trkpt><trkpt lat="45.4589417" lon="10.4778067"><ele>154.0</ele><time>2026-03-28T08:42:56.837Z</time></trkpt><trkpt lat="45.45885" lon="10.4780517"><ele>154.66666666666669</ele><time>2026-03-28T08:42:57.836Z</time></trkpt><trkpt lat="45.4587617" lon="10.4782933"><ele>155.33333333333334</ele><time>2026-03-28T08:42:58.837Z</time></trkpt><trkpt lat="45.458695" lon="10.4785367"><ele>156.0</ele><time>2026-03-28T08:42:59.837Z</time></trkpt><trkpt lat="45.4586283" lon="10.47878"><ele>156.66666666666666</ele><time>2026-03-28T08:43:00.836Z</time></trkpt><trkpt lat="45.458565" lon="10.4790217"><ele>157.33333333333331</ele><time>2026-03-28T08:43:01.836Z</time></trkpt><trkpt lat="45.4585" lon="10.47926"><ele>158.0</ele><time>2026-03-28T08:43:02.837Z</time></trkpt><trkpt lat="45.45842" lon="10.47948"><ele>158.0</ele><time>2026-03-28T08:43:03.836Z</time></trkpt><trkpt lat="45.45835" lon="10.47969"><ele>158.0</ele><time>2026-03-28T08:43:04.837Z</time></trkpt><trkpt lat="45.4582533" lon="10.47987"><ele>158.0</ele><time>2026-03-28T08:43:05.837Z</time></trkpt><trkpt lat="45.45816" lon="10.4800333"><ele>158.0</ele><time>2026-03-28T08:43:06.836Z</time></trkpt><trkpt lat="45.458055" lon="10.4801767"><ele>158.0</ele><time>2026-03-28T08:43:07.836Z</time></trkpt><trkpt lat="45.4579467" lon="10.480315"><ele>158.0</ele><time>2026-03-28T08:43:08.837Z</time></trkpt><trkpt lat="45.45783" lon="10.4804583"><ele>158.0</ele><time>2026-03-28T08:43:09.836Z</time></trkpt><trkpt lat="45.4577233" lon="10.4805867"><ele>157.75</ele><time>2026-03-28T08:43:10.837Z</time></trkpt><trkpt lat="45.4576217" lon="10.480715"><ele>157.5</ele><time>2026-03-28T08:43:11.837Z</time></trkpt><trkpt lat="45.4575267" lon="10.4808517"><ele>157.25</ele><time>2026-03-28T08:43:12.837Z</time></trkpt><trkpt lat="45.457435" lon="10.4809667"><ele>157.0</ele><time>2026-03-28T08:43:13.836Z</time></trkpt><trkpt lat="45.457345" lon="10.481075"><ele>157.0</ele><time>2026-03-28T08:43:14.836Z</time></trkpt><trkpt lat="45.4572733" lon="10.481195"><ele>157.0</ele><time>2026-03-28T08:43:15.836Z</time></trkpt><trkpt lat="45.457225" lon="10.48134"><ele>157.0</ele><time>2026-03-28T08:43:16.837Z</time></trkpt><trkpt lat="45.4571917" lon="10.4815133"><ele>157.0</ele><time>2026-03-28T08:43:17.837Z</time></trkpt><trkpt lat="45.4571717" lon="10.4817083"><ele>157.66666666666669</ele><time>2026-03-28T08:43:18.837Z</time></trkpt><trkpt lat="45.4571583" lon="10.481915"><ele>158.33333333333334</ele><time>2026-03-28T08:43:19.836Z</time></trkpt><trkpt lat="45.4571483" lon="10.4821333"><ele>159.0</ele><time>2026-03-28T08:43:20.837Z</time></trkpt><trkpt lat="45.457135" lon="10.4823633"><ele>158.33333333333334</ele><time>2026-03-28T08:43:21.836Z</time></trkpt><trkpt lat="45.4571117" lon="10.48259"><ele>157.66666666666669</ele><time>2026-03-28T08:43:22.837Z</time></trkpt><trkpt lat="45.4570917" lon="10.4828267"><ele>157.0</ele><time>2026-03-28T08:43:23.836Z</time></trkpt><trkpt lat="45.4570733" lon="10.483055"><ele>157.0</ele><time>2026-03-28T08:43:24.837Z</time></trkpt><trkpt lat="45.45707" lon="10.483275"><ele>157.0</ele><time>2026-03-28T08:43:25.836Z</time></trkpt><trkpt lat="45.4570717" lon="10.4834817"><ele>157.0</ele><time>2026-03-28T08:43:26.837Z</time></trkpt><trkpt lat="45.4570783" lon="10.483685"><ele>157.0</ele><time>2026-03-28T08:43:27.836Z</time></trkpt><trkpt lat="45.4570883" lon="10.4838817"><ele>156.75</ele><time>2026-03-28T08:43:28.837Z</time></trkpt><trkpt lat="45.4571" lon="10.48406"><ele>156.5</ele><time>2026-03-28T08:43:29.836Z</time></trkpt><trkpt lat="45.457115" lon="10.4842267"><ele>156.25</ele><time>2026-03-28T08:43:30.837Z</time></trkpt><trkpt lat="45.45713" lon="10.48437"><ele>156.0</ele><time>2026-03-28T08:43:31.836Z</time></trkpt><trkpt lat="45.4571683" lon="10.4845183"><ele>159.5</ele><time>2026-03-28T08:43:32.837Z</time></trkpt><trkpt lat="45.4572133" lon="10.4846717"><ele>163.0</ele><time>2026-03-28T08:43:33.836Z</time></trkpt><trkpt lat="45.45727" lon="10.4848317"><ele>166.5</ele><time>2026-03-28T08:43:34.837Z</time></trkpt><trkpt lat="45.4573217" lon="10.4849867"><ele>170.0</ele><time>2026-03-28T08:43:35.837Z</time></trkpt><trkpt lat="45.4573417" lon="10.48513"><ele>170.0</ele><time>2026-03-28T08:43:36.836Z</time></trkpt><trkpt lat="45.4573483" lon="10.48529"><ele>170.0</ele><time>2026-03-28T08:43:37.836Z</time></trkpt><trkpt lat="45.4573433" lon="10.48544"><ele>170.0</ele><time>2026-03-28T08:43:38.836Z</time></trkpt><trkpt lat="45.4573517" lon="10.4855683"><ele>170.0</ele><time>2026-03-28T08:43:39.836Z</time></trkpt><trkpt lat="45.457365" lon="10.4856967"><ele>170.0</ele><time>2026-03-28T08:43:40.836Z</time></trkpt><trkpt lat="45.45738" lon="10.4858217"><ele>169.4</ele><time>2026-03-28T08:43:41.837Z</time></trkpt><trkpt lat="45.4574133" lon="10.4859467"><ele>168.8</ele><time>2026-03-28T08:43:42.836Z</time></trkpt><trkpt lat="45.4574633" lon="10.4860733"><ele>168.2</ele><time>2026-03-28T08:43:43.836Z</time></trkpt><trkpt lat="45.45752" lon="10.4861933"><ele>167.6</ele><time>2026-03-28T08:43:44.836Z</time></trkpt><trkpt lat="45.4575633" lon="10.486325"><ele>167.0</ele><time>2026-03-28T08:43:45.836Z</time></trkpt><trkpt lat="45.4576083" lon="10.4864383"><ele>166.16666666666666</ele><time>2026-03-28T08:43:46.836Z</time></trkpt><trkpt lat="45.45765" lon="10.48655"><ele>165.33333333333331</ele><time>2026-03-28T08:43:47.837Z</time></trkpt><trkpt lat="45.4576817" lon="10.48666"><ele>164.5</ele><time>2026-03-28T08:43:48.836Z</time></trkpt><trkpt lat="45.457705" lon="10.4867783"><ele>163.66666666666666</ele><time>2026-03-28T08:43:49.836Z</time></trkpt><trkpt lat="45.457715" lon="10.4869"><ele>162.83333333333334</ele><time>2026-03-28T08:43:50.837Z</time></trkpt><trkpt lat="45.4576967" lon="10.487025"><ele>162.0</ele><time>2026-03-28T08:43:51.836Z</time></trkpt><trkpt lat="45.45766" lon="10.4871433"><ele>160.75</ele><time>2026-03-28T08:43:52.836Z</time></trkpt><trkpt lat="45.4576217" lon="10.48729"><ele>159.5</ele><time>2026-03-28T08:43:53.836Z</time></trkpt><trkpt lat="45.4575983" lon="10.4874817"><ele>158.25</ele><time>2026-03-28T08:43:54.837Z</time></trkpt><trkpt lat="45.457605" lon="10.4876883"><ele>157.0</ele><time>2026-03-28T08:43:55.836Z</time></trkpt><trkpt lat="45.457635" lon="10.4878933"><ele>157.0</ele><time>2026-03-28T08:43:56.836Z</time></trkpt><trkpt lat="45.45769" lon="10.4880967"><ele>157.0</ele><time>2026-03-28T08:43:57.836Z</time></trkpt><trkpt lat="45.4577567" lon="10.4882867"><ele>157.0</ele><time>2026-03-28T08:43:58.837Z</time></trkpt><trkpt lat="45.4578267" lon="10.488475"><ele>157.0</ele><time>2026-03-28T08:43:59.836Z</time></trkpt><trkpt lat="45.4578967" lon="10.48865"><ele>157.0</ele><time>2026-03-28T08:44:00.836Z</time></trkpt><trkpt lat="45.457965" lon="10.4888017"><ele>157.0</ele><time>2026-03-28T08:44:01.837Z</time></trkpt><trkpt lat="45.4580233" lon="10.4889283"><ele>157.0</ele><time>2026-03-28T08:44:02.836Z</time></trkpt><trkpt lat="45.45807" lon="10.489035"><ele>157.66666666666669</ele><time>2026-03-28T08:44:03.836Z</time></trkpt><trkpt lat="45.4581017" lon="10.4891417"><ele>158.33333333333334</ele><time>2026-03-28T08:44:04.837Z</time></trkpt><trkpt lat="45.4581167" lon="10.48929"><ele>159.0</ele><time>2026-03-28T08:44:06.836Z</time></trkpt><trkpt lat="45.4581117" lon="10.48939"><ele>159.66666666666666</ele><time>2026-03-28T08:44:08.836Z</time></trkpt><trkpt lat="45.45805" lon="10.4894333"><ele>160.33333333333331</ele><time>2026-03-28T08:44:10.837Z</time></trkpt><trkpt lat="45.45799" lon="10.4894617"><ele>161.0</ele><time>2026-03-28T08:44:11.837Z</time></trkpt><trkpt lat="45.4579183" lon="10.4895033"><ele>161.0</ele><time>2026-03-28T08:44:12.836Z</time></trkpt><trkpt lat="45.4578483" lon="10.4895467"><ele>161.0</ele><time>2026-03-28T08:44:13.836Z</time></trkpt><trkpt lat="45.4577883" lon="10.4895883"><ele>161.0</ele><time>2026-03-28T08:44:14.836Z</time></trkpt><trkpt lat="45.4577317" lon="10.4896333"><ele>161.0</ele><time>2026-03-28T08:44:15.836Z</time></trkpt><trkpt lat="45.4576683" lon="10.48967"><ele>161.0</ele><time>2026-03-28T08:44:16.837Z</time></trkpt><trkpt lat="45.45761" lon="10.4897083"><ele>161.0</ele><time>2026-03-28T08:44:17.836Z</time></trkpt><trkpt lat="45.4575083" lon="10.489765"><ele>161.0</ele><time>2026-03-28T08:44:19.836Z</time></trkpt><trkpt lat="45.4574283" lon="10.4897817"><ele>161.0</ele><time>2026-03-28T08:44:21.837Z</time></trkpt><trkpt lat="45.4573417" lon="10.48973"><ele>161.0</ele><time>2026-03-28T08:44:23.836Z</time></trkpt><trkpt lat="45.4572883" lon="10.4896733"><ele>161.0</ele><time>2026-03-28T08:44:24.836Z</time></trkpt><trkpt lat="45.457235" lon="10.4895867"><ele>161.0</ele><time>2026-03-28T08:44:25.837Z</time></trkpt><trkpt lat="45.4571767" lon="10.4894867"><ele>161.0</ele><time>2026-03-28T08:44:26.836Z</time></trkpt><trkpt lat="45.4571067" lon="10.4893783"><ele>160.8</ele><time>2026-03-28T08:44:27.836Z</time></trkpt><trkpt lat="45.4570317" lon="10.4892633"><ele>160.60000000000002</ele><time>2026-03-28T08:44:28.837Z</time></trkpt><trkpt lat="45.456965" lon="10.4891467"><ele>160.4</ele><time>2026-03-28T08:44:29.836Z</time></trkpt><trkpt lat="45.4569" lon="10.4890217"><ele>160.2</ele><time>2026-03-28T08:44:30.836Z</time></trkpt><trkpt lat="45.4568433" lon="10.4889183"><ele>160.0</ele><time>2026-03-28T08:44:31.836Z</time></trkpt><trkpt lat="45.45681" lon="10.4888133"><ele>159.8</ele><time>2026-03-28T08:44:32.836Z</time></trkpt><trkpt lat="45.4567883" lon="10.4886983"><ele>159.6</ele><time>2026-03-28T08:44:33.837Z</time></trkpt><trkpt lat="45.4567833" lon="10.48857"><ele>159.4</ele><time>2026-03-28T08:44:34.837Z</time></trkpt><trkpt lat="45.45678" lon="10.4884367"><ele>159.2</ele><time>2026-03-28T08:44:35.836Z</time></trkpt><trkpt lat="45.4567783" lon="10.4882933"><ele>159.0</ele><time>2026-03-28T08:44:36.837Z</time></trkpt><trkpt lat="45.4567917" lon="10.488135"><ele>159.0</ele><time>2026-03-28T08:44:37.836Z</time></trkpt><trkpt lat="45.456805" lon="10.4879517"><ele>159.0</ele><time>2026-03-28T08:44:38.836Z</time></trkpt><trkpt lat="45.456815" lon="10.487775"><ele>159.0</ele><time>2026-03-28T08:44:39.837Z</time></trkpt><trkpt lat="45.4568283" lon="10.487585"><ele>159.0</ele><time>2026-03-28T08:44:40.837Z</time></trkpt><trkpt lat="45.4568383" lon="10.4873817"><ele>157.66666666666666</ele><time>2026-03-28T08:44:41.836Z</time></trkpt><trkpt lat="45.456845" lon="10.4871717"><ele>156.33333333333331</ele><time>2026-03-28T08:44:42.837Z</time></trkpt><trkpt lat="45.4568467" lon="10.4869533"><ele>155.0</ele><time>2026-03-28T08:44:43.836Z</time></trkpt><trkpt lat="45.4568483" lon="10.4867267"><ele>155.0</ele><time>2026-03-28T08:44:44.836Z</time></trkpt><trkpt lat="45.4568583" lon="10.4865033"><ele>155.0</ele><time>2026-03-28T08:44:45.837Z</time></trkpt><trkpt lat="45.456865" lon="10.486285"><ele>155.0</ele><time>2026-03-28T08:44:46.836Z</time></trkpt><trkpt lat="45.4568733" lon="10.48607"><ele>155.0</ele><time>2026-03-28T08:44:47.836Z</time></trkpt><trkpt lat="45.4568783" lon="10.4858617"><ele>155.0</ele><time>2026-03-28T08:44:48.836Z</time></trkpt><trkpt lat="45.45687" lon="10.4856567"><ele>155.0</ele><time>2026-03-28T08:44:49.836Z</time></trkpt><trkpt lat="45.4568633" lon="10.4854483"><ele>155.0</ele><time>2026-03-28T08:44:50.836Z</time></trkpt><trkpt lat="45.4568417" lon="10.485235"><ele>155.0</ele><time>2026-03-28T08:44:51.837Z</time></trkpt><trkpt lat="45.4568267" lon="10.4850167"><ele>155.0</ele><time>2026-03-28T08:44:52.836Z</time></trkpt><trkpt lat="45.4568033" lon="10.4848117"><ele>155.0</ele><time>2026-03-28T08:44:53.837Z</time></trkpt><trkpt lat="45.45679" lon="10.4846283"><ele>155.0</ele><time>2026-03-28T08:44:54.836Z</time></trkpt><trkpt lat="45.4567717" lon="10.4844567"><ele>155.2</ele><time>2026-03-28T08:44:55.836Z</time></trkpt><trkpt lat="45.4567483" lon="10.4843017"><ele>155.4</ele><time>2026-03-28T08:44:56.837Z</time></trkpt><trkpt lat="45.456715" lon="10.4841417"><ele>155.6</ele><time>2026-03-28T08:44:57.836Z</time></trkpt><trkpt lat="45.45668" lon="10.4840017"><ele>155.8</ele><time>2026-03-28T08:44:58.837Z</time></trkpt><trkpt lat="45.4566417" lon="10.4838817"><ele>156.0</ele><time>2026-03-28T08:44:59.837Z</time></trkpt><trkpt lat="45.4566033" lon="10.483765"><ele>156.2</ele><time>2026-03-28T08:45:00.836Z</time></trkpt><trkpt lat="45.4565567" lon="10.4836483"><ele>156.39999999999998</ele><time>2026-03-28T08:45:01.836Z</time></trkpt><trkpt lat="45.4565017" lon="10.4835267"><ele>156.6</ele><time>2026-03-28T08:45:02.836Z</time></trkpt><trkpt lat="45.4564467" lon="10.4834033"><ele>156.79999999999998</ele><time>2026-03-28T08:45:03.836Z</time></trkpt><trkpt lat="45.4563983" lon="10.4833"><ele>157.0</ele><time>2026-03-28T08:45:04.836Z</time></trkpt><trkpt lat="45.45636" lon="10.483225"><ele>157.0</ele><time>2026-03-28T08:45:05.837Z</time></trkpt><trkpt lat="45.4563083" lon="10.48313"><ele>157.0</ele><time>2026-03-28T08:45:07.837Z</time></trkpt><trkpt lat="45.4562483" lon="10.48306"><ele>157.0</ele><time>2026-03-28T08:45:09.837Z</time></trkpt><trkpt lat="45.4561833" lon="10.4829417"><ele>157.0</ele><time>2026-03-28T08:45:11.836Z</time></trkpt><trkpt lat="45.456145" lon="10.4828683"><ele>157.0</ele><time>2026-03-28T08:45:12.837Z</time></trkpt><trkpt lat="45.45607" lon="10.4827283"><ele>156.2</ele><time>2026-03-28T08:45:14.836Z</time></trkpt><trkpt lat="45.456015" lon="10.48267"><ele>155.39999999999998</ele><time>2026-03-28T08:45:15.837Z</time></trkpt><trkpt lat="45.4559517" lon="10.4825983"><ele>154.60000000000002</ele><time>2026-03-28T08:45:16.837Z</time></trkpt><trkpt lat="45.4558867" lon="10.482495"><ele>153.8</ele><time>2026-03-28T08:45:17.837Z</time></trkpt><trkpt lat="45.4558117" lon="10.4823917"><ele>153.0</ele><time>2026-03-28T08:45:18.836Z</time></trkpt><trkpt lat="45.4557367" lon="10.482275"><ele>153.0</ele><time>2026-03-28T08:45:19.837Z</time></trkpt><trkpt lat="45.45566" lon="10.48215"><ele>153.0</ele><time>2026-03-28T08:45:20.837Z</time></trkpt><trkpt lat="45.45558" lon="10.4820133"><ele>153.0</ele><time>2026-03-28T08:45:21.836Z</time></trkpt><trkpt lat="45.45548" lon="10.4818783"><ele>153.0</ele><time>2026-03-28T08:45:22.836Z</time></trkpt><trkpt lat="45.455365" lon="10.4817217"><ele>152.66666666666666</ele><time>2026-03-28T08:45:23.836Z</time></trkpt><trkpt lat="45.45524" lon="10.4815567"><ele>152.33333333333331</ele><time>2026-03-28T08:45:24.837Z</time></trkpt><trkpt lat="45.455095" lon="10.4813917"><ele>152.0</ele><time>2026-03-28T08:45:25.837Z</time></trkpt><trkpt lat="45.4549517" lon="10.4812167"><ele>152.0</ele><time>2026-03-28T08:45:26.837Z</time></trkpt><trkpt lat="45.4548083" lon="10.4810217"><ele>152.0</ele><time>2026-03-28T08:45:27.836Z</time></trkpt><trkpt lat="45.45467" lon="10.480815"><ele>152.0</ele><time>2026-03-28T08:45:28.836Z</time></trkpt><trkpt lat="45.4545467" lon="10.4805933"><ele>151.33333333333331</ele><time>2026-03-28T08:45:29.836Z</time></trkpt><trkpt lat="45.4544283" lon="10.48038"><ele>150.66666666666666</ele><time>2026-03-28T08:45:30.837Z</time></trkpt><trkpt lat="45.4543167" lon="10.48018"><ele>150.0</ele><time>2026-03-28T08:45:31.837Z</time></trkpt><trkpt lat="45.45421" lon="10.4799783"><ele>150.0</ele><time>2026-03-28T08:45:32.836Z</time></trkpt><trkpt lat="45.4541" lon="10.4797933"><ele>150.0</ele><time>2026-03-28T08:45:33.837Z</time></trkpt><trkpt lat="45.4540017" lon="10.4796067"><ele>150.0</ele><time>2026-03-28T08:45:34.837Z</time></trkpt><trkpt lat="45.4539117" lon="10.4794283"><ele>150.66666666666666</ele><time>2026-03-28T08:45:35.837Z</time></trkpt><trkpt lat="45.4538183" lon="10.479255"><ele>151.33333333333331</ele><time>2026-03-28T08:45:36.836Z</time></trkpt><trkpt lat="45.453725" lon="10.479085"><ele>152.0</ele><time>2026-03-28T08:45:37.837Z</time></trkpt><trkpt lat="45.4536417" lon="10.4789083"><ele>151.0</ele><time>2026-03-28T08:45:38.836Z</time></trkpt><trkpt lat="45.45355" lon="10.4787267"><ele>150.0</ele><time>2026-03-28T08:45:39.836Z</time></trkpt><trkpt lat="45.4534433" lon="10.4785317"><ele>149.0</ele><time>2026-03-28T08:45:40.837Z</time></trkpt><trkpt lat="45.4533433" lon="10.4783283"><ele>149.0</ele><time>2026-03-28T08:45:41.837Z</time></trkpt><trkpt lat="45.4532317" lon="10.4781133"><ele>149.0</ele><time>2026-03-28T08:45:42.837Z</time></trkpt><trkpt lat="45.4531117" lon="10.4778917"><ele>149.0</ele><time>2026-03-28T08:45:43.836Z</time></trkpt><trkpt lat="45.4529933" lon="10.4776783"><ele>149.0</ele><time>2026-03-28T08:45:44.836Z</time></trkpt><trkpt lat="45.4528833" lon="10.4774767"><ele>149.0</ele><time>2026-03-28T08:45:45.837Z</time></trkpt><trkpt lat="45.4527717" lon="10.4772733"><ele>149.0</ele><time>2026-03-28T08:45:46.837Z</time></trkpt><trkpt lat="45.45266" lon="10.4770633"><ele>149.0</ele><time>2026-03-28T08:45:47.836Z</time></trkpt><trkpt lat="45.4525383" lon="10.4768533"><ele>149.0</ele><time>2026-03-28T08:45:48.836Z</time></trkpt><trkpt lat="45.4524083" lon="10.4766517"><ele>149.0</ele><time>2026-03-28T08:45:49.837Z</time></trkpt><trkpt lat="45.4522733" lon="10.4764517"><ele>148.66666666666666</ele><time>2026-03-28T08:45:50.836Z</time></trkpt><trkpt lat="45.4521367" lon="10.4762433"><ele>148.33333333333334</ele><time>2026-03-28T08:45:51.837Z</time></trkpt><trkpt lat="45.4519883" lon="10.4760367"><ele>148.0</ele><time>2026-03-28T08:45:52.837Z</time></trkpt><trkpt lat="45.4518433" lon="10.4758283"><ele>146.66666666666669</ele><time>2026-03-28T08:45:53.837Z</time></trkpt><trkpt lat="45.4516883" lon="10.475615"><ele>145.33333333333334</ele><time>2026-03-28T08:45:54.837Z</time></trkpt><trkpt lat="45.451525" lon="10.4754167"><ele>144.0</ele><time>2026-03-28T08:45:55.837Z</time></trkpt><trkpt lat="45.4513633" lon="10.4752133"><ele>142.66666666666666</ele><time>2026-03-28T08:45:56.837Z</time></trkpt><trkpt lat="45.4512083" lon="10.475025"><ele>141.33333333333331</ele><time>2026-03-28T08:45:57.837Z</time></trkpt><trkpt lat="45.4510567" lon="10.474825"><ele>140.0</ele><time>2026-03-28T08:45:58.836Z</time></trkpt><trkpt lat="45.450915" lon="10.4746183"><ele>140.33333333333331</ele><time>2026-03-28T08:45:59.837Z</time></trkpt><trkpt lat="45.4507833" lon="10.4744033"><ele>140.66666666666666</ele><time>2026-03-28T08:46:00.837Z</time></trkpt><trkpt lat="45.4506533" lon="10.474185"><ele>141.0</ele><time>2026-03-28T08:46:01.837Z</time></trkpt><trkpt lat="45.4505267" lon="10.4739467"><ele>140.0</ele><time>2026-03-28T08:46:02.836Z</time></trkpt><trkpt lat="45.4504117" lon="10.4736967"><ele>139.0</ele><time>2026-03-28T08:46:03.837Z</time></trkpt><trkpt lat="45.450305" lon="10.4734333"><ele>138.0</ele><time>2026-03-28T08:46:04.837Z</time></trkpt><trkpt lat="45.45021" lon="10.47316"><ele>138.66666666666666</ele><time>2026-03-28T08:46:05.837Z</time></trkpt><trkpt lat="45.4501117" lon="10.47289"><ele>139.33333333333331</ele><time>2026-03-28T08:46:06.837Z</time></trkpt><trkpt lat="45.4500133" lon="10.4726233"><ele>140.0</ele><time>2026-03-28T08:46:07.836Z</time></trkpt><trkpt lat="45.4499083" lon="10.4723617"><ele>139.66666666666666</ele><time>2026-03-28T08:46:08.837Z</time></trkpt><trkpt lat="45.4498067" lon="10.472105"><ele>139.33333333333334</ele><time>2026-03-28T08:46:09.836Z</time></trkpt><trkpt lat="45.4497133" lon="10.47185"><ele>139.0</ele><time>2026-03-28T08:46:10.836Z</time></trkpt><trkpt lat="45.4496133" lon="10.4715883"><ele>139.0</ele><time>2026-03-28T08:46:11.836Z</time></trkpt><trkpt lat="45.4495217" lon="10.4713383"><ele>139.0</ele><time>2026-03-28T08:46:12.836Z</time></trkpt><trkpt lat="45.4494283" lon="10.4710783"><ele>139.0</ele><time>2026-03-28T08:46:13.836Z</time></trkpt><trkpt lat="45.4493417" lon="10.470825"><ele>139.0</ele><time>2026-03-28T08:46:14.836Z</time></trkpt><trkpt lat="45.44926" lon="10.4705983"><ele>139.0</ele><time>2026-03-28T08:46:15.836Z</time></trkpt><trkpt lat="45.449185" lon="10.4703717"><ele>139.0</ele><time>2026-03-28T08:46:16.836Z</time></trkpt><trkpt lat="45.4491133" lon="10.47017"><ele>139.0</ele><time>2026-03-28T08:46:17.837Z</time></trkpt><trkpt lat="45.4490417" lon="10.469975"><ele>139.0</ele><time>2026-03-28T08:46:18.836Z</time></trkpt><trkpt lat="45.4489717" lon="10.4697983"><ele>139.0</ele><time>2026-03-28T08:46:19.837Z</time></trkpt><trkpt lat="45.4489083" lon="10.4696283"><ele>139.0</ele><time>2026-03-28T08:46:20.837Z</time></trkpt><trkpt lat="45.4488517" lon="10.4694833"><ele>138.83333333333334</ele><time>2026-03-28T08:46:21.837Z</time></trkpt><trkpt lat="45.44881" lon="10.46936"><ele>138.66666666666669</ele><time>2026-03-28T08:46:22.836Z</time></trkpt><trkpt lat="45.44877" lon="10.4692583"><ele>138.5</ele><time>2026-03-28T08:46:23.836Z</time></trkpt><trkpt lat="45.448725" lon="10.4691683"><ele>138.33333333333334</ele><time>2026-03-28T08:46:24.836Z</time></trkpt><trkpt lat="45.4486667" lon="10.4690967"><ele>138.16666666666666</ele><time>2026-03-28T08:46:25.836Z</time></trkpt><trkpt lat="45.4485967" lon="10.469055"><ele>138.0</ele><time>2026-03-28T08:46:26.837Z</time></trkpt><trkpt lat="45.4485133" lon="10.46903"><ele>138.0</ele><time>2026-03-28T08:46:27.837Z</time></trkpt><trkpt lat="45.4484183" lon="10.4690117"><ele>138.0</ele><time>2026-03-28T08:46:28.837Z</time></trkpt><trkpt lat="45.4483083" lon="10.4689917"><ele>138.0</ele><time>2026-03-28T08:46:29.837Z</time></trkpt><trkpt lat="45.44819" lon="10.4689583"><ele>138.0</ele><time>2026-03-28T08:46:30.837Z</time></trkpt><trkpt lat="45.44807" lon="10.46893"><ele>138.0</ele><time>2026-03-28T08:46:31.837Z</time></trkpt><trkpt lat="45.4479433" lon="10.468895"><ele>137.25</ele><time>2026-03-28T08:46:32.837Z</time></trkpt><trkpt lat="45.44782" lon="10.46886"><ele>136.5</ele><time>2026-03-28T08:46:33.837Z</time></trkpt><trkpt lat="45.4476967" lon="10.4688217"><ele>135.75</ele><time>2026-03-28T08:46:34.837Z</time></trkpt><trkpt lat="45.4475767" lon="10.4687633"><ele>135.0</ele><time>2026-03-28T08:46:35.836Z</time></trkpt><trkpt lat="45.4474567" lon="10.4687"><ele>134.75</ele><time>2026-03-28T08:46:36.836Z</time></trkpt><trkpt lat="45.4473333" lon="10.4686267"><ele>134.5</ele><time>2026-03-28T08:46:37.836Z</time></trkpt><trkpt lat="45.4472033" lon="10.468555"><ele>134.25</ele><time>2026-03-28T08:46:38.837Z</time></trkpt><trkpt lat="45.4470767" lon="10.4684833"><ele>134.0</ele><time>2026-03-28T08:46:39.837Z</time></trkpt><trkpt lat="45.4469533" lon="10.46843"><ele>133.75</ele><time>2026-03-28T08:46:40.837Z</time></trkpt><trkpt lat="45.446815" lon="10.4683967"><ele>133.5</ele><time>2026-03-28T08:46:41.836Z</time></trkpt><trkpt lat="45.44668" lon="10.46838"><ele>133.25</ele><time>2026-03-28T08:46:42.837Z</time></trkpt><trkpt lat="45.4465383" lon="10.468375"><ele>133.0</ele><time>2026-03-28T08:46:43.837Z</time></trkpt><trkpt lat="45.4464" lon="10.4683683"><ele>133.0</ele><time>2026-03-28T08:46:44.837Z</time></trkpt><trkpt lat="45.44626" lon="10.4683667"><ele>133.0</ele><time>2026-03-28T08:46:45.837Z</time></trkpt><trkpt lat="45.4461183" lon="10.4683567"><ele>133.0</ele><time>2026-03-28T08:46:46.836Z</time></trkpt><trkpt lat="45.4459883" lon="10.4683267"><ele>133.0</ele><time>2026-03-28T08:46:47.836Z</time></trkpt><trkpt lat="45.44585" lon="10.4682917"><ele>133.0</ele><time>2026-03-28T08:46:48.836Z</time></trkpt><trkpt lat="45.4457067" lon="10.46826"><ele>133.0</ele><time>2026-03-28T08:46:49.836Z</time></trkpt><trkpt lat="45.4455733" lon="10.4682367"><ele>133.0</ele><time>2026-03-28T08:46:50.837Z</time></trkpt><trkpt lat="45.44543" lon="10.46822"><ele>133.0</ele><time>2026-03-28T08:46:51.836Z</time></trkpt><trkpt lat="45.4452917" lon="10.4681983"><ele>132.5</ele><time>2026-03-28T08:46:52.836Z</time></trkpt><trkpt lat="45.44516" lon="10.4681867"><ele>132.0</ele><time>2026-03-28T08:46:53.836Z</time></trkpt><trkpt lat="45.445025" lon="10.4681883"><ele>131.5</ele><time>2026-03-28T08:46:54.836Z</time></trkpt><trkpt lat="45.4448883" lon="10.4681817"><ele>131.0</ele><time>2026-03-28T08:46:55.836Z</time></trkpt><trkpt lat="45.44476" lon="10.4681933"><ele>131.0</ele><time>2026-03-28T08:46:56.836Z</time></trkpt><trkpt lat="45.444635" lon="10.4681967"><ele>131.0</ele><time>2026-03-28T08:46:57.837Z</time></trkpt><trkpt lat="45.4445017" lon="10.4681967"><ele>131.0</ele><time>2026-03-28T08:46:58.836Z</time></trkpt><trkpt lat="45.44437" lon="10.4681883"><ele>131.0</ele><time>2026-03-28T08:46:59.837Z</time></trkpt><trkpt lat="45.44424" lon="10.4681733"><ele>131.25</ele><time>2026-03-28T08:47:00.837Z</time></trkpt><trkpt lat="45.4441117" lon="10.4681633"><ele>131.5</ele><time>2026-03-28T08:47:01.836Z</time></trkpt><trkpt lat="45.4439733" lon="10.468175"><ele>131.75</ele><time>2026-03-28T08:47:02.836Z</time></trkpt><trkpt lat="45.4438367" lon="10.4682033"><ele>132.0</ele><time>2026-03-28T08:47:03.836Z</time></trkpt><trkpt lat="45.4437033" lon="10.4682433"><ele>132.0</ele><time>2026-03-28T08:47:04.837Z</time></trkpt><trkpt lat="45.4435783" lon="10.4683033"><ele>132.0</ele><time>2026-03-28T08:47:05.837Z</time></trkpt><trkpt lat="45.4434767" lon="10.4683267"><ele>132.0</ele><time>2026-03-28T08:47:06.836Z</time></trkpt><trkpt lat="45.4433667" lon="10.46835"><ele>132.0</ele><time>2026-03-28T08:47:07.836Z</time></trkpt><trkpt lat="45.4432517" lon="10.4683617"><ele>132.0</ele><time>2026-03-28T08:47:08.837Z</time></trkpt><trkpt lat="45.4431367" lon="10.468355"><ele>132.0</ele><time>2026-03-28T08:47:09.836Z</time></trkpt><trkpt lat="45.4430217" lon="10.4683417"><ele>132.0</ele><time>2026-03-28T08:47:10.837Z</time></trkpt><trkpt lat="45.4429083" lon="10.46833"><ele>132.0</ele><time>2026-03-28T08:47:11.836Z</time></trkpt><trkpt lat="45.4427983" lon="10.468295"><ele>131.75</ele><time>2026-03-28T08:47:12.836Z</time></trkpt><trkpt lat="45.4426883" lon="10.4682667"><ele>131.5</ele><time>2026-03-28T08:47:13.836Z</time></trkpt><trkpt lat="45.4425783" lon="10.4682283"><ele>131.25</ele><time>2026-03-28T08:47:14.837Z</time></trkpt><trkpt lat="45.44246" lon="10.4682167"><ele>131.0</ele><time>2026-03-28T08:47:15.836Z</time></trkpt><trkpt lat="45.4423483" lon="10.4682067"><ele>131.0</ele><time>2026-03-28T08:47:16.837Z</time></trkpt><trkpt lat="45.4422383" lon="10.4682017"><ele>131.0</ele><time>2026-03-28T08:47:17.837Z</time></trkpt><trkpt lat="45.4421217" lon="10.468185"><ele>131.0</ele><time>2026-03-28T08:47:18.837Z</time></trkpt><trkpt lat="45.4419983" lon="10.4681517"><ele>131.0</ele><time>2026-03-28T08:47:19.837Z</time></trkpt><trkpt lat="45.441875" lon="10.4681217"><ele>130.75</ele><time>2026-03-28T08:47:20.837Z</time></trkpt><trkpt lat="45.4417567" lon="10.4680867"><ele>130.5</ele><time>2026-03-28T08:47:21.837Z</time></trkpt><trkpt lat="45.4416283" lon="10.4680217"><ele>130.25</ele><time>2026-03-28T08:47:22.837Z</time></trkpt><trkpt lat="45.4415083" lon="10.4679467"><ele>130.0</ele><time>2026-03-28T08:47:23.837Z</time></trkpt><trkpt lat="45.4413833" lon="10.467865"><ele>129.5</ele><time>2026-03-28T08:47:24.837Z</time></trkpt><trkpt lat="45.4412583" lon="10.4677883"><ele>129.0</ele><time>2026-03-28T08:47:25.836Z</time></trkpt><trkpt lat="45.4411367" lon="10.467705"><ele>128.5</ele><time>2026-03-28T08:47:26.836Z</time></trkpt><trkpt lat="45.4410117" lon="10.4676017"><ele>128.0</ele><time>2026-03-28T08:47:27.836Z</time></trkpt><trkpt lat="45.4408783" lon="10.4675"><ele>128.0</ele><time>2026-03-28T08:47:28.836Z</time></trkpt><trkpt lat="45.4407567" lon="10.467405"><ele>128.0</ele><time>2026-03-28T08:47:29.836Z</time></trkpt><trkpt lat="45.44064" lon="10.4673017"><ele>128.0</ele><time>2026-03-28T08:47:30.836Z</time></trkpt><trkpt lat="45.4405183" lon="10.4672033"><ele>128.0</ele><time>2026-03-28T08:47:31.836Z</time></trkpt><trkpt lat="45.4403967" lon="10.467105"><ele>127.5</ele><time>2026-03-28T08:47:32.836Z</time></trkpt><trkpt lat="45.4402717" lon="10.467015"><ele>127.0</ele><time>2026-03-28T08:47:33.836Z</time></trkpt><trkpt lat="45.4401417" lon="10.4669317"><ele>126.5</ele><time>2026-03-28T08:47:34.837Z</time></trkpt><trkpt lat="45.4400167" lon="10.4668633"><ele>126.0</ele><time>2026-03-28T08:47:35.837Z</time></trkpt><trkpt lat="45.4398833" lon="10.466795"><ele>126.0</ele><time>2026-03-28T08:47:36.836Z</time></trkpt><trkpt lat="45.4397483" lon="10.4667367"><ele>126.0</ele><time>2026-03-28T08:47:37.836Z</time></trkpt><trkpt lat="45.43961" lon="10.46668"><ele>126.0</ele><time>2026-03-28T08:47:38.837Z</time></trkpt><trkpt lat="45.4394717" lon="10.4666317"><ele>126.0</ele><time>2026-03-28T08:47:39.836Z</time></trkpt><trkpt lat="45.43933" lon="10.4665933"><ele>126.0</ele><time>2026-03-28T08:47:40.837Z</time></trkpt><trkpt lat="45.43919" lon="10.4665367"><ele>126.0</ele><time>2026-03-28T08:47:41.837Z</time></trkpt><trkpt lat="45.4390517" lon="10.4664867"><ele>126.0</ele><time>2026-03-28T08:47:42.836Z</time></trkpt><trkpt lat="45.4389083" lon="10.4664483"><ele>126.0</ele><time>2026-03-28T08:47:43.837Z</time></trkpt><trkpt lat="45.4387667" lon="10.4664083"><ele>126.0</ele><time>2026-03-28T08:47:44.836Z</time></trkpt><trkpt lat="45.43862" lon="10.4663733"><ele>126.0</ele><time>2026-03-28T08:47:45.836Z</time></trkpt><trkpt lat="45.43848" lon="10.466325"><ele>126.0</ele><time>2026-03-28T08:47:46.837Z</time></trkpt><trkpt lat="45.438355" lon="10.4662717"><ele>126.0</ele><time>2026-03-28T08:47:47.836Z</time></trkpt><trkpt lat="45.4382367" lon="10.4662017"><ele>126.25</ele><time>2026-03-28T08:47:48.837Z</time></trkpt><trkpt lat="45.4381167" lon="10.46612"><ele>126.5</ele><time>2026-03-28T08:47:49.836Z</time></trkpt><trkpt lat="45.43799" lon="10.4660283"><ele>126.75</ele><time>2026-03-28T08:47:50.837Z</time></trkpt><trkpt lat="45.4378733" lon="10.4659283"><ele>127.0</ele><time>2026-03-28T08:47:51.837Z</time></trkpt><trkpt lat="45.43776" lon="10.465825"><ele>126.25</ele><time>2026-03-28T08:47:52.837Z</time></trkpt><trkpt lat="45.4376433" lon="10.465715"><ele>125.5</ele><time>2026-03-28T08:47:53.837Z</time></trkpt><trkpt lat="45.437525" lon="10.465605"><ele>124.75</ele><time>2026-03-28T08:47:54.837Z</time></trkpt><trkpt lat="45.4374033" lon="10.4655017"><ele>124.0</ele><time>2026-03-28T08:47:55.836Z</time></trkpt><trkpt lat="45.4372833" lon="10.46541"><ele>124.0</ele><time>2026-03-28T08:47:56.836Z</time></trkpt><trkpt lat="45.4371533" lon="10.46533"><ele>124.0</ele><time>2026-03-28T08:47:57.837Z</time></trkpt><trkpt lat="45.437035" lon="10.465245"><ele>124.0</ele><time>2026-03-28T08:47:58.836Z</time></trkpt><trkpt lat="45.4369317" lon="10.4651883"><ele>124.0</ele><time>2026-03-28T08:47:59.836Z</time></trkpt><trkpt lat="45.4368267" lon="10.4651367"><ele>124.0</ele><time>2026-03-28T08:48:00.837Z</time></trkpt><trkpt lat="45.4367267" lon="10.4650817"><ele>124.0</ele><time>2026-03-28T08:48:01.836Z</time></trkpt><trkpt lat="45.43663" lon="10.4650533"><ele>124.0</ele><time>2026-03-28T08:48:02.836Z</time></trkpt><trkpt lat="45.43655" lon="10.4650183"><ele>124.0</ele><time>2026-03-28T08:48:03.837Z</time></trkpt><trkpt lat="45.436485" lon="10.4650117"><ele>124.0</ele><time>2026-03-28T08:48:04.836Z</time></trkpt><trkpt lat="45.4364183" lon="10.465115"><ele>124.0</ele><time>2026-03-28T08:48:06.837Z</time></trkpt><trkpt lat="45.4364" lon="10.4652333"><ele>124.0</ele><time>2026-03-28T08:48:07.837Z</time></trkpt><trkpt lat="45.4363883" lon="10.4653933"><ele>124.0</ele><time>2026-03-28T08:48:08.836Z</time></trkpt><trkpt lat="45.4363883" lon="10.4655967"><ele>124.0</ele><time>2026-03-28T08:48:09.836Z</time></trkpt><trkpt lat="45.4363883" lon="10.4658217"><ele>124.25</ele><time>2026-03-28T08:48:10.836Z</time></trkpt><trkpt lat="45.4363917" lon="10.466045"><ele>124.5</ele><time>2026-03-28T08:48:11.837Z</time></trkpt><trkpt lat="45.4363883" lon="10.4662567"><ele>124.75</ele><time>2026-03-28T08:48:12.837Z</time></trkpt><trkpt lat="45.436395" lon="10.4664533"><ele>125.0</ele><time>2026-03-28T08:48:13.836Z</time></trkpt><trkpt lat="45.4364067" lon="10.4666467"><ele>125.0</ele><time>2026-03-28T08:48:14.836Z</time></trkpt><trkpt lat="45.436415" lon="10.4668383"><ele>125.0</ele><time>2026-03-28T08:48:15.836Z</time></trkpt><trkpt lat="45.4364167" lon="10.467015"><ele>125.0</ele><time>2026-03-28T08:48:16.837Z</time></trkpt><trkpt lat="45.43641" lon="10.467175"><ele>125.0</ele><time>2026-03-28T08:48:17.836Z</time></trkpt><trkpt lat="45.436405" lon="10.4673333"><ele>125.0</ele><time>2026-03-28T08:48:18.837Z</time></trkpt><trkpt lat="45.4363983" lon="10.467495"><ele>125.0</ele><time>2026-03-28T08:48:19.836Z</time></trkpt><trkpt lat="45.43639" lon="10.4676617"><ele>125.0</ele><time>2026-03-28T08:48:20.837Z</time></trkpt><trkpt lat="45.4363833" lon="10.4678167"><ele>125.0</ele><time>2026-03-28T08:48:21.836Z</time></trkpt><trkpt lat="45.4363817" lon="10.4679833"><ele>125.0</ele><time>2026-03-28T08:48:22.837Z</time></trkpt><trkpt lat="45.43638" lon="10.4681633"><ele>125.0</ele><time>2026-03-28T08:48:23.836Z</time></trkpt><trkpt lat="45.4363767" lon="10.4683517"><ele>125.0</ele><time>2026-03-28T08:48:24.837Z</time></trkpt><trkpt lat="45.436375" lon="10.468555"><ele>125.0</ele><time>2026-03-28T08:48:25.836Z</time></trkpt><trkpt lat="45.43637" lon="10.4687517"><ele>125.33333333333333</ele><time>2026-03-28T08:48:26.837Z</time></trkpt><trkpt lat="45.436365" lon="10.4689683"><ele>125.66666666666666</ele><time>2026-03-28T08:48:27.837Z</time></trkpt><trkpt lat="45.4363667" lon="10.4691817"><ele>126.0</ele><time>2026-03-28T08:48:28.836Z</time></trkpt><trkpt lat="45.4363633" lon="10.469395"><ele>126.0</ele><time>2026-03-28T08:48:29.837Z</time></trkpt><trkpt lat="45.4363617" lon="10.4695917"><ele>126.0</ele><time>2026-03-28T08:48:30.836Z</time></trkpt><trkpt lat="45.43636" lon="10.4697783"><ele>126.0</ele><time>2026-03-28T08:48:31.837Z</time></trkpt><trkpt lat="45.4363733" lon="10.469955"><ele>126.0</ele><time>2026-03-28T08:48:32.836Z</time></trkpt><trkpt lat="45.4363767" lon="10.4701367"><ele>126.25</ele><time>2026-03-28T08:48:33.836Z</time></trkpt><trkpt lat="45.4363817" lon="10.470335"><ele>126.5</ele><time>2026-03-28T08:48:34.837Z</time></trkpt><trkpt lat="45.4363867" lon="10.4705267"><ele>126.75</ele><time>2026-03-28T08:48:35.837Z</time></trkpt><trkpt lat="45.4363917" lon="10.4707267"><ele>127.0</ele><time>2026-03-28T08:48:36.837Z</time></trkpt><trkpt lat="45.4363867" lon="10.47093"><ele>127.0</ele><time>2026-03-28T08:48:37.836Z</time></trkpt><trkpt lat="45.43638" lon="10.4711333"><ele>127.0</ele><time>2026-03-28T08:48:38.837Z</time></trkpt><trkpt lat="45.436375" lon="10.4713333"><ele>127.0</ele><time>2026-03-28T08:48:39.837Z</time></trkpt><trkpt lat="45.4363767" lon="10.471545"><ele>127.0</ele><time>2026-03-28T08:48:40.837Z</time></trkpt><trkpt lat="45.436375" lon="10.47177"><ele>127.0</ele><time>2026-03-28T08:48:41.837Z</time></trkpt><trkpt lat="45.436375" lon="10.4719917"><ele>127.0</ele><time>2026-03-28T08:48:42.836Z</time></trkpt><trkpt lat="45.4363767" lon="10.4722167"><ele>127.0</ele><time>2026-03-28T08:48:43.836Z</time></trkpt><trkpt lat="45.4363833" lon="10.4724383"><ele>127.0</ele><time>2026-03-28T08:48:44.837Z</time></trkpt><trkpt lat="45.436385" lon="10.4726583"><ele>127.0</ele><time>2026-03-28T08:48:45.836Z</time></trkpt><trkpt lat="45.4363933" lon="10.4728867"><ele>127.0</ele><time>2026-03-28T08:48:46.836Z</time></trkpt><trkpt lat="45.436405" lon="10.4731117"><ele>127.0</ele><time>2026-03-28T08:48:47.836Z</time></trkpt><trkpt lat="45.436425" lon="10.473335"><ele>127.0</ele><time>2026-03-28T08:48:48.836Z</time></trkpt><trkpt lat="45.4364483" lon="10.4735717"><ele>127.0</ele><time>2026-03-28T08:48:49.836Z</time></trkpt><trkpt lat="45.4364683" lon="10.473805"><ele>127.0</ele><time>2026-03-28T08:48:50.836Z</time></trkpt><trkpt lat="45.4364917" lon="10.4740283"><ele>127.0</ele><time>2026-03-28T08:48:51.836Z</time></trkpt><trkpt lat="45.4365117" lon="10.4742617"><ele>127.0</ele><time>2026-03-28T08:48:52.837Z</time></trkpt><trkpt lat="45.4365317" lon="10.4744833"><ele>127.33333333333334</ele><time>2026-03-28T08:48:53.836Z</time></trkpt><trkpt lat="45.4365517" lon="10.4746983"><ele>127.66666666666666</ele><time>2026-03-28T08:48:54.837Z</time></trkpt><trkpt lat="45.4365733" lon="10.474905"><ele>128.0</ele><time>2026-03-28T08:48:55.836Z</time></trkpt><trkpt lat="45.4365917" lon="10.4751233"><ele>128.0</ele><time>2026-03-28T08:48:56.836Z</time></trkpt><trkpt lat="45.4366133" lon="10.475345"><ele>128.0</ele><time>2026-03-28T08:48:57.837Z</time></trkpt><trkpt lat="45.43664" lon="10.4755633"><ele>128.0</ele><time>2026-03-28T08:48:58.837Z</time></trkpt><trkpt lat="45.43666" lon="10.475785"><ele>128.0</ele><time>2026-03-28T08:48:59.836Z</time></trkpt><trkpt lat="45.4366917" lon="10.4759917"><ele>128.0</ele><time>2026-03-28T08:49:00.836Z</time></trkpt><trkpt lat="45.43672" lon="10.4762083"><ele>128.0</ele><time>2026-03-28T08:49:01.837Z</time></trkpt><trkpt lat="45.4367467" lon="10.4764167"><ele>128.0</ele><time>2026-03-28T08:49:02.837Z</time></trkpt><trkpt lat="45.43678" lon="10.4766267"><ele>128.0</ele><time>2026-03-28T08:49:03.836Z</time></trkpt><trkpt lat="45.4368017" lon="10.47682"><ele>128.0</ele><time>2026-03-28T08:49:04.836Z</time></trkpt><trkpt lat="45.4368183" lon="10.4769883"><ele>128.0</ele><time>2026-03-28T08:49:05.837Z</time></trkpt><trkpt lat="45.4368383" lon="10.47713"><ele>128.33333333333331</ele><time>2026-03-28T08:49:06.836Z</time></trkpt><trkpt lat="45.436855" lon="10.4772483"><ele>128.66666666666666</ele><time>2026-03-28T08:49:07.837Z</time></trkpt><trkpt lat="45.436865" lon="10.4773467"><ele>129.0</ele><time>2026-03-28T08:49:08.837Z</time></trkpt><trkpt lat="45.4368817" lon="10.4774633"><ele>129.33333333333334</ele><time>2026-03-28T08:49:10.837Z</time></trkpt><trkpt lat="45.436945" lon="10.477535"><ele>129.66666666666669</ele><time>2026-03-28T08:49:13.837Z</time></trkpt><trkpt lat="45.4370167" lon="10.4775533"><ele>130.0</ele><time>2026-03-28T08:49:14.837Z</time></trkpt><trkpt lat="45.4371183" lon="10.4775683"><ele>129.75</ele><time>2026-03-28T08:49:15.836Z</time></trkpt><trkpt lat="45.4372367" lon="10.477585"><ele>129.5</ele><time>2026-03-28T08:49:16.837Z</time></trkpt><trkpt lat="45.4373733" lon="10.4776"><ele>129.25</ele><time>2026-03-28T08:49:17.836Z</time></trkpt><trkpt lat="45.437525" lon="10.47762"><ele>129.0</ele><time>2026-03-28T08:49:18.837Z</time></trkpt><trkpt lat="45.437685" lon="10.4776433"><ele>129.0</ele><time>2026-03-28T08:49:19.836Z</time></trkpt><trkpt lat="45.43785" lon="10.477655"><ele>129.0</ele><time>2026-03-28T08:49:20.836Z</time></trkpt><trkpt lat="45.4380217" lon="10.4776683"><ele>129.0</ele><time>2026-03-28T08:49:21.837Z</time></trkpt><trkpt lat="45.4381983" lon="10.4776817"><ele>129.33333333333334</ele><time>2026-03-28T08:49:22.836Z</time></trkpt><trkpt lat="45.4383733" lon="10.4776983"><ele>129.66666666666669</ele><time>2026-03-28T08:49:23.837Z</time></trkpt><trkpt lat="45.43856" lon="10.4777183"><ele>130.0</ele><time>2026-03-28T08:49:24.837Z</time></trkpt><trkpt lat="45.4387567" lon="10.47776"><ele>130.0</ele><time>2026-03-28T08:49:25.837Z</time></trkpt><trkpt lat="45.43896" lon="10.4777983"><ele>130.0</ele><time>2026-03-28T08:49:26.836Z</time></trkpt><trkpt lat="45.4391617" lon="10.4778567"><ele>130.0</ele><time>2026-03-28T08:49:27.837Z</time></trkpt><trkpt lat="45.4393667" lon="10.4779267"><ele>130.33333333333334</ele><time>2026-03-28T08:49:28.837Z</time></trkpt><trkpt lat="45.4395717" lon="10.477995"><ele>130.66666666666666</ele><time>2026-03-28T08:49:29.837Z</time></trkpt><trkpt lat="45.43978" lon="10.4780883"><ele>131.0</ele><time>2026-03-28T08:49:30.836Z</time></trkpt><trkpt lat="45.4400017" lon="10.4781683"><ele>131.0</ele><time>2026-03-28T08:49:31.837Z</time></trkpt><trkpt lat="45.4402217" lon="10.478255"><ele>131.0</ele><time>2026-03-28T08:49:32.837Z</time></trkpt><trkpt lat="45.4404483" lon="10.4783417"><ele>131.5</ele><time>2026-03-28T08:49:33.837Z</time></trkpt><trkpt lat="45.4406817" lon="10.478425"><ele>132.0</ele><time>2026-03-28T08:49:34.837Z</time></trkpt><trkpt lat="45.4409167" lon="10.4785033"><ele>132.0</ele><time>2026-03-28T08:49:35.837Z</time></trkpt><trkpt lat="45.4411533" lon="10.4785833"><ele>132.0</ele><time>2026-03-28T08:49:36.837Z</time></trkpt><trkpt lat="45.4413833" lon="10.4786517"><ele>132.66666666666666</ele><time>2026-03-28T08:49:37.836Z</time></trkpt><trkpt lat="45.4416133" lon="10.4787117"><ele>133.33333333333331</ele><time>2026-03-28T08:49:38.837Z</time></trkpt><trkpt lat="45.4418267" lon="10.478715"><ele>134.0</ele><time>2026-03-28T08:49:39.837Z</time></trkpt><trkpt lat="45.4420417" lon="10.4786667"><ele>135.0</ele><time>2026-03-28T08:49:40.836Z</time></trkpt><trkpt lat="45.4422617" lon="10.47859"><ele>136.0</ele><time>2026-03-28T08:49:41.837Z</time></trkpt><trkpt lat="45.442475" lon="10.4784867"><ele>136.0</ele><time>2026-03-28T08:49:42.837Z</time></trkpt><trkpt lat="45.44268" lon="10.4783667"><ele>136.0</ele><time>2026-03-28T08:49:43.837Z</time></trkpt><trkpt lat="45.4428767" lon="10.4782367"><ele>136.0</ele><time>2026-03-28T08:49:44.837Z</time></trkpt><trkpt lat="45.443065" lon="10.4781183"><ele>135.66666666666669</ele><time>2026-03-28T08:49:45.837Z</time></trkpt><trkpt lat="45.44327" lon="10.4780617"><ele>135.33333333333334</ele><time>2026-03-28T08:49:46.836Z</time></trkpt><trkpt lat="45.443465" lon="10.4780017"><ele>135.0</ele><time>2026-03-28T08:49:47.837Z</time></trkpt><trkpt lat="45.4436717" lon="10.4779883"><ele>135.33333333333334</ele><time>2026-03-28T08:49:48.836Z</time></trkpt><trkpt lat="45.4438817" lon="10.478005"><ele>135.66666666666669</ele><time>2026-03-28T08:49:49.837Z</time></trkpt><trkpt lat="45.4440917" lon="10.47805"><ele>136.0</ele><time>2026-03-28T08:49:50.837Z</time></trkpt><trkpt lat="45.4443083" lon="10.4781067"><ele>136.0</ele><time>2026-03-28T08:49:51.836Z</time></trkpt><trkpt lat="45.44453" lon="10.47817"><ele>136.0</ele><time>2026-03-28T08:49:52.837Z</time></trkpt><trkpt lat="45.4447467" lon="10.4782333"><ele>136.0</ele><time>2026-03-28T08:49:53.836Z</time></trkpt><trkpt lat="45.4449667" lon="10.478295"><ele>136.33333333333334</ele><time>2026-03-28T08:49:54.836Z</time></trkpt><trkpt lat="45.4451883" lon="10.4783633"><ele>136.66666666666666</ele><time>2026-03-28T08:49:55.836Z</time></trkpt><trkpt lat="45.4453983" lon="10.47844"><ele>137.0</ele><time>2026-03-28T08:49:56.836Z</time></trkpt><trkpt lat="45.4456033" lon="10.4785217"><ele>137.66666666666666</ele><time>2026-03-28T08:49:57.837Z</time></trkpt><trkpt lat="45.4458033" lon="10.4786283"><ele>138.33333333333334</ele><time>2026-03-28T08:49:58.836Z</time></trkpt><trkpt lat="45.4460017" lon="10.478765"><ele>139.0</ele><time>2026-03-28T08:49:59.837Z</time></trkpt><trkpt lat="45.4461983" lon="10.4789233"><ele>140.0</ele><time>2026-03-28T08:50:00.837Z</time></trkpt><trkpt lat="45.446395" lon="10.479075"><ele>141.0</ele><time>2026-03-28T08:50:01.836Z</time></trkpt><trkpt lat="45.4465833" lon="10.479225"><ele>142.0</ele><time>2026-03-28T08:50:02.837Z</time></trkpt><trkpt lat="45.44676" lon="10.4793817"><ele>142.0</ele><time>2026-03-28T08:50:03.837Z</time></trkpt><trkpt lat="45.4469467" lon="10.479515"><ele>142.0</ele><time>2026-03-28T08:50:04.837Z</time></trkpt><trkpt lat="45.4471333" lon="10.479635"><ele>142.0</ele><time>2026-03-28T08:50:05.837Z</time></trkpt><trkpt lat="45.4473033" lon="10.4797617"><ele>141.33333333333334</ele><time>2026-03-28T08:50:06.837Z</time></trkpt><trkpt lat="45.44748" lon="10.47986"><ele>140.66666666666666</ele><time>2026-03-28T08:50:07.836Z</time></trkpt><trkpt lat="45.447655" lon="10.479945"><ele>140.0</ele><time>2026-03-28T08:50:08.836Z</time></trkpt><trkpt lat="45.44784" lon="10.4800433"><ele>140.0</ele><time>2026-03-28T08:50:09.837Z</time></trkpt><trkpt lat="45.44802" lon="10.4801417"><ele>140.0</ele><time>2026-03-28T08:50:10.836Z</time></trkpt><trkpt lat="45.44821" lon="10.480235"><ele>140.0</ele><time>2026-03-28T08:50:11.836Z</time></trkpt><trkpt lat="45.44841" lon="10.4802983"><ele>140.0</ele><time>2026-03-28T08:50:12.836Z</time></trkpt><trkpt lat="45.4486117" lon="10.4803633"><ele>140.0</ele><time>2026-03-28T08:50:13.837Z</time></trkpt><trkpt lat="45.4488233" lon="10.4804283"><ele>140.0</ele><time>2026-03-28T08:50:14.837Z</time></trkpt><trkpt lat="45.4490433" lon="10.480485"><ele>140.0</ele><time>2026-03-28T08:50:15.837Z</time></trkpt><trkpt lat="45.44926" lon="10.4805483"><ele>140.0</ele><time>2026-03-28T08:50:16.836Z</time></trkpt><trkpt lat="45.449475" lon="10.4806133"><ele>140.0</ele><time>2026-03-28T08:50:17.837Z</time></trkpt><trkpt lat="45.44969" lon="10.4806833"><ele>141.0</ele><time>2026-03-28T08:50:18.837Z</time></trkpt><trkpt lat="45.4499" lon="10.4807383"><ele>142.0</ele><time>2026-03-28T08:50:19.836Z</time></trkpt><trkpt lat="45.45011" lon="10.4807983"><ele>143.0</ele><time>2026-03-28T08:50:20.836Z</time></trkpt><trkpt lat="45.4503167" lon="10.4808433"><ele>143.33333333333331</ele><time>2026-03-28T08:50:21.836Z</time></trkpt><trkpt lat="45.4505133" lon="10.48089"><ele>143.66666666666666</ele><time>2026-03-28T08:50:22.837Z</time></trkpt><trkpt lat="45.4506933" lon="10.4809383"><ele>144.0</ele><time>2026-03-28T08:50:23.836Z</time></trkpt><trkpt lat="45.4508617" lon="10.4809933"><ele>144.0</ele><time>2026-03-28T08:50:24.836Z</time></trkpt><trkpt lat="45.4510267" lon="10.4810367"><ele>144.0</ele><time>2026-03-28T08:50:25.836Z</time></trkpt><trkpt lat="45.4511917" lon="10.48108"><ele>144.0</ele><time>2026-03-28T08:50:26.837Z</time></trkpt><trkpt lat="45.451355" lon="10.481125"><ele>143.66666666666666</ele><time>2026-03-28T08:50:27.836Z</time></trkpt><trkpt lat="45.4515133" lon="10.4811667"><ele>143.33333333333331</ele><time>2026-03-28T08:50:28.836Z</time></trkpt><trkpt lat="45.45166" lon="10.4812167"><ele>143.0</ele><time>2026-03-28T08:50:29.837Z</time></trkpt><trkpt lat="45.451805" lon="10.481265"><ele>144.0</ele><time>2026-03-28T08:50:30.836Z</time></trkpt><trkpt lat="45.4519417" lon="10.4813233"><ele>145.0</ele><time>2026-03-28T08:50:31.837Z</time></trkpt><trkpt lat="45.4520667" lon="10.4813867"><ele>146.0</ele><time>2026-03-28T08:50:32.836Z</time></trkpt><trkpt lat="45.4521883" lon="10.481445"><ele>147.0</ele><time>2026-03-28T08:50:33.836Z</time></trkpt><trkpt lat="45.45231" lon="10.48153"><ele>147.0</ele><time>2026-03-28T08:50:34.836Z</time></trkpt><trkpt lat="45.4524233" lon="10.4816483"><ele>147.0</ele><time>2026-03-28T08:50:35.837Z</time></trkpt><trkpt lat="45.45251" lon="10.4817883"><ele>147.0</ele><time>2026-03-28T08:50:36.835Z</time></trkpt><trkpt lat="45.4525833" lon="10.4819367"><ele>147.0</ele><time>2026-03-28T08:50:37.837Z</time></trkpt><trkpt lat="45.4526417" lon="10.4821067"><ele>147.25</ele><time>2026-03-28T08:50:38.836Z</time></trkpt><trkpt lat="45.4526833" lon="10.4822933"><ele>147.5</ele><time>2026-03-28T08:50:39.836Z</time></trkpt><trkpt lat="45.4527" lon="10.48251"><ele>147.75</ele><time>2026-03-28T08:50:40.836Z</time></trkpt><trkpt lat="45.4527017" lon="10.4827267"><ele>148.0</ele><time>2026-03-28T08:50:41.836Z</time></trkpt><trkpt lat="45.4526917" lon="10.482955"><ele>148.66666666666669</ele><time>2026-03-28T08:50:42.837Z</time></trkpt><trkpt lat="45.4526767" lon="10.4831867"><ele>149.33333333333334</ele><time>2026-03-28T08:50:43.836Z</time></trkpt><trkpt lat="45.45266" lon="10.48341"><ele>150.0</ele><time>2026-03-28T08:50:44.836Z</time></trkpt><trkpt lat="45.45265" lon="10.4836283"><ele>150.0</ele><time>2026-03-28T08:50:45.837Z</time></trkpt><trkpt lat="45.4526467" lon="10.4838367"><ele>150.0</ele><time>2026-03-28T08:50:46.837Z</time></trkpt><trkpt lat="45.452665" lon="10.4840317"><ele>150.0</ele><time>2026-03-28T08:50:47.836Z</time></trkpt><trkpt lat="45.4526983" lon="10.4842083"><ele>150.0</ele><time>2026-03-28T08:50:48.836Z</time></trkpt><trkpt lat="45.4527433" lon="10.4843633"><ele>150.0</ele><time>2026-03-28T08:50:49.836Z</time></trkpt><trkpt lat="45.4528" lon="10.4844933"><ele>150.0</ele><time>2026-03-28T08:50:50.836Z</time></trkpt><trkpt lat="45.4528617" lon="10.4845983"><ele>150.0</ele><time>2026-03-28T08:50:51.836Z</time></trkpt><trkpt lat="45.4529133" lon="10.4846783"><ele>150.0</ele><time>2026-03-28T08:50:52.836Z</time></trkpt><trkpt lat="45.45297" lon="10.4847733"><ele>150.0</ele><time>2026-03-28T08:50:54.836Z</time></trkpt><trkpt lat="45.4529817" lon="10.48488"><ele>150.0</ele><time>2026-03-28T08:50:56.836Z</time></trkpt><trkpt lat="45.4529467" lon="10.4849883"><ele>151.0</ele><time>2026-03-28T08:50:59.836Z</time></trkpt><trkpt lat="45.45286" lon="10.48506"><ele>152.0</ele><time>2026-03-28T08:51:01.837Z</time></trkpt><trkpt lat="45.4527967" lon="10.4850817"><ele>153.0</ele><time>2026-03-28T08:51:02.837Z</time></trkpt><trkpt lat="45.4527283" lon="10.48509"><ele>154.0</ele><time>2026-03-28T08:51:03.836Z</time></trkpt><trkpt lat="45.4526467" lon="10.485085"><ele>155.0</ele><time>2026-03-28T08:51:04.836Z</time></trkpt><trkpt lat="45.4525633" lon="10.4850833"><ele>156.0</ele><time>2026-03-28T08:51:05.836Z</time></trkpt><trkpt lat="45.4524733" lon="10.4850817"><ele>156.0</ele><time>2026-03-28T08:51:06.836Z</time></trkpt><trkpt lat="45.4523917" lon="10.48508"><ele>156.0</ele><time>2026-03-28T08:51:07.836Z</time></trkpt><trkpt lat="45.452305" lon="10.4850717"><ele>156.0</ele><time>2026-03-28T08:51:08.836Z</time></trkpt><trkpt lat="45.4522033" lon="10.485055"><ele>156.0</ele><time>2026-03-28T08:51:09.836Z</time></trkpt><trkpt lat="45.4521017" lon="10.485025"><ele>156.0</ele><time>2026-03-28T08:51:10.837Z</time></trkpt><trkpt lat="45.4519867" lon="10.485"><ele>156.0</ele><time>2026-03-28T08:51:11.836Z</time></trkpt><trkpt lat="45.4518667" lon="10.484965"><ele>156.0</ele><time>2026-03-28T08:51:12.837Z</time></trkpt><trkpt lat="45.4517267" lon="10.4849367"><ele>156.0</ele><time>2026-03-28T08:51:13.836Z</time></trkpt><trkpt lat="45.4516033" lon="10.4848967"><ele>156.0</ele><time>2026-03-28T08:51:14.836Z</time></trkpt><trkpt lat="45.45148" lon="10.48484"><ele>156.0</ele><time>2026-03-28T08:51:15.836Z</time></trkpt><trkpt lat="45.451355" lon="10.4847733"><ele>156.0</ele><time>2026-03-28T08:51:16.836Z</time></trkpt><trkpt lat="45.451235" lon="10.484715"><ele>156.0</ele><time>2026-03-28T08:51:17.836Z</time></trkpt><trkpt lat="45.45112" lon="10.484675"><ele>156.0</ele><time>2026-03-28T08:51:18.837Z</time></trkpt><trkpt lat="45.4509983" lon="10.4846467"><ele>156.5</ele><time>2026-03-28T08:51:19.836Z</time></trkpt><trkpt lat="45.4508717" lon="10.4846183"><ele>157.0</ele><time>2026-03-28T08:51:20.836Z</time></trkpt><trkpt lat="45.4507417" lon="10.4845917"><ele>157.5</ele><time>2026-03-28T08:51:21.837Z</time></trkpt><trkpt lat="45.45062" lon="10.4845683"><ele>158.0</ele><time>2026-03-28T08:51:22.837Z</time></trkpt><trkpt lat="45.45051" lon="10.4845283"><ele>156.0</ele><time>2026-03-28T08:51:23.836Z</time></trkpt><trkpt lat="45.4504033" lon="10.4844833"><ele>154.0</ele><time>2026-03-28T08:51:24.837Z</time></trkpt><trkpt lat="45.4502967" lon="10.4844433"><ele>152.0</ele><time>2026-03-28T08:51:25.836Z</time></trkpt><trkpt lat="45.4501933" lon="10.484415"><ele>150.0</ele><time>2026-03-28T08:51:26.836Z</time></trkpt><trkpt lat="45.4500967" lon="10.484395"><ele>148.0</ele><time>2026-03-28T08:51:27.836Z</time></trkpt><trkpt lat="45.449995" lon="10.48438"><ele>148.0</ele><time>2026-03-28T08:51:28.836Z</time></trkpt><trkpt lat="45.4498917" lon="10.48438"><ele>148.0</ele><time>2026-03-28T08:51:29.837Z</time></trkpt><trkpt lat="45.44978" lon="10.4843767"><ele>148.0</ele><time>2026-03-28T08:51:30.836Z</time></trkpt><trkpt lat="45.4496483" lon="10.4843933"><ele>148.0</ele><time>2026-03-28T08:51:31.836Z</time></trkpt><trkpt lat="45.4495133" lon="10.484405"><ele>147.5</ele><time>2026-03-28T08:51:32.836Z</time></trkpt><trkpt lat="45.4493783" lon="10.4844267"><ele>147.0</ele><time>2026-03-28T08:51:33.837Z</time></trkpt><trkpt lat="45.4492467" lon="10.4844333"><ele>146.5</ele><time>2026-03-28T08:51:34.836Z</time></trkpt><trkpt lat="45.4491183" lon="10.48444"><ele>146.0</ele><time>2026-03-28T08:51:35.837Z</time></trkpt><trkpt lat="45.4489867" lon="10.48445"><ele>146.0</ele><time>2026-03-28T08:51:36.837Z</time></trkpt><trkpt lat="45.44887" lon="10.4844533"><ele>146.0</ele><time>2026-03-28T08:51:37.836Z</time></trkpt><trkpt lat="45.448755" lon="10.48445"><ele>146.0</ele><time>2026-03-28T08:51:38.836Z</time></trkpt><trkpt lat="45.4486367" lon="10.4844567"><ele>146.0</ele><time>2026-03-28T08:51:39.836Z</time></trkpt><trkpt lat="45.4485333" lon="10.484455"><ele>146.2</ele><time>2026-03-28T08:51:40.837Z</time></trkpt><trkpt lat="45.4484217" lon="10.4844483"><ele>146.39999999999998</ele><time>2026-03-28T08:51:41.837Z</time></trkpt><trkpt lat="45.4483183" lon="10.4844433"><ele>146.6</ele><time>2026-03-28T08:51:42.837Z</time></trkpt><trkpt lat="45.448215" lon="10.484445"><ele>146.79999999999998</ele><time>2026-03-28T08:51:43.836Z</time></trkpt><trkpt lat="45.4481283" lon="10.484445"><ele>147.0</ele><time>2026-03-28T08:51:44.837Z</time></trkpt><trkpt lat="45.4480517" lon="10.48444"><ele>147.0</ele><time>2026-03-28T08:51:45.836Z</time></trkpt><trkpt lat="45.4479833" lon="10.4844317"><ele>147.0</ele><time>2026-03-28T08:51:46.837Z</time></trkpt><trkpt lat="45.447915" lon="10.484415"><ele>147.0</ele><time>2026-03-28T08:51:47.837Z</time></trkpt><trkpt lat="45.44785" lon="10.4843983"><ele>147.0</ele><time>2026-03-28T08:51:48.837Z</time></trkpt><trkpt lat="45.4477817" lon="10.4843617"><ele>147.0</ele><time>2026-03-28T08:51:49.837Z</time></trkpt><trkpt lat="45.4477133" lon="10.4843083"><ele>147.0</ele><time>2026-03-28T08:51:50.836Z</time></trkpt><trkpt lat="45.4476467" lon="10.4842367"><ele>147.0</ele><time>2026-03-28T08:51:51.836Z</time></trkpt><trkpt lat="45.4475733" lon="10.48415"><ele>147.79999999999998</ele><time>2026-03-28T08:51:52.836Z</time></trkpt><trkpt lat="45.4475083" lon="10.4840633"><ele>148.6</ele><time>2026-03-28T08:51:53.837Z</time></trkpt><trkpt lat="45.44744" lon="10.4839817"><ele>149.39999999999998</ele><time>2026-03-28T08:51:54.837Z</time></trkpt><trkpt lat="45.4473667" lon="10.4839"><ele>150.2</ele><time>2026-03-28T08:51:55.837Z</time></trkpt><trkpt lat="45.4472783" lon="10.4838383"><ele>151.0</ele><time>2026-03-28T08:51:56.836Z</time></trkpt><trkpt lat="45.4471617" lon="10.483805"><ele>149.25</ele><time>2026-03-28T08:51:57.836Z</time></trkpt><trkpt lat="45.447035" lon="10.48376"><ele>147.5</ele><time>2026-03-28T08:51:58.837Z</time></trkpt><trkpt lat="45.4468983" lon="10.4837217"><ele>145.75</ele><time>2026-03-28T08:51:59.836Z</time></trkpt><trkpt lat="45.4467533" lon="10.4837"><ele>144.0</ele><time>2026-03-28T08:52:00.836Z</time></trkpt><trkpt lat="45.4466217" lon="10.4836767"><ele>144.0</ele><time>2026-03-28T08:52:01.836Z</time></trkpt><trkpt lat="45.4464933" lon="10.4836583"><ele>144.0</ele><time>2026-03-28T08:52:02.836Z</time></trkpt><trkpt lat="45.446365" lon="10.48362"><ele>144.0</ele><time>2026-03-28T08:52:03.836Z</time></trkpt><trkpt lat="45.4462267" lon="10.4835917"><ele>144.0</ele><time>2026-03-28T08:52:04.836Z</time></trkpt><trkpt lat="45.4460867" lon="10.4835617"><ele>143.66666666666666</ele><time>2026-03-28T08:52:05.836Z</time></trkpt><trkpt lat="45.445935" lon="10.4835267"><ele>143.33333333333331</ele><time>2026-03-28T08:52:06.837Z</time></trkpt><trkpt lat="45.4457817" lon="10.4834983"><ele>143.0</ele><time>2026-03-28T08:52:07.837Z</time></trkpt><trkpt lat="45.44564" lon="10.48346"><ele>143.0</ele><time>2026-03-28T08:52:08.837Z</time></trkpt><trkpt lat="45.4454967" lon="10.4834383"><ele>143.0</ele><time>2026-03-28T08:52:09.836Z</time></trkpt><trkpt lat="45.4453733" lon="10.4834033"><ele>143.0</ele><time>2026-03-28T08:52:10.837Z</time></trkpt><trkpt lat="45.445255" lon="10.483385"><ele>143.0</ele><time>2026-03-28T08:52:11.837Z</time></trkpt><trkpt lat="45.4451383" lon="10.4833667"><ele>143.25</ele><time>2026-03-28T08:52:12.837Z</time></trkpt><trkpt lat="45.44502" lon="10.4833483"><ele>143.5</ele><time>2026-03-28T08:52:13.836Z</time></trkpt><trkpt lat="45.4449067" lon="10.4833233"><ele>143.75</ele><time>2026-03-28T08:52:14.836Z</time></trkpt><trkpt lat="45.4447917" lon="10.4833067"><ele>144.0</ele><time>2026-03-28T08:52:15.836Z</time></trkpt><trkpt lat="45.44467" lon="10.4832817"><ele>144.0</ele><time>2026-03-28T08:52:16.836Z</time></trkpt><trkpt lat="45.44454" lon="10.483265"><ele>144.0</ele><time>2026-03-28T08:52:17.836Z</time></trkpt><trkpt lat="45.4444083" lon="10.4832483"><ele>144.0</ele><time>2026-03-28T08:52:18.836Z</time></trkpt><trkpt lat="45.4442683" lon="10.4832333"><ele>144.0</ele><time>2026-03-28T08:52:19.837Z</time></trkpt><trkpt lat="45.4441383" lon="10.4832083"><ele>144.0</ele><time>2026-03-28T08:52:20.837Z</time></trkpt><trkpt lat="45.44402" lon="10.483185"><ele>144.0</ele><time>2026-03-28T08:52:21.836Z</time></trkpt><trkpt lat="45.44392" lon="10.483155"><ele>144.0</ele><time>2026-03-28T08:52:22.836Z</time></trkpt><trkpt lat="45.4438283" lon="10.483115"><ele>144.0</ele><time>2026-03-28T08:52:23.836Z</time></trkpt><trkpt lat="45.443735" lon="10.483085"><ele>144.0</ele><time>2026-03-28T08:52:24.837Z</time></trkpt><trkpt lat="45.4436367" lon="10.4830533"><ele>144.25</ele><time>2026-03-28T08:52:25.836Z</time></trkpt><trkpt lat="45.4435267" lon="10.483035"><ele>144.5</ele><time>2026-03-28T08:52:26.837Z</time></trkpt><trkpt lat="45.44341" lon="10.4830233"><ele>144.75</ele><time>2026-03-28T08:52:27.836Z</time></trkpt><trkpt lat="45.4432917" lon="10.4830167"><ele>145.0</ele><time>2026-03-28T08:52:28.836Z</time></trkpt><trkpt lat="45.443165" lon="10.4830033"><ele>145.0</ele><time>2026-03-28T08:52:29.836Z</time></trkpt><trkpt lat="45.44304" lon="10.48297"><ele>145.0</ele><time>2026-03-28T08:52:30.837Z</time></trkpt><trkpt lat="45.4429167" lon="10.48294"><ele>145.0</ele><time>2026-03-28T08:52:31.836Z</time></trkpt><trkpt lat="45.4427933" lon="10.482905"><ele>145.0</ele><time>2026-03-28T08:52:32.837Z</time></trkpt><trkpt lat="45.442685" lon="10.4828417"><ele>144.0</ele><time>2026-03-28T08:52:33.837Z</time></trkpt><trkpt lat="45.44258" lon="10.4827783"><ele>143.0</ele><time>2026-03-28T08:52:34.836Z</time></trkpt><trkpt lat="45.4424733" lon="10.482715"><ele>142.0</ele><time>2026-03-28T08:52:35.836Z</time></trkpt><trkpt lat="45.4423583" lon="10.4826383"><ele>141.0</ele><time>2026-03-28T08:52:36.836Z</time></trkpt><trkpt lat="45.4422333" lon="10.48255"><ele>141.0</ele><time>2026-03-28T08:52:37.837Z</time></trkpt><trkpt lat="45.442115" lon="10.482465"><ele>141.0</ele><time>2026-03-28T08:52:38.836Z</time></trkpt><trkpt lat="45.4420083" lon="10.48238"><ele>141.0</ele><time>2026-03-28T08:52:39.836Z</time></trkpt><trkpt lat="45.4419017" lon="10.482295"><ele>141.0</ele><time>2026-03-28T08:52:40.837Z</time></trkpt><trkpt lat="45.4418" lon="10.4822183"><ele>141.0</ele><time>2026-03-28T08:52:41.836Z</time></trkpt><trkpt lat="45.4417017" lon="10.482125"><ele>141.0</ele><time>2026-03-28T08:52:42.836Z</time></trkpt><trkpt lat="45.4415917" lon="10.48203"><ele>141.0</ele><time>2026-03-28T08:52:43.837Z</time></trkpt><trkpt lat="45.4414767" lon="10.481945"><ele>141.0</ele><time>2026-03-28T08:52:44.836Z</time></trkpt><trkpt lat="45.4413533" lon="10.48185"><ele>140.25</ele><time>2026-03-28T08:52:45.837Z</time></trkpt><trkpt lat="45.4412383" lon="10.48176"><ele>139.5</ele><time>2026-03-28T08:52:46.836Z</time></trkpt><trkpt lat="45.441125" lon="10.4816667"><ele>138.75</ele><time>2026-03-28T08:52:47.837Z</time></trkpt><trkpt lat="45.4410133" lon="10.4815883"><ele>138.0</ele><time>2026-03-28T08:52:48.836Z</time></trkpt><trkpt lat="45.4409033" lon="10.4815067"><ele>138.0</ele><time>2026-03-28T08:52:49.837Z</time></trkpt><trkpt lat="45.4408" lon="10.4814267"><ele>138.0</ele><time>2026-03-28T08:52:50.837Z</time></trkpt><trkpt lat="45.4407083" lon="10.4813567"><ele>138.0</ele><time>2026-03-28T08:52:51.837Z</time></trkpt><trkpt lat="45.440615" lon="10.4812917"><ele>138.0</ele><time>2026-03-28T08:52:52.836Z</time></trkpt><trkpt lat="45.4405083" lon="10.48121"><ele>138.0</ele><time>2026-03-28T08:52:53.836Z</time></trkpt><trkpt lat="45.440405" lon="10.481145"><ele>137.0</ele><time>2026-03-28T08:52:54.836Z</time></trkpt><trkpt lat="45.4403033" lon="10.48108"><ele>136.0</ele><time>2026-03-28T08:52:55.837Z</time></trkpt><trkpt lat="45.440195" lon="10.4810117"><ele>135.0</ele><time>2026-03-28T08:52:56.836Z</time></trkpt><trkpt lat="45.440085" lon="10.480965"><ele>134.0</ele><time>2026-03-28T08:52:57.837Z</time></trkpt><trkpt lat="45.4399517" lon="10.4809117"><ele>134.0</ele><time>2026-03-28T08:52:58.837Z</time></trkpt><trkpt lat="45.4398317" lon="10.48086"><ele>134.0</ele><time>2026-03-28T08:52:59.837Z</time></trkpt><trkpt lat="45.4397083" lon="10.48084"><ele>134.0</ele><time>2026-03-28T08:53:00.836Z</time></trkpt><trkpt lat="45.43959" lon="10.4808183"><ele>134.0</ele><time>2026-03-28T08:53:01.836Z</time></trkpt><trkpt lat="45.4394783" lon="10.4807883"><ele>134.2</ele><time>2026-03-28T08:53:02.837Z</time></trkpt><trkpt lat="45.4393767" lon="10.48077"><ele>134.4</ele><time>2026-03-28T08:53:03.836Z</time></trkpt><trkpt lat="45.4392867" lon="10.4807483"><ele>134.6</ele><time>2026-03-28T08:53:04.836Z</time></trkpt><trkpt lat="45.439205" lon="10.4807183"><ele>134.8</ele><time>2026-03-28T08:53:05.836Z</time></trkpt><trkpt lat="45.43912" lon="10.4806933"><ele>135.0</ele><time>2026-03-28T08:53:06.837Z</time></trkpt><trkpt lat="45.439025" lon="10.4806717"><ele>135.0</ele><time>2026-03-28T08:53:07.837Z</time></trkpt><trkpt lat="45.4389317" lon="10.4806467"><ele>135.0</ele><time>2026-03-28T08:53:08.837Z</time></trkpt><trkpt lat="45.438845" lon="10.4806167"><ele>135.0</ele><time>2026-03-28T08:53:09.836Z</time></trkpt><trkpt lat="45.43876" lon="10.4805933"><ele>135.0</ele><time>2026-03-28T08:53:10.836Z</time></trkpt><trkpt lat="45.4386883" lon="10.480575"><ele>135.0</ele><time>2026-03-28T08:53:11.837Z</time></trkpt><trkpt lat="45.43862" lon="10.4805633"><ele>135.0</ele><time>2026-03-28T08:53:12.836Z</time></trkpt><trkpt lat="45.438555" lon="10.48055"><ele>134.66666666666666</ele><time>2026-03-28T08:53:13.837Z</time></trkpt><trkpt lat="45.4384833" lon="10.4805333"><ele>134.33333333333334</ele><time>2026-03-28T08:53:14.836Z</time></trkpt><trkpt lat="45.43841" lon="10.4805167"><ele>134.0</ele><time>2026-03-28T08:53:15.836Z</time></trkpt><trkpt lat="45.43833" lon="10.4804867"><ele>133.66666666666669</ele><time>2026-03-28T08:53:16.837Z</time></trkpt><trkpt lat="45.4382367" lon="10.4804617"><ele>133.33333333333334</ele><time>2026-03-28T08:53:17.837Z</time></trkpt><trkpt lat="45.4381367" lon="10.4804467"><ele>133.0</ele><time>2026-03-28T08:53:18.837Z</time></trkpt><trkpt lat="45.43803" lon="10.48043"><ele>132.25</ele><time>2026-03-28T08:53:19.836Z</time></trkpt><trkpt lat="45.4379117" lon="10.480425"><ele>131.5</ele><time>2026-03-28T08:53:20.836Z</time></trkpt><trkpt lat="45.4377783" lon="10.4804283"><ele>130.75</ele><time>2026-03-28T08:53:21.836Z</time></trkpt><trkpt lat="45.4376483" lon="10.4804183"><ele>130.0</ele><time>2026-03-28T08:53:22.837Z</time></trkpt><trkpt lat="45.4374933" lon="10.4804083"><ele>130.0</ele><time>2026-03-28T08:53:23.837Z</time></trkpt><trkpt lat="45.43732" lon="10.4804033"><ele>130.0</ele><time>2026-03-28T08:53:24.836Z</time></trkpt><trkpt lat="45.4371417" lon="10.4804117"><ele>130.0</ele><time>2026-03-28T08:53:25.836Z</time></trkpt><trkpt lat="45.4369583" lon="10.4804283"><ele>130.33333333333334</ele><time>2026-03-28T08:53:26.837Z</time></trkpt><trkpt lat="45.4367817" lon="10.48044"><ele>130.66666666666666</ele><time>2026-03-28T08:53:27.836Z</time></trkpt><trkpt lat="45.436605" lon="10.480455"><ele>131.0</ele><time>2026-03-28T08:53:28.836Z</time></trkpt><trkpt lat="45.4364233" lon="10.4805"><ele>131.0</ele><time>2026-03-28T08:53:29.836Z</time></trkpt><trkpt lat="45.4362467" lon="10.4805833"><ele>131.0</ele><time>2026-03-28T08:53:30.837Z</time></trkpt><trkpt lat="45.4360667" lon="10.480695"><ele>131.0</ele><time>2026-03-28T08:53:31.837Z</time></trkpt><trkpt lat="45.435885" lon="10.48081"><ele>131.0</ele><time>2026-03-28T08:53:32.837Z</time></trkpt><trkpt lat="45.4356933" lon="10.480915"><ele>131.0</ele><time>2026-03-28T08:53:33.836Z</time></trkpt><trkpt lat="45.4354967" lon="10.4810183"><ele>131.0</ele><time>2026-03-28T08:53:34.836Z</time></trkpt><trkpt lat="45.43531" lon="10.4811117"><ele>131.0</ele><time>2026-03-28T08:53:35.836Z</time></trkpt><trkpt lat="45.43512" lon="10.48121"><ele>131.0</ele><time>2026-03-28T08:53:36.836Z</time></trkpt><trkpt lat="45.434925" lon="10.4812883"><ele>131.0</ele><time>2026-03-28T08:53:37.837Z</time></trkpt><trkpt lat="45.4347267" lon="10.4813533"><ele>131.0</ele><time>2026-03-28T08:53:38.837Z</time></trkpt><trkpt lat="45.43453" lon="10.481385"><ele>131.0</ele><time>2026-03-28T08:53:39.837Z</time></trkpt><trkpt lat="45.434325" lon="10.4814117"><ele>131.0</ele><time>2026-03-28T08:53:40.837Z</time></trkpt><trkpt lat="45.4341267" lon="10.4814217"><ele>131.0</ele><time>2026-03-28T08:53:41.836Z</time></trkpt><trkpt lat="45.4339367" lon="10.4814233"><ele>131.0</ele><time>2026-03-28T08:53:42.837Z</time></trkpt><trkpt lat="45.4337467" lon="10.481405"><ele>131.0</ele><time>2026-03-28T08:53:43.836Z</time></trkpt><trkpt lat="45.433565" lon="10.4813483"><ele>131.0</ele><time>2026-03-28T08:53:44.837Z</time></trkpt><trkpt lat="45.4333883" lon="10.481285"><ele>131.0</ele><time>2026-03-28T08:53:45.837Z</time></trkpt><trkpt lat="45.4332067" lon="10.4811917"><ele>131.0</ele><time>2026-03-28T08:53:46.837Z</time></trkpt><trkpt lat="45.433025" lon="10.4810633"><ele>131.33333333333331</ele><time>2026-03-28T08:53:47.836Z</time></trkpt><trkpt lat="45.4328417" lon="10.4809383"><ele>131.66666666666666</ele><time>2026-03-28T08:53:48.837Z</time></trkpt><trkpt lat="45.4326533" lon="10.48082"><ele>132.0</ele><time>2026-03-28T08:53:49.836Z</time></trkpt><trkpt lat="45.4324683" lon="10.4807067"><ele>132.0</ele><time>2026-03-28T08:53:50.837Z</time></trkpt><trkpt lat="45.432285" lon="10.4805933"><ele>132.0</ele><time>2026-03-28T08:53:51.836Z</time></trkpt><trkpt lat="45.432105" lon="10.48048"><ele>132.0</ele><time>2026-03-28T08:53:52.837Z</time></trkpt><trkpt lat="45.43193" lon="10.48037"><ele>131.0</ele><time>2026-03-28T08:53:53.836Z</time></trkpt><trkpt lat="45.4317383" lon="10.4802867"><ele>130.0</ele><time>2026-03-28T08:53:54.836Z</time></trkpt><trkpt lat="45.4315517" lon="10.4802267"><ele>129.0</ele><time>2026-03-28T08:53:55.837Z</time></trkpt><trkpt lat="45.43137" lon="10.48017"><ele>129.0</ele><time>2026-03-28T08:53:56.837Z</time></trkpt><trkpt lat="45.431185" lon="10.480125"><ele>129.0</ele><time>2026-03-28T08:53:57.837Z</time></trkpt><trkpt lat="45.4310067" lon="10.4800817"><ele>129.0</ele><time>2026-03-28T08:53:58.836Z</time></trkpt><trkpt lat="45.4308417" lon="10.480045"><ele>129.0</ele><time>2026-03-28T08:53:59.836Z</time></trkpt><trkpt lat="45.4306867" lon="10.4800133"><ele>129.0</ele><time>2026-03-28T08:54:00.836Z</time></trkpt><trkpt lat="45.4305317" lon="10.4799917"><ele>129.0</ele><time>2026-03-28T08:54:01.837Z</time></trkpt><trkpt lat="45.4303983" lon="10.47997"><ele>129.0</ele><time>2026-03-28T08:54:02.836Z</time></trkpt><trkpt lat="45.430265" lon="10.4799433"><ele>129.5</ele><time>2026-03-28T08:54:03.837Z</time></trkpt><trkpt lat="45.430135" lon="10.4799183"><ele>130.0</ele><time>2026-03-28T08:54:04.836Z</time></trkpt><trkpt lat="45.4300167" lon="10.4798883"><ele>130.5</ele><time>2026-03-28T08:54:05.837Z</time></trkpt><trkpt lat="45.42989" lon="10.4798683"><ele>131.0</ele><time>2026-03-28T08:54:06.837Z</time></trkpt><trkpt lat="45.4297633" lon="10.479845"><ele>130.25</ele><time>2026-03-28T08:54:07.836Z</time></trkpt><trkpt lat="45.4296367" lon="10.47981"><ele>129.5</ele><time>2026-03-28T08:54:08.837Z</time></trkpt><trkpt lat="45.4295067" lon="10.4797717"><ele>128.75</ele><time>2026-03-28T08:54:09.836Z</time></trkpt><trkpt lat="45.4293617" lon="10.4797433"><ele>128.0</ele><time>2026-03-28T08:54:10.836Z</time></trkpt><trkpt lat="45.4292167" lon="10.4797283"><ele>128.0</ele><time>2026-03-28T08:54:11.836Z</time></trkpt><trkpt lat="45.4290683" lon="10.47971"><ele>128.0</ele><time>2026-03-28T08:54:12.836Z</time></trkpt><trkpt lat="45.4289033" lon="10.4797117"><ele>128.0</ele><time>2026-03-28T08:54:13.837Z</time></trkpt><trkpt lat="45.4287267" lon="10.4797183"><ele>127.0</ele><time>2026-03-28T08:54:14.836Z</time></trkpt><trkpt lat="45.4285533" lon="10.4797183"><ele>126.0</ele><time>2026-03-28T08:54:15.836Z</time></trkpt><trkpt lat="45.4283783" lon="10.4797317"><ele>125.0</ele><time>2026-03-28T08:54:16.837Z</time></trkpt><trkpt lat="45.4282033" lon="10.479725"><ele>125.0</ele><time>2026-03-28T08:54:17.836Z</time></trkpt><trkpt lat="45.4280383" lon="10.4797283"><ele>125.0</ele><time>2026-03-28T08:54:18.837Z</time></trkpt><trkpt lat="45.427885" lon="10.4797383"><ele>125.0</ele><time>2026-03-28T08:54:19.836Z</time></trkpt><trkpt lat="45.42775" lon="10.479735"><ele>125.25</ele><time>2026-03-28T08:54:20.836Z</time></trkpt><trkpt lat="45.4276133" lon="10.4797267"><ele>125.5</ele><time>2026-03-28T08:54:21.836Z</time></trkpt><trkpt lat="45.4274733" lon="10.4797117"><ele>125.75</ele><time>2026-03-28T08:54:22.836Z</time></trkpt><trkpt lat="45.427325" lon="10.4796867"><ele>126.0</ele><time>2026-03-28T08:54:23.836Z</time></trkpt><trkpt lat="45.4271733" lon="10.4796467"><ele>126.0</ele><time>2026-03-28T08:54:24.836Z</time></trkpt><trkpt lat="45.42701" lon="10.4796283"><ele>126.0</ele><time>2026-03-28T08:54:25.837Z</time></trkpt><trkpt lat="45.426845" lon="10.479595"><ele>126.0</ele><time>2026-03-28T08:54:26.837Z</time></trkpt><trkpt lat="45.4266667" lon="10.4795617"><ele>125.33333333333334</ele><time>2026-03-28T08:54:27.836Z</time></trkpt><trkpt lat="45.4265" lon="10.4795183"><ele>124.66666666666667</ele><time>2026-03-28T08:54:28.836Z</time></trkpt><trkpt lat="45.4263383" lon="10.4794633"><ele>124.0</ele><time>2026-03-28T08:54:29.837Z</time></trkpt><trkpt lat="45.426175" lon="10.479415"><ele>124.0</ele><time>2026-03-28T08:54:30.837Z</time></trkpt><trkpt lat="45.42601" lon="10.4793467"><ele>124.0</ele><time>2026-03-28T08:54:31.837Z</time></trkpt><trkpt lat="45.4258417" lon="10.4792883"><ele>124.0</ele><time>2026-03-28T08:54:32.836Z</time></trkpt><trkpt lat="45.42567" lon="10.4792333"><ele>124.0</ele><time>2026-03-28T08:54:33.836Z</time></trkpt><trkpt lat="45.4254967" lon="10.47918"><ele>124.0</ele><time>2026-03-28T08:54:34.836Z</time></trkpt><trkpt lat="45.4253233" lon="10.4791167"><ele>124.0</ele><time>2026-03-28T08:54:35.837Z</time></trkpt><trkpt lat="45.42515" lon="10.4790567"><ele>124.33333333333334</ele><time>2026-03-28T08:54:36.837Z</time></trkpt><trkpt lat="45.42498" lon="10.479"><ele>124.66666666666666</ele><time>2026-03-28T08:54:37.837Z</time></trkpt><trkpt lat="45.4248167" lon="10.478945"><ele>125.0</ele><time>2026-03-28T08:54:38.836Z</time></trkpt><trkpt lat="45.424655" lon="10.4788833"><ele>124.75</ele><time>2026-03-28T08:54:39.837Z</time></trkpt><trkpt lat="45.4245067" lon="10.4788233"><ele>124.5</ele><time>2026-03-28T08:54:40.837Z</time></trkpt><trkpt lat="45.4243717" lon="10.4787717"><ele>124.25</ele><time>2026-03-28T08:54:41.837Z</time></trkpt><trkpt lat="45.424245" lon="10.4787133"><ele>124.0</ele><time>2026-03-28T08:54:42.836Z</time></trkpt><trkpt lat="45.42412" lon="10.4786717"><ele>123.75</ele><time>2026-03-28T08:54:43.836Z</time></trkpt><trkpt lat="45.424" lon="10.47862"><ele>123.5</ele><time>2026-03-28T08:54:44.837Z</time></trkpt><trkpt lat="45.4238783" lon="10.4785667"><ele>123.25</ele><time>2026-03-28T08:54:45.836Z</time></trkpt><trkpt lat="45.4237567" lon="10.4785117"><ele>123.0</ele><time>2026-03-28T08:54:46.836Z</time></trkpt><trkpt lat="45.4236417" lon="10.4784417"><ele>123.0</ele><time>2026-03-28T08:54:47.837Z</time></trkpt><trkpt lat="45.4235183" lon="10.4783867"><ele>123.0</ele><time>2026-03-28T08:54:48.837Z</time></trkpt><trkpt lat="45.4233917" lon="10.4783283"><ele>123.0</ele><time>2026-03-28T08:54:49.836Z</time></trkpt><trkpt lat="45.4232617" lon="10.4782783"><ele>123.0</ele><time>2026-03-28T08:54:50.836Z</time></trkpt><trkpt lat="45.4231233" lon="10.478215"><ele>123.66666666666666</ele><time>2026-03-28T08:54:51.836Z</time></trkpt><trkpt lat="45.422965" lon="10.478125"><ele>124.33333333333333</ele><time>2026-03-28T08:54:52.836Z</time></trkpt><trkpt lat="45.4228017" lon="10.4780483"><ele>125.0</ele><time>2026-03-28T08:54:53.837Z</time></trkpt><trkpt lat="45.4226233" lon="10.4779417"><ele>123.0</ele><time>2026-03-28T08:54:54.837Z</time></trkpt><trkpt lat="45.422435" lon="10.4778483"><ele>121.0</ele><time>2026-03-28T08:54:55.837Z</time></trkpt><trkpt lat="45.4222533" lon="10.4777583"><ele>119.0</ele><time>2026-03-28T08:54:56.836Z</time></trkpt><trkpt lat="45.4220733" lon="10.477655"><ele>119.0</ele><time>2026-03-28T08:54:57.837Z</time></trkpt><trkpt lat="45.421885" lon="10.47754"><ele>119.0</ele><time>2026-03-28T08:54:58.837Z</time></trkpt><trkpt lat="45.4217067" lon="10.47743"><ele>119.0</ele><time>2026-03-28T08:54:59.836Z</time></trkpt><trkpt lat="45.4215283" lon="10.477325"><ele>119.0</ele><time>2026-03-28T08:55:00.836Z</time></trkpt><trkpt lat="45.421345" lon="10.4772433"><ele>119.0</ele><time>2026-03-28T08:55:01.837Z</time></trkpt><trkpt lat="45.4211567" lon="10.4771917"><ele>119.0</ele><time>2026-03-28T08:55:02.836Z</time></trkpt><trkpt lat="45.4209683" lon="10.477145"><ele>118.0</ele><time>2026-03-28T08:55:03.836Z</time></trkpt><trkpt lat="45.420775" lon="10.4770967"><ele>117.0</ele><time>2026-03-28T08:55:04.836Z</time></trkpt><trkpt lat="45.420585" lon="10.477055"><ele>116.0</ele><time>2026-03-28T08:55:05.837Z</time></trkpt><trkpt lat="45.4204067" lon="10.4770117"><ele>115.66666666666666</ele><time>2026-03-28T08:55:06.836Z</time></trkpt><trkpt lat="45.420225" lon="10.4769733"><ele>115.33333333333334</ele><time>2026-03-28T08:55:07.837Z</time></trkpt><trkpt lat="45.4200517" lon="10.4769233"><ele>115.0</ele><time>2026-03-28T08:55:08.837Z</time></trkpt><trkpt lat="45.4198867" lon="10.4768733"><ele>115.0</ele><time>2026-03-28T08:55:09.837Z</time></trkpt><trkpt lat="45.419725" lon="10.4768317"><ele>115.0</ele><time>2026-03-28T08:55:10.836Z</time></trkpt><trkpt lat="45.419575" lon="10.476805"><ele>115.0</ele><time>2026-03-28T08:55:11.837Z</time></trkpt><trkpt lat="45.4194333" lon="10.4767767"><ele>115.4</ele><time>2026-03-28T08:55:12.836Z</time></trkpt><trkpt lat="45.419305" lon="10.4767433"><ele>115.8</ele><time>2026-03-28T08:55:13.837Z</time></trkpt><trkpt lat="45.4191933" lon="10.4767083"><ele>116.19999999999999</ele><time>2026-03-28T08:55:14.837Z</time></trkpt><trkpt lat="45.4190983" lon="10.47668"><ele>116.6</ele><time>2026-03-28T08:55:15.837Z</time></trkpt><trkpt lat="45.4190317" lon="10.4766567"><ele>117.0</ele><time>2026-03-28T08:55:16.836Z</time></trkpt><trkpt lat="45.4189217" lon="10.47663"><ele>117.0</ele><time>2026-03-28T08:55:18.837Z</time></trkpt><trkpt lat="45.4188583" lon="10.4766133"><ele>117.0</ele><time>2026-03-28T08:55:19.837Z</time></trkpt><trkpt lat="45.4187817" lon="10.4766"><ele>117.0</ele><time>2026-03-28T08:55:20.837Z</time></trkpt><trkpt lat="45.4186833" lon="10.4766417"><ele>117.0</ele><time>2026-03-28T08:55:22.837Z</time></trkpt><trkpt lat="45.4186517" lon="10.4768033"><ele>117.0</ele><time>2026-03-28T08:55:24.836Z</time></trkpt><trkpt lat="45.4186533" lon="10.47691"><ele>117.0</ele><time>2026-03-28T08:55:25.837Z</time></trkpt><trkpt lat="45.4186383" lon="10.4770267"><ele>117.6</ele><time>2026-03-28T08:55:26.836Z</time></trkpt><trkpt lat="45.4186033" lon="10.47715"><ele>118.19999999999999</ele><time>2026-03-28T08:55:27.837Z</time></trkpt><trkpt lat="45.41855" lon="10.477285"><ele>118.8</ele><time>2026-03-28T08:55:28.837Z</time></trkpt><trkpt lat="45.418485" lon="10.4774183"><ele>119.4</ele><time>2026-03-28T08:55:29.837Z</time></trkpt><trkpt lat="45.4184167" lon="10.4775333"><ele>120.0</ele><time>2026-03-28T08:55:30.836Z</time></trkpt><trkpt lat="45.4183467" lon="10.4776533"><ele>120.0</ele><time>2026-03-28T08:55:31.837Z</time></trkpt><trkpt lat="45.41826" lon="10.47776"><ele>120.0</ele><time>2026-03-28T08:55:32.837Z</time></trkpt><trkpt lat="45.41818" lon="10.47789"><ele>120.0</ele><time>2026-03-28T08:55:33.837Z</time></trkpt><trkpt lat="45.4181133" lon="10.4780433"><ele>120.0</ele><time>2026-03-28T08:55:34.836Z</time></trkpt><trkpt lat="45.418055" lon="10.478215"><ele>119.5</ele><time>2026-03-28T08:55:35.837Z</time></trkpt><trkpt lat="45.418015" lon="10.47841"><ele>119.0</ele><time>2026-03-28T08:55:36.836Z</time></trkpt><trkpt lat="45.417975" lon="10.4786217"><ele>118.5</ele><time>2026-03-28T08:55:37.837Z</time></trkpt><trkpt lat="45.4179417" lon="10.478825"><ele>118.0</ele><time>2026-03-28T08:55:38.837Z</time></trkpt><trkpt lat="45.4179" lon="10.4790217"><ele>119.0</ele><time>2026-03-28T08:55:39.837Z</time></trkpt><trkpt lat="45.4178617" lon="10.47921"><ele>120.0</ele><time>2026-03-28T08:55:40.836Z</time></trkpt><trkpt lat="45.4178483" lon="10.479375"><ele>121.0</ele><time>2026-03-28T08:55:41.836Z</time></trkpt><trkpt lat="45.41788" lon="10.4795267"><ele>122.0</ele><time>2026-03-28T08:55:42.836Z</time></trkpt><trkpt lat="45.41795" lon="10.4796833"><ele>126.0</ele><time>2026-03-28T08:55:43.836Z</time></trkpt><trkpt lat="45.4180233" lon="10.4798417"><ele>130.0</ele><time>2026-03-28T08:55:44.837Z</time></trkpt><trkpt lat="45.4180883" lon="10.4800217"><ele>134.0</ele><time>2026-03-28T08:55:45.837Z</time></trkpt><trkpt lat="45.418155" lon="10.480225"><ele>138.0</ele><time>2026-03-28T08:55:46.837Z</time></trkpt><trkpt lat="45.418215" lon="10.4804117"><ele>135.25</ele><time>2026-03-28T08:55:47.837Z</time></trkpt><trkpt lat="45.4182767" lon="10.4805833"><ele>132.5</ele><time>2026-03-28T08:55:48.836Z</time></trkpt><trkpt lat="45.4183667" lon="10.4807383"><ele>129.75</ele><time>2026-03-28T08:55:49.836Z</time></trkpt><trkpt lat="45.4184767" lon="10.48084"><ele>127.0</ele><time>2026-03-28T08:55:50.836Z</time></trkpt><trkpt lat="45.418575" lon="10.48095"><ele>127.0</ele><time>2026-03-28T08:55:51.836Z</time></trkpt><trkpt lat="45.4186617" lon="10.4810567"><ele>126.99999999999999</ele><time>2026-03-28T08:55:52.836Z</time></trkpt><trkpt lat="45.41872" lon="10.48116"><ele>126.99999999999999</ele><time>2026-03-28T08:55:53.837Z</time></trkpt><trkpt lat="45.4187583" lon="10.4812667"><ele>127.0</ele><time>2026-03-28T08:55:54.837Z</time></trkpt><trkpt lat="45.418775" lon="10.4813833"><ele>127.0</ele><time>2026-03-28T08:55:55.837Z</time></trkpt><trkpt lat="45.41876" lon="10.481495"><ele>127.00000000000001</ele><time>2026-03-28T08:55:56.836Z</time></trkpt><trkpt lat="45.4187317" lon="10.4815917"><ele>127.0</ele><time>2026-03-28T08:55:57.837Z</time></trkpt><trkpt lat="45.4187017" lon="10.481675"><ele>127.0</ele><time>2026-03-28T08:55:58.837Z</time></trkpt><trkpt lat="45.4186767" lon="10.4818033"><ele>127.0</ele><time>2026-03-28T08:56:00.837Z</time></trkpt><trkpt lat="45.418685" lon="10.481905"><ele>127.00000000000001</ele><time>2026-03-28T08:56:02.837Z</time></trkpt><trkpt lat="45.41876" lon="10.482045"><ele>127.0</ele><time>2026-03-28T08:56:04.836Z</time></trkpt><trkpt lat="45.4187867" lon="10.482135"><ele>127.0</ele><time>2026-03-28T08:56:05.836Z</time></trkpt><trkpt lat="45.4187983" lon="10.4822467"><ele>126.99999999999999</ele><time>2026-03-28T08:56:06.836Z</time></trkpt><trkpt lat="45.418805" lon="10.48237"><ele>126.99999999999999</ele><time>2026-03-28T08:56:07.837Z</time></trkpt><trkpt lat="45.4188083" lon="10.4825"><ele>127.0</ele><time>2026-03-28T08:56:08.836Z</time></trkpt><trkpt lat="45.41882" lon="10.4826383"><ele>127.0</ele><time>2026-03-28T08:56:09.836Z</time></trkpt><trkpt lat="45.4188283" lon="10.4827767"><ele>126.6</ele><time>2026-03-28T08:56:10.837Z</time></trkpt><trkpt lat="45.4188333" lon="10.48291"><ele>126.19999999999999</ele><time>2026-03-28T08:56:11.836Z</time></trkpt><trkpt lat="45.41884" lon="10.483035"><ele>125.8</ele><time>2026-03-28T08:56:12.837Z</time></trkpt><trkpt lat="45.4188967" lon="10.4831467"><ele>125.4</ele><time>2026-03-28T08:56:13.836Z</time></trkpt><trkpt lat="45.41897" lon="10.483225"><ele>125.0</ele><time>2026-03-28T08:56:14.836Z</time></trkpt><trkpt lat="45.4190467" lon="10.4832917"><ele>124.99999999999999</ele><time>2026-03-28T08:56:15.836Z</time></trkpt><trkpt lat="45.4191267" lon="10.4833633"><ele>125.0</ele><time>2026-03-28T08:56:16.836Z</time></trkpt><trkpt lat="45.419205" lon="10.4834433"><ele>125.0</ele><time>2026-03-28T08:56:17.836Z</time></trkpt><trkpt lat="45.4192733" lon="10.4835217"><ele>125.0</ele><time>2026-03-28T08:56:18.836Z</time></trkpt><trkpt lat="45.4193283" lon="10.4835933"><ele>124.99999999999999</ele><time>2026-03-28T08:56:19.836Z</time></trkpt><trkpt lat="45.41937" lon="10.4836717"><ele>125.0</ele><time>2026-03-28T08:56:20.837Z</time></trkpt><trkpt lat="45.419395" lon="10.4838417"><ele>125.6</ele><time>2026-03-28T08:56:22.836Z</time></trkpt><trkpt lat="45.4193717" lon="10.4840133"><ele>126.2</ele><time>2026-03-28T08:56:24.836Z</time></trkpt><trkpt lat="45.41936" lon="10.4841017"><ele>126.80000000000001</ele><time>2026-03-28T08:56:25.837Z</time></trkpt><trkpt lat="45.41934" lon="10.484285"><ele>127.4</ele><time>2026-03-28T08:56:27.837Z</time></trkpt><trkpt lat="45.4193433" lon="10.4843767"><ele>128.0</ele><time>2026-03-28T08:56:28.836Z</time></trkpt><trkpt lat="45.41936" lon="10.4845317"><ele>128.0</ele><time>2026-03-28T08:56:30.836Z</time></trkpt><trkpt lat="45.4193983" lon="10.4846533"><ele>128.0</ele><time>2026-03-28T08:56:32.837Z</time></trkpt><trkpt lat="45.41948" lon="10.48478"><ele>128.0</ele><time>2026-03-28T08:56:34.836Z</time></trkpt><trkpt lat="45.4195367" lon="10.4848517"><ele>128.0</ele><time>2026-03-28T08:56:35.837Z</time></trkpt><trkpt lat="45.4195983" lon="10.484925"><ele>128.0</ele><time>2026-03-28T08:56:36.837Z</time></trkpt><trkpt lat="45.4196583" lon="10.4850017"><ele>128.0</ele><time>2026-03-28T08:56:37.837Z</time></trkpt><trkpt lat="45.419725" lon="10.485075"><ele>128.0</ele><time>2026-03-28T08:56:38.837Z</time></trkpt><trkpt lat="45.419795" lon="10.4851417"><ele>128.0</ele><time>2026-03-28T08:56:39.836Z</time></trkpt><trkpt lat="45.41988" lon="10.48521"><ele>128.0</ele><time>2026-03-28T08:56:40.837Z</time></trkpt><trkpt lat="45.4199683" lon="10.4852767"><ele>128.0</ele><time>2026-03-28T08:56:41.836Z</time></trkpt><trkpt lat="45.4200667" lon="10.4853483"><ele>128.0</ele><time>2026-03-28T08:56:42.837Z</time></trkpt><trkpt lat="45.42017" lon="10.4854167"><ele>128.0</ele><time>2026-03-28T08:56:43.837Z</time></trkpt><trkpt lat="45.420285" lon="10.4854733"><ele>128.0</ele><time>2026-03-28T08:56:44.837Z</time></trkpt><trkpt lat="45.420405" lon="10.4855067"><ele>128.0</ele><time>2026-03-28T08:56:45.837Z</time></trkpt><trkpt lat="45.4205133" lon="10.4855467"><ele>130.75</ele><time>2026-03-28T08:56:46.837Z</time></trkpt><trkpt lat="45.420625" lon="10.4855683"><ele>133.5</ele><time>2026-03-28T08:56:47.836Z</time></trkpt><trkpt lat="45.4207433" lon="10.4855633"><ele>136.25</ele><time>2026-03-28T08:56:48.837Z</time></trkpt><trkpt lat="45.4208683" lon="10.4855517"><ele>139.0</ele><time>2026-03-28T08:56:49.836Z</time></trkpt><trkpt lat="45.4209967" lon="10.48554"><ele>139.0</ele><time>2026-03-28T08:56:50.836Z</time></trkpt><trkpt lat="45.42113" lon="10.4855317"><ele>139.0</ele><time>2026-03-28T08:56:51.837Z</time></trkpt><trkpt lat="45.421265" lon="10.485535"><ele>139.0</ele><time>2026-03-28T08:56:52.836Z</time></trkpt><trkpt lat="45.4214" lon="10.48556"><ele>139.0</ele><time>2026-03-28T08:56:53.837Z</time></trkpt><trkpt lat="45.4215333" lon="10.4856"><ele>139.25</ele><time>2026-03-28T08:56:54.836Z</time></trkpt><trkpt lat="45.42167" lon="10.4856467"><ele>139.5</ele><time>2026-03-28T08:56:55.837Z</time></trkpt><trkpt lat="45.421805" lon="10.4856967"><ele>139.75</ele><time>2026-03-28T08:56:56.837Z</time></trkpt><trkpt lat="45.4219233" lon="10.4857367"><ele>140.0</ele><time>2026-03-28T08:56:57.836Z</time></trkpt><trkpt lat="45.4220333" lon="10.48578"><ele>140.0</ele><time>2026-03-28T08:56:58.836Z</time></trkpt><trkpt lat="45.4221333" lon="10.485845"><ele>140.0</ele><time>2026-03-28T08:56:59.837Z</time></trkpt><trkpt lat="45.422215" lon="10.4859267"><ele>140.0</ele><time>2026-03-28T08:57:00.837Z</time></trkpt><trkpt lat="45.42229" lon="10.4860317"><ele>140.0</ele><time>2026-03-28T08:57:01.836Z</time></trkpt><trkpt lat="45.4223467" lon="10.486155"><ele>140.0</ele><time>2026-03-28T08:57:02.836Z</time></trkpt><trkpt lat="45.4223933" lon="10.4862917"><ele>140.8</ele><time>2026-03-28T08:57:03.837Z</time></trkpt><trkpt lat="45.4224283" lon="10.48643"><ele>141.6</ele><time>2026-03-28T08:57:04.836Z</time></trkpt><trkpt lat="45.4224517" lon="10.48657"><ele>142.4</ele><time>2026-03-28T08:57:05.836Z</time></trkpt><trkpt lat="45.4224467" lon="10.4867117"><ele>143.2</ele><time>2026-03-28T08:57:06.836Z</time></trkpt><trkpt lat="45.4224317" lon="10.4868867"><ele>144.0</ele><time>2026-03-28T08:57:07.836Z</time></trkpt><trkpt lat="45.4224183" lon="10.4870717"><ele>144.75</ele><time>2026-03-28T08:57:08.837Z</time></trkpt><trkpt lat="45.4224033" lon="10.4872683"><ele>145.5</ele><time>2026-03-28T08:57:09.837Z</time></trkpt><trkpt lat="45.422395" lon="10.4874583"><ele>146.25</ele><time>2026-03-28T08:57:10.837Z</time></trkpt><trkpt lat="45.4223967" lon="10.48765"><ele>147.0</ele><time>2026-03-28T08:57:11.836Z</time></trkpt><trkpt lat="45.4224217" lon="10.4878317"><ele>147.75</ele><time>2026-03-28T08:57:12.837Z</time></trkpt><trkpt lat="45.4224617" lon="10.488"><ele>148.5</ele><time>2026-03-28T08:57:13.836Z</time></trkpt><trkpt lat="45.4225167" lon="10.48816"><ele>149.25</ele><time>2026-03-28T08:57:14.836Z</time></trkpt><trkpt lat="45.4225883" lon="10.4882883"><ele>150.0</ele><time>2026-03-28T08:57:15.837Z</time></trkpt><trkpt lat="45.4226767" lon="10.48839"><ele>150.0</ele><time>2026-03-28T08:57:16.837Z</time></trkpt><trkpt lat="45.4227767" lon="10.48849"><ele>150.0</ele><time>2026-03-28T08:57:17.836Z</time></trkpt><trkpt lat="45.4228917" lon="10.4885883"><ele>150.0</ele><time>2026-03-28T08:57:18.837Z</time></trkpt><trkpt lat="45.42303" lon="10.4886917"><ele>150.0</ele><time>2026-03-28T08:57:19.836Z</time></trkpt><trkpt lat="45.4231633" lon="10.4888"><ele>151.0</ele><time>2026-03-28T08:57:20.836Z</time></trkpt><trkpt lat="45.4233183" lon="10.4889067"><ele>152.0</ele><time>2026-03-28T08:57:21.837Z</time></trkpt><trkpt lat="45.4234633" lon="10.4890117"><ele>153.0</ele><time>2026-03-28T08:57:22.836Z</time></trkpt><trkpt lat="45.4235967" lon="10.4891317"><ele>153.0</ele><time>2026-03-28T08:57:23.837Z</time></trkpt><trkpt lat="45.4237233" lon="10.4892533"><ele>153.0</ele><time>2026-03-28T08:57:24.837Z</time></trkpt><trkpt lat="45.4238467" lon="10.4893883"><ele>153.0</ele><time>2026-03-28T08:57:25.836Z</time></trkpt><trkpt lat="45.4239683" lon="10.4895283"><ele>152.66666666666666</ele><time>2026-03-28T08:57:26.837Z</time></trkpt><trkpt lat="45.4240783" lon="10.4896817"><ele>152.33333333333331</ele><time>2026-03-28T08:57:27.836Z</time></trkpt><trkpt lat="45.42419" lon="10.4898333"><ele>152.0</ele><time>2026-03-28T08:57:28.836Z</time></trkpt><trkpt lat="45.4243" lon="10.4899833"><ele>152.0</ele><time>2026-03-28T08:57:29.837Z</time></trkpt><trkpt lat="45.4244117" lon="10.49014"><ele>152.0</ele><time>2026-03-28T08:57:30.836Z</time></trkpt><trkpt lat="45.4245283" lon="10.4903"><ele>152.0</ele><time>2026-03-28T08:57:31.836Z</time></trkpt><trkpt lat="45.4246433" lon="10.4904567"><ele>153.25</ele><time>2026-03-28T08:57:32.837Z</time></trkpt><trkpt lat="45.42475" lon="10.4905983"><ele>154.5</ele><time>2026-03-28T08:57:33.836Z</time></trkpt><trkpt lat="45.4248483" lon="10.4907217"><ele>155.75</ele><time>2026-03-28T08:57:34.836Z</time></trkpt><trkpt lat="45.4249267" lon="10.4908333"><ele>157.0</ele><time>2026-03-28T08:57:35.837Z</time></trkpt><trkpt lat="45.424985" lon="10.490945"><ele>157.0</ele><time>2026-03-28T08:57:36.836Z</time></trkpt><trkpt lat="45.42503" lon="10.4910583"><ele>157.0</ele><time>2026-03-28T08:57:37.837Z</time></trkpt><trkpt lat="45.4250533" lon="10.4911833"><ele>157.0</ele><time>2026-03-28T08:57:38.836Z</time></trkpt><trkpt lat="45.4250783" lon="10.4913117"><ele>157.0</ele><time>2026-03-28T08:57:39.837Z</time></trkpt><trkpt lat="45.425085" lon="10.4914517"><ele>157.0</ele><time>2026-03-28T08:57:40.836Z</time></trkpt><trkpt lat="45.4250683" lon="10.4916067"><ele>156.2</ele><time>2026-03-28T08:57:41.837Z</time></trkpt><trkpt lat="45.4250517" lon="10.491755"><ele>155.39999999999998</ele><time>2026-03-28T08:57:42.836Z</time></trkpt><trkpt lat="45.42505" lon="10.4918983"><ele>154.60000000000002</ele><time>2026-03-28T08:57:43.837Z</time></trkpt><trkpt lat="45.4250517" lon="10.49204"><ele>153.8</ele><time>2026-03-28T08:57:44.837Z</time></trkpt><trkpt lat="45.425055" lon="10.4921967"><ele>153.0</ele><time>2026-03-28T08:57:45.836Z</time></trkpt><trkpt lat="45.42506" lon="10.4923517"><ele>152.16666666666666</ele><time>2026-03-28T08:57:46.836Z</time></trkpt><trkpt lat="45.4250733" lon="10.4924817"><ele>151.33333333333334</ele><time>2026-03-28T08:57:47.836Z</time></trkpt><trkpt lat="45.4250917" lon="10.4925933"><ele>150.5</ele><time>2026-03-28T08:57:48.837Z</time></trkpt><trkpt lat="45.4251167" lon="10.49269"><ele>149.66666666666669</ele><time>2026-03-28T08:57:49.837Z</time></trkpt><trkpt lat="45.4251583" lon="10.4927817"><ele>148.83333333333334</ele><time>2026-03-28T08:57:50.837Z</time></trkpt><trkpt lat="45.425205" lon="10.49285"><ele>148.0</ele><time>2026-03-28T08:57:51.836Z</time></trkpt><trkpt lat="45.4252933" lon="10.4929217"><ele>147.25</ele><time>2026-03-28T08:57:52.836Z</time></trkpt><trkpt lat="45.4254033" lon="10.4929833"><ele>146.5</ele><time>2026-03-28T08:57:53.837Z</time></trkpt><trkpt lat="45.4255233" lon="10.49305"><ele>145.75</ele><time>2026-03-28T08:57:54.836Z</time></trkpt><trkpt lat="45.425665" lon="10.4931283"><ele>145.0</ele><time>2026-03-28T08:57:55.837Z</time></trkpt><trkpt lat="45.4258233" lon="10.4932283"><ele>145.0</ele><time>2026-03-28T08:57:56.837Z</time></trkpt><trkpt lat="45.425985" lon="10.4933333"><ele>145.0</ele><time>2026-03-28T08:57:57.836Z</time></trkpt><trkpt lat="45.4261483" lon="10.493435"><ele>145.0</ele><time>2026-03-28T08:57:58.837Z</time></trkpt><trkpt lat="45.4263117" lon="10.4935317"><ele>144.0</ele><time>2026-03-28T08:57:59.836Z</time></trkpt><trkpt lat="45.4264667" lon="10.4936317"><ele>143.0</ele><time>2026-03-28T08:58:00.836Z</time></trkpt><trkpt lat="45.4266117" lon="10.49374"><ele>142.0</ele><time>2026-03-28T08:58:01.837Z</time></trkpt><trkpt lat="45.4267533" lon="10.4938533"><ele>142.0</ele><time>2026-03-28T08:58:02.837Z</time></trkpt><trkpt lat="45.42687" lon="10.4939483"><ele>142.0</ele><time>2026-03-28T08:58:03.836Z</time></trkpt><trkpt lat="45.426965" lon="10.4940267"><ele>142.0</ele><time>2026-03-28T08:58:04.836Z</time></trkpt><trkpt lat="45.4270567" lon="10.4940817"><ele>142.0</ele><time>2026-03-28T08:58:05.836Z</time></trkpt><trkpt lat="45.4271317" lon="10.4941083"><ele>142.0</ele><time>2026-03-28T08:58:06.836Z</time></trkpt><trkpt lat="45.4272233" lon="10.4941217"><ele>142.75</ele><time>2026-03-28T08:58:07.837Z</time></trkpt><trkpt lat="45.42734" lon="10.49411"><ele>143.5</ele><time>2026-03-28T08:58:08.836Z</time></trkpt><trkpt lat="45.42747" lon="10.4940933"><ele>144.25</ele><time>2026-03-28T08:58:09.836Z</time></trkpt><trkpt lat="45.427605" lon="10.4940667"><ele>145.0</ele><time>2026-03-28T08:58:10.836Z</time></trkpt><trkpt lat="45.427745" lon="10.4940417"><ele>145.0</ele><time>2026-03-28T08:58:11.837Z</time></trkpt><trkpt lat="45.4278667" lon="10.4940217"><ele>145.0</ele><time>2026-03-28T08:58:12.837Z</time></trkpt><trkpt lat="45.42798" lon="10.494005"><ele>145.0</ele><time>2026-03-28T08:58:13.836Z</time></trkpt><trkpt lat="45.4280917" lon="10.4940117"><ele>145.0</ele><time>2026-03-28T08:58:14.837Z</time></trkpt><trkpt lat="45.4281817" lon="10.4940317"><ele>145.0</ele><time>2026-03-28T08:58:15.837Z</time></trkpt><trkpt lat="45.4282767" lon="10.4940533"><ele>145.5</ele><time>2026-03-28T08:58:16.837Z</time></trkpt><trkpt lat="45.4283717" lon="10.4940883"><ele>146.0</ele><time>2026-03-28T08:58:17.837Z</time></trkpt><trkpt lat="45.4284483" lon="10.494125"><ele>146.5</ele><time>2026-03-28T08:58:18.836Z</time></trkpt><trkpt lat="45.4285133" lon="10.49415"><ele>147.0</ele><time>2026-03-28T08:58:19.837Z</time></trkpt><trkpt lat="45.42859" lon="10.494185"><ele>147.5</ele><time>2026-03-28T08:58:20.836Z</time></trkpt><trkpt lat="45.4286717" lon="10.494235"><ele>148.0</ele><time>2026-03-28T08:58:21.836Z</time></trkpt><trkpt lat="45.4287717" lon="10.494295"><ele>148.5</ele><time>2026-03-28T08:58:22.836Z</time></trkpt><trkpt lat="45.4288833" lon="10.4943767"><ele>149.0</ele><time>2026-03-28T08:58:23.836Z</time></trkpt><trkpt lat="45.4290117" lon="10.4944633"><ele>149.5</ele><time>2026-03-28T08:58:24.836Z</time></trkpt><trkpt lat="45.4291533" lon="10.494555"><ele>150.0</ele><time>2026-03-28T08:58:25.837Z</time></trkpt><trkpt lat="45.4292817" lon="10.4946333"><ele>148.0</ele><time>2026-03-28T08:58:26.837Z</time></trkpt><trkpt lat="45.4294167" lon="10.494725"><ele>146.0</ele><time>2026-03-28T08:58:27.837Z</time></trkpt><trkpt lat="45.4295567" lon="10.4948233"><ele>144.0</ele><time>2026-03-28T08:58:28.836Z</time></trkpt><trkpt lat="45.429695" lon="10.4949533"><ele>148.0</ele><time>2026-03-28T08:58:29.837Z</time></trkpt><trkpt lat="45.4298367" lon="10.495095"><ele>152.0</ele><time>2026-03-28T08:58:30.836Z</time></trkpt><trkpt lat="45.42997" lon="10.4952533"><ele>156.0</ele><time>2026-03-28T08:58:31.836Z</time></trkpt><trkpt lat="45.430085" lon="10.495405"><ele>154.5</ele><time>2026-03-28T08:58:32.836Z</time></trkpt><trkpt lat="45.430185" lon="10.49554"><ele>153.0</ele><time>2026-03-28T08:58:33.836Z</time></trkpt><trkpt lat="45.4302717" lon="10.4956983"><ele>151.5</ele><time>2026-03-28T08:58:34.837Z</time></trkpt><trkpt lat="45.430345" lon="10.4958933"><ele>150.0</ele><time>2026-03-28T08:58:35.836Z</time></trkpt><trkpt lat="45.4304217" lon="10.4960683"><ele>152.0</ele><time>2026-03-28T08:58:36.836Z</time></trkpt><trkpt lat="45.4305133" lon="10.4962367"><ele>154.0</ele><time>2026-03-28T08:58:37.836Z</time></trkpt><trkpt lat="45.43061" lon="10.4963983"><ele>156.0</ele><time>2026-03-28T08:58:38.836Z</time></trkpt><trkpt lat="45.4307233" lon="10.4965367"><ele>158.0</ele><time>2026-03-28T08:58:39.837Z</time></trkpt><trkpt lat="45.4308467" lon="10.49665"><ele>158.0</ele><time>2026-03-28T08:58:40.837Z</time></trkpt><trkpt lat="45.4309733" lon="10.496765"><ele>158.0</ele><time>2026-03-28T08:58:41.837Z</time></trkpt><trkpt lat="45.431095" lon="10.4968833"><ele>158.0</ele><time>2026-03-28T08:58:42.837Z</time></trkpt><trkpt lat="45.4312033" lon="10.49697"><ele>158.0</ele><time>2026-03-28T08:58:43.837Z</time></trkpt><trkpt lat="45.4312883" lon="10.4970683"><ele>157.5</ele><time>2026-03-28T08:58:44.837Z</time></trkpt><trkpt lat="45.431355" lon="10.4971833"><ele>157.0</ele><time>2026-03-28T08:58:45.837Z</time></trkpt><trkpt lat="45.431425" lon="10.4973083"><ele>156.5</ele><time>2026-03-28T08:58:46.837Z</time></trkpt><trkpt lat="45.4314767" lon="10.497455"><ele>156.0</ele><time>2026-03-28T08:58:47.836Z</time></trkpt><trkpt lat="45.4315283" lon="10.49762"><ele>156.0</ele><time>2026-03-28T08:58:48.837Z</time></trkpt><trkpt lat="45.43158" lon="10.4977833"><ele>156.0</ele><time>2026-03-28T08:58:49.837Z</time></trkpt><trkpt lat="45.4316317" lon="10.4979633"><ele>156.0</ele><time>2026-03-28T08:58:50.836Z</time></trkpt><trkpt lat="45.4316867" lon="10.4981483"><ele>156.0</ele><time>2026-03-28T08:58:51.836Z</time></trkpt><trkpt lat="45.4317317" lon="10.4983467"><ele>154.5</ele><time>2026-03-28T08:58:52.836Z</time></trkpt><trkpt lat="45.4317567" lon="10.4985283"><ele>153.0</ele><time>2026-03-28T08:58:53.836Z</time></trkpt><trkpt lat="45.431765" lon="10.4987117"><ele>151.5</ele><time>2026-03-28T08:58:54.837Z</time></trkpt><trkpt lat="45.431765" lon="10.498905"><ele>150.0</ele><time>2026-03-28T08:58:55.837Z</time></trkpt><trkpt lat="45.4317433" lon="10.4991133"><ele>150.0</ele><time>2026-03-28T08:58:56.837Z</time></trkpt><trkpt lat="45.4317083" lon="10.4993333"><ele>150.0</ele><time>2026-03-28T08:58:57.836Z</time></trkpt><trkpt lat="45.431675" lon="10.4995683"><ele>150.0</ele><time>2026-03-28T08:58:58.836Z</time></trkpt><trkpt lat="45.43163" lon="10.49982"><ele>150.0</ele><time>2026-03-28T08:58:59.837Z</time></trkpt><trkpt lat="45.4315917" lon="10.5000417"><ele>150.0</ele><time>2026-03-28T08:59:00.836Z</time></trkpt><trkpt lat="45.4315567" lon="10.500275"><ele>150.0</ele><time>2026-03-28T08:59:01.837Z</time></trkpt><trkpt lat="45.431525" lon="10.5005067"><ele>149.33333333333334</ele><time>2026-03-28T08:59:02.836Z</time></trkpt><trkpt lat="45.4314767" lon="10.5007333"><ele>148.66666666666669</ele><time>2026-03-28T08:59:03.837Z</time></trkpt><trkpt lat="45.4314183" lon="10.5009783"><ele>148.0</ele><time>2026-03-28T08:59:04.836Z</time></trkpt><trkpt lat="45.4313717" lon="10.5012233"><ele>148.0</ele><time>2026-03-28T08:59:05.836Z</time></trkpt><trkpt lat="45.4313283" lon="10.5014633"><ele>148.0</ele><time>2026-03-28T08:59:06.836Z</time></trkpt><trkpt lat="45.4312983" lon="10.5016633"><ele>148.0</ele><time>2026-03-28T08:59:07.836Z</time></trkpt><trkpt lat="45.4312717" lon="10.501815"><ele>148.0</ele><time>2026-03-28T08:59:08.836Z</time></trkpt><trkpt lat="45.4312483" lon="10.501935"><ele>147.83333333333334</ele><time>2026-03-28T08:59:09.837Z</time></trkpt><trkpt lat="45.431215" lon="10.5020133"><ele>147.66666666666669</ele><time>2026-03-28T08:59:10.836Z</time></trkpt><trkpt lat="45.4311517" lon="10.502065"><ele>147.5</ele><time>2026-03-28T08:59:12.836Z</time></trkpt><trkpt lat="45.4310717" lon="10.5019833"><ele>147.33333333333334</ele><time>2026-03-28T08:59:14.837Z</time></trkpt><trkpt lat="45.4310133" lon="10.5019183"><ele>147.16666666666666</ele><time>2026-03-28T08:59:15.836Z</time></trkpt><trkpt lat="45.4309333" lon="10.501845"><ele>147.0</ele><time>2026-03-28T08:59:16.836Z</time></trkpt><trkpt lat="45.4308333" lon="10.501755"><ele>147.0</ele><time>2026-03-28T08:59:17.836Z</time></trkpt><trkpt lat="45.4307133" lon="10.5016367"><ele>147.0</ele><time>2026-03-28T08:59:18.837Z</time></trkpt><trkpt lat="45.4305933" lon="10.50151"><ele>147.0</ele><time>2026-03-28T08:59:19.837Z</time></trkpt><trkpt lat="45.430465" lon="10.501375"><ele>146.33333333333334</ele><time>2026-03-28T08:59:20.837Z</time></trkpt><trkpt lat="45.4303317" lon="10.50124"><ele>145.66666666666669</ele><time>2026-03-28T08:59:21.836Z</time></trkpt><trkpt lat="45.4302" lon="10.50111"><ele>145.0</ele><time>2026-03-28T08:59:22.836Z</time></trkpt><trkpt lat="45.4300783" lon="10.500985"><ele>145.0</ele><time>2026-03-28T08:59:23.836Z</time></trkpt><trkpt lat="45.4299833" lon="10.500885"><ele>145.0</ele><time>2026-03-28T08:59:24.837Z</time></trkpt><trkpt lat="45.42991" lon="10.500805"><ele>145.0</ele><time>2026-03-28T08:59:25.836Z</time></trkpt><trkpt lat="45.4298467" lon="10.50075"><ele>145.0</ele><time>2026-03-28T08:59:26.837Z</time></trkpt><trkpt lat="45.4297833" lon="10.500745"><ele>145.0</ele><time>2026-03-28T08:59:28.837Z</time></trkpt><trkpt lat="45.4296833" lon="10.5008683"><ele>146.0</ele><time>2026-03-28T08:59:30.837Z</time></trkpt><trkpt lat="45.4296233" lon="10.500975"><ele>147.0</ele><time>2026-03-28T08:59:31.837Z</time></trkpt><trkpt lat="45.429565" lon="10.5011033"><ele>148.0</ele><time>2026-03-28T08:59:32.837Z</time></trkpt><trkpt lat="45.4295033" lon="10.501225"><ele>149.0</ele><time>2026-03-28T08:59:33.836Z</time></trkpt><trkpt lat="45.4294383" lon="10.5013317"><ele>150.0</ele><time>2026-03-28T08:59:34.836Z</time></trkpt><trkpt lat="45.4293617" lon="10.5014267"><ele>150.2</ele><time>2026-03-28T08:59:35.836Z</time></trkpt><trkpt lat="45.429285" lon="10.501515"><ele>150.4</ele><time>2026-03-28T08:59:36.837Z</time></trkpt><trkpt lat="45.42921" lon="10.5016067"><ele>150.6</ele><time>2026-03-28T08:59:37.836Z</time></trkpt><trkpt lat="45.4291417" lon="10.5017067"><ele>150.8</ele><time>2026-03-28T08:59:38.837Z</time></trkpt><trkpt lat="45.4290833" lon="10.501815"><ele>151.0</ele><time>2026-03-28T08:59:39.836Z</time></trkpt><trkpt lat="45.4290467" lon="10.5019583"><ele>151.4</ele><time>2026-03-28T08:59:40.837Z</time></trkpt><trkpt lat="45.4290117" lon="10.50209"><ele>151.8</ele><time>2026-03-28T08:59:41.837Z</time></trkpt><trkpt lat="45.428975" lon="10.50223"><ele>152.20000000000002</ele><time>2026-03-28T08:59:42.836Z</time></trkpt><trkpt lat="45.4289367" lon="10.5023717"><ele>152.6</ele><time>2026-03-28T08:59:43.837Z</time></trkpt><trkpt lat="45.4288983" lon="10.5025083"><ele>153.0</ele><time>2026-03-28T08:59:44.836Z</time></trkpt><trkpt lat="45.42886" lon="10.5026383"><ele>152.8</ele><time>2026-03-28T08:59:45.837Z</time></trkpt><trkpt lat="45.4288083" lon="10.502775"><ele>152.60000000000002</ele><time>2026-03-28T08:59:46.836Z</time></trkpt><trkpt lat="45.4287567" lon="10.5028933"><ele>152.39999999999998</ele><time>2026-03-28T08:59:47.837Z</time></trkpt><trkpt lat="45.4287067" lon="10.5029917"><ele>152.2</ele><time>2026-03-28T08:59:48.836Z</time></trkpt><trkpt lat="45.4286367" lon="10.5030633"><ele>152.0</ele><time>2026-03-28T08:59:49.836Z</time></trkpt><trkpt lat="45.4285633" lon="10.5031217"><ele>151.6</ele><time>2026-03-28T08:59:50.837Z</time></trkpt><trkpt lat="45.42848" lon="10.5031633"><ele>151.2</ele><time>2026-03-28T08:59:51.836Z</time></trkpt><trkpt lat="45.42839" lon="10.50321"><ele>150.8</ele><time>2026-03-28T08:59:52.836Z</time></trkpt><trkpt lat="45.4283" lon="10.5032717"><ele>150.4</ele><time>2026-03-28T08:59:53.837Z</time></trkpt><trkpt lat="45.4282267" lon="10.5033517"><ele>150.0</ele><time>2026-03-28T08:59:54.836Z</time></trkpt><trkpt lat="45.4281733" lon="10.5034567"><ele>150.0</ele><time>2026-03-28T08:59:55.837Z</time></trkpt><trkpt lat="45.42811" lon="10.5035633"><ele>150.0</ele><time>2026-03-28T08:59:56.837Z</time></trkpt><trkpt lat="45.42806" lon="10.5036483"><ele>150.0</ele><time>2026-03-28T08:59:57.836Z</time></trkpt><trkpt lat="45.4280117" lon="10.50372"><ele>150.0</ele><time>2026-03-28T08:59:58.836Z</time></trkpt><trkpt lat="45.4278967" lon="10.5038017"><ele>150.0</ele><time>2026-03-28T09:00:00.836Z</time></trkpt><trkpt lat="45.4278283" lon="10.5038383"><ele>150.0</ele><time>2026-03-28T09:00:01.836Z</time></trkpt><trkpt lat="45.42776" lon="10.5038767"><ele>148.16666666666666</ele><time>2026-03-28T09:00:02.836Z</time></trkpt><trkpt lat="45.4277017" lon="10.5039217"><ele>146.33333333333334</ele><time>2026-03-28T09:00:03.836Z</time></trkpt><trkpt lat="45.4275917" lon="10.5040083"><ele>144.5</ele><time>2026-03-28T09:00:05.837Z</time></trkpt><trkpt lat="45.42753" lon="10.5040533"><ele>142.66666666666669</ele><time>2026-03-28T09:00:06.836Z</time></trkpt><trkpt lat="45.4274517" lon="10.5040867"><ele>140.83333333333334</ele><time>2026-03-28T09:00:07.836Z</time></trkpt><trkpt lat="45.4273667" lon="10.504105"><ele>139.0</ele><time>2026-03-28T09:00:08.837Z</time></trkpt><trkpt lat="45.42728" lon="10.5041133"><ele>139.0</ele><time>2026-03-28T09:00:09.837Z</time></trkpt><trkpt lat="45.4271883" lon="10.5041083"><ele>139.0</ele><time>2026-03-28T09:00:10.836Z</time></trkpt><trkpt lat="45.427095" lon="10.504105"><ele>139.0</ele><time>2026-03-28T09:00:11.837Z</time></trkpt><trkpt lat="45.42701" lon="10.504095"><ele>139.0</ele><time>2026-03-28T09:00:12.836Z</time></trkpt><trkpt lat="45.42694" lon="10.504095"><ele>139.0</ele><time>2026-03-28T09:00:13.836Z</time></trkpt><trkpt lat="45.4268233" lon="10.504095"><ele>139.2</ele><time>2026-03-28T09:00:15.836Z</time></trkpt><trkpt lat="45.4267483" lon="10.5041"><ele>139.4</ele><time>2026-03-28T09:00:16.836Z</time></trkpt><trkpt lat="45.4266617" lon="10.50411"><ele>139.6</ele><time>2026-03-28T09:00:17.836Z</time></trkpt><trkpt lat="45.4265667" lon="10.504135"><ele>139.8</ele><time>2026-03-28T09:00:18.837Z</time></trkpt><trkpt lat="45.4264733" lon="10.5041733"><ele>140.0</ele><time>2026-03-28T09:00:19.836Z</time></trkpt><trkpt lat="45.4263817" lon="10.5042417"><ele>139.5</ele><time>2026-03-28T09:00:20.837Z</time></trkpt><trkpt lat="45.4262717" lon="10.5043417"><ele>139.0</ele><time>2026-03-28T09:00:21.837Z</time></trkpt><trkpt lat="45.4261683" lon="10.504445"><ele>138.5</ele><time>2026-03-28T09:00:22.836Z</time></trkpt><trkpt lat="45.4260683" lon="10.50455"><ele>138.0</ele><time>2026-03-28T09:00:23.837Z</time></trkpt><trkpt lat="45.4259667" lon="10.504645"><ele>136.20000000000002</ele><time>2026-03-28T09:00:24.836Z</time></trkpt><trkpt lat="45.4258783" lon="10.50473"><ele>134.4</ele><time>2026-03-28T09:00:25.837Z</time></trkpt><trkpt lat="45.425795" lon="10.50481"><ele>132.60000000000002</ele><time>2026-03-28T09:00:26.836Z</time></trkpt><trkpt lat="45.4257217" lon="10.5048783"><ele>130.8</ele><time>2026-03-28T09:00:27.836Z</time></trkpt><trkpt lat="45.4256617" lon="10.5049317"><ele>129.0</ele><time>2026-03-28T09:00:28.836Z</time></trkpt><trkpt lat="45.425565" lon="10.5049933"><ele>129.0</ele><time>2026-03-28T09:00:30.836Z</time></trkpt><trkpt lat="45.4254933" lon="10.5049783"><ele>129.0</ele><time>2026-03-28T09:00:32.837Z</time></trkpt><trkpt lat="45.4254117" lon="10.5049583"><ele>129.0</ele><time>2026-03-28T09:00:34.837Z</time></trkpt><trkpt lat="45.4252867" lon="10.5049467"><ele>129.0</ele><time>2026-03-28T09:00:36.837Z</time></trkpt><trkpt lat="45.42521" lon="10.5049267"><ele>129.0</ele><time>2026-03-28T09:00:37.836Z</time></trkpt><trkpt lat="45.4251117" lon="10.5049083"><ele>129.0</ele><time>2026-03-28T09:00:38.837Z</time></trkpt><trkpt lat="45.425" lon="10.5048883"><ele>129.0</ele><time>2026-03-28T09:00:39.837Z</time></trkpt><trkpt lat="45.42489" lon="10.5048733"><ele>129.0</ele><time>2026-03-28T09:00:40.836Z</time></trkpt><trkpt lat="45.4247733" lon="10.5048717"><ele>129.0</ele><time>2026-03-28T09:00:41.836Z</time></trkpt><trkpt lat="45.42465" lon="10.5048717"><ele>129.0</ele><time>2026-03-28T09:00:42.836Z</time></trkpt><trkpt lat="45.4245233" lon="10.504865"><ele>129.0</ele><time>2026-03-28T09:00:43.837Z</time></trkpt><trkpt lat="45.4244017" lon="10.5048633"><ele>129.0</ele><time>2026-03-28T09:00:44.837Z</time></trkpt><trkpt lat="45.424285" lon="10.5048417"><ele>129.0</ele><time>2026-03-28T09:00:45.837Z</time></trkpt><trkpt lat="45.42419" lon="10.5048183"><ele>129.0</ele><time>2026-03-28T09:00:46.837Z</time></trkpt><trkpt lat="45.4240783" lon="10.5047833"><ele>129.0</ele><time>2026-03-28T09:00:47.836Z</time></trkpt><trkpt lat="45.423975" lon="10.50474"><ele>129.0</ele><time>2026-03-28T09:00:48.837Z</time></trkpt><trkpt lat="45.4238683" lon="10.5046733"><ele>129.0</ele><time>2026-03-28T09:00:49.836Z</time></trkpt><trkpt lat="45.4237483" lon="10.5046117"><ele>128.33333333333334</ele><time>2026-03-28T09:00:50.836Z</time></trkpt><trkpt lat="45.4236217" lon="10.5045333"><ele>127.66666666666667</ele><time>2026-03-28T09:00:51.836Z</time></trkpt><trkpt lat="45.423485" lon="10.50443"><ele>127.0</ele><time>2026-03-28T09:00:52.836Z</time></trkpt><trkpt lat="45.4233417" lon="10.5043"><ele>127.0</ele><time>2026-03-28T09:00:53.837Z</time></trkpt><trkpt lat="45.4231883" lon="10.5041683"><ele>127.0</ele><time>2026-03-28T09:00:54.836Z</time></trkpt><trkpt lat="45.42302" lon="10.50406"><ele>127.0</ele><time>2026-03-28T09:00:55.837Z</time></trkpt><trkpt lat="45.4228567" lon="10.5039683"><ele>127.0</ele><time>2026-03-28T09:00:56.836Z</time></trkpt><trkpt lat="45.422715" lon="10.503885"><ele>127.0</ele><time>2026-03-28T09:00:57.836Z</time></trkpt><trkpt lat="45.42259" lon="10.503825"><ele>127.0</ele><time>2026-03-28T09:00:58.836Z</time></trkpt><trkpt lat="45.4224583" lon="10.5037583"><ele>127.0</ele><time>2026-03-28T09:00:59.837Z</time></trkpt><trkpt lat="45.422325" lon="10.5036917"><ele>127.0</ele><time>2026-03-28T09:01:00.836Z</time></trkpt><trkpt lat="45.4221833" lon="10.5036367"><ele>127.0</ele><time>2026-03-28T09:01:01.836Z</time></trkpt><trkpt lat="45.4220383" lon="10.5035767"><ele>127.0</ele><time>2026-03-28T09:01:02.837Z</time></trkpt><trkpt lat="45.4218817" lon="10.503525"><ele>126.25</ele><time>2026-03-28T09:01:03.837Z</time></trkpt><trkpt lat="45.4217583" lon="10.5034567"><ele>125.5</ele><time>2026-03-28T09:01:04.836Z</time></trkpt><trkpt lat="45.4216533" lon="10.5033633"><ele>124.75</ele><time>2026-03-28T09:01:05.836Z</time></trkpt><trkpt lat="45.4215583" lon="10.5032633"><ele>124.0</ele><time>2026-03-28T09:01:06.837Z</time></trkpt><trkpt lat="45.421465" lon="10.50315"><ele>124.0</ele><time>2026-03-28T09:01:07.837Z</time></trkpt><trkpt lat="45.4213817" lon="10.5030717"><ele>124.0</ele><time>2026-03-28T09:01:08.837Z</time></trkpt><trkpt lat="45.4213267" lon="10.5030217"><ele>124.0</ele><time>2026-03-28T09:01:09.836Z</time></trkpt><trkpt lat="45.4212367" lon="10.5031167"><ele>124.0</ele><time>2026-03-28T09:01:11.836Z</time></trkpt><trkpt lat="45.4212067" lon="10.5032483"><ele>124.0</ele><time>2026-03-28T09:01:12.837Z</time></trkpt><trkpt lat="45.4211683" lon="10.503425"><ele>124.0</ele><time>2026-03-28T09:01:13.836Z</time></trkpt><trkpt lat="45.421125" lon="10.5036167"><ele>124.0</ele><time>2026-03-28T09:01:14.837Z</time></trkpt><trkpt lat="45.4210633" lon="10.503815"><ele>124.0</ele><time>2026-03-28T09:01:15.836Z</time></trkpt><trkpt lat="45.4209933" lon="10.504005"><ele>124.0</ele><time>2026-03-28T09:01:16.836Z</time></trkpt><trkpt lat="45.4209" lon="10.50418"><ele>124.0</ele><time>2026-03-28T09:01:17.837Z</time></trkpt><trkpt lat="45.4208183" lon="10.5043383"><ele>124.0</ele><time>2026-03-28T09:01:18.836Z</time></trkpt><trkpt lat="45.420765" lon="10.5045117"><ele>124.0</ele><time>2026-03-28T09:01:19.837Z</time></trkpt><trkpt lat="45.42074" lon="10.50469"><ele>124.0</ele><time>2026-03-28T09:01:20.836Z</time></trkpt><trkpt lat="45.4207283" lon="10.5048967"><ele>123.0</ele><time>2026-03-28T09:01:21.836Z</time></trkpt><trkpt lat="45.4206983" lon="10.50514"><ele>122.0</ele><time>2026-03-28T09:01:22.837Z</time></trkpt><trkpt lat="45.42067" lon="10.5054067"><ele>121.0</ele><time>2026-03-28T09:01:23.837Z</time></trkpt><trkpt lat="45.4206283" lon="10.5057033"><ele>121.0</ele><time>2026-03-28T09:01:24.837Z</time></trkpt><trkpt lat="45.4205833" lon="10.5059983"><ele>121.0</ele><time>2026-03-28T09:01:25.836Z</time></trkpt><trkpt lat="45.4205383" lon="10.5063083"><ele>121.0</ele><time>2026-03-28T09:01:26.836Z</time></trkpt><trkpt lat="45.4205" lon="10.50662"><ele>120.66666666666667</ele><time>2026-03-28T09:01:27.836Z</time></trkpt><trkpt lat="45.4204767" lon="10.5068867"><ele>120.33333333333334</ele><time>2026-03-28T09:01:28.837Z</time></trkpt><trkpt lat="45.4204517" lon="10.50713"><ele>120.0</ele><time>2026-03-28T09:01:29.836Z</time></trkpt><trkpt lat="45.4204267" lon="10.5073367"><ele>119.8</ele><time>2026-03-28T09:01:30.837Z</time></trkpt><trkpt lat="45.4204133" lon="10.5075"><ele>119.6</ele><time>2026-03-28T09:01:31.837Z</time></trkpt><trkpt lat="45.420405" lon="10.5076283"><ele>119.4</ele><time>2026-03-28T09:01:32.836Z</time></trkpt><trkpt lat="45.4203917" lon="10.5077283"><ele>119.2</ele><time>2026-03-28T09:01:33.837Z</time></trkpt><trkpt lat="45.4203867" lon="10.5078383"><ele>119.0</ele><time>2026-03-28T09:01:35.836Z</time></trkpt><trkpt lat="45.4204133" lon="10.5080017"><ele>118.80000000000001</ele><time>2026-03-28T09:01:38.837Z</time></trkpt><trkpt lat="45.4204467" lon="10.5081133"><ele>118.60000000000001</ele><time>2026-03-28T09:01:39.836Z</time></trkpt><trkpt lat="45.420485" lon="10.5082533"><ele>118.4</ele><time>2026-03-28T09:01:40.837Z</time></trkpt><trkpt lat="45.420525" lon="10.5084183"><ele>118.2</ele><time>2026-03-28T09:01:41.837Z</time></trkpt><trkpt lat="45.4205667" lon="10.5085917"><ele>118.0</ele><time>2026-03-28T09:01:42.837Z</time></trkpt><trkpt lat="45.4206133" lon="10.5087833"><ele>117.0</ele><time>2026-03-28T09:01:43.836Z</time></trkpt><trkpt lat="45.4206683" lon="10.50898"><ele>116.0</ele><time>2026-03-28T09:01:44.836Z</time></trkpt><trkpt lat="45.4207283" lon="10.509195"><ele>115.0</ele><time>2026-03-28T09:01:45.836Z</time></trkpt><trkpt lat="45.42079" lon="10.5094033"><ele>115.75</ele><time>2026-03-28T09:01:46.836Z</time></trkpt><trkpt lat="45.4208667" lon="10.5095783"><ele>116.5</ele><time>2026-03-28T09:01:47.836Z</time></trkpt><trkpt lat="45.42095" lon="10.5097367"><ele>117.25</ele><time>2026-03-28T09:01:48.836Z</time></trkpt><trkpt lat="45.4210483" lon="10.50987"><ele>118.0</ele><time>2026-03-28T09:01:49.836Z</time></trkpt><trkpt lat="45.4211483" lon="10.5099783"><ele>118.00000000000001</ele><time>2026-03-28T09:01:50.837Z</time></trkpt><trkpt lat="45.4212483" lon="10.5100783"><ele>118.0</ele><time>2026-03-28T09:01:51.836Z</time></trkpt><trkpt lat="45.4213317" lon="10.51017"><ele>118.0</ele><time>2026-03-28T09:01:52.836Z</time></trkpt><trkpt lat="45.42137" lon="10.5102667"><ele>118.0</ele><time>2026-03-28T09:01:53.836Z</time></trkpt><trkpt lat="45.421365" lon="10.510365"><ele>118.00000000000001</ele><time>2026-03-28T09:01:54.837Z</time></trkpt><trkpt lat="45.4213033" lon="10.51042"><ele>118.0</ele><time>2026-03-28T09:01:55.836Z</time></trkpt><trkpt lat="45.42121" lon="10.5104533"><ele>119.0</ele><time>2026-03-28T09:01:56.836Z</time></trkpt><trkpt lat="45.4210967" lon="10.51047"><ele>120.0</ele><time>2026-03-28T09:01:57.836Z</time></trkpt><trkpt lat="45.42098" lon="10.5105117"><ele>121.0</ele><time>2026-03-28T09:01:58.836Z</time></trkpt><trkpt lat="45.42087" lon="10.51058"><ele>122.0</ele><time>2026-03-28T09:01:59.837Z</time></trkpt><trkpt lat="45.4207683" lon="10.5106517"><ele>122.0</ele><time>2026-03-28T09:02:00.836Z</time></trkpt><trkpt lat="45.4207067" lon="10.5107667"><ele>122.0</ele><time>2026-03-28T09:02:01.837Z</time></trkpt><trkpt lat="45.4206633" lon="10.5109183"><ele>122.0</ele><time>2026-03-28T09:02:02.837Z</time></trkpt><trkpt lat="45.4206367" lon="10.5110833"><ele>122.0</ele><time>2026-03-28T09:02:03.837Z</time></trkpt><trkpt lat="45.42062" lon="10.51125"><ele>121.83333333333333</ele><time>2026-03-28T09:02:04.836Z</time></trkpt><trkpt lat="45.4206067" lon="10.5113617"><ele>121.66666666666666</ele><time>2026-03-28T09:02:05.836Z</time></trkpt><trkpt lat="45.4205967" lon="10.511525"><ele>121.5</ele><time>2026-03-28T09:02:07.837Z</time></trkpt><trkpt lat="45.4205583" lon="10.5115983"><ele>121.33333333333334</ele><time>2026-03-28T09:02:09.836Z</time></trkpt><trkpt lat="45.4205383" lon="10.5116867"><ele>121.16666666666667</ele><time>2026-03-28T09:02:36.837Z</time></trkpt><trkpt lat="45.4205983" lon="10.5117433"><ele>121.0</ele><time>2026-03-28T09:02:41.837Z</time></trkpt><trkpt lat="45.4207233" lon="10.5117883"><ele>121.00000000000001</ele><time>2026-03-28T09:02:43.836Z</time></trkpt><trkpt lat="45.4207917" lon="10.5118533"><ele>121.0</ele><time>2026-03-28T09:02:44.836Z</time></trkpt><trkpt lat="45.42084" lon="10.5119417"><ele>121.0</ele><time>2026-03-28T09:02:45.837Z</time></trkpt><trkpt lat="45.4208633" lon="10.512045"><ele>121.0</ele><time>2026-03-28T09:02:46.837Z</time></trkpt><trkpt lat="45.4208567" lon="10.5121433"><ele>121.00000000000001</ele><time>2026-03-28T09:02:47.837Z</time></trkpt><trkpt lat="45.420775" lon="10.512225"><ele>121.0</ele><time>2026-03-28T09:02:49.836Z</time></trkpt><trkpt lat="45.420685" lon="10.5121933"><ele>121.0</ele><time>2026-03-28T09:02:51.836Z</time></trkpt><trkpt lat="45.42056" lon="10.5122367"><ele>121.0</ele><time>2026-03-28T09:02:53.837Z</time></trkpt><trkpt lat="45.4204733" lon="10.5122767"><ele>121.0</ele><time>2026-03-28T09:02:54.836Z</time></trkpt><trkpt lat="45.4203783" lon="10.5123217"><ele>121.0</ele><time>2026-03-28T09:02:55.836Z</time></trkpt><trkpt lat="45.4202617" lon="10.5123833"><ele>121.0</ele><time>2026-03-28T09:02:56.836Z</time></trkpt><trkpt lat="45.420135" lon="10.512455"><ele>121.0</ele><time>2026-03-28T09:02:57.837Z</time></trkpt><trkpt lat="45.4199933" lon="10.512525"><ele>121.0</ele><time>2026-03-28T09:02:58.836Z</time></trkpt><trkpt lat="45.4198433" lon="10.5125917"><ele>121.0</ele><time>2026-03-28T09:02:59.837Z</time></trkpt><trkpt lat="45.4196833" lon="10.5126567"><ele>121.33333333333334</ele><time>2026-03-28T09:03:00.836Z</time></trkpt><trkpt lat="45.4195233" lon="10.5126883"><ele>121.66666666666666</ele><time>2026-03-28T09:03:01.836Z</time></trkpt><trkpt lat="45.4193433" lon="10.51272"><ele>122.0</ele><time>2026-03-28T09:03:02.836Z</time></trkpt><trkpt lat="45.4191433" lon="10.5127433"><ele>122.0</ele><time>2026-03-28T09:03:03.837Z</time></trkpt><trkpt lat="45.4189367" lon="10.512755"><ele>122.0</ele><time>2026-03-28T09:03:04.837Z</time></trkpt><trkpt lat="45.4187233" lon="10.5127583"><ele>122.0</ele><time>2026-03-28T09:03:05.836Z</time></trkpt><trkpt lat="45.4185" lon="10.512785"><ele>119.5</ele><time>2026-03-28T09:03:06.836Z</time></trkpt><trkpt lat="45.41827" lon="10.5128033"><ele>117.0</ele><time>2026-03-28T09:03:07.836Z</time></trkpt><trkpt lat="45.4180483" lon="10.512825"><ele>116.33333333333334</ele><time>2026-03-28T09:03:08.836Z</time></trkpt><trkpt lat="45.4178333" lon="10.5128417"><ele>115.66666666666667</ele><time>2026-03-28T09:03:09.837Z</time></trkpt><trkpt lat="45.4176067" lon="10.51286"><ele>115.0</ele><time>2026-03-28T09:03:10.837Z</time></trkpt><trkpt lat="45.4173767" lon="10.5128717"><ele>115.5</ele><time>2026-03-28T09:03:11.837Z</time></trkpt><trkpt lat="45.4171467" lon="10.512875"><ele>116.0</ele><time>2026-03-28T09:03:12.837Z</time></trkpt><trkpt lat="45.4169083" lon="10.5128867"><ele>115.0</ele><time>2026-03-28T09:03:13.836Z</time></trkpt><trkpt lat="45.4166633" lon="10.512915"><ele>114.0</ele><time>2026-03-28T09:03:14.837Z</time></trkpt><trkpt lat="45.41643" lon="10.5129317"><ele>114.66666666666666</ele><time>2026-03-28T09:03:15.837Z</time></trkpt><trkpt lat="45.4162183" lon="10.5129517"><ele>115.33333333333333</ele><time>2026-03-28T09:03:16.837Z</time></trkpt><trkpt lat="45.4160283" lon="10.5129617"><ele>116.0</ele><time>2026-03-28T09:03:17.836Z</time></trkpt><trkpt lat="45.41585" lon="10.51296"><ele>116.0</ele><time>2026-03-28T09:03:18.836Z</time></trkpt><trkpt lat="45.4156717" lon="10.5129883"><ele>116.0</ele><time>2026-03-28T09:03:19.837Z</time></trkpt><trkpt lat="45.4155167" lon="10.5129733"><ele>116.0</ele><time>2026-03-28T09:03:20.837Z</time></trkpt><trkpt lat="45.4153767" lon="10.512945"><ele>116.19999999999999</ele><time>2026-03-28T09:03:21.837Z</time></trkpt><trkpt lat="45.4152467" lon="10.51292"><ele>116.39999999999999</ele><time>2026-03-28T09:03:22.837Z</time></trkpt><trkpt lat="45.4151483" lon="10.512885"><ele>116.6</ele><time>2026-03-28T09:03:23.836Z</time></trkpt><trkpt lat="45.4150733" lon="10.5128883"><ele>116.8</ele><time>2026-03-28T09:03:24.836Z</time></trkpt><trkpt lat="45.41498" lon="10.5128983"><ele>117.0</ele><time>2026-03-28T09:03:26.836Z</time></trkpt><trkpt lat="45.4149583" lon="10.5129867"><ele>117.0</ele><time>2026-03-28T09:03:28.837Z</time></trkpt><trkpt lat="45.4149617" lon="10.513105"><ele>117.0</ele><time>2026-03-28T09:03:30.836Z</time></trkpt><trkpt lat="45.4149617" lon="10.5132483"><ele>117.0</ele><time>2026-03-28T09:03:32.837Z</time></trkpt><trkpt lat="45.4149617" lon="10.5133517"><ele>117.0</ele><time>2026-03-28T09:03:33.836Z</time></trkpt><trkpt lat="45.4149667" lon="10.513475"><ele>117.0</ele><time>2026-03-28T09:03:34.836Z</time></trkpt><trkpt lat="45.414965" lon="10.5135983"><ele>117.0</ele><time>2026-03-28T09:03:35.837Z</time></trkpt><trkpt lat="45.4149633" lon="10.51371"><ele>116.8</ele><time>2026-03-28T09:03:36.836Z</time></trkpt><trkpt lat="45.4149417" lon="10.5138717"><ele>116.6</ele><time>2026-03-28T09:03:38.837Z</time></trkpt><trkpt lat="45.4148683" lon="10.5139617"><ele>116.39999999999999</ele><time>2026-03-28T09:03:40.837Z</time></trkpt><trkpt lat="45.4147267" lon="10.513995"><ele>116.19999999999999</ele><time>2026-03-28T09:03:42.837Z</time></trkpt><trkpt lat="45.414635" lon="10.513985"><ele>116.0</ele><time>2026-03-28T09:03:43.836Z</time></trkpt><trkpt lat="45.4145283" lon="10.5139817"><ele>116.0</ele><time>2026-03-28T09:03:44.837Z</time></trkpt><trkpt lat="45.4144117" lon="10.5139867"><ele>116.0</ele><time>2026-03-28T09:03:45.836Z</time></trkpt><trkpt lat="45.4142933" lon="10.5140217"><ele>116.0</ele><time>2026-03-28T09:03:46.837Z</time></trkpt><trkpt lat="45.4141767" lon="10.514065"><ele>116.0</ele><time>2026-03-28T09:03:47.836Z</time></trkpt><trkpt lat="45.4140683" lon="10.5141217"><ele>116.0</ele><time>2026-03-28T09:03:48.836Z</time></trkpt><trkpt lat="45.4139717" lon="10.514185"><ele>116.0</ele><time>2026-03-28T09:03:49.837Z</time></trkpt><trkpt lat="45.4138733" lon="10.5142367"><ele>116.0</ele><time>2026-03-28T09:03:50.837Z</time></trkpt><trkpt lat="45.413775" lon="10.5142767"><ele>116.0</ele><time>2026-03-28T09:03:51.837Z</time></trkpt><trkpt lat="45.4136833" lon="10.5143183"><ele>116.0</ele><time>2026-03-28T09:03:52.836Z</time></trkpt><trkpt lat="45.4136017" lon="10.51436"><ele>116.0</ele><time>2026-03-28T09:03:53.836Z</time></trkpt><trkpt lat="45.4135233" lon="10.5144117"><ele>116.0</ele><time>2026-03-28T09:03:54.836Z</time></trkpt><trkpt lat="45.4134633" lon="10.5144683"><ele>116.0</ele><time>2026-03-28T09:03:55.836Z</time></trkpt><trkpt lat="45.4134067" lon="10.514575"><ele>116.0</ele><time>2026-03-28T09:03:56.837Z</time></trkpt><trkpt lat="45.41336" lon="10.5147333"><ele>116.0</ele><time>2026-03-28T09:03:57.836Z</time></trkpt><trkpt lat="45.413325" lon="10.5149033"><ele>116.0</ele><time>2026-03-28T09:03:58.837Z</time></trkpt><trkpt lat="45.41329" lon="10.5150917"><ele>116.0</ele><time>2026-03-28T09:03:59.836Z</time></trkpt><trkpt lat="45.4132533" lon="10.51528"><ele>116.0</ele><time>2026-03-28T09:04:00.836Z</time></trkpt><trkpt lat="45.4132033" lon="10.5154733"><ele>116.0</ele><time>2026-03-28T09:04:01.836Z</time></trkpt><trkpt lat="45.4131433" lon="10.5156717"><ele>116.0</ele><time>2026-03-28T09:04:02.836Z</time></trkpt><trkpt lat="45.4130767" lon="10.515865"><ele>116.0</ele><time>2026-03-28T09:04:03.836Z</time></trkpt><trkpt lat="45.4130117" lon="10.5160417"><ele>116.0</ele><time>2026-03-28T09:04:04.837Z</time></trkpt><trkpt lat="45.41295" lon="10.5162183"><ele>116.0</ele><time>2026-03-28T09:04:05.837Z</time></trkpt><trkpt lat="45.412895" lon="10.5163767"><ele>115.5</ele><time>2026-03-28T09:04:06.837Z</time></trkpt><trkpt lat="45.4128417" lon="10.516535"><ele>115.0</ele><time>2026-03-28T09:04:07.836Z</time></trkpt><trkpt lat="45.4127917" lon="10.5166983"><ele>114.5</ele><time>2026-03-28T09:04:08.837Z</time></trkpt><trkpt lat="45.4127417" lon="10.516865"><ele>114.0</ele><time>2026-03-28T09:04:09.837Z</time></trkpt><trkpt lat="45.4126817" lon="10.5170183"><ele>114.0</ele><time>2026-03-28T09:04:10.836Z</time></trkpt><trkpt lat="45.4126183" lon="10.517175"><ele>114.0</ele><time>2026-03-28T09:04:11.837Z</time></trkpt><trkpt lat="45.4125467" lon="10.517345"><ele>114.0</ele><time>2026-03-28T09:04:12.837Z</time></trkpt><trkpt lat="45.4124683" lon="10.5175083"><ele>114.0</ele><time>2026-03-28T09:04:13.836Z</time></trkpt><trkpt lat="45.4123733" lon="10.5176467"><ele>114.0</ele><time>2026-03-28T09:04:14.837Z</time></trkpt><trkpt lat="45.4122733" lon="10.5177733"><ele>114.0</ele><time>2026-03-28T09:04:15.837Z</time></trkpt><trkpt lat="45.4121767" lon="10.5178833"><ele>114.0</ele><time>2026-03-28T09:04:16.836Z</time></trkpt><trkpt lat="45.4120767" lon="10.5179967"><ele>114.0</ele><time>2026-03-28T09:04:17.837Z</time></trkpt><trkpt lat="45.4119817" lon="10.51812"><ele>115.25</ele><time>2026-03-28T09:04:18.837Z</time></trkpt><trkpt lat="45.41189" lon="10.5182417"><ele>116.5</ele><time>2026-03-28T09:04:19.836Z</time></trkpt><trkpt lat="45.4118067" lon="10.51839"><ele>117.75</ele><time>2026-03-28T09:04:20.837Z</time></trkpt><trkpt lat="45.4117317" lon="10.5185483"><ele>119.0</ele><time>2026-03-28T09:04:21.837Z</time></trkpt><trkpt lat="45.4116667" lon="10.5187033"><ele>119.0</ele><time>2026-03-28T09:04:22.836Z</time></trkpt><trkpt lat="45.4115983" lon="10.5188433"><ele>119.0</ele><time>2026-03-28T09:04:23.836Z</time></trkpt><trkpt lat="45.4115367" lon="10.5189633"><ele>119.0</ele><time>2026-03-28T09:04:24.836Z</time></trkpt><trkpt lat="45.4114783" lon="10.51908"><ele>119.0</ele><time>2026-03-28T09:04:25.836Z</time></trkpt><trkpt lat="45.411435" lon="10.519175"><ele>119.0</ele><time>2026-03-28T09:04:26.837Z</time></trkpt><trkpt lat="45.4114" lon="10.519255"><ele>119.0</ele><time>2026-03-28T09:04:27.836Z</time></trkpt><trkpt lat="45.4113967" lon="10.5193967"><ele>119.0</ele><time>2026-03-28T09:04:29.837Z</time></trkpt><trkpt lat="45.4114817" lon="10.51953"><ele>119.0</ele><time>2026-03-28T09:04:31.837Z</time></trkpt><trkpt lat="45.4115267" lon="10.5195983"><ele>119.0</ele><time>2026-03-28T09:04:32.836Z</time></trkpt><trkpt lat="45.4115667" lon="10.5196967"><ele>119.0</ele><time>2026-03-28T09:04:33.837Z</time></trkpt><trkpt lat="45.4115917" lon="10.5198167"><ele>118.5</ele><time>2026-03-28T09:04:34.836Z</time></trkpt><trkpt lat="45.411595" lon="10.5199583"><ele>118.0</ele><time>2026-03-28T09:04:35.837Z</time></trkpt><trkpt lat="45.4115933" lon="10.520135"><ele>117.5</ele><time>2026-03-28T09:04:36.837Z</time></trkpt><trkpt lat="45.4115917" lon="10.5203217"><ele>117.0</ele><time>2026-03-28T09:04:37.837Z</time></trkpt><trkpt lat="45.4115917" lon="10.520485"><ele>116.8</ele><time>2026-03-28T09:04:38.836Z</time></trkpt><trkpt lat="45.4115933" lon="10.5206383"><ele>116.6</ele><time>2026-03-28T09:04:39.837Z</time></trkpt><trkpt lat="45.4116" lon="10.5207633"><ele>116.39999999999999</ele><time>2026-03-28T09:04:40.836Z</time></trkpt><trkpt lat="45.4116333" lon="10.520865"><ele>116.19999999999999</ele><time>2026-03-28T09:04:41.836Z</time></trkpt><trkpt lat="45.41169" lon="10.52096"><ele>116.0</ele><time>2026-03-28T09:04:42.836Z</time></trkpt><trkpt lat="45.4117717" lon="10.52104"><ele>116.0</ele><time>2026-03-28T09:04:43.836Z</time></trkpt><trkpt lat="45.411875" lon="10.5210983"><ele>116.0</ele><time>2026-03-28T09:04:44.836Z</time></trkpt><trkpt lat="45.411985" lon="10.5211483"><ele>116.0</ele><time>2026-03-28T09:04:45.837Z</time></trkpt><trkpt lat="45.412075" lon="10.521205"><ele>116.0</ele><time>2026-03-28T09:04:46.837Z</time></trkpt><trkpt lat="45.41214" lon="10.5212717"><ele>116.0</ele><time>2026-03-28T09:04:47.836Z</time></trkpt><trkpt lat="45.412175" lon="10.5213617"><ele>116.19999999999999</ele><time>2026-03-28T09:04:48.836Z</time></trkpt><trkpt lat="45.4121967" lon="10.5214833"><ele>116.39999999999999</ele><time>2026-03-28T09:04:49.837Z</time></trkpt><trkpt lat="45.41219" lon="10.52162"><ele>116.6</ele><time>2026-03-28T09:04:50.837Z</time></trkpt><trkpt lat="45.4121667" lon="10.5217683"><ele>116.8</ele><time>2026-03-28T09:04:51.836Z</time></trkpt><trkpt lat="45.412135" lon="10.5219017"><ele>117.0</ele><time>2026-03-28T09:04:52.837Z</time></trkpt><trkpt lat="45.4121083" lon="10.5220233"><ele>116.66666666666667</ele><time>2026-03-28T09:04:53.836Z</time></trkpt><trkpt lat="45.4120883" lon="10.52211"><ele>116.33333333333334</ele><time>2026-03-28T09:04:54.837Z</time></trkpt><trkpt lat="45.4121017" lon="10.5222183"><ele>116.0</ele><time>2026-03-28T09:04:56.836Z</time></trkpt><trkpt lat="45.4121883" lon="10.5223067"><ele>115.66666666666667</ele><time>2026-03-28T09:04:58.837Z</time></trkpt><trkpt lat="45.4122567" lon="10.5223483"><ele>115.33333333333334</ele><time>2026-03-28T09:04:59.836Z</time></trkpt><trkpt lat="45.4123433" lon="10.5223883"><ele>115.0</ele><time>2026-03-28T09:05:00.836Z</time></trkpt><trkpt lat="45.4124433" lon="10.5224467"><ele>116.25</ele><time>2026-03-28T09:05:01.836Z</time></trkpt><trkpt lat="45.4125583" lon="10.5225133"><ele>117.5</ele><time>2026-03-28T09:05:02.836Z</time></trkpt><trkpt lat="45.4126917" lon="10.5225783"><ele>118.75</ele><time>2026-03-28T09:05:03.837Z</time></trkpt><trkpt lat="45.4128333" lon="10.5226433"><ele>120.0</ele><time>2026-03-28T09:05:04.837Z</time></trkpt><trkpt lat="45.4129717" lon="10.52271"><ele>120.0</ele><time>2026-03-28T09:05:05.837Z</time></trkpt><trkpt lat="45.4131017" lon="10.5227833"><ele>120.0</ele><time>2026-03-28T09:05:06.836Z</time></trkpt><trkpt lat="45.4132233" lon="10.5228567"><ele>120.0</ele><time>2026-03-28T09:05:07.836Z</time></trkpt><trkpt lat="45.4133433" lon="10.5229217"><ele>120.0</ele><time>2026-03-28T09:05:08.837Z</time></trkpt><trkpt lat="45.4134583" lon="10.5229767"><ele>119.5</ele><time>2026-03-28T09:05:09.837Z</time></trkpt><trkpt lat="45.4135833" lon="10.5230167"><ele>119.0</ele><time>2026-03-28T09:05:10.836Z</time></trkpt><trkpt lat="45.4137233" lon="10.5230433"><ele>118.5</ele><time>2026-03-28T09:05:11.836Z</time></trkpt><trkpt lat="45.413855" lon="10.5230733"><ele>118.0</ele><time>2026-03-28T09:05:12.836Z</time></trkpt><trkpt lat="45.41396" lon="10.5230883"><ele>117.50000000000001</ele><time>2026-03-28T09:05:13.837Z</time></trkpt><trkpt lat="45.4140383" lon="10.5230967"><ele>117.0</ele><time>2026-03-28T09:05:14.836Z</time></trkpt><trkpt lat="45.41411" lon="10.5230867"><ele>116.5</ele><time>2026-03-28T09:05:15.837Z</time></trkpt><trkpt lat="45.4141767" lon="10.5231067"><ele>116.0</ele><time>2026-03-28T09:05:16.836Z</time></trkpt><trkpt lat="45.414255" lon="10.52316"><ele>115.50000000000001</ele><time>2026-03-28T09:05:18.836Z</time></trkpt><trkpt lat="45.41426" lon="10.523285"><ele>115.0</ele><time>2026-03-28T09:05:20.836Z</time></trkpt><trkpt lat="45.41424" lon="10.52338"><ele>115.0</ele><time>2026-03-28T09:05:21.836Z</time></trkpt><trkpt lat="45.414215" lon="10.5235"><ele>115.0</ele><time>2026-03-28T09:05:22.836Z</time></trkpt><trkpt lat="45.4141783" lon="10.5236417"><ele>115.0</ele><time>2026-03-28T09:05:23.836Z</time></trkpt><trkpt lat="45.41415" lon="10.5238067"><ele>115.0</ele><time>2026-03-28T09:05:24.837Z</time></trkpt><trkpt lat="45.4141233" lon="10.5239483"><ele>115.0</ele><time>2026-03-28T09:05:25.836Z</time></trkpt><trkpt lat="45.4141067" lon="10.5240683"><ele>115.0</ele><time>2026-03-28T09:05:26.836Z</time></trkpt><trkpt lat="45.4141317" lon="10.5242133"><ele>115.0</ele><time>2026-03-28T09:05:28.836Z</time></trkpt><trkpt lat="45.4141783" lon="10.5242833"><ele>115.0</ele><time>2026-03-28T09:05:29.836Z</time></trkpt><trkpt lat="45.4142483" lon="10.524345"><ele>115.0</ele><time>2026-03-28T09:05:30.836Z</time></trkpt><trkpt lat="45.4143467" lon="10.5244133"><ele>115.0</ele><time>2026-03-28T09:05:31.837Z</time></trkpt><trkpt lat="45.4144583" lon="10.5244933"><ele>115.0</ele><time>2026-03-28T09:05:32.836Z</time></trkpt><trkpt lat="45.4145883" lon="10.524595"><ele>115.0</ele><time>2026-03-28T09:05:33.837Z</time></trkpt><trkpt lat="45.4147267" lon="10.5246983"><ele>115.0</ele><time>2026-03-28T09:05:34.837Z</time></trkpt><trkpt lat="45.4148783" lon="10.52482"><ele>115.33333333333334</ele><time>2026-03-28T09:05:35.836Z</time></trkpt><trkpt lat="45.415035" lon="10.524955"><ele>115.66666666666666</ele><time>2026-03-28T09:05:36.836Z</time></trkpt><trkpt lat="45.4151917" lon="10.5251083"><ele>116.0</ele><time>2026-03-28T09:05:37.836Z</time></trkpt><trkpt lat="45.4153533" lon="10.525275"><ele>115.66666666666666</ele><time>2026-03-28T09:05:38.837Z</time></trkpt><trkpt lat="45.4155133" lon="10.5254433"><ele>115.33333333333334</ele><time>2026-03-28T09:05:39.837Z</time></trkpt><trkpt lat="45.4156717" lon="10.5256"><ele>115.0</ele><time>2026-03-28T09:05:40.836Z</time></trkpt><trkpt lat="45.415835" lon="10.525755"><ele>115.0</ele><time>2026-03-28T09:05:41.836Z</time></trkpt><trkpt lat="45.4159983" lon="10.5259067"><ele>115.0</ele><time>2026-03-28T09:05:42.836Z</time></trkpt><trkpt lat="45.41616" lon="10.5260383"><ele>115.0</ele><time>2026-03-28T09:05:43.836Z</time></trkpt><trkpt lat="45.416325" lon="10.5261717"><ele>114.33333333333334</ele><time>2026-03-28T09:05:44.836Z</time></trkpt><trkpt lat="45.4164983" lon="10.526305"><ele>113.66666666666666</ele><time>2026-03-28T09:05:45.836Z</time></trkpt><trkpt lat="45.4166783" lon="10.5264483"><ele>113.0</ele><time>2026-03-28T09:05:46.836Z</time></trkpt><trkpt lat="45.4168583" lon="10.52658"><ele>113.0</ele><time>2026-03-28T09:05:47.836Z</time></trkpt><trkpt lat="45.4170433" lon="10.526715"><ele>113.0</ele><time>2026-03-28T09:05:48.837Z</time></trkpt><trkpt lat="45.417215" lon="10.5268333"><ele>113.0</ele><time>2026-03-28T09:05:49.836Z</time></trkpt><trkpt lat="45.417395" lon="10.5269433"><ele>113.66666666666666</ele><time>2026-03-28T09:05:50.837Z</time></trkpt><trkpt lat="45.4175783" lon="10.5270567"><ele>114.33333333333334</ele><time>2026-03-28T09:05:51.836Z</time></trkpt><trkpt lat="45.417765" lon="10.5271733"><ele>115.0</ele><time>2026-03-28T09:05:52.837Z</time></trkpt><trkpt lat="45.4179583" lon="10.5272883"><ele>116.0</ele><time>2026-03-28T09:05:53.836Z</time></trkpt><trkpt lat="45.4181517" lon="10.5274067"><ele>117.0</ele><time>2026-03-28T09:05:54.836Z</time></trkpt><trkpt lat="45.4183383" lon="10.527525"><ele>118.0</ele><time>2026-03-28T09:05:55.837Z</time></trkpt><trkpt lat="45.418515" lon="10.52764"><ele>118.0</ele><time>2026-03-28T09:05:56.837Z</time></trkpt><trkpt lat="45.4186767" lon="10.52774"><ele>118.0</ele><time>2026-03-28T09:05:57.836Z</time></trkpt><trkpt lat="45.4188233" lon="10.52783"><ele>118.0</ele><time>2026-03-28T09:05:58.837Z</time></trkpt><trkpt lat="45.418945" lon="10.52792"><ele>118.0</ele><time>2026-03-28T09:05:59.837Z</time></trkpt><trkpt lat="45.41906" lon="10.5279983"><ele>118.0</ele><time>2026-03-28T09:06:00.836Z</time></trkpt><trkpt lat="45.4191617" lon="10.5280883"><ele>118.0</ele><time>2026-03-28T09:06:01.837Z</time></trkpt><trkpt lat="45.4192583" lon="10.5282117"><ele>118.0</ele><time>2026-03-28T09:06:02.837Z</time></trkpt><trkpt lat="45.4193567" lon="10.5283267"><ele>118.0</ele><time>2026-03-28T09:06:03.837Z</time></trkpt><trkpt lat="45.41945" lon="10.5284367"><ele>118.0</ele><time>2026-03-28T09:06:04.836Z</time></trkpt><trkpt lat="45.41955" lon="10.528525"><ele>118.0</ele><time>2026-03-28T09:06:05.837Z</time></trkpt><trkpt lat="45.4196733" lon="10.5286083"><ele>118.0</ele><time>2026-03-28T09:06:06.837Z</time></trkpt><trkpt lat="45.4198083" lon="10.5287"><ele>118.75</ele><time>2026-03-28T09:06:07.837Z</time></trkpt><trkpt lat="45.41993" lon="10.5287983"><ele>119.5</ele><time>2026-03-28T09:06:08.837Z</time></trkpt><trkpt lat="45.4200283" lon="10.5289"><ele>120.25</ele><time>2026-03-28T09:06:09.837Z</time></trkpt><trkpt lat="45.4201317" lon="10.5290233"><ele>121.0</ele><time>2026-03-28T09:06:10.837Z</time></trkpt><trkpt lat="45.4202217" lon="10.5291683"><ele>121.0</ele><time>2026-03-28T09:06:11.837Z</time></trkpt><trkpt lat="45.4203067" lon="10.529315"><ele>121.0</ele><time>2026-03-28T09:06:12.836Z</time></trkpt><trkpt lat="45.420395" lon="10.529465"><ele>121.0</ele><time>2026-03-28T09:06:13.837Z</time></trkpt><trkpt lat="45.420485" lon="10.5296183"><ele>121.0</ele><time>2026-03-28T09:06:14.837Z</time></trkpt><trkpt lat="45.420565" lon="10.52976"><ele>121.19999999999999</ele><time>2026-03-28T09:06:15.837Z</time></trkpt><trkpt lat="45.420645" lon="10.5298833"><ele>121.39999999999999</ele><time>2026-03-28T09:06:16.836Z</time></trkpt><trkpt lat="45.4207117" lon="10.529985"><ele>121.6</ele><time>2026-03-28T09:06:17.836Z</time></trkpt><trkpt lat="45.420775" lon="10.5300833"><ele>121.8</ele><time>2026-03-28T09:06:18.836Z</time></trkpt><trkpt lat="45.4208333" lon="10.5301617"><ele>122.0</ele><time>2026-03-28T09:06:19.836Z</time></trkpt><trkpt lat="45.4208983" lon="10.5302283"><ele>121.99999999999999</ele><time>2026-03-28T09:06:20.837Z</time></trkpt><trkpt lat="45.4209717" lon="10.5302933"><ele>122.0</ele><time>2026-03-28T09:06:21.836Z</time></trkpt><trkpt lat="45.4210467" lon="10.5303533"><ele>122.0</ele><time>2026-03-28T09:06:22.836Z</time></trkpt><trkpt lat="45.4211183" lon="10.530395"><ele>122.0</ele><time>2026-03-28T09:06:23.836Z</time></trkpt><trkpt lat="45.421195" lon="10.53043"><ele>121.99999999999999</ele><time>2026-03-28T09:06:24.836Z</time></trkpt><trkpt lat="45.421275" lon="10.5304367"><ele>122.0</ele><time>2026-03-28T09:06:25.837Z</time></trkpt><trkpt lat="45.4213517" lon="10.53044"><ele>122.99999999999999</ele><time>2026-03-28T09:06:26.837Z</time></trkpt><trkpt lat="45.421425" lon="10.5304433"><ele>124.0</ele><time>2026-03-28T09:06:27.837Z</time></trkpt><trkpt lat="45.4215033" lon="10.5304467"><ele>125.0</ele><time>2026-03-28T09:06:28.836Z</time></trkpt><trkpt lat="45.4215833" lon="10.53046"><ele>126.0</ele><time>2026-03-28T09:06:29.837Z</time></trkpt><trkpt lat="45.4216767" lon="10.5304767"><ele>126.99999999999999</ele><time>2026-03-28T09:06:30.837Z</time></trkpt><trkpt lat="45.4217583" lon="10.5305117"><ele>128.0</ele><time>2026-03-28T09:06:31.836Z</time></trkpt><trkpt lat="45.421835" lon="10.5305683"><ele>128.0</ele><time>2026-03-28T09:06:32.837Z</time></trkpt><trkpt lat="45.42191" lon="10.5306617"><ele>128.0</ele><time>2026-03-28T09:06:33.836Z</time></trkpt><trkpt lat="45.4219733" lon="10.53076"><ele>128.0</ele><time>2026-03-28T09:06:34.837Z</time></trkpt><trkpt lat="45.42202" lon="10.53088"><ele>128.0</ele><time>2026-03-28T09:06:35.837Z</time></trkpt><trkpt lat="45.4220567" lon="10.5310117"><ele>128.0</ele><time>2026-03-28T09:06:36.836Z</time></trkpt><trkpt lat="45.42208" lon="10.53114"><ele>129.0</ele><time>2026-03-28T09:06:37.837Z</time></trkpt><trkpt lat="45.4220917" lon="10.531285"><ele>130.0</ele><time>2026-03-28T09:06:38.836Z</time></trkpt><trkpt lat="45.4220883" lon="10.5314267"><ele>131.0</ele><time>2026-03-28T09:06:39.836Z</time></trkpt><trkpt lat="45.4220867" lon="10.5315683"><ele>132.0</ele><time>2026-03-28T09:06:40.836Z</time></trkpt><trkpt lat="45.4220833" lon="10.531665"><ele>133.0</ele><time>2026-03-28T09:06:41.836Z</time></trkpt><trkpt lat="45.422065" lon="10.5318067"><ele>133.0</ele><time>2026-03-28T09:06:49.836Z</time></trkpt><trkpt lat="45.4220267" lon="10.5318933"><ele>133.0</ele><time>2026-03-28T09:06:50.837Z</time></trkpt><trkpt lat="45.421985" lon="10.532"><ele>133.0</ele><time>2026-03-28T09:06:51.836Z</time></trkpt><trkpt lat="45.42194" lon="10.53213"><ele>133.0</ele><time>2026-03-28T09:06:52.837Z</time></trkpt><trkpt lat="45.4218867" lon="10.5322433"><ele>133.0</ele><time>2026-03-28T09:06:53.837Z</time></trkpt><trkpt lat="45.4218333" lon="10.53234"><ele>133.0</ele><time>2026-03-28T09:06:54.837Z</time></trkpt><trkpt lat="45.4217817" lon="10.5324183"><ele>133.66666666666669</ele><time>2026-03-28T09:06:55.836Z</time></trkpt><trkpt lat="45.421725" lon="10.5324833"><ele>134.33333333333334</ele><time>2026-03-28T09:06:56.836Z</time></trkpt><trkpt lat="45.4216667" lon="10.5325517"><ele>135.0</ele><time>2026-03-28T09:06:57.836Z</time></trkpt><trkpt lat="45.4216" lon="10.5326267"><ele>135.66666666666666</ele><time>2026-03-28T09:06:58.837Z</time></trkpt><trkpt lat="45.421525" lon="10.532695"><ele>136.33333333333331</ele><time>2026-03-28T09:06:59.836Z</time></trkpt><trkpt lat="45.4214383" lon="10.5327517"><ele>137.0</ele><time>2026-03-28T09:07:00.836Z</time></trkpt><trkpt lat="45.4213417" lon="10.53281"><ele>137.25</ele><time>2026-03-28T09:07:01.837Z</time></trkpt><trkpt lat="45.42124" lon="10.5328783"><ele>137.5</ele><time>2026-03-28T09:07:02.837Z</time></trkpt><trkpt lat="45.4211333" lon="10.5329367"><ele>137.75</ele><time>2026-03-28T09:07:03.836Z</time></trkpt><trkpt lat="45.4210083" lon="10.5329767"><ele>138.0</ele><time>2026-03-28T09:07:04.836Z</time></trkpt><trkpt lat="45.42088" lon="10.53304"><ele>138.0</ele><time>2026-03-28T09:07:05.836Z</time></trkpt><trkpt lat="45.4207483" lon="10.533105"><ele>138.0</ele><time>2026-03-28T09:07:06.836Z</time></trkpt><trkpt lat="45.4206167" lon="10.5331833"><ele>138.0</ele><time>2026-03-28T09:07:07.836Z</time></trkpt><trkpt lat="45.4204733" lon="10.533265"><ele>138.0</ele><time>2026-03-28T09:07:08.836Z</time></trkpt><trkpt lat="45.420335" lon="10.5333517"><ele>135.33333333333334</ele><time>2026-03-28T09:07:09.836Z</time></trkpt><trkpt lat="45.4202017" lon="10.53343"><ele>132.66666666666669</ele><time>2026-03-28T09:07:10.837Z</time></trkpt><trkpt lat="45.4200633" lon="10.5335267"><ele>130.0</ele><time>2026-03-28T09:07:11.837Z</time></trkpt><trkpt lat="45.419935" lon="10.5336417"><ele>130.66666666666669</ele><time>2026-03-28T09:07:12.836Z</time></trkpt><trkpt lat="45.4197867" lon="10.53377"><ele>131.33333333333334</ele><time>2026-03-28T09:07:13.836Z</time></trkpt><trkpt lat="45.419635" lon="10.5339067"><ele>132.0</ele><time>2026-03-28T09:07:14.836Z</time></trkpt><trkpt lat="45.41948" lon="10.5340517"><ele>132.0</ele><time>2026-03-28T09:07:15.836Z</time></trkpt><trkpt lat="45.41933" lon="10.5342067"><ele>132.0</ele><time>2026-03-28T09:07:16.837Z</time></trkpt><trkpt lat="45.4191767" lon="10.534355"><ele>132.0</ele><time>2026-03-28T09:07:17.837Z</time></trkpt><trkpt lat="45.4190217" lon="10.5345167"><ele>131.0</ele><time>2026-03-28T09:07:18.836Z</time></trkpt><trkpt lat="45.4188517" lon="10.534625"><ele>130.0</ele><time>2026-03-28T09:07:19.836Z</time></trkpt><trkpt lat="45.4186833" lon="10.5347033"><ele>129.0</ele><time>2026-03-28T09:07:20.837Z</time></trkpt><trkpt lat="45.4185217" lon="10.5347617"><ele>129.0</ele><time>2026-03-28T09:07:21.837Z</time></trkpt><trkpt lat="45.418375" lon="10.5348367"><ele>129.0</ele><time>2026-03-28T09:07:22.836Z</time></trkpt><trkpt lat="45.4182167" lon="10.5348817"><ele>129.0</ele><time>2026-03-28T09:07:23.836Z</time></trkpt><trkpt lat="45.4180717" lon="10.5349467"><ele>128.0</ele><time>2026-03-28T09:07:24.836Z</time></trkpt><trkpt lat="45.4179267" lon="10.5350383"><ele>127.0</ele><time>2026-03-28T09:07:25.836Z</time></trkpt><trkpt lat="45.41778" lon="10.5351583"><ele>126.0</ele><time>2026-03-28T09:07:26.836Z</time></trkpt><trkpt lat="45.41764" lon="10.5352633"><ele>126.66666666666666</ele><time>2026-03-28T09:07:27.836Z</time></trkpt><trkpt lat="45.4174967" lon="10.5353983"><ele>127.33333333333333</ele><time>2026-03-28T09:07:28.836Z</time></trkpt><trkpt lat="45.4173517" lon="10.5355417"><ele>128.0</ele><time>2026-03-28T09:07:29.837Z</time></trkpt><trkpt lat="45.4171883" lon="10.5356567"><ele>127.33333333333333</ele><time>2026-03-28T09:07:30.836Z</time></trkpt><trkpt lat="45.4170133" lon="10.5357333"><ele>126.66666666666666</ele><time>2026-03-28T09:07:31.837Z</time></trkpt><trkpt lat="45.4168283" lon="10.535785"><ele>126.0</ele><time>2026-03-28T09:07:32.836Z</time></trkpt><trkpt lat="45.4166283" lon="10.5358267"><ele>126.0</ele><time>2026-03-28T09:07:33.837Z</time></trkpt><trkpt lat="45.416445" lon="10.53588"><ele>126.0</ele><time>2026-03-28T09:07:34.836Z</time></trkpt><trkpt lat="45.4162767" lon="10.53596"><ele>126.0</ele><time>2026-03-28T09:07:35.836Z</time></trkpt><trkpt lat="45.416115" lon="10.53609"><ele>126.33333333333334</ele><time>2026-03-28T09:07:36.837Z</time></trkpt><trkpt lat="45.4159633" lon="10.536245"><ele>126.66666666666667</ele><time>2026-03-28T09:07:37.836Z</time></trkpt><trkpt lat="45.4158117" lon="10.5364183"><ele>127.0</ele><time>2026-03-28T09:07:38.837Z</time></trkpt><trkpt lat="45.415675" lon="10.5366017"><ele>127.0</ele><time>2026-03-28T09:07:39.836Z</time></trkpt><trkpt lat="45.415565" lon="10.5367917"><ele>127.0</ele><time>2026-03-28T09:07:40.837Z</time></trkpt><trkpt lat="45.415465" lon="10.5370233"><ele>127.0</ele><time>2026-03-28T09:07:41.836Z</time></trkpt><trkpt lat="45.4153617" lon="10.5372283"><ele>126.66666666666667</ele><time>2026-03-28T09:07:42.837Z</time></trkpt><trkpt lat="45.41526" lon="10.5374333"><ele>126.33333333333334</ele><time>2026-03-28T09:07:43.837Z</time></trkpt><trkpt lat="45.4151667" lon="10.5376233"><ele>126.0</ele><time>2026-03-28T09:07:44.836Z</time></trkpt><trkpt lat="45.41507" lon="10.5378017"><ele>129.0</ele><time>2026-03-28T09:07:45.836Z</time></trkpt><trkpt lat="45.4149667" lon="10.5379733"><ele>132.0</ele><time>2026-03-28T09:07:46.837Z</time></trkpt><trkpt lat="45.4148433" lon="10.5381367"><ele>135.0</ele><time>2026-03-28T09:07:47.837Z</time></trkpt><trkpt lat="45.4147067" lon="10.5382983"><ele>134.66666666666666</ele><time>2026-03-28T09:07:48.836Z</time></trkpt><trkpt lat="45.4145417" lon="10.5384617"><ele>134.33333333333331</ele><time>2026-03-28T09:07:49.837Z</time></trkpt><trkpt lat="45.414365" lon="10.5386333"><ele>134.0</ele><time>2026-03-28T09:07:50.836Z</time></trkpt><trkpt lat="45.4141733" lon="10.538795"><ele>134.0</ele><time>2026-03-28T09:07:51.836Z</time></trkpt><trkpt lat="45.4139817" lon="10.53897"><ele>134.0</ele><time>2026-03-28T09:07:52.836Z</time></trkpt><trkpt lat="45.41379" lon="10.5391533"><ele>133.33333333333331</ele><time>2026-03-28T09:07:53.837Z</time></trkpt><trkpt lat="45.4136" lon="10.5393217"><ele>132.66666666666666</ele><time>2026-03-28T09:07:54.837Z</time></trkpt><trkpt lat="45.4134017" lon="10.5394717"><ele>132.0</ele><time>2026-03-28T09:07:55.836Z</time></trkpt><trkpt lat="45.413205" lon="10.5396083"><ele>132.0</ele><time>2026-03-28T09:07:56.837Z</time></trkpt><trkpt lat="45.4130133" lon="10.5397417"><ele>132.0</ele><time>2026-03-28T09:07:57.836Z</time></trkpt><trkpt lat="45.4128517" lon="10.5398833"><ele>132.0</ele><time>2026-03-28T09:07:58.837Z</time></trkpt><trkpt lat="45.4127283" lon="10.5400583"><ele>131.0</ele><time>2026-03-28T09:07:59.836Z</time></trkpt><trkpt lat="45.412625" lon="10.5402483"><ele>130.0</ele><time>2026-03-28T09:08:00.837Z</time></trkpt><trkpt lat="45.4125383" lon="10.5404683"><ele>129.0</ele><time>2026-03-28T09:08:01.837Z</time></trkpt><trkpt lat="45.4124433" lon="10.54071"><ele>129.0</ele><time>2026-03-28T09:08:02.836Z</time></trkpt><trkpt lat="45.41233" lon="10.540945"><ele>129.0</ele><time>2026-03-28T09:08:03.837Z</time></trkpt><trkpt lat="45.412205" lon="10.5411833"><ele>129.0</ele><time>2026-03-28T09:08:04.837Z</time></trkpt><trkpt lat="45.4120867" lon="10.54142"><ele>128.33333333333334</ele><time>2026-03-28T09:08:05.836Z</time></trkpt><trkpt lat="45.41195" lon="10.54166"><ele>127.66666666666667</ele><time>2026-03-28T09:08:06.837Z</time></trkpt><trkpt lat="45.4118033" lon="10.54191"><ele>127.0</ele><time>2026-03-28T09:08:07.837Z</time></trkpt><trkpt lat="45.4116717" lon="10.5421867"><ele>126.5</ele><time>2026-03-28T09:08:08.837Z</time></trkpt><trkpt lat="45.4115317" lon="10.5424667"><ele>126.0</ele><time>2026-03-28T09:08:09.837Z</time></trkpt><trkpt lat="45.4113967" lon="10.5427567"><ele>124.0</ele><time>2026-03-28T09:08:10.836Z</time></trkpt><trkpt lat="45.4112767" lon="10.5430283"><ele>122.0</ele><time>2026-03-28T09:08:11.836Z</time></trkpt><trkpt lat="45.4111933" lon="10.5432833"><ele>120.0</ele><time>2026-03-28T09:08:12.837Z</time></trkpt><trkpt lat="45.41114" lon="10.5435267"><ele>120.66666666666666</ele><time>2026-03-28T09:08:13.837Z</time></trkpt><trkpt lat="45.41108" lon="10.5437583"><ele>121.33333333333333</ele><time>2026-03-28T09:08:14.836Z</time></trkpt><trkpt lat="45.4110017" lon="10.5439733"><ele>122.0</ele><time>2026-03-28T09:08:15.837Z</time></trkpt><trkpt lat="45.4108767" lon="10.5441733"><ele>122.0</ele><time>2026-03-28T09:08:16.837Z</time></trkpt><trkpt lat="45.4107367" lon="10.5443467"><ele>122.0</ele><time>2026-03-28T09:08:17.836Z</time></trkpt><trkpt lat="45.41058" lon="10.5445267"><ele>122.0</ele><time>2026-03-28T09:08:18.837Z</time></trkpt><trkpt lat="45.41042" lon="10.544705"><ele>121.66666666666666</ele><time>2026-03-28T09:08:19.836Z</time></trkpt><trkpt lat="45.4102633" lon="10.544885"><ele>121.33333333333334</ele><time>2026-03-28T09:08:20.836Z</time></trkpt><trkpt lat="45.4101083" lon="10.5450617"><ele>121.0</ele><time>2026-03-28T09:08:21.836Z</time></trkpt><trkpt lat="45.40996" lon="10.5452383"><ele>121.33333333333334</ele><time>2026-03-28T09:08:22.836Z</time></trkpt><trkpt lat="45.40982" lon="10.5454083"><ele>121.66666666666666</ele><time>2026-03-28T09:08:23.836Z</time></trkpt><trkpt lat="45.4096767" lon="10.5455683"><ele>122.0</ele><time>2026-03-28T09:08:24.837Z</time></trkpt><trkpt lat="45.409535" lon="10.545715"><ele>119.33333333333333</ele><time>2026-03-28T09:08:25.836Z</time></trkpt><trkpt lat="45.40937" lon="10.5458133"><ele>116.66666666666666</ele><time>2026-03-28T09:08:26.837Z</time></trkpt><trkpt lat="45.409225" lon="10.545875"><ele>114.0</ele><time>2026-03-28T09:08:27.836Z</time></trkpt><trkpt lat="45.4090917" lon="10.545895"><ele>114.0</ele><time>2026-03-28T09:08:28.837Z</time></trkpt><trkpt lat="45.4089833" lon="10.5459117"><ele>114.0</ele><time>2026-03-28T09:08:29.836Z</time></trkpt><trkpt lat="45.4089017" lon="10.5458983"><ele>114.0</ele><time>2026-03-28T09:08:30.837Z</time></trkpt><trkpt lat="45.40883" lon="10.5458883"><ele>114.0</ele><time>2026-03-28T09:08:31.836Z</time></trkpt><trkpt lat="45.4087317" lon="10.54584"><ele>114.0</ele><time>2026-03-28T09:08:33.836Z</time></trkpt><trkpt lat="45.4086183" lon="10.5458083"><ele>113.6</ele><time>2026-03-28T09:08:35.837Z</time></trkpt><trkpt lat="45.408535" lon="10.545795"><ele>113.2</ele><time>2026-03-28T09:08:36.836Z</time></trkpt><trkpt lat="45.408435" lon="10.54579"><ele>112.79999999999998</ele><time>2026-03-28T09:08:37.836Z</time></trkpt><trkpt lat="45.408325" lon="10.5457733"><ele>112.39999999999999</ele><time>2026-03-28T09:08:38.837Z</time></trkpt><trkpt lat="45.4081933" lon="10.5457683"><ele>112.0</ele><time>2026-03-28T09:08:39.836Z</time></trkpt><trkpt lat="45.4080517" lon="10.545785"><ele>112.0</ele><time>2026-03-28T09:08:40.837Z</time></trkpt><trkpt lat="45.407905" lon="10.5458117"><ele>112.0</ele><time>2026-03-28T09:08:41.836Z</time></trkpt><trkpt lat="45.4077533" lon="10.5458533"><ele>112.0</ele><time>2026-03-28T09:08:42.836Z</time></trkpt><trkpt lat="45.4075933" lon="10.5458917"><ele>112.0</ele><time>2026-03-28T09:08:43.836Z</time></trkpt><trkpt lat="45.4074483" lon="10.5459367"><ele>112.0</ele><time>2026-03-28T09:08:44.836Z</time></trkpt><trkpt lat="45.4073183" lon="10.5459867"><ele>112.0</ele><time>2026-03-28T09:08:45.837Z</time></trkpt><trkpt lat="45.407205" lon="10.5460533"><ele>112.0</ele><time>2026-03-28T09:08:46.836Z</time></trkpt><trkpt lat="45.4071" lon="10.546135"><ele>113.0</ele><time>2026-03-28T09:08:47.836Z</time></trkpt><trkpt lat="45.4070017" lon="10.5462383"><ele>114.0</ele><time>2026-03-28T09:08:48.836Z</time></trkpt><trkpt lat="45.40689" lon="10.5463517"><ele>115.0</ele><time>2026-03-28T09:08:49.836Z</time></trkpt><trkpt lat="45.40677" lon="10.5464867"><ele>116.0</ele><time>2026-03-28T09:08:50.837Z</time></trkpt><trkpt lat="45.406655" lon="10.5466433"><ele>116.0</ele><time>2026-03-28T09:08:51.837Z</time></trkpt><trkpt lat="45.4065317" lon="10.5468067"><ele>116.0</ele><time>2026-03-28T09:08:52.836Z</time></trkpt><trkpt lat="45.4064" lon="10.546955"><ele>116.0</ele><time>2026-03-28T09:08:53.836Z</time></trkpt><trkpt lat="45.4062617" lon="10.5470733"><ele>118.0</ele><time>2026-03-28T09:08:54.836Z</time></trkpt><trkpt lat="45.4061183" lon="10.5471633"><ele>120.0</ele><time>2026-03-28T09:08:55.836Z</time></trkpt><trkpt lat="45.4059583" lon="10.54725"><ele>122.0</ele><time>2026-03-28T09:08:56.836Z</time></trkpt><trkpt lat="45.4058" lon="10.5473333"><ele>122.0</ele><time>2026-03-28T09:08:57.837Z</time></trkpt><trkpt lat="45.40566" lon="10.547405"><ele>122.0</ele><time>2026-03-28T09:08:58.837Z</time></trkpt><trkpt lat="45.405525" lon="10.5474683"><ele>122.0</ele><time>2026-03-28T09:08:59.837Z</time></trkpt><trkpt lat="45.4053983" lon="10.5475383"><ele>122.0</ele><time>2026-03-28T09:09:00.837Z</time></trkpt><trkpt lat="45.40527" lon="10.5476217"><ele>122.33333333333333</ele><time>2026-03-28T09:09:01.837Z</time></trkpt><trkpt lat="45.4051317" lon="10.5477217"><ele>122.66666666666666</ele><time>2026-03-28T09:09:02.836Z</time></trkpt><trkpt lat="45.40498" lon="10.5478317"><ele>123.0</ele><time>2026-03-28T09:09:03.837Z</time></trkpt><trkpt lat="45.40482" lon="10.5479617"><ele>121.33333333333334</ele><time>2026-03-28T09:09:04.836Z</time></trkpt><trkpt lat="45.40465" lon="10.5481083"><ele>119.66666666666667</ele><time>2026-03-28T09:09:05.837Z</time></trkpt><trkpt lat="45.4044833" lon="10.54825"><ele>118.0</ele><time>2026-03-28T09:09:06.836Z</time></trkpt><trkpt lat="45.404335" lon="10.5483833"><ele>118.0</ele><time>2026-03-28T09:09:07.837Z</time></trkpt><trkpt lat="45.4042" lon="10.5485017"><ele>118.0</ele><time>2026-03-28T09:09:08.837Z</time></trkpt><trkpt lat="45.4040867" lon="10.5486067"><ele>118.0</ele><time>2026-03-28T09:09:09.837Z</time></trkpt><trkpt lat="45.4039833" lon="10.5487183"><ele>118.0</ele><time>2026-03-28T09:09:10.836Z</time></trkpt><trkpt lat="45.4038733" lon="10.548845"><ele>117.75</ele><time>2026-03-28T09:09:11.837Z</time></trkpt><trkpt lat="45.4037633" lon="10.5489833"><ele>117.5</ele><time>2026-03-28T09:09:12.837Z</time></trkpt><trkpt lat="45.4036617" lon="10.5491367"><ele>117.25</ele><time>2026-03-28T09:09:13.836Z</time></trkpt><trkpt lat="45.4035583" lon="10.549265"><ele>117.0</ele><time>2026-03-28T09:09:14.836Z</time></trkpt><trkpt lat="45.40345" lon="10.5493633"><ele>117.0</ele><time>2026-03-28T09:09:15.837Z</time></trkpt><trkpt lat="45.4033267" lon="10.5494333"><ele>117.0</ele><time>2026-03-28T09:09:16.837Z</time></trkpt><trkpt lat="45.4032067" lon="10.5494833"><ele>117.0</ele><time>2026-03-28T09:09:17.837Z</time></trkpt><trkpt lat="45.4030917" lon="10.5495033"><ele>117.0</ele><time>2026-03-28T09:09:18.837Z</time></trkpt><trkpt lat="45.4029817" lon="10.54949"><ele>116.6</ele><time>2026-03-28T09:09:19.837Z</time></trkpt><trkpt lat="45.402875" lon="10.549465"><ele>116.19999999999999</ele><time>2026-03-28T09:09:20.837Z</time></trkpt><trkpt lat="45.40276" lon="10.5494367"><ele>115.8</ele><time>2026-03-28T09:09:21.837Z</time></trkpt><trkpt lat="45.40265" lon="10.54943"><ele>115.4</ele><time>2026-03-28T09:09:22.837Z</time></trkpt><trkpt lat="45.4025433" lon="10.5494567"><ele>115.0</ele><time>2026-03-28T09:09:23.836Z</time></trkpt><trkpt lat="45.40244" lon="10.549505"><ele>115.25</ele><time>2026-03-28T09:09:24.837Z</time></trkpt><trkpt lat="45.4023367" lon="10.5495683"><ele>115.5</ele><time>2026-03-28T09:09:25.837Z</time></trkpt><trkpt lat="45.4022317" lon="10.549665"><ele>115.75</ele><time>2026-03-28T09:09:26.837Z</time></trkpt><trkpt lat="45.402125" lon="10.5497967"><ele>116.0</ele><time>2026-03-28T09:09:27.836Z</time></trkpt><trkpt lat="45.40201" lon="10.5499317"><ele>116.0</ele><time>2026-03-28T09:09:28.837Z</time></trkpt><trkpt lat="45.4018933" lon="10.5501067"><ele>116.0</ele><time>2026-03-28T09:09:29.836Z</time></trkpt><trkpt lat="45.4017717" lon="10.55028"><ele>116.0</ele><time>2026-03-28T09:09:30.836Z</time></trkpt><trkpt lat="45.401635" lon="10.5504617"><ele>116.33333333333333</ele><time>2026-03-28T09:09:31.837Z</time></trkpt><trkpt lat="45.4015067" lon="10.5506417"><ele>116.66666666666666</ele><time>2026-03-28T09:09:32.836Z</time></trkpt><trkpt lat="45.401385" lon="10.5508083"><ele>117.0</ele><time>2026-03-28T09:09:33.837Z</time></trkpt><trkpt lat="45.4012917" lon="10.5509233"><ele>116.39999999999999</ele><time>2026-03-28T09:09:34.837Z</time></trkpt><trkpt lat="45.4012033" lon="10.551005"><ele>115.79999999999998</ele><time>2026-03-28T09:09:35.836Z</time></trkpt><trkpt lat="45.4011067" lon="10.5510533"><ele>115.2</ele><time>2026-03-28T09:09:36.836Z</time></trkpt><trkpt lat="45.401" lon="10.5510733"><ele>114.6</ele><time>2026-03-28T09:09:37.836Z</time></trkpt><trkpt lat="45.4008717" lon="10.55108"><ele>114.0</ele><time>2026-03-28T09:09:38.836Z</time></trkpt><trkpt lat="45.4007433" lon="10.5510717"><ele>114.0</ele><time>2026-03-28T09:09:39.836Z</time></trkpt><trkpt lat="45.400615" lon="10.5510667"><ele>114.0</ele><time>2026-03-28T09:09:40.837Z</time></trkpt><trkpt lat="45.4004967" lon="10.5510717"><ele>114.0</ele><time>2026-03-28T09:09:41.836Z</time></trkpt><trkpt lat="45.4003917" lon="10.5510967"><ele>114.0</ele><time>2026-03-28T09:09:42.836Z</time></trkpt><trkpt lat="45.400285" lon="10.5511483"><ele>113.25</ele><time>2026-03-28T09:09:43.837Z</time></trkpt><trkpt lat="45.40017" lon="10.551225"><ele>112.5</ele><time>2026-03-28T09:09:44.837Z</time></trkpt><trkpt lat="45.400065" lon="10.55132"><ele>111.75</ele><time>2026-03-28T09:09:45.837Z</time></trkpt><trkpt lat="45.3999583" lon="10.551425"><ele>111.0</ele><time>2026-03-28T09:09:46.837Z</time></trkpt><trkpt lat="45.3998517" lon="10.5515067"><ele>111.0</ele><time>2026-03-28T09:09:47.836Z</time></trkpt><trkpt lat="45.399745" lon="10.5515467"><ele>111.0</ele><time>2026-03-28T09:09:48.836Z</time></trkpt><trkpt lat="45.3996267" lon="10.5515583"><ele>111.0</ele><time>2026-03-28T09:09:49.836Z</time></trkpt><trkpt lat="45.3995133" lon="10.5515617"><ele>111.0</ele><time>2026-03-28T09:09:50.836Z</time></trkpt><trkpt lat="45.3993867" lon="10.5515717"><ele>112.0</ele><time>2026-03-28T09:09:51.836Z</time></trkpt><trkpt lat="45.3992683" lon="10.5515667"><ele>113.0</ele><time>2026-03-28T09:09:52.836Z</time></trkpt><trkpt lat="45.3991533" lon="10.5515483"><ele>114.0</ele><time>2026-03-28T09:09:53.836Z</time></trkpt><trkpt lat="45.39904" lon="10.55153"><ele>115.0</ele><time>2026-03-28T09:09:54.836Z</time></trkpt><trkpt lat="45.3989183" lon="10.5515167"><ele>117.0</ele><time>2026-03-28T09:09:55.837Z</time></trkpt><trkpt lat="45.39881" lon="10.5515683"><ele>119.0</ele><time>2026-03-28T09:09:56.836Z</time></trkpt><trkpt lat="45.3986833" lon="10.55161"><ele>121.0</ele><time>2026-03-28T09:09:57.837Z</time></trkpt><trkpt lat="45.3985667" lon="10.5516633"><ele>123.0</ele><time>2026-03-28T09:09:58.837Z</time></trkpt><trkpt lat="45.3984467" lon="10.55174"><ele>123.0</ele><time>2026-03-28T09:09:59.837Z</time></trkpt><trkpt lat="45.3983317" lon="10.5517983"><ele>123.0</ele><time>2026-03-28T09:10:00.837Z</time></trkpt><trkpt lat="45.398225" lon="10.55184"><ele>123.0</ele><time>2026-03-28T09:10:01.837Z</time></trkpt><trkpt lat="45.3981083" lon="10.5518567"><ele>123.0</ele><time>2026-03-28T09:10:02.836Z</time></trkpt><trkpt lat="45.398" lon="10.5518617"><ele>122.75</ele><time>2026-03-28T09:10:03.836Z</time></trkpt><trkpt lat="45.397875" lon="10.5518533"><ele>122.5</ele><time>2026-03-28T09:10:04.836Z</time></trkpt><trkpt lat="45.3977383" lon="10.5518283"><ele>122.25</ele><time>2026-03-28T09:10:05.837Z</time></trkpt><trkpt lat="45.3976033" lon="10.55178"><ele>122.0</ele><time>2026-03-28T09:10:06.837Z</time></trkpt><trkpt lat="45.3974583" lon="10.5517317"><ele>122.0</ele><time>2026-03-28T09:10:07.837Z</time></trkpt><trkpt lat="45.3973067" lon="10.5517017"><ele>122.0</ele><time>2026-03-28T09:10:08.836Z</time></trkpt><trkpt lat="45.3971567" lon="10.5516817"><ele>122.0</ele><time>2026-03-28T09:10:09.836Z</time></trkpt><trkpt lat="45.397035" lon="10.5516667"><ele>122.0</ele><time>2026-03-28T09:10:10.836Z</time></trkpt><trkpt lat="45.3969717" lon="10.55163"><ele>121.8</ele><time>2026-03-28T09:10:11.837Z</time></trkpt><trkpt lat="45.3968917" lon="10.5516917"><ele>121.6</ele><time>2026-03-28T09:10:13.836Z</time></trkpt><trkpt lat="45.396885" lon="10.5518383"><ele>121.39999999999999</ele><time>2026-03-28T09:10:16.837Z</time></trkpt><trkpt lat="45.396865" lon="10.5519717"><ele>121.19999999999999</ele><time>2026-03-28T09:10:18.837Z</time></trkpt><trkpt lat="45.3968683" lon="10.5521567"><ele>121.0</ele><time>2026-03-28T09:10:20.836Z</time></trkpt><trkpt lat="45.3968817" lon="10.5522567"><ele>122.8</ele><time>2026-03-28T09:10:21.837Z</time></trkpt><trkpt lat="45.396905" lon="10.5523767"><ele>124.6</ele><time>2026-03-28T09:10:22.837Z</time></trkpt><trkpt lat="45.3969367" lon="10.5525133"><ele>126.4</ele><time>2026-03-28T09:10:23.837Z</time></trkpt><trkpt lat="45.396985" lon="10.5526517"><ele>128.2</ele><time>2026-03-28T09:10:24.836Z</time></trkpt><trkpt lat="45.3970433" lon="10.5528017"><ele>130.0</ele><time>2026-03-28T09:10:25.837Z</time></trkpt><trkpt lat="45.3970967" lon="10.5529617"><ele>130.0</ele><time>2026-03-28T09:10:26.836Z</time></trkpt><trkpt lat="45.3971467" lon="10.5531417"><ele>130.0</ele><time>2026-03-28T09:10:27.836Z</time></trkpt><trkpt lat="45.3972017" lon="10.5533333"><ele>130.0</ele><time>2026-03-28T09:10:28.836Z</time></trkpt><trkpt lat="45.3972667" lon="10.5535233"><ele>130.0</ele><time>2026-03-28T09:10:29.836Z</time></trkpt><trkpt lat="45.3973267" lon="10.5537117"><ele>125.75</ele><time>2026-03-28T09:10:30.836Z</time></trkpt><trkpt lat="45.397385" lon="10.5538717"><ele>121.5</ele><time>2026-03-28T09:10:31.836Z</time></trkpt><trkpt lat="45.397445" lon="10.55402"><ele>117.25</ele><time>2026-03-28T09:10:32.837Z</time></trkpt><trkpt lat="45.3975033" lon="10.554175"><ele>113.0</ele><time>2026-03-28T09:10:33.837Z</time></trkpt><trkpt lat="45.3975533" lon="10.55433"><ele>113.0</ele><time>2026-03-28T09:10:34.836Z</time></trkpt><trkpt lat="45.3975883" lon="10.5544633"><ele>113.00000000000001</ele><time>2026-03-28T09:10:35.836Z</time></trkpt><trkpt lat="45.3976117" lon="10.554585"><ele>113.00000000000001</ele><time>2026-03-28T09:10:36.836Z</time></trkpt><trkpt lat="45.3976317" lon="10.5547217"><ele>113.0</ele><time>2026-03-28T09:10:37.836Z</time></trkpt><trkpt lat="45.3976333" lon="10.5548767"><ele>113.0</ele><time>2026-03-28T09:10:38.837Z</time></trkpt><trkpt lat="45.3976067" lon="10.5550467"><ele>112.0</ele><time>2026-03-28T09:10:39.837Z</time></trkpt><trkpt lat="45.39755" lon="10.555225"><ele>111.0</ele><time>2026-03-28T09:10:40.837Z</time></trkpt><trkpt lat="45.3974867" lon="10.5554217"><ele>110.0</ele><time>2026-03-28T09:10:41.836Z</time></trkpt><trkpt lat="45.3974317" lon="10.5556433"><ele>108.66666666666666</ele><time>2026-03-28T09:10:42.837Z</time></trkpt><trkpt lat="45.3973833" lon="10.5558883"><ele>107.33333333333334</ele><time>2026-03-28T09:10:43.836Z</time></trkpt><trkpt lat="45.3973333" lon="10.5561533"><ele>106.0</ele><time>2026-03-28T09:10:44.837Z</time></trkpt><trkpt lat="45.3972983" lon="10.5564067"><ele>106.0</ele><time>2026-03-28T09:10:45.836Z</time></trkpt><trkpt lat="45.3972817" lon="10.55665"><ele>106.0</ele><time>2026-03-28T09:10:46.836Z</time></trkpt><trkpt lat="45.3972533" lon="10.55687"><ele>106.0</ele><time>2026-03-28T09:10:47.836Z</time></trkpt><trkpt lat="45.3972217" lon="10.5570433"><ele>106.0</ele><time>2026-03-28T09:10:48.837Z</time></trkpt><trkpt lat="45.3971717" lon="10.557185"><ele>106.0</ele><time>2026-03-28T09:10:49.837Z</time></trkpt><trkpt lat="45.397115" lon="10.557325"><ele>106.0</ele><time>2026-03-28T09:10:50.836Z</time></trkpt><trkpt lat="45.3970317" lon="10.5574733"><ele>106.0</ele><time>2026-03-28T09:10:51.837Z</time></trkpt><trkpt lat="45.396935" lon="10.5576383"><ele>105.33333333333334</ele><time>2026-03-28T09:10:52.836Z</time></trkpt><trkpt lat="45.3968483" lon="10.55784"><ele>104.66666666666666</ele><time>2026-03-28T09:10:53.836Z</time></trkpt><trkpt lat="45.396785" lon="10.55808"><ele>104.0</ele><time>2026-03-28T09:10:54.837Z</time></trkpt><trkpt lat="45.3967467" lon="10.5583417"><ele>104.0</ele><time>2026-03-28T09:10:55.836Z</time></trkpt><trkpt lat="45.3967483" lon="10.55863"><ele>104.0</ele><time>2026-03-28T09:10:56.837Z</time></trkpt><trkpt lat="45.3967567" lon="10.5589383"><ele>104.0</ele><time>2026-03-28T09:10:57.837Z</time></trkpt><trkpt lat="45.3967833" lon="10.559265"><ele>104.0</ele><time>2026-03-28T09:10:58.836Z</time></trkpt><trkpt lat="45.3968067" lon="10.5595967"><ele>104.0</ele><time>2026-03-28T09:10:59.837Z</time></trkpt><trkpt lat="45.3968233" lon="10.55993"><ele>104.0</ele><time>2026-03-28T09:11:00.836Z</time></trkpt><trkpt lat="45.3968433" lon="10.560255"><ele>104.0</ele><time>2026-03-28T09:11:01.837Z</time></trkpt><trkpt lat="45.39685" lon="10.5605633"><ele>104.0</ele><time>2026-03-28T09:11:02.837Z</time></trkpt><trkpt lat="45.3968417" lon="10.560845"><ele>104.0</ele><time>2026-03-28T09:11:03.836Z</time></trkpt><trkpt lat="45.396815" lon="10.561115"><ele>104.0</ele><time>2026-03-28T09:11:04.836Z</time></trkpt><trkpt lat="45.3967783" lon="10.5613833"><ele>104.0</ele><time>2026-03-28T09:11:05.836Z</time></trkpt><trkpt lat="45.39671" lon="10.5616483"><ele>104.0</ele><time>2026-03-28T09:11:06.837Z</time></trkpt><trkpt lat="45.3966317" lon="10.5619317"><ele>104.0</ele><time>2026-03-28T09:11:07.836Z</time></trkpt><trkpt lat="45.3965517" lon="10.5622067"><ele>104.0</ele><time>2026-03-28T09:11:08.837Z</time></trkpt><trkpt lat="45.3964683" lon="10.5624683"><ele>103.0</ele><time>2026-03-28T09:11:09.836Z</time></trkpt><trkpt lat="45.396385" lon="10.5627117"><ele>102.0</ele><time>2026-03-28T09:11:10.837Z</time></trkpt><trkpt lat="45.39631" lon="10.5629333"><ele>101.0</ele><time>2026-03-28T09:11:11.837Z</time></trkpt><trkpt lat="45.3962333" lon="10.563125"><ele>101.0</ele><time>2026-03-28T09:11:12.837Z</time></trkpt><trkpt lat="45.396175" lon="10.563285"><ele>101.0</ele><time>2026-03-28T09:11:13.837Z</time></trkpt><trkpt lat="45.396125" lon="10.563395"><ele>101.0</ele><time>2026-03-28T09:11:14.836Z</time></trkpt><trkpt lat="45.396095" lon="10.56348"><ele>101.0</ele><time>2026-03-28T09:11:15.836Z</time></trkpt><trkpt lat="45.3960867" lon="10.5635883"><ele>101.0</ele><time>2026-03-28T09:11:17.837Z</time></trkpt><trkpt lat="45.39614" lon="10.5636967"><ele>101.0</ele><time>2026-03-28T09:11:19.837Z</time></trkpt><trkpt lat="45.39619" lon="10.563765"><ele>101.0</ele><time>2026-03-28T09:11:20.837Z</time></trkpt><trkpt lat="45.3962517" lon="10.563845"><ele>101.0</ele><time>2026-03-28T09:11:21.837Z</time></trkpt><trkpt lat="45.3963217" lon="10.563945"><ele>101.0</ele><time>2026-03-28T09:11:22.836Z</time></trkpt><trkpt lat="45.3964033" lon="10.5640583"><ele>101.0</ele><time>2026-03-28T09:11:23.836Z</time></trkpt><trkpt lat="45.39649" lon="10.5641833"><ele>101.25</ele><time>2026-03-28T09:11:24.836Z</time></trkpt><trkpt lat="45.396585" lon="10.56432"><ele>101.5</ele><time>2026-03-28T09:11:25.836Z</time></trkpt><trkpt lat="45.3966867" lon="10.5644583"><ele>101.75</ele><time>2026-03-28T09:11:26.837Z</time></trkpt><trkpt lat="45.3967867" lon="10.5646133"><ele>102.0</ele><time>2026-03-28T09:11:27.836Z</time></trkpt><trkpt lat="45.3968967" lon="10.5647583"><ele>102.0</ele><time>2026-03-28T09:11:28.837Z</time></trkpt><trkpt lat="45.3970233" lon="10.5649083"><ele>102.0</ele><time>2026-03-28T09:11:29.837Z</time></trkpt><trkpt lat="45.3971533" lon="10.56507"><ele>102.0</ele><time>2026-03-28T09:11:30.837Z</time></trkpt><trkpt lat="45.3972617" lon="10.5652283"><ele>102.0</ele><time>2026-03-28T09:11:31.837Z</time></trkpt><trkpt lat="45.3973567" lon="10.5653683"><ele>102.0</ele><time>2026-03-28T09:11:32.836Z</time></trkpt><trkpt lat="45.39742" lon="10.5655267"><ele>102.0</ele><time>2026-03-28T09:11:33.836Z</time></trkpt><trkpt lat="45.3974683" lon="10.565725"><ele>102.0</ele><time>2026-03-28T09:11:34.836Z</time></trkpt><trkpt lat="45.39752" lon="10.5659317"><ele>102.0</ele><time>2026-03-28T09:11:35.836Z</time></trkpt><trkpt lat="45.3975917" lon="10.56614"><ele>102.0</ele><time>2026-03-28T09:11:36.837Z</time></trkpt><trkpt lat="45.397695" lon="10.5663417"><ele>102.0</ele><time>2026-03-28T09:11:37.837Z</time></trkpt><trkpt lat="45.397825" lon="10.5665317"><ele>102.0</ele><time>2026-03-28T09:11:38.836Z</time></trkpt><trkpt lat="45.3979817" lon="10.566725"><ele>102.0</ele><time>2026-03-28T09:11:39.837Z</time></trkpt><trkpt lat="45.398145" lon="10.5669267"><ele>102.0</ele><time>2026-03-28T09:11:40.837Z</time></trkpt><trkpt lat="45.39831" lon="10.5671317"><ele>103.0</ele><time>2026-03-28T09:11:41.836Z</time></trkpt><trkpt lat="45.3984783" lon="10.5673383"><ele>104.0</ele><time>2026-03-28T09:11:42.836Z</time></trkpt><trkpt lat="45.398655" lon="10.5675417"><ele>105.0</ele><time>2026-03-28T09:11:43.836Z</time></trkpt><trkpt lat="45.3988267" lon="10.567745"><ele>106.33333333333334</ele><time>2026-03-28T09:11:44.837Z</time></trkpt><trkpt lat="45.3989917" lon="10.5679317"><ele>107.66666666666667</ele><time>2026-03-28T09:11:45.837Z</time></trkpt><trkpt lat="45.39914" lon="10.5681267"><ele>109.0</ele><time>2026-03-28T09:11:46.837Z</time></trkpt><trkpt lat="45.3992717" lon="10.5682967"><ele>109.0</ele><time>2026-03-28T09:11:47.836Z</time></trkpt><trkpt lat="45.39938" lon="10.5684483"><ele>109.0</ele><time>2026-03-28T09:11:48.837Z</time></trkpt><trkpt lat="45.39947" lon="10.56858"><ele>109.0</ele><time>2026-03-28T09:11:49.836Z</time></trkpt><trkpt lat="45.39954" lon="10.56868"><ele>109.0</ele><time>2026-03-28T09:11:50.837Z</time></trkpt><trkpt lat="45.3995883" lon="10.56875"><ele>109.0</ele><time>2026-03-28T09:11:51.837Z</time></trkpt><trkpt lat="45.399625" lon="10.5688367"><ele>110.0</ele><time>2026-03-28T09:11:53.836Z</time></trkpt><trkpt lat="45.399585" lon="10.5689167"><ele>111.0</ele><time>2026-03-28T09:11:57.837Z</time></trkpt><trkpt lat="45.39952" lon="10.5689983"><ele>112.0</ele><time>2026-03-28T09:11:58.837Z</time></trkpt><trkpt lat="45.3994433" lon="10.5690883"><ele>113.0</ele><time>2026-03-28T09:11:59.837Z</time></trkpt><trkpt lat="45.399355" lon="10.5692033"><ele>114.0</ele><time>2026-03-28T09:12:00.836Z</time></trkpt><trkpt lat="45.3992567" lon="10.5693467"><ele>114.0</ele><time>2026-03-28T09:12:01.836Z</time></trkpt><trkpt lat="45.3991417" lon="10.5695"><ele>114.0</ele><time>2026-03-28T09:12:02.837Z</time></trkpt><trkpt lat="45.39902" lon="10.56966"><ele>114.0</ele><time>2026-03-28T09:12:03.837Z</time></trkpt><trkpt lat="45.3988967" lon="10.56985"><ele>115.66666666666666</ele><time>2026-03-28T09:12:04.837Z</time></trkpt><trkpt lat="45.3987667" lon="10.5700317"><ele>117.33333333333333</ele><time>2026-03-28T09:12:05.837Z</time></trkpt><trkpt lat="45.3986333" lon="10.5702117"><ele>119.0</ele><time>2026-03-28T09:12:06.837Z</time></trkpt><trkpt lat="45.3984967" lon="10.5703933"><ele>119.0</ele><time>2026-03-28T09:12:07.836Z</time></trkpt><trkpt lat="45.39833" lon="10.5705717"><ele>119.0</ele><time>2026-03-28T09:12:08.836Z</time></trkpt><trkpt lat="45.3981483" lon="10.5707667"><ele>119.0</ele><time>2026-03-28T09:12:09.837Z</time></trkpt><trkpt lat="45.3979683" lon="10.5709717"><ele>118.5</ele><time>2026-03-28T09:12:10.836Z</time></trkpt><trkpt lat="45.3977783" lon="10.57118"><ele>118.0</ele><time>2026-03-28T09:12:11.836Z</time></trkpt><trkpt lat="45.3975867" lon="10.5713967"><ele>118.0</ele><time>2026-03-28T09:12:12.837Z</time></trkpt><trkpt lat="45.3973983" lon="10.5716183"><ele>118.0</ele><time>2026-03-28T09:12:13.837Z</time></trkpt><trkpt lat="45.39721" lon="10.571835"><ele>117.5</ele><time>2026-03-28T09:12:14.836Z</time></trkpt><trkpt lat="45.39702" lon="10.5720433"><ele>117.0</ele><time>2026-03-28T09:12:15.836Z</time></trkpt><trkpt lat="45.3968483" lon="10.57225"><ele>117.0</ele><time>2026-03-28T09:12:16.836Z</time></trkpt><trkpt lat="45.3966933" lon="10.5724283"><ele>117.0</ele><time>2026-03-28T09:12:17.837Z</time></trkpt><trkpt lat="45.396555" lon="10.57261"><ele>117.0</ele><time>2026-03-28T09:12:18.836Z</time></trkpt><trkpt lat="45.3964183" lon="10.572755"><ele>117.66666666666666</ele><time>2026-03-28T09:12:19.836Z</time></trkpt><trkpt lat="45.3962667" lon="10.57289"><ele>118.33333333333333</ele><time>2026-03-28T09:12:20.836Z</time></trkpt><trkpt lat="45.3961033" lon="10.5729917"><ele>119.0</ele><time>2026-03-28T09:12:21.837Z</time></trkpt><trkpt lat="45.3959383" lon="10.5730933"><ele>119.0</ele><time>2026-03-28T09:12:22.837Z</time></trkpt><trkpt lat="45.3957733" lon="10.5731933"><ele>119.0</ele><time>2026-03-28T09:12:23.836Z</time></trkpt><trkpt lat="45.3955933" lon="10.5733183"><ele>119.0</ele><time>2026-03-28T09:12:24.836Z</time></trkpt><trkpt lat="45.3954267" lon="10.57347"><ele>119.0</ele><time>2026-03-28T09:12:25.836Z</time></trkpt><trkpt lat="45.395265" lon="10.5736417"><ele>119.0</ele><time>2026-03-28T09:12:26.836Z</time></trkpt><trkpt lat="45.395095" lon="10.5738217"><ele>119.0</ele><time>2026-03-28T09:12:27.836Z</time></trkpt><trkpt lat="45.3949117" lon="10.57401"><ele>119.0</ele><time>2026-03-28T09:12:28.836Z</time></trkpt><trkpt lat="45.3947217" lon="10.5742183"><ele>119.0</ele><time>2026-03-28T09:12:29.837Z</time></trkpt><trkpt lat="45.3945267" lon="10.5744483"><ele>119.0</ele><time>2026-03-28T09:12:30.837Z</time></trkpt><trkpt lat="45.3943283" lon="10.5746733"><ele>119.0</ele><time>2026-03-28T09:12:31.836Z</time></trkpt><trkpt lat="45.3941317" lon="10.5749233"><ele>119.0</ele><time>2026-03-28T09:12:32.837Z</time></trkpt><trkpt lat="45.3939367" lon="10.575175"><ele>119.0</ele><time>2026-03-28T09:12:33.836Z</time></trkpt><trkpt lat="45.3937433" lon="10.5754383"><ele>118.5</ele><time>2026-03-28T09:12:34.836Z</time></trkpt><trkpt lat="45.39356" lon="10.5757367"><ele>118.0</ele><time>2026-03-28T09:12:35.837Z</time></trkpt><trkpt lat="45.3933917" lon="10.5760483"><ele>119.0</ele><time>2026-03-28T09:12:36.837Z</time></trkpt><trkpt lat="45.3932333" lon="10.5763567"><ele>120.0</ele><time>2026-03-28T09:12:37.836Z</time></trkpt><trkpt lat="45.3930867" lon="10.576645"><ele>119.33333333333334</ele><time>2026-03-28T09:12:38.836Z</time></trkpt><trkpt lat="45.3929517" lon="10.576915"><ele>118.66666666666667</ele><time>2026-03-28T09:12:39.837Z</time></trkpt><trkpt lat="45.3928267" lon="10.5771517"><ele>118.0</ele><time>2026-03-28T09:12:40.836Z</time></trkpt><trkpt lat="45.3927067" lon="10.5773767"><ele>118.0</ele><time>2026-03-28T09:12:41.836Z</time></trkpt><trkpt lat="45.392575" lon="10.5775883"><ele>118.0</ele><time>2026-03-28T09:12:42.837Z</time></trkpt><trkpt lat="45.392435" lon="10.5778017"><ele>118.0</ele><time>2026-03-28T09:12:43.836Z</time></trkpt><trkpt lat="45.3923" lon="10.5780067"><ele>117.66666666666667</ele><time>2026-03-28T09:12:44.837Z</time></trkpt><trkpt lat="45.39216" lon="10.5782183"><ele>117.33333333333334</ele><time>2026-03-28T09:12:45.837Z</time></trkpt><trkpt lat="45.3920183" lon="10.5784233"><ele>117.0</ele><time>2026-03-28T09:12:46.836Z</time></trkpt><trkpt lat="45.3918683" lon="10.5786367"><ele>117.0</ele><time>2026-03-28T09:12:47.836Z</time></trkpt><trkpt lat="45.39172" lon="10.578835"><ele>117.0</ele><time>2026-03-28T09:12:48.836Z</time></trkpt><trkpt lat="45.3915733" lon="10.5790317"><ele>117.0</ele><time>2026-03-28T09:12:49.837Z</time></trkpt><trkpt lat="45.391425" lon="10.5791917"><ele>117.25</ele><time>2026-03-28T09:12:50.837Z</time></trkpt><trkpt lat="45.3912983" lon="10.579325"><ele>117.5</ele><time>2026-03-28T09:12:51.837Z</time></trkpt><trkpt lat="45.3912017" lon="10.5794467"><ele>117.75</ele><time>2026-03-28T09:12:52.836Z</time></trkpt><trkpt lat="45.3911183" lon="10.5795767"><ele>118.0</ele><time>2026-03-28T09:12:53.836Z</time></trkpt><trkpt lat="45.39106" lon="10.579695"><ele>118.66666666666667</ele><time>2026-03-28T09:12:54.836Z</time></trkpt><trkpt lat="45.391015" lon="10.579815"><ele>119.33333333333334</ele><time>2026-03-28T09:12:55.836Z</time></trkpt><trkpt lat="45.3909783" lon="10.5799183"><ele>120.0</ele><time>2026-03-28T09:12:56.837Z</time></trkpt><trkpt lat="45.39095" lon="10.580005"><ele>120.66666666666666</ele><time>2026-03-28T09:12:57.837Z</time></trkpt><trkpt lat="45.39093" lon="10.5801367"><ele>121.33333333333333</ele><time>2026-03-28T09:12:59.836Z</time></trkpt><trkpt lat="45.3909683" lon="10.5802267"><ele>122.0</ele><time>2026-03-28T09:13:01.837Z</time></trkpt><trkpt lat="45.3910367" lon="10.5803"><ele>121.99999999999999</ele><time>2026-03-28T09:13:03.837Z</time></trkpt><trkpt lat="45.391105" lon="10.5803567"><ele>122.0</ele><time>2026-03-28T09:13:05.837Z</time></trkpt><trkpt lat="45.3911383" lon="10.5804417"><ele>122.0</ele><time>2026-03-28T09:13:07.836Z</time></trkpt><trkpt lat="45.3911133" lon="10.5805733"><ele>122.0</ele><time>2026-03-28T09:13:09.837Z</time></trkpt><trkpt lat="45.3910783" lon="10.5806733"><ele>121.99999999999999</ele><time>2026-03-28T09:13:10.836Z</time></trkpt><trkpt lat="45.3910433" lon="10.580805"><ele>122.0</ele><time>2026-03-28T09:13:11.837Z</time></trkpt><trkpt lat="45.391" lon="10.58094"><ele>122.0</ele><time>2026-03-28T09:13:12.836Z</time></trkpt><trkpt lat="45.390965" lon="10.5810967"><ele>121.99999999999999</ele><time>2026-03-28T09:13:13.836Z</time></trkpt><trkpt lat="45.3909083" lon="10.5812467"><ele>121.99999999999999</ele><time>2026-03-28T09:13:14.837Z</time></trkpt><trkpt lat="45.390835" lon="10.5813683"><ele>122.0</ele><time>2026-03-28T09:13:15.836Z</time></trkpt><trkpt lat="45.3907767" lon="10.58147"><ele>122.0</ele><time>2026-03-28T09:13:16.836Z</time></trkpt><trkpt lat="45.39072" lon="10.58154"><ele>121.19999999999999</ele><time>2026-03-28T09:13:17.836Z</time></trkpt><trkpt lat="45.390655" lon="10.5816317"><ele>120.39999999999999</ele><time>2026-03-28T09:13:19.836Z</time></trkpt><trkpt lat="45.3905917" lon="10.58178"><ele>119.60000000000001</ele><time>2026-03-28T09:13:21.837Z</time></trkpt><trkpt lat="45.39055" lon="10.5818917"><ele>118.80000000000001</ele><time>2026-03-28T09:13:22.836Z</time></trkpt><trkpt lat="45.3905" lon="10.5820317"><ele>118.0</ele><time>2026-03-28T09:13:23.836Z</time></trkpt><trkpt lat="45.39044" lon="10.582195"><ele>118.0</ele><time>2026-03-28T09:13:24.837Z</time></trkpt><trkpt lat="45.3903733" lon="10.58239"><ele>118.0</ele><time>2026-03-28T09:13:25.836Z</time></trkpt><trkpt lat="45.390295" lon="10.5825817"><ele>118.0</ele><time>2026-03-28T09:13:26.836Z</time></trkpt><trkpt lat="45.3902083" lon="10.58277"><ele>118.5</ele><time>2026-03-28T09:13:27.837Z</time></trkpt><trkpt lat="45.39012" lon="10.5829383"><ele>119.0</ele><time>2026-03-28T09:13:28.837Z</time></trkpt><trkpt lat="45.3900417" lon="10.5830867"><ele>119.5</ele><time>2026-03-28T09:13:29.837Z</time></trkpt><trkpt lat="45.3899783" lon="10.5832133"><ele>120.0</ele><time>2026-03-28T09:13:30.836Z</time></trkpt><trkpt lat="45.3899267" lon="10.5833217"><ele>120.0</ele><time>2026-03-28T09:13:31.836Z</time></trkpt><trkpt lat="45.3898883" lon="10.5834083"><ele>120.0</ele><time>2026-03-28T09:13:32.837Z</time></trkpt><trkpt lat="45.3898667" lon="10.5834983"><ele>120.0</ele><time>2026-03-28T09:13:33.836Z</time></trkpt><trkpt lat="45.3898683" lon="10.5835917"><ele>120.0</ele><time>2026-03-28T09:13:34.837Z</time></trkpt><trkpt lat="45.38989" lon="10.5836917"><ele>120.0</ele><time>2026-03-28T09:13:35.837Z</time></trkpt><trkpt lat="45.38993" lon="10.5837983"><ele>120.0</ele><time>2026-03-28T09:13:36.836Z</time></trkpt><trkpt lat="45.3899833" lon="10.58388"><ele>120.0</ele><time>2026-03-28T09:13:37.836Z</time></trkpt><trkpt lat="45.39004" lon="10.583935"><ele>119.8</ele><time>2026-03-28T09:13:38.837Z</time></trkpt><trkpt lat="45.3901233" lon="10.5839733"><ele>119.6</ele><time>2026-03-28T09:13:39.836Z</time></trkpt><trkpt lat="45.3902283" lon="10.5839833"><ele>119.4</ele><time>2026-03-28T09:13:40.837Z</time></trkpt><trkpt lat="45.3903483" lon="10.583985"><ele>119.2</ele><time>2026-03-28T09:13:41.836Z</time></trkpt><trkpt lat="45.3904733" lon="10.583965"><ele>119.0</ele><time>2026-03-28T09:13:42.837Z</time></trkpt><trkpt lat="45.3905933" lon="10.583955"><ele>119.0</ele><time>2026-03-28T09:13:43.837Z</time></trkpt><trkpt lat="45.3907117" lon="10.5839467"><ele>119.0</ele><time>2026-03-28T09:13:44.836Z</time></trkpt><trkpt lat="45.3908267" lon="10.5839433"><ele>119.0</ele><time>2026-03-28T09:13:45.837Z</time></trkpt><trkpt lat="45.3909417" lon="10.583955"><ele>119.0</ele><time>2026-03-28T09:13:46.837Z</time></trkpt><trkpt lat="45.39104" lon="10.5839683"><ele>119.0</ele><time>2026-03-28T09:13:47.836Z</time></trkpt><trkpt lat="45.3911383" lon="10.5840017"><ele>119.0</ele><time>2026-03-28T09:13:48.836Z</time></trkpt><trkpt lat="45.3912317" lon="10.5840717"><ele>119.0</ele><time>2026-03-28T09:13:49.836Z</time></trkpt><trkpt lat="45.3913267" lon="10.5841817"><ele>119.0</ele><time>2026-03-28T09:13:50.837Z</time></trkpt><trkpt lat="45.3914283" lon="10.5843083"><ele>119.0</ele><time>2026-03-28T09:13:51.836Z</time></trkpt><trkpt lat="45.391535" lon="10.584425"><ele>118.33333333333333</ele><time>2026-03-28T09:13:52.836Z</time></trkpt><trkpt lat="45.39162" lon="10.5845333"><ele>117.66666666666666</ele><time>2026-03-28T09:13:53.837Z</time></trkpt><trkpt lat="45.3916883" lon="10.5846233"><ele>117.0</ele><time>2026-03-28T09:13:54.836Z</time></trkpt><trkpt lat="45.39174" lon="10.58471"><ele>116.33333333333334</ele><time>2026-03-28T09:13:55.836Z</time></trkpt><trkpt lat="45.3917767" lon="10.58482"><ele>115.66666666666667</ele><time>2026-03-28T09:13:56.837Z</time></trkpt><trkpt lat="45.391785" lon="10.5849283"><ele>115.0</ele><time>2026-03-28T09:13:57.837Z</time></trkpt><trkpt lat="45.391775" lon="10.5850433"><ele>115.0</ele><time>2026-03-28T09:13:58.836Z</time></trkpt><trkpt lat="45.3917567" lon="10.5851917"><ele>115.0</ele><time>2026-03-28T09:13:59.837Z</time></trkpt><trkpt lat="45.3917317" lon="10.5853567"><ele>115.0</ele><time>2026-03-28T09:14:00.837Z</time></trkpt><trkpt lat="45.3917083" lon="10.5855583"><ele>115.0</ele><time>2026-03-28T09:14:01.837Z</time></trkpt><trkpt lat="45.3916667" lon="10.58577"><ele>115.0</ele><time>2026-03-28T09:14:02.837Z</time></trkpt><trkpt lat="45.391625" lon="10.5859783"><ele>115.0</ele><time>2026-03-28T09:14:03.837Z</time></trkpt><trkpt lat="45.3915867" lon="10.58618"><ele>115.0</ele><time>2026-03-28T09:14:04.837Z</time></trkpt><trkpt lat="45.39153" lon="10.5863567"><ele>115.0</ele><time>2026-03-28T09:14:05.836Z</time></trkpt><trkpt lat="45.3914467" lon="10.58652"><ele>115.0</ele><time>2026-03-28T09:14:06.837Z</time></trkpt><trkpt lat="45.3913883" lon="10.5866817"><ele>115.0</ele><time>2026-03-28T09:14:07.836Z</time></trkpt><trkpt lat="45.3913433" lon="10.5868417"><ele>115.0</ele><time>2026-03-28T09:14:08.836Z</time></trkpt><trkpt lat="45.3913233" lon="10.58701"><ele>115.0</ele><time>2026-03-28T09:14:09.836Z</time></trkpt><trkpt lat="45.3913183" lon="10.5871833"><ele>115.0</ele><time>2026-03-28T09:14:10.836Z</time></trkpt><trkpt lat="45.3913367" lon="10.58733"><ele>115.0</ele><time>2026-03-28T09:14:11.836Z</time></trkpt><trkpt lat="45.3913883" lon="10.58746"><ele>115.0</ele><time>2026-03-28T09:14:12.837Z</time></trkpt><trkpt lat="45.39146" lon="10.58756"><ele>115.0</ele><time>2026-03-28T09:14:13.836Z</time></trkpt><trkpt lat="45.391545" lon="10.5876533"><ele>115.0</ele><time>2026-03-28T09:14:14.837Z</time></trkpt><trkpt lat="45.3916417" lon="10.5877533"><ele>115.75</ele><time>2026-03-28T09:14:15.837Z</time></trkpt><trkpt lat="45.3917333" lon="10.5878767"><ele>116.5</ele><time>2026-03-28T09:14:16.837Z</time></trkpt><trkpt lat="45.3918017" lon="10.5880233"><ele>117.25</ele><time>2026-03-28T09:14:17.837Z</time></trkpt><trkpt lat="45.3918583" lon="10.588185"><ele>118.0</ele><time>2026-03-28T09:14:18.836Z</time></trkpt><trkpt lat="45.3919" lon="10.58838"><ele>118.0</ele><time>2026-03-28T09:14:19.837Z</time></trkpt><trkpt lat="45.3919433" lon="10.5885817"><ele>118.0</ele><time>2026-03-28T09:14:20.837Z</time></trkpt><trkpt lat="45.3919817" lon="10.5888"><ele>118.0</ele><time>2026-03-28T09:14:21.836Z</time></trkpt><trkpt lat="45.3920117" lon="10.5890283"><ele>118.0</ele><time>2026-03-28T09:14:22.837Z</time></trkpt><trkpt lat="45.39204" lon="10.5892567"><ele>118.0</ele><time>2026-03-28T09:14:23.836Z</time></trkpt><trkpt lat="45.39205" lon="10.5894783"><ele>118.0</ele><time>2026-03-28T09:14:24.836Z</time></trkpt><trkpt lat="45.3920583" lon="10.58969"><ele>117.66666666666667</ele><time>2026-03-28T09:14:25.837Z</time></trkpt><trkpt lat="45.392055" lon="10.5899167"><ele>117.33333333333334</ele><time>2026-03-28T09:14:26.837Z</time></trkpt><trkpt lat="45.3920633" lon="10.5901333"><ele>117.0</ele><time>2026-03-28T09:14:27.836Z</time></trkpt><trkpt lat="45.3920733" lon="10.59036"><ele>116.75</ele><time>2026-03-28T09:14:28.836Z</time></trkpt><trkpt lat="45.3920883" lon="10.5905833"><ele>116.5</ele><time>2026-03-28T09:14:29.836Z</time></trkpt><trkpt lat="45.3921117" lon="10.5907783"><ele>116.25</ele><time>2026-03-28T09:14:30.836Z</time></trkpt><trkpt lat="45.3921417" lon="10.5909383"><ele>116.0</ele><time>2026-03-28T09:14:31.836Z</time></trkpt><trkpt lat="45.3921983" lon="10.591085"><ele>117.25</ele><time>2026-03-28T09:14:32.837Z</time></trkpt><trkpt lat="45.392265" lon="10.5912233"><ele>118.5</ele><time>2026-03-28T09:14:33.836Z</time></trkpt><trkpt lat="45.39234" lon="10.5913583"><ele>119.75</ele><time>2026-03-28T09:14:34.836Z</time></trkpt><trkpt lat="45.3924217" lon="10.59149"><ele>121.0</ele><time>2026-03-28T09:14:35.837Z</time></trkpt><trkpt lat="45.3924933" lon="10.591615"><ele>121.0</ele><time>2026-03-28T09:14:36.836Z</time></trkpt><trkpt lat="45.392545" lon="10.5917333"><ele>121.0</ele><time>2026-03-28T09:14:37.836Z</time></trkpt><trkpt lat="45.392585" lon="10.59185"><ele>121.0</ele><time>2026-03-28T09:14:38.836Z</time></trkpt><trkpt lat="45.392615" lon="10.5919733"><ele>121.0</ele><time>2026-03-28T09:14:39.837Z</time></trkpt><trkpt lat="45.39263" lon="10.5921083"><ele>121.0</ele><time>2026-03-28T09:14:40.837Z</time></trkpt><trkpt lat="45.3926283" lon="10.5922317"><ele>120.83333333333334</ele><time>2026-03-28T09:14:41.837Z</time></trkpt><trkpt lat="45.3926167" lon="10.592355"><ele>120.66666666666667</ele><time>2026-03-28T09:14:42.837Z</time></trkpt><trkpt lat="45.3925967" lon="10.5924967"><ele>120.5</ele><time>2026-03-28T09:14:43.836Z</time></trkpt><trkpt lat="45.3925783" lon="10.5926333"><ele>120.33333333333334</ele><time>2026-03-28T09:14:44.837Z</time></trkpt><trkpt lat="45.3925733" lon="10.5927533"><ele>120.16666666666667</ele><time>2026-03-28T09:14:45.836Z</time></trkpt><trkpt lat="45.3925867" lon="10.59286"><ele>120.0</ele><time>2026-03-28T09:14:46.836Z</time></trkpt><trkpt lat="45.3926233" lon="10.59296"><ele>119.8</ele><time>2026-03-28T09:14:47.836Z</time></trkpt><trkpt lat="45.3926883" lon="10.59304"><ele>119.6</ele><time>2026-03-28T09:14:48.837Z</time></trkpt><trkpt lat="45.39276" lon="10.5930983"><ele>119.4</ele><time>2026-03-28T09:14:49.837Z</time></trkpt><trkpt lat="45.3928617" lon="10.5931333"><ele>119.2</ele><time>2026-03-28T09:14:50.836Z</time></trkpt><trkpt lat="45.392985" lon="10.5931717"><ele>119.0</ele><time>2026-03-28T09:14:51.837Z</time></trkpt><trkpt lat="45.3931067" lon="10.5932033"><ele>118.4</ele><time>2026-03-28T09:14:52.836Z</time></trkpt><trkpt lat="45.3932183" lon="10.59325"><ele>117.80000000000001</ele><time>2026-03-28T09:14:53.836Z</time></trkpt><trkpt lat="45.393315" lon="10.5933133"><ele>117.19999999999999</ele><time>2026-03-28T09:14:54.837Z</time></trkpt><trkpt lat="45.3934017" lon="10.593395"><ele>116.6</ele><time>2026-03-28T09:14:55.836Z</time></trkpt><trkpt lat="45.39349" lon="10.5935033"><ele>116.0</ele><time>2026-03-28T09:14:56.837Z</time></trkpt><trkpt lat="45.3935933" lon="10.5936133"><ele>116.0</ele><time>2026-03-28T09:14:57.836Z</time></trkpt><trkpt lat="45.3937" lon="10.5937017"><ele>116.0</ele><time>2026-03-28T09:14:58.836Z</time></trkpt><trkpt lat="45.3937967" lon="10.593765"><ele>116.0</ele><time>2026-03-28T09:14:59.836Z</time></trkpt><trkpt lat="45.3938733" lon="10.5938267"><ele>116.0</ele><time>2026-03-28T09:15:00.836Z</time></trkpt><trkpt lat="45.3939217" lon="10.5938917"><ele>116.0</ele><time>2026-03-28T09:15:01.836Z</time></trkpt><trkpt lat="45.3939483" lon="10.593985"><ele>115.5</ele><time>2026-03-28T09:15:02.836Z</time></trkpt><trkpt lat="45.39396" lon="10.5941"><ele>115.0</ele><time>2026-03-28T09:15:03.836Z</time></trkpt><trkpt lat="45.3939583" lon="10.5942467"><ele>114.5</ele><time>2026-03-28T09:15:04.837Z</time></trkpt><trkpt lat="45.3939417" lon="10.5944317"><ele>114.0</ele><time>2026-03-28T09:15:05.836Z</time></trkpt><trkpt lat="45.39393" lon="10.5946433"><ele>113.75</ele><time>2026-03-28T09:15:06.837Z</time></trkpt><trkpt lat="45.3939167" lon="10.5948283"><ele>113.5</ele><time>2026-03-28T09:15:07.836Z</time></trkpt><trkpt lat="45.3938933" lon="10.5950233"><ele>113.25</ele><time>2026-03-28T09:15:08.836Z</time></trkpt><trkpt lat="45.393875" lon="10.5952117"><ele>113.0</ele><time>2026-03-28T09:15:09.836Z</time></trkpt><trkpt lat="45.393865" lon="10.5954"><ele>113.49999999999999</ele><time>2026-03-28T09:15:10.837Z</time></trkpt><trkpt lat="45.3938667" lon="10.5955517"><ele>114.0</ele><time>2026-03-28T09:15:11.836Z</time></trkpt><trkpt lat="45.393885" lon="10.59567"><ele>114.5</ele><time>2026-03-28T09:15:12.836Z</time></trkpt><trkpt lat="45.3939167" lon="10.595765"><ele>115.0</ele><time>2026-03-28T09:15:13.836Z</time></trkpt><trkpt lat="45.3939717" lon="10.59585"><ele>115.49999999999999</ele><time>2026-03-28T09:15:14.836Z</time></trkpt><trkpt lat="45.394045" lon="10.595905"><ele>116.0</ele><time>2026-03-28T09:15:15.836Z</time></trkpt><trkpt lat="45.3941383" lon="10.5959567"><ele>116.0</ele><time>2026-03-28T09:15:16.836Z</time></trkpt><trkpt lat="45.3942333" lon="10.5959983"><ele>116.0</ele><time>2026-03-28T09:15:17.837Z</time></trkpt><trkpt lat="45.3943317" lon="10.5960417"><ele>116.0</ele><time>2026-03-28T09:15:18.836Z</time></trkpt><trkpt lat="45.3944383" lon="10.59609"><ele>116.0</ele><time>2026-03-28T09:15:19.836Z</time></trkpt><trkpt lat="45.3945433" lon="10.59612"><ele>116.0</ele><time>2026-03-28T09:15:20.837Z</time></trkpt><trkpt lat="45.3946633" lon="10.5961533"><ele>115.0</ele><time>2026-03-28T09:15:21.837Z</time></trkpt><trkpt lat="45.3947867" lon="10.5961983"><ele>114.0</ele><time>2026-03-28T09:15:22.836Z</time></trkpt><trkpt lat="45.3949067" lon="10.5962317"><ele>113.0</ele><time>2026-03-28T09:15:23.837Z</time></trkpt><trkpt lat="45.39503" lon="10.5962683"><ele>112.0</ele><time>2026-03-28T09:15:24.837Z</time></trkpt><trkpt lat="45.3951317" lon="10.5963"><ele>112.00000000000001</ele><time>2026-03-28T09:15:25.836Z</time></trkpt><trkpt lat="45.39522" lon="10.59634"><ele>112.0</ele><time>2026-03-28T09:15:26.837Z</time></trkpt><trkpt lat="45.3952983" lon="10.5963883"><ele>112.0</ele><time>2026-03-28T09:15:27.836Z</time></trkpt><trkpt lat="45.39537" lon="10.5964417"><ele>112.0</ele><time>2026-03-28T09:15:28.837Z</time></trkpt><trkpt lat="45.3954417" lon="10.5965283"><ele>112.00000000000001</ele><time>2026-03-28T09:15:29.837Z</time></trkpt><trkpt lat="45.3955" lon="10.596615"><ele>112.0</ele><time>2026-03-28T09:15:30.837Z</time></trkpt><trkpt lat="45.3955567" lon="10.596725"><ele>111.19999999999999</ele><time>2026-03-28T09:15:31.837Z</time></trkpt><trkpt lat="45.3956133" lon="10.596845"><ele>110.39999999999999</ele><time>2026-03-28T09:15:32.837Z</time></trkpt><trkpt lat="45.3956733" lon="10.5969367"><ele>109.60000000000001</ele><time>2026-03-28T09:15:33.836Z</time></trkpt><trkpt lat="45.3957533" lon="10.5970083"><ele>108.80000000000001</ele><time>2026-03-28T09:15:34.836Z</time></trkpt><trkpt lat="45.3958333" lon="10.597065"><ele>108.0</ele><time>2026-03-28T09:15:35.837Z</time></trkpt><trkpt lat="45.3959333" lon="10.5971133"><ele>108.0</ele><time>2026-03-28T09:15:36.836Z</time></trkpt><trkpt lat="45.39605" lon="10.597155"><ele>108.0</ele><time>2026-03-28T09:15:37.837Z</time></trkpt><trkpt lat="45.396165" lon="10.597185"><ele>108.0</ele><time>2026-03-28T09:15:38.836Z</time></trkpt><trkpt lat="45.3962783" lon="10.597215"><ele>108.0</ele><time>2026-03-28T09:15:39.836Z</time></trkpt><trkpt lat="45.3963833" lon="10.5972583"><ele>107.0</ele><time>2026-03-28T09:15:40.836Z</time></trkpt><trkpt lat="45.3964867" lon="10.5972833"><ele>106.00000000000001</ele><time>2026-03-28T09:15:41.837Z</time></trkpt><trkpt lat="45.3965717" lon="10.5972667"><ele>105.0</ele><time>2026-03-28T09:15:42.837Z</time></trkpt><trkpt lat="45.3966533" lon="10.597225"><ele>104.0</ele><time>2026-03-28T09:15:43.837Z</time></trkpt><trkpt lat="45.3967333" lon="10.59718"><ele>103.0</ele><time>2026-03-28T09:15:44.836Z</time></trkpt><trkpt lat="45.396815" lon="10.5971333"><ele>103.00000000000001</ele><time>2026-03-28T09:15:45.837Z</time></trkpt><trkpt lat="45.3968883" lon="10.5970983"><ele>103.0</ele><time>2026-03-28T09:15:46.837Z</time></trkpt><trkpt lat="45.396955" lon="10.597075"><ele>103.0</ele><time>2026-03-28T09:15:47.836Z</time></trkpt><trkpt lat="45.397025" lon="10.5970667"><ele>103.0</ele><time>2026-03-28T09:15:48.836Z</time></trkpt><trkpt lat="45.3970917" lon="10.5970667"><ele>103.00000000000001</ele><time>2026-03-28T09:15:49.837Z</time></trkpt><trkpt lat="45.3972033" lon="10.597085"><ele>103.0</ele><time>2026-03-28T09:15:51.837Z</time></trkpt><trkpt lat="45.3972883" lon="10.5971167"><ele>103.16666666666667</ele><time>2026-03-28T09:15:53.836Z</time></trkpt><trkpt lat="45.3973317" lon="10.5971833"><ele>103.33333333333334</ele><time>2026-03-28T09:15:55.837Z</time></trkpt><trkpt lat="45.3973133" lon="10.5972817"><ele>103.5</ele><time>2026-03-28T09:15:57.836Z</time></trkpt><trkpt lat="45.397285" lon="10.5974317"><ele>103.66666666666666</ele><time>2026-03-28T09:15:59.837Z</time></trkpt><trkpt lat="45.3972733" lon="10.5975217"><ele>103.83333333333333</ele><time>2026-03-28T09:16:00.837Z</time></trkpt><trkpt lat="45.3972567" lon="10.597625"><ele>104.0</ele><time>2026-03-28T09:16:01.836Z</time></trkpt><trkpt lat="45.3972417" lon="10.5977417"><ele>103.83333333333333</ele><time>2026-03-28T09:16:02.837Z</time></trkpt><trkpt lat="45.39722" lon="10.59786"><ele>103.66666666666666</ele><time>2026-03-28T09:16:03.836Z</time></trkpt><trkpt lat="45.3971983" lon="10.5979883"><ele>103.5</ele><time>2026-03-28T09:16:04.837Z</time></trkpt><trkpt lat="45.3971767" lon="10.59809"><ele>103.33333333333334</ele><time>2026-03-28T09:16:05.836Z</time></trkpt><trkpt lat="45.397145" lon="10.598225"><ele>103.16666666666667</ele><time>2026-03-28T09:16:07.837Z</time></trkpt><trkpt lat="45.3971017" lon="10.598325"><ele>103.0</ele><time>2026-03-28T09:16:09.837Z</time></trkpt><trkpt lat="45.39705" lon="10.5984283"><ele>103.0</ele><time>2026-03-28T09:16:12.837Z</time></trkpt><trkpt lat="45.397025" lon="10.5985267"><ele>103.0</ele><time>2026-03-28T09:17:44.836Z</time></trkpt><trkpt lat="45.3969767" lon="10.5986917"><ele>103.0</ele><time>2026-03-28T09:17:46.836Z</time></trkpt><trkpt lat="45.3969433" lon="10.5988267"><ele>103.0</ele><time>2026-03-28T09:17:47.837Z</time></trkpt><trkpt lat="45.3969133" lon="10.5989517"><ele>103.0</ele><time>2026-03-28T09:17:48.836Z</time></trkpt><trkpt lat="45.3968933" lon="10.5990817"><ele>103.0</ele><time>2026-03-28T09:17:49.837Z</time></trkpt><trkpt lat="45.396875" lon="10.5991817"><ele>103.0</ele><time>2026-03-28T09:17:50.836Z</time></trkpt><trkpt lat="45.3968617" lon="10.59927"><ele>103.0</ele><time>2026-03-28T09:17:51.836Z</time></trkpt><trkpt lat="45.3968167" lon="10.5994283"><ele>103.0</ele><time>2026-03-28T09:17:53.837Z</time></trkpt><trkpt lat="45.39678" lon="10.5995967"><ele>103.0</ele><time>2026-03-28T09:17:55.837Z</time></trkpt><trkpt lat="45.396755" lon="10.59969"><ele>103.0</ele><time>2026-03-28T09:17:56.837Z</time></trkpt><trkpt lat="45.39671" lon="10.5997883"><ele>103.0</ele><time>2026-03-28T09:17:58.836Z</time></trkpt><trkpt lat="45.3966633" lon="10.5998667"><ele>103.0</ele><time>2026-03-28T09:18:01.836Z</time></trkpt><trkpt lat="45.3966083" lon="10.6000367"><ele>103.0</ele><time>2026-03-28T09:18:24.836Z</time></trkpt><trkpt lat="45.3965667" lon="10.6001433"><ele>103.0</ele><time>2026-03-28T09:18:25.837Z</time></trkpt><trkpt lat="45.3965217" lon="10.6002683"><ele>103.42857142857142</ele><time>2026-03-28T09:18:26.837Z</time></trkpt><trkpt lat="45.3964933" lon="10.6003833"><ele>103.85714285714286</ele><time>2026-03-28T09:18:27.836Z</time></trkpt><trkpt lat="45.3964633" lon="10.600465"><ele>104.28571428571428</ele><time>2026-03-28T09:18:28.836Z</time></trkpt><trkpt lat="45.3964267" lon="10.6005517"><ele>104.71428571428571</ele><time>2026-03-28T09:18:29.837Z</time></trkpt><trkpt lat="45.396395" lon="10.6006467"><ele>105.14285714285714</ele><time>2026-03-28T09:18:30.836Z</time></trkpt><trkpt lat="45.3963683" lon="10.6007433"><ele>105.57142857142857</ele><time>2026-03-28T09:18:31.836Z</time></trkpt><trkpt lat="45.3963333" lon="10.6008417"><ele>106.0</ele><time>2026-03-28T09:18:32.837Z</time></trkpt><trkpt lat="45.3962983" lon="10.6009433"><ele>105.16666666666667</ele><time>2026-03-28T09:18:33.836Z</time></trkpt><trkpt lat="45.3962633" lon="10.6010483"><ele>104.33333333333334</ele><time>2026-03-28T09:18:34.836Z</time></trkpt><trkpt lat="45.3962367" lon="10.60115"><ele>103.5</ele><time>2026-03-28T09:18:35.836Z</time></trkpt><trkpt lat="45.396205" lon="10.6012467"><ele>102.66666666666666</ele><time>2026-03-28T09:18:36.837Z</time></trkpt><trkpt lat="45.3961783" lon="10.601355"><ele>101.83333333333333</ele><time>2026-03-28T09:18:37.837Z</time></trkpt><trkpt lat="45.39615" lon="10.60146"><ele>101.0</ele><time>2026-03-28T09:18:38.836Z</time></trkpt><trkpt lat="45.3961217" lon="10.6015833"><ele>101.0</ele><time>2026-03-28T09:18:39.837Z</time></trkpt><trkpt lat="45.3960867" lon="10.6017183"><ele>101.0</ele><time>2026-03-28T09:18:40.836Z</time></trkpt><trkpt lat="45.3960483" lon="10.601865"><ele>101.0</ele><time>2026-03-28T09:18:41.836Z</time></trkpt><trkpt lat="45.3960117" lon="10.6020067"><ele>101.0</ele><time>2026-03-28T09:18:42.836Z</time></trkpt><trkpt lat="45.3959717" lon="10.6021633"><ele>101.0</ele><time>2026-03-28T09:18:43.837Z</time></trkpt><trkpt lat="45.39592" lon="10.6023133"><ele>101.25</ele><time>2026-03-28T09:18:44.837Z</time></trkpt><trkpt lat="45.3958683" lon="10.6024633"><ele>101.5</ele><time>2026-03-28T09:18:45.836Z</time></trkpt><trkpt lat="45.39581" lon="10.6026233"><ele>101.75</ele><time>2026-03-28T09:18:46.836Z</time></trkpt><trkpt lat="45.3957567" lon="10.6028033"><ele>102.0</ele><time>2026-03-28T09:18:47.836Z</time></trkpt><trkpt lat="45.3957083" lon="10.60296"><ele>102.75</ele><time>2026-03-28T09:18:48.836Z</time></trkpt><trkpt lat="45.395665" lon="10.6031267"><ele>103.5</ele><time>2026-03-28T09:18:49.837Z</time></trkpt><trkpt lat="45.3956133" lon="10.6032767"><ele>104.25</ele><time>2026-03-28T09:18:50.837Z</time></trkpt><trkpt lat="45.3955717" lon="10.6034233"><ele>105.0</ele><time>2026-03-28T09:18:51.836Z</time></trkpt><trkpt lat="45.3955283" lon="10.6035517"><ele>104.0</ele><time>2026-03-28T09:18:52.837Z</time></trkpt><trkpt lat="45.3954817" lon="10.603675"><ele>103.0</ele><time>2026-03-28T09:18:53.837Z</time></trkpt><trkpt lat="45.3954367" lon="10.6038033"><ele>102.0</ele><time>2026-03-28T09:18:54.836Z</time></trkpt><trkpt lat="45.3953917" lon="10.6039283"><ele>101.0</ele><time>2026-03-28T09:18:55.836Z</time></trkpt><trkpt lat="45.395355" lon="10.604045"><ele>100.0</ele><time>2026-03-28T09:18:56.836Z</time></trkpt><trkpt lat="45.3953117" lon="10.6041817"><ele>100.0</ele><time>2026-03-28T09:18:57.837Z</time></trkpt><trkpt lat="45.39527" lon="10.6043133"><ele>100.0</ele><time>2026-03-28T09:18:58.836Z</time></trkpt><trkpt lat="45.3952367" lon="10.60444"><ele>100.0</ele><time>2026-03-28T09:18:59.836Z</time></trkpt><trkpt lat="45.395205" lon="10.604575"><ele>100.0</ele><time>2026-03-28T09:19:00.836Z</time></trkpt><trkpt lat="45.3951767" lon="10.60471"><ele>100.0</ele><time>2026-03-28T09:19:01.837Z</time></trkpt><trkpt lat="45.39515" lon="10.604845"><ele>100.0</ele><time>2026-03-28T09:19:02.837Z</time></trkpt><trkpt lat="45.3951183" lon="10.6049917"><ele>100.0</ele><time>2026-03-28T09:19:03.837Z</time></trkpt><trkpt lat="45.3950933" lon="10.6051383"><ele>100.0</ele><time>2026-03-28T09:19:04.836Z</time></trkpt><trkpt lat="45.3950667" lon="10.60528"><ele>100.0</ele><time>2026-03-28T09:19:05.836Z</time></trkpt><trkpt lat="45.3950533" lon="10.6054017"><ele>100.0</ele><time>2026-03-28T09:19:06.836Z</time></trkpt><trkpt lat="45.3950317" lon="10.60553"><ele>100.4</ele><time>2026-03-28T09:19:07.836Z</time></trkpt><trkpt lat="45.3950183" lon="10.60565"><ele>100.8</ele><time>2026-03-28T09:19:08.836Z</time></trkpt><trkpt lat="45.3950067" lon="10.6057667"><ele>101.19999999999999</ele><time>2026-03-28T09:19:09.836Z</time></trkpt><trkpt lat="45.39498" lon="10.605895"><ele>101.6</ele><time>2026-03-28T09:19:10.837Z</time></trkpt><trkpt lat="45.3949483" lon="10.6060233"><ele>102.0</ele><time>2026-03-28T09:19:11.837Z</time></trkpt><trkpt lat="45.394915" lon="10.6061617"><ele>102.0</ele><time>2026-03-28T09:19:12.837Z</time></trkpt><trkpt lat="45.39488" lon="10.6063033"><ele>102.0</ele><time>2026-03-28T09:19:13.837Z</time></trkpt><trkpt lat="45.39486" lon="10.6064383"><ele>102.0</ele><time>2026-03-28T09:19:14.837Z</time></trkpt><trkpt lat="45.3948417" lon="10.6065783"><ele>102.0</ele><time>2026-03-28T09:19:15.836Z</time></trkpt><trkpt lat="45.3948217" lon="10.6067217"><ele>102.0</ele><time>2026-03-28T09:19:16.836Z</time></trkpt><trkpt lat="45.3948117" lon="10.60687"><ele>102.5</ele><time>2026-03-28T09:19:17.837Z</time></trkpt><trkpt lat="45.394805" lon="10.60703"><ele>103.0</ele><time>2026-03-28T09:19:18.836Z</time></trkpt><trkpt lat="45.3947983" lon="10.6071983"><ele>103.5</ele><time>2026-03-28T09:19:19.836Z</time></trkpt><trkpt lat="45.3947867" lon="10.607375"><ele>104.0</ele><time>2026-03-28T09:19:20.836Z</time></trkpt><trkpt lat="45.3947683" lon="10.6075567"><ele>104.0</ele><time>2026-03-28T09:19:21.837Z</time></trkpt><trkpt lat="45.39476" lon="10.607735"><ele>104.0</ele><time>2026-03-28T09:19:22.837Z</time></trkpt><trkpt lat="45.3947583" lon="10.60791"><ele>104.0</ele><time>2026-03-28T09:19:23.837Z</time></trkpt><trkpt lat="45.3947583" lon="10.6080867"><ele>104.0</ele><time>2026-03-28T09:19:24.836Z</time></trkpt><trkpt lat="45.394745" lon="10.6082467"><ele>104.0</ele><time>2026-03-28T09:19:25.837Z</time></trkpt><trkpt lat="45.39474" lon="10.608415"><ele>104.0</ele><time>2026-03-28T09:19:26.837Z</time></trkpt><trkpt lat="45.3947333" lon="10.608575"><ele>104.0</ele><time>2026-03-28T09:19:27.837Z</time></trkpt><trkpt lat="45.3947083" lon="10.6087467"><ele>104.0</ele><time>2026-03-28T09:19:28.836Z</time></trkpt><trkpt lat="45.394675" lon="10.6089267"><ele>102.5</ele><time>2026-03-28T09:19:29.836Z</time></trkpt><trkpt lat="45.3946333" lon="10.6091"><ele>101.0</ele><time>2026-03-28T09:19:30.836Z</time></trkpt><trkpt lat="45.394585" lon="10.6092633"><ele>99.5</ele><time>2026-03-28T09:19:31.836Z</time></trkpt><trkpt lat="45.394535" lon="10.6094167"><ele>98.0</ele><time>2026-03-28T09:19:32.837Z</time></trkpt><trkpt lat="45.3944717" lon="10.6095567"><ele>98.0</ele><time>2026-03-28T09:19:33.837Z</time></trkpt><trkpt lat="45.3944217" lon="10.6096867"><ele>98.0</ele><time>2026-03-28T09:19:34.836Z</time></trkpt><trkpt lat="45.3943733" lon="10.60983"><ele>98.0</ele><time>2026-03-28T09:19:35.837Z</time></trkpt><trkpt lat="45.3943283" lon="10.6099817"><ele>98.0</ele><time>2026-03-28T09:19:36.837Z</time></trkpt><trkpt lat="45.3942983" lon="10.6101233"><ele>98.0</ele><time>2026-03-28T09:19:37.837Z</time></trkpt><trkpt lat="45.3942767" lon="10.6102533"><ele>98.4</ele><time>2026-03-28T09:19:38.836Z</time></trkpt><trkpt lat="45.3942583" lon="10.6103883"><ele>98.80000000000001</ele><time>2026-03-28T09:19:39.836Z</time></trkpt><trkpt lat="45.394245" lon="10.6105233"><ele>99.2</ele><time>2026-03-28T09:19:40.837Z</time></trkpt><trkpt lat="45.39424" lon="10.61067"><ele>99.6</ele><time>2026-03-28T09:19:41.836Z</time></trkpt><trkpt lat="45.3942433" lon="10.6108017"><ele>100.0</ele><time>2026-03-28T09:19:42.836Z</time></trkpt><trkpt lat="45.39425" lon="10.6109417"><ele>100.00000000000001</ele><time>2026-03-28T09:19:43.837Z</time></trkpt><trkpt lat="45.39426" lon="10.6110583"><ele>100.0</ele><time>2026-03-28T09:19:44.836Z</time></trkpt><trkpt lat="45.3942833" lon="10.6111517"><ele>100.0</ele><time>2026-03-28T09:19:45.837Z</time></trkpt><trkpt lat="45.3943467" lon="10.6112417"><ele>100.0</ele><time>2026-03-28T09:19:47.836Z</time></trkpt><trkpt lat="45.3944517" lon="10.61123"><ele>100.00000000000001</ele><time>2026-03-28T09:19:49.836Z</time></trkpt><trkpt lat="45.3945183" lon="10.6111933"><ele>100.0</ele><time>2026-03-28T09:19:50.837Z</time></trkpt><trkpt lat="45.3946" lon="10.611135"><ele>102.0</ele><time>2026-03-28T09:19:51.837Z</time></trkpt><trkpt lat="45.394695" lon="10.611075"><ele>104.0</ele><time>2026-03-28T09:19:52.837Z</time></trkpt><trkpt lat="45.394795" lon="10.61102"><ele>106.0</ele><time>2026-03-28T09:19:53.836Z</time></trkpt><trkpt lat="45.3948917" lon="10.6109617"><ele>108.0</ele><time>2026-03-28T09:19:54.837Z</time></trkpt><trkpt lat="45.395" lon="10.61089"><ele>110.0</ele><time>2026-03-28T09:19:55.837Z</time></trkpt><trkpt lat="45.3950983" lon="10.6108283"><ele>110.0</ele><time>2026-03-28T09:19:56.837Z</time></trkpt><trkpt lat="45.3951833" lon="10.6107833"><ele>110.0</ele><time>2026-03-28T09:19:57.837Z</time></trkpt><trkpt lat="45.39527" lon="10.610735"><ele>110.0</ele><time>2026-03-28T09:19:58.836Z</time></trkpt><trkpt lat="45.3953683" lon="10.610715"><ele>110.0</ele><time>2026-03-28T09:19:59.836Z</time></trkpt><trkpt lat="45.3954717" lon="10.6106833"><ele>110.0</ele><time>2026-03-28T09:20:00.836Z</time></trkpt><trkpt lat="45.3955783" lon="10.61065"><ele>110.83333333333333</ele><time>2026-03-28T09:20:01.837Z</time></trkpt><trkpt lat="45.3956567" lon="10.61061"><ele>111.66666666666666</ele><time>2026-03-28T09:20:02.837Z</time></trkpt><trkpt lat="45.3957383" lon="10.610575"><ele>112.5</ele><time>2026-03-28T09:20:03.837Z</time></trkpt><trkpt lat="45.3958267" lon="10.6105233"><ele>113.33333333333334</ele><time>2026-03-28T09:20:04.837Z</time></trkpt><trkpt lat="45.3959" lon="10.6104567"><ele>114.16666666666667</ele><time>2026-03-28T09:20:05.836Z</time></trkpt><trkpt lat="45.3959617" lon="10.6103767"><ele>115.0</ele><time>2026-03-28T09:20:06.837Z</time></trkpt><trkpt lat="45.3960117" lon="10.6102867"><ele>115.16666666666667</ele><time>2026-03-28T09:20:07.836Z</time></trkpt><trkpt lat="45.396055" lon="10.6101967"><ele>115.33333333333334</ele><time>2026-03-28T09:20:08.837Z</time></trkpt><trkpt lat="45.396095" lon="10.61012"><ele>115.5</ele><time>2026-03-28T09:20:09.836Z</time></trkpt><trkpt lat="45.3961767" lon="10.6099783"><ele>115.66666666666666</ele><time>2026-03-28T09:20:11.837Z</time></trkpt><trkpt lat="45.3962267" lon="10.6098967"><ele>115.83333333333333</ele><time>2026-03-28T09:20:12.837Z</time></trkpt><trkpt lat="45.3962733" lon="10.6098083"><ele>116.0</ele><time>2026-03-28T09:20:13.836Z</time></trkpt><trkpt lat="45.3963083" lon="10.60971"><ele>116.49999999999999</ele><time>2026-03-28T09:20:14.837Z</time></trkpt><trkpt lat="45.396345" lon="10.6095967"><ele>117.0</ele><time>2026-03-28T09:20:15.836Z</time></trkpt><trkpt lat="45.3963833" lon="10.609485"><ele>117.5</ele><time>2026-03-28T09:20:16.836Z</time></trkpt><trkpt lat="45.39642" lon="10.6093833"><ele>118.0</ele><time>2026-03-28T09:20:17.836Z</time></trkpt><trkpt lat="45.39645" lon="10.609285"><ele>118.49999999999999</ele><time>2026-03-28T09:20:18.837Z</time></trkpt><trkpt lat="45.39648" lon="10.6092017"><ele>119.0</ele><time>2026-03-28T09:20:19.836Z</time></trkpt><trkpt lat="45.3965533" lon="10.6090733"><ele>119.2</ele><time>2026-03-28T09:20:21.836Z</time></trkpt><trkpt lat="45.3966633" lon="10.6090467"><ele>119.4</ele><time>2026-03-28T09:20:23.837Z</time></trkpt><trkpt lat="45.3967367" lon="10.60906"><ele>119.6</ele><time>2026-03-28T09:20:24.837Z</time></trkpt><trkpt lat="45.3968283" lon="10.6090783"><ele>119.8</ele><time>2026-03-28T09:20:25.836Z</time></trkpt><trkpt lat="45.3969317" lon="10.6090983"><ele>120.0</ele><time>2026-03-28T09:20:26.836Z</time></trkpt><trkpt lat="45.39704" lon="10.60911"><ele>120.0</ele><time>2026-03-28T09:20:27.836Z</time></trkpt><trkpt lat="45.3971567" lon="10.6091133"><ele>120.0</ele><time>2026-03-28T09:20:28.836Z</time></trkpt><trkpt lat="45.3972783" lon="10.6091117"><ele>120.0</ele><time>2026-03-28T09:20:29.836Z</time></trkpt><trkpt lat="45.3973983" lon="10.6091067"><ele>120.0</ele><time>2026-03-28T09:20:30.837Z</time></trkpt><trkpt lat="45.3975117" lon="10.6090933"><ele>120.4</ele><time>2026-03-28T09:20:31.837Z</time></trkpt><trkpt lat="45.3976133" lon="10.60908"><ele>120.8</ele><time>2026-03-28T09:20:32.836Z</time></trkpt><trkpt lat="45.3977233" lon="10.6090633"><ele>121.19999999999999</ele><time>2026-03-28T09:20:33.836Z</time></trkpt><trkpt lat="45.39783" lon="10.6090367"><ele>121.6</ele><time>2026-03-28T09:20:34.837Z</time></trkpt><trkpt lat="45.397935" lon="10.6090083"><ele>122.0</ele><time>2026-03-28T09:20:35.837Z</time></trkpt><trkpt lat="45.3980267" lon="10.60897"><ele>121.99999999999999</ele><time>2026-03-28T09:20:36.837Z</time></trkpt><trkpt lat="45.3981033" lon="10.6089433"><ele>122.0</ele><time>2026-03-28T09:20:37.836Z</time></trkpt><trkpt lat="45.3981833" lon="10.60892"><ele>122.0</ele><time>2026-03-28T09:20:38.837Z</time></trkpt><trkpt lat="45.3982567" lon="10.6089017"><ele>122.0</ele><time>2026-03-28T09:20:39.836Z</time></trkpt><trkpt lat="45.3983217" lon="10.6088867"><ele>121.99999999999999</ele><time>2026-03-28T09:20:40.837Z</time></trkpt><trkpt lat="45.398395" lon="10.60894"><ele>122.0</ele><time>2026-03-28T09:20:42.836Z</time></trkpt><trkpt lat="45.3983917" lon="10.609105"><ele>122.0</ele><time>2026-03-28T09:20:44.836Z</time></trkpt><trkpt lat="45.3983633" lon="10.6092183"><ele>122.0</ele><time>2026-03-28T09:20:45.836Z</time></trkpt><trkpt lat="45.3983367" lon="10.6093583"><ele>122.0</ele><time>2026-03-28T09:20:46.837Z</time></trkpt><trkpt lat="45.3983067" lon="10.6095233"><ele>122.0</ele><time>2026-03-28T09:20:47.836Z</time></trkpt><trkpt lat="45.3982783" lon="10.6097267"><ele>123.0</ele><time>2026-03-28T09:20:48.837Z</time></trkpt><trkpt lat="45.3982483" lon="10.6099483"><ele>124.0</ele><time>2026-03-28T09:20:49.836Z</time></trkpt><trkpt lat="45.398215" lon="10.610185"><ele>125.0</ele><time>2026-03-28T09:20:50.837Z</time></trkpt><trkpt lat="45.39818" lon="10.6104433"><ele>125.0</ele><time>2026-03-28T09:20:51.836Z</time></trkpt><trkpt lat="45.3981417" lon="10.610685"><ele>125.0</ele><time>2026-03-28T09:20:52.837Z</time></trkpt><trkpt lat="45.3981" lon="10.6109117"><ele>125.0</ele><time>2026-03-28T09:20:53.837Z</time></trkpt><trkpt lat="45.3980483" lon="10.6111167"><ele>123.25</ele><time>2026-03-28T09:20:54.836Z</time></trkpt><trkpt lat="45.39799" lon="10.611295"><ele>121.5</ele><time>2026-03-28T09:20:55.836Z</time></trkpt><trkpt lat="45.3979333" lon="10.6114583"><ele>119.75</ele><time>2026-03-28T09:20:56.836Z</time></trkpt><trkpt lat="45.3978833" lon="10.611605"><ele>118.0</ele><time>2026-03-28T09:20:57.836Z</time></trkpt><trkpt lat="45.3978367" lon="10.611735"><ele>118.0</ele><time>2026-03-28T09:20:58.836Z</time></trkpt><trkpt lat="45.3977867" lon="10.6118617"><ele>118.0</ele><time>2026-03-28T09:20:59.836Z</time></trkpt><trkpt lat="45.3977317" lon="10.6120133"><ele>118.0</ele><time>2026-03-28T09:21:00.836Z</time></trkpt><trkpt lat="45.3976783" lon="10.6121733"><ele>118.0</ele><time>2026-03-28T09:21:01.837Z</time></trkpt><trkpt lat="45.3976383" lon="10.6123617"><ele>118.0</ele><time>2026-03-28T09:21:02.837Z</time></trkpt><trkpt lat="45.3976017" lon="10.61258"><ele>118.0</ele><time>2026-03-28T09:21:03.837Z</time></trkpt><trkpt lat="45.3975767" lon="10.6128117"><ele>118.0</ele><time>2026-03-28T09:21:04.837Z</time></trkpt><trkpt lat="45.39756" lon="10.61305"><ele>118.0</ele><time>2026-03-28T09:21:05.836Z</time></trkpt><trkpt lat="45.3975617" lon="10.613315"><ele>118.0</ele><time>2026-03-28T09:21:06.837Z</time></trkpt><trkpt lat="45.3975633" lon="10.6135967"><ele>118.0</ele><time>2026-03-28T09:21:07.837Z</time></trkpt><trkpt lat="45.3975767" lon="10.6138933"><ele>118.0</ele><time>2026-03-28T09:21:08.837Z</time></trkpt><trkpt lat="45.397585" lon="10.6141983"><ele>118.0</ele><time>2026-03-28T09:21:09.837Z</time></trkpt><trkpt lat="45.3975983" lon="10.614485"><ele>118.0</ele><time>2026-03-28T09:21:10.837Z</time></trkpt><trkpt lat="45.3976" lon="10.6147717"><ele>118.0</ele><time>2026-03-28T09:21:11.836Z</time></trkpt><trkpt lat="45.3975933" lon="10.615055"><ele>118.0</ele><time>2026-03-28T09:21:12.837Z</time></trkpt><trkpt lat="45.3975817" lon="10.615315"><ele>118.0</ele><time>2026-03-28T09:21:13.837Z</time></trkpt><trkpt lat="45.3975683" lon="10.6155867"><ele>118.0</ele><time>2026-03-28T09:21:14.837Z</time></trkpt><trkpt lat="45.3975517" lon="10.61586"><ele>118.0</ele><time>2026-03-28T09:21:15.837Z</time></trkpt><trkpt lat="45.39754" lon="10.6161467"><ele>118.0</ele><time>2026-03-28T09:21:16.836Z</time></trkpt><trkpt lat="45.3975317" lon="10.61643"><ele>117.33333333333334</ele><time>2026-03-28T09:21:17.836Z</time></trkpt><trkpt lat="45.3975217" lon="10.6167383"><ele>116.66666666666666</ele><time>2026-03-28T09:21:18.837Z</time></trkpt><trkpt lat="45.3975083" lon="10.6170417"><ele>116.0</ele><time>2026-03-28T09:21:19.837Z</time></trkpt><trkpt lat="45.397495" lon="10.6173433"><ele>115.33333333333333</ele><time>2026-03-28T09:21:20.836Z</time></trkpt><trkpt lat="45.397485" lon="10.617635"><ele>114.66666666666666</ele><time>2026-03-28T09:21:21.837Z</time></trkpt><trkpt lat="45.3974733" lon="10.6179033"><ele>114.0</ele><time>2026-03-28T09:21:22.836Z</time></trkpt><trkpt lat="45.3974583" lon="10.6181733"><ele>113.0</ele><time>2026-03-28T09:21:23.836Z</time></trkpt><trkpt lat="45.3974367" lon="10.6184217"><ele>112.0</ele><time>2026-03-28T09:21:24.836Z</time></trkpt><trkpt lat="45.3974183" lon="10.618655"><ele>111.0</ele><time>2026-03-28T09:21:25.836Z</time></trkpt><trkpt lat="45.3973933" lon="10.6188967"><ele>108.66666666666666</ele><time>2026-03-28T09:21:26.836Z</time></trkpt><trkpt lat="45.397355" lon="10.61914"><ele>106.33333333333333</ele><time>2026-03-28T09:21:27.836Z</time></trkpt><trkpt lat="45.3972967" lon="10.619365"><ele>104.0</ele><time>2026-03-28T09:21:28.837Z</time></trkpt><trkpt lat="45.3972267" lon="10.619575"><ele>102.66666666666666</ele><time>2026-03-28T09:21:29.836Z</time></trkpt><trkpt lat="45.397135" lon="10.61978"><ele>101.33333333333334</ele><time>2026-03-28T09:21:30.837Z</time></trkpt><trkpt lat="45.3970267" lon="10.6199567"><ele>100.0</ele><time>2026-03-28T09:21:31.837Z</time></trkpt><trkpt lat="45.396915" lon="10.62011"><ele>100.0</ele><time>2026-03-28T09:21:32.836Z</time></trkpt><trkpt lat="45.3968017" lon="10.62025"><ele>100.0</ele><time>2026-03-28T09:21:33.837Z</time></trkpt><trkpt lat="45.3966867" lon="10.620375"><ele>100.0</ele><time>2026-03-28T09:21:34.837Z</time></trkpt><trkpt lat="45.39657" lon="10.620505"><ele>100.0</ele><time>2026-03-28T09:21:35.837Z</time></trkpt><trkpt lat="45.3964533" lon="10.6206317"><ele>99.25</ele><time>2026-03-28T09:21:36.837Z</time></trkpt><trkpt lat="45.3963533" lon="10.62075"><ele>98.5</ele><time>2026-03-28T09:21:37.837Z</time></trkpt><trkpt lat="45.396255" lon="10.6208633"><ele>97.75</ele><time>2026-03-28T09:21:38.837Z</time></trkpt><trkpt lat="45.3961717" lon="10.62097"><ele>97.0</ele><time>2026-03-28T09:21:39.837Z</time></trkpt><trkpt lat="45.3960883" lon="10.6210633"><ele>96.33333333333334</ele><time>2026-03-28T09:21:40.836Z</time></trkpt><trkpt lat="45.39602" lon="10.6211383"><ele>95.66666666666667</ele><time>2026-03-28T09:21:41.837Z</time></trkpt><trkpt lat="45.39596" lon="10.62121"><ele>95.0</ele><time>2026-03-28T09:21:42.836Z</time></trkpt><trkpt lat="45.3959067" lon="10.6212683"><ele>94.33333333333334</ele><time>2026-03-28T09:21:43.837Z</time></trkpt><trkpt lat="45.39582" lon="10.62132"><ele>93.66666666666667</ele><time>2026-03-28T09:21:45.837Z</time></trkpt><trkpt lat="45.3957567" lon="10.6212517"><ele>93.0</ele><time>2026-03-28T09:21:47.837Z</time></trkpt><trkpt lat="45.39575" lon="10.62115"><ele>93.0</ele><time>2026-03-28T09:21:48.836Z</time></trkpt><trkpt lat="45.3957483" lon="10.621015"><ele>93.0</ele><time>2026-03-28T09:21:49.837Z</time></trkpt><trkpt lat="45.3957567" lon="10.6208533"><ele>93.0</ele><time>2026-03-28T09:21:50.836Z</time></trkpt><trkpt lat="45.3957583" lon="10.620665"><ele>93.0</ele><time>2026-03-28T09:21:51.837Z</time></trkpt><trkpt lat="45.3957433" lon="10.6204567"><ele>93.66666666666667</ele><time>2026-03-28T09:21:52.836Z</time></trkpt><trkpt lat="45.3956967" lon="10.620225"><ele>94.33333333333334</ele><time>2026-03-28T09:21:53.837Z</time></trkpt><trkpt lat="45.3956333" lon="10.6199867"><ele>95.0</ele><time>2026-03-28T09:21:54.836Z</time></trkpt><trkpt lat="45.3955667" lon="10.619735"><ele>94.66666666666667</ele><time>2026-03-28T09:21:55.837Z</time></trkpt><trkpt lat="45.3954833" lon="10.61947"><ele>94.33333333333333</ele><time>2026-03-28T09:21:56.836Z</time></trkpt><trkpt lat="45.39539" lon="10.619195"><ele>94.0</ele><time>2026-03-28T09:21:57.837Z</time></trkpt><trkpt lat="45.3952917" lon="10.6188967"><ele>95.5</ele><time>2026-03-28T09:21:58.837Z</time></trkpt><trkpt lat="45.395185" lon="10.61859"><ele>97.0</ele><time>2026-03-28T09:21:59.837Z</time></trkpt><trkpt lat="45.3950783" lon="10.6182867"><ele>97.0</ele><time>2026-03-28T09:22:00.837Z</time></trkpt><trkpt lat="45.394965" lon="10.6179833"><ele>97.0</ele><time>2026-03-28T09:22:01.836Z</time></trkpt><trkpt lat="45.3948383" lon="10.6176783"><ele>95.5</ele><time>2026-03-28T09:22:02.836Z</time></trkpt><trkpt lat="45.3946933" lon="10.61737"><ele>94.0</ele><time>2026-03-28T09:22:03.836Z</time></trkpt><trkpt lat="45.3945433" lon="10.61705"><ele>97.0</ele><time>2026-03-28T09:22:04.837Z</time></trkpt><trkpt lat="45.3943783" lon="10.6167233"><ele>100.0</ele><time>2026-03-28T09:22:05.836Z</time></trkpt><trkpt lat="45.3942183" lon="10.616385"><ele>101.0</ele><time>2026-03-28T09:22:06.836Z</time></trkpt><trkpt lat="45.39406" lon="10.616045"><ele>102.0</ele><time>2026-03-28T09:22:07.837Z</time></trkpt><trkpt lat="45.3939017" lon="10.615695"><ele>99.0</ele><time>2026-03-28T09:22:08.836Z</time></trkpt><trkpt lat="45.3937683" lon="10.6153317"><ele>96.0</ele><time>2026-03-28T09:22:09.837Z</time></trkpt><trkpt lat="45.393625" lon="10.6149667"><ele>96.0</ele><time>2026-03-28T09:22:10.836Z</time></trkpt><trkpt lat="45.3935017" lon="10.6146017"><ele>96.0</ele><time>2026-03-28T09:22:11.837Z</time></trkpt><trkpt lat="45.393375" lon="10.6142633"><ele>97.5</ele><time>2026-03-28T09:22:12.836Z</time></trkpt><trkpt lat="45.3932533" lon="10.6139533"><ele>99.0</ele><time>2026-03-28T09:22:13.837Z</time></trkpt><trkpt lat="45.393135" lon="10.6136567"><ele>99.0</ele><time>2026-03-28T09:22:14.837Z</time></trkpt><trkpt lat="45.3930217" lon="10.61338"><ele>99.0</ele><time>2026-03-28T09:22:15.836Z</time></trkpt><trkpt lat="45.3928867" lon="10.6131383"><ele>99.0</ele><time>2026-03-28T09:22:16.836Z</time></trkpt><trkpt lat="45.3927617" lon="10.6129267"><ele>97.0</ele><time>2026-03-28T09:22:17.836Z</time></trkpt><trkpt lat="45.3926333" lon="10.6127383"><ele>95.0</ele><time>2026-03-28T09:22:18.837Z</time></trkpt><trkpt lat="45.3925183" lon="10.6125717"><ele>93.0</ele><time>2026-03-28T09:22:19.836Z</time></trkpt><trkpt lat="45.3924133" lon="10.61244"><ele>93.0</ele><time>2026-03-28T09:22:20.836Z</time></trkpt><trkpt lat="45.3923267" lon="10.612335"><ele>93.0</ele><time>2026-03-28T09:22:21.836Z</time></trkpt><trkpt lat="45.3922567" lon="10.6122383"><ele>93.0</ele><time>2026-03-28T09:22:22.836Z</time></trkpt><trkpt lat="45.392205" lon="10.612165"><ele>93.0</ele><time>2026-03-28T09:22:23.836Z</time></trkpt><trkpt lat="45.3921133" lon="10.612065"><ele>93.0</ele><time>2026-03-28T09:22:25.837Z</time></trkpt><trkpt lat="45.3920467" lon="10.6120367"><ele>93.4</ele><time>2026-03-28T09:22:26.837Z</time></trkpt><trkpt lat="45.3919617" lon="10.6120283"><ele>93.80000000000001</ele><time>2026-03-28T09:22:27.836Z</time></trkpt><trkpt lat="45.3918517" lon="10.6120683"><ele>94.2</ele><time>2026-03-28T09:22:28.836Z</time></trkpt><trkpt lat="45.3917333" lon="10.6121033"><ele>94.6</ele><time>2026-03-28T09:22:29.836Z</time></trkpt><trkpt lat="45.3916117" lon="10.6121417"><ele>95.0</ele><time>2026-03-28T09:22:30.837Z</time></trkpt><trkpt lat="45.391485" lon="10.6121833"><ele>95.0</ele><time>2026-03-28T09:22:31.836Z</time></trkpt><trkpt lat="45.39136" lon="10.61222"><ele>95.0</ele><time>2026-03-28T09:22:32.836Z</time></trkpt><trkpt lat="45.3912317" lon="10.6122433"><ele>95.0</ele><time>2026-03-28T09:22:33.837Z</time></trkpt><trkpt lat="45.3910967" lon="10.612245"><ele>95.0</ele><time>2026-03-28T09:22:34.837Z</time></trkpt><trkpt lat="45.3909617" lon="10.6122433"><ele>95.5</ele><time>2026-03-28T09:22:35.837Z</time></trkpt><trkpt lat="45.3908217" lon="10.6122067"><ele>96.0</ele><time>2026-03-28T09:22:36.836Z</time></trkpt><trkpt lat="45.390685" lon="10.61212"><ele>96.5</ele><time>2026-03-28T09:22:37.836Z</time></trkpt><trkpt lat="45.390545" lon="10.6120433"><ele>97.0</ele><time>2026-03-28T09:22:38.837Z</time></trkpt><trkpt lat="45.3904117" lon="10.6119567"><ele>97.25</ele><time>2026-03-28T09:22:39.836Z</time></trkpt><trkpt lat="45.3902767" lon="10.6118783"><ele>97.5</ele><time>2026-03-28T09:22:40.836Z</time></trkpt><trkpt lat="45.39014" lon="10.6117983"><ele>97.75</ele><time>2026-03-28T09:22:41.837Z</time></trkpt><trkpt lat="45.389995" lon="10.611725"><ele>98.0</ele><time>2026-03-28T09:22:42.836Z</time></trkpt><trkpt lat="45.3898483" lon="10.6116417"><ele>98.0</ele><time>2026-03-28T09:22:43.836Z</time></trkpt><trkpt lat="45.389715" lon="10.6115667"><ele>98.0</ele><time>2026-03-28T09:22:44.837Z</time></trkpt><trkpt lat="45.38957" lon="10.611495"><ele>98.0</ele><time>2026-03-28T09:22:45.836Z</time></trkpt><trkpt lat="45.38941" lon="10.611425"><ele>98.33333333333333</ele><time>2026-03-28T09:22:46.837Z</time></trkpt><trkpt lat="45.3892583" lon="10.61135"><ele>98.66666666666666</ele><time>2026-03-28T09:22:47.837Z</time></trkpt><trkpt lat="45.38909" lon="10.6112883"><ele>99.0</ele><time>2026-03-28T09:22:48.836Z</time></trkpt><trkpt lat="45.3889067" lon="10.6112517"><ele>99.0</ele><time>2026-03-28T09:22:49.837Z</time></trkpt><trkpt lat="45.3886983" lon="10.6112267"><ele>99.0</ele><time>2026-03-28T09:22:50.836Z</time></trkpt><trkpt lat="45.3884883" lon="10.61119"><ele>99.0</ele><time>2026-03-28T09:22:51.836Z</time></trkpt><trkpt lat="45.3882717" lon="10.6111617"><ele>99.0</ele><time>2026-03-28T09:22:52.836Z</time></trkpt><trkpt lat="45.3880467" lon="10.6111467"><ele>99.0</ele><time>2026-03-28T09:22:53.837Z</time></trkpt><trkpt lat="45.3878283" lon="10.611115"><ele>99.0</ele><time>2026-03-28T09:22:54.836Z</time></trkpt><trkpt lat="45.38761" lon="10.611095"><ele>99.0</ele><time>2026-03-28T09:22:55.836Z</time></trkpt><trkpt lat="45.3873933" lon="10.6110833"><ele>99.0</ele><time>2026-03-28T09:22:56.836Z</time></trkpt><trkpt lat="45.3871917" lon="10.6110533"><ele>99.0</ele><time>2026-03-28T09:22:57.836Z</time></trkpt><trkpt lat="45.387005" lon="10.6110267"><ele>99.33333333333334</ele><time>2026-03-28T09:22:58.836Z</time></trkpt><trkpt lat="45.3868317" lon="10.6110067"><ele>99.66666666666667</ele><time>2026-03-28T09:22:59.836Z</time></trkpt><trkpt lat="45.3866667" lon="10.6109867"><ele>100.0</ele><time>2026-03-28T09:23:00.837Z</time></trkpt><trkpt lat="45.386505" lon="10.61096"><ele>100.0</ele><time>2026-03-28T09:23:01.837Z</time></trkpt><trkpt lat="45.38635" lon="10.6109417"><ele>100.0</ele><time>2026-03-28T09:23:02.836Z</time></trkpt><trkpt lat="45.3861967" lon="10.6109217"><ele>100.0</ele><time>2026-03-28T09:23:03.836Z</time></trkpt><trkpt lat="45.3860567" lon="10.610905"><ele>100.25</ele><time>2026-03-28T09:23:04.837Z</time></trkpt><trkpt lat="45.38592" lon="10.610935"><ele>100.5</ele><time>2026-03-28T09:23:05.837Z</time></trkpt><trkpt lat="45.38578" lon="10.6110233"><ele>100.75</ele><time>2026-03-28T09:23:06.836Z</time></trkpt><trkpt lat="45.3856517" lon="10.6111367"><ele>101.0</ele><time>2026-03-28T09:23:07.836Z</time></trkpt><trkpt lat="45.3854983" lon="10.611285"><ele>101.66666666666666</ele><time>2026-03-28T09:23:08.837Z</time></trkpt><trkpt lat="45.38534" lon="10.6114317"><ele>102.33333333333334</ele><time>2026-03-28T09:23:09.837Z</time></trkpt><trkpt lat="45.3851767" lon="10.6115867"><ele>103.0</ele><time>2026-03-28T09:23:10.836Z</time></trkpt><trkpt lat="45.38501" lon="10.6117233"><ele>103.0</ele><time>2026-03-28T09:23:11.836Z</time></trkpt><trkpt lat="45.3848317" lon="10.6118517"><ele>103.0</ele><time>2026-03-28T09:23:12.837Z</time></trkpt><trkpt lat="45.3846483" lon="10.6119567"><ele>103.0</ele><time>2026-03-28T09:23:13.836Z</time></trkpt><trkpt lat="45.3844667" lon="10.6120483"><ele>103.66666666666667</ele><time>2026-03-28T09:23:14.837Z</time></trkpt><trkpt lat="45.3842717" lon="10.6121383"><ele>104.33333333333334</ele><time>2026-03-28T09:23:15.836Z</time></trkpt><trkpt lat="45.38408" lon="10.612235"><ele>105.0</ele><time>2026-03-28T09:23:16.837Z</time></trkpt><trkpt lat="45.3839117" lon="10.6123317"><ele>104.33333333333334</ele><time>2026-03-28T09:23:17.836Z</time></trkpt><trkpt lat="45.38375" lon="10.6124217"><ele>103.66666666666667</ele><time>2026-03-28T09:23:18.836Z</time></trkpt><trkpt lat="45.3835883" lon="10.6125167"><ele>103.0</ele><time>2026-03-28T09:23:19.836Z</time></trkpt><trkpt lat="45.3834483" lon="10.6126367"><ele>103.0</ele><time>2026-03-28T09:23:20.836Z</time></trkpt><trkpt lat="45.3833067" lon="10.6127533"><ele>103.0</ele><time>2026-03-28T09:23:21.836Z</time></trkpt><trkpt lat="45.383155" lon="10.61289"><ele>103.0</ele><time>2026-03-28T09:23:22.836Z</time></trkpt><trkpt lat="45.383005" lon="10.6130467"><ele>103.0</ele><time>2026-03-28T09:23:23.836Z</time></trkpt><trkpt lat="45.38286" lon="10.6132133"><ele>103.0</ele><time>2026-03-28T09:23:24.836Z</time></trkpt><trkpt lat="45.3827083" lon="10.61339"><ele>103.0</ele><time>2026-03-28T09:23:25.837Z</time></trkpt><trkpt lat="45.3825633" lon="10.6135683"><ele>102.66666666666667</ele><time>2026-03-28T09:23:26.837Z</time></trkpt><trkpt lat="45.3824267" lon="10.6137483"><ele>102.33333333333334</ele><time>2026-03-28T09:23:27.836Z</time></trkpt><trkpt lat="45.382305" lon="10.6139217"><ele>102.0</ele><time>2026-03-28T09:23:28.836Z</time></trkpt><trkpt lat="45.382195" lon="10.614075"><ele>102.19999999999999</ele><time>2026-03-28T09:23:29.836Z</time></trkpt><trkpt lat="45.3821033" lon="10.614195"><ele>102.4</ele><time>2026-03-28T09:23:30.836Z</time></trkpt><trkpt lat="45.3820417" lon="10.6143017"><ele>102.6</ele><time>2026-03-28T09:23:31.836Z</time></trkpt><trkpt lat="45.3819917" lon="10.6143917"><ele>102.80000000000001</ele><time>2026-03-28T09:23:32.837Z</time></trkpt><trkpt lat="45.3819733" lon="10.6145517"><ele>103.0</ele><time>2026-03-28T09:23:34.837Z</time></trkpt><trkpt lat="45.3819733" lon="10.6147283"><ele>103.00000000000001</ele><time>2026-03-28T09:23:36.837Z</time></trkpt><trkpt lat="45.3819667" lon="10.6148217"><ele>103.0</ele><time>2026-03-28T09:23:37.837Z</time></trkpt><trkpt lat="45.3819583" lon="10.6149917"><ele>103.0</ele><time>2026-03-28T09:23:39.837Z</time></trkpt><trkpt lat="45.38196" lon="10.6150933"><ele>103.0</ele><time>2026-03-28T09:23:40.837Z</time></trkpt><trkpt lat="45.3819567" lon="10.6152083"><ele>103.00000000000001</ele><time>2026-03-28T09:23:41.836Z</time></trkpt><trkpt lat="45.3819567" lon="10.615335"><ele>103.0</ele><time>2026-03-28T09:23:42.836Z</time></trkpt><trkpt lat="45.3819583" lon="10.6154767"><ele>103.0</ele><time>2026-03-28T09:23:43.836Z</time></trkpt><trkpt lat="45.3819617" lon="10.6156233"><ele>103.0</ele><time>2026-03-28T09:23:44.836Z</time></trkpt><trkpt lat="45.3819583" lon="10.6157683"><ele>103.0</ele><time>2026-03-28T09:23:45.836Z</time></trkpt><trkpt lat="45.3819533" lon="10.6159183"><ele>103.0</ele><time>2026-03-28T09:23:46.837Z</time></trkpt><trkpt lat="45.3819517" lon="10.616075"><ele>103.0</ele><time>2026-03-28T09:23:47.836Z</time></trkpt><trkpt lat="45.3819483" lon="10.6162383"><ele>103.0</ele><time>2026-03-28T09:23:48.836Z</time></trkpt><trkpt lat="45.3819483" lon="10.6163883"><ele>103.0</ele><time>2026-03-28T09:23:49.836Z</time></trkpt><trkpt lat="45.3819533" lon="10.6165217"><ele>103.0</ele><time>2026-03-28T09:23:50.836Z</time></trkpt><trkpt lat="45.38195" lon="10.61665"><ele>103.0</ele><time>2026-03-28T09:23:51.836Z</time></trkpt><trkpt lat="45.381945" lon="10.6167733"><ele>103.0</ele><time>2026-03-28T09:23:52.837Z</time></trkpt><trkpt lat="45.3819433" lon="10.6168933"><ele>102.4</ele><time>2026-03-28T09:23:53.836Z</time></trkpt><trkpt lat="45.3819383" lon="10.6170267"><ele>101.80000000000001</ele><time>2026-03-28T09:23:54.836Z</time></trkpt><trkpt lat="45.3819383" lon="10.6171633"><ele>101.2</ele><time>2026-03-28T09:23:55.837Z</time></trkpt><trkpt lat="45.3819383" lon="10.6172933"><ele>100.6</ele><time>2026-03-28T09:23:56.836Z</time></trkpt><trkpt lat="45.3819367" lon="10.6174383"><ele>100.0</ele><time>2026-03-28T09:23:57.836Z</time></trkpt><trkpt lat="45.3819317" lon="10.617575"><ele>100.00000000000001</ele><time>2026-03-28T09:23:58.837Z</time></trkpt><trkpt lat="45.3819333" lon="10.6177"><ele>100.0</ele><time>2026-03-28T09:23:59.837Z</time></trkpt><trkpt lat="45.3819433" lon="10.61782"><ele>100.0</ele><time>2026-03-28T09:24:00.837Z</time></trkpt><trkpt lat="45.3819567" lon="10.6179367"><ele>100.0</ele><time>2026-03-28T09:24:01.837Z</time></trkpt><trkpt lat="45.3819767" lon="10.618045"><ele>100.00000000000001</ele><time>2026-03-28T09:24:02.837Z</time></trkpt><trkpt lat="45.382" lon="10.6181583"><ele>100.0</ele><time>2026-03-28T09:24:03.837Z</time></trkpt><trkpt lat="45.3820167" lon="10.6182883"><ele>100.4</ele><time>2026-03-28T09:24:04.836Z</time></trkpt><trkpt lat="45.38202" lon="10.6184433"><ele>100.8</ele><time>2026-03-28T09:24:05.836Z</time></trkpt><trkpt lat="45.38203" lon="10.6185917"><ele>101.19999999999999</ele><time>2026-03-28T09:24:06.837Z</time></trkpt><trkpt lat="45.38205" lon="10.618735"><ele>101.6</ele><time>2026-03-28T09:24:07.836Z</time></trkpt><trkpt lat="45.3820717" lon="10.6188683"><ele>102.0</ele><time>2026-03-28T09:24:08.837Z</time></trkpt><trkpt lat="45.3820917" lon="10.619"><ele>102.33333333333333</ele><time>2026-03-28T09:24:09.836Z</time></trkpt><trkpt lat="45.3821017" lon="10.6191267"><ele>102.66666666666666</ele><time>2026-03-28T09:24:10.836Z</time></trkpt><trkpt lat="45.3821083" lon="10.6192417"><ele>103.0</ele><time>2026-03-28T09:24:11.836Z</time></trkpt><trkpt lat="45.3821067" lon="10.6193483"><ele>103.33333333333333</ele><time>2026-03-28T09:24:12.836Z</time></trkpt><trkpt lat="45.382085" lon="10.6194567"><ele>103.66666666666666</ele><time>2026-03-28T09:24:13.837Z</time></trkpt><trkpt lat="45.3820517" lon="10.61958"><ele>104.0</ele><time>2026-03-28T09:24:14.837Z</time></trkpt><trkpt lat="45.3820217" lon="10.6197083"><ele>103.99999999999999</ele><time>2026-03-28T09:24:15.837Z</time></trkpt><trkpt lat="45.3820033" lon="10.6198217"><ele>104.0</ele><time>2026-03-28T09:24:16.837Z</time></trkpt><trkpt lat="45.3819717" lon="10.6199283"><ele>104.0</ele><time>2026-03-28T09:24:17.836Z</time></trkpt><trkpt lat="45.3819367" lon="10.6200367"><ele>104.0</ele><time>2026-03-28T09:24:18.837Z</time></trkpt><trkpt lat="45.3819033" lon="10.62015"><ele>103.99999999999999</ele><time>2026-03-28T09:24:19.836Z</time></trkpt><trkpt lat="45.3818533" lon="10.62027"><ele>104.0</ele><time>2026-03-28T09:24:20.837Z</time></trkpt><trkpt lat="45.38181" lon="10.6203867"><ele>103.4</ele><time>2026-03-28T09:24:21.837Z</time></trkpt><trkpt lat="45.3817833" lon="10.620495"><ele>102.80000000000001</ele><time>2026-03-28T09:24:22.836Z</time></trkpt><trkpt lat="45.38177" lon="10.6206033"><ele>102.19999999999999</ele><time>2026-03-28T09:24:23.837Z</time></trkpt><trkpt lat="45.381755" lon="10.620725"><ele>101.6</ele><time>2026-03-28T09:24:24.836Z</time></trkpt><trkpt lat="45.3817533" lon="10.6208683"><ele>101.0</ele><time>2026-03-28T09:24:25.836Z</time></trkpt><trkpt lat="45.3817533" lon="10.6210317"><ele>100.8</ele><time>2026-03-28T09:24:26.836Z</time></trkpt><trkpt lat="45.3817533" lon="10.6212017"><ele>100.6</ele><time>2026-03-28T09:24:27.837Z</time></trkpt><trkpt lat="45.38175" lon="10.6213517"><ele>100.4</ele><time>2026-03-28T09:24:28.836Z</time></trkpt><trkpt lat="45.381755" lon="10.6214867"><ele>100.2</ele><time>2026-03-28T09:24:29.836Z</time></trkpt><trkpt lat="45.3817567" lon="10.6216267"><ele>100.0</ele><time>2026-03-28T09:24:30.836Z</time></trkpt><trkpt lat="45.3817517" lon="10.6217667"><ele>100.0</ele><time>2026-03-28T09:24:31.837Z</time></trkpt><trkpt lat="45.3817517" lon="10.621895"><ele>100.0</ele><time>2026-03-28T09:24:32.836Z</time></trkpt><trkpt lat="45.381745" lon="10.6220283"><ele>100.0</ele><time>2026-03-28T09:24:33.836Z</time></trkpt><trkpt lat="45.3817433" lon="10.6221533"><ele>100.0</ele><time>2026-03-28T09:24:34.836Z</time></trkpt><trkpt lat="45.38174" lon="10.622275"><ele>100.0</ele><time>2026-03-28T09:24:35.836Z</time></trkpt><trkpt lat="45.3817367" lon="10.62241"><ele>100.0</ele><time>2026-03-28T09:24:36.837Z</time></trkpt><trkpt lat="45.3817183" lon="10.622545"><ele>100.0</ele><time>2026-03-28T09:24:37.836Z</time></trkpt><trkpt lat="45.3817" lon="10.6226883"><ele>100.0</ele><time>2026-03-28T09:24:38.836Z</time></trkpt><trkpt lat="45.3816867" lon="10.62285"><ele>100.0</ele><time>2026-03-28T09:24:39.837Z</time></trkpt><trkpt lat="45.3816767" lon="10.6230033"><ele>100.0</ele><time>2026-03-28T09:24:40.836Z</time></trkpt><trkpt lat="45.381675" lon="10.623145"><ele>100.0</ele><time>2026-03-28T09:24:41.837Z</time></trkpt><trkpt lat="45.3816833" lon="10.6232883"><ele>100.0</ele><time>2026-03-28T09:24:42.836Z</time></trkpt><trkpt lat="45.381685" lon="10.6234183"><ele>100.0</ele><time>2026-03-28T09:24:43.836Z</time></trkpt><trkpt lat="45.3816867" lon="10.6235617"><ele>100.0</ele><time>2026-03-28T09:24:44.836Z</time></trkpt><trkpt lat="45.3816867" lon="10.6237117"><ele>100.0</ele><time>2026-03-28T09:24:45.837Z</time></trkpt><trkpt lat="45.3816717" lon="10.62387"><ele>100.25</ele><time>2026-03-28T09:24:46.836Z</time></trkpt><trkpt lat="45.38166" lon="10.6240367"><ele>100.5</ele><time>2026-03-28T09:24:47.836Z</time></trkpt><trkpt lat="45.38165" lon="10.6242"><ele>100.75</ele><time>2026-03-28T09:24:48.836Z</time></trkpt><trkpt lat="45.3816367" lon="10.624355"><ele>101.0</ele><time>2026-03-28T09:24:49.836Z</time></trkpt><trkpt lat="45.3816367" lon="10.62451"><ele>100.5</ele><time>2026-03-28T09:24:50.836Z</time></trkpt><trkpt lat="45.381645" lon="10.624665"><ele>100.0</ele><time>2026-03-28T09:24:51.836Z</time></trkpt><trkpt lat="45.38164" lon="10.6248333"><ele>99.5</ele><time>2026-03-28T09:24:52.837Z</time></trkpt><trkpt lat="45.3816417" lon="10.625015"><ele>99.0</ele><time>2026-03-28T09:24:53.836Z</time></trkpt><trkpt lat="45.381625" lon="10.6251967"><ele>99.25</ele><time>2026-03-28T09:24:54.837Z</time></trkpt><trkpt lat="45.3816067" lon="10.6253733"><ele>99.5</ele><time>2026-03-28T09:24:55.837Z</time></trkpt><trkpt lat="45.38158" lon="10.62556"><ele>99.75</ele><time>2026-03-28T09:24:56.836Z</time></trkpt><trkpt lat="45.3815467" lon="10.6257583"><ele>100.0</ele><time>2026-03-28T09:24:57.836Z</time></trkpt><trkpt lat="45.38151" lon="10.6259467"><ele>100.0</ele><time>2026-03-28T09:24:58.837Z</time></trkpt><trkpt lat="45.3814817" lon="10.6261317"><ele>100.0</ele><time>2026-03-28T09:24:59.836Z</time></trkpt><trkpt lat="45.381445" lon="10.6263167"><ele>100.0</ele><time>2026-03-28T09:25:00.837Z</time></trkpt><trkpt lat="45.3814117" lon="10.6264983"><ele>100.0</ele><time>2026-03-28T09:25:01.836Z</time></trkpt><trkpt lat="45.3813817" lon="10.6266833"><ele>100.25</ele><time>2026-03-28T09:25:02.837Z</time></trkpt><trkpt lat="45.38136" lon="10.6268783"><ele>100.5</ele><time>2026-03-28T09:25:03.837Z</time></trkpt><trkpt lat="45.38134" lon="10.6270617"><ele>100.75</ele><time>2026-03-28T09:25:04.837Z</time></trkpt><trkpt lat="45.381315" lon="10.6272367"><ele>101.0</ele><time>2026-03-28T09:25:05.837Z</time></trkpt><trkpt lat="45.3813017" lon="10.6273983"><ele>100.8</ele><time>2026-03-28T09:25:06.836Z</time></trkpt><trkpt lat="45.3812867" lon="10.6275317"><ele>100.6</ele><time>2026-03-28T09:25:07.837Z</time></trkpt><trkpt lat="45.3812733" lon="10.62764"><ele>100.4</ele><time>2026-03-28T09:25:08.837Z</time></trkpt><trkpt lat="45.3812567" lon="10.627735"><ele>100.2</ele><time>2026-03-28T09:25:09.836Z</time></trkpt><trkpt lat="45.3812133" lon="10.62786"><ele>100.0</ele><time>2026-03-28T09:25:11.836Z</time></trkpt><trkpt lat="45.3811067" lon="10.62791"><ele>100.0</ele><time>2026-03-28T09:25:13.837Z</time></trkpt><trkpt lat="45.38102" lon="10.6279367"><ele>100.0</ele><time>2026-03-28T09:25:14.836Z</time></trkpt><trkpt lat="45.38091" lon="10.6279817"><ele>100.0</ele><time>2026-03-28T09:25:15.837Z</time></trkpt><trkpt lat="45.38079" lon="10.6280283"><ele>100.0</ele><time>2026-03-28T09:25:16.837Z</time></trkpt><trkpt lat="45.3806583" lon="10.6280833"><ele>100.0</ele><time>2026-03-28T09:25:17.837Z</time></trkpt><trkpt lat="45.3805383" lon="10.6281283"><ele>100.0</ele><time>2026-03-28T09:25:18.836Z</time></trkpt><trkpt lat="45.3804167" lon="10.6281983"><ele>100.0</ele><time>2026-03-28T09:25:19.836Z</time></trkpt><trkpt lat="45.3803167" lon="10.6282683"><ele>100.0</ele><time>2026-03-28T09:25:20.836Z</time></trkpt><trkpt lat="45.380215" lon="10.6283617"><ele>101.6</ele><time>2026-03-28T09:25:21.837Z</time></trkpt><trkpt lat="45.3801167" lon="10.6284567"><ele>103.2</ele><time>2026-03-28T09:25:22.837Z</time></trkpt><trkpt lat="45.3800317" lon="10.628535"><ele>104.80000000000001</ele><time>2026-03-28T09:25:23.836Z</time></trkpt><trkpt lat="45.3799367" lon="10.628565"><ele>106.4</ele><time>2026-03-28T09:25:24.836Z</time></trkpt><trkpt lat="45.379835" lon="10.6285583"><ele>108.0</ele><time>2026-03-28T09:25:25.837Z</time></trkpt><trkpt lat="45.3797233" lon="10.6285367"><ele>108.4</ele><time>2026-03-28T09:25:26.836Z</time></trkpt><trkpt lat="45.3796167" lon="10.62848"><ele>108.80000000000001</ele><time>2026-03-28T09:25:27.836Z</time></trkpt><trkpt lat="45.3795133" lon="10.628415"><ele>109.2</ele><time>2026-03-28T09:25:28.836Z</time></trkpt><trkpt lat="45.379415" lon="10.62837"><ele>109.6</ele><time>2026-03-28T09:25:29.836Z</time></trkpt><trkpt lat="45.379335" lon="10.628365"><ele>110.0</ele><time>2026-03-28T09:25:30.836Z</time></trkpt><trkpt lat="45.3792583" lon="10.6283717"><ele>110.0</ele><time>2026-03-28T09:25:31.837Z</time></trkpt><trkpt lat="45.3791733" lon="10.6283817"><ele>110.0</ele><time>2026-03-28T09:25:32.837Z</time></trkpt><trkpt lat="45.3790817" lon="10.628395"><ele>110.0</ele><time>2026-03-28T09:25:33.837Z</time></trkpt><trkpt lat="45.3789867" lon="10.628415"><ele>110.0</ele><time>2026-03-28T09:25:34.836Z</time></trkpt><trkpt lat="45.3788917" lon="10.6284367"><ele>110.0</ele><time>2026-03-28T09:25:35.837Z</time></trkpt><trkpt lat="45.3787983" lon="10.62845"><ele>109.0</ele><time>2026-03-28T09:25:36.837Z</time></trkpt><trkpt lat="45.3787083" lon="10.6284817"><ele>108.0</ele><time>2026-03-28T09:25:37.836Z</time></trkpt><trkpt lat="45.378615" lon="10.62854"><ele>107.0</ele><time>2026-03-28T09:25:38.837Z</time></trkpt><trkpt lat="45.3785217" lon="10.6286183"><ele>106.0</ele><time>2026-03-28T09:25:39.836Z</time></trkpt><trkpt lat="45.37841" lon="10.6287167"><ele>105.0</ele><time>2026-03-28T09:25:40.837Z</time></trkpt><trkpt lat="45.37829" lon="10.6288267"><ele>105.0</ele><time>2026-03-28T09:25:41.836Z</time></trkpt><trkpt lat="45.3781433" lon="10.62896"><ele>105.0</ele><time>2026-03-28T09:25:42.836Z</time></trkpt><trkpt lat="45.3779917" lon="10.6291133"><ele>105.0</ele><time>2026-03-28T09:25:43.837Z</time></trkpt><trkpt lat="45.3778417" lon="10.6292917"><ele>105.33333333333334</ele><time>2026-03-28T09:25:44.837Z</time></trkpt><trkpt lat="45.3777033" lon="10.6294767"><ele>105.66666666666667</ele><time>2026-03-28T09:25:45.836Z</time></trkpt><trkpt lat="45.3775867" lon="10.629655"><ele>106.0</ele><time>2026-03-28T09:25:46.836Z</time></trkpt><trkpt lat="45.3774817" lon="10.62982"><ele>106.0</ele><time>2026-03-28T09:25:47.837Z</time></trkpt><trkpt lat="45.37739" lon="10.62996"><ele>106.0</ele><time>2026-03-28T09:25:48.837Z</time></trkpt><trkpt lat="45.3773067" lon="10.6300917"><ele>106.0</ele><time>2026-03-28T09:25:49.837Z</time></trkpt><trkpt lat="45.37724" lon="10.6301967"><ele>106.0</ele><time>2026-03-28T09:25:50.836Z</time></trkpt><trkpt lat="45.3771517" lon="10.63028"><ele>107.5</ele><time>2026-03-28T09:25:51.836Z</time></trkpt><trkpt lat="45.3770467" lon="10.6303317"><ele>109.0</ele><time>2026-03-28T09:25:52.836Z</time></trkpt><trkpt lat="45.3769283" lon="10.6303583"><ele>110.5</ele><time>2026-03-28T09:25:53.837Z</time></trkpt><trkpt lat="45.3767983" lon="10.6303783"><ele>112.0</ele><time>2026-03-28T09:25:54.836Z</time></trkpt><trkpt lat="45.3766817" lon="10.6304367"><ele>112.0</ele><time>2026-03-28T09:25:55.837Z</time></trkpt><trkpt lat="45.37658" lon="10.6305117"><ele>112.0</ele><time>2026-03-28T09:25:56.836Z</time></trkpt><trkpt lat="45.376505" lon="10.6306183"><ele>112.0</ele><time>2026-03-28T09:25:57.836Z</time></trkpt><trkpt lat="45.3764367" lon="10.6307517"><ele>112.0</ele><time>2026-03-28T09:25:58.836Z</time></trkpt><trkpt lat="45.3763717" lon="10.6309217"><ele>117.33333333333334</ele><time>2026-03-28T09:25:59.836Z</time></trkpt><trkpt lat="45.3763133" lon="10.6311433"><ele>122.66666666666666</ele><time>2026-03-28T09:26:00.836Z</time></trkpt><trkpt lat="45.376255" lon="10.6313867"><ele>128.0</ele><time>2026-03-28T09:26:01.837Z</time></trkpt><trkpt lat="45.3762017" lon="10.631615"><ele>128.0</ele><time>2026-03-28T09:26:02.837Z</time></trkpt><trkpt lat="45.37615" lon="10.631825"><ele>128.0</ele><time>2026-03-28T09:26:03.837Z</time></trkpt><trkpt lat="45.3761067" lon="10.6320033"><ele>128.0</ele><time>2026-03-28T09:26:04.837Z</time></trkpt><trkpt lat="45.3760667" lon="10.6321783"><ele>128.0</ele><time>2026-03-28T09:26:05.837Z</time></trkpt><trkpt lat="45.3760367" lon="10.63235"><ele>126.0</ele><time>2026-03-28T09:26:06.836Z</time></trkpt><trkpt lat="45.3760083" lon="10.6325383"><ele>124.0</ele><time>2026-03-28T09:26:07.836Z</time></trkpt><trkpt lat="45.37599" lon="10.632735"><ele>122.0</ele><time>2026-03-28T09:26:08.836Z</time></trkpt><trkpt lat="45.3759583" lon="10.63292"><ele>120.0</ele><time>2026-03-28T09:26:09.836Z</time></trkpt><trkpt lat="45.3759367" lon="10.6330883"><ele>118.2</ele><time>2026-03-28T09:26:10.837Z</time></trkpt><trkpt lat="45.3759217" lon="10.633235"><ele>116.4</ele><time>2026-03-28T09:26:11.836Z</time></trkpt><trkpt lat="45.37591" lon="10.6333633"><ele>114.6</ele><time>2026-03-28T09:26:12.836Z</time></trkpt><trkpt lat="45.3758967" lon="10.6334983"><ele>112.8</ele><time>2026-03-28T09:26:13.837Z</time></trkpt><trkpt lat="45.3758833" lon="10.6336217"><ele>111.0</ele><time>2026-03-28T09:26:14.836Z</time></trkpt><trkpt lat="45.37589" lon="10.6337317"><ele>110.5</ele><time>2026-03-28T09:26:15.837Z</time></trkpt><trkpt lat="45.3759067" lon="10.6338883"><ele>110.0</ele><time>2026-03-28T09:26:17.836Z</time></trkpt><trkpt lat="45.3759433" lon="10.6339717"><ele>109.5</ele><time>2026-03-28T09:26:18.837Z</time></trkpt><trkpt lat="45.376" lon="10.6340633"><ele>109.0</ele><time>2026-03-28T09:26:19.837Z</time></trkpt><trkpt lat="45.3760583" lon="10.6341333"><ele>108.5</ele><time>2026-03-28T09:26:20.837Z</time></trkpt><trkpt lat="45.3761117" lon="10.6342017"><ele>108.0</ele><time>2026-03-28T09:26:21.837Z</time></trkpt><trkpt lat="45.3761633" lon="10.6342667"><ele>108.0</ele><time>2026-03-28T09:26:22.836Z</time></trkpt><trkpt lat="45.37623" lon="10.6343283"><ele>108.0</ele><time>2026-03-28T09:26:23.837Z</time></trkpt><trkpt lat="45.3762917" lon="10.6344"><ele>108.0</ele><time>2026-03-28T09:26:24.836Z</time></trkpt><trkpt lat="45.3763517" lon="10.63447"><ele>108.0</ele><time>2026-03-28T09:26:25.837Z</time></trkpt><trkpt lat="45.3764" lon="10.6345433"><ele>108.0</ele><time>2026-03-28T09:26:26.836Z</time></trkpt><trkpt lat="45.3764367" lon="10.6346233"><ele>108.0</ele><time>2026-03-28T09:26:27.836Z</time></trkpt><trkpt lat="45.3764667" lon="10.6347267"><ele>107.66666666666667</ele><time>2026-03-28T09:26:28.837Z</time></trkpt><trkpt lat="45.37649" lon="10.6348383"><ele>107.33333333333334</ele><time>2026-03-28T09:26:29.837Z</time></trkpt><trkpt lat="45.3765133" lon="10.63495"><ele>107.0</ele><time>2026-03-28T09:26:30.836Z</time></trkpt><trkpt lat="45.37654" lon="10.63506"><ele>106.66666666666667</ele><time>2026-03-28T09:26:31.837Z</time></trkpt><trkpt lat="45.37657" lon="10.635165"><ele>106.33333333333334</ele><time>2026-03-28T09:26:32.836Z</time></trkpt><trkpt lat="45.3765817" lon="10.6352533"><ele>106.0</ele><time>2026-03-28T09:26:33.836Z</time></trkpt><trkpt lat="45.37657" lon="10.6354017"><ele>107.33333333333334</ele><time>2026-03-28T09:26:35.836Z</time></trkpt><trkpt lat="45.3765133" lon="10.63555"><ele>108.66666666666667</ele><time>2026-03-28T09:26:37.837Z</time></trkpt><trkpt lat="45.3764817" lon="10.6356333"><ele>110.0</ele><time>2026-03-28T09:26:38.836Z</time></trkpt><trkpt lat="45.37643" lon="10.635765"><ele>111.33333333333334</ele><time>2026-03-28T09:26:40.837Z</time></trkpt><trkpt lat="45.3764017" lon="10.6358517"><ele>112.66666666666667</ele><time>2026-03-28T09:26:42.837Z</time></trkpt><trkpt lat="45.3763317" lon="10.6358367"><ele>114.0</ele><time>2026-03-28T09:26:44.836Z</time></trkpt><trkpt lat="45.376265" lon="10.63577"><ele>114.4</ele><time>2026-03-28T09:26:45.836Z</time></trkpt><trkpt lat="45.3761883" lon="10.63569"><ele>114.80000000000001</ele><time>2026-03-28T09:26:46.836Z</time></trkpt><trkpt lat="45.3761017" lon="10.635615"><ele>115.19999999999999</ele><time>2026-03-28T09:26:47.837Z</time></trkpt><trkpt lat="45.3760033" lon="10.6355367"><ele>115.6</ele><time>2026-03-28T09:26:48.837Z</time></trkpt><trkpt lat="45.37591" lon="10.63546"><ele>116.0</ele><time>2026-03-28T09:26:49.837Z</time></trkpt><trkpt lat="45.3758183" lon="10.635405"><ele>115.99999999999999</ele><time>2026-03-28T09:26:50.837Z</time></trkpt><trkpt lat="45.3757383" lon="10.635365"><ele>116.0</ele><time>2026-03-28T09:26:51.837Z</time></trkpt><trkpt lat="45.375655" lon="10.6353267"><ele>116.0</ele><time>2026-03-28T09:26:52.836Z</time></trkpt><trkpt lat="45.375575" lon="10.6353117"><ele>116.0</ele><time>2026-03-28T09:26:53.836Z</time></trkpt><trkpt lat="45.375485" lon="10.635325"><ele>115.99999999999999</ele><time>2026-03-28T09:26:54.837Z</time></trkpt><trkpt lat="45.3753983" lon="10.6353583"><ele>116.0</ele><time>2026-03-28T09:26:55.836Z</time></trkpt><trkpt lat="45.3753133" lon="10.6354067"><ele>115.19999999999999</ele><time>2026-03-28T09:26:56.837Z</time></trkpt><trkpt lat="45.3752283" lon="10.6354767"><ele>114.39999999999999</ele><time>2026-03-28T09:26:57.837Z</time></trkpt><trkpt lat="45.3751533" lon="10.63557"><ele>113.6</ele><time>2026-03-28T09:26:58.836Z</time></trkpt><trkpt lat="45.3750917" lon="10.6356533"><ele>112.8</ele><time>2026-03-28T09:26:59.837Z</time></trkpt><trkpt lat="45.3750333" lon="10.63575"><ele>112.0</ele><time>2026-03-28T09:27:00.837Z</time></trkpt><trkpt lat="45.3749683" lon="10.6358533"><ele>112.0</ele><time>2026-03-28T09:27:01.837Z</time></trkpt><trkpt lat="45.3748917" lon="10.635955"><ele>111.99999999999999</ele><time>2026-03-28T09:27:02.836Z</time></trkpt><trkpt lat="45.3748117" lon="10.6360583"><ele>111.99999999999999</ele><time>2026-03-28T09:27:03.837Z</time></trkpt><trkpt lat="45.3747283" lon="10.6361517"><ele>112.0</ele><time>2026-03-28T09:27:04.836Z</time></trkpt><trkpt lat="45.374645" lon="10.63623"><ele>112.0</ele><time>2026-03-28T09:27:05.836Z</time></trkpt><trkpt lat="45.374565" lon="10.636305"><ele>111.33333333333334</ele><time>2026-03-28T09:27:06.836Z</time></trkpt><trkpt lat="45.3744967" lon="10.6363767"><ele>110.66666666666667</ele><time>2026-03-28T09:27:07.836Z</time></trkpt><trkpt lat="45.3744467" lon="10.6364467"><ele>110.0</ele><time>2026-03-28T09:27:08.837Z</time></trkpt><trkpt lat="45.3744033" lon="10.6365683"><ele>109.33333333333334</ele><time>2026-03-28T09:27:10.837Z</time></trkpt><trkpt lat="45.37443" lon="10.636675"><ele>108.66666666666667</ele><time>2026-03-28T09:27:11.836Z</time></trkpt><trkpt lat="45.374465" lon="10.6367817"><ele>108.0</ele><time>2026-03-28T09:27:12.837Z</time></trkpt><trkpt lat="45.3745117" lon="10.6369167"><ele>108.5</ele><time>2026-03-28T09:27:13.837Z</time></trkpt><trkpt lat="45.374555" lon="10.6370667"><ele>109.0</ele><time>2026-03-28T09:27:14.836Z</time></trkpt><trkpt lat="45.37459" lon="10.637235"><ele>109.5</ele><time>2026-03-28T09:27:15.837Z</time></trkpt><trkpt lat="45.374595" lon="10.6373967"><ele>110.0</ele><time>2026-03-28T09:27:16.836Z</time></trkpt><trkpt lat="45.374595" lon="10.6375583"><ele>110.0</ele><time>2026-03-28T09:27:17.836Z</time></trkpt><trkpt lat="45.3746033" lon="10.63772"><ele>110.0</ele><time>2026-03-28T09:27:18.836Z</time></trkpt><trkpt lat="45.3746183" lon="10.63787"><ele>110.0</ele><time>2026-03-28T09:27:19.837Z</time></trkpt><trkpt lat="45.3746333" lon="10.6380033"><ele>110.0</ele><time>2026-03-28T09:27:20.837Z</time></trkpt><trkpt lat="45.3746567" lon="10.6381267"><ele>110.0</ele><time>2026-03-28T09:27:21.836Z</time></trkpt><trkpt lat="45.3746817" lon="10.638255"><ele>111.4</ele><time>2026-03-28T09:27:22.837Z</time></trkpt><trkpt lat="45.3747133" lon="10.6383733"><ele>112.8</ele><time>2026-03-28T09:27:23.837Z</time></trkpt><trkpt lat="45.3747433" lon="10.6385017"><ele>114.19999999999999</ele><time>2026-03-28T09:27:24.837Z</time></trkpt><trkpt lat="45.3747683" lon="10.6386183"><ele>115.6</ele><time>2026-03-28T09:27:25.837Z</time></trkpt><trkpt lat="45.3747867" lon="10.6387517"><ele>117.0</ele><time>2026-03-28T09:27:26.836Z</time></trkpt><trkpt lat="45.3748" lon="10.6388833"><ele>117.19999999999999</ele><time>2026-03-28T09:27:27.836Z</time></trkpt><trkpt lat="45.3748133" lon="10.6390283"><ele>117.39999999999999</ele><time>2026-03-28T09:27:28.837Z</time></trkpt><trkpt lat="45.37482" lon="10.6391767"><ele>117.60000000000001</ele><time>2026-03-28T09:27:29.836Z</time></trkpt><trkpt lat="45.3748267" lon="10.6393283"><ele>117.80000000000001</ele><time>2026-03-28T09:27:30.837Z</time></trkpt><trkpt lat="45.3748317" lon="10.63947"><ele>118.0</ele><time>2026-03-28T09:27:31.837Z</time></trkpt><trkpt lat="45.3748417" lon="10.639615"><ele>118.0</ele><time>2026-03-28T09:27:32.837Z</time></trkpt><trkpt lat="45.3748817" lon="10.6397567"><ele>118.00000000000001</ele><time>2026-03-28T09:27:33.837Z</time></trkpt><trkpt lat="45.37492" lon="10.6399017"><ele>118.00000000000001</ele><time>2026-03-28T09:27:34.836Z</time></trkpt><trkpt lat="45.37497" lon="10.6400367"><ele>118.0</ele><time>2026-03-28T09:27:35.837Z</time></trkpt><trkpt lat="45.375025" lon="10.6401667"><ele>118.0</ele><time>2026-03-28T09:27:36.836Z</time></trkpt><trkpt lat="45.375095" lon="10.64029"><ele>117.0</ele><time>2026-03-28T09:27:37.837Z</time></trkpt><trkpt lat="45.3751683" lon="10.6404233"><ele>116.00000000000001</ele><time>2026-03-28T09:27:38.837Z</time></trkpt><trkpt lat="45.37523" lon="10.64055"><ele>115.00000000000001</ele><time>2026-03-28T09:27:39.837Z</time></trkpt><trkpt lat="45.3752867" lon="10.6406633"><ele>114.0</ele><time>2026-03-28T09:27:40.836Z</time></trkpt><trkpt lat="45.3753167" lon="10.6407767"><ele>113.0</ele><time>2026-03-28T09:27:41.836Z</time></trkpt><trkpt lat="45.3753133" lon="10.64088"><ele>112.99999999999999</ele><time>2026-03-28T09:27:42.836Z</time></trkpt><trkpt lat="45.3753033" lon="10.64097"><ele>113.0</ele><time>2026-03-28T09:27:43.837Z</time></trkpt><trkpt lat="45.375265" lon="10.6410417"><ele>113.0</ele><time>2026-03-28T09:27:44.836Z</time></trkpt><trkpt lat="45.3752083" lon="10.641095"><ele>113.0</ele><time>2026-03-28T09:27:45.836Z</time></trkpt><trkpt lat="45.3751317" lon="10.6411383"><ele>112.99999999999999</ele><time>2026-03-28T09:27:46.836Z</time></trkpt><trkpt lat="45.3750333" lon="10.64116"><ele>113.0</ele><time>2026-03-28T09:27:47.836Z</time></trkpt><trkpt lat="45.3749117" lon="10.6411667"><ele>112.0</ele><time>2026-03-28T09:27:48.837Z</time></trkpt><trkpt lat="45.3747767" lon="10.641175"><ele>111.0</ele><time>2026-03-28T09:27:49.836Z</time></trkpt><trkpt lat="45.3746183" lon="10.6411733"><ele>110.0</ele><time>2026-03-28T09:27:50.836Z</time></trkpt><trkpt lat="45.374445" lon="10.64117"><ele>109.66666666666666</ele><time>2026-03-28T09:27:51.837Z</time></trkpt><trkpt lat="45.3742583" lon="10.641165"><ele>109.33333333333334</ele><time>2026-03-28T09:27:52.837Z</time></trkpt><trkpt lat="45.374075" lon="10.6411767"><ele>109.0</ele><time>2026-03-28T09:27:53.837Z</time></trkpt><trkpt lat="45.3738833" lon="10.6412317"><ele>108.0</ele><time>2026-03-28T09:27:54.837Z</time></trkpt><trkpt lat="45.3737033" lon="10.64132"><ele>107.0</ele><time>2026-03-28T09:27:55.837Z</time></trkpt><trkpt lat="45.3735217" lon="10.641465"><ele>106.0</ele><time>2026-03-28T09:27:56.837Z</time></trkpt><trkpt lat="45.3733483" lon="10.6416317"><ele>106.0</ele><time>2026-03-28T09:27:57.836Z</time></trkpt><trkpt lat="45.3732" lon="10.6417817"><ele>106.0</ele><time>2026-03-28T09:27:58.836Z</time></trkpt><trkpt lat="45.3730633" lon="10.6419133"><ele>106.0</ele><time>2026-03-28T09:27:59.837Z</time></trkpt><trkpt lat="45.3729517" lon="10.642015"><ele>106.0</ele><time>2026-03-28T09:28:00.836Z</time></trkpt><trkpt lat="45.3728267" lon="10.6421133"><ele>106.0</ele><time>2026-03-28T09:28:01.836Z</time></trkpt><trkpt lat="45.3727017" lon="10.6421867"><ele>106.0</ele><time>2026-03-28T09:28:02.837Z</time></trkpt><trkpt lat="45.3725567" lon="10.6422533"><ele>106.0</ele><time>2026-03-28T09:28:03.837Z</time></trkpt><trkpt lat="45.37241" lon="10.6422867"><ele>106.0</ele><time>2026-03-28T09:28:04.837Z</time></trkpt><trkpt lat="45.37224" lon="10.642315"><ele>106.0</ele><time>2026-03-28T09:28:05.837Z</time></trkpt><trkpt lat="45.3720733" lon="10.6423367"><ele>106.0</ele><time>2026-03-28T09:28:06.836Z</time></trkpt><trkpt lat="45.3719167" lon="10.6423617"><ele>107.0</ele><time>2026-03-28T09:28:07.836Z</time></trkpt><trkpt lat="45.37176" lon="10.642395"><ele>108.0</ele><time>2026-03-28T09:28:08.837Z</time></trkpt><trkpt lat="45.371615" lon="10.6424233"><ele>109.0</ele><time>2026-03-28T09:28:09.837Z</time></trkpt><trkpt lat="45.3714633" lon="10.6424583"><ele>108.75</ele><time>2026-03-28T09:28:10.836Z</time></trkpt><trkpt lat="45.3713267" lon="10.64249"><ele>108.5</ele><time>2026-03-28T09:28:11.836Z</time></trkpt><trkpt lat="45.3711867" lon="10.6425667"><ele>108.25</ele><time>2026-03-28T09:28:12.837Z</time></trkpt><trkpt lat="45.3710633" lon="10.6426717"><ele>108.0</ele><time>2026-03-28T09:28:13.836Z</time></trkpt><trkpt lat="45.3709317" lon="10.64281"><ele>108.0</ele><time>2026-03-28T09:28:14.836Z</time></trkpt><trkpt lat="45.3708133" lon="10.6429883"><ele>108.0</ele><time>2026-03-28T09:28:15.836Z</time></trkpt><trkpt lat="45.370695" lon="10.64318"><ele>108.0</ele><time>2026-03-28T09:28:16.837Z</time></trkpt><trkpt lat="45.3705733" lon="10.6433633"><ele>108.33333333333334</ele><time>2026-03-28T09:28:17.837Z</time></trkpt><trkpt lat="45.37043" lon="10.6435017"><ele>108.66666666666667</ele><time>2026-03-28T09:28:18.836Z</time></trkpt><trkpt lat="45.37027" lon="10.6435967"><ele>109.0</ele><time>2026-03-28T09:28:19.836Z</time></trkpt><trkpt lat="45.3700867" lon="10.6436533"><ele>109.66666666666667</ele><time>2026-03-28T09:28:20.837Z</time></trkpt><trkpt lat="45.3699117" lon="10.6437017"><ele>110.33333333333334</ele><time>2026-03-28T09:28:21.836Z</time></trkpt><trkpt lat="45.3697367" lon="10.6437833"><ele>111.0</ele><time>2026-03-28T09:28:22.837Z</time></trkpt><trkpt lat="45.3695733" lon="10.6438583"><ele>111.0</ele><time>2026-03-28T09:28:23.837Z</time></trkpt><trkpt lat="45.3694117" lon="10.6439267"><ele>111.0</ele><time>2026-03-28T09:28:24.837Z</time></trkpt><trkpt lat="45.3692617" lon="10.6440067"><ele>111.0</ele><time>2026-03-28T09:28:25.837Z</time></trkpt><trkpt lat="45.3691083" lon="10.6440833"><ele>111.0</ele><time>2026-03-28T09:28:26.837Z</time></trkpt><trkpt lat="45.3689467" lon="10.6441583"><ele>111.0</ele><time>2026-03-28T09:28:27.837Z</time></trkpt><trkpt lat="45.3687817" lon="10.644235"><ele>111.0</ele><time>2026-03-28T09:28:28.836Z</time></trkpt><trkpt lat="45.36862" lon="10.6442717"><ele>110.66666666666666</ele><time>2026-03-28T09:28:29.837Z</time></trkpt><trkpt lat="45.368455" lon="10.6442783"><ele>110.33333333333333</ele><time>2026-03-28T09:28:30.836Z</time></trkpt><trkpt lat="45.3682933" lon="10.644285"><ele>110.0</ele><time>2026-03-28T09:28:31.837Z</time></trkpt><trkpt lat="45.3681433" lon="10.6442867"><ele>110.0</ele><time>2026-03-28T09:28:32.836Z</time></trkpt><trkpt lat="45.368005" lon="10.6442817"><ele>110.0</ele><time>2026-03-28T09:28:33.836Z</time></trkpt><trkpt lat="45.3678617" lon="10.6442617"><ele>110.0</ele><time>2026-03-28T09:28:34.837Z</time></trkpt><trkpt lat="45.3677183" lon="10.6442217"><ele>110.0</ele><time>2026-03-28T09:28:35.836Z</time></trkpt><trkpt lat="45.3675833" lon="10.644165"><ele>110.0</ele><time>2026-03-28T09:28:36.837Z</time></trkpt><trkpt lat="45.36745" lon="10.6440967"><ele>110.0</ele><time>2026-03-28T09:28:37.837Z</time></trkpt><trkpt lat="45.367305" lon="10.644005"><ele>110.0</ele><time>2026-03-28T09:28:38.837Z</time></trkpt><trkpt lat="45.3671817" lon="10.6438867"><ele>110.0</ele><time>2026-03-28T09:28:39.836Z</time></trkpt><trkpt lat="45.3670517" lon="10.6437433"><ele>109.25</ele><time>2026-03-28T09:28:40.836Z</time></trkpt><trkpt lat="45.366925" lon="10.643595"><ele>108.5</ele><time>2026-03-28T09:28:41.836Z</time></trkpt><trkpt lat="45.3668117" lon="10.6434583"><ele>107.75</ele><time>2026-03-28T09:28:42.836Z</time></trkpt><trkpt lat="45.3667033" lon="10.6433517"><ele>107.0</ele><time>2026-03-28T09:28:43.836Z</time></trkpt><trkpt lat="45.3665867" lon="10.6432717"><ele>107.0</ele><time>2026-03-28T09:28:44.836Z</time></trkpt><trkpt lat="45.3664617" lon="10.643205"><ele>107.0</ele><time>2026-03-28T09:28:45.837Z</time></trkpt><trkpt lat="45.3663317" lon="10.6431567"><ele>107.0</ele><time>2026-03-28T09:28:46.836Z</time></trkpt><trkpt lat="45.3662" lon="10.6431217"><ele>107.0</ele><time>2026-03-28T09:28:47.837Z</time></trkpt><trkpt lat="45.36606" lon="10.643155"><ele>106.66666666666666</ele><time>2026-03-28T09:28:48.836Z</time></trkpt><trkpt lat="45.36592" lon="10.643255"><ele>106.33333333333334</ele><time>2026-03-28T09:28:49.836Z</time></trkpt><trkpt lat="45.3657917" lon="10.6433817"><ele>106.0</ele><time>2026-03-28T09:28:50.837Z</time></trkpt><trkpt lat="45.3656633" lon="10.643505"><ele>106.0</ele><time>2026-03-28T09:28:51.836Z</time></trkpt><trkpt lat="45.3655333" lon="10.64362"><ele>106.0</ele><time>2026-03-28T09:28:52.837Z</time></trkpt><trkpt lat="45.3654" lon="10.6437217"><ele>106.0</ele><time>2026-03-28T09:28:53.836Z</time></trkpt><trkpt lat="45.3652683" lon="10.64381"><ele>106.25</ele><time>2026-03-28T09:28:54.836Z</time></trkpt><trkpt lat="45.3651283" lon="10.64388"><ele>106.5</ele><time>2026-03-28T09:28:55.837Z</time></trkpt><trkpt lat="45.3649817" lon="10.643915"><ele>106.75</ele><time>2026-03-28T09:28:56.836Z</time></trkpt><trkpt lat="45.36483" lon="10.6439183"><ele>107.0</ele><time>2026-03-28T09:28:57.837Z</time></trkpt><trkpt lat="45.3646717" lon="10.6438883"><ele>107.33333333333333</ele><time>2026-03-28T09:28:58.836Z</time></trkpt><trkpt lat="45.3645067" lon="10.6438367"><ele>107.66666666666666</ele><time>2026-03-28T09:28:59.837Z</time></trkpt><trkpt lat="45.364345" lon="10.6437717"><ele>108.0</ele><time>2026-03-28T09:29:00.837Z</time></trkpt><trkpt lat="45.3641967" lon="10.64372"><ele>108.0</ele><time>2026-03-28T09:29:01.836Z</time></trkpt><trkpt lat="45.3640617" lon="10.6436517"><ele>108.0</ele><time>2026-03-28T09:29:02.836Z</time></trkpt><trkpt lat="45.3639267" lon="10.6436383"><ele>108.0</ele><time>2026-03-28T09:29:03.836Z</time></trkpt><trkpt lat="45.363795" lon="10.6436883"><ele>108.0</ele><time>2026-03-28T09:29:04.836Z</time></trkpt><trkpt lat="45.3636633" lon="10.6437833"><ele>109.66666666666666</ele><time>2026-03-28T09:29:05.836Z</time></trkpt><trkpt lat="45.3635333" lon="10.6438917"><ele>111.33333333333333</ele><time>2026-03-28T09:29:06.837Z</time></trkpt><trkpt lat="45.36338" lon="10.6440017"><ele>113.0</ele><time>2026-03-28T09:29:07.837Z</time></trkpt><trkpt lat="45.3632117" lon="10.6441083"><ele>114.33333333333333</ele><time>2026-03-28T09:29:08.836Z</time></trkpt><trkpt lat="45.36303" lon="10.6442183"><ele>115.66666666666666</ele><time>2026-03-28T09:29:09.836Z</time></trkpt><trkpt lat="45.362835" lon="10.6443233"><ele>117.0</ele><time>2026-03-28T09:29:10.836Z</time></trkpt><trkpt lat="45.3626383" lon="10.6443717"><ele>117.0</ele><time>2026-03-28T09:29:11.836Z</time></trkpt><trkpt lat="45.362425" lon="10.6443833"><ele>117.0</ele><time>2026-03-28T09:29:12.836Z</time></trkpt><trkpt lat="45.3622317" lon="10.6443933"><ele>117.0</ele><time>2026-03-28T09:29:13.836Z</time></trkpt><trkpt lat="45.362055" lon="10.64443"><ele>121.0</ele><time>2026-03-28T09:29:14.836Z</time></trkpt><trkpt lat="45.3618933" lon="10.6445"><ele>125.0</ele><time>2026-03-28T09:29:15.837Z</time></trkpt><trkpt lat="45.3617467" lon="10.6445933"><ele>129.0</ele><time>2026-03-28T09:29:16.836Z</time></trkpt><trkpt lat="45.3616217" lon="10.6447167"><ele>129.0</ele><time>2026-03-28T09:29:17.836Z</time></trkpt><trkpt lat="45.3615033" lon="10.6448383"><ele>129.0</ele><time>2026-03-28T09:29:18.837Z</time></trkpt><trkpt lat="45.3613767" lon="10.644935"><ele>129.0</ele><time>2026-03-28T09:29:19.836Z</time></trkpt><trkpt lat="45.3612433" lon="10.6449983"><ele>129.0</ele><time>2026-03-28T09:29:20.837Z</time></trkpt><trkpt lat="45.36111" lon="10.6450267"><ele>128.66666666666666</ele><time>2026-03-28T09:29:21.837Z</time></trkpt><trkpt lat="45.36097" lon="10.6450133"><ele>128.33333333333331</ele><time>2026-03-28T09:29:22.836Z</time></trkpt><trkpt lat="45.3608183" lon="10.6449333"><ele>128.0</ele><time>2026-03-28T09:29:23.836Z</time></trkpt><trkpt lat="45.3606533" lon="10.6448433"><ele>125.66666666666666</ele><time>2026-03-28T09:29:24.836Z</time></trkpt><trkpt lat="45.3604767" lon="10.64474"><ele>123.33333333333334</ele><time>2026-03-28T09:29:25.836Z</time></trkpt><trkpt lat="45.3602967" lon="10.6446583"><ele>121.0</ele><time>2026-03-28T09:29:26.836Z</time></trkpt><trkpt lat="45.3601067" lon="10.6446017"><ele>121.0</ele><time>2026-03-28T09:29:27.837Z</time></trkpt><trkpt lat="45.359925" lon="10.644555"><ele>121.0</ele><time>2026-03-28T09:29:28.836Z</time></trkpt><trkpt lat="45.3597317" lon="10.6444917"><ele>121.0</ele><time>2026-03-28T09:29:29.836Z</time></trkpt><trkpt lat="45.359525" lon="10.64444"><ele>122.0</ele><time>2026-03-28T09:29:30.836Z</time></trkpt><trkpt lat="45.3593267" lon="10.6443883"><ele>123.0</ele><time>2026-03-28T09:29:31.836Z</time></trkpt><trkpt lat="45.35915" lon="10.6443383"><ele>124.0</ele><time>2026-03-28T09:29:32.837Z</time></trkpt><trkpt lat="45.35898" lon="10.6443033"><ele>123.66666666666667</ele><time>2026-03-28T09:29:33.836Z</time></trkpt><trkpt lat="45.358815" lon="10.6442767"><ele>123.33333333333334</ele><time>2026-03-28T09:29:34.837Z</time></trkpt><trkpt lat="45.3586633" lon="10.64424"><ele>123.0</ele><time>2026-03-28T09:29:35.837Z</time></trkpt><trkpt lat="45.3585283" lon="10.64421"><ele>123.0</ele><time>2026-03-28T09:29:36.836Z</time></trkpt><trkpt lat="45.3584067" lon="10.6441833"><ele>123.00000000000001</ele><time>2026-03-28T09:29:37.836Z</time></trkpt><trkpt lat="45.35831" lon="10.6441683"><ele>123.00000000000001</ele><time>2026-03-28T09:29:38.836Z</time></trkpt><trkpt lat="45.3582233" lon="10.6441533"><ele>123.0</ele><time>2026-03-28T09:29:39.837Z</time></trkpt><trkpt lat="45.358145" lon="10.644135"><ele>123.0</ele><time>2026-03-28T09:29:40.836Z</time></trkpt><trkpt lat="45.3580717" lon="10.6441133"><ele>122.4</ele><time>2026-03-28T09:29:41.837Z</time></trkpt><trkpt lat="45.3580083" lon="10.6440883"><ele>121.80000000000001</ele><time>2026-03-28T09:29:42.836Z</time></trkpt><trkpt lat="45.357905" lon="10.6440183"><ele>121.2</ele><time>2026-03-28T09:29:44.837Z</time></trkpt><trkpt lat="45.357815" lon="10.644"><ele>120.6</ele><time>2026-03-28T09:29:46.837Z</time></trkpt><trkpt lat="45.3577483" lon="10.64404"><ele>120.0</ele><time>2026-03-28T09:29:48.837Z</time></trkpt><trkpt lat="45.357615" lon="10.64412"><ele>120.0</ele><time>2026-03-28T09:29:50.836Z</time></trkpt><trkpt lat="45.3575083" lon="10.644155"><ele>120.0</ele><time>2026-03-28T09:29:51.837Z</time></trkpt><trkpt lat="45.3573967" lon="10.64416"><ele>120.0</ele><time>2026-03-28T09:29:52.836Z</time></trkpt><trkpt lat="45.3572733" lon="10.6441483"><ele>120.0</ele><time>2026-03-28T09:29:53.836Z</time></trkpt><trkpt lat="45.3571433" lon="10.6441467"><ele>119.75</ele><time>2026-03-28T09:29:54.836Z</time></trkpt><trkpt lat="45.357015" lon="10.64414"><ele>119.5</ele><time>2026-03-28T09:29:55.836Z</time></trkpt><trkpt lat="45.3568933" lon="10.64413"><ele>119.25</ele><time>2026-03-28T09:29:56.837Z</time></trkpt><trkpt lat="45.356745" lon="10.6441233"><ele>119.0</ele><time>2026-03-28T09:29:57.836Z</time></trkpt><trkpt lat="45.356595" lon="10.64411"><ele>119.0</ele><time>2026-03-28T09:29:58.836Z</time></trkpt><trkpt lat="45.3564333" lon="10.6441017"><ele>119.0</ele><time>2026-03-28T09:29:59.836Z</time></trkpt><trkpt lat="45.3562833" lon="10.6440683"><ele>119.0</ele><time>2026-03-28T09:30:00.837Z</time></trkpt><trkpt lat="45.3561333" lon="10.644025"><ele>119.33333333333333</ele><time>2026-03-28T09:30:01.836Z</time></trkpt><trkpt lat="45.355975" lon="10.643955"><ele>119.66666666666666</ele><time>2026-03-28T09:30:02.837Z</time></trkpt><trkpt lat="45.3558217" lon="10.64387"><ele>120.0</ele><time>2026-03-28T09:30:03.836Z</time></trkpt><trkpt lat="45.35567" lon="10.643775"><ele>119.33333333333334</ele><time>2026-03-28T09:30:04.837Z</time></trkpt><trkpt lat="45.35552" lon="10.6436817"><ele>118.66666666666667</ele><time>2026-03-28T09:30:05.836Z</time></trkpt><trkpt lat="45.35538" lon="10.6435917"><ele>118.0</ele><time>2026-03-28T09:30:06.836Z</time></trkpt><trkpt lat="45.3552417" lon="10.6435033"><ele>118.0</ele><time>2026-03-28T09:30:07.837Z</time></trkpt><trkpt lat="45.355105" lon="10.6434367"><ele>118.0</ele><time>2026-03-28T09:30:08.836Z</time></trkpt><trkpt lat="45.354965" lon="10.6434067"><ele>118.0</ele><time>2026-03-28T09:30:09.836Z</time></trkpt><trkpt lat="45.35481" lon="10.6434483"><ele>118.0</ele><time>2026-03-28T09:30:10.836Z</time></trkpt><trkpt lat="45.3546383" lon="10.643555"><ele>115.66666666666667</ele><time>2026-03-28T09:30:11.836Z</time></trkpt><trkpt lat="45.354455" lon="10.6436767"><ele>113.33333333333334</ele><time>2026-03-28T09:30:12.836Z</time></trkpt><trkpt lat="45.3542767" lon="10.6438067"><ele>111.0</ele><time>2026-03-28T09:30:13.837Z</time></trkpt><trkpt lat="45.3540983" lon="10.6439367"><ele>111.0</ele><time>2026-03-28T09:30:14.836Z</time></trkpt><trkpt lat="45.3539183" lon="10.6440633"><ele>111.0</ele><time>2026-03-28T09:30:15.836Z</time></trkpt><trkpt lat="45.353735" lon="10.6442017"><ele>111.0</ele><time>2026-03-28T09:30:16.837Z</time></trkpt><trkpt lat="45.35356" lon="10.64432"><ele>110.66666666666666</ele><time>2026-03-28T09:30:17.837Z</time></trkpt><trkpt lat="45.3533767" lon="10.6444717"><ele>110.33333333333333</ele><time>2026-03-28T09:30:18.837Z</time></trkpt><trkpt lat="45.3532" lon="10.644635"><ele>110.0</ele><time>2026-03-28T09:30:19.836Z</time></trkpt><trkpt lat="45.35303" lon="10.6447933"><ele>110.0</ele><time>2026-03-28T09:30:20.837Z</time></trkpt><trkpt lat="45.3528717" lon="10.6449333"><ele>110.0</ele><time>2026-03-28T09:30:21.837Z</time></trkpt><trkpt lat="45.352725" lon="10.6450717"><ele>110.0</ele><time>2026-03-28T09:30:22.836Z</time></trkpt><trkpt lat="45.3525933" lon="10.6451983"><ele>109.75</ele><time>2026-03-28T09:30:23.836Z</time></trkpt><trkpt lat="45.3524717" lon="10.6453167"><ele>109.5</ele><time>2026-03-28T09:30:24.837Z</time></trkpt><trkpt lat="45.3523533" lon="10.6454283"><ele>109.25</ele><time>2026-03-28T09:30:25.837Z</time></trkpt><trkpt lat="45.3522317" lon="10.6455267"><ele>109.0</ele><time>2026-03-28T09:30:26.837Z</time></trkpt><trkpt lat="45.3521133" lon="10.6456183"><ele>109.0</ele><time>2026-03-28T09:30:27.836Z</time></trkpt><trkpt lat="45.35201" lon="10.645695"><ele>109.0</ele><time>2026-03-28T09:30:28.837Z</time></trkpt><trkpt lat="45.3519233" lon="10.645765"><ele>109.0</ele><time>2026-03-28T09:30:29.837Z</time></trkpt><trkpt lat="45.3518283" lon="10.6458217"><ele>109.0</ele><time>2026-03-28T09:30:30.837Z</time></trkpt><trkpt lat="45.3517417" lon="10.6458567"><ele>109.0</ele><time>2026-03-28T09:30:31.836Z</time></trkpt><trkpt lat="45.3516783" lon="10.6458533"><ele>109.0</ele><time>2026-03-28T09:30:32.836Z</time></trkpt><trkpt lat="45.3516267" lon="10.6457017"><ele>109.0</ele><time>2026-03-28T09:30:34.837Z</time></trkpt><trkpt lat="45.3516233" lon="10.6455883"><ele>109.0</ele><time>2026-03-28T09:30:35.836Z</time></trkpt><trkpt lat="45.3516367" lon="10.64546"><ele>109.0</ele><time>2026-03-28T09:30:36.836Z</time></trkpt><trkpt lat="45.3516817" lon="10.6453133"><ele>109.0</ele><time>2026-03-28T09:30:37.836Z</time></trkpt><trkpt lat="45.3517467" lon="10.6451667"><ele>109.2</ele><time>2026-03-28T09:30:38.836Z</time></trkpt><trkpt lat="45.351815" lon="10.645045"><ele>109.4</ele><time>2026-03-28T09:30:39.836Z</time></trkpt><trkpt lat="45.351885" lon="10.644925"><ele>109.6</ele><time>2026-03-28T09:30:40.837Z</time></trkpt><trkpt lat="45.3519583" lon="10.6448067"><ele>109.8</ele><time>2026-03-28T09:30:41.837Z</time></trkpt><trkpt lat="45.3520383" lon="10.6446933"><ele>110.0</ele><time>2026-03-28T09:30:42.837Z</time></trkpt><trkpt lat="45.3521117" lon="10.6445883"><ele>109.99999999999999</ele><time>2026-03-28T09:30:43.837Z</time></trkpt><trkpt lat="45.35217" lon="10.6445033"><ele>110.0</ele><time>2026-03-28T09:30:44.836Z</time></trkpt><trkpt lat="45.352225" lon="10.6444367"><ele>110.0</ele><time>2026-03-28T09:30:45.836Z</time></trkpt><trkpt lat="45.3522683" lon="10.6443183"><ele>110.0</ele><time>2026-03-28T09:30:47.837Z</time></trkpt><trkpt lat="45.3522267" lon="10.644245"><ele>109.99999999999999</ele><time>2026-03-28T09:30:49.837Z</time></trkpt><trkpt lat="45.3521267" lon="10.644165"><ele>110.0</ele><time>2026-03-28T09:30:51.836Z</time></trkpt><trkpt lat="45.352045" lon="10.64412"><ele>110.2</ele><time>2026-03-28T09:30:52.836Z</time></trkpt><trkpt lat="45.351955" lon="10.6440667"><ele>110.4</ele><time>2026-03-28T09:30:53.836Z</time></trkpt><trkpt lat="45.3518567" lon="10.644"><ele>110.6</ele><time>2026-03-28T09:30:54.836Z</time></trkpt><trkpt lat="45.3517517" lon="10.6439267"><ele>110.8</ele><time>2026-03-28T09:30:55.836Z</time></trkpt><trkpt lat="45.3516417" lon="10.6438567"><ele>111.0</ele><time>2026-03-28T09:30:56.836Z</time></trkpt><trkpt lat="45.3515467" lon="10.6437883"><ele>111.0</ele><time>2026-03-28T09:30:57.837Z</time></trkpt><trkpt lat="45.351455" lon="10.6437233"><ele>111.0</ele><time>2026-03-28T09:30:58.837Z</time></trkpt><trkpt lat="45.3513567" lon="10.6436583"><ele>111.0</ele><time>2026-03-28T09:30:59.836Z</time></trkpt><trkpt lat="45.35124" lon="10.6435933"><ele>111.0</ele><time>2026-03-28T09:31:00.837Z</time></trkpt><trkpt lat="45.3511167" lon="10.6435267"><ele>110.25</ele><time>2026-03-28T09:31:01.837Z</time></trkpt><trkpt lat="45.351" lon="10.643465"><ele>109.5</ele><time>2026-03-28T09:31:02.836Z</time></trkpt><trkpt lat="45.3508883" lon="10.6434017"><ele>108.75</ele><time>2026-03-28T09:31:03.836Z</time></trkpt><trkpt lat="45.3507767" lon="10.643335"><ele>108.0</ele><time>2026-03-28T09:31:04.837Z</time></trkpt><trkpt lat="45.3506717" lon="10.6432667"><ele>108.0</ele><time>2026-03-28T09:31:05.836Z</time></trkpt><trkpt lat="45.3505633" lon="10.6432067"><ele>108.00000000000001</ele><time>2026-03-28T09:31:06.836Z</time></trkpt><trkpt lat="45.35046" lon="10.643145"><ele>108.00000000000001</ele><time>2026-03-28T09:31:07.836Z</time></trkpt><trkpt lat="45.3503583" lon="10.6430867"><ele>108.0</ele><time>2026-03-28T09:31:08.837Z</time></trkpt><trkpt lat="45.3502533" lon="10.6430417"><ele>108.0</ele><time>2026-03-28T09:31:09.836Z</time></trkpt><trkpt lat="45.350135" lon="10.642995"><ele>107.80000000000001</ele><time>2026-03-28T09:31:10.836Z</time></trkpt><trkpt lat="45.350025" lon="10.642945"><ele>107.60000000000001</ele><time>2026-03-28T09:31:11.836Z</time></trkpt><trkpt lat="45.349915" lon="10.6429017"><ele>107.39999999999999</ele><time>2026-03-28T09:31:12.837Z</time></trkpt><trkpt lat="45.3498217" lon="10.6428483"><ele>107.19999999999999</ele><time>2026-03-28T09:31:13.837Z</time></trkpt><trkpt lat="45.3497433" lon="10.64281"><ele>107.0</ele><time>2026-03-28T09:31:14.837Z</time></trkpt><trkpt lat="45.34968" lon="10.6427767"><ele>106.66666666666666</ele><time>2026-03-28T09:31:15.836Z</time></trkpt><trkpt lat="45.34957" lon="10.6427283"><ele>106.33333333333333</ele><time>2026-03-28T09:31:17.837Z</time></trkpt><trkpt lat="45.3494783" lon="10.6426917"><ele>106.0</ele><time>2026-03-28T09:31:19.836Z</time></trkpt><trkpt lat="45.3494117" lon="10.642675"><ele>105.66666666666666</ele><time>2026-03-28T09:31:20.836Z</time></trkpt><trkpt lat="45.349345" lon="10.6426583"><ele>105.33333333333333</ele><time>2026-03-28T09:31:21.837Z</time></trkpt><trkpt lat="45.3492783" lon="10.642625"><ele>105.0</ele><time>2026-03-28T09:31:22.836Z</time></trkpt><trkpt lat="45.34919" lon="10.642595"><ele>105.0</ele><time>2026-03-28T09:31:23.836Z</time></trkpt><trkpt lat="45.3490967" lon="10.6425567"><ele>105.0</ele><time>2026-03-28T09:31:24.836Z</time></trkpt><trkpt lat="45.3489833" lon="10.6425233"><ele>105.0</ele><time>2026-03-28T09:31:25.837Z</time></trkpt><trkpt lat="45.3488917" lon="10.64249"><ele>105.0</ele><time>2026-03-28T09:31:26.837Z</time></trkpt><trkpt lat="45.34882" lon="10.64246"><ele>105.0</ele><time>2026-03-28T09:31:27.836Z</time></trkpt><trkpt lat="45.348725" lon="10.6424167"><ele>105.4</ele><time>2026-03-28T09:31:29.836Z</time></trkpt><trkpt lat="45.348675" lon="10.6422733"><ele>105.8</ele><time>2026-03-28T09:31:31.836Z</time></trkpt><trkpt lat="45.3486967" lon="10.6420883"><ele>106.19999999999999</ele><time>2026-03-28T09:31:33.837Z</time></trkpt><trkpt lat="45.34871" lon="10.6419883"><ele>106.6</ele><time>2026-03-28T09:31:34.836Z</time></trkpt><trkpt lat="45.3487233" lon="10.6418433"><ele>107.0</ele><time>2026-03-28T09:31:36.836Z</time></trkpt><trkpt lat="45.34868" lon="10.6417567"><ele>106.99999999999999</ele><time>2026-03-28T09:31:38.836Z</time></trkpt><trkpt lat="45.3485733" lon="10.6417367"><ele>107.0</ele><time>2026-03-28T09:31:40.836Z</time></trkpt><trkpt lat="45.3485" lon="10.64175"><ele>107.0</ele><time>2026-03-28T09:31:41.836Z</time></trkpt><trkpt lat="45.3484233" lon="10.641775"><ele>107.0</ele><time>2026-03-28T09:31:42.836Z</time></trkpt><trkpt lat="45.3483467" lon="10.6417967"><ele>106.99999999999999</ele><time>2026-03-28T09:31:43.836Z</time></trkpt><trkpt lat="45.3482783" lon="10.64181"><ele>107.0</ele><time>2026-03-28T09:31:44.836Z</time></trkpt><trkpt lat="45.3481767" lon="10.641825"><ele>106.99999999999999</ele><time>2026-03-28T09:31:46.837Z</time></trkpt><trkpt lat="45.3480633" lon="10.6418517"><ele>107.0</ele><time>2026-03-28T09:31:48.837Z</time></trkpt><trkpt lat="45.3479967" lon="10.64186"><ele>107.0</ele><time>2026-03-28T09:31:49.836Z</time></trkpt><trkpt lat="45.3479233" lon="10.6418717"><ele>107.0</ele><time>2026-03-28T09:31:50.837Z</time></trkpt><trkpt lat="45.34785" lon="10.6418917"><ele>106.99999999999999</ele><time>2026-03-28T09:31:51.837Z</time></trkpt><trkpt lat="45.3477733" lon="10.6419067"><ele>107.0</ele><time>2026-03-28T09:31:52.836Z</time></trkpt><trkpt lat="45.3476917" lon="10.641925"><ele>106.99999999999999</ele><time>2026-03-28T09:31:53.836Z</time></trkpt><trkpt lat="45.3476217" lon="10.6419417"><ele>107.0</ele><time>2026-03-28T09:31:54.837Z</time></trkpt><trkpt lat="45.3475517" lon="10.641955"><ele>107.0</ele><time>2026-03-28T09:31:55.837Z</time></trkpt><trkpt lat="45.347485" lon="10.6419667"><ele>107.0</ele><time>2026-03-28T09:31:56.837Z</time></trkpt><trkpt lat="45.34742" lon="10.6419817"><ele>106.99999999999999</ele><time>2026-03-28T09:31:57.837Z</time></trkpt><trkpt lat="45.3473533" lon="10.6419983"><ele>107.0</ele><time>2026-03-28T09:31:58.837Z</time></trkpt><trkpt lat="45.3472317" lon="10.6420283"><ele>106.39999999999999</ele><time>2026-03-28T09:32:00.837Z</time></trkpt><trkpt lat="45.3471117" lon="10.64205"><ele>105.79999999999998</ele><time>2026-03-28T09:32:02.836Z</time></trkpt><trkpt lat="45.34702" lon="10.642065"><ele>105.2</ele><time>2026-03-28T09:32:04.837Z</time></trkpt><trkpt lat="45.3469233" lon="10.6420783"><ele>104.6</ele><time>2026-03-28T09:32:06.837Z</time></trkpt><trkpt lat="45.3468233" lon="10.6420933"><ele>104.0</ele><time>2026-03-28T09:32:08.836Z</time></trkpt><trkpt lat="45.3467417" lon="10.6421033"><ele>104.0</ele><time>2026-03-28T09:32:10.837Z</time></trkpt><trkpt lat="45.3466783" lon="10.642085"><ele>104.0</ele><time>2026-03-28T09:32:13.837Z</time></trkpt><trkpt lat="45.3466383" lon="10.6419283"><ele>104.0</ele><time>2026-03-28T09:32:18.836Z</time></trkpt><trkpt lat="45.3466167" lon="10.6418233"><ele>104.0</ele><time>2026-03-28T09:32:19.836Z</time></trkpt><trkpt lat="45.3465767" lon="10.641685"><ele>104.0</ele><time>2026-03-28T09:32:20.836Z</time></trkpt><trkpt lat="45.346525" lon="10.641525"><ele>105.2</ele><time>2026-03-28T09:32:21.837Z</time></trkpt><trkpt lat="45.346465" lon="10.6413617"><ele>106.4</ele><time>2026-03-28T09:32:22.837Z</time></trkpt><trkpt lat="45.3464133" lon="10.64122"><ele>107.6</ele><time>2026-03-28T09:32:23.836Z</time></trkpt><trkpt lat="45.346375" lon="10.6410983"><ele>108.8</ele><time>2026-03-28T09:32:24.837Z</time></trkpt><trkpt lat="45.346345" lon="10.6409983"><ele>110.0</ele><time>2026-03-28T09:32:25.837Z</time></trkpt><trkpt lat="45.3463467" lon="10.6408883"><ele>110.2</ele><time>2026-03-28T09:32:26.836Z</time></trkpt><trkpt lat="45.3463583" lon="10.6407633"><ele>110.4</ele><time>2026-03-28T09:32:27.837Z</time></trkpt><trkpt lat="45.3463883" lon="10.64062"><ele>110.6</ele><time>2026-03-28T09:32:28.836Z</time></trkpt><trkpt lat="45.34641" lon="10.6404683"><ele>110.8</ele><time>2026-03-28T09:32:29.836Z</time></trkpt><trkpt lat="45.3464233" lon="10.6403283"><ele>111.0</ele><time>2026-03-28T09:32:30.837Z</time></trkpt><trkpt lat="45.3464117" lon="10.640205"><ele>111.19999999999999</ele><time>2026-03-28T09:32:31.837Z</time></trkpt><trkpt lat="45.3463967" lon="10.6400867"><ele>111.39999999999999</ele><time>2026-03-28T09:32:32.837Z</time></trkpt><trkpt lat="45.3463667" lon="10.6399633"><ele>111.6</ele><time>2026-03-28T09:32:33.837Z</time></trkpt><trkpt lat="45.346335" lon="10.6398217"><ele>111.8</ele><time>2026-03-28T09:32:34.837Z</time></trkpt><trkpt lat="45.3463067" lon="10.6396683"><ele>112.0</ele><time>2026-03-28T09:32:35.837Z</time></trkpt><trkpt lat="45.346285" lon="10.639505"><ele>115.25</ele><time>2026-03-28T09:32:36.837Z</time></trkpt><trkpt lat="45.3462683" lon="10.6393167"><ele>118.5</ele><time>2026-03-28T09:32:37.836Z</time></trkpt><trkpt lat="45.346255" lon="10.6391383"><ele>121.75</ele><time>2026-03-28T09:32:38.837Z</time></trkpt><trkpt lat="45.3462433" lon="10.6389867"><ele>125.0</ele><time>2026-03-28T09:32:39.836Z</time></trkpt><trkpt lat="45.3462267" lon="10.6388417"><ele>125.0</ele><time>2026-03-28T09:32:40.837Z</time></trkpt><trkpt lat="45.3461933" lon="10.63872"><ele>125.0</ele><time>2026-03-28T09:32:41.837Z</time></trkpt><trkpt lat="45.3461533" lon="10.6386133"><ele>125.0</ele><time>2026-03-28T09:32:42.836Z</time></trkpt><trkpt lat="45.3460933" lon="10.6384867"><ele>125.0</ele><time>2026-03-28T09:32:43.836Z</time></trkpt><trkpt lat="45.34605" lon="10.6383617"><ele>125.0</ele><time>2026-03-28T09:32:44.836Z</time></trkpt><trkpt lat="45.3460033" lon="10.6382267"><ele>124.8</ele><time>2026-03-28T09:32:45.837Z</time></trkpt><trkpt lat="45.3459483" lon="10.63809"><ele>124.6</ele><time>2026-03-28T09:32:46.836Z</time></trkpt><trkpt lat="45.34591" lon="10.63797"><ele>124.4</ele><time>2026-03-28T09:32:47.836Z</time></trkpt><trkpt lat="45.345885" lon="10.6378767"><ele>124.2</ele><time>2026-03-28T09:32:48.836Z</time></trkpt><trkpt lat="45.3458567" lon="10.637795"><ele>124.0</ele><time>2026-03-28T09:32:49.836Z</time></trkpt><trkpt lat="45.345785" lon="10.637655"><ele>124.0</ele><time>2026-03-28T09:32:51.837Z</time></trkpt><trkpt lat="45.34573" lon="10.63758"><ele>124.0</ele><time>2026-03-28T09:32:52.837Z</time></trkpt><trkpt lat="45.3456467" lon="10.637495"><ele>124.0</ele><time>2026-03-28T09:32:53.836Z</time></trkpt><trkpt lat="45.3455433" lon="10.6374117"><ele>124.0</ele><time>2026-03-28T09:32:54.836Z</time></trkpt><trkpt lat="45.3454267" lon="10.6373267"><ele>124.0</ele><time>2026-03-28T09:32:55.836Z</time></trkpt><trkpt lat="45.3453133" lon="10.6372517"><ele>123.75</ele><time>2026-03-28T09:32:56.836Z</time></trkpt><trkpt lat="45.3451983" lon="10.637185"><ele>123.5</ele><time>2026-03-28T09:32:57.837Z</time></trkpt><trkpt lat="45.3450883" lon="10.637105"><ele>123.25</ele><time>2026-03-28T09:32:58.836Z</time></trkpt><trkpt lat="45.344985" lon="10.6370017"><ele>123.0</ele><time>2026-03-28T09:32:59.837Z</time></trkpt><trkpt lat="45.34489" lon="10.63687"><ele>123.0</ele><time>2026-03-28T09:33:00.837Z</time></trkpt><trkpt lat="45.3448067" lon="10.6367383"><ele>123.0</ele><time>2026-03-28T09:33:01.837Z</time></trkpt><trkpt lat="45.3447317" lon="10.6366033"><ele>123.0</ele><time>2026-03-28T09:33:02.837Z</time></trkpt><trkpt lat="45.344685" lon="10.63646"><ele>123.0</ele><time>2026-03-28T09:33:03.836Z</time></trkpt><trkpt lat="45.344645" lon="10.6363033"><ele>123.80000000000001</ele><time>2026-03-28T09:33:04.836Z</time></trkpt><trkpt lat="45.3446067" lon="10.636145"><ele>124.60000000000001</ele><time>2026-03-28T09:33:05.837Z</time></trkpt><trkpt lat="45.3445667" lon="10.636"><ele>125.39999999999999</ele><time>2026-03-28T09:33:06.836Z</time></trkpt><trkpt lat="45.3445083" lon="10.6358783"><ele>126.19999999999999</ele><time>2026-03-28T09:33:07.836Z</time></trkpt><trkpt lat="45.3444433" lon="10.6357483"><ele>127.0</ele><time>2026-03-28T09:33:08.837Z</time></trkpt><trkpt lat="45.34436" lon="10.6356267"><ele>127.0</ele><time>2026-03-28T09:33:09.837Z</time></trkpt><trkpt lat="45.34426" lon="10.6355017"><ele>127.0</ele><time>2026-03-28T09:33:10.837Z</time></trkpt><trkpt lat="45.3441583" lon="10.6353717"><ele>127.0</ele><time>2026-03-28T09:33:11.837Z</time></trkpt><trkpt lat="45.34406" lon="10.63525"><ele>127.0</ele><time>2026-03-28T09:33:12.837Z</time></trkpt><trkpt lat="45.3439667" lon="10.635135"><ele>125.0</ele><time>2026-03-28T09:33:13.836Z</time></trkpt><trkpt lat="45.34388" lon="10.63502"><ele>123.0</ele><time>2026-03-28T09:33:14.837Z</time></trkpt><trkpt lat="45.3438017" lon="10.6348933"><ele>121.0</ele><time>2026-03-28T09:33:15.837Z</time></trkpt><trkpt lat="45.34375" lon="10.6347383"><ele>119.0</ele><time>2026-03-28T09:33:16.836Z</time></trkpt><trkpt lat="45.3437217" lon="10.6345833"><ele>119.0</ele><time>2026-03-28T09:33:17.836Z</time></trkpt><trkpt lat="45.3437083" lon="10.63443"><ele>119.0</ele><time>2026-03-28T09:33:18.836Z</time></trkpt><trkpt lat="45.3436983" lon="10.6342883"><ele>119.0</ele><time>2026-03-28T09:33:19.837Z</time></trkpt><trkpt lat="45.3436817" lon="10.6341367"><ele>119.0</ele><time>2026-03-28T09:33:20.836Z</time></trkpt><trkpt lat="45.3436633" lon="10.6339867"><ele>119.0</ele><time>2026-03-28T09:33:21.836Z</time></trkpt><trkpt lat="45.34365" lon="10.633835"><ele>119.0</ele><time>2026-03-28T09:33:22.836Z</time></trkpt><trkpt lat="45.343655" lon="10.6337033"><ele>119.0</ele><time>2026-03-28T09:33:23.836Z</time></trkpt><trkpt lat="45.3436833" lon="10.63358"><ele>119.0</ele><time>2026-03-28T09:33:24.836Z</time></trkpt><trkpt lat="45.3437383" lon="10.633455"><ele>119.0</ele><time>2026-03-28T09:33:25.836Z</time></trkpt><trkpt lat="45.3438033" lon="10.6333367"><ele>119.0</ele><time>2026-03-28T09:33:26.836Z</time></trkpt><trkpt lat="45.34387" lon="10.6332133"><ele>121.25</ele><time>2026-03-28T09:33:27.836Z</time></trkpt><trkpt lat="45.34393" lon="10.6330767"><ele>123.5</ele><time>2026-03-28T09:33:28.837Z</time></trkpt><trkpt lat="45.3439583" lon="10.632915"><ele>125.75</ele><time>2026-03-28T09:33:29.836Z</time></trkpt><trkpt lat="45.3439717" lon="10.63275"><ele>128.0</ele><time>2026-03-28T09:33:30.837Z</time></trkpt><trkpt lat="45.3439733" lon="10.632565"><ele>128.25</ele><time>2026-03-28T09:33:31.836Z</time></trkpt><trkpt lat="45.343975" lon="10.6323683"><ele>128.5</ele><time>2026-03-28T09:33:32.837Z</time></trkpt><trkpt lat="45.3439833" lon="10.63216"><ele>128.75</ele><time>2026-03-28T09:33:33.836Z</time></trkpt><trkpt lat="45.34401" lon="10.6319567"><ele>129.0</ele><time>2026-03-28T09:33:34.836Z</time></trkpt><trkpt lat="45.34404" lon="10.631745"><ele>130.0</ele><time>2026-03-28T09:33:35.837Z</time></trkpt><trkpt lat="45.3440583" lon="10.63153"><ele>131.0</ele><time>2026-03-28T09:33:36.836Z</time></trkpt><trkpt lat="45.3440733" lon="10.6313517"><ele>132.0</ele><time>2026-03-28T09:33:37.836Z</time></trkpt><trkpt lat="45.3440867" lon="10.631195"><ele>133.0</ele><time>2026-03-28T09:33:38.836Z</time></trkpt><trkpt lat="45.344095" lon="10.6310683"><ele>133.6</ele><time>2026-03-28T09:33:39.836Z</time></trkpt><trkpt lat="45.3441233" lon="10.6309417"><ele>134.20000000000002</ele><time>2026-03-28T09:33:40.836Z</time></trkpt><trkpt lat="45.3441583" lon="10.630805"><ele>134.8</ele><time>2026-03-28T09:33:41.836Z</time></trkpt><trkpt lat="45.3441967" lon="10.6306583"><ele>135.4</ele><time>2026-03-28T09:33:42.837Z</time></trkpt><trkpt lat="45.3442633" lon="10.6304983"><ele>136.0</ele><time>2026-03-28T09:33:43.837Z</time></trkpt><trkpt lat="45.34433" lon="10.6303617"><ele>135.66666666666669</ele><time>2026-03-28T09:33:44.837Z</time></trkpt><trkpt lat="45.34439" lon="10.6302433"><ele>135.33333333333334</ele><time>2026-03-28T09:33:45.836Z</time></trkpt><trkpt lat="45.3444417" lon="10.630135"><ele>135.0</ele><time>2026-03-28T09:33:46.836Z</time></trkpt><trkpt lat="45.3444817" lon="10.6300517"><ele>134.66666666666666</ele><time>2026-03-28T09:33:47.836Z</time></trkpt><trkpt lat="45.3444967" lon="10.6299617"><ele>134.33333333333331</ele><time>2026-03-28T09:33:48.836Z</time></trkpt><trkpt lat="45.344465" lon="10.6298517"><ele>134.0</ele><time>2026-03-28T09:33:50.836Z</time></trkpt><trkpt lat="45.3443967" lon="10.629785"><ele>134.0</ele><time>2026-03-28T09:33:52.836Z</time></trkpt><trkpt lat="45.3442967" lon="10.6297533"><ele>134.0</ele><time>2026-03-28T09:33:54.837Z</time></trkpt><trkpt lat="45.344225" lon="10.6297367"><ele>134.0</ele><time>2026-03-28T09:33:55.837Z</time></trkpt><trkpt lat="45.344145" lon="10.629745"><ele>134.0</ele><time>2026-03-28T09:33:56.836Z</time></trkpt><trkpt lat="45.34408" lon="10.62977"><ele>134.0</ele><time>2026-03-28T09:33:57.836Z</time></trkpt><trkpt lat="45.3439817" lon="10.6298783"><ele>134.0</ele><time>2026-03-28T09:33:59.836Z</time></trkpt><trkpt lat="45.34392" lon="10.6299733"><ele>133.66666666666666</ele><time>2026-03-28T09:34:00.836Z</time></trkpt><trkpt lat="45.34383" lon="10.6300867"><ele>133.33333333333334</ele><time>2026-03-28T09:34:01.837Z</time></trkpt><trkpt lat="45.3436967" lon="10.6302083"><ele>133.0</ele><time>2026-03-28T09:34:02.836Z</time></trkpt><trkpt lat="45.3435417" lon="10.6303533"><ele>133.0</ele><time>2026-03-28T09:34:03.837Z</time></trkpt><trkpt lat="45.3433767" lon="10.6304933"><ele>133.0</ele><time>2026-03-28T09:34:04.836Z</time></trkpt><trkpt lat="45.3432033" lon="10.6306433"><ele>133.0</ele><time>2026-03-28T09:34:05.836Z</time></trkpt><trkpt lat="45.343015" lon="10.630815"><ele>132.5</ele><time>2026-03-28T09:34:06.837Z</time></trkpt><trkpt lat="45.34282" lon="10.6309783"><ele>132.0</ele><time>2026-03-28T09:34:07.837Z</time></trkpt><trkpt lat="45.3426283" lon="10.631145"><ele>132.0</ele><time>2026-03-28T09:34:08.837Z</time></trkpt><trkpt lat="45.3424633" lon="10.6312883"><ele>132.0</ele><time>2026-03-28T09:34:09.836Z</time></trkpt><trkpt lat="45.3423317" lon="10.6314083"><ele>132.0</ele><time>2026-03-28T09:34:10.836Z</time></trkpt><trkpt lat="45.342215" lon="10.6315217"><ele>130.5</ele><time>2026-03-28T09:34:11.836Z</time></trkpt><trkpt lat="45.3421367" lon="10.6316667"><ele>129.0</ele><time>2026-03-28T09:34:12.837Z</time></trkpt><trkpt lat="45.3420567" lon="10.6318433"><ele>127.5</ele><time>2026-03-28T09:34:13.836Z</time></trkpt><trkpt lat="45.3419767" lon="10.6320617"><ele>126.0</ele><time>2026-03-28T09:34:14.836Z</time></trkpt><trkpt lat="45.34189" lon="10.632285"><ele>126.0</ele><time>2026-03-28T09:34:15.836Z</time></trkpt><trkpt lat="45.3417933" lon="10.6324983"><ele>126.0</ele><time>2026-03-28T09:34:16.837Z</time></trkpt><trkpt lat="45.3416867" lon="10.6326817"><ele>126.0</ele><time>2026-03-28T09:34:17.836Z</time></trkpt><trkpt lat="45.34158" lon="10.6328433"><ele>125.5</ele><time>2026-03-28T09:34:18.836Z</time></trkpt><trkpt lat="45.3414717" lon="10.6329867"><ele>125.0</ele><time>2026-03-28T09:34:19.837Z</time></trkpt><trkpt lat="45.3413767" lon="10.633115"><ele>124.5</ele><time>2026-03-28T09:34:20.837Z</time></trkpt><trkpt lat="45.341285" lon="10.6332117"><ele>124.0</ele><time>2026-03-28T09:34:21.836Z</time></trkpt><trkpt lat="45.34119" lon="10.6332883"><ele>124.0</ele><time>2026-03-28T09:34:22.836Z</time></trkpt><trkpt lat="45.3410833" lon="10.6333567"><ele>124.0</ele><time>2026-03-28T09:34:23.836Z</time></trkpt><trkpt lat="45.3409833" lon="10.6334067"><ele>124.0</ele><time>2026-03-28T09:34:24.836Z</time></trkpt><trkpt lat="45.3408917" lon="10.63345"><ele>124.0</ele><time>2026-03-28T09:34:25.836Z</time></trkpt><trkpt lat="45.340795" lon="10.6334917"><ele>124.0</ele><time>2026-03-28T09:34:26.837Z</time></trkpt><trkpt lat="45.3407" lon="10.6335267"><ele>124.0</ele><time>2026-03-28T09:34:27.836Z</time></trkpt><trkpt lat="45.3406033" lon="10.633575"><ele>124.0</ele><time>2026-03-28T09:34:28.836Z</time></trkpt><trkpt lat="45.340505" lon="10.63364"><ele>124.0</ele><time>2026-03-28T09:34:29.836Z</time></trkpt><trkpt lat="45.340395" lon="10.6336983"><ele>124.0</ele><time>2026-03-28T09:34:30.836Z</time></trkpt><trkpt lat="45.3402783" lon="10.6337467"><ele>123.75</ele><time>2026-03-28T09:34:31.836Z</time></trkpt><trkpt lat="45.3401483" lon="10.6338017"><ele>123.5</ele><time>2026-03-28T09:34:32.837Z</time></trkpt><trkpt lat="45.3400083" lon="10.63386"><ele>123.25</ele><time>2026-03-28T09:34:33.836Z</time></trkpt><trkpt lat="45.33987" lon="10.63391"><ele>123.0</ele><time>2026-03-28T09:34:34.837Z</time></trkpt><trkpt lat="45.33974" lon="10.6339667"><ele>122.2</ele><time>2026-03-28T09:34:35.837Z</time></trkpt><trkpt lat="45.3396167" lon="10.6340133"><ele>121.4</ele><time>2026-03-28T09:34:36.836Z</time></trkpt><trkpt lat="45.3395033" lon="10.63406"><ele>120.60000000000001</ele><time>2026-03-28T09:34:37.836Z</time></trkpt><trkpt lat="45.3394017" lon="10.6341"><ele>119.80000000000001</ele><time>2026-03-28T09:34:38.836Z</time></trkpt><trkpt lat="45.3393133" lon="10.6341383"><ele>119.0</ele><time>2026-03-28T09:34:39.836Z</time></trkpt><trkpt lat="45.3392467" lon="10.6341717"><ele>119.0</ele><time>2026-03-28T09:34:40.836Z</time></trkpt><trkpt lat="45.3391817" lon="10.6341783"><ele>119.0</ele><time>2026-03-28T09:34:41.836Z</time></trkpt><trkpt lat="45.3391" lon="10.6341583"><ele>119.0</ele><time>2026-03-28T09:34:43.836Z</time></trkpt><trkpt lat="45.3390483" lon="10.6340667"><ele>119.0</ele><time>2026-03-28T09:34:45.837Z</time></trkpt><trkpt lat="45.338965" lon="10.6339717"><ele>119.0</ele><time>2026-03-28T09:34:47.836Z</time></trkpt><trkpt lat="45.338855" lon="10.63401"><ele>118.0</ele><time>2026-03-28T09:34:49.837Z</time></trkpt><trkpt lat="45.33878" lon="10.6340867"><ele>117.0</ele><time>2026-03-28T09:34:50.836Z</time></trkpt><trkpt lat="45.338695" lon="10.634165"><ele>116.0</ele><time>2026-03-28T09:34:51.836Z</time></trkpt><trkpt lat="45.3386033" lon="10.6342467"><ele>115.0</ele><time>2026-03-28T09:34:52.837Z</time></trkpt><trkpt lat="45.3385017" lon="10.6343267"><ele>114.0</ele><time>2026-03-28T09:34:53.837Z</time></trkpt><trkpt lat="45.3384" lon="10.6344117"><ele>113.5</ele><time>2026-03-28T09:34:54.837Z</time></trkpt><trkpt lat="45.3383033" lon="10.6344867"><ele>113.0</ele><time>2026-03-28T09:34:55.837Z</time></trkpt><trkpt lat="45.3382017" lon="10.63458"><ele>112.5</ele><time>2026-03-28T09:34:56.837Z</time></trkpt><trkpt lat="45.3381" lon="10.6346767"><ele>112.0</ele><time>2026-03-28T09:34:57.836Z</time></trkpt><trkpt lat="45.3379983" lon="10.634775"><ele>112.0</ele><time>2026-03-28T09:34:58.836Z</time></trkpt><trkpt lat="45.3378917" lon="10.6348817"><ele>111.99999999999999</ele><time>2026-03-28T09:34:59.836Z</time></trkpt><trkpt lat="45.3378" lon="10.634975"><ele>111.99999999999999</ele><time>2026-03-28T09:35:00.837Z</time></trkpt><trkpt lat="45.337715" lon="10.6350633"><ele>112.0</ele><time>2026-03-28T09:35:01.837Z</time></trkpt><trkpt lat="45.33764" lon="10.6351433"><ele>112.0</ele><time>2026-03-28T09:35:02.837Z</time></trkpt><trkpt lat="45.3375717" lon="10.6352183"><ele>112.0</ele><time>2026-03-28T09:35:03.836Z</time></trkpt><trkpt lat="45.3374683" lon="10.6353283"><ele>111.99999999999999</ele><time>2026-03-28T09:35:05.836Z</time></trkpt><trkpt lat="45.3373633" lon="10.6353283"><ele>111.99999999999999</ele><time>2026-03-28T09:35:07.837Z</time></trkpt><trkpt lat="45.33731" lon="10.6352633"><ele>112.0</ele><time>2026-03-28T09:35:08.837Z</time></trkpt><trkpt lat="45.3372517" lon="10.63518"><ele>112.0</ele><time>2026-03-28T09:35:09.837Z</time></trkpt><trkpt lat="45.3371667" lon="10.6350783"><ele>110.25</ele><time>2026-03-28T09:35:10.836Z</time></trkpt><trkpt lat="45.3370667" lon="10.6349767"><ele>108.5</ele><time>2026-03-28T09:35:11.837Z</time></trkpt><trkpt lat="45.3369583" lon="10.6348783"><ele>106.75</ele><time>2026-03-28T09:35:12.837Z</time></trkpt><trkpt lat="45.3368533" lon="10.634795"><ele>105.0</ele><time>2026-03-28T09:35:13.836Z</time></trkpt><trkpt lat="45.336755" lon="10.6347033"><ele>105.0</ele><time>2026-03-28T09:35:14.836Z</time></trkpt><trkpt lat="45.33668" lon="10.634595"><ele>105.0</ele><time>2026-03-28T09:35:15.837Z</time></trkpt><trkpt lat="45.336625" lon="10.6344933"><ele>105.0</ele><time>2026-03-28T09:35:16.837Z</time></trkpt><trkpt lat="45.3365733" lon="10.634415"><ele>105.0</ele><time>2026-03-28T09:35:17.837Z</time></trkpt><trkpt lat="45.3364667" lon="10.6343517"><ele>105.0</ele><time>2026-03-28T09:35:19.837Z</time></trkpt><trkpt lat="45.3363917" lon="10.6343567"><ele>104.5</ele><time>2026-03-28T09:35:20.837Z</time></trkpt><trkpt lat="45.3362983" lon="10.63439"><ele>104.0</ele><time>2026-03-28T09:35:21.837Z</time></trkpt><trkpt lat="45.3361867" lon="10.6344333"><ele>103.5</ele><time>2026-03-28T09:35:22.836Z</time></trkpt><trkpt lat="45.3360733" lon="10.6345033"><ele>103.0</ele><time>2026-03-28T09:35:23.836Z</time></trkpt><trkpt lat="45.3359683" lon="10.634585"><ele>102.75</ele><time>2026-03-28T09:35:24.837Z</time></trkpt><trkpt lat="45.3358917" lon="10.63467"><ele>102.5</ele><time>2026-03-28T09:35:25.837Z</time></trkpt><trkpt lat="45.3358283" lon="10.6348083"><ele>102.25</ele><time>2026-03-28T09:35:26.837Z</time></trkpt><trkpt lat="45.33576" lon="10.634955"><ele>102.0</ele><time>2026-03-28T09:35:27.837Z</time></trkpt><trkpt lat="45.33569" lon="10.6351083"><ele>102.0</ele><time>2026-03-28T09:35:28.836Z</time></trkpt><trkpt lat="45.3356117" lon="10.63528"><ele>102.0</ele><time>2026-03-28T09:35:29.837Z</time></trkpt><trkpt lat="45.335535" lon="10.635465"><ele>102.0</ele><time>2026-03-28T09:35:30.837Z</time></trkpt><trkpt lat="45.3354517" lon="10.6356533"><ele>100.75</ele><time>2026-03-28T09:35:31.837Z</time></trkpt><trkpt lat="45.33538" lon="10.635815"><ele>99.5</ele><time>2026-03-28T09:35:32.836Z</time></trkpt><trkpt lat="45.3353083" lon="10.63595"><ele>98.25</ele><time>2026-03-28T09:35:33.836Z</time></trkpt><trkpt lat="45.3352317" lon="10.6360517"><ele>97.0</ele><time>2026-03-28T09:35:34.837Z</time></trkpt><trkpt lat="45.3351333" lon="10.6361433"><ele>97.0</ele><time>2026-03-28T09:35:35.836Z</time></trkpt><trkpt lat="45.335025" lon="10.6362417"><ele>97.0</ele><time>2026-03-28T09:35:36.836Z</time></trkpt><trkpt lat="45.3348967" lon="10.6363633"><ele>97.0</ele><time>2026-03-28T09:35:37.836Z</time></trkpt><trkpt lat="45.3347767" lon="10.6364933"><ele>97.0</ele><time>2026-03-28T09:35:38.837Z</time></trkpt><trkpt lat="45.3346767" lon="10.6366083"><ele>97.0</ele><time>2026-03-28T09:35:39.837Z</time></trkpt><trkpt lat="45.3345917" lon="10.6367283"><ele>97.0</ele><time>2026-03-28T09:35:40.836Z</time></trkpt><trkpt lat="45.334515" lon="10.6368533"><ele>97.0</ele><time>2026-03-28T09:35:41.836Z</time></trkpt><trkpt lat="45.33444" lon="10.6369983"><ele>97.0</ele><time>2026-03-28T09:35:42.837Z</time></trkpt><trkpt lat="45.3343633" lon="10.6371483"><ele>96.0</ele><time>2026-03-28T09:35:43.837Z</time></trkpt><trkpt lat="45.3342917" lon="10.63727"><ele>95.0</ele><time>2026-03-28T09:35:44.836Z</time></trkpt><trkpt lat="45.3342283" lon="10.63737"><ele>94.0</ele><time>2026-03-28T09:35:45.837Z</time></trkpt><trkpt lat="45.3341583" lon="10.637445"><ele>93.0</ele><time>2026-03-28T09:35:46.837Z</time></trkpt><trkpt lat="45.33408" lon="10.6375117"><ele>92.0</ele><time>2026-03-28T09:35:47.836Z</time></trkpt><trkpt lat="45.3339833" lon="10.637565"><ele>91.25</ele><time>2026-03-28T09:35:48.837Z</time></trkpt><trkpt lat="45.3338733" lon="10.6376183"><ele>90.5</ele><time>2026-03-28T09:35:49.836Z</time></trkpt><trkpt lat="45.3337417" lon="10.6376733"><ele>89.75</ele><time>2026-03-28T09:35:50.836Z</time></trkpt><trkpt lat="45.3335883" lon="10.6377383"><ele>89.0</ele><time>2026-03-28T09:35:51.836Z</time></trkpt><trkpt lat="45.33345" lon="10.637805"><ele>89.0</ele><time>2026-03-28T09:35:52.837Z</time></trkpt><trkpt lat="45.3333167" lon="10.6378717"><ele>89.0</ele><time>2026-03-28T09:35:53.837Z</time></trkpt><trkpt lat="45.3332117" lon="10.6379467"><ele>89.0</ele><time>2026-03-28T09:35:54.836Z</time></trkpt><trkpt lat="45.333105" lon="10.63805"><ele>89.0</ele><time>2026-03-28T09:35:55.837Z</time></trkpt><trkpt lat="45.3329967" lon="10.6381533"><ele>91.0</ele><time>2026-03-28T09:35:56.837Z</time></trkpt><trkpt lat="45.3328983" lon="10.6382733"><ele>93.0</ele><time>2026-03-28T09:35:57.836Z</time></trkpt><trkpt lat="45.33281" lon="10.6383817"><ele>95.0</ele><time>2026-03-28T09:35:58.837Z</time></trkpt><trkpt lat="45.332715" lon="10.63847"><ele>97.0</ele><time>2026-03-28T09:35:59.837Z</time></trkpt><trkpt lat="45.3326217" lon="10.6385633"><ele>94.25</ele><time>2026-03-28T09:36:00.836Z</time></trkpt><trkpt lat="45.3325167" lon="10.6386717"><ele>91.5</ele><time>2026-03-28T09:36:01.836Z</time></trkpt><trkpt lat="45.3324067" lon="10.63877"><ele>88.75</ele><time>2026-03-28T09:36:02.836Z</time></trkpt><trkpt lat="45.3322933" lon="10.6388483"><ele>86.0</ele><time>2026-03-28T09:36:03.837Z</time></trkpt><trkpt lat="45.33219" lon="10.63893"><ele>85.5</ele><time>2026-03-28T09:36:04.836Z</time></trkpt><trkpt lat="45.3320883" lon="10.639035"><ele>85.0</ele><time>2026-03-28T09:36:05.837Z</time></trkpt><trkpt lat="45.3319983" lon="10.6391533"><ele>84.5</ele><time>2026-03-28T09:36:06.836Z</time></trkpt><trkpt lat="45.3319117" lon="10.63927"><ele>84.0</ele><time>2026-03-28T09:36:07.837Z</time></trkpt><trkpt lat="45.3318217" lon="10.6393767"><ele>84.0</ele><time>2026-03-28T09:36:08.836Z</time></trkpt><trkpt lat="45.3317433" lon="10.6394583"><ele>84.0</ele><time>2026-03-28T09:36:09.836Z</time></trkpt><trkpt lat="45.3316767" lon="10.6395317"><ele>84.0</ele><time>2026-03-28T09:36:10.837Z</time></trkpt><trkpt lat="45.3316267" lon="10.639605"><ele>84.0</ele><time>2026-03-28T09:36:11.836Z</time></trkpt><trkpt lat="45.3315967" lon="10.6396917"><ele>84.0</ele><time>2026-03-28T09:36:12.836Z</time></trkpt><trkpt lat="45.33158" lon="10.6397783"><ele>84.0</ele><time>2026-03-28T09:36:13.836Z</time></trkpt><trkpt lat="45.3315517" lon="10.6398867"><ele>84.0</ele><time>2026-03-28T09:36:15.837Z</time></trkpt><trkpt lat="45.331475" lon="10.6399"><ele>84.0</ele><time>2026-03-28T09:36:17.836Z</time></trkpt><trkpt lat="45.3313983" lon="10.63988"><ele>84.0</ele><time>2026-03-28T09:36:18.837Z</time></trkpt><trkpt lat="45.3312917" lon="10.6398617"><ele>84.0</ele><time>2026-03-28T09:36:19.837Z</time></trkpt><trkpt lat="45.3311533" lon="10.63985"><ele>84.0</ele><time>2026-03-28T09:36:20.836Z</time></trkpt><trkpt lat="45.33101" lon="10.63985"><ele>85.0</ele><time>2026-03-28T09:36:21.837Z</time></trkpt><trkpt lat="45.3308467" lon="10.639855"><ele>86.0</ele><time>2026-03-28T09:36:22.836Z</time></trkpt><trkpt lat="45.3306933" lon="10.6398483"><ele>87.0</ele><time>2026-03-28T09:36:23.837Z</time></trkpt><trkpt lat="45.3305467" lon="10.6398367"><ele>87.0</ele><time>2026-03-28T09:36:24.836Z</time></trkpt><trkpt lat="45.3304083" lon="10.6397933"><ele>87.0</ele><time>2026-03-28T09:36:25.836Z</time></trkpt><trkpt lat="45.33029" lon="10.6397483"><ele>87.0</ele><time>2026-03-28T09:36:26.836Z</time></trkpt><trkpt lat="45.33018" lon="10.639705"><ele>87.0</ele><time>2026-03-28T09:36:27.836Z</time></trkpt><trkpt lat="45.330075" lon="10.6396717"><ele>87.0</ele><time>2026-03-28T09:36:28.836Z</time></trkpt><trkpt lat="45.3299783" lon="10.639625"><ele>87.0</ele><time>2026-03-28T09:36:29.836Z</time></trkpt><trkpt lat="45.3298867" lon="10.6395983"><ele>87.0</ele><time>2026-03-28T09:36:30.837Z</time></trkpt><trkpt lat="45.3297967" lon="10.639595"><ele>87.0</ele><time>2026-03-28T09:36:31.836Z</time></trkpt><trkpt lat="45.3297217" lon="10.6396183"><ele>87.0</ele><time>2026-03-28T09:36:32.836Z</time></trkpt><trkpt lat="45.3296517" lon="10.6396783"><ele>87.0</ele><time>2026-03-28T09:36:33.836Z</time></trkpt><trkpt lat="45.3295967" lon="10.639745"><ele>86.25</ele><time>2026-03-28T09:36:34.837Z</time></trkpt><trkpt lat="45.32951" lon="10.6398667"><ele>85.5</ele><time>2026-03-28T09:36:36.837Z</time></trkpt><trkpt lat="45.3294517" lon="10.63999"><ele>84.75</ele><time>2026-03-28T09:36:38.837Z</time></trkpt><trkpt lat="45.3294417" lon="10.6401767"><ele>84.0</ele><time>2026-03-28T09:36:40.836Z</time></trkpt><trkpt lat="45.32946" lon="10.640325"><ele>84.0</ele><time>2026-03-28T09:36:41.837Z</time></trkpt><trkpt lat="45.32949" lon="10.6405133"><ele>84.0</ele><time>2026-03-28T09:36:42.837Z</time></trkpt><trkpt lat="45.3295267" lon="10.640725"><ele>84.0</ele><time>2026-03-28T09:36:43.836Z</time></trkpt><trkpt lat="45.3295667" lon="10.6409383"><ele>84.0</ele><time>2026-03-28T09:36:44.837Z</time></trkpt><trkpt lat="45.3295967" lon="10.641125"><ele>83.75</ele><time>2026-03-28T09:36:45.836Z</time></trkpt><trkpt lat="45.3295917" lon="10.641295"><ele>83.5</ele><time>2026-03-28T09:36:46.836Z</time></trkpt><trkpt lat="45.32955" lon="10.641455"><ele>83.25</ele><time>2026-03-28T09:36:47.837Z</time></trkpt><trkpt lat="45.3294767" lon="10.64162"><ele>83.0</ele><time>2026-03-28T09:36:48.836Z</time></trkpt><trkpt lat="45.3293767" lon="10.641805"><ele>82.66666666666667</ele><time>2026-03-28T09:36:49.836Z</time></trkpt><trkpt lat="45.3292783" lon="10.642"><ele>82.33333333333333</ele><time>2026-03-28T09:36:50.837Z</time></trkpt><trkpt lat="45.3291917" lon="10.642205"><ele>82.0</ele><time>2026-03-28T09:36:51.836Z</time></trkpt><trkpt lat="45.32914" lon="10.64244"><ele>82.0</ele><time>2026-03-28T09:36:52.837Z</time></trkpt><trkpt lat="45.329105" lon="10.64271"><ele>82.0</ele><time>2026-03-28T09:36:53.837Z</time></trkpt><trkpt lat="45.3290833" lon="10.6429867"><ele>82.0</ele><time>2026-03-28T09:36:54.837Z</time></trkpt><trkpt lat="45.32907" lon="10.643285"><ele>82.5</ele><time>2026-03-28T09:36:55.836Z</time></trkpt><trkpt lat="45.3290583" lon="10.6436033"><ele>83.0</ele><time>2026-03-28T09:36:56.837Z</time></trkpt><trkpt lat="45.3290517" lon="10.6439383"><ele>83.0</ele><time>2026-03-28T09:36:57.836Z</time></trkpt><trkpt lat="45.3290367" lon="10.6442717"><ele>83.0</ele><time>2026-03-28T09:36:58.836Z</time></trkpt><trkpt lat="45.329025" lon="10.644595"><ele>83.66666666666667</ele><time>2026-03-28T09:36:59.836Z</time></trkpt><trkpt lat="45.3290117" lon="10.6448883"><ele>84.33333333333333</ele><time>2026-03-28T09:37:00.837Z</time></trkpt><trkpt lat="45.328995" lon="10.6451667"><ele>85.0</ele><time>2026-03-28T09:37:01.836Z</time></trkpt><trkpt lat="45.32899" lon="10.645415"><ele>85.5</ele><time>2026-03-28T09:37:02.837Z</time></trkpt><trkpt lat="45.328975" lon="10.6456283"><ele>86.0</ele><time>2026-03-28T09:37:03.837Z</time></trkpt><trkpt lat="45.328955" lon="10.6458033"><ele>86.5</ele><time>2026-03-28T09:37:04.837Z</time></trkpt><trkpt lat="45.3289367" lon="10.6459133"><ele>87.0</ele><time>2026-03-28T09:37:05.837Z</time></trkpt><trkpt lat="45.32891" lon="10.6460517"><ele>87.5</ele><time>2026-03-28T09:37:07.836Z</time></trkpt><trkpt lat="45.32888" lon="10.6461583"><ele>88.0</ele><time>2026-03-28T09:37:09.836Z</time></trkpt><trkpt lat="45.328835" lon="10.6462817"><ele>88.5</ele><time>2026-03-28T09:37:11.836Z</time></trkpt><trkpt lat="45.3288" lon="10.6463783"><ele>89.0</ele><time>2026-03-28T09:37:12.836Z</time></trkpt><trkpt lat="45.328765" lon="10.6464883"><ele>89.5</ele><time>2026-03-28T09:37:13.837Z</time></trkpt><trkpt lat="45.3287333" lon="10.64661"><ele>90.0</ele><time>2026-03-28T09:37:14.836Z</time></trkpt><trkpt lat="45.328695" lon="10.64673"><ele>90.0</ele><time>2026-03-28T09:37:15.836Z</time></trkpt><trkpt lat="45.32865" lon="10.64685"><ele>90.0</ele><time>2026-03-28T09:37:16.836Z</time></trkpt><trkpt lat="45.3285967" lon="10.6469717"><ele>90.0</ele><time>2026-03-28T09:37:17.837Z</time></trkpt><trkpt lat="45.3285233" lon="10.6471017"><ele>90.0</ele><time>2026-03-28T09:37:18.837Z</time></trkpt><trkpt lat="45.3284283" lon="10.6472467"><ele>89.66666666666667</ele><time>2026-03-28T09:37:19.837Z</time></trkpt><trkpt lat="45.3283067" lon="10.647395"><ele>89.33333333333334</ele><time>2026-03-28T09:37:20.836Z</time></trkpt><trkpt lat="45.3281733" lon="10.64756"><ele>89.0</ele><time>2026-03-28T09:37:21.837Z</time></trkpt><trkpt lat="45.3280333" lon="10.6477567"><ele>94.0</ele><time>2026-03-28T09:37:22.836Z</time></trkpt><trkpt lat="45.3279117" lon="10.6479683"><ele>99.0</ele><time>2026-03-28T09:37:23.836Z</time></trkpt><trkpt lat="45.3277867" lon="10.6482067"><ele>104.0</ele><time>2026-03-28T09:37:24.836Z</time></trkpt><trkpt lat="45.32765" lon="10.6484517"><ele>102.66666666666666</ele><time>2026-03-28T09:37:25.836Z</time></trkpt><trkpt lat="45.327515" lon="10.6487083"><ele>101.33333333333334</ele><time>2026-03-28T09:37:26.836Z</time></trkpt><trkpt lat="45.3274117" lon="10.6489433"><ele>100.0</ele><time>2026-03-28T09:37:27.836Z</time></trkpt><trkpt lat="45.327335" lon="10.6491317"><ele>100.0</ele><time>2026-03-28T09:37:28.837Z</time></trkpt><trkpt lat="45.3272767" lon="10.6492667"><ele>100.0</ele><time>2026-03-28T09:37:29.836Z</time></trkpt><trkpt lat="45.3272167" lon="10.6494133"><ele>100.0</ele><time>2026-03-28T09:37:30.837Z</time></trkpt><trkpt lat="45.3271483" lon="10.64958"><ele>100.0</ele><time>2026-03-28T09:37:31.837Z</time></trkpt><trkpt lat="45.3270783" lon="10.649775"><ele>101.33333333333334</ele><time>2026-03-28T09:37:32.837Z</time></trkpt><trkpt lat="45.32699" lon="10.6499817"><ele>102.66666666666666</ele><time>2026-03-28T09:37:33.836Z</time></trkpt><trkpt lat="45.3268917" lon="10.6502283"><ele>104.0</ele><time>2026-03-28T09:37:34.836Z</time></trkpt><trkpt lat="45.326775" lon="10.6504783"><ele>104.0</ele><time>2026-03-28T09:37:35.837Z</time></trkpt><trkpt lat="45.326665" lon="10.650735"><ele>104.0</ele><time>2026-03-28T09:37:36.837Z</time></trkpt><trkpt lat="45.32655" lon="10.650955"><ele>104.0</ele><time>2026-03-28T09:37:37.836Z</time></trkpt><trkpt lat="45.326415" lon="10.6511383"><ele>108.66666666666666</ele><time>2026-03-28T09:37:38.836Z</time></trkpt><trkpt lat="45.3262517" lon="10.6513083"><ele>113.33333333333334</ele><time>2026-03-28T09:37:39.836Z</time></trkpt><trkpt lat="45.326085" lon="10.65149"><ele>118.0</ele><time>2026-03-28T09:37:40.837Z</time></trkpt><trkpt lat="45.3259117" lon="10.651705"><ele>118.0</ele><time>2026-03-28T09:37:41.837Z</time></trkpt><trkpt lat="45.3257417" lon="10.6519217"><ele>118.0</ele><time>2026-03-28T09:37:42.836Z</time></trkpt><trkpt lat="45.3255783" lon="10.65212"><ele>118.0</ele><time>2026-03-28T09:37:43.836Z</time></trkpt><trkpt lat="45.325445" lon="10.6523117"><ele>119.33333333333334</ele><time>2026-03-28T09:37:44.837Z</time></trkpt><trkpt lat="45.3253467" lon="10.6524867"><ele>120.66666666666666</ele><time>2026-03-28T09:37:45.837Z</time></trkpt><trkpt lat="45.32526" lon="10.6526983"><ele>122.0</ele><time>2026-03-28T09:37:46.837Z</time></trkpt><trkpt lat="45.3251717" lon="10.652935"><ele>122.0</ele><time>2026-03-28T09:37:47.837Z</time></trkpt><trkpt lat="45.3250917" lon="10.6531517"><ele>122.0</ele><time>2026-03-28T09:37:48.837Z</time></trkpt><trkpt lat="45.324995" lon="10.6533367"><ele>122.0</ele><time>2026-03-28T09:37:49.837Z</time></trkpt><trkpt lat="45.324895" lon="10.6534917"><ele>122.0</ele><time>2026-03-28T09:37:50.837Z</time></trkpt><trkpt lat="45.3248083" lon="10.6536167"><ele>121.99999999999999</ele><time>2026-03-28T09:37:51.836Z</time></trkpt><trkpt lat="45.32472" lon="10.6537317"><ele>121.99999999999999</ele><time>2026-03-28T09:37:52.837Z</time></trkpt><trkpt lat="45.3246433" lon="10.6538083"><ele>122.0</ele><time>2026-03-28T09:37:53.836Z</time></trkpt><trkpt lat="45.32458" lon="10.6539217"><ele>122.0</ele><time>2026-03-28T09:37:55.836Z</time></trkpt><trkpt lat="45.3246267" lon="10.6540267"><ele>122.25</ele><time>2026-03-28T09:37:58.837Z</time></trkpt><trkpt lat="45.324715" lon="10.6540517"><ele>122.5</ele><time>2026-03-28T09:37:59.836Z</time></trkpt><trkpt lat="45.3248167" lon="10.6540867"><ele>122.75</ele><time>2026-03-28T09:38:00.837Z</time></trkpt><trkpt lat="45.324935" lon="10.6541567"><ele>123.0</ele><time>2026-03-28T09:38:01.836Z</time></trkpt><trkpt lat="45.325065" lon="10.654265"><ele>123.0</ele><time>2026-03-28T09:38:02.837Z</time></trkpt><trkpt lat="45.3251867" lon="10.654405"><ele>123.0</ele><time>2026-03-28T09:38:03.836Z</time></trkpt><trkpt lat="45.3252867" lon="10.6545383"><ele>123.0</ele><time>2026-03-28T09:38:04.837Z</time></trkpt><trkpt lat="45.3253633" lon="10.6546633"><ele>123.0</ele><time>2026-03-28T09:38:05.837Z</time></trkpt><trkpt lat="45.3253983" lon="10.6548233"><ele>123.25</ele><time>2026-03-28T09:38:06.836Z</time></trkpt><trkpt lat="45.3254133" lon="10.6549817"><ele>123.5</ele><time>2026-03-28T09:38:07.837Z</time></trkpt><trkpt lat="45.325405" lon="10.65517"><ele>123.75</ele><time>2026-03-28T09:38:08.837Z</time></trkpt><trkpt lat="45.32537" lon="10.65536"><ele>124.0</ele><time>2026-03-28T09:38:09.836Z</time></trkpt><trkpt lat="45.3253217" lon="10.655555"><ele>123.0</ele><time>2026-03-28T09:38:10.837Z</time></trkpt><trkpt lat="45.3252667" lon="10.6557467"><ele>122.0</ele><time>2026-03-28T09:38:11.836Z</time></trkpt><trkpt lat="45.3252167" lon="10.6559383"><ele>121.0</ele><time>2026-03-28T09:38:12.837Z</time></trkpt><trkpt lat="45.32517" lon="10.6561167"><ele>120.0</ele><time>2026-03-28T09:38:13.836Z</time></trkpt><trkpt lat="45.3251283" lon="10.6563067"><ele>117.25</ele><time>2026-03-28T09:38:14.837Z</time></trkpt><trkpt lat="45.3250833" lon="10.656485"><ele>114.5</ele><time>2026-03-28T09:38:15.837Z</time></trkpt><trkpt lat="45.3250383" lon="10.65664"><ele>111.75</ele><time>2026-03-28T09:38:16.837Z</time></trkpt><trkpt lat="45.3250267" lon="10.6567867"><ele>109.0</ele><time>2026-03-28T09:38:17.837Z</time></trkpt><trkpt lat="45.3250417" lon="10.6569283"><ele>108.0</ele><time>2026-03-28T09:38:18.836Z</time></trkpt><trkpt lat="45.3250717" lon="10.6570917"><ele>107.0</ele><time>2026-03-28T09:38:19.837Z</time></trkpt><trkpt lat="45.3251133" lon="10.657265"><ele>106.0</ele><time>2026-03-28T09:38:20.837Z</time></trkpt><trkpt lat="45.325145" lon="10.65742"><ele>105.0</ele><time>2026-03-28T09:38:21.837Z</time></trkpt><trkpt lat="45.3251717" lon="10.6575583"><ele>105.0</ele><time>2026-03-28T09:38:22.836Z</time></trkpt><trkpt lat="45.32519" lon="10.6576717"><ele>105.0</ele><time>2026-03-28T09:38:23.837Z</time></trkpt><trkpt lat="45.32522" lon="10.6577883"><ele>105.0</ele><time>2026-03-28T09:38:24.836Z</time></trkpt><trkpt lat="45.3252433" lon="10.6579167"><ele>105.0</ele><time>2026-03-28T09:38:25.836Z</time></trkpt><trkpt lat="45.32526" lon="10.6580233"><ele>105.0</ele><time>2026-03-28T09:38:26.837Z</time></trkpt><trkpt lat="45.3252667" lon="10.658115"><ele>105.0</ele><time>2026-03-28T09:38:27.836Z</time></trkpt><trkpt lat="45.3252833" lon="10.6582583"><ele>105.16666666666667</ele><time>2026-03-28T09:38:29.837Z</time></trkpt><trkpt lat="45.32531" lon="10.6583983"><ele>105.33333333333334</ele><time>2026-03-28T09:38:31.837Z</time></trkpt><trkpt lat="45.3253317" lon="10.6584967"><ele>105.5</ele><time>2026-03-28T09:38:33.836Z</time></trkpt><trkpt lat="45.3253817" lon="10.6585617"><ele>105.66666666666667</ele><time>2026-03-28T09:38:36.836Z</time></trkpt><trkpt lat="45.3254783" lon="10.658545"><ele>105.83333333333334</ele><time>2026-03-28T09:38:38.837Z</time></trkpt><trkpt lat="45.3255567" lon="10.6585117"><ele>106.0</ele><time>2026-03-28T09:38:39.836Z</time></trkpt><trkpt lat="45.3256517" lon="10.6584783"><ele>105.50000000000001</ele><time>2026-03-28T09:38:40.836Z</time></trkpt><trkpt lat="45.3257483" lon="10.6584433"><ele>105.0</ele><time>2026-03-28T09:38:41.837Z</time></trkpt><trkpt lat="45.3258333" lon="10.65841"><ele>104.5</ele><time>2026-03-28T09:38:42.836Z</time></trkpt><trkpt lat="45.325905" lon="10.6583917"><ele>104.0</ele><time>2026-03-28T09:38:43.837Z</time></trkpt><trkpt lat="45.3259667" lon="10.65837"><ele>103.50000000000001</ele><time>2026-03-28T09:38:44.836Z</time></trkpt><trkpt lat="45.3260717" lon="10.6583233"><ele>103.0</ele><time>2026-03-28T09:38:46.836Z</time></trkpt><trkpt lat="45.326175" lon="10.65829"><ele>103.0</ele><time>2026-03-28T09:38:48.836Z</time></trkpt><trkpt lat="45.3262483" lon="10.6582767"><ele>103.0</ele><time>2026-03-28T09:38:49.836Z</time></trkpt><trkpt lat="45.32635" lon="10.6582483"><ele>103.0</ele><time>2026-03-28T09:38:50.836Z</time></trkpt><trkpt lat="45.3264667" lon="10.6582283"><ele>103.0</ele><time>2026-03-28T09:38:51.836Z</time></trkpt><trkpt lat="45.3265717" lon="10.65821"><ele>103.0</ele><time>2026-03-28T09:38:52.836Z</time></trkpt><trkpt lat="45.326655" lon="10.6582"><ele>102.60000000000001</ele><time>2026-03-28T09:38:53.837Z</time></trkpt><trkpt lat="45.3267183" lon="10.65824"><ele>102.2</ele><time>2026-03-28T09:38:54.836Z</time></trkpt><trkpt lat="45.3267683" lon="10.65833"><ele>101.8</ele><time>2026-03-28T09:38:55.837Z</time></trkpt><trkpt lat="45.3267917" lon="10.658485"><ele>101.4</ele><time>2026-03-28T09:38:56.836Z</time></trkpt><trkpt lat="45.326805" lon="10.6586717"><ele>101.0</ele><time>2026-03-28T09:38:57.837Z</time></trkpt><trkpt lat="45.3268083" lon="10.6588867"><ele>100.0</ele><time>2026-03-28T09:38:58.837Z</time></trkpt><trkpt lat="45.3267933" lon="10.6590767"><ele>99.0</ele><time>2026-03-28T09:38:59.836Z</time></trkpt><trkpt lat="45.3267633" lon="10.6592467"><ele>98.0</ele><time>2026-03-28T09:39:00.837Z</time></trkpt><trkpt lat="45.32673" lon="10.6594"><ele>97.0</ele><time>2026-03-28T09:39:01.836Z</time></trkpt><trkpt lat="45.326705" lon="10.6595283"><ele>96.66666666666667</ele><time>2026-03-28T09:39:02.836Z</time></trkpt><trkpt lat="45.3266767" lon="10.659635"><ele>96.33333333333334</ele><time>2026-03-28T09:39:03.837Z</time></trkpt><trkpt lat="45.326645" lon="10.659715"><ele>96.0</ele><time>2026-03-28T09:39:04.837Z</time></trkpt><trkpt lat="45.3266167" lon="10.659795"><ele>95.66666666666667</ele><time>2026-03-28T09:39:05.836Z</time></trkpt><trkpt lat="45.32661" lon="10.659955"><ele>95.33333333333334</ele><time>2026-03-28T09:39:07.836Z</time></trkpt><trkpt lat="45.3266433" lon="10.660065"><ele>95.0</ele><time>2026-03-28T09:39:08.837Z</time></trkpt><trkpt lat="45.3266817" lon="10.6602033"><ele>94.0</ele><time>2026-03-28T09:39:09.837Z</time></trkpt><trkpt lat="45.326715" lon="10.66039"><ele>93.0</ele><time>2026-03-28T09:39:10.836Z</time></trkpt><trkpt lat="45.3267483" lon="10.660605"><ele>92.0</ele><time>2026-03-28T09:39:11.836Z</time></trkpt><trkpt lat="45.3267867" lon="10.6608433"><ele>92.0</ele><time>2026-03-28T09:39:12.837Z</time></trkpt><trkpt lat="45.32682" lon="10.6610783"><ele>92.0</ele><time>2026-03-28T09:39:13.836Z</time></trkpt><trkpt lat="45.3268317" lon="10.6613017"><ele>92.0</ele><time>2026-03-28T09:39:14.836Z</time></trkpt><trkpt lat="45.3268383" lon="10.6614983"><ele>91.25</ele><time>2026-03-28T09:39:15.837Z</time></trkpt><trkpt lat="45.3268433" lon="10.6616767"><ele>90.5</ele><time>2026-03-28T09:39:16.837Z</time></trkpt><trkpt lat="45.326845" lon="10.6618683"><ele>89.75</ele><time>2026-03-28T09:39:17.837Z</time></trkpt><trkpt lat="45.3268367" lon="10.6620667"><ele>89.0</ele><time>2026-03-28T09:39:18.837Z</time></trkpt><trkpt lat="45.32682" lon="10.6622483"><ele>89.0</ele><time>2026-03-28T09:39:19.836Z</time></trkpt><trkpt lat="45.3267983" lon="10.66239"><ele>89.0</ele><time>2026-03-28T09:39:20.836Z</time></trkpt><trkpt lat="45.3267617" lon="10.662505"><ele>89.0</ele><time>2026-03-28T09:39:21.836Z</time></trkpt><trkpt lat="45.3267267" lon="10.6626033"><ele>89.0</ele><time>2026-03-28T09:39:22.837Z</time></trkpt><trkpt lat="45.3267067" lon="10.6626933"><ele>89.0</ele><time>2026-03-28T09:39:23.837Z</time></trkpt><trkpt lat="45.3267867" lon="10.6628467"><ele>89.0</ele><time>2026-03-28T09:39:25.836Z</time></trkpt><trkpt lat="45.3268817" lon="10.66292"><ele>89.0</ele><time>2026-03-28T09:39:26.837Z</time></trkpt><trkpt lat="45.326995" lon="10.6630117"><ele>89.0</ele><time>2026-03-28T09:39:27.836Z</time></trkpt><trkpt lat="45.32713" lon="10.6630983"><ele>89.0</ele><time>2026-03-28T09:39:28.837Z</time></trkpt><trkpt lat="45.327265" lon="10.6632083"><ele>89.0</ele><time>2026-03-28T09:39:29.836Z</time></trkpt><trkpt lat="45.3274083" lon="10.6633233"><ele>89.0</ele><time>2026-03-28T09:39:30.836Z</time></trkpt><trkpt lat="45.32756" lon="10.6634567"><ele>89.0</ele><time>2026-03-28T09:39:31.837Z</time></trkpt><trkpt lat="45.3277267" lon="10.6635933"><ele>88.33333333333334</ele><time>2026-03-28T09:39:32.836Z</time></trkpt><trkpt lat="45.3279117" lon="10.6637317"><ele>87.66666666666667</ele><time>2026-03-28T09:39:33.836Z</time></trkpt><trkpt lat="45.3280933" lon="10.6638833"><ele>87.0</ele><time>2026-03-28T09:39:34.837Z</time></trkpt><trkpt lat="45.3282933" lon="10.6640183"><ele>86.5</ele><time>2026-03-28T09:39:35.836Z</time></trkpt><trkpt lat="45.3285067" lon="10.6641467"><ele>86.0</ele><time>2026-03-28T09:39:36.836Z</time></trkpt><trkpt lat="45.328735" lon="10.6642867"><ele>87.5</ele><time>2026-03-28T09:39:37.836Z</time></trkpt><trkpt lat="45.3289667" lon="10.6644033"><ele>89.0</ele><time>2026-03-28T09:39:38.837Z</time></trkpt><trkpt lat="45.3291833" lon="10.664525"><ele>89.33333333333334</ele><time>2026-03-28T09:39:39.836Z</time></trkpt><trkpt lat="45.329355" lon="10.6646883"><ele>89.66666666666667</ele><time>2026-03-28T09:39:40.836Z</time></trkpt><trkpt lat="45.329515" lon="10.6648783"><ele>90.0</ele><time>2026-03-28T09:39:41.836Z</time></trkpt><trkpt lat="45.3296567" lon="10.6651083"><ele>90.33333333333333</ele><time>2026-03-28T09:39:42.837Z</time></trkpt><trkpt lat="45.3297933" lon="10.665355"><ele>90.66666666666666</ele><time>2026-03-28T09:39:43.837Z</time></trkpt><trkpt lat="45.329935" lon="10.6656017"><ele>91.0</ele><time>2026-03-28T09:39:44.837Z</time></trkpt><trkpt lat="45.3300717" lon="10.66586"><ele>90.0</ele><time>2026-03-28T09:39:45.837Z</time></trkpt><trkpt lat="45.3302017" lon="10.66613"><ele>89.0</ele><time>2026-03-28T09:39:46.836Z</time></trkpt><trkpt lat="45.330325" lon="10.6664217"><ele>89.0</ele><time>2026-03-28T09:39:47.836Z</time></trkpt><trkpt lat="45.3304467" lon="10.6667283"><ele>89.0</ele><time>2026-03-28T09:39:48.837Z</time></trkpt><trkpt lat="45.3305567" lon="10.6670433"><ele>90.0</ele><time>2026-03-28T09:39:49.836Z</time></trkpt><trkpt lat="45.3306617" lon="10.6673633"><ele>91.0</ele><time>2026-03-28T09:39:50.837Z</time></trkpt><trkpt lat="45.330765" lon="10.66768"><ele>91.5</ele><time>2026-03-28T09:39:51.836Z</time></trkpt><trkpt lat="45.3308633" lon="10.6679833"><ele>92.0</ele><time>2026-03-28T09:39:52.837Z</time></trkpt><trkpt lat="45.3309483" lon="10.6682717"><ele>92.0</ele><time>2026-03-28T09:39:53.836Z</time></trkpt><trkpt lat="45.331035" lon="10.6685267"><ele>92.0</ele><time>2026-03-28T09:39:54.836Z</time></trkpt><trkpt lat="45.33115" lon="10.668755"><ele>92.0</ele><time>2026-03-28T09:39:55.837Z</time></trkpt><trkpt lat="45.331285" lon="10.6689583"><ele>91.33333333333334</ele><time>2026-03-28T09:39:56.836Z</time></trkpt><trkpt lat="45.331435" lon="10.6691517"><ele>90.66666666666667</ele><time>2026-03-28T09:39:57.836Z</time></trkpt><trkpt lat="45.3316017" lon="10.669315"><ele>90.0</ele><time>2026-03-28T09:39:58.836Z</time></trkpt><trkpt lat="45.331785" lon="10.6694567"><ele>89.5</ele><time>2026-03-28T09:39:59.836Z</time></trkpt><trkpt lat="45.331995" lon="10.6695867"><ele>89.0</ele><time>2026-03-28T09:40:00.837Z</time></trkpt><trkpt lat="45.3322133" lon="10.66971"><ele>88.0</ele><time>2026-03-28T09:40:01.836Z</time></trkpt><trkpt lat="45.3324333" lon="10.66983"><ele>87.0</ele><time>2026-03-28T09:40:02.836Z</time></trkpt><trkpt lat="45.3326517" lon="10.669925"><ele>87.0</ele><time>2026-03-28T09:40:03.837Z</time></trkpt><trkpt lat="45.3328583" lon="10.6700267"><ele>87.0</ele><time>2026-03-28T09:40:04.836Z</time></trkpt><trkpt lat="45.3330533" lon="10.67014"><ele>87.0</ele><time>2026-03-28T09:40:05.836Z</time></trkpt><trkpt lat="45.3332483" lon="10.6702667"><ele>86.33333333333333</ele><time>2026-03-28T09:40:06.837Z</time></trkpt><trkpt lat="45.3334283" lon="10.670395"><ele>85.66666666666666</ele><time>2026-03-28T09:40:07.837Z</time></trkpt><trkpt lat="45.3335833" lon="10.670525"><ele>85.0</ele><time>2026-03-28T09:40:08.836Z</time></trkpt><trkpt lat="45.3337033" lon="10.6706517"><ele>85.0</ele><time>2026-03-28T09:40:09.837Z</time></trkpt><trkpt lat="45.3338033" lon="10.6707517"><ele>85.0</ele><time>2026-03-28T09:40:10.836Z</time></trkpt><trkpt lat="45.3338733" lon="10.67082"><ele>85.0</ele><time>2026-03-28T09:40:11.836Z</time></trkpt><trkpt lat="45.3339267" lon="10.6708733"><ele>85.0</ele><time>2026-03-28T09:40:12.837Z</time></trkpt><trkpt lat="45.3339883" lon="10.6709433"><ele>85.0</ele><time>2026-03-28T09:40:14.836Z</time></trkpt><trkpt lat="45.3340417" lon="10.6710433"><ele>85.0</ele><time>2026-03-28T09:40:17.836Z</time></trkpt><trkpt lat="45.3341" lon="10.671085"><ele>84.6</ele><time>2026-03-28T09:40:20.837Z</time></trkpt><trkpt lat="45.333985" lon="10.6710033"><ele>84.2</ele><time>2026-03-28T09:49:27.844Z</time></trkpt><trkpt lat="45.3339217" lon="10.6710383"><ele>83.80000000000001</ele><time>2026-03-28T09:49:29.844Z</time></trkpt><trkpt lat="45.333865" lon="10.671125"><ele>83.4</ele><time>2026-03-28T09:49:31.843Z</time></trkpt><trkpt lat="45.3338083" lon="10.67125"><ele>83.0</ele><time>2026-03-28T09:49:33.843Z</time></trkpt><trkpt lat="45.33374" lon="10.67141"><ele>83.0</ele><time>2026-03-28T09:49:35.843Z</time></trkpt><trkpt lat="45.333695" lon="10.6715033"><ele>83.0</ele><time>2026-03-28T09:49:36.843Z</time></trkpt><trkpt lat="45.3336517" lon="10.6716017"><ele>83.0</ele><time>2026-03-28T09:49:37.844Z</time></trkpt><trkpt lat="45.3336033" lon="10.67171"><ele>83.0</ele><time>2026-03-28T09:49:38.844Z</time></trkpt><trkpt lat="45.3335483" lon="10.6718267"><ele>83.0</ele><time>2026-03-28T09:49:39.844Z</time></trkpt><trkpt lat="45.3334917" lon="10.6719383"><ele>83.0</ele><time>2026-03-28T09:49:40.843Z</time></trkpt><trkpt lat="45.333435" lon="10.6720617"><ele>82.5</ele><time>2026-03-28T09:49:41.843Z</time></trkpt><trkpt lat="45.3333667" lon="10.6721783"><ele>82.0</ele><time>2026-03-28T09:49:42.843Z</time></trkpt><trkpt lat="45.33331" lon="10.67228"><ele>81.5</ele><time>2026-03-28T09:49:43.844Z</time></trkpt><trkpt lat="45.33327" lon="10.6723783"><ele>81.0</ele><time>2026-03-28T09:49:44.843Z</time></trkpt><trkpt lat="45.3332417" lon="10.6724717"><ele>80.5</ele><time>2026-03-28T09:49:45.844Z</time></trkpt><trkpt lat="45.3332333" lon="10.6725783"><ele>80.0</ele><time>2026-03-28T09:49:46.843Z</time></trkpt><trkpt lat="45.3332317" lon="10.6727133"><ele>80.0</ele><time>2026-03-28T09:49:47.844Z</time></trkpt><trkpt lat="45.3332367" lon="10.6728333"><ele>80.0</ele><time>2026-03-28T09:49:48.844Z</time></trkpt><trkpt lat="45.3332367" lon="10.6729467"><ele>80.0</ele><time>2026-03-28T09:49:49.843Z</time></trkpt><trkpt lat="45.3332333" lon="10.6730417"><ele>80.0</ele><time>2026-03-28T09:49:50.843Z</time></trkpt><trkpt lat="45.33326" lon="10.67318"><ele>80.0</ele><time>2026-03-28T09:49:52.843Z</time></trkpt><trkpt lat="45.3333" lon="10.673255"><ele>80.0</ele><time>2026-03-28T09:49:53.844Z</time></trkpt><trkpt lat="45.333355" lon="10.67335"><ele>80.0</ele><time>2026-03-28T09:49:54.843Z</time></trkpt><trkpt lat="45.3334067" lon="10.6734833"><ele>80.0</ele><time>2026-03-28T09:49:55.844Z</time></trkpt><trkpt lat="45.3334567" lon="10.673625"><ele>80.0</ele><time>2026-03-28T09:49:56.843Z</time></trkpt><trkpt lat="45.33349" lon="10.6737567"><ele>80.0</ele><time>2026-03-28T09:49:57.844Z</time></trkpt><trkpt lat="45.333525" lon="10.6738583"><ele>80.0</ele><time>2026-03-28T09:49:58.843Z</time></trkpt><trkpt lat="45.3335633" lon="10.673965"><ele>80.4</ele><time>2026-03-28T09:50:00.843Z</time></trkpt><trkpt lat="45.3335233" lon="10.6740817"><ele>80.8</ele><time>2026-03-28T09:50:03.844Z</time></trkpt><trkpt lat="45.3334767" lon="10.6741883"><ele>81.19999999999999</ele><time>2026-03-28T09:50:05.843Z</time></trkpt><trkpt lat="45.3334217" lon="10.6743567"><ele>81.6</ele><time>2026-03-28T09:50:07.844Z</time></trkpt><trkpt lat="45.3333933" lon="10.6744533"><ele>82.0</ele><time>2026-03-28T09:50:08.843Z</time></trkpt><trkpt lat="45.3333833" lon="10.6745483"><ele>82.0</ele><time>2026-03-28T09:50:09.843Z</time></trkpt><trkpt lat="45.3334" lon="10.67466"><ele>82.0</ele><time>2026-03-28T09:50:10.843Z</time></trkpt><trkpt lat="45.333425" lon="10.6747667"><ele>82.0</ele><time>2026-03-28T09:50:11.844Z</time></trkpt><trkpt lat="45.33346" lon="10.6748733"><ele>82.0</ele><time>2026-03-28T09:50:12.844Z</time></trkpt><trkpt lat="45.3335017" lon="10.674985"><ele>82.0</ele><time>2026-03-28T09:50:13.843Z</time></trkpt><trkpt lat="45.3335383" lon="10.6750883"><ele>82.0</ele><time>2026-03-28T09:50:14.844Z</time></trkpt><trkpt lat="45.3335767" lon="10.6751917"><ele>82.0</ele><time>2026-03-28T09:50:15.844Z</time></trkpt><trkpt lat="45.33359" lon="10.675295"><ele>82.0</ele><time>2026-03-28T09:50:16.843Z</time></trkpt><trkpt lat="45.3336183" lon="10.6753817"><ele>82.0</ele><time>2026-03-28T09:50:17.843Z</time></trkpt><trkpt lat="45.3336583" lon="10.6754517"><ele>82.0</ele><time>2026-03-28T09:50:18.844Z</time></trkpt><trkpt lat="45.333765" lon="10.6755567"><ele>82.0</ele><time>2026-03-28T09:50:20.844Z</time></trkpt><trkpt lat="45.33386" lon="10.6756283"><ele>82.0</ele><time>2026-03-28T09:50:22.843Z</time></trkpt><trkpt lat="45.3339117" lon="10.6757333"><ele>82.66666666666666</ele><time>2026-03-28T09:50:24.843Z</time></trkpt><trkpt lat="45.3339067" lon="10.67583"><ele>83.33333333333333</ele><time>2026-03-28T09:50:25.843Z</time></trkpt><trkpt lat="45.3338967" lon="10.675945"><ele>84.0</ele><time>2026-03-28T09:50:26.844Z</time></trkpt><trkpt lat="45.3338917" lon="10.6760733"><ele>84.66666666666667</ele><time>2026-03-28T09:50:27.843Z</time></trkpt><trkpt lat="45.3338933" lon="10.6762067"><ele>85.33333333333334</ele><time>2026-03-28T09:50:28.843Z</time></trkpt><trkpt lat="45.3339" lon="10.6763433"><ele>86.0</ele><time>2026-03-28T09:50:29.843Z</time></trkpt><trkpt lat="45.3339133" lon="10.676485"><ele>86.0</ele><time>2026-03-28T09:50:30.843Z</time></trkpt><trkpt lat="45.3339283" lon="10.6766283"><ele>86.0</ele><time>2026-03-28T09:50:31.844Z</time></trkpt><trkpt lat="45.3339417" lon="10.6767833"><ele>86.0</ele><time>2026-03-28T09:50:32.844Z</time></trkpt><trkpt lat="45.33396" lon="10.67693"><ele>86.0</ele><time>2026-03-28T09:50:33.843Z</time></trkpt><trkpt lat="45.3339833" lon="10.6770767"><ele>86.0</ele><time>2026-03-28T09:50:34.843Z</time></trkpt><trkpt lat="45.3340083" lon="10.677215"><ele>86.4</ele><time>2026-03-28T09:50:35.843Z</time></trkpt><trkpt lat="45.3340317" lon="10.6773583"><ele>86.8</ele><time>2026-03-28T09:50:36.844Z</time></trkpt><trkpt lat="45.3340617" lon="10.6774983"><ele>87.2</ele><time>2026-03-28T09:50:37.844Z</time></trkpt><trkpt lat="45.3341017" lon="10.6776267"><ele>87.60000000000001</ele><time>2026-03-28T09:50:38.844Z</time></trkpt><trkpt lat="45.3341383" lon="10.6777433"><ele>88.0</ele><time>2026-03-28T09:50:39.843Z</time></trkpt><trkpt lat="45.334185" lon="10.6778533"><ele>88.33333333333333</ele><time>2026-03-28T09:50:40.843Z</time></trkpt><trkpt lat="45.33422" lon="10.67797"><ele>88.66666666666666</ele><time>2026-03-28T09:50:41.843Z</time></trkpt><trkpt lat="45.3342533" lon="10.6780883"><ele>89.0</ele><time>2026-03-28T09:50:42.844Z</time></trkpt><trkpt lat="45.3342817" lon="10.6782117"><ele>89.33333333333333</ele><time>2026-03-28T09:50:43.844Z</time></trkpt><trkpt lat="45.3343167" lon="10.6783233"><ele>89.66666666666667</ele><time>2026-03-28T09:50:44.844Z</time></trkpt><trkpt lat="45.334365" lon="10.678425"><ele>90.0</ele><time>2026-03-28T09:50:45.844Z</time></trkpt><trkpt lat="45.3344117" lon="10.6784983"><ele>90.0</ele><time>2026-03-28T09:50:46.844Z</time></trkpt><trkpt lat="45.3344817" lon="10.6785833"><ele>90.0</ele><time>2026-03-28T09:50:47.843Z</time></trkpt><trkpt lat="45.3345533" lon="10.67866"><ele>90.0</ele><time>2026-03-28T09:50:48.844Z</time></trkpt><trkpt lat="45.33462" lon="10.67871"><ele>90.0</ele><time>2026-03-28T09:50:49.844Z</time></trkpt><trkpt lat="45.334685" lon="10.6787367"><ele>90.0</ele><time>2026-03-28T09:50:50.844Z</time></trkpt><trkpt lat="45.334765" lon="10.678735"><ele>90.0</ele><time>2026-03-28T09:50:51.844Z</time></trkpt><trkpt lat="45.3348417" lon="10.6787"><ele>90.5</ele><time>2026-03-28T09:50:52.843Z</time></trkpt><trkpt lat="45.3349067" lon="10.6786433"><ele>91.0</ele><time>2026-03-28T09:50:53.843Z</time></trkpt><trkpt lat="45.3349767" lon="10.6785817"><ele>91.5</ele><time>2026-03-28T09:50:54.843Z</time></trkpt><trkpt lat="45.3350583" lon="10.67851"><ele>92.0</ele><time>2026-03-28T09:50:55.843Z</time></trkpt><trkpt lat="45.3351417" lon="10.6784533"><ele>92.5</ele><time>2026-03-28T09:50:56.843Z</time></trkpt><trkpt lat="45.3352267" lon="10.678405"><ele>93.0</ele><time>2026-03-28T09:50:57.843Z</time></trkpt><trkpt lat="45.3352967" lon="10.678395"><ele>93.0</ele><time>2026-03-28T09:50:58.843Z</time></trkpt><trkpt lat="45.33537" lon="10.6784067"><ele>93.0</ele><time>2026-03-28T09:50:59.843Z</time></trkpt><trkpt lat="45.3354317" lon="10.6784583"><ele>93.0</ele><time>2026-03-28T09:51:00.844Z</time></trkpt><trkpt lat="45.3354917" lon="10.67854"><ele>93.0</ele><time>2026-03-28T09:51:01.843Z</time></trkpt><trkpt lat="45.3355483" lon="10.6786417"><ele>93.0</ele><time>2026-03-28T09:51:02.843Z</time></trkpt><trkpt lat="45.3356083" lon="10.6787533"><ele>93.0</ele><time>2026-03-28T09:51:03.843Z</time></trkpt><trkpt lat="45.3356833" lon="10.6788867"><ele>91.0</ele><time>2026-03-28T09:51:04.843Z</time></trkpt><trkpt lat="45.335765" lon="10.6790317"><ele>89.0</ele><time>2026-03-28T09:51:05.843Z</time></trkpt><trkpt lat="45.33586" lon="10.679165"><ele>87.0</ele><time>2026-03-28T09:51:06.843Z</time></trkpt><trkpt lat="45.3359517" lon="10.6793017"><ele>85.0</ele><time>2026-03-28T09:51:07.843Z</time></trkpt><trkpt lat="45.3360367" lon="10.67945"><ele>85.0</ele><time>2026-03-28T09:51:08.843Z</time></trkpt><trkpt lat="45.336135" lon="10.6796033"><ele>85.0</ele><time>2026-03-28T09:51:09.843Z</time></trkpt><trkpt lat="45.33624" lon="10.67976"><ele>85.0</ele><time>2026-03-28T09:51:10.843Z</time></trkpt><trkpt lat="45.3363333" lon="10.6799083"><ele>85.0</ele><time>2026-03-28T09:51:11.843Z</time></trkpt><trkpt lat="45.3364167" lon="10.6800483"><ele>85.0</ele><time>2026-03-28T09:51:12.843Z</time></trkpt><trkpt lat="45.3364883" lon="10.68017"><ele>85.0</ele><time>2026-03-28T09:51:13.843Z</time></trkpt><trkpt lat="45.33656" lon="10.6802667"><ele>85.0</ele><time>2026-03-28T09:51:14.844Z</time></trkpt><trkpt lat="45.3366233" lon="10.6803533"><ele>85.0</ele><time>2026-03-28T09:51:15.843Z</time></trkpt><trkpt lat="45.3366717" lon="10.6804133"><ele>85.0</ele><time>2026-03-28T09:51:16.843Z</time></trkpt><trkpt lat="45.3367283" lon="10.6804967"><ele>85.0</ele><time>2026-03-28T09:51:18.843Z</time></trkpt><trkpt lat="45.3368083" lon="10.6804867"><ele>85.0</ele><time>2026-03-28T09:51:21.844Z</time></trkpt><trkpt lat="45.3368933" lon="10.680335"><ele>85.0</ele><time>2026-03-28T09:51:23.843Z</time></trkpt><trkpt lat="45.3369583" lon="10.6802383"><ele>85.0</ele><time>2026-03-28T09:51:24.844Z</time></trkpt><trkpt lat="45.3370433" lon="10.680125"><ele>85.0</ele><time>2026-03-28T09:51:25.843Z</time></trkpt><trkpt lat="45.3371467" lon="10.6799833"><ele>86.0</ele><time>2026-03-28T09:51:26.844Z</time></trkpt><trkpt lat="45.3372617" lon="10.67983"><ele>87.0</ele><time>2026-03-28T09:51:27.844Z</time></trkpt><trkpt lat="45.3373817" lon="10.679675"><ele>88.0</ele><time>2026-03-28T09:51:28.843Z</time></trkpt><trkpt lat="45.33751" lon="10.6795133"><ele>88.0</ele><time>2026-03-28T09:51:29.844Z</time></trkpt><trkpt lat="45.3376483" lon="10.67935"><ele>88.0</ele><time>2026-03-28T09:51:30.843Z</time></trkpt><trkpt lat="45.3377967" lon="10.679195"><ele>88.0</ele><time>2026-03-28T09:51:31.844Z</time></trkpt><trkpt lat="45.3379433" lon="10.6790467"><ele>88.0</ele><time>2026-03-28T09:51:32.844Z</time></trkpt><trkpt lat="45.3380717" lon="10.6789267"><ele>88.0</ele><time>2026-03-28T09:51:33.843Z</time></trkpt><trkpt lat="45.3381883" lon="10.6788117"><ele>88.0</ele><time>2026-03-28T09:51:34.843Z</time></trkpt><trkpt lat="45.338285" lon="10.6787233"><ele>88.0</ele><time>2026-03-28T09:51:35.844Z</time></trkpt><trkpt lat="45.3383667" lon="10.67864"><ele>88.0</ele><time>2026-03-28T09:51:36.843Z</time></trkpt><trkpt lat="45.3384267" lon="10.6785883"><ele>88.0</ele><time>2026-03-28T09:51:37.843Z</time></trkpt><trkpt lat="45.3385233" lon="10.6785383"><ele>88.0</ele><time>2026-03-28T09:51:39.844Z</time></trkpt><trkpt lat="45.3385833" lon="10.6785933"><ele>88.0</ele><time>2026-03-28T09:51:41.844Z</time></trkpt><trkpt lat="45.3386367" lon="10.6787417"><ele>88.0</ele><time>2026-03-28T09:51:43.844Z</time></trkpt><trkpt lat="45.3386817" lon="10.67886"><ele>88.0</ele><time>2026-03-28T09:51:44.843Z</time></trkpt><trkpt lat="45.3387367" lon="10.6789967"><ele>88.0</ele><time>2026-03-28T09:51:45.843Z</time></trkpt><trkpt lat="45.3387967" lon="10.6791433"><ele>88.0</ele><time>2026-03-28T09:51:46.844Z</time></trkpt><trkpt lat="45.3388567" lon="10.6792983"><ele>88.0</ele><time>2026-03-28T09:51:47.843Z</time></trkpt><trkpt lat="45.3389233" lon="10.67944"><ele>88.4</ele><time>2026-03-28T09:51:48.843Z</time></trkpt><trkpt lat="45.3389833" lon="10.6795667"><ele>88.80000000000001</ele><time>2026-03-28T09:51:49.844Z</time></trkpt><trkpt lat="45.3390433" lon="10.679685"><ele>89.2</ele><time>2026-03-28T09:51:50.843Z</time></trkpt><trkpt lat="45.3391017" lon="10.6798017"><ele>89.6</ele><time>2026-03-28T09:51:51.844Z</time></trkpt><trkpt lat="45.3391517" lon="10.67993"><ele>90.0</ele><time>2026-03-28T09:51:52.843Z</time></trkpt><trkpt lat="45.3391983" lon="10.6800683"><ele>90.0</ele><time>2026-03-28T09:51:53.843Z</time></trkpt><trkpt lat="45.3392483" lon="10.6802083"><ele>90.0</ele><time>2026-03-28T09:51:54.843Z</time></trkpt><trkpt lat="45.3392983" lon="10.680325"><ele>90.0</ele><time>2026-03-28T09:51:55.844Z</time></trkpt><trkpt lat="45.3393433" lon="10.68044"><ele>90.0</ele><time>2026-03-28T09:51:56.844Z</time></trkpt><trkpt lat="45.33939" lon="10.6805583"><ele>90.0</ele><time>2026-03-28T09:51:57.844Z</time></trkpt><trkpt lat="45.3394533" lon="10.6807017"><ele>90.0</ele><time>2026-03-28T09:51:58.843Z</time></trkpt><trkpt lat="45.3395183" lon="10.68086"><ele>90.0</ele><time>2026-03-28T09:51:59.843Z</time></trkpt><trkpt lat="45.3395933" lon="10.6810233"><ele>90.0</ele><time>2026-03-28T09:52:00.844Z</time></trkpt><trkpt lat="45.3396717" lon="10.6812117"><ele>90.0</ele><time>2026-03-28T09:52:01.844Z</time></trkpt><trkpt lat="45.3397483" lon="10.68141"><ele>90.25</ele><time>2026-03-28T09:52:02.844Z</time></trkpt><trkpt lat="45.33982" lon="10.6815967"><ele>90.5</ele><time>2026-03-28T09:52:03.844Z</time></trkpt><trkpt lat="45.3398883" lon="10.681785"><ele>90.75</ele><time>2026-03-28T09:52:04.843Z</time></trkpt><trkpt lat="45.339945" lon="10.6819483"><ele>91.0</ele><time>2026-03-28T09:52:05.844Z</time></trkpt><trkpt lat="45.3399833" lon="10.682085"><ele>91.0</ele><time>2026-03-28T09:52:06.843Z</time></trkpt><trkpt lat="45.33999" lon="10.68223"><ele>91.0</ele><time>2026-03-28T09:52:07.844Z</time></trkpt><trkpt lat="45.3399917" lon="10.6824017"><ele>91.0</ele><time>2026-03-28T09:52:08.844Z</time></trkpt><trkpt lat="45.3400033" lon="10.6825683"><ele>91.0</ele><time>2026-03-28T09:52:09.843Z</time></trkpt><trkpt lat="45.3400217" lon="10.6827267"><ele>91.25</ele><time>2026-03-28T09:52:10.844Z</time></trkpt><trkpt lat="45.3400483" lon="10.68289"><ele>91.5</ele><time>2026-03-28T09:52:11.843Z</time></trkpt><trkpt lat="45.340095" lon="10.6830617"><ele>91.75</ele><time>2026-03-28T09:52:12.844Z</time></trkpt><trkpt lat="45.3401567" lon="10.6832433"><ele>92.0</ele><time>2026-03-28T09:52:13.844Z</time></trkpt><trkpt lat="45.34022" lon="10.683425"><ele>91.5</ele><time>2026-03-28T09:52:14.844Z</time></trkpt><trkpt lat="45.340285" lon="10.6836167"><ele>91.0</ele><time>2026-03-28T09:52:15.844Z</time></trkpt><trkpt lat="45.340345" lon="10.6837983"><ele>90.5</ele><time>2026-03-28T09:52:16.844Z</time></trkpt><trkpt lat="45.3403883" lon="10.6839717"><ele>90.0</ele><time>2026-03-28T09:52:17.843Z</time></trkpt><trkpt lat="45.34043" lon="10.6841217"><ele>90.0</ele><time>2026-03-28T09:52:18.843Z</time></trkpt><trkpt lat="45.3404733" lon="10.6842733"><ele>90.0</ele><time>2026-03-28T09:52:19.843Z</time></trkpt><trkpt lat="45.3405133" lon="10.6844383"><ele>90.0</ele><time>2026-03-28T09:52:20.844Z</time></trkpt><trkpt lat="45.3405533" lon="10.6846383"><ele>90.0</ele><time>2026-03-28T09:52:21.843Z</time></trkpt><trkpt lat="45.3405783" lon="10.6848417"><ele>90.25</ele><time>2026-03-28T09:52:22.843Z</time></trkpt><trkpt lat="45.3406" lon="10.685055"><ele>90.5</ele><time>2026-03-28T09:52:23.844Z</time></trkpt><trkpt lat="45.340625" lon="10.6852567"><ele>90.75</ele><time>2026-03-28T09:52:24.844Z</time></trkpt><trkpt lat="45.3406533" lon="10.6854517"><ele>91.0</ele><time>2026-03-28T09:52:25.844Z</time></trkpt><trkpt lat="45.3406817" lon="10.685635"><ele>91.0</ele><time>2026-03-28T09:52:26.843Z</time></trkpt><trkpt lat="45.3407033" lon="10.68579"><ele>91.0</ele><time>2026-03-28T09:52:27.843Z</time></trkpt><trkpt lat="45.3407317" lon="10.6859267"><ele>91.0</ele><time>2026-03-28T09:52:28.843Z</time></trkpt><trkpt lat="45.34076" lon="10.68605"><ele>91.0</ele><time>2026-03-28T09:52:29.844Z</time></trkpt><trkpt lat="45.3407917" lon="10.686175"><ele>91.0</ele><time>2026-03-28T09:52:30.843Z</time></trkpt><trkpt lat="45.3408283" lon="10.6863067"><ele>91.0</ele><time>2026-03-28T09:52:31.843Z</time></trkpt><trkpt lat="45.34086" lon="10.68645"><ele>91.0</ele><time>2026-03-28T09:52:32.844Z</time></trkpt><trkpt lat="45.34089" lon="10.6865967"><ele>91.0</ele><time>2026-03-28T09:52:33.843Z</time></trkpt><trkpt lat="45.34092" lon="10.6867483"><ele>91.0</ele><time>2026-03-28T09:52:34.843Z</time></trkpt><trkpt lat="45.3409367" lon="10.6869067"><ele>91.0</ele><time>2026-03-28T09:52:35.843Z</time></trkpt><trkpt lat="45.3409467" lon="10.6870483"><ele>91.0</ele><time>2026-03-28T09:52:36.843Z</time></trkpt><trkpt lat="45.3409517" lon="10.6872017"><ele>91.0</ele><time>2026-03-28T09:52:37.844Z</time></trkpt><trkpt lat="45.3409583" lon="10.687345"><ele>91.0</ele><time>2026-03-28T09:52:38.844Z</time></trkpt><trkpt lat="45.340975" lon="10.68748"><ele>91.0</ele><time>2026-03-28T09:52:39.844Z</time></trkpt><trkpt lat="45.3410033" lon="10.6876367"><ele>91.0</ele><time>2026-03-28T09:52:40.843Z</time></trkpt><trkpt lat="45.3410367" lon="10.6877983"><ele>91.0</ele><time>2026-03-28T09:52:41.844Z</time></trkpt><trkpt lat="45.3410717" lon="10.6879633"><ele>91.0</ele><time>2026-03-28T09:52:42.844Z</time></trkpt><trkpt lat="45.3411033" lon="10.6881133"><ele>91.0</ele><time>2026-03-28T09:52:43.843Z</time></trkpt><trkpt lat="45.3411283" lon="10.6882717"><ele>91.0</ele><time>2026-03-28T09:52:44.843Z</time></trkpt><trkpt lat="45.3411783" lon="10.6884533"><ele>91.33333333333333</ele><time>2026-03-28T09:52:45.843Z</time></trkpt><trkpt lat="45.34122" lon="10.6886583"><ele>91.66666666666667</ele><time>2026-03-28T09:52:46.843Z</time></trkpt><trkpt lat="45.3412683" lon="10.6888783"><ele>92.0</ele><time>2026-03-28T09:52:47.844Z</time></trkpt><trkpt lat="45.3413333" lon="10.6891133"><ele>92.0</ele><time>2026-03-28T09:52:48.844Z</time></trkpt><trkpt lat="45.3413967" lon="10.6893483"><ele>92.0</ele><time>2026-03-28T09:52:49.843Z</time></trkpt><trkpt lat="45.3414483" lon="10.6895667"><ele>92.0</ele><time>2026-03-28T09:52:50.844Z</time></trkpt><trkpt lat="45.3415" lon="10.6897533"><ele>92.0</ele><time>2026-03-28T09:52:51.843Z</time></trkpt><trkpt lat="45.34156" lon="10.6899283"><ele>92.0</ele><time>2026-03-28T09:52:52.844Z</time></trkpt><trkpt lat="45.3416267" lon="10.6901"><ele>92.0</ele><time>2026-03-28T09:52:53.844Z</time></trkpt><trkpt lat="45.341685" lon="10.69028"><ele>92.0</ele><time>2026-03-28T09:52:54.843Z</time></trkpt><trkpt lat="45.3417483" lon="10.6904683"><ele>92.0</ele><time>2026-03-28T09:52:55.844Z</time></trkpt><trkpt lat="45.341815" lon="10.69067"><ele>92.0</ele><time>2026-03-28T09:52:56.843Z</time></trkpt><trkpt lat="45.341875" lon="10.6908633"><ele>92.0</ele><time>2026-03-28T09:52:57.843Z</time></trkpt><trkpt lat="45.3419267" lon="10.691055"><ele>92.25</ele><time>2026-03-28T09:52:58.844Z</time></trkpt><trkpt lat="45.34196" lon="10.691255"><ele>92.5</ele><time>2026-03-28T09:52:59.843Z</time></trkpt><trkpt lat="45.3419817" lon="10.6914533"><ele>92.75</ele><time>2026-03-28T09:53:00.844Z</time></trkpt><trkpt lat="45.3419883" lon="10.6916483"><ele>93.0</ele><time>2026-03-28T09:53:01.842Z</time></trkpt><trkpt lat="45.341995" lon="10.6918367"><ele>93.25</ele><time>2026-03-28T09:53:02.843Z</time></trkpt><trkpt lat="45.3419933" lon="10.6920217"><ele>93.5</ele><time>2026-03-28T09:53:03.842Z</time></trkpt><trkpt lat="45.342005" lon="10.6922133"><ele>93.75</ele><time>2026-03-28T09:53:04.842Z</time></trkpt><trkpt lat="45.34202" lon="10.6923967"><ele>94.0</ele><time>2026-03-28T09:53:05.842Z</time></trkpt><trkpt lat="45.342035" lon="10.6925583"><ele>94.0</ele><time>2026-03-28T09:53:06.842Z</time></trkpt><trkpt lat="45.342065" lon="10.6927067"><ele>94.0</ele><time>2026-03-28T09:53:07.842Z</time></trkpt><trkpt lat="45.3421017" lon="10.6928683"><ele>94.0</ele><time>2026-03-28T09:53:08.842Z</time></trkpt><trkpt lat="45.3421483" lon="10.6930417"><ele>94.0</ele><time>2026-03-28T09:53:09.843Z</time></trkpt><trkpt lat="45.342205" lon="10.6932217"><ele>95.75</ele><time>2026-03-28T09:53:10.843Z</time></trkpt><trkpt lat="45.34226" lon="10.6933933"><ele>97.5</ele><time>2026-03-28T09:53:11.842Z</time></trkpt><trkpt lat="45.3422983" lon="10.693555"><ele>99.25</ele><time>2026-03-28T09:53:12.843Z</time></trkpt><trkpt lat="45.3423433" lon="10.69371"><ele>101.0</ele><time>2026-03-28T09:53:13.842Z</time></trkpt><trkpt lat="45.342385" lon="10.69385"><ele>100.99999999999999</ele><time>2026-03-28T09:53:14.842Z</time></trkpt><trkpt lat="45.342425" lon="10.6939833"><ele>101.0</ele><time>2026-03-28T09:53:15.843Z</time></trkpt><trkpt lat="45.3424667" lon="10.6940983"><ele>101.0</ele><time>2026-03-28T09:53:16.842Z</time></trkpt><trkpt lat="45.3424983" lon="10.69421"><ele>101.0</ele><time>2026-03-28T09:53:17.842Z</time></trkpt><trkpt lat="45.3425267" lon="10.6943117"><ele>100.99999999999999</ele><time>2026-03-28T09:53:18.842Z</time></trkpt><trkpt lat="45.3425567" lon="10.6944183"><ele>101.0</ele><time>2026-03-28T09:53:19.842Z</time></trkpt><trkpt lat="45.3425867" lon="10.694565"><ele>100.75</ele><time>2026-03-28T09:53:20.842Z</time></trkpt><trkpt lat="45.3426117" lon="10.694735"><ele>100.5</ele><time>2026-03-28T09:53:21.843Z</time></trkpt><trkpt lat="45.3426433" lon="10.6949233"><ele>100.25</ele><time>2026-03-28T09:53:22.842Z</time></trkpt><trkpt lat="45.3426683" lon="10.6951233"><ele>100.0</ele><time>2026-03-28T09:53:23.842Z</time></trkpt><trkpt lat="45.3426967" lon="10.69533"><ele>99.75</ele><time>2026-03-28T09:53:24.843Z</time></trkpt><trkpt lat="45.3427267" lon="10.695545"><ele>99.5</ele><time>2026-03-28T09:53:25.843Z</time></trkpt><trkpt lat="45.3427433" lon="10.6957483"><ele>99.25</ele><time>2026-03-28T09:53:26.843Z</time></trkpt><trkpt lat="45.3427583" lon="10.6959267"><ele>99.0</ele><time>2026-03-28T09:53:27.843Z</time></trkpt><trkpt lat="45.3427717" lon="10.6960767"><ele>98.80000000000001</ele><time>2026-03-28T09:53:28.842Z</time></trkpt><trkpt lat="45.3427867" lon="10.6961883"><ele>98.60000000000001</ele><time>2026-03-28T09:53:29.842Z</time></trkpt><trkpt lat="45.342815" lon="10.69634"><ele>98.4</ele><time>2026-03-28T09:53:31.842Z</time></trkpt><trkpt lat="45.3428333" lon="10.69644"><ele>98.2</ele><time>2026-03-28T09:53:32.842Z</time></trkpt><trkpt lat="45.3428617" lon="10.69656"><ele>98.0</ele><time>2026-03-28T09:53:33.842Z</time></trkpt><trkpt lat="45.3429067" lon="10.6967117"><ele>98.0</ele><time>2026-03-28T09:53:34.843Z</time></trkpt><trkpt lat="45.34297" lon="10.6968917"><ele>98.0</ele><time>2026-03-28T09:53:35.842Z</time></trkpt><trkpt lat="45.34304" lon="10.6971117"><ele>98.0</ele><time>2026-03-28T09:53:36.843Z</time></trkpt><trkpt lat="45.3431217" lon="10.697335"><ele>98.33333333333333</ele><time>2026-03-28T09:53:37.843Z</time></trkpt><trkpt lat="45.3432067" lon="10.697575"><ele>98.66666666666666</ele><time>2026-03-28T09:53:38.842Z</time></trkpt><trkpt lat="45.343275" lon="10.6977867"><ele>99.0</ele><time>2026-03-28T09:53:39.842Z</time></trkpt><trkpt lat="45.3433433" lon="10.697985"><ele>99.0</ele><time>2026-03-28T09:53:40.842Z</time></trkpt><trkpt lat="45.3434" lon="10.698155"><ele>99.0</ele><time>2026-03-28T09:53:41.843Z</time></trkpt><trkpt lat="45.3434517" lon="10.698325"><ele>99.0</ele><time>2026-03-28T09:53:42.843Z</time></trkpt><trkpt lat="45.3435133" lon="10.6984883"><ele>99.0</ele><time>2026-03-28T09:53:43.842Z</time></trkpt><trkpt lat="45.3436183" lon="10.69867"><ele>99.0</ele><time>2026-03-28T09:53:44.842Z</time></trkpt><trkpt lat="45.3437383" lon="10.6988617"><ele>99.0</ele><time>2026-03-28T09:53:45.843Z</time></trkpt><trkpt lat="45.343845" lon="10.6990667"><ele>99.0</ele><time>2026-03-28T09:53:46.842Z</time></trkpt><trkpt lat="45.3439533" lon="10.6992767"><ele>98.0</ele><time>2026-03-28T09:53:47.842Z</time></trkpt><trkpt lat="45.3440583" lon="10.6995017"><ele>97.0</ele><time>2026-03-28T09:53:48.842Z</time></trkpt><trkpt lat="45.344165" lon="10.6997533"><ele>96.0</ele><time>2026-03-28T09:53:49.842Z</time></trkpt><trkpt lat="45.34428" lon="10.700005"><ele>96.0</ele><time>2026-03-28T09:53:50.842Z</time></trkpt><trkpt lat="45.3443817" lon="10.70024"><ele>96.0</ele><time>2026-03-28T09:53:51.843Z</time></trkpt><trkpt lat="45.3444633" lon="10.7004317"><ele>96.0</ele><time>2026-03-28T09:53:52.842Z</time></trkpt><trkpt lat="45.3445417" lon="10.700605"><ele>96.0</ele><time>2026-03-28T09:53:53.843Z</time></trkpt><trkpt lat="45.3445967" lon="10.7007633"><ele>96.0</ele><time>2026-03-28T09:53:54.843Z</time></trkpt><trkpt lat="45.3446467" lon="10.70089"><ele>96.0</ele><time>2026-03-28T09:53:55.842Z</time></trkpt><trkpt lat="45.344685" lon="10.701"><ele>96.0</ele><time>2026-03-28T09:53:56.842Z</time></trkpt><trkpt lat="45.3447217" lon="10.7010983"><ele>96.0</ele><time>2026-03-28T09:53:57.842Z</time></trkpt><trkpt lat="45.3447583" lon="10.7011867"><ele>96.0</ele><time>2026-03-28T09:53:58.842Z</time></trkpt><trkpt lat="45.34479" lon="10.701265"><ele>96.0</ele><time>2026-03-28T09:53:59.843Z</time></trkpt><trkpt lat="45.3448283" lon="10.7013833"><ele>96.0</ele><time>2026-03-28T09:54:01.842Z</time></trkpt><trkpt lat="45.3449133" lon="10.7014183"><ele>96.0</ele><time>2026-03-28T09:54:04.842Z</time></trkpt><trkpt lat="45.345005" lon="10.7012633"><ele>96.0</ele><time>2026-03-28T09:54:06.843Z</time></trkpt><trkpt lat="45.3450667" lon="10.7011283"><ele>96.33333333333334</ele><time>2026-03-28T09:54:07.843Z</time></trkpt><trkpt lat="45.3451467" lon="10.7009483"><ele>96.66666666666667</ele><time>2026-03-28T09:54:08.843Z</time></trkpt><trkpt lat="45.3452283" lon="10.7007583"><ele>97.0</ele><time>2026-03-28T09:54:09.843Z</time></trkpt><trkpt lat="45.3453067" lon="10.70055"><ele>97.0</ele><time>2026-03-28T09:54:10.843Z</time></trkpt><trkpt lat="45.345415" lon="10.700335"><ele>97.0</ele><time>2026-03-28T09:54:11.842Z</time></trkpt><trkpt lat="45.3455217" lon="10.7001267"><ele>97.0</ele><time>2026-03-28T09:54:12.842Z</time></trkpt><trkpt lat="45.3456217" lon="10.69995"><ele>101.0</ele><time>2026-03-28T09:54:13.843Z</time></trkpt><trkpt lat="45.3457217" lon="10.6997833"><ele>105.0</ele><time>2026-03-28T09:54:14.843Z</time></trkpt><trkpt lat="45.34583" lon="10.6996183"><ele>109.0</ele><time>2026-03-28T09:54:15.842Z</time></trkpt><trkpt lat="45.3459283" lon="10.69946"><ele>109.5</ele><time>2026-03-28T09:54:16.843Z</time></trkpt><trkpt lat="45.3460067" lon="10.6993167"><ele>110.0</ele><time>2026-03-28T09:54:17.842Z</time></trkpt><trkpt lat="45.3460817" lon="10.6991617"><ele>110.5</ele><time>2026-03-28T09:54:18.843Z</time></trkpt><trkpt lat="45.34613" lon="10.6990217"><ele>111.0</ele><time>2026-03-28T09:54:19.843Z</time></trkpt><trkpt lat="45.3461767" lon="10.69887"><ele>111.0</ele><time>2026-03-28T09:54:20.843Z</time></trkpt><trkpt lat="45.3462183" lon="10.69873"><ele>111.0</ele><time>2026-03-28T09:54:21.842Z</time></trkpt><trkpt lat="45.3462533" lon="10.6985733"><ele>111.0</ele><time>2026-03-28T09:54:22.842Z</time></trkpt><trkpt lat="45.3462917" lon="10.698415"><ele>111.0</ele><time>2026-03-28T09:54:23.843Z</time></trkpt><trkpt lat="45.3463517" lon="10.69824"><ele>109.25</ele><time>2026-03-28T09:54:24.842Z</time></trkpt><trkpt lat="45.3464217" lon="10.69806"><ele>107.5</ele><time>2026-03-28T09:54:25.843Z</time></trkpt><trkpt lat="45.3464917" lon="10.6978833"><ele>105.75</ele><time>2026-03-28T09:54:26.842Z</time></trkpt><trkpt lat="45.3465733" lon="10.6977083"><ele>104.0</ele><time>2026-03-28T09:54:27.842Z</time></trkpt><trkpt lat="45.34667" lon="10.69753"><ele>103.25</ele><time>2026-03-28T09:54:28.843Z</time></trkpt><trkpt lat="45.3467617" lon="10.6973667"><ele>102.5</ele><time>2026-03-28T09:54:29.843Z</time></trkpt><trkpt lat="45.3468583" lon="10.6972183"><ele>101.75</ele><time>2026-03-28T09:54:30.842Z</time></trkpt><trkpt lat="45.3469433" lon="10.697095"><ele>101.0</ele><time>2026-03-28T09:54:31.842Z</time></trkpt><trkpt lat="45.347035" lon="10.6969717"><ele>100.75</ele><time>2026-03-28T09:54:32.843Z</time></trkpt><trkpt lat="45.347135" lon="10.69686"><ele>100.5</ele><time>2026-03-28T09:54:33.842Z</time></trkpt><trkpt lat="45.3472433" lon="10.6967633"><ele>100.25</ele><time>2026-03-28T09:54:34.842Z</time></trkpt><trkpt lat="45.3473633" lon="10.69668"><ele>100.0</ele><time>2026-03-28T09:54:35.842Z</time></trkpt><trkpt lat="45.3474967" lon="10.6966117"><ele>99.75</ele><time>2026-03-28T09:54:36.842Z</time></trkpt><trkpt lat="45.3476283" lon="10.6965433"><ele>99.5</ele><time>2026-03-28T09:54:37.842Z</time></trkpt><trkpt lat="45.3477467" lon="10.6964783"><ele>99.25</ele><time>2026-03-28T09:54:38.843Z</time></trkpt><trkpt lat="45.3478483" lon="10.696415"><ele>99.0</ele><time>2026-03-28T09:54:39.842Z</time></trkpt><trkpt lat="45.3479217" lon="10.69636"><ele>99.0</ele><time>2026-03-28T09:54:40.842Z</time></trkpt><trkpt lat="45.34799" lon="10.6963033"><ele>99.0</ele><time>2026-03-28T09:54:41.843Z</time></trkpt><trkpt lat="45.3480667" lon="10.6962383"><ele>99.0</ele><time>2026-03-28T09:54:42.843Z</time></trkpt><trkpt lat="45.34814" lon="10.69619"><ele>99.0</ele><time>2026-03-28T09:54:43.843Z</time></trkpt><trkpt lat="45.34822" lon="10.6961467"><ele>99.0</ele><time>2026-03-28T09:54:44.842Z</time></trkpt><trkpt lat="45.34832" lon="10.6961233"><ele>99.0</ele><time>2026-03-28T09:54:45.843Z</time></trkpt><trkpt lat="45.3484433" lon="10.6961217"><ele>98.5</ele><time>2026-03-28T09:54:46.843Z</time></trkpt><trkpt lat="45.3485683" lon="10.6961367"><ele>98.0</ele><time>2026-03-28T09:54:47.842Z</time></trkpt><trkpt lat="45.3487083" lon="10.6961517"><ele>97.5</ele><time>2026-03-28T09:54:48.842Z</time></trkpt><trkpt lat="45.3488467" lon="10.6961667"><ele>97.0</ele><time>2026-03-28T09:54:49.843Z</time></trkpt><trkpt lat="45.34899" lon="10.6961733"><ele>96.19999999999999</ele><time>2026-03-28T09:54:50.842Z</time></trkpt><trkpt lat="45.34912" lon="10.6961767"><ele>95.4</ele><time>2026-03-28T09:54:51.842Z</time></trkpt><trkpt lat="45.34923" lon="10.6961817"><ele>94.6</ele><time>2026-03-28T09:54:52.842Z</time></trkpt><trkpt lat="45.34932" lon="10.6962083"><ele>93.80000000000001</ele><time>2026-03-28T09:54:53.842Z</time></trkpt><trkpt lat="45.3493917" lon="10.6962533"><ele>93.0</ele><time>2026-03-28T09:54:54.842Z</time></trkpt><trkpt lat="45.3494517" lon="10.6963217"><ele>93.0</ele><time>2026-03-28T09:54:55.843Z</time></trkpt><trkpt lat="45.349485" lon="10.6964367"><ele>93.0</ele><time>2026-03-28T09:54:56.843Z</time></trkpt><trkpt lat="45.3494967" lon="10.6965933"><ele>93.0</ele><time>2026-03-28T09:54:57.843Z</time></trkpt><trkpt lat="45.3494933" lon="10.69677"><ele>93.0</ele><time>2026-03-28T09:54:58.843Z</time></trkpt><trkpt lat="45.3494883" lon="10.69696"><ele>93.66666666666667</ele><time>2026-03-28T09:54:59.843Z</time></trkpt><trkpt lat="45.3494867" lon="10.6971833"><ele>94.33333333333334</ele><time>2026-03-28T09:55:00.842Z</time></trkpt><trkpt lat="45.349495" lon="10.6974317"><ele>95.0</ele><time>2026-03-28T09:55:01.843Z</time></trkpt><trkpt lat="45.3495117" lon="10.6976733"><ele>95.33333333333334</ele><time>2026-03-28T09:55:02.843Z</time></trkpt><trkpt lat="45.3495333" lon="10.6979233"><ele>95.66666666666667</ele><time>2026-03-28T09:55:03.842Z</time></trkpt><trkpt lat="45.3495467" lon="10.69816"><ele>96.0</ele><time>2026-03-28T09:55:04.842Z</time></trkpt><trkpt lat="45.349565" lon="10.6984017"><ele>97.33333333333334</ele><time>2026-03-28T09:55:05.843Z</time></trkpt><trkpt lat="45.349575" lon="10.6986417"><ele>98.66666666666667</ele><time>2026-03-28T09:55:06.843Z</time></trkpt><trkpt lat="45.3495917" lon="10.698865"><ele>100.0</ele><time>2026-03-28T09:55:07.842Z</time></trkpt><trkpt lat="45.3495983" lon="10.699095"><ele>100.0</ele><time>2026-03-28T09:55:08.843Z</time></trkpt><trkpt lat="45.3496083" lon="10.6993167"><ele>100.0</ele><time>2026-03-28T09:55:09.842Z</time></trkpt><trkpt lat="45.349605" lon="10.6995417"><ele>100.0</ele><time>2026-03-28T09:55:10.842Z</time></trkpt><trkpt lat="45.349615" lon="10.699755"><ele>99.25</ele><time>2026-03-28T09:55:11.842Z</time></trkpt><trkpt lat="45.3496083" lon="10.6999767"><ele>98.5</ele><time>2026-03-28T09:55:12.843Z</time></trkpt><trkpt lat="45.3495983" lon="10.700175"><ele>97.75</ele><time>2026-03-28T09:55:13.842Z</time></trkpt><trkpt lat="45.3495767" lon="10.70037"><ele>97.0</ele><time>2026-03-28T09:55:14.843Z</time></trkpt><trkpt lat="45.3495583" lon="10.7005617"><ele>96.25</ele><time>2026-03-28T09:55:15.842Z</time></trkpt><trkpt lat="45.34955" lon="10.7007717"><ele>95.5</ele><time>2026-03-28T09:55:16.843Z</time></trkpt><trkpt lat="45.3495283" lon="10.70098"><ele>94.75</ele><time>2026-03-28T09:55:17.843Z</time></trkpt><trkpt lat="45.349505" lon="10.7011717"><ele>94.0</ele><time>2026-03-28T09:55:18.842Z</time></trkpt><trkpt lat="45.3494833" lon="10.70137"><ele>93.66666666666666</ele><time>2026-03-28T09:55:19.842Z</time></trkpt><trkpt lat="45.3494767" lon="10.70158"><ele>93.33333333333333</ele><time>2026-03-28T09:55:20.843Z</time></trkpt><trkpt lat="45.3494783" lon="10.7018"><ele>93.0</ele><time>2026-03-28T09:55:21.842Z</time></trkpt><trkpt lat="45.34948" lon="10.702025"><ele>92.33333333333333</ele><time>2026-03-28T09:55:22.843Z</time></trkpt><trkpt lat="45.349495" lon="10.70226"><ele>91.66666666666666</ele><time>2026-03-28T09:55:23.842Z</time></trkpt><trkpt lat="45.3494967" lon="10.702505"><ele>91.0</ele><time>2026-03-28T09:55:24.842Z</time></trkpt><trkpt lat="45.3495033" lon="10.702745"><ele>89.66666666666666</ele><time>2026-03-28T09:55:25.842Z</time></trkpt><trkpt lat="45.3495133" lon="10.7029833"><ele>88.33333333333333</ele><time>2026-03-28T09:55:26.842Z</time></trkpt><trkpt lat="45.349535" lon="10.70322"><ele>87.0</ele><time>2026-03-28T09:55:27.842Z</time></trkpt><trkpt lat="45.3495517" lon="10.7034667"><ele>86.0</ele><time>2026-03-28T09:55:28.843Z</time></trkpt><trkpt lat="45.349565" lon="10.7037033"><ele>85.0</ele><time>2026-03-28T09:55:29.842Z</time></trkpt><trkpt lat="45.349565" lon="10.703945"><ele>84.0</ele><time>2026-03-28T09:55:30.842Z</time></trkpt><trkpt lat="45.349555" lon="10.704175"><ele>84.0</ele><time>2026-03-28T09:55:31.842Z</time></trkpt><trkpt lat="45.349535" lon="10.7043883"><ele>84.0</ele><time>2026-03-28T09:55:32.843Z</time></trkpt><trkpt lat="45.3495" lon="10.7046033"><ele>84.0</ele><time>2026-03-28T09:55:33.842Z</time></trkpt><trkpt lat="45.3494733" lon="10.7048117"><ele>84.0</ele><time>2026-03-28T09:55:34.842Z</time></trkpt><trkpt lat="45.349475" lon="10.7050017"><ele>84.0</ele><time>2026-03-28T09:55:35.842Z</time></trkpt><trkpt lat="45.349505" lon="10.7051983"><ele>84.0</ele><time>2026-03-28T09:55:36.843Z</time></trkpt><trkpt lat="45.34955" lon="10.70538"><ele>84.0</ele><time>2026-03-28T09:55:37.842Z</time></trkpt><trkpt lat="45.349605" lon="10.7055533"><ele>84.66666666666667</ele><time>2026-03-28T09:55:38.843Z</time></trkpt><trkpt lat="45.3496817" lon="10.70573"><ele>85.33333333333334</ele><time>2026-03-28T09:55:39.843Z</time></trkpt><trkpt lat="45.3497817" lon="10.7059117"><ele>86.0</ele><time>2026-03-28T09:55:40.843Z</time></trkpt><trkpt lat="45.349885" lon="10.7061067"><ele>79.33333333333334</ele><time>2026-03-28T09:55:41.843Z</time></trkpt><trkpt lat="45.349995" lon="10.7063083"><ele>72.66666666666667</ele><time>2026-03-28T09:55:42.842Z</time></trkpt><trkpt lat="45.350115" lon="10.7065133"><ele>66.0</ele><time>2026-03-28T09:55:43.842Z</time></trkpt><trkpt lat="45.3502217" lon="10.7067367"><ele>66.0</ele><time>2026-03-28T09:55:44.843Z</time></trkpt><trkpt lat="45.3503283" lon="10.7069483"><ele>66.0</ele><time>2026-03-28T09:55:45.842Z</time></trkpt><trkpt lat="45.3504217" lon="10.7071583"><ele>66.0</ele><time>2026-03-28T09:55:46.842Z</time></trkpt><trkpt lat="45.3505133" lon="10.7073633"><ele>67.33333333333333</ele><time>2026-03-28T09:55:47.842Z</time></trkpt><trkpt lat="45.3505883" lon="10.7075633"><ele>68.66666666666666</ele><time>2026-03-28T09:55:48.842Z</time></trkpt><trkpt lat="45.3506617" lon="10.7077583"><ele>70.0</ele><time>2026-03-28T09:55:49.842Z</time></trkpt><trkpt lat="45.3507317" lon="10.7079517"><ele>70.33333333333333</ele><time>2026-03-28T09:55:50.842Z</time></trkpt><trkpt lat="45.3508067" lon="10.7081517"><ele>70.66666666666667</ele><time>2026-03-28T09:55:51.842Z</time></trkpt><trkpt lat="45.3508933" lon="10.7083533"><ele>71.0</ele><time>2026-03-28T09:55:52.843Z</time></trkpt><trkpt lat="45.3509733" lon="10.7085583"><ele>70.33333333333334</ele><time>2026-03-28T09:55:53.842Z</time></trkpt><trkpt lat="45.3510483" lon="10.7087717"><ele>69.66666666666667</ele><time>2026-03-28T09:55:54.842Z</time></trkpt><trkpt lat="45.351115" lon="10.7089817"><ele>69.0</ele><time>2026-03-28T09:55:55.843Z</time></trkpt><trkpt lat="45.3511833" lon="10.709215"><ele>68.66666666666667</ele><time>2026-03-28T09:55:56.843Z</time></trkpt><trkpt lat="45.3512583" lon="10.70946"><ele>68.33333333333334</ele><time>2026-03-28T09:55:57.843Z</time></trkpt><trkpt lat="45.35133" lon="10.7097"><ele>68.0</ele><time>2026-03-28T09:55:58.842Z</time></trkpt><trkpt lat="45.3513967" lon="10.709925"><ele>67.33333333333334</ele><time>2026-03-28T09:55:59.843Z</time></trkpt><trkpt lat="45.3514667" lon="10.7101433"><ele>66.66666666666667</ele><time>2026-03-28T09:56:00.842Z</time></trkpt><trkpt lat="45.35155" lon="10.7103633"><ele>66.0</ele><time>2026-03-28T09:56:01.843Z</time></trkpt><trkpt lat="45.351645" lon="10.710575"><ele>66.0</ele><time>2026-03-28T09:56:02.843Z</time></trkpt><trkpt lat="45.351745" lon="10.7107917"><ele>66.0</ele><time>2026-03-28T09:56:03.843Z</time></trkpt><trkpt lat="45.3518483" lon="10.7109933"><ele>66.0</ele><time>2026-03-28T09:56:04.843Z</time></trkpt><trkpt lat="45.3519633" lon="10.71119"><ele>66.33333333333333</ele><time>2026-03-28T09:56:05.843Z</time></trkpt><trkpt lat="45.3520783" lon="10.7113783"><ele>66.66666666666666</ele><time>2026-03-28T09:56:06.842Z</time></trkpt><trkpt lat="45.352185" lon="10.7115533"><ele>67.0</ele><time>2026-03-28T09:56:07.843Z</time></trkpt><trkpt lat="45.3522833" lon="10.7117067"><ele>67.0</ele><time>2026-03-28T09:56:08.843Z</time></trkpt><trkpt lat="45.3523717" lon="10.7118283"><ele>67.0</ele><time>2026-03-28T09:56:09.843Z</time></trkpt><trkpt lat="45.352435" lon="10.7119383"><ele>67.0</ele><time>2026-03-28T09:56:10.842Z</time></trkpt><trkpt lat="45.35249" lon="10.71204"><ele>67.0</ele><time>2026-03-28T09:56:11.843Z</time></trkpt><trkpt lat="45.3525433" lon="10.7121433"><ele>67.0</ele><time>2026-03-28T09:56:12.843Z</time></trkpt><trkpt lat="45.3525967" lon="10.7122517"><ele>67.0</ele><time>2026-03-28T09:56:13.842Z</time></trkpt><trkpt lat="45.35266" lon="10.7123833"><ele>67.0</ele><time>2026-03-28T09:56:14.842Z</time></trkpt><trkpt lat="45.352735" lon="10.7125333"><ele>67.0</ele><time>2026-03-28T09:56:15.842Z</time></trkpt><trkpt lat="45.3528267" lon="10.7127083"><ele>67.0</ele><time>2026-03-28T09:56:16.843Z</time></trkpt><trkpt lat="45.3529267" lon="10.7128933"><ele>69.0</ele><time>2026-03-28T09:56:17.842Z</time></trkpt><trkpt lat="45.35304" lon="10.7130933"><ele>71.0</ele><time>2026-03-28T09:56:18.843Z</time></trkpt><trkpt lat="45.3531517" lon="10.7132883"><ele>73.0</ele><time>2026-03-28T09:56:19.843Z</time></trkpt><trkpt lat="45.35326" lon="10.7134783"><ele>71.75</ele><time>2026-03-28T09:56:20.842Z</time></trkpt><trkpt lat="45.3533583" lon="10.7136467"><ele>70.5</ele><time>2026-03-28T09:56:21.843Z</time></trkpt><trkpt lat="45.3534467" lon="10.713805"><ele>69.25</ele><time>2026-03-28T09:56:22.843Z</time></trkpt><trkpt lat="45.3535183" lon="10.7139517"><ele>68.0</ele><time>2026-03-28T09:56:23.842Z</time></trkpt><trkpt lat="45.3535817" lon="10.7140917"><ele>68.0</ele><time>2026-03-28T09:56:24.842Z</time></trkpt><trkpt lat="45.3536417" lon="10.714255"><ele>68.0</ele><time>2026-03-28T09:56:25.842Z</time></trkpt><trkpt lat="45.353685" lon="10.714455"><ele>68.0</ele><time>2026-03-28T09:56:26.842Z</time></trkpt><trkpt lat="45.35372" lon="10.7146883"><ele>68.0</ele><time>2026-03-28T09:56:27.842Z</time></trkpt><trkpt lat="45.35376" lon="10.7149267"><ele>67.33333333333334</ele><time>2026-03-28T09:56:28.843Z</time></trkpt><trkpt lat="45.3537817" lon="10.7152"><ele>66.66666666666667</ele><time>2026-03-28T09:56:29.842Z</time></trkpt><trkpt lat="45.3537883" lon="10.715485"><ele>66.0</ele><time>2026-03-28T09:56:30.842Z</time></trkpt><trkpt lat="45.3537833" lon="10.715775"><ele>65.0</ele><time>2026-03-28T09:56:31.842Z</time></trkpt><trkpt lat="45.353765" lon="10.7160617"><ele>64.0</ele><time>2026-03-28T09:56:32.843Z</time></trkpt><trkpt lat="45.3537533" lon="10.7163283"><ele>63.0</ele><time>2026-03-28T09:56:33.842Z</time></trkpt><trkpt lat="45.3537533" lon="10.716585"><ele>62.66666666666667</ele><time>2026-03-28T09:56:34.842Z</time></trkpt><trkpt lat="45.3537767" lon="10.71684"><ele>62.333333333333336</ele><time>2026-03-28T09:56:35.842Z</time></trkpt><trkpt lat="45.353815" lon="10.7170967"><ele>62.0</ele><time>2026-03-28T09:56:36.843Z</time></trkpt><trkpt lat="45.3538683" lon="10.71733"><ele>62.333333333333336</ele><time>2026-03-28T09:56:37.843Z</time></trkpt><trkpt lat="45.3539417" lon="10.7175433"><ele>62.66666666666667</ele><time>2026-03-28T09:56:38.843Z</time></trkpt><trkpt lat="45.354035" lon="10.7177483"><ele>63.0</ele><time>2026-03-28T09:56:39.842Z</time></trkpt><trkpt lat="45.354135" lon="10.7179533"><ele>63.0</ele><time>2026-03-28T09:56:40.843Z</time></trkpt><trkpt lat="45.3542483" lon="10.7181517"><ele>63.0</ele><time>2026-03-28T09:56:41.843Z</time></trkpt><trkpt lat="45.3543617" lon="10.7183517"><ele>63.0</ele><time>2026-03-28T09:56:42.843Z</time></trkpt><trkpt lat="45.35447" lon="10.7185583"><ele>62.66666666666667</ele><time>2026-03-28T09:56:43.843Z</time></trkpt><trkpt lat="45.3545733" lon="10.7187617"><ele>62.333333333333336</ele><time>2026-03-28T09:56:44.842Z</time></trkpt><trkpt lat="45.354685" lon="10.7189583"><ele>62.0</ele><time>2026-03-28T09:56:45.843Z</time></trkpt><trkpt lat="45.3547917" lon="10.7191517"><ele>62.66666666666667</ele><time>2026-03-28T09:56:46.842Z</time></trkpt><trkpt lat="45.3548967" lon="10.719335"><ele>63.33333333333333</ele><time>2026-03-28T09:56:47.842Z</time></trkpt><trkpt lat="45.3550017" lon="10.7195167"><ele>64.0</ele><time>2026-03-28T09:56:48.843Z</time></trkpt><trkpt lat="45.3551" lon="10.7196983"><ele>64.0</ele><time>2026-03-28T09:56:49.843Z</time></trkpt><trkpt lat="45.355185" lon="10.7198583"><ele>64.0</ele><time>2026-03-28T09:56:50.842Z</time></trkpt><trkpt lat="45.3552617" lon="10.7200133"><ele>64.0</ele><time>2026-03-28T09:56:51.842Z</time></trkpt><trkpt lat="45.3553333" lon="10.720155"><ele>64.0</ele><time>2026-03-28T09:56:52.842Z</time></trkpt><trkpt lat="45.3554" lon="10.720285"><ele>63.400000000000006</ele><time>2026-03-28T09:56:53.842Z</time></trkpt><trkpt lat="45.3554667" lon="10.7204167"><ele>62.800000000000004</ele><time>2026-03-28T09:56:54.842Z</time></trkpt><trkpt lat="45.355535" lon="10.7205417"><ele>62.199999999999996</ele><time>2026-03-28T09:56:55.842Z</time></trkpt><trkpt lat="45.355595" lon="10.7206667"><ele>61.599999999999994</ele><time>2026-03-28T09:56:56.843Z</time></trkpt><trkpt lat="45.3556667" lon="10.7207917"><ele>61.0</ele><time>2026-03-28T09:56:57.842Z</time></trkpt><trkpt lat="45.3557417" lon="10.72091"><ele>61.49999999999999</ele><time>2026-03-28T09:56:58.842Z</time></trkpt><trkpt lat="45.3558083" lon="10.7210133"><ele>62.0</ele><time>2026-03-28T09:56:59.842Z</time></trkpt><trkpt lat="45.3558683" lon="10.7211117"><ele>62.5</ele><time>2026-03-28T09:57:00.843Z</time></trkpt><trkpt lat="45.3559217" lon="10.7211917"><ele>63.0</ele><time>2026-03-28T09:57:01.842Z</time></trkpt><trkpt lat="45.355985" lon="10.7212567"><ele>63.49999999999999</ele><time>2026-03-28T09:57:02.842Z</time></trkpt><trkpt lat="45.3560417" lon="10.7213117"><ele>64.0</ele><time>2026-03-28T09:57:03.843Z</time></trkpt><trkpt lat="45.3561083" lon="10.7214233"><ele>64.0</ele><time>2026-03-28T09:57:05.843Z</time></trkpt><trkpt lat="45.3561233" lon="10.72159"><ele>64.0</ele><time>2026-03-28T09:57:07.843Z</time></trkpt><trkpt lat="45.3560967" lon="10.72169"><ele>64.0</ele><time>2026-03-28T09:57:08.842Z</time></trkpt><trkpt lat="45.35604" lon="10.72181"><ele>64.0</ele><time>2026-03-28T09:57:09.842Z</time></trkpt><trkpt lat="45.3559667" lon="10.7219517"><ele>64.0</ele><time>2026-03-28T09:57:10.842Z</time></trkpt><trkpt lat="45.3558883" lon="10.72212"><ele>62.33333333333333</ele><time>2026-03-28T09:57:11.843Z</time></trkpt><trkpt lat="45.3558183" lon="10.7222933"><ele>60.66666666666667</ele><time>2026-03-28T09:57:12.842Z</time></trkpt><trkpt lat="45.3557467" lon="10.7224917"><ele>59.0</ele><time>2026-03-28T09:57:13.842Z</time></trkpt><trkpt lat="45.3556767" lon="10.7226983"><ele>59.333333333333336</ele><time>2026-03-28T09:57:14.842Z</time></trkpt><trkpt lat="45.3555983" lon="10.7229067"><ele>59.66666666666667</ele><time>2026-03-28T09:57:15.843Z</time></trkpt><trkpt lat="45.3555267" lon="10.72311"><ele>60.0</ele><time>2026-03-28T09:57:16.842Z</time></trkpt><trkpt lat="45.3554667" lon="10.7232683"><ele>60.0</ele><time>2026-03-28T09:57:17.842Z</time></trkpt><trkpt lat="45.3554083" lon="10.7234183"><ele>60.0</ele><time>2026-03-28T09:57:18.842Z</time></trkpt><trkpt lat="45.3553617" lon="10.7235583"><ele>60.0</ele><time>2026-03-28T09:57:19.843Z</time></trkpt><trkpt lat="45.3553167" lon="10.72369"><ele>60.0</ele><time>2026-03-28T09:57:20.843Z</time></trkpt><trkpt lat="45.35527" lon="10.72381"><ele>60.0</ele><time>2026-03-28T09:57:21.842Z</time></trkpt><trkpt lat="45.3552233" lon="10.7239367"><ele>60.0</ele><time>2026-03-28T09:57:22.842Z</time></trkpt><trkpt lat="45.3551767" lon="10.7240633"><ele>60.0</ele><time>2026-03-28T09:57:23.842Z</time></trkpt><trkpt lat="45.3551333" lon="10.72419"><ele>60.0</ele><time>2026-03-28T09:57:24.842Z</time></trkpt><trkpt lat="45.3550983" lon="10.72431"><ele>60.0</ele><time>2026-03-28T09:57:25.843Z</time></trkpt><trkpt lat="45.3550617" lon="10.7244133"><ele>60.0</ele><time>2026-03-28T09:57:26.843Z</time></trkpt><trkpt lat="45.3550267" lon="10.7245117"><ele>60.0</ele><time>2026-03-28T09:57:27.842Z</time></trkpt><trkpt lat="45.3549867" lon="10.72461"><ele>60.0</ele><time>2026-03-28T09:57:28.843Z</time></trkpt><trkpt lat="45.3549433" lon="10.724705"><ele>60.0</ele><time>2026-03-28T09:57:29.842Z</time></trkpt><trkpt lat="45.35491" lon="10.724785"><ele>60.0</ele><time>2026-03-28T09:57:30.842Z</time></trkpt><trkpt lat="45.35486" lon="10.7248883"><ele>60.0</ele><time>2026-03-28T09:57:32.842Z</time></trkpt><trkpt lat="45.354855" lon="10.7250233"><ele>60.0</ele><time>2026-03-28T09:58:02.842Z</time></trkpt><trkpt lat="45.35481" lon="10.7251483"><ele>59.4</ele><time>2026-03-28T09:58:04.843Z</time></trkpt><trkpt lat="45.35477" lon="10.7252567"><ele>58.8</ele><time>2026-03-28T09:58:05.843Z</time></trkpt><trkpt lat="45.354725" lon="10.7254"><ele>58.2</ele><time>2026-03-28T09:58:06.843Z</time></trkpt><trkpt lat="45.3546733" lon="10.72554"><ele>57.6</ele><time>2026-03-28T09:58:07.843Z</time></trkpt><trkpt lat="45.3546183" lon="10.72568"><ele>57.0</ele><time>2026-03-28T09:58:08.842Z</time></trkpt><trkpt lat="45.354565" lon="10.7258167"><ele>57.0</ele><time>2026-03-28T09:58:09.843Z</time></trkpt><trkpt lat="45.3544917" lon="10.72598"><ele>57.0</ele><time>2026-03-28T09:58:10.843Z</time></trkpt><trkpt lat="45.35443" lon="10.72615"><ele>57.0</ele><time>2026-03-28T09:58:11.843Z</time></trkpt><trkpt lat="45.35437" lon="10.7263117"><ele>57.0</ele><time>2026-03-28T09:58:12.843Z</time></trkpt><trkpt lat="45.354315" lon="10.7264683"><ele>57.5</ele><time>2026-03-28T09:58:13.843Z</time></trkpt><trkpt lat="45.3542633" lon="10.7266317"><ele>58.0</ele><time>2026-03-28T09:58:14.842Z</time></trkpt><trkpt lat="45.3542167" lon="10.7268067"><ele>58.5</ele><time>2026-03-28T09:58:15.843Z</time></trkpt><trkpt lat="45.354165" lon="10.7269783"><ele>59.0</ele><time>2026-03-28T09:58:16.842Z</time></trkpt><trkpt lat="45.3541017" lon="10.7271433"><ele>59.25</ele><time>2026-03-28T09:58:17.843Z</time></trkpt><trkpt lat="45.35404" lon="10.7273033"><ele>59.5</ele><time>2026-03-28T09:58:18.843Z</time></trkpt><trkpt lat="45.353975" lon="10.72747"><ele>59.75</ele><time>2026-03-28T09:58:19.843Z</time></trkpt><trkpt lat="45.353915" lon="10.727635"><ele>60.0</ele><time>2026-03-28T09:58:20.843Z</time></trkpt><trkpt lat="45.3538617" lon="10.7278"><ele>62.666666666666664</ele><time>2026-03-28T09:58:21.842Z</time></trkpt><trkpt lat="45.3538067" lon="10.7279317"><ele>65.33333333333333</ele><time>2026-03-28T09:58:22.843Z</time></trkpt><trkpt lat="45.3537683" lon="10.7280267"><ele>68.0</ele><time>2026-03-28T09:58:23.842Z</time></trkpt><trkpt lat="45.3537217" lon="10.7281283"><ele>70.66666666666666</ele><time>2026-03-28T09:58:25.843Z</time></trkpt><trkpt lat="45.3536817" lon="10.728225"><ele>73.33333333333333</ele><time>2026-03-28T09:58:28.843Z</time></trkpt><trkpt lat="45.353635" lon="10.728325"><ele>76.0</ele><time>2026-03-28T09:58:30.842Z</time></trkpt><trkpt lat="45.35362" lon="10.7284217"><ele>76.0</ele><time>2026-03-28T09:58:32.842Z</time></trkpt><trkpt lat="45.3536617" lon="10.7285233"><ele>76.0</ele><time>2026-03-28T09:58:34.841Z</time></trkpt><trkpt lat="45.3537333" lon="10.7285867"><ele>76.0</ele><time>2026-03-28T09:58:37.842Z</time></trkpt><trkpt lat="45.3537817" lon="10.728645"><ele>76.0</ele><time>2026-03-28T09:58:41.841Z</time></trkpt><trkpt lat="45.35384" lon="10.7287117"><ele>76.0</ele><time>2026-03-28T09:59:57.841Z</time></trkpt><trkpt lat="45.3538933" lon="10.72876"><ele>76.0</ele><time>2026-03-28T10:00:00.842Z</time></trkpt><trkpt lat="45.3539833" lon="10.7286517"><ele>77.19999999999999</ele><time>2026-03-28T10:11:57.84Z</time></trkpt><trkpt lat="45.3539217" lon="10.7287117"><ele>78.39999999999999</ele><time>2026-03-28T10:22:15.836Z</time></trkpt><trkpt lat="45.35401" lon="10.7287417"><ele>79.6</ele><time>2026-03-28T10:22:18.836Z</time></trkpt><trkpt lat="45.3540967" lon="10.7287983"><ele>80.8</ele><time>2026-03-28T10:22:21.837Z</time></trkpt><trkpt lat="45.35422" lon="10.7288667"><ele>82.0</ele><time>2026-03-28T10:22:24.836Z</time></trkpt><trkpt lat="45.3543333" lon="10.72893"><ele>82.0</ele><time>2026-03-28T10:22:26.836Z</time></trkpt><trkpt lat="45.3543967" lon="10.728965"><ele>82.0</ele><time>2026-03-28T10:22:27.837Z</time></trkpt><trkpt lat="45.3544717" lon="10.729"><ele>82.0</ele><time>2026-03-28T10:22:28.836Z</time></trkpt><trkpt lat="45.35455" lon="10.7290367"><ele>82.0</ele><time>2026-03-28T10:22:29.837Z</time></trkpt><trkpt lat="45.3546317" lon="10.7290717"><ele>82.0</ele><time>2026-03-28T10:22:30.837Z</time></trkpt><trkpt lat="45.3547133" lon="10.7291"><ele>82.0</ele><time>2026-03-28T10:22:31.836Z</time></trkpt><trkpt lat="45.3547917" lon="10.7291333"><ele>81.6</ele><time>2026-03-28T10:22:32.836Z</time></trkpt><trkpt lat="45.3548833" lon="10.729175"><ele>81.19999999999999</ele><time>2026-03-28T10:22:33.836Z</time></trkpt><trkpt lat="45.354975" lon="10.7292233"><ele>80.8</ele><time>2026-03-28T10:22:34.837Z</time></trkpt><trkpt lat="45.3550833" lon="10.7292533"><ele>80.4</ele><time>2026-03-28T10:22:35.836Z</time></trkpt><trkpt lat="45.3551867" lon="10.7292767"><ele>80.0</ele><time>2026-03-28T10:22:36.837Z</time></trkpt><trkpt lat="45.35529" lon="10.7292983"><ele>80.0</ele><time>2026-03-28T10:22:37.836Z</time></trkpt><trkpt lat="45.3553933" lon="10.7293183"><ele>80.0</ele><time>2026-03-28T10:22:38.836Z</time></trkpt><trkpt lat="45.3554967" lon="10.729345"><ele>80.0</ele><time>2026-03-28T10:22:39.836Z</time></trkpt><trkpt lat="45.3556033" lon="10.7293717"><ele>80.0</ele><time>2026-03-28T10:22:40.836Z</time></trkpt><trkpt lat="45.35571" lon="10.7293983"><ele>80.0</ele><time>2026-03-28T10:22:41.836Z</time></trkpt><trkpt lat="45.3558183" lon="10.7294167"><ele>79.8</ele><time>2026-03-28T10:22:42.836Z</time></trkpt><trkpt lat="45.3559333" lon="10.7294233"><ele>79.6</ele><time>2026-03-28T10:22:43.836Z</time></trkpt><trkpt lat="45.3560467" lon="10.7294333"><ele>79.4</ele><time>2026-03-28T10:22:44.835Z</time></trkpt><trkpt lat="45.3561533" lon="10.7294217"><ele>79.2</ele><time>2026-03-28T10:22:45.836Z</time></trkpt><trkpt lat="45.3562383" lon="10.729405"><ele>79.0</ele><time>2026-03-28T10:22:46.835Z</time></trkpt><trkpt lat="45.35631" lon="10.72939"><ele>79.66666666666666</ele><time>2026-03-28T10:22:47.835Z</time></trkpt><trkpt lat="45.3564133" lon="10.7293633"><ele>80.33333333333333</ele><time>2026-03-28T10:22:49.836Z</time></trkpt><trkpt lat="45.3564867" lon="10.72934"><ele>81.0</ele><time>2026-03-28T10:22:51.836Z</time></trkpt><trkpt lat="45.3565533" lon="10.7293217"><ele>81.66666666666667</ele><time>2026-03-28T10:22:54.835Z</time></trkpt><trkpt lat="45.3566033" lon="10.729395"><ele>82.33333333333334</ele><time>2026-03-28T10:22:57.836Z</time></trkpt><trkpt lat="45.35655" lon="10.7294467"><ele>83.0</ele><time>2026-03-28T10:22:59.835Z</time></trkpt><trkpt lat="45.3564267" lon="10.7295117"><ele>85.33333333333334</ele><time>2026-03-28T10:23:01.836Z</time></trkpt><trkpt lat="45.3563583" lon="10.7295483"><ele>87.66666666666667</ele><time>2026-03-28T10:23:02.836Z</time></trkpt><trkpt lat="45.3562833" lon="10.7295867"><ele>90.0</ele><time>2026-03-28T10:23:03.836Z</time></trkpt><trkpt lat="45.3562083" lon="10.7296267"><ele>92.33333333333334</ele><time>2026-03-28T10:23:04.835Z</time></trkpt><trkpt lat="45.35613" lon="10.72967"><ele>94.66666666666667</ele><time>2026-03-28T10:23:05.836Z</time></trkpt><trkpt lat="45.356045" lon="10.7297133"><ele>97.0</ele><time>2026-03-28T10:23:06.836Z</time></trkpt><trkpt lat="45.3559467" lon="10.7297633"><ele>97.00000000000001</ele><time>2026-03-28T10:23:07.836Z</time></trkpt><trkpt lat="45.3558567" lon="10.7298333"><ele>97.0</ele><time>2026-03-28T10:23:08.836Z</time></trkpt><trkpt lat="45.3557767" lon="10.7299"><ele>97.0</ele><time>2026-03-28T10:23:09.835Z</time></trkpt><trkpt lat="45.35571" lon="10.7299683"><ele>97.0</ele><time>2026-03-28T10:23:10.836Z</time></trkpt><trkpt lat="45.3556633" lon="10.730035"><ele>97.00000000000001</ele><time>2026-03-28T10:23:11.835Z</time></trkpt><trkpt lat="45.3556283" lon="10.7301767"><ele>97.0</ele><time>2026-03-28T10:23:13.836Z</time></trkpt><trkpt lat="45.355655" lon="10.7303417"><ele>98.00000000000001</ele><time>2026-03-28T10:23:15.835Z</time></trkpt><trkpt lat="45.355675" lon="10.73043"><ele>99.0</ele><time>2026-03-28T10:23:16.836Z</time></trkpt><trkpt lat="45.3557017" lon="10.7305367"><ele>100.0</ele><time>2026-03-28T10:23:17.836Z</time></trkpt><trkpt lat="45.3557317" lon="10.73064"><ele>101.0</ele><time>2026-03-28T10:23:18.836Z</time></trkpt><trkpt lat="45.3557583" lon="10.73075"><ele>102.00000000000001</ele><time>2026-03-28T10:23:19.836Z</time></trkpt><trkpt lat="45.3557833" lon="10.7308633"><ele>103.0</ele><time>2026-03-28T10:23:20.835Z</time></trkpt><trkpt lat="45.3558033" lon="10.7309767"><ele>102.83333333333334</ele><time>2026-03-28T10:23:21.835Z</time></trkpt><trkpt lat="45.3558317" lon="10.73109"><ele>102.66666666666667</ele><time>2026-03-28T10:23:22.836Z</time></trkpt><trkpt lat="45.3558517" lon="10.731195"><ele>102.5</ele><time>2026-03-28T10:23:23.835Z</time></trkpt><trkpt lat="45.3558783" lon="10.7312933"><ele>102.33333333333334</ele><time>2026-03-28T10:23:24.835Z</time></trkpt><trkpt lat="45.3558917" lon="10.731385"><ele>102.16666666666667</ele><time>2026-03-28T10:23:25.836Z</time></trkpt><trkpt lat="45.3559033" lon="10.7315433"><ele>102.0</ele><time>2026-03-28T10:23:27.836Z</time></trkpt><trkpt lat="45.3558867" lon="10.7316867"><ele>102.0</ele><time>2026-03-28T10:23:29.836Z</time></trkpt><trkpt lat="45.3558467" lon="10.7318167"><ele>102.0</ele><time>2026-03-28T10:23:31.836Z</time></trkpt><trkpt lat="45.3557883" lon="10.73196"><ele>102.0</ele><time>2026-03-28T10:23:33.835Z</time></trkpt><trkpt lat="45.35573" lon="10.732085"><ele>102.0</ele><time>2026-03-28T10:23:35.835Z</time></trkpt><trkpt lat="45.35569" lon="10.73216"><ele>102.0</ele><time>2026-03-28T10:23:37.836Z</time></trkpt><trkpt lat="45.3556467" lon="10.7322483"><ele>100.83333333333333</ele><time>2026-03-28T10:23:40.835Z</time></trkpt><trkpt lat="45.3556033" lon="10.7323483"><ele>99.66666666666667</ele><time>2026-03-28T10:23:43.835Z</time></trkpt><trkpt lat="45.3555633" lon="10.73245"><ele>98.5</ele><time>2026-03-28T10:23:47.836Z</time></trkpt><trkpt lat="45.35551" lon="10.7325417"><ele>97.33333333333334</ele><time>2026-03-28T10:23:50.835Z</time></trkpt><trkpt lat="45.35547" lon="10.7326133"><ele>96.16666666666667</ele><time>2026-03-28T10:23:52.836Z</time></trkpt><trkpt lat="45.3554217" lon="10.7327117"><ele>95.0</ele><time>2026-03-28T10:23:55.835Z</time></trkpt><trkpt lat="45.3553783" lon="10.7327817"><ele>94.85714285714286</ele><time>2026-03-28T10:23:58.835Z</time></trkpt><trkpt lat="45.3553367" lon="10.73285"><ele>94.71428571428572</ele><time>2026-03-28T10:24:01.836Z</time></trkpt><trkpt lat="45.3553067" lon="10.73293"><ele>94.57142857142857</ele><time>2026-03-28T10:24:03.835Z</time></trkpt><trkpt lat="45.3552867" lon="10.7330233"><ele>94.42857142857143</ele><time>2026-03-28T10:24:05.836Z</time></trkpt><trkpt lat="45.3552567" lon="10.73312"><ele>94.28571428571428</ele><time>2026-03-28T10:24:08.835Z</time></trkpt><trkpt lat="45.355215" lon="10.733205"><ele>94.14285714285714</ele><time>2026-03-28T10:24:13.835Z</time></trkpt><trkpt lat="45.3551867" lon="10.7333183"><ele>94.0</ele><time>2026-03-28T10:24:17.835Z</time></trkpt><trkpt lat="45.35516" lon="10.733525"><ele>93.83333333333333</ele><time>2026-03-28T10:24:28.835Z</time></trkpt><trkpt lat="45.355125" lon="10.7336333"><ele>93.66666666666666</ele><time>2026-03-28T10:24:31.836Z</time></trkpt><trkpt lat="45.3550983" lon="10.7337517"><ele>93.5</ele><time>2026-03-28T10:24:34.835Z</time></trkpt><trkpt lat="45.355075" lon="10.7338667"><ele>93.33333333333333</ele><time>2026-03-28T10:24:36.836Z</time></trkpt><trkpt lat="45.3550317" lon="10.7339717"><ele>93.16666666666667</ele><time>2026-03-28T10:24:38.835Z</time></trkpt><trkpt lat="45.3549717" lon="10.7340733"><ele>93.0</ele><time>2026-03-28T10:24:41.836Z</time></trkpt><trkpt lat="45.3549117" lon="10.7341617"><ele>93.0</ele><time>2026-03-28T10:24:43.835Z</time></trkpt><trkpt lat="45.3548817" lon="10.7342517"><ele>93.0</ele><time>2026-03-28T10:24:45.835Z</time></trkpt><trkpt lat="45.3549317" lon="10.734345"><ele>93.0</ele><time>2026-03-28T10:24:48.835Z</time></trkpt><trkpt lat="45.3550467" lon="10.7343667"><ele>93.0</ele><time>2026-03-28T10:24:50.835Z</time></trkpt><trkpt lat="45.3551133" lon="10.7343867"><ele>93.0</ele><time>2026-03-28T10:24:51.836Z</time></trkpt><trkpt lat="45.3551883" lon="10.734405"><ele>93.0</ele><time>2026-03-28T10:24:52.835Z</time></trkpt><trkpt lat="45.3552717" lon="10.7344217"><ele>93.2</ele><time>2026-03-28T10:24:53.836Z</time></trkpt><trkpt lat="45.3553633" lon="10.7344417"><ele>93.4</ele><time>2026-03-28T10:24:54.836Z</time></trkpt><trkpt lat="45.355455" lon="10.734485"><ele>93.60000000000001</ele><time>2026-03-28T10:24:55.835Z</time></trkpt><trkpt lat="45.3555433" lon="10.73454"><ele>93.80000000000001</ele><time>2026-03-28T10:24:56.835Z</time></trkpt><trkpt lat="45.3556317" lon="10.7345867"><ele>94.0</ele><time>2026-03-28T10:24:57.836Z</time></trkpt><trkpt lat="45.355725" lon="10.7346417"><ele>94.0</ele><time>2026-03-28T10:24:58.835Z</time></trkpt><trkpt lat="45.3558167" lon="10.7347183"><ele>94.0</ele><time>2026-03-28T10:24:59.836Z</time></trkpt><trkpt lat="45.35591" lon="10.7347883"><ele>94.0</ele><time>2026-03-28T10:25:00.836Z</time></trkpt><trkpt lat="45.3559967" lon="10.7348317"><ele>94.0</ele><time>2026-03-28T10:25:01.836Z</time></trkpt><trkpt lat="45.356065" lon="10.7348717"><ele>94.0</ele><time>2026-03-28T10:25:02.835Z</time></trkpt><trkpt lat="45.356185" lon="10.7349267"><ele>94.0</ele><time>2026-03-28T10:25:04.835Z</time></trkpt><trkpt lat="45.35625" lon="10.7349483"><ele>94.0</ele><time>2026-03-28T10:25:05.836Z</time></trkpt><trkpt lat="45.3563217" lon="10.7349717"><ele>94.0</ele><time>2026-03-28T10:25:06.835Z</time></trkpt><trkpt lat="45.3563983" lon="10.7350017"><ele>94.0</ele><time>2026-03-28T10:25:07.835Z</time></trkpt><trkpt lat="45.3564783" lon="10.7350267"><ele>94.0</ele><time>2026-03-28T10:25:08.835Z</time></trkpt><trkpt lat="45.356575" lon="10.7350517"><ele>94.0</ele><time>2026-03-28T10:25:09.836Z</time></trkpt><trkpt lat="45.356665" lon="10.7350667"><ele>93.83333333333333</ele><time>2026-03-28T10:25:10.836Z</time></trkpt><trkpt lat="45.3567467" lon="10.7350833"><ele>93.66666666666666</ele><time>2026-03-28T10:25:11.836Z</time></trkpt><trkpt lat="45.3568233" lon="10.7350867"><ele>93.5</ele><time>2026-03-28T10:25:12.836Z</time></trkpt><trkpt lat="45.3568917" lon="10.7350867"><ele>93.33333333333333</ele><time>2026-03-28T10:25:13.835Z</time></trkpt><trkpt lat="45.3570033" lon="10.7350833"><ele>93.16666666666667</ele><time>2026-03-28T10:25:15.835Z</time></trkpt><trkpt lat="45.3571117" lon="10.7350633"><ele>93.0</ele><time>2026-03-28T10:25:17.836Z</time></trkpt><trkpt lat="45.3572167" lon="10.7350483"><ele>93.0</ele><time>2026-03-28T10:25:19.835Z</time></trkpt><trkpt lat="45.357315" lon="10.7350267"><ele>93.0</ele><time>2026-03-28T10:25:21.835Z</time></trkpt><trkpt lat="45.3573967" lon="10.73502"><ele>93.0</ele><time>2026-03-28T10:25:23.835Z</time></trkpt><trkpt lat="45.3574767" lon="10.735005"><ele>93.0</ele><time>2026-03-28T10:25:25.836Z</time></trkpt><trkpt lat="45.3575533" lon="10.7349933"><ele>93.0</ele><time>2026-03-28T10:25:27.835Z</time></trkpt><trkpt lat="45.357625" lon="10.73498"><ele>93.0</ele><time>2026-03-28T10:25:29.835Z</time></trkpt><trkpt lat="45.3576883" lon="10.734975"><ele>93.0</ele><time>2026-03-28T10:25:30.836Z</time></trkpt><trkpt lat="45.357805" lon="10.7349567"><ele>93.0</ele><time>2026-03-28T10:25:32.836Z</time></trkpt><trkpt lat="45.3578783" lon="10.73495"><ele>93.0</ele><time>2026-03-28T10:25:33.835Z</time></trkpt><trkpt lat="45.3579717" lon="10.734955"><ele>93.0</ele><time>2026-03-28T10:25:34.834Z</time></trkpt><trkpt lat="45.3580767" lon="10.7349517"><ele>93.0</ele><time>2026-03-28T10:25:35.835Z</time></trkpt><trkpt lat="45.3581983" lon="10.7349283"><ele>93.75</ele><time>2026-03-28T10:25:36.834Z</time></trkpt><trkpt lat="45.3583333" lon="10.73492"><ele>94.5</ele><time>2026-03-28T10:25:37.835Z</time></trkpt><trkpt lat="45.3584767" lon="10.7349233"><ele>95.25</ele><time>2026-03-28T10:25:38.835Z</time></trkpt><trkpt lat="45.35862" lon="10.7349417"><ele>96.0</ele><time>2026-03-28T10:25:39.834Z</time></trkpt><trkpt lat="45.358775" lon="10.734965"><ele>96.33333333333334</ele><time>2026-03-28T10:25:40.835Z</time></trkpt><trkpt lat="45.3589217" lon="10.735005"><ele>96.66666666666667</ele><time>2026-03-28T10:25:41.834Z</time></trkpt><trkpt lat="45.3590767" lon="10.735025"><ele>97.0</ele><time>2026-03-28T10:25:42.835Z</time></trkpt><trkpt lat="45.359235" lon="10.7350467"><ele>97.0</ele><time>2026-03-28T10:25:43.835Z</time></trkpt><trkpt lat="45.359375" lon="10.73507"><ele>97.0</ele><time>2026-03-28T10:25:44.835Z</time></trkpt><trkpt lat="45.3595083" lon="10.7350883"><ele>97.0</ele><time>2026-03-28T10:25:45.835Z</time></trkpt><trkpt lat="45.3596217" lon="10.7350967"><ele>97.0</ele><time>2026-03-28T10:25:46.834Z</time></trkpt><trkpt lat="45.3597267" lon="10.7351067"><ele>96.83333333333334</ele><time>2026-03-28T10:25:47.835Z</time></trkpt><trkpt lat="45.3598117" lon="10.7351217"><ele>96.66666666666667</ele><time>2026-03-28T10:25:48.834Z</time></trkpt><trkpt lat="45.35991" lon="10.7351217"><ele>96.5</ele><time>2026-03-28T10:25:50.834Z</time></trkpt><trkpt lat="45.35993" lon="10.7352067"><ele>96.33333333333334</ele><time>2026-03-28T10:25:53.834Z</time></trkpt><trkpt lat="45.3599183" lon="10.7353467"><ele>96.16666666666667</ele><time>2026-03-28T10:25:55.835Z</time></trkpt><trkpt lat="45.3599067" lon="10.73545"><ele>96.0</ele><time>2026-03-28T10:25:56.835Z</time></trkpt><trkpt lat="45.3599" lon="10.7355767"><ele>95.6</ele><time>2026-03-28T10:25:57.834Z</time></trkpt><trkpt lat="45.3598867" lon="10.7357117"><ele>95.19999999999999</ele><time>2026-03-28T10:25:58.835Z</time></trkpt><trkpt lat="45.3598733" lon="10.7358533"><ele>94.80000000000001</ele><time>2026-03-28T10:25:59.835Z</time></trkpt><trkpt lat="45.3598667" lon="10.736"><ele>94.4</ele><time>2026-03-28T10:26:00.834Z</time></trkpt><trkpt lat="45.35985" lon="10.7361533"><ele>94.0</ele><time>2026-03-28T10:26:01.834Z</time></trkpt><trkpt lat="45.3598283" lon="10.7363233"><ele>94.0</ele><time>2026-03-28T10:26:02.835Z</time></trkpt><trkpt lat="45.3598133" lon="10.736515"><ele>94.0</ele><time>2026-03-28T10:26:03.834Z</time></trkpt><trkpt lat="45.3597933" lon="10.7366967"><ele>94.0</ele><time>2026-03-28T10:26:04.835Z</time></trkpt><trkpt lat="45.359775" lon="10.7369033"><ele>94.0</ele><time>2026-03-28T10:26:05.835Z</time></trkpt><trkpt lat="45.35976" lon="10.7371133"><ele>94.0</ele><time>2026-03-28T10:26:06.834Z</time></trkpt><trkpt lat="45.3597417" lon="10.7373283"><ele>94.0</ele><time>2026-03-28T10:26:07.834Z</time></trkpt><trkpt lat="45.3597283" lon="10.7375333"><ele>94.0</ele><time>2026-03-28T10:26:08.835Z</time></trkpt><trkpt lat="45.359715" lon="10.7377133"><ele>94.0</ele><time>2026-03-28T10:26:09.835Z</time></trkpt><trkpt lat="45.3597067" lon="10.7378633"><ele>93.80000000000001</ele><time>2026-03-28T10:26:10.834Z</time></trkpt><trkpt lat="45.3596917" lon="10.7379867"><ele>93.60000000000001</ele><time>2026-03-28T10:26:11.834Z</time></trkpt><trkpt lat="45.3596783" lon="10.7381"><ele>93.4</ele><time>2026-03-28T10:26:12.828Z</time></trkpt><trkpt lat="45.3596817" lon="10.7382333"><ele>93.2</ele><time>2026-03-28T10:26:13.835Z</time></trkpt><trkpt lat="45.3596867" lon="10.7383817"><ele>93.0</ele><time>2026-03-28T10:26:14.834Z</time></trkpt><trkpt lat="45.3597167" lon="10.7385383"><ele>93.0</ele><time>2026-03-28T10:26:15.834Z</time></trkpt><trkpt lat="45.3597567" lon="10.73869"><ele>93.0</ele><time>2026-03-28T10:26:16.834Z</time></trkpt><trkpt lat="45.3598" lon="10.7388183"><ele>93.0</ele><time>2026-03-28T10:26:17.835Z</time></trkpt><trkpt lat="45.3598267" lon="10.7389283"><ele>93.0</ele><time>2026-03-28T10:26:18.835Z</time></trkpt><trkpt lat="45.35984" lon="10.7390183"><ele>93.0</ele><time>2026-03-28T10:26:19.834Z</time></trkpt><trkpt lat="45.3598433" lon="10.7391367"><ele>93.0</ele><time>2026-03-28T10:26:21.834Z</time></trkpt><trkpt lat="45.3599" lon="10.73924"><ele>93.0</ele><time>2026-03-28T10:26:23.835Z</time></trkpt><trkpt lat="45.3599783" lon="10.7393017"><ele>93.0</ele><time>2026-03-28T10:26:24.834Z</time></trkpt><trkpt lat="45.36008" lon="10.73937"><ele>93.0</ele><time>2026-03-28T10:26:25.835Z</time></trkpt><trkpt lat="45.3601933" lon="10.7394433"><ele>93.0</ele><time>2026-03-28T10:26:26.835Z</time></trkpt><trkpt lat="45.360315" lon="10.7395267"><ele>93.25</ele><time>2026-03-28T10:26:27.835Z</time></trkpt><trkpt lat="45.3604333" lon="10.739605"><ele>93.5</ele><time>2026-03-28T10:26:28.834Z</time></trkpt><trkpt lat="45.36056" lon="10.7396633"><ele>93.75</ele><time>2026-03-28T10:26:29.834Z</time></trkpt><trkpt lat="45.3606867" lon="10.739725"><ele>94.0</ele><time>2026-03-28T10:26:30.834Z</time></trkpt><trkpt lat="45.3607817" lon="10.7398"><ele>94.5</ele><time>2026-03-28T10:26:31.834Z</time></trkpt><trkpt lat="45.3608617" lon="10.7399017"><ele>95.0</ele><time>2026-03-28T10:26:32.834Z</time></trkpt><trkpt lat="45.3609317" lon="10.7400367"><ele>95.5</ele><time>2026-03-28T10:26:33.835Z</time></trkpt><trkpt lat="45.3609917" lon="10.7402067"><ele>96.0</ele><time>2026-03-28T10:26:34.834Z</time></trkpt><trkpt lat="45.3610583" lon="10.74038"><ele>96.0</ele><time>2026-03-28T10:26:35.834Z</time></trkpt><trkpt lat="45.361145" lon="10.7405533"><ele>96.0</ele><time>2026-03-28T10:26:36.834Z</time></trkpt><trkpt lat="45.3612367" lon="10.74073"><ele>96.0</ele><time>2026-03-28T10:26:37.835Z</time></trkpt><trkpt lat="45.36132" lon="10.740935"><ele>94.66666666666667</ele><time>2026-03-28T10:26:38.834Z</time></trkpt><trkpt lat="45.3614083" lon="10.74114"><ele>93.33333333333334</ele><time>2026-03-28T10:26:39.834Z</time></trkpt><trkpt lat="45.3614917" lon="10.74136"><ele>92.0</ele><time>2026-03-28T10:26:40.835Z</time></trkpt><trkpt lat="45.361575" lon="10.7415967"><ele>92.0</ele><time>2026-03-28T10:26:41.834Z</time></trkpt><trkpt lat="45.3616567" lon="10.7418583"><ele>92.0</ele><time>2026-03-28T10:26:42.835Z</time></trkpt><trkpt lat="45.3617383" lon="10.7421317"><ele>92.0</ele><time>2026-03-28T10:26:43.835Z</time></trkpt><trkpt lat="45.361815" lon="10.742405"><ele>92.0</ele><time>2026-03-28T10:26:44.834Z</time></trkpt><trkpt lat="45.36189" lon="10.7426633"><ele>92.0</ele><time>2026-03-28T10:26:45.835Z</time></trkpt><trkpt lat="45.3619633" lon="10.7429133"><ele>92.0</ele><time>2026-03-28T10:26:46.834Z</time></trkpt><trkpt lat="45.3620317" lon="10.74315"><ele>92.0</ele><time>2026-03-28T10:26:47.834Z</time></trkpt><trkpt lat="45.3620867" lon="10.7433833"><ele>92.0</ele><time>2026-03-28T10:26:48.835Z</time></trkpt><trkpt lat="45.362155" lon="10.7436083"><ele>92.0</ele><time>2026-03-28T10:26:49.835Z</time></trkpt><trkpt lat="45.3622267" lon="10.7438283"><ele>92.33333333333334</ele><time>2026-03-28T10:26:50.835Z</time></trkpt><trkpt lat="45.362295" lon="10.7440783"><ele>92.66666666666667</ele><time>2026-03-28T10:26:51.834Z</time></trkpt><trkpt lat="45.3623783" lon="10.744335"><ele>93.0</ele><time>2026-03-28T10:26:52.835Z</time></trkpt><trkpt lat="45.3624767" lon="10.7445983"><ele>93.0</ele><time>2026-03-28T10:26:53.835Z</time></trkpt><trkpt lat="45.3625683" lon="10.7448783"><ele>93.0</ele><time>2026-03-28T10:26:54.835Z</time></trkpt><trkpt lat="45.3626517" lon="10.7451583"><ele>93.0</ele><time>2026-03-28T10:26:55.835Z</time></trkpt><trkpt lat="45.3627267" lon="10.745435"><ele>93.0</ele><time>2026-03-28T10:26:56.834Z</time></trkpt><trkpt lat="45.3627933" lon="10.745695"><ele>93.0</ele><time>2026-03-28T10:26:57.834Z</time></trkpt><trkpt lat="45.3628683" lon="10.7459433"><ele>93.0</ele><time>2026-03-28T10:26:58.834Z</time></trkpt><trkpt lat="45.3629333" lon="10.7461917"><ele>92.66666666666667</ele><time>2026-03-28T10:26:59.835Z</time></trkpt><trkpt lat="45.36302" lon="10.7464217"><ele>92.33333333333334</ele><time>2026-03-28T10:27:00.834Z</time></trkpt><trkpt lat="45.363115" lon="10.7466533"><ele>92.0</ele><time>2026-03-28T10:27:01.834Z</time></trkpt><trkpt lat="45.36321" lon="10.74688"><ele>92.0</ele><time>2026-03-28T10:27:02.834Z</time></trkpt><trkpt lat="45.3633117" lon="10.7471067"><ele>92.0</ele><time>2026-03-28T10:27:03.835Z</time></trkpt><trkpt lat="45.3634233" lon="10.747325"><ele>92.0</ele><time>2026-03-28T10:27:04.834Z</time></trkpt><trkpt lat="45.3635467" lon="10.7475217"><ele>92.0</ele><time>2026-03-28T10:27:05.834Z</time></trkpt><trkpt lat="45.3636667" lon="10.7477233"><ele>92.0</ele><time>2026-03-28T10:27:06.835Z</time></trkpt><trkpt lat="45.3637817" lon="10.7479283"><ele>92.0</ele><time>2026-03-28T10:27:07.834Z</time></trkpt><trkpt lat="45.3638983" lon="10.7481433"><ele>92.33333333333334</ele><time>2026-03-28T10:27:08.835Z</time></trkpt><trkpt lat="45.3640017" lon="10.7483633"><ele>92.66666666666667</ele><time>2026-03-28T10:27:09.834Z</time></trkpt><trkpt lat="45.3640933" lon="10.7485933"><ele>93.0</ele><time>2026-03-28T10:27:10.834Z</time></trkpt><trkpt lat="45.36419" lon="10.7488233"><ele>93.0</ele><time>2026-03-28T10:27:11.834Z</time></trkpt><trkpt lat="45.3642767" lon="10.7490433"><ele>93.0</ele><time>2026-03-28T10:27:12.835Z</time></trkpt><trkpt lat="45.3643717" lon="10.7492717"><ele>93.0</ele><time>2026-03-28T10:27:13.834Z</time></trkpt><trkpt lat="45.364475" lon="10.7495067"><ele>93.0</ele><time>2026-03-28T10:27:14.834Z</time></trkpt><trkpt lat="45.3645767" lon="10.749755"><ele>93.0</ele><time>2026-03-28T10:27:15.834Z</time></trkpt><trkpt lat="45.364675" lon="10.7500083"><ele>93.0</ele><time>2026-03-28T10:27:16.834Z</time></trkpt><trkpt lat="45.3647817" lon="10.7502583"><ele>94.0</ele><time>2026-03-28T10:27:17.835Z</time></trkpt><trkpt lat="45.3648867" lon="10.7505067"><ele>95.0</ele><time>2026-03-28T10:27:18.834Z</time></trkpt><trkpt lat="45.3649967" lon="10.7507483"><ele>96.0</ele><time>2026-03-28T10:27:19.835Z</time></trkpt><trkpt lat="45.3651083" lon="10.7509867"><ele>95.33333333333333</ele><time>2026-03-28T10:27:20.834Z</time></trkpt><trkpt lat="45.3652267" lon="10.751235"><ele>94.66666666666666</ele><time>2026-03-28T10:27:21.834Z</time></trkpt><trkpt lat="45.3653533" lon="10.7514733"><ele>94.0</ele><time>2026-03-28T10:27:22.835Z</time></trkpt><trkpt lat="45.3654867" lon="10.751725"><ele>94.0</ele><time>2026-03-28T10:27:23.835Z</time></trkpt><trkpt lat="45.3656217" lon="10.7519767"><ele>94.0</ele><time>2026-03-28T10:27:24.835Z</time></trkpt><trkpt lat="45.3657583" lon="10.7522417"><ele>94.0</ele><time>2026-03-28T10:27:25.835Z</time></trkpt><trkpt lat="45.3658783" lon="10.7525083"><ele>94.0</ele><time>2026-03-28T10:27:26.835Z</time></trkpt><trkpt lat="45.3659983" lon="10.752795"><ele>94.0</ele><time>2026-03-28T10:27:27.834Z</time></trkpt><trkpt lat="45.36612" lon="10.75308"><ele>94.0</ele><time>2026-03-28T10:27:28.834Z</time></trkpt><trkpt lat="45.3662333" lon="10.7533533"><ele>93.66666666666666</ele><time>2026-03-28T10:27:29.834Z</time></trkpt><trkpt lat="45.3663317" lon="10.753615"><ele>93.33333333333333</ele><time>2026-03-28T10:27:30.835Z</time></trkpt><trkpt lat="45.3664183" lon="10.753875"><ele>93.0</ele><time>2026-03-28T10:27:31.834Z</time></trkpt><trkpt lat="45.3664967" lon="10.754125"><ele>93.0</ele><time>2026-03-28T10:27:32.834Z</time></trkpt><trkpt lat="45.3665717" lon="10.7543667"><ele>93.0</ele><time>2026-03-28T10:27:33.835Z</time></trkpt><trkpt lat="45.36666" lon="10.7546"><ele>93.0</ele><time>2026-03-28T10:27:34.834Z</time></trkpt><trkpt lat="45.3667617" lon="10.754825"><ele>93.33333333333333</ele><time>2026-03-28T10:27:35.835Z</time></trkpt><trkpt lat="45.3668667" lon="10.7550383"><ele>93.66666666666666</ele><time>2026-03-28T10:27:36.834Z</time></trkpt><trkpt lat="45.3669733" lon="10.755245"><ele>94.0</ele><time>2026-03-28T10:27:37.834Z</time></trkpt><trkpt lat="45.36708" lon="10.755465"><ele>94.0</ele><time>2026-03-28T10:27:38.834Z</time></trkpt><trkpt lat="45.3671833" lon="10.75569"><ele>94.0</ele><time>2026-03-28T10:27:39.835Z</time></trkpt><trkpt lat="45.3672867" lon="10.7558983"><ele>94.0</ele><time>2026-03-28T10:27:40.835Z</time></trkpt><trkpt lat="45.3673833" lon="10.7560983"><ele>94.25</ele><time>2026-03-28T10:27:41.834Z</time></trkpt><trkpt lat="45.3674717" lon="10.7562883"><ele>94.5</ele><time>2026-03-28T10:27:42.834Z</time></trkpt><trkpt lat="45.3675567" lon="10.7564633"><ele>94.75</ele><time>2026-03-28T10:27:43.834Z</time></trkpt><trkpt lat="45.3676333" lon="10.7566267"><ele>95.0</ele><time>2026-03-28T10:27:44.835Z</time></trkpt><trkpt lat="45.36772" lon="10.7567883"><ele>95.25</ele><time>2026-03-28T10:27:45.834Z</time></trkpt><trkpt lat="45.3677833" lon="10.7569383"><ele>95.5</ele><time>2026-03-28T10:27:46.835Z</time></trkpt><trkpt lat="45.36782" lon="10.7571017"><ele>95.75</ele><time>2026-03-28T10:27:47.834Z</time></trkpt><trkpt lat="45.3678367" lon="10.7572717"><ele>96.0</ele><time>2026-03-28T10:27:48.835Z</time></trkpt><trkpt lat="45.3678533" lon="10.7574467"><ele>96.0</ele><time>2026-03-28T10:27:49.834Z</time></trkpt><trkpt lat="45.3678717" lon="10.7576283"><ele>96.0</ele><time>2026-03-28T10:27:50.834Z</time></trkpt><trkpt lat="45.3678917" lon="10.7578117"><ele>96.0</ele><time>2026-03-28T10:27:51.835Z</time></trkpt><trkpt lat="45.3679117" lon="10.7579967"><ele>96.0</ele><time>2026-03-28T10:27:52.834Z</time></trkpt><trkpt lat="45.367935" lon="10.758185"><ele>96.25</ele><time>2026-03-28T10:27:53.835Z</time></trkpt><trkpt lat="45.3679683" lon="10.7583767"><ele>96.5</ele><time>2026-03-28T10:27:54.835Z</time></trkpt><trkpt lat="45.3680083" lon="10.7585867"><ele>96.75</ele><time>2026-03-28T10:27:55.834Z</time></trkpt><trkpt lat="45.36804" lon="10.758795"><ele>97.0</ele><time>2026-03-28T10:27:56.834Z</time></trkpt><trkpt lat="45.3680717" lon="10.7590083"><ele>97.0</ele><time>2026-03-28T10:27:57.835Z</time></trkpt><trkpt lat="45.3681083" lon="10.7592317"><ele>97.0</ele><time>2026-03-28T10:27:58.834Z</time></trkpt><trkpt lat="45.36815" lon="10.7594667"><ele>97.0</ele><time>2026-03-28T10:27:59.835Z</time></trkpt><trkpt lat="45.3681933" lon="10.759695"><ele>97.0</ele><time>2026-03-28T10:28:00.834Z</time></trkpt><trkpt lat="45.3682333" lon="10.7599317"><ele>97.0</ele><time>2026-03-28T10:28:01.835Z</time></trkpt><trkpt lat="45.3682667" lon="10.76016"><ele>97.0</ele><time>2026-03-28T10:28:02.835Z</time></trkpt><trkpt lat="45.3683083" lon="10.7603733"><ele>97.0</ele><time>2026-03-28T10:28:03.835Z</time></trkpt><trkpt lat="45.3683533" lon="10.76059"><ele>97.0</ele><time>2026-03-28T10:28:04.835Z</time></trkpt><trkpt lat="45.3684017" lon="10.7607867"><ele>97.0</ele><time>2026-03-28T10:28:05.834Z</time></trkpt><trkpt lat="45.3684467" lon="10.7609667"><ele>97.0</ele><time>2026-03-28T10:28:06.834Z</time></trkpt><trkpt lat="45.3684983" lon="10.76115"><ele>97.0</ele><time>2026-03-28T10:28:07.834Z</time></trkpt><trkpt lat="45.36856" lon="10.7613167"><ele>97.0</ele><time>2026-03-28T10:28:08.834Z</time></trkpt><trkpt lat="45.368625" lon="10.7614933"><ele>97.0</ele><time>2026-03-28T10:28:09.835Z</time></trkpt><trkpt lat="45.3686933" lon="10.7616817"><ele>97.0</ele><time>2026-03-28T10:28:10.834Z</time></trkpt><trkpt lat="45.3687567" lon="10.7618783"><ele>97.0</ele><time>2026-03-28T10:28:11.834Z</time></trkpt><trkpt lat="45.3688217" lon="10.7620783"><ele>97.0</ele><time>2026-03-28T10:28:12.835Z</time></trkpt><trkpt lat="45.3688867" lon="10.7622717"><ele>97.0</ele><time>2026-03-28T10:28:13.834Z</time></trkpt><trkpt lat="45.36895" lon="10.7624833"><ele>96.66666666666667</ele><time>2026-03-28T10:28:14.835Z</time></trkpt><trkpt lat="45.36902" lon="10.76268"><ele>96.33333333333334</ele><time>2026-03-28T10:28:15.835Z</time></trkpt><trkpt lat="45.36907" lon="10.7628933"><ele>96.0</ele><time>2026-03-28T10:28:16.834Z</time></trkpt><trkpt lat="45.3691267" lon="10.7631133"><ele>96.0</ele><time>2026-03-28T10:28:17.834Z</time></trkpt><trkpt lat="45.3691867" lon="10.763315"><ele>96.0</ele><time>2026-03-28T10:28:18.834Z</time></trkpt><trkpt lat="45.3692333" lon="10.76352"><ele>96.0</ele><time>2026-03-28T10:28:19.835Z</time></trkpt><trkpt lat="45.369265" lon="10.76372"><ele>96.0</ele><time>2026-03-28T10:28:20.834Z</time></trkpt><trkpt lat="45.3692633" lon="10.7639167"><ele>96.25</ele><time>2026-03-28T10:28:21.835Z</time></trkpt><trkpt lat="45.36925" lon="10.7641083"><ele>96.5</ele><time>2026-03-28T10:28:22.834Z</time></trkpt><trkpt lat="45.3692383" lon="10.764305"><ele>96.75</ele><time>2026-03-28T10:28:23.835Z</time></trkpt><trkpt lat="45.3692233" lon="10.76449"><ele>97.0</ele><time>2026-03-28T10:28:24.834Z</time></trkpt><trkpt lat="45.3692167" lon="10.764665"><ele>97.0</ele><time>2026-03-28T10:28:25.835Z</time></trkpt><trkpt lat="45.3692133" lon="10.7648267"><ele>97.0</ele><time>2026-03-28T10:28:26.835Z</time></trkpt><trkpt lat="45.3692183" lon="10.7649717"><ele>97.0</ele><time>2026-03-28T10:28:27.835Z</time></trkpt><trkpt lat="45.36921" lon="10.7651117"><ele>97.0</ele><time>2026-03-28T10:28:28.835Z</time></trkpt><trkpt lat="45.36919" lon="10.76525"><ele>97.0</ele><time>2026-03-28T10:28:29.834Z</time></trkpt><trkpt lat="45.3691633" lon="10.76539"><ele>97.0</ele><time>2026-03-28T10:28:30.834Z</time></trkpt><trkpt lat="45.3691267" lon="10.7655317"><ele>97.0</ele><time>2026-03-28T10:28:31.834Z</time></trkpt><trkpt lat="45.3690767" lon="10.7656783"><ele>97.0</ele><time>2026-03-28T10:28:32.834Z</time></trkpt><trkpt lat="45.369015" lon="10.7658217"><ele>97.0</ele><time>2026-03-28T10:28:33.834Z</time></trkpt><trkpt lat="45.368955" lon="10.7659917"><ele>97.25</ele><time>2026-03-28T10:28:34.834Z</time></trkpt><trkpt lat="45.3688933" lon="10.766155"><ele>97.5</ele><time>2026-03-28T10:28:35.834Z</time></trkpt><trkpt lat="45.368825" lon="10.766325"><ele>97.75</ele><time>2026-03-28T10:28:36.834Z</time></trkpt><trkpt lat="45.3687633" lon="10.7665017"><ele>98.0</ele><time>2026-03-28T10:28:37.834Z</time></trkpt><trkpt lat="45.3686983" lon="10.76669"><ele>96.75</ele><time>2026-03-28T10:28:38.835Z</time></trkpt><trkpt lat="45.3686417" lon="10.7668883"><ele>95.5</ele><time>2026-03-28T10:28:39.834Z</time></trkpt><trkpt lat="45.3685933" lon="10.767065"><ele>94.25</ele><time>2026-03-28T10:28:40.833Z</time></trkpt><trkpt lat="45.36854" lon="10.767245"><ele>93.0</ele><time>2026-03-28T10:28:41.834Z</time></trkpt><trkpt lat="45.3685017" lon="10.76741"><ele>93.0</ele><time>2026-03-28T10:28:42.834Z</time></trkpt><trkpt lat="45.3684717" lon="10.7675667"><ele>93.0</ele><time>2026-03-28T10:28:43.834Z</time></trkpt><trkpt lat="45.3684383" lon="10.7677267"><ele>93.0</ele><time>2026-03-28T10:28:44.833Z</time></trkpt><trkpt lat="45.3684133" lon="10.7678883"><ele>93.0</ele><time>2026-03-28T10:28:45.833Z</time></trkpt><trkpt lat="45.3683883" lon="10.768055"><ele>93.0</ele><time>2026-03-28T10:28:46.833Z</time></trkpt><trkpt lat="45.368375" lon="10.7682317"><ele>93.0</ele><time>2026-03-28T10:28:47.834Z</time></trkpt><trkpt lat="45.368355" lon="10.76841"><ele>93.0</ele><time>2026-03-28T10:28:48.833Z</time></trkpt><trkpt lat="45.3683383" lon="10.7685883"><ele>93.0</ele><time>2026-03-28T10:28:49.834Z</time></trkpt><trkpt lat="45.368325" lon="10.7687783"><ele>93.25</ele><time>2026-03-28T10:28:50.834Z</time></trkpt><trkpt lat="45.3683067" lon="10.768975"><ele>93.5</ele><time>2026-03-28T10:28:51.834Z</time></trkpt><trkpt lat="45.3682883" lon="10.7691767"><ele>93.75</ele><time>2026-03-28T10:28:52.834Z</time></trkpt><trkpt lat="45.3682817" lon="10.7693617"><ele>94.0</ele><time>2026-03-28T10:28:53.833Z</time></trkpt><trkpt lat="45.3682767" lon="10.769545"><ele>94.25</ele><time>2026-03-28T10:28:54.833Z</time></trkpt><trkpt lat="45.3682783" lon="10.7697283"><ele>94.5</ele><time>2026-03-28T10:28:55.834Z</time></trkpt><trkpt lat="45.36828" lon="10.769905"><ele>94.75</ele><time>2026-03-28T10:28:56.833Z</time></trkpt><trkpt lat="45.3682833" lon="10.770085"><ele>95.0</ele><time>2026-03-28T10:28:57.833Z</time></trkpt><trkpt lat="45.3682833" lon="10.77026"><ele>95.0</ele><time>2026-03-28T10:28:58.833Z</time></trkpt><trkpt lat="45.368275" lon="10.7704333"><ele>95.0</ele><time>2026-03-28T10:28:59.834Z</time></trkpt><trkpt lat="45.368255" lon="10.7706133"><ele>95.0</ele><time>2026-03-28T10:29:00.833Z</time></trkpt><trkpt lat="45.36823" lon="10.7707867"><ele>95.0</ele><time>2026-03-28T10:29:01.834Z</time></trkpt><trkpt lat="45.368205" lon="10.7709517"><ele>95.5</ele><time>2026-03-28T10:29:02.833Z</time></trkpt><trkpt lat="45.3681783" lon="10.7710983"><ele>96.0</ele><time>2026-03-28T10:29:03.833Z</time></trkpt><trkpt lat="45.3681517" lon="10.7712467"><ele>96.5</ele><time>2026-03-28T10:29:04.833Z</time></trkpt><trkpt lat="45.3681167" lon="10.77141"><ele>97.0</ele><time>2026-03-28T10:29:05.833Z</time></trkpt><trkpt lat="45.3680767" lon="10.7715683"><ele>97.0</ele><time>2026-03-28T10:29:06.834Z</time></trkpt><trkpt lat="45.36803" lon="10.771735"><ele>97.0</ele><time>2026-03-28T10:29:07.833Z</time></trkpt><trkpt lat="45.36798" lon="10.7718983"><ele>97.0</ele><time>2026-03-28T10:29:08.833Z</time></trkpt><trkpt lat="45.36793" lon="10.7720683"><ele>97.0</ele><time>2026-03-28T10:29:09.834Z</time></trkpt><trkpt lat="45.3678933" lon="10.7722517"><ele>95.75</ele><time>2026-03-28T10:29:10.833Z</time></trkpt><trkpt lat="45.3678567" lon="10.7724333"><ele>94.5</ele><time>2026-03-28T10:29:11.834Z</time></trkpt><trkpt lat="45.3678217" lon="10.7726183"><ele>93.25</ele><time>2026-03-28T10:29:12.833Z</time></trkpt><trkpt lat="45.3677933" lon="10.7727983"><ele>92.0</ele><time>2026-03-28T10:29:13.833Z</time></trkpt><trkpt lat="45.367765" lon="10.772975"><ele>91.75</ele><time>2026-03-28T10:29:14.834Z</time></trkpt><trkpt lat="45.3677383" lon="10.7731483"><ele>91.5</ele><time>2026-03-28T10:29:15.833Z</time></trkpt><trkpt lat="45.3677167" lon="10.7733217"><ele>91.25</ele><time>2026-03-28T10:29:16.833Z</time></trkpt><trkpt lat="45.3676917" lon="10.7734867"><ele>91.0</ele><time>2026-03-28T10:29:17.834Z</time></trkpt><trkpt lat="45.3676683" lon="10.7736583"><ele>91.75</ele><time>2026-03-28T10:29:18.833Z</time></trkpt><trkpt lat="45.367645" lon="10.773845"><ele>92.5</ele><time>2026-03-28T10:29:19.833Z</time></trkpt><trkpt lat="45.3676217" lon="10.7740467"><ele>93.25</ele><time>2026-03-28T10:29:20.833Z</time></trkpt><trkpt lat="45.3676033" lon="10.7742383"><ele>94.0</ele><time>2026-03-28T10:29:21.834Z</time></trkpt><trkpt lat="45.3675883" lon="10.774425"><ele>94.0</ele><time>2026-03-28T10:29:22.834Z</time></trkpt><trkpt lat="45.367565" lon="10.7746183"><ele>94.0</ele><time>2026-03-28T10:29:23.833Z</time></trkpt><trkpt lat="45.3675483" lon="10.7748167"><ele>94.0</ele><time>2026-03-28T10:29:24.834Z</time></trkpt><trkpt lat="45.3675367" lon="10.7749917"><ele>94.0</ele><time>2026-03-28T10:29:25.833Z</time></trkpt><trkpt lat="45.3675217" lon="10.77516"><ele>94.0</ele><time>2026-03-28T10:29:26.834Z</time></trkpt><trkpt lat="45.3675033" lon="10.7753117"><ele>94.0</ele><time>2026-03-28T10:29:27.834Z</time></trkpt><trkpt lat="45.3674817" lon="10.7754633"><ele>94.0</ele><time>2026-03-28T10:29:28.833Z</time></trkpt><trkpt lat="45.3674667" lon="10.7756233"><ele>94.0</ele><time>2026-03-28T10:29:29.833Z</time></trkpt><trkpt lat="45.3674567" lon="10.7757833"><ele>94.0</ele><time>2026-03-28T10:29:30.834Z</time></trkpt><trkpt lat="45.36744" lon="10.7759533"><ele>94.2</ele><time>2026-03-28T10:29:31.833Z</time></trkpt><trkpt lat="45.3674283" lon="10.7761217"><ele>94.4</ele><time>2026-03-28T10:29:32.834Z</time></trkpt><trkpt lat="45.36742" lon="10.7762683"><ele>94.6</ele><time>2026-03-28T10:29:33.834Z</time></trkpt><trkpt lat="45.3674067" lon="10.7764133"><ele>94.8</ele><time>2026-03-28T10:29:34.833Z</time></trkpt><trkpt lat="45.3673933" lon="10.77656"><ele>95.0</ele><time>2026-03-28T10:29:35.833Z</time></trkpt><trkpt lat="45.3673883" lon="10.776705"><ele>94.6</ele><time>2026-03-28T10:29:36.834Z</time></trkpt><trkpt lat="45.3673883" lon="10.7768533"><ele>94.2</ele><time>2026-03-28T10:29:37.833Z</time></trkpt><trkpt lat="45.3673867" lon="10.7770167"><ele>93.80000000000001</ele><time>2026-03-28T10:29:38.833Z</time></trkpt><trkpt lat="45.3673917" lon="10.77718"><ele>93.4</ele><time>2026-03-28T10:29:39.833Z</time></trkpt><trkpt lat="45.367395" lon="10.7773417"><ele>93.0</ele><time>2026-03-28T10:29:40.834Z</time></trkpt><trkpt lat="45.3674083" lon="10.77751"><ele>93.0</ele><time>2026-03-28T10:29:41.833Z</time></trkpt><trkpt lat="45.3674233" lon="10.7776783"><ele>93.0</ele><time>2026-03-28T10:29:42.833Z</time></trkpt><trkpt lat="45.36745" lon="10.7778467"><ele>93.0</ele><time>2026-03-28T10:29:43.833Z</time></trkpt><trkpt lat="45.367475" lon="10.7780033"><ele>93.0</ele><time>2026-03-28T10:29:44.833Z</time></trkpt><trkpt lat="45.3674917" lon="10.7781567"><ele>92.25</ele><time>2026-03-28T10:29:45.833Z</time></trkpt><trkpt lat="45.3674967" lon="10.7783117"><ele>91.5</ele><time>2026-03-28T10:29:46.834Z</time></trkpt><trkpt lat="45.367475" lon="10.778475"><ele>90.75</ele><time>2026-03-28T10:29:47.833Z</time></trkpt><trkpt lat="45.36746" lon="10.7786333"><ele>90.0</ele><time>2026-03-28T10:29:48.833Z</time></trkpt><trkpt lat="45.3674317" lon="10.7787933"><ele>89.6</ele><time>2026-03-28T10:29:49.834Z</time></trkpt><trkpt lat="45.36739" lon="10.778965"><ele>89.2</ele><time>2026-03-28T10:29:50.833Z</time></trkpt><trkpt lat="45.3673417" lon="10.779125"><ele>88.80000000000001</ele><time>2026-03-28T10:29:51.833Z</time></trkpt><trkpt lat="45.3672983" lon="10.7792533"><ele>88.4</ele><time>2026-03-28T10:29:52.833Z</time></trkpt><trkpt lat="45.3672767" lon="10.7793483"><ele>88.0</ele><time>2026-03-28T10:29:53.833Z</time></trkpt><trkpt lat="45.3672567" lon="10.7794483"><ele>87.80000000000001</ele><time>2026-03-28T10:29:54.833Z</time></trkpt><trkpt lat="45.3672567" lon="10.77959"><ele>87.6</ele><time>2026-03-28T10:29:56.833Z</time></trkpt><trkpt lat="45.36736" lon="10.77966"><ele>87.4</ele><time>2026-03-28T10:29:58.833Z</time></trkpt><trkpt lat="45.3674483" lon="10.7796783"><ele>87.19999999999999</ele><time>2026-03-28T10:29:59.833Z</time></trkpt><trkpt lat="45.3675533" lon="10.7797017"><ele>87.0</ele><time>2026-03-28T10:30:00.833Z</time></trkpt><trkpt lat="45.36768" lon="10.779745"><ele>87.0</ele><time>2026-03-28T10:30:01.834Z</time></trkpt><trkpt lat="45.3678167" lon="10.779795"><ele>87.0</ele><time>2026-03-28T10:30:02.834Z</time></trkpt><trkpt lat="45.367985" lon="10.7798483"><ele>87.0</ele><time>2026-03-28T10:30:03.834Z</time></trkpt><trkpt lat="45.3681617" lon="10.7799333"><ele>88.33333333333333</ele><time>2026-03-28T10:30:04.834Z</time></trkpt><trkpt lat="45.368335" lon="10.7800133"><ele>89.66666666666666</ele><time>2026-03-28T10:30:05.834Z</time></trkpt><trkpt lat="45.368505" lon="10.7800833"><ele>91.0</ele><time>2026-03-28T10:30:06.833Z</time></trkpt><trkpt lat="45.368675" lon="10.78015"><ele>91.0</ele><time>2026-03-28T10:30:07.834Z</time></trkpt><trkpt lat="45.3688317" lon="10.7802017"><ele>91.0</ele><time>2026-03-28T10:30:08.833Z</time></trkpt><trkpt lat="45.3689933" lon="10.78027"><ele>91.0</ele><time>2026-03-28T10:30:09.834Z</time></trkpt><trkpt lat="45.369145" lon="10.7803383"><ele>91.33333333333333</ele><time>2026-03-28T10:30:10.833Z</time></trkpt><trkpt lat="45.3693" lon="10.7803967"><ele>91.66666666666667</ele><time>2026-03-28T10:30:11.834Z</time></trkpt><trkpt lat="45.3694483" lon="10.7804567"><ele>92.0</ele><time>2026-03-28T10:30:12.833Z</time></trkpt><trkpt lat="45.3695883" lon="10.7805233"><ele>93.0</ele><time>2026-03-28T10:30:13.833Z</time></trkpt><trkpt lat="45.3697167" lon="10.7805817"><ele>94.0</ele><time>2026-03-28T10:30:14.834Z</time></trkpt><trkpt lat="45.36982" lon="10.78064"><ele>95.0</ele><time>2026-03-28T10:30:15.834Z</time></trkpt><trkpt lat="45.3699117" lon="10.78071"><ele>96.0</ele><time>2026-03-28T10:30:16.833Z</time></trkpt><trkpt lat="45.37" lon="10.7807867"><ele>96.0</ele><time>2026-03-28T10:30:17.834Z</time></trkpt><trkpt lat="45.370075" lon="10.7808733"><ele>96.0</ele><time>2026-03-28T10:30:18.833Z</time></trkpt><trkpt lat="45.3701333" lon="10.780965"><ele>96.0</ele><time>2026-03-28T10:30:19.833Z</time></trkpt><trkpt lat="45.370185" lon="10.7810583"><ele>96.0</ele><time>2026-03-28T10:30:20.833Z</time></trkpt><trkpt lat="45.37023" lon="10.7811467"><ele>96.0</ele><time>2026-03-28T10:30:21.833Z</time></trkpt><trkpt lat="45.37028" lon="10.7812267"><ele>96.0</ele><time>2026-03-28T10:30:22.834Z</time></trkpt><trkpt lat="45.370345" lon="10.7812933"><ele>95.19999999999999</ele><time>2026-03-28T10:30:23.833Z</time></trkpt><trkpt lat="45.3704233" lon="10.7813367"><ele>94.39999999999999</ele><time>2026-03-28T10:30:24.833Z</time></trkpt><trkpt lat="45.3705217" lon="10.781375"><ele>93.6</ele><time>2026-03-28T10:30:25.834Z</time></trkpt><trkpt lat="45.3706217" lon="10.7814167"><ele>92.8</ele><time>2026-03-28T10:30:26.833Z</time></trkpt><trkpt lat="45.3707283" lon="10.7814467"><ele>92.0</ele><time>2026-03-28T10:30:27.833Z</time></trkpt><trkpt lat="45.3708333" lon="10.7814783"><ele>91.6</ele><time>2026-03-28T10:30:28.833Z</time></trkpt><trkpt lat="45.3709317" lon="10.7815267"><ele>91.19999999999999</ele><time>2026-03-28T10:30:29.833Z</time></trkpt><trkpt lat="45.37103" lon="10.78159"><ele>90.8</ele><time>2026-03-28T10:30:30.834Z</time></trkpt><trkpt lat="45.3711233" lon="10.78167"><ele>90.4</ele><time>2026-03-28T10:30:31.834Z</time></trkpt><trkpt lat="45.3712167" lon="10.7817667"><ele>90.0</ele><time>2026-03-28T10:30:32.833Z</time></trkpt><trkpt lat="45.37131" lon="10.7818667"><ele>89.4</ele><time>2026-03-28T10:30:33.833Z</time></trkpt><trkpt lat="45.3714033" lon="10.7819633"><ele>88.8</ele><time>2026-03-28T10:30:34.833Z</time></trkpt><trkpt lat="45.371495" lon="10.7820533"><ele>88.19999999999999</ele><time>2026-03-28T10:30:35.833Z</time></trkpt><trkpt lat="45.3715767" lon="10.7821367"><ele>87.6</ele><time>2026-03-28T10:30:36.834Z</time></trkpt><trkpt lat="45.3716617" lon="10.7822183"><ele>87.0</ele><time>2026-03-28T10:30:37.833Z</time></trkpt><trkpt lat="45.3717467" lon="10.782295"><ele>87.0</ele><time>2026-03-28T10:30:38.833Z</time></trkpt><trkpt lat="45.3718367" lon="10.7823717"><ele>87.0</ele><time>2026-03-28T10:30:39.834Z</time></trkpt><trkpt lat="45.3719283" lon="10.7824483"><ele>87.0</ele><time>2026-03-28T10:30:40.834Z</time></trkpt><trkpt lat="45.37201" lon="10.78253"><ele>87.0</ele><time>2026-03-28T10:30:41.833Z</time></trkpt><trkpt lat="45.3720983" lon="10.7826217"><ele>87.0</ele><time>2026-03-28T10:30:42.833Z</time></trkpt><trkpt lat="45.3721917" lon="10.78273"><ele>85.25</ele><time>2026-03-28T10:30:43.833Z</time></trkpt><trkpt lat="45.3722783" lon="10.7828383"><ele>83.5</ele><time>2026-03-28T10:30:44.834Z</time></trkpt><trkpt lat="45.3723833" lon="10.78296"><ele>81.75</ele><time>2026-03-28T10:30:45.833Z</time></trkpt><trkpt lat="45.3725017" lon="10.7830917"><ele>80.0</ele><time>2026-03-28T10:30:46.833Z</time></trkpt><trkpt lat="45.3726233" lon="10.7832467"><ele>80.0</ele><time>2026-03-28T10:30:47.833Z</time></trkpt><trkpt lat="45.3727533" lon="10.78338"><ele>80.0</ele><time>2026-03-28T10:30:48.833Z</time></trkpt><trkpt lat="45.372895" lon="10.783485"><ele>80.0</ele><time>2026-03-28T10:30:49.834Z</time></trkpt><trkpt lat="45.3730183" lon="10.7835833"><ele>76.66666666666667</ele><time>2026-03-28T10:30:50.833Z</time></trkpt><trkpt lat="45.3731617" lon="10.7836667"><ele>73.33333333333333</ele><time>2026-03-28T10:30:51.833Z</time></trkpt><trkpt lat="45.37331" lon="10.7837183"><ele>70.0</ele><time>2026-03-28T10:30:52.834Z</time></trkpt><trkpt lat="45.3734733" lon="10.7837383"><ele>70.0</ele><time>2026-03-28T10:30:53.833Z</time></trkpt><trkpt lat="45.3736483" lon="10.7837483"><ele>70.0</ele><time>2026-03-28T10:30:54.834Z</time></trkpt><trkpt lat="45.3738317" lon="10.7837583"><ele>70.0</ele><time>2026-03-28T10:30:55.833Z</time></trkpt><trkpt lat="45.3739967" lon="10.7837967"><ele>70.0</ele><time>2026-03-28T10:30:56.834Z</time></trkpt><trkpt lat="45.3741383" lon="10.78383"><ele>70.0</ele><time>2026-03-28T10:30:57.834Z</time></trkpt><trkpt lat="45.3742583" lon="10.7838433"><ele>70.0</ele><time>2026-03-28T10:30:58.833Z</time></trkpt><trkpt lat="45.3743467" lon="10.7838567"><ele>70.0</ele><time>2026-03-28T10:30:59.833Z</time></trkpt><trkpt lat="45.3744167" lon="10.7838633"><ele>70.0</ele><time>2026-03-28T10:31:00.834Z</time></trkpt><trkpt lat="45.37448" lon="10.7838517"><ele>70.0</ele><time>2026-03-28T10:31:01.833Z</time></trkpt><trkpt lat="45.3745417" lon="10.7838117"><ele>70.0</ele><time>2026-03-28T10:31:02.834Z</time></trkpt><trkpt lat="45.3746083" lon="10.78374"><ele>70.0</ele><time>2026-03-28T10:31:03.834Z</time></trkpt><trkpt lat="45.3746733" lon="10.7836417"><ele>70.0</ele><time>2026-03-28T10:31:04.834Z</time></trkpt><trkpt lat="45.374755" lon="10.7835017"><ele>70.0</ele><time>2026-03-28T10:31:05.834Z</time></trkpt><trkpt lat="45.37486" lon="10.7833267"><ele>70.33333333333333</ele><time>2026-03-28T10:31:06.833Z</time></trkpt><trkpt lat="45.375" lon="10.78318"><ele>70.66666666666667</ele><time>2026-03-28T10:31:07.834Z</time></trkpt><trkpt lat="45.3751767" lon="10.7830867"><ele>71.0</ele><time>2026-03-28T10:31:08.834Z</time></trkpt><trkpt lat="45.37538" lon="10.7830233"><ele>70.33333333333334</ele><time>2026-03-28T10:31:09.833Z</time></trkpt><trkpt lat="45.3755933" lon="10.7829567"><ele>69.66666666666667</ele><time>2026-03-28T10:31:10.833Z</time></trkpt><trkpt lat="45.375795" lon="10.78289"><ele>69.0</ele><time>2026-03-28T10:31:11.833Z</time></trkpt><trkpt lat="45.3759867" lon="10.7827933"><ele>69.33333333333333</ele><time>2026-03-28T10:31:12.833Z</time></trkpt><trkpt lat="45.3761467" lon="10.7826317"><ele>69.66666666666666</ele><time>2026-03-28T10:31:13.833Z</time></trkpt><trkpt lat="45.37629" lon="10.7824467"><ele>70.0</ele><time>2026-03-28T10:31:14.834Z</time></trkpt><trkpt lat="45.3764183" lon="10.7822033"><ele>70.0</ele><time>2026-03-28T10:31:15.834Z</time></trkpt><trkpt lat="45.37654" lon="10.781945"><ele>70.0</ele><time>2026-03-28T10:31:16.833Z</time></trkpt><trkpt lat="45.3766567" lon="10.7816917"><ele>70.0</ele><time>2026-03-28T10:31:17.833Z</time></trkpt><trkpt lat="45.3767583" lon="10.7814283"><ele>71.33333333333333</ele><time>2026-03-28T10:31:18.833Z</time></trkpt><trkpt lat="45.3768383" lon="10.7811383"><ele>72.66666666666667</ele><time>2026-03-28T10:31:19.833Z</time></trkpt><trkpt lat="45.376905" lon="10.78084"><ele>74.0</ele><time>2026-03-28T10:31:20.833Z</time></trkpt><trkpt lat="45.376965" lon="10.7805533"><ele>74.66666666666667</ele><time>2026-03-28T10:31:21.834Z</time></trkpt><trkpt lat="45.3770067" lon="10.78026"><ele>75.33333333333333</ele><time>2026-03-28T10:31:22.833Z</time></trkpt><trkpt lat="45.3770483" lon="10.7799667"><ele>76.0</ele><time>2026-03-28T10:31:23.833Z</time></trkpt><trkpt lat="45.3770983" lon="10.7796583"><ele>76.33333333333333</ele><time>2026-03-28T10:31:24.833Z</time></trkpt><trkpt lat="45.3771567" lon="10.779355"><ele>76.66666666666667</ele><time>2026-03-28T10:31:25.833Z</time></trkpt><trkpt lat="45.37723" lon="10.77906"><ele>77.0</ele><time>2026-03-28T10:31:26.833Z</time></trkpt><trkpt lat="45.3773067" lon="10.77878"><ele>77.66666666666667</ele><time>2026-03-28T10:31:27.834Z</time></trkpt><trkpt lat="45.3773867" lon="10.7785117"><ele>78.33333333333333</ele><time>2026-03-28T10:31:28.834Z</time></trkpt><trkpt lat="45.3774617" lon="10.7782667"><ele>79.0</ele><time>2026-03-28T10:31:29.833Z</time></trkpt><trkpt lat="45.3775433" lon="10.7780417"><ele>79.0</ele><time>2026-03-28T10:31:30.834Z</time></trkpt><trkpt lat="45.3776333" lon="10.777825"><ele>79.0</ele><time>2026-03-28T10:31:31.833Z</time></trkpt><trkpt lat="45.377735" lon="10.7776367"><ele>79.0</ele><time>2026-03-28T10:31:32.833Z</time></trkpt><trkpt lat="45.3778417" lon="10.7774667"><ele>78.0</ele><time>2026-03-28T10:31:33.833Z</time></trkpt><trkpt lat="45.37792" lon="10.7773"><ele>77.0</ele><time>2026-03-28T10:31:34.833Z</time></trkpt><trkpt lat="45.3780133" lon="10.7771667"><ele>76.0</ele><time>2026-03-28T10:31:35.833Z</time></trkpt><trkpt lat="45.378105" lon="10.7771033"><ele>75.0</ele><time>2026-03-28T10:31:36.833Z</time></trkpt><trkpt lat="45.3782017" lon="10.7771183"><ele>75.0</ele><time>2026-03-28T10:31:37.833Z</time></trkpt><trkpt lat="45.3783067" lon="10.777195"><ele>75.0</ele><time>2026-03-28T10:31:38.833Z</time></trkpt><trkpt lat="45.3784283" lon="10.7772933"><ele>75.0</ele><time>2026-03-28T10:31:39.833Z</time></trkpt><trkpt lat="45.3785533" lon="10.777395"><ele>75.0</ele><time>2026-03-28T10:31:40.833Z</time></trkpt><trkpt lat="45.37869" lon="10.777435"><ele>75.0</ele><time>2026-03-28T10:31:41.834Z</time></trkpt><trkpt lat="45.378825" lon="10.7774283"><ele>75.0</ele><time>2026-03-28T10:31:42.833Z</time></trkpt><trkpt lat="45.3789583" lon="10.77736"><ele>75.0</ele><time>2026-03-28T10:31:43.834Z</time></trkpt><trkpt lat="45.3790833" lon="10.7772733"><ele>75.0</ele><time>2026-03-28T10:31:44.834Z</time></trkpt><trkpt lat="45.379225" lon="10.777175"><ele>74.33333333333333</ele><time>2026-03-28T10:31:45.834Z</time></trkpt><trkpt lat="45.37938" lon="10.7770767"><ele>73.66666666666666</ele><time>2026-03-28T10:31:46.833Z</time></trkpt><trkpt lat="45.3795533" lon="10.77697"><ele>73.0</ele><time>2026-03-28T10:31:47.834Z</time></trkpt><trkpt lat="45.3797267" lon="10.7768533"><ele>74.33333333333333</ele><time>2026-03-28T10:31:48.834Z</time></trkpt><trkpt lat="45.3798933" lon="10.7766917"><ele>75.66666666666667</ele><time>2026-03-28T10:31:49.834Z</time></trkpt><trkpt lat="45.3800633" lon="10.7765383"><ele>77.0</ele><time>2026-03-28T10:31:50.833Z</time></trkpt><trkpt lat="45.3802467" lon="10.7764083"><ele>77.0</ele><time>2026-03-28T10:31:51.833Z</time></trkpt><trkpt lat="45.380445" lon="10.776295"><ele>77.0</ele><time>2026-03-28T10:31:52.833Z</time></trkpt><trkpt lat="45.3806417" lon="10.7762033"><ele>77.0</ele><time>2026-03-28T10:31:53.834Z</time></trkpt><trkpt lat="45.3808417" lon="10.7761167"><ele>76.66666666666667</ele><time>2026-03-28T10:31:54.834Z</time></trkpt><trkpt lat="45.3810317" lon="10.7760283"><ele>76.33333333333333</ele><time>2026-03-28T10:31:55.833Z</time></trkpt><trkpt lat="45.38122" lon="10.77593"><ele>76.0</ele><time>2026-03-28T10:31:56.833Z</time></trkpt><trkpt lat="45.3813883" lon="10.77583"><ele>77.0</ele><time>2026-03-28T10:31:57.833Z</time></trkpt><trkpt lat="45.3815617" lon="10.7757217"><ele>78.0</ele><time>2026-03-28T10:31:58.833Z</time></trkpt><trkpt lat="45.3817033" lon="10.775615"><ele>79.0</ele><time>2026-03-28T10:31:59.833Z</time></trkpt><trkpt lat="45.3818167" lon="10.7755183"><ele>79.0</ele><time>2026-03-28T10:32:00.833Z</time></trkpt><trkpt lat="45.381905" lon="10.775405"><ele>79.0</ele><time>2026-03-28T10:32:01.832Z</time></trkpt><trkpt lat="45.3819417" lon="10.7752783"><ele>79.0</ele><time>2026-03-28T10:32:02.832Z</time></trkpt><trkpt lat="45.3819433" lon="10.775115"><ele>79.0</ele><time>2026-03-28T10:32:03.833Z</time></trkpt><trkpt lat="45.3819117" lon="10.774945"><ele>80.5</ele><time>2026-03-28T10:32:04.833Z</time></trkpt><trkpt lat="45.38185" lon="10.774775"><ele>82.0</ele><time>2026-03-28T10:32:05.833Z</time></trkpt><trkpt lat="45.3817867" lon="10.7746117"><ele>83.5</ele><time>2026-03-28T10:32:06.833Z</time></trkpt><trkpt lat="45.3817333" lon="10.7744467"><ele>85.0</ele><time>2026-03-28T10:32:07.832Z</time></trkpt><trkpt lat="45.381705" lon="10.77428"><ele>87.5</ele><time>2026-03-28T10:32:08.833Z</time></trkpt><trkpt lat="45.3816967" lon="10.7741283"><ele>90.0</ele><time>2026-03-28T10:32:09.833Z</time></trkpt><trkpt lat="45.3817017" lon="10.7739583"><ele>92.5</ele><time>2026-03-28T10:32:10.833Z</time></trkpt><trkpt lat="45.3817067" lon="10.7737817"><ele>95.0</ele><time>2026-03-28T10:32:11.832Z</time></trkpt><trkpt lat="45.3817117" lon="10.7736083"><ele>95.8</ele><time>2026-03-28T10:32:12.832Z</time></trkpt><trkpt lat="45.3817083" lon="10.773455"><ele>96.6</ele><time>2026-03-28T10:32:13.832Z</time></trkpt><trkpt lat="45.3817067" lon="10.7733267"><ele>97.4</ele><time>2026-03-28T10:32:14.832Z</time></trkpt><trkpt lat="45.381705" lon="10.7731983"><ele>98.2</ele><time>2026-03-28T10:32:15.832Z</time></trkpt><trkpt lat="45.3817067" lon="10.7730633"><ele>99.0</ele><time>2026-03-28T10:32:16.832Z</time></trkpt><trkpt lat="45.3817183" lon="10.7729167"><ele>99.0</ele><time>2026-03-28T10:32:17.832Z</time></trkpt><trkpt lat="45.381735" lon="10.77275"><ele>99.0</ele><time>2026-03-28T10:32:18.832Z</time></trkpt><trkpt lat="45.3817767" lon="10.7725817"><ele>99.0</ele><time>2026-03-28T10:32:19.833Z</time></trkpt><trkpt lat="45.3818317" lon="10.77242"><ele>99.0</ele><time>2026-03-28T10:32:20.832Z</time></trkpt><trkpt lat="45.3818883" lon="10.772245"><ele>99.33333333333334</ele><time>2026-03-28T10:32:21.832Z</time></trkpt><trkpt lat="45.38195" lon="10.7720533"><ele>99.66666666666667</ele><time>2026-03-28T10:32:22.832Z</time></trkpt><trkpt lat="45.38202" lon="10.7718583"><ele>100.0</ele><time>2026-03-28T10:32:23.833Z</time></trkpt><trkpt lat="45.3820867" lon="10.7716567"><ele>100.5</ele><time>2026-03-28T10:32:24.833Z</time></trkpt><trkpt lat="45.3821467" lon="10.7714633"><ele>101.0</ele><time>2026-03-28T10:32:25.832Z</time></trkpt><trkpt lat="45.3822183" lon="10.7713"><ele>101.5</ele><time>2026-03-28T10:32:26.833Z</time></trkpt><trkpt lat="45.38231" lon="10.7711467"><ele>102.0</ele><time>2026-03-28T10:32:27.832Z</time></trkpt><trkpt lat="45.3824067" lon="10.7710083"><ele>103.6</ele><time>2026-03-28T10:32:28.832Z</time></trkpt><trkpt lat="45.382505" lon="10.7708733"><ele>105.19999999999999</ele><time>2026-03-28T10:32:29.832Z</time></trkpt><trkpt lat="45.3825933" lon="10.7707467"><ele>106.8</ele><time>2026-03-28T10:32:30.833Z</time></trkpt><trkpt lat="45.3826717" lon="10.770645"><ele>108.4</ele><time>2026-03-28T10:32:31.833Z</time></trkpt><trkpt lat="45.3827167" lon="10.770565"><ele>110.0</ele><time>2026-03-28T10:32:32.833Z</time></trkpt><trkpt lat="45.3827533" lon="10.7704817"><ele>110.0</ele><time>2026-03-28T10:32:33.833Z</time></trkpt><trkpt lat="45.382825" lon="10.7704417"><ele>110.0</ele><time>2026-03-28T10:32:35.832Z</time></trkpt><trkpt lat="45.3829133" lon="10.7705983"><ele>110.0</ele><time>2026-03-28T10:32:37.832Z</time></trkpt><trkpt lat="45.3829667" lon="10.7707483"><ele>110.0</ele><time>2026-03-28T10:32:38.832Z</time></trkpt><trkpt lat="45.383035" lon="10.7709017"><ele>110.75</ele><time>2026-03-28T10:32:39.832Z</time></trkpt><trkpt lat="45.3831067" lon="10.7710633"><ele>111.5</ele><time>2026-03-28T10:32:40.833Z</time></trkpt><trkpt lat="45.3831833" lon="10.771215"><ele>112.25</ele><time>2026-03-28T10:32:41.833Z</time></trkpt><trkpt lat="45.38327" lon="10.7713783"><ele>113.0</ele><time>2026-03-28T10:32:42.832Z</time></trkpt><trkpt lat="45.3833617" lon="10.7715117"><ele>113.0</ele><time>2026-03-28T10:32:43.833Z</time></trkpt><trkpt lat="45.3834417" lon="10.7716333"><ele>113.00000000000001</ele><time>2026-03-28T10:32:44.832Z</time></trkpt><trkpt lat="45.38351" lon="10.7717517"><ele>113.00000000000001</ele><time>2026-03-28T10:32:45.833Z</time></trkpt><trkpt lat="45.3835883" lon="10.7718533"><ele>113.0</ele><time>2026-03-28T10:32:46.832Z</time></trkpt><trkpt lat="45.3836717" lon="10.7719717"><ele>113.0</ele><time>2026-03-28T10:32:47.833Z</time></trkpt><trkpt lat="45.38377" lon="10.7720933"><ele>114.0</ele><time>2026-03-28T10:32:48.833Z</time></trkpt><trkpt lat="45.3838833" lon="10.77222"><ele>115.0</ele><time>2026-03-28T10:32:49.833Z</time></trkpt><trkpt lat="45.384" lon="10.7723467"><ele>116.0</ele><time>2026-03-28T10:32:50.832Z</time></trkpt><trkpt lat="45.3841183" lon="10.7724767"><ele>117.0</ele><time>2026-03-28T10:32:51.832Z</time></trkpt><trkpt lat="45.3842233" lon="10.7725917"><ele>115.5</ele><time>2026-03-28T10:32:52.833Z</time></trkpt><trkpt lat="45.3843133" lon="10.7727"><ele>114.0</ele><time>2026-03-28T10:32:53.832Z</time></trkpt><trkpt lat="45.3844067" lon="10.7727883"><ele>112.5</ele><time>2026-03-28T10:32:54.832Z</time></trkpt><trkpt lat="45.3845" lon="10.7728783"><ele>111.0</ele><time>2026-03-28T10:32:55.833Z</time></trkpt><trkpt lat="45.3845967" lon="10.7729667"><ele>112.19999999999999</ele><time>2026-03-28T10:32:56.832Z</time></trkpt><trkpt lat="45.3846833" lon="10.7730417"><ele>113.39999999999999</ele><time>2026-03-28T10:32:57.832Z</time></trkpt><trkpt lat="45.3847817" lon="10.7730933"><ele>114.6</ele><time>2026-03-28T10:32:58.832Z</time></trkpt><trkpt lat="45.3848733" lon="10.7731333"><ele>115.8</ele><time>2026-03-28T10:32:59.833Z</time></trkpt><trkpt lat="45.3849667" lon="10.7731683"><ele>117.0</ele><time>2026-03-28T10:33:00.833Z</time></trkpt><trkpt lat="45.38506" lon="10.77321"><ele>117.0</ele><time>2026-03-28T10:33:01.833Z</time></trkpt><trkpt lat="45.3851633" lon="10.7732417"><ele>116.99999999999999</ele><time>2026-03-28T10:33:02.833Z</time></trkpt><trkpt lat="45.3852617" lon="10.77327"><ele>116.99999999999999</ele><time>2026-03-28T10:33:03.832Z</time></trkpt><trkpt lat="45.3853567" lon="10.7733067"><ele>117.0</ele><time>2026-03-28T10:33:04.833Z</time></trkpt><trkpt lat="45.3854533" lon="10.7733433"><ele>117.0</ele><time>2026-03-28T10:33:05.833Z</time></trkpt><trkpt lat="45.3855467" lon="10.77341"><ele>117.39999999999999</ele><time>2026-03-28T10:33:06.832Z</time></trkpt><trkpt lat="45.3856233" lon="10.7735067"><ele>117.79999999999998</ele><time>2026-03-28T10:33:07.832Z</time></trkpt><trkpt lat="45.3857067" lon="10.7735983"><ele>118.2</ele><time>2026-03-28T10:33:08.832Z</time></trkpt><trkpt lat="45.3858" lon="10.77369"><ele>118.6</ele><time>2026-03-28T10:33:09.833Z</time></trkpt><trkpt lat="45.3859" lon="10.7737817"><ele>119.0</ele><time>2026-03-28T10:33:10.832Z</time></trkpt><trkpt lat="45.3860183" lon="10.773855"><ele>119.0</ele><time>2026-03-28T10:33:11.833Z</time></trkpt><trkpt lat="45.38613" lon="10.77395"><ele>119.0</ele><time>2026-03-28T10:33:12.832Z</time></trkpt><trkpt lat="45.3862467" lon="10.7740667"><ele>119.0</ele><time>2026-03-28T10:33:13.833Z</time></trkpt><trkpt lat="45.386365" lon="10.7741733"><ele>119.0</ele><time>2026-03-28T10:33:14.832Z</time></trkpt><trkpt lat="45.3864767" lon="10.77429"><ele>119.5</ele><time>2026-03-28T10:33:15.832Z</time></trkpt><trkpt lat="45.3865833" lon="10.7744"><ele>120.0</ele><time>2026-03-28T10:33:16.832Z</time></trkpt><trkpt lat="45.386685" lon="10.7745"><ele>120.5</ele><time>2026-03-28T10:33:17.832Z</time></trkpt><trkpt lat="45.3867783" lon="10.774595"><ele>121.0</ele><time>2026-03-28T10:33:18.832Z</time></trkpt><trkpt lat="45.386865" lon="10.774695"><ele>121.0</ele><time>2026-03-28T10:33:19.832Z</time></trkpt><trkpt lat="45.3869433" lon="10.7748283"><ele>121.0</ele><time>2026-03-28T10:33:20.833Z</time></trkpt><trkpt lat="45.387025" lon="10.7749633"><ele>121.0</ele><time>2026-03-28T10:33:21.833Z</time></trkpt><trkpt lat="45.3871033" lon="10.77511"><ele>121.0</ele><time>2026-03-28T10:33:22.832Z</time></trkpt><trkpt lat="45.3871733" lon="10.7752317"><ele>121.25</ele><time>2026-03-28T10:33:23.832Z</time></trkpt><trkpt lat="45.38726" lon="10.7753433"><ele>121.5</ele><time>2026-03-28T10:33:24.832Z</time></trkpt><trkpt lat="45.3873483" lon="10.7754483"><ele>121.75</ele><time>2026-03-28T10:33:25.833Z</time></trkpt><trkpt lat="45.3874467" lon="10.7755417"><ele>122.0</ele><time>2026-03-28T10:33:26.833Z</time></trkpt><trkpt lat="45.38754" lon="10.7756217"><ele>122.0</ele><time>2026-03-28T10:33:27.832Z</time></trkpt><trkpt lat="45.38763" lon="10.7757"><ele>121.99999999999999</ele><time>2026-03-28T10:33:28.833Z</time></trkpt><trkpt lat="45.387725" lon="10.7757733"><ele>121.99999999999999</ele><time>2026-03-28T10:33:29.833Z</time></trkpt><trkpt lat="45.38782" lon="10.77586"><ele>122.0</ele><time>2026-03-28T10:33:30.833Z</time></trkpt><trkpt lat="45.3879" lon="10.775935"><ele>122.0</ele><time>2026-03-28T10:33:31.833Z</time></trkpt><trkpt lat="45.3879667" lon="10.7760083"><ele>121.66666666666666</ele><time>2026-03-28T10:33:32.833Z</time></trkpt><trkpt lat="45.3880183" lon="10.77609"><ele>121.33333333333333</ele><time>2026-03-28T10:33:33.832Z</time></trkpt><trkpt lat="45.3880667" lon="10.77617"><ele>121.0</ele><time>2026-03-28T10:33:34.832Z</time></trkpt><trkpt lat="45.3881183" lon="10.7762617"><ele>120.66666666666666</ele><time>2026-03-28T10:33:35.832Z</time></trkpt><trkpt lat="45.3881667" lon="10.7763533"><ele>120.33333333333333</ele><time>2026-03-28T10:33:36.832Z</time></trkpt><trkpt lat="45.388215" lon="10.7764433"><ele>120.0</ele><time>2026-03-28T10:33:37.832Z</time></trkpt><trkpt lat="45.388275" lon="10.776545"><ele>120.0</ele><time>2026-03-28T10:33:38.832Z</time></trkpt><trkpt lat="45.388335" lon="10.77666"><ele>120.0</ele><time>2026-03-28T10:33:39.832Z</time></trkpt><trkpt lat="45.3883967" lon="10.7767833"><ele>120.0</ele><time>2026-03-28T10:33:40.832Z</time></trkpt><trkpt lat="45.3884517" lon="10.7769133"><ele>120.0</ele><time>2026-03-28T10:33:41.833Z</time></trkpt><trkpt lat="45.388505" lon="10.7770417"><ele>120.0</ele><time>2026-03-28T10:33:42.832Z</time></trkpt><trkpt lat="45.3885617" lon="10.7771767"><ele>117.2</ele><time>2026-03-28T10:33:43.833Z</time></trkpt><trkpt lat="45.38861" lon="10.7773083"><ele>114.4</ele><time>2026-03-28T10:33:44.833Z</time></trkpt><trkpt lat="45.3886583" lon="10.7774367"><ele>111.6</ele><time>2026-03-28T10:33:45.832Z</time></trkpt><trkpt lat="45.3886967" lon="10.77756"><ele>108.8</ele><time>2026-03-28T10:33:46.832Z</time></trkpt><trkpt lat="45.388725" lon="10.7776767"><ele>106.0</ele><time>2026-03-28T10:33:47.832Z</time></trkpt><trkpt lat="45.3887483" lon="10.7777917"><ele>106.83333333333334</ele><time>2026-03-28T10:33:48.832Z</time></trkpt><trkpt lat="45.3887683" lon="10.7779017"><ele>107.66666666666667</ele><time>2026-03-28T10:33:49.833Z</time></trkpt><trkpt lat="45.388795" lon="10.7779867"><ele>108.5</ele><time>2026-03-28T10:33:50.832Z</time></trkpt><trkpt lat="45.3888217" lon="10.7780683"><ele>109.33333333333334</ele><time>2026-03-28T10:33:51.833Z</time></trkpt><trkpt lat="45.3889183" lon="10.7781533"><ele>110.16666666666667</ele><time>2026-03-28T10:33:53.832Z</time></trkpt><trkpt lat="45.3889933" lon="10.77819"><ele>111.0</ele><time>2026-03-28T10:33:54.832Z</time></trkpt><trkpt lat="45.38908" lon="10.7782317"><ele>111.0</ele><time>2026-03-28T10:33:55.833Z</time></trkpt><trkpt lat="45.38917" lon="10.778285"><ele>111.0</ele><time>2026-03-28T10:33:56.833Z</time></trkpt><trkpt lat="45.389255" lon="10.778335"><ele>111.0</ele><time>2026-03-28T10:33:57.833Z</time></trkpt><trkpt lat="45.38933" lon="10.7783867"><ele>111.0</ele><time>2026-03-28T10:33:58.832Z</time></trkpt><trkpt lat="45.3894167" lon="10.778425"><ele>111.0</ele><time>2026-03-28T10:33:59.832Z</time></trkpt><trkpt lat="45.3894917" lon="10.7784633"><ele>111.0</ele><time>2026-03-28T10:34:00.832Z</time></trkpt><trkpt lat="45.38957" lon="10.7785233"><ele>110.6</ele><time>2026-03-28T10:34:01.832Z</time></trkpt><trkpt lat="45.389645" lon="10.7785783"><ele>110.19999999999999</ele><time>2026-03-28T10:34:02.832Z</time></trkpt><trkpt lat="45.38973" lon="10.7786333"><ele>109.80000000000001</ele><time>2026-03-28T10:34:03.833Z</time></trkpt><trkpt lat="45.3898167" lon="10.7786967"><ele>109.4</ele><time>2026-03-28T10:34:04.832Z</time></trkpt><trkpt lat="45.3898983" lon="10.7787533"><ele>109.0</ele><time>2026-03-28T10:34:05.832Z</time></trkpt><trkpt lat="45.389975" lon="10.778815"><ele>109.0</ele><time>2026-03-28T10:34:06.833Z</time></trkpt><trkpt lat="45.390055" lon="10.7788767"><ele>109.0</ele><time>2026-03-28T10:34:07.832Z</time></trkpt><trkpt lat="45.3901517" lon="10.7789483"><ele>109.0</ele><time>2026-03-28T10:34:08.832Z</time></trkpt><trkpt lat="45.3902367" lon="10.7790017"><ele>109.0</ele><time>2026-03-28T10:34:09.832Z</time></trkpt><trkpt lat="45.3903067" lon="10.7790317"><ele>109.0</ele><time>2026-03-28T10:34:10.832Z</time></trkpt><trkpt lat="45.3903883" lon="10.7790033"><ele>109.0</ele><time>2026-03-28T10:34:12.833Z</time></trkpt><trkpt lat="45.39042" lon="10.7788267"><ele>109.0</ele><time>2026-03-28T10:34:14.833Z</time></trkpt><trkpt lat="45.39043" lon="10.7786983"><ele>109.0</ele><time>2026-03-28T10:34:15.832Z</time></trkpt><trkpt lat="45.39045" lon="10.7785567"><ele>109.0</ele><time>2026-03-28T10:34:16.833Z</time></trkpt><trkpt lat="45.3904883" lon="10.7784117"><ele>109.0</ele><time>2026-03-28T10:34:17.832Z</time></trkpt><trkpt lat="45.3905267" lon="10.778235"><ele>110.2</ele><time>2026-03-28T10:34:18.832Z</time></trkpt><trkpt lat="45.3905633" lon="10.7780983"><ele>111.4</ele><time>2026-03-28T10:34:19.832Z</time></trkpt><trkpt lat="45.3906167" lon="10.7779867"><ele>112.6</ele><time>2026-03-28T10:34:20.833Z</time></trkpt><trkpt lat="45.39068" lon="10.7778867"><ele>113.8</ele><time>2026-03-28T10:34:21.832Z</time></trkpt><trkpt lat="45.390755" lon="10.7778067"><ele>115.0</ele><time>2026-03-28T10:34:22.832Z</time></trkpt><trkpt lat="45.3908267" lon="10.77773"><ele>115.50000000000001</ele><time>2026-03-28T10:34:23.832Z</time></trkpt><trkpt lat="45.3908833" lon="10.7776567"><ele>116.0</ele><time>2026-03-28T10:34:24.832Z</time></trkpt><trkpt lat="45.3909233" lon="10.77758"><ele>116.5</ele><time>2026-03-28T10:34:25.832Z</time></trkpt><trkpt lat="45.3909567" lon="10.7774883"><ele>117.0</ele><time>2026-03-28T10:34:26.832Z</time></trkpt><trkpt lat="45.39098" lon="10.7773917"><ele>117.50000000000001</ele><time>2026-03-28T10:34:27.833Z</time></trkpt><trkpt lat="45.3909933" lon="10.77727"><ele>118.0</ele><time>2026-03-28T10:34:28.832Z</time></trkpt><trkpt lat="45.3909933" lon="10.7771333"><ele>118.0</ele><time>2026-03-28T10:34:29.833Z</time></trkpt><trkpt lat="45.3909767" lon="10.77699"><ele>118.00000000000001</ele><time>2026-03-28T10:34:30.833Z</time></trkpt><trkpt lat="45.3909533" lon="10.776855"><ele>118.00000000000001</ele><time>2026-03-28T10:34:31.833Z</time></trkpt><trkpt lat="45.39092" lon="10.7767367"><ele>118.0</ele><time>2026-03-28T10:34:32.832Z</time></trkpt><trkpt lat="45.390875" lon="10.776625"><ele>118.0</ele><time>2026-03-28T10:34:33.833Z</time></trkpt><trkpt lat="45.3908183" lon="10.776525"><ele>117.2</ele><time>2026-03-28T10:34:34.833Z</time></trkpt><trkpt lat="45.390755" lon="10.7764267"><ele>116.4</ele><time>2026-03-28T10:34:35.832Z</time></trkpt><trkpt lat="45.3906883" lon="10.7763283"><ele>115.60000000000001</ele><time>2026-03-28T10:34:36.833Z</time></trkpt><trkpt lat="45.39063" lon="10.7762467"><ele>114.80000000000001</ele><time>2026-03-28T10:34:37.832Z</time></trkpt><trkpt lat="45.3905883" lon="10.7761717"><ele>114.0</ele><time>2026-03-28T10:34:38.832Z</time></trkpt><trkpt lat="45.3905417" lon="10.7760133"><ele>112.2</ele><time>2026-03-28T10:34:40.832Z</time></trkpt><trkpt lat="45.390545" lon="10.775905"><ele>110.4</ele><time>2026-03-28T10:34:41.832Z</time></trkpt><trkpt lat="45.3905633" lon="10.775775"><ele>108.6</ele><time>2026-03-28T10:34:42.833Z</time></trkpt><trkpt lat="45.3905783" lon="10.7756283"><ele>106.8</ele><time>2026-03-28T10:34:43.832Z</time></trkpt><trkpt lat="45.3905883" lon="10.7754833"><ele>105.0</ele><time>2026-03-28T10:34:44.832Z</time></trkpt><trkpt lat="45.3905917" lon="10.77535"><ele>105.0</ele><time>2026-03-28T10:34:45.832Z</time></trkpt><trkpt lat="45.39059" lon="10.7752383"><ele>105.0</ele><time>2026-03-28T10:34:46.833Z</time></trkpt><trkpt lat="45.3905883" lon="10.7751317"><ele>105.0</ele><time>2026-03-28T10:34:47.832Z</time></trkpt><trkpt lat="45.3905867" lon="10.7750067"><ele>105.0</ele><time>2026-03-28T10:34:48.833Z</time></trkpt><trkpt lat="45.390575" lon="10.7748567"><ele>105.0</ele><time>2026-03-28T10:34:49.832Z</time></trkpt><trkpt lat="45.3905533" lon="10.7746883"><ele>104.75</ele><time>2026-03-28T10:34:50.833Z</time></trkpt><trkpt lat="45.3905267" lon="10.7745217"><ele>104.5</ele><time>2026-03-28T10:34:51.832Z</time></trkpt><trkpt lat="45.3904783" lon="10.7743583"><ele>104.25</ele><time>2026-03-28T10:34:52.833Z</time></trkpt><trkpt lat="45.3904317" lon="10.7742067"><ele>104.0</ele><time>2026-03-28T10:34:53.832Z</time></trkpt><trkpt lat="45.3903817" lon="10.774065"><ele>103.4</ele><time>2026-03-28T10:34:54.833Z</time></trkpt><trkpt lat="45.3903467" lon="10.7739267"><ele>102.80000000000001</ele><time>2026-03-28T10:34:55.832Z</time></trkpt><trkpt lat="45.3903333" lon="10.7737917"><ele>102.19999999999999</ele><time>2026-03-28T10:34:56.832Z</time></trkpt><trkpt lat="45.390335" lon="10.773695"><ele>101.6</ele><time>2026-03-28T10:34:57.832Z</time></trkpt><trkpt lat="45.3903717" lon="10.7736217"><ele>101.0</ele><time>2026-03-28T10:34:58.832Z</time></trkpt><trkpt lat="45.3905183" lon="10.7735517"><ele>100.25</ele><time>2026-03-28T10:35:00.833Z</time></trkpt><trkpt lat="45.3906417" lon="10.77351"><ele>99.5</ele><time>2026-03-28T10:35:01.832Z</time></trkpt><trkpt lat="45.39077" lon="10.7734517"><ele>98.75</ele><time>2026-03-28T10:35:02.833Z</time></trkpt><trkpt lat="45.390875" lon="10.7733883"><ele>98.0</ele><time>2026-03-28T10:35:03.833Z</time></trkpt><trkpt lat="45.390975" lon="10.77331"><ele>98.0</ele><time>2026-03-28T10:35:04.832Z</time></trkpt><trkpt lat="45.3910767" lon="10.7732167"><ele>98.0</ele><time>2026-03-28T10:35:05.832Z</time></trkpt><trkpt lat="45.3911917" lon="10.7731433"><ele>98.0</ele><time>2026-03-28T10:35:06.832Z</time></trkpt><trkpt lat="45.3913017" lon="10.7730367"><ele>98.0</ele><time>2026-03-28T10:35:07.833Z</time></trkpt><trkpt lat="45.3914067" lon="10.7728933"><ele>96.25</ele><time>2026-03-28T10:35:08.833Z</time></trkpt><trkpt lat="45.3915267" lon="10.772765"><ele>94.5</ele><time>2026-03-28T10:35:09.832Z</time></trkpt><trkpt lat="45.3916467" lon="10.7726417"><ele>92.75</ele><time>2026-03-28T10:35:10.832Z</time></trkpt><trkpt lat="45.3917617" lon="10.7725183"><ele>91.0</ele><time>2026-03-28T10:35:11.833Z</time></trkpt><trkpt lat="45.3918767" lon="10.7723967"><ele>90.6</ele><time>2026-03-28T10:35:12.833Z</time></trkpt><trkpt lat="45.3919767" lon="10.7722933"><ele>90.19999999999999</ele><time>2026-03-28T10:35:13.832Z</time></trkpt><trkpt lat="45.39206" lon="10.7721783"><ele>89.80000000000001</ele><time>2026-03-28T10:35:14.833Z</time></trkpt><trkpt lat="45.3921333" lon="10.772065"><ele>89.4</ele><time>2026-03-28T10:35:15.833Z</time></trkpt><trkpt lat="45.3922033" lon="10.7719667"><ele>89.0</ele><time>2026-03-28T10:35:16.833Z</time></trkpt><trkpt lat="45.3922683" lon="10.7718767"><ele>88.5</ele><time>2026-03-28T10:35:17.833Z</time></trkpt><trkpt lat="45.3923433" lon="10.7717933"><ele>88.0</ele><time>2026-03-28T10:35:18.832Z</time></trkpt><trkpt lat="45.3924217" lon="10.7717233"><ele>87.5</ele><time>2026-03-28T10:35:19.831Z</time></trkpt><trkpt lat="45.3925067" lon="10.7716467"><ele>87.0</ele><time>2026-03-28T10:35:20.832Z</time></trkpt><trkpt lat="45.3925667" lon="10.771565"><ele>86.5</ele><time>2026-03-28T10:35:21.831Z</time></trkpt><trkpt lat="45.3925967" lon="10.7714683"><ele>86.0</ele><time>2026-03-28T10:35:22.832Z</time></trkpt><trkpt lat="45.3925883" lon="10.7713717"><ele>86.0</ele><time>2026-03-28T10:35:23.832Z</time></trkpt><trkpt lat="45.39258" lon="10.771235"><ele>86.0</ele><time>2026-03-28T10:35:24.831Z</time></trkpt><trkpt lat="45.3925533" lon="10.7710717"><ele>86.0</ele><time>2026-03-28T10:35:25.831Z</time></trkpt><trkpt lat="45.392515" lon="10.7708917"><ele>86.0</ele><time>2026-03-28T10:35:26.831Z</time></trkpt><trkpt lat="45.39249" lon="10.7707183"><ele>85.83333333333334</ele><time>2026-03-28T10:35:27.832Z</time></trkpt><trkpt lat="45.392455" lon="10.7705783"><ele>85.66666666666667</ele><time>2026-03-28T10:35:28.832Z</time></trkpt><trkpt lat="45.392435" lon="10.77046"><ele>85.5</ele><time>2026-03-28T10:35:29.832Z</time></trkpt><trkpt lat="45.3924417" lon="10.770365"><ele>85.33333333333333</ele><time>2026-03-28T10:35:30.832Z</time></trkpt><trkpt lat="45.39251" lon="10.7702683"><ele>85.16666666666666</ele><time>2026-03-28T10:35:32.832Z</time></trkpt><trkpt lat="45.3925733" lon="10.770265"><ele>85.0</ele><time>2026-03-28T10:35:33.832Z</time></trkpt><trkpt lat="45.39268" lon="10.7702733"><ele>85.0</ele><time>2026-03-28T10:35:34.831Z</time></trkpt><trkpt lat="45.3928" lon="10.7702833"><ele>85.0</ele><time>2026-03-28T10:35:35.831Z</time></trkpt><trkpt lat="45.3929367" lon="10.770275"><ele>85.0</ele><time>2026-03-28T10:35:36.831Z</time></trkpt><trkpt lat="45.3930783" lon="10.770275"><ele>85.0</ele><time>2026-03-28T10:35:37.831Z</time></trkpt><trkpt lat="45.393225" lon="10.7702633"><ele>85.66666666666666</ele><time>2026-03-28T10:35:38.831Z</time></trkpt><trkpt lat="45.393375" lon="10.7702683"><ele>86.33333333333333</ele><time>2026-03-28T10:35:39.831Z</time></trkpt><trkpt lat="45.393535" lon="10.7702717"><ele>87.0</ele><time>2026-03-28T10:35:40.832Z</time></trkpt><trkpt lat="45.393685" lon="10.770295"><ele>87.0</ele><time>2026-03-28T10:35:41.831Z</time></trkpt><trkpt lat="45.3938267" lon="10.77035"><ele>87.0</ele><time>2026-03-28T10:35:42.831Z</time></trkpt><trkpt lat="45.393965" lon="10.7704167"><ele>87.0</ele><time>2026-03-28T10:35:43.831Z</time></trkpt><trkpt lat="45.3940967" lon="10.7704883"><ele>87.0</ele><time>2026-03-28T10:35:44.831Z</time></trkpt><trkpt lat="45.3942283" lon="10.7705817"><ele>89.66666666666667</ele><time>2026-03-28T10:35:45.831Z</time></trkpt><trkpt lat="45.3943467" lon="10.7707083"><ele>92.33333333333334</ele><time>2026-03-28T10:35:46.832Z</time></trkpt><trkpt lat="45.394465" lon="10.7708433"><ele>95.0</ele><time>2026-03-28T10:35:47.831Z</time></trkpt><trkpt lat="45.3945933" lon="10.771005"><ele>96.66666666666667</ele><time>2026-03-28T10:35:48.831Z</time></trkpt><trkpt lat="45.39472" lon="10.771165"><ele>98.33333333333334</ele><time>2026-03-28T10:35:49.832Z</time></trkpt><trkpt lat="45.3948483" lon="10.77133"><ele>100.0</ele><time>2026-03-28T10:35:50.832Z</time></trkpt><trkpt lat="45.3949683" lon="10.7714917"><ele>100.0</ele><time>2026-03-28T10:35:51.832Z</time></trkpt><trkpt lat="45.39508" lon="10.77164"><ele>100.0</ele><time>2026-03-28T10:35:52.832Z</time></trkpt><trkpt lat="45.3951683" lon="10.7717917"><ele>100.0</ele><time>2026-03-28T10:35:53.832Z</time></trkpt><trkpt lat="45.3952417" lon="10.7719517"><ele>100.0</ele><time>2026-03-28T10:35:54.832Z</time></trkpt><trkpt lat="45.3953067" lon="10.7721317"><ele>98.25</ele><time>2026-03-28T10:35:55.832Z</time></trkpt><trkpt lat="45.39538" lon="10.7722933"><ele>96.5</ele><time>2026-03-28T10:35:56.831Z</time></trkpt><trkpt lat="45.39544" lon="10.7724733"><ele>94.75</ele><time>2026-03-28T10:35:57.831Z</time></trkpt><trkpt lat="45.395495" lon="10.7726467"><ele>93.0</ele><time>2026-03-28T10:35:58.831Z</time></trkpt><trkpt lat="45.3955517" lon="10.772825"><ele>96.0</ele><time>2026-03-28T10:35:59.831Z</time></trkpt><trkpt lat="45.395615" lon="10.7729867"><ele>99.0</ele><time>2026-03-28T10:36:00.832Z</time></trkpt><trkpt lat="45.3956817" lon="10.7731683"><ele>102.0</ele><time>2026-03-28T10:36:01.832Z</time></trkpt><trkpt lat="45.3957383" lon="10.7733367"><ele>105.0</ele><time>2026-03-28T10:36:02.832Z</time></trkpt><trkpt lat="45.3957883" lon="10.7735267"><ele>105.0</ele><time>2026-03-28T10:36:03.831Z</time></trkpt><trkpt lat="45.3958333" lon="10.7736867"><ele>105.0</ele><time>2026-03-28T10:36:04.832Z</time></trkpt><trkpt lat="45.39585" lon="10.7738233"><ele>105.0</ele><time>2026-03-28T10:36:05.831Z</time></trkpt><trkpt lat="45.39586" lon="10.7739617"><ele>105.0</ele><time>2026-03-28T10:36:06.832Z</time></trkpt><trkpt lat="45.3958833" lon="10.7740867"><ele>105.0</ele><time>2026-03-28T10:36:07.831Z</time></trkpt><trkpt lat="45.3959383" lon="10.7742017"><ele>105.0</ele><time>2026-03-28T10:36:08.831Z</time></trkpt><trkpt lat="45.3960083" lon="10.77429"><ele>105.0</ele><time>2026-03-28T10:36:09.831Z</time></trkpt><trkpt lat="45.3960967" lon="10.7743517"><ele>105.0</ele><time>2026-03-28T10:36:10.831Z</time></trkpt><trkpt lat="45.396205" lon="10.7743917"><ele>105.0</ele><time>2026-03-28T10:36:11.831Z</time></trkpt><trkpt lat="45.39634" lon="10.7744133"><ele>105.0</ele><time>2026-03-28T10:36:12.831Z</time></trkpt><trkpt lat="45.3964817" lon="10.7744333"><ele>106.5</ele><time>2026-03-28T10:36:13.831Z</time></trkpt><trkpt lat="45.3966333" lon="10.77447"><ele>108.0</ele><time>2026-03-28T10:36:14.831Z</time></trkpt><trkpt lat="45.3967517" lon="10.7744867"><ele>109.5</ele><time>2026-03-28T10:36:15.831Z</time></trkpt><trkpt lat="45.396855" lon="10.7745133"><ele>111.0</ele><time>2026-03-28T10:36:16.832Z</time></trkpt><trkpt lat="45.3969367" lon="10.7745617"><ele>111.0</ele><time>2026-03-28T10:36:18.832Z</time></trkpt><trkpt lat="45.396925" lon="10.774675"><ele>111.0</ele><time>2026-03-28T10:36:20.832Z</time></trkpt><trkpt lat="45.3968967" lon="10.7747817"><ele>111.0</ele><time>2026-03-28T10:36:21.831Z</time></trkpt><trkpt lat="45.396855" lon="10.7749233"><ele>111.0</ele><time>2026-03-28T10:36:22.831Z</time></trkpt><trkpt lat="45.3968133" lon="10.775105"><ele>111.0</ele><time>2026-03-28T10:36:23.831Z</time></trkpt><trkpt lat="45.3967783" lon="10.7753183"><ele>111.5</ele><time>2026-03-28T10:36:24.831Z</time></trkpt><trkpt lat="45.3967483" lon="10.7755333"><ele>112.0</ele><time>2026-03-28T10:36:25.832Z</time></trkpt><trkpt lat="45.39673" lon="10.7757333"><ele>112.5</ele><time>2026-03-28T10:36:26.832Z</time></trkpt><trkpt lat="45.3967217" lon="10.7758983"><ele>113.0</ele><time>2026-03-28T10:36:27.832Z</time></trkpt><trkpt lat="45.39672" lon="10.776035"><ele>113.0</ele><time>2026-03-28T10:36:28.832Z</time></trkpt><trkpt lat="45.3967283" lon="10.7761383"><ele>113.00000000000001</ele><time>2026-03-28T10:36:29.832Z</time></trkpt><trkpt lat="45.39676" lon="10.7762833"><ele>113.00000000000001</ele><time>2026-03-28T10:36:31.831Z</time></trkpt><trkpt lat="45.3968883" lon="10.776355"><ele>113.0</ele><time>2026-03-28T10:36:33.832Z</time></trkpt><trkpt lat="45.3969933" lon="10.77635"><ele>113.0</ele><time>2026-03-28T10:36:34.831Z</time></trkpt><trkpt lat="45.3971217" lon="10.7763567"><ele>114.0</ele><time>2026-03-28T10:36:35.831Z</time></trkpt><trkpt lat="45.3972333" lon="10.7763883"><ele>115.00000000000001</ele><time>2026-03-28T10:36:36.831Z</time></trkpt><trkpt lat="45.3973417" lon="10.776425"><ele>116.00000000000001</ele><time>2026-03-28T10:36:37.831Z</time></trkpt><trkpt lat="45.3974433" lon="10.77645"><ele>117.0</ele><time>2026-03-28T10:36:38.831Z</time></trkpt><trkpt lat="45.3975383" lon="10.7764667"><ele>118.0</ele><time>2026-03-28T10:36:39.832Z</time></trkpt><trkpt lat="45.3976333" lon="10.7764633"><ele>118.0</ele><time>2026-03-28T10:36:40.831Z</time></trkpt><trkpt lat="45.39773" lon="10.7764633"><ele>118.00000000000001</ele><time>2026-03-28T10:36:41.832Z</time></trkpt><trkpt lat="45.3978167" lon="10.7764583"><ele>118.00000000000001</ele><time>2026-03-28T10:36:42.832Z</time></trkpt><trkpt lat="45.3978883" lon="10.77646"><ele>118.0</ele><time>2026-03-28T10:36:43.832Z</time></trkpt><trkpt lat="45.3979483" lon="10.7765017"><ele>118.0</ele><time>2026-03-28T10:36:44.831Z</time></trkpt><trkpt lat="45.3980133" lon="10.7766717"><ele>118.50000000000001</ele><time>2026-03-28T10:36:46.832Z</time></trkpt><trkpt lat="45.3980233" lon="10.7767933"><ele>119.0</ele><time>2026-03-28T10:36:47.831Z</time></trkpt><trkpt lat="45.3980517" lon="10.77688"><ele>119.5</ele><time>2026-03-28T10:36:48.832Z</time></trkpt><trkpt lat="45.398095" lon="10.7769517"><ele>120.0</ele><time>2026-03-28T10:36:49.832Z</time></trkpt><trkpt lat="45.3981683" lon="10.77698"><ele>120.50000000000001</ele><time>2026-03-28T10:36:50.831Z</time></trkpt><trkpt lat="45.3982583" lon="10.777005"><ele>121.0</ele><time>2026-03-28T10:36:51.831Z</time></trkpt><trkpt lat="45.398375" lon="10.7770333"><ele>121.4</ele><time>2026-03-28T10:36:52.831Z</time></trkpt><trkpt lat="45.3984833" lon="10.77706"><ele>121.8</ele><time>2026-03-28T10:36:53.832Z</time></trkpt><trkpt lat="45.39858" lon="10.7770833"><ele>122.20000000000002</ele><time>2026-03-28T10:36:54.832Z</time></trkpt><trkpt lat="45.398655" lon="10.777135"><ele>122.60000000000001</ele><time>2026-03-28T10:36:55.832Z</time></trkpt><trkpt lat="45.3987183" lon="10.7772133"><ele>123.0</ele><time>2026-03-28T10:36:56.832Z</time></trkpt><trkpt lat="45.3987733" lon="10.777325"><ele>123.0</ele><time>2026-03-28T10:36:57.831Z</time></trkpt><trkpt lat="45.39884" lon="10.7774833"><ele>123.0</ele><time>2026-03-28T10:36:58.831Z</time></trkpt><trkpt lat="45.3989117" lon="10.7776433"><ele>123.0</ele><time>2026-03-28T10:36:59.831Z</time></trkpt><trkpt lat="45.398995" lon="10.7777833"><ele>123.0</ele><time>2026-03-28T10:37:00.831Z</time></trkpt><trkpt lat="45.3990833" lon="10.77788"><ele>123.0</ele><time>2026-03-28T10:37:01.831Z</time></trkpt><trkpt lat="45.3991333" lon="10.7779617"><ele>123.00000000000001</ele><time>2026-03-28T10:37:02.832Z</time></trkpt><trkpt lat="45.39916" lon="10.7780483"><ele>123.00000000000001</ele><time>2026-03-28T10:37:03.831Z</time></trkpt><trkpt lat="45.39917" lon="10.7781467"><ele>123.0</ele><time>2026-03-28T10:37:04.832Z</time></trkpt><trkpt lat="45.3991733" lon="10.77832"><ele>123.0</ele><time>2026-03-28T10:37:05.831Z</time></trkpt><trkpt lat="45.3991933" lon="10.77853"><ele>122.66666666666666</ele><time>2026-03-28T10:37:06.832Z</time></trkpt><trkpt lat="45.3992117" lon="10.778755"><ele>122.33333333333333</ele><time>2026-03-28T10:37:07.831Z</time></trkpt><trkpt lat="45.39924" lon="10.778985"><ele>122.0</ele><time>2026-03-28T10:37:08.831Z</time></trkpt><trkpt lat="45.3992667" lon="10.7791817"><ele>122.0</ele><time>2026-03-28T10:37:09.831Z</time></trkpt><trkpt lat="45.3992817" lon="10.779345"><ele>121.99999999999999</ele><time>2026-03-28T10:37:10.832Z</time></trkpt><trkpt lat="45.3992983" lon="10.77948"><ele>121.99999999999999</ele><time>2026-03-28T10:37:11.831Z</time></trkpt><trkpt lat="45.3993017" lon="10.7796217"><ele>122.0</ele><time>2026-03-28T10:37:12.831Z</time></trkpt><trkpt lat="45.3993067" lon="10.7797417"><ele>122.0</ele><time>2026-03-28T10:37:13.831Z</time></trkpt><trkpt lat="45.3993117" lon="10.7798467"><ele>121.75</ele><time>2026-03-28T10:37:14.831Z</time></trkpt><trkpt lat="45.3993617" lon="10.7799617"><ele>121.5</ele><time>2026-03-28T10:37:16.831Z</time></trkpt><trkpt lat="45.3994917" lon="10.7799833"><ele>121.25</ele><time>2026-03-28T10:37:18.832Z</time></trkpt><trkpt lat="45.3996" lon="10.7799617"><ele>121.0</ele><time>2026-03-28T10:37:19.831Z</time></trkpt><trkpt lat="45.399745" lon="10.7799333"><ele>121.0</ele><time>2026-03-28T10:37:20.831Z</time></trkpt><trkpt lat="45.3999117" lon="10.779915"><ele>121.0</ele><time>2026-03-28T10:37:21.831Z</time></trkpt><trkpt lat="45.40009" lon="10.7799017"><ele>121.0</ele><time>2026-03-28T10:37:22.832Z</time></trkpt><trkpt lat="45.4002383" lon="10.779905"><ele>121.0</ele><time>2026-03-28T10:37:23.832Z</time></trkpt><trkpt lat="45.4003633" lon="10.7798983"><ele>121.0</ele><time>2026-03-28T10:37:24.832Z</time></trkpt><trkpt lat="45.4004583" lon="10.7799"><ele>121.0</ele><time>2026-03-28T10:37:25.832Z</time></trkpt><trkpt lat="45.4005333" lon="10.7799317"><ele>121.0</ele><time>2026-03-28T10:37:26.831Z</time></trkpt><trkpt lat="45.4006083" lon="10.779985"><ele>121.0</ele><time>2026-03-28T10:37:27.832Z</time></trkpt><trkpt lat="45.4006817" lon="10.7800467"><ele>121.00000000000001</ele><time>2026-03-28T10:37:28.832Z</time></trkpt><trkpt lat="45.4007583" lon="10.7801083"><ele>121.0</ele><time>2026-03-28T10:37:29.832Z</time></trkpt><trkpt lat="45.4008267" lon="10.7801733"><ele>121.0</ele><time>2026-03-28T10:37:30.832Z</time></trkpt><trkpt lat="45.4008917" lon="10.7802383"><ele>121.0</ele><time>2026-03-28T10:37:31.831Z</time></trkpt><trkpt lat="45.4009667" lon="10.7803033"><ele>121.00000000000001</ele><time>2026-03-28T10:37:32.831Z</time></trkpt><trkpt lat="45.401045" lon="10.7803683"><ele>121.0</ele><time>2026-03-28T10:37:33.831Z</time></trkpt><trkpt lat="45.401125" lon="10.7804233"><ele>121.0</ele><time>2026-03-28T10:37:34.831Z</time></trkpt><trkpt lat="45.4012083" lon="10.7804733"><ele>121.0</ele><time>2026-03-28T10:37:35.832Z</time></trkpt><trkpt lat="45.401295" lon="10.7805267"><ele>121.0</ele><time>2026-03-28T10:37:36.832Z</time></trkpt><trkpt lat="45.401385" lon="10.78058"><ele>121.0</ele><time>2026-03-28T10:37:37.832Z</time></trkpt><trkpt lat="45.4014733" lon="10.7806383"><ele>121.0</ele><time>2026-03-28T10:37:38.831Z</time></trkpt><trkpt lat="45.4015417" lon="10.7806983"><ele>121.0</ele><time>2026-03-28T10:37:39.831Z</time></trkpt><trkpt lat="45.4015933" lon="10.7807667"><ele>121.0</ele><time>2026-03-28T10:37:40.831Z</time></trkpt><trkpt lat="45.4016317" lon="10.7808417"><ele>121.0</ele><time>2026-03-28T10:37:41.831Z</time></trkpt><trkpt lat="45.4016733" lon="10.7809533"><ele>121.0</ele><time>2026-03-28T10:37:42.831Z</time></trkpt><trkpt lat="45.4017167" lon="10.7811033"><ele>121.0</ele><time>2026-03-28T10:37:43.831Z</time></trkpt><trkpt lat="45.40179" lon="10.7812733"><ele>121.0</ele><time>2026-03-28T10:37:44.832Z</time></trkpt><trkpt lat="45.4018833" lon="10.7814317"><ele>121.0</ele><time>2026-03-28T10:37:45.832Z</time></trkpt><trkpt lat="45.4019817" lon="10.7815633"><ele>121.0</ele><time>2026-03-28T10:37:46.831Z</time></trkpt><trkpt lat="45.40209" lon="10.7816833"><ele>121.0</ele><time>2026-03-28T10:37:47.831Z</time></trkpt><trkpt lat="45.40221" lon="10.7817833"><ele>120.75</ele><time>2026-03-28T10:37:48.832Z</time></trkpt><trkpt lat="45.4023267" lon="10.78188"><ele>120.5</ele><time>2026-03-28T10:37:49.831Z</time></trkpt><trkpt lat="45.4024417" lon="10.782005"><ele>120.25</ele><time>2026-03-28T10:37:50.831Z</time></trkpt><trkpt lat="45.4025517" lon="10.78216"><ele>120.0</ele><time>2026-03-28T10:37:51.832Z</time></trkpt><trkpt lat="45.402655" lon="10.7823483"><ele>120.0</ele><time>2026-03-28T10:37:52.831Z</time></trkpt><trkpt lat="45.4027583" lon="10.7825333"><ele>120.0</ele><time>2026-03-28T10:37:53.831Z</time></trkpt><trkpt lat="45.4028667" lon="10.7826983"><ele>120.0</ele><time>2026-03-28T10:37:54.832Z</time></trkpt><trkpt lat="45.4029683" lon="10.7828433"><ele>119.8</ele><time>2026-03-28T10:37:55.832Z</time></trkpt><trkpt lat="45.4030717" lon="10.7829467"><ele>119.6</ele><time>2026-03-28T10:37:56.832Z</time></trkpt><trkpt lat="45.40315" lon="10.7830367"><ele>119.4</ele><time>2026-03-28T10:37:57.832Z</time></trkpt><trkpt lat="45.4032067" lon="10.7831267"><ele>119.2</ele><time>2026-03-28T10:37:58.831Z</time></trkpt><trkpt lat="45.4032433" lon="10.7832217"><ele>119.0</ele><time>2026-03-28T10:37:59.832Z</time></trkpt><trkpt lat="45.4032917" lon="10.7833217"><ele>119.0</ele><time>2026-03-28T10:38:00.831Z</time></trkpt><trkpt lat="45.403355" lon="10.7834317"><ele>119.0</ele><time>2026-03-28T10:38:01.831Z</time></trkpt><trkpt lat="45.40343" lon="10.7835517"><ele>119.0</ele><time>2026-03-28T10:38:02.831Z</time></trkpt><trkpt lat="45.403515" lon="10.783705"><ele>119.0</ele><time>2026-03-28T10:38:03.831Z</time></trkpt><trkpt lat="45.4036017" lon="10.7838817"><ele>119.33333333333333</ele><time>2026-03-28T10:38:04.831Z</time></trkpt><trkpt lat="45.40371" lon="10.78406"><ele>119.66666666666666</ele><time>2026-03-28T10:38:05.831Z</time></trkpt><trkpt lat="45.40381" lon="10.784225"><ele>120.0</ele><time>2026-03-28T10:38:06.832Z</time></trkpt><trkpt lat="45.4039033" lon="10.78437"><ele>120.75</ele><time>2026-03-28T10:38:07.832Z</time></trkpt><trkpt lat="45.4039833" lon="10.78451"><ele>121.5</ele><time>2026-03-28T10:38:08.831Z</time></trkpt><trkpt lat="45.4040317" lon="10.78467"><ele>122.25</ele><time>2026-03-28T10:38:09.831Z</time></trkpt><trkpt lat="45.4040567" lon="10.7848417"><ele>123.0</ele><time>2026-03-28T10:38:10.831Z</time></trkpt><trkpt lat="45.404075" lon="10.7850433"><ele>123.33333333333334</ele><time>2026-03-28T10:38:11.831Z</time></trkpt><trkpt lat="45.4040917" lon="10.78526"><ele>123.66666666666667</ele><time>2026-03-28T10:38:12.831Z</time></trkpt><trkpt lat="45.4040983" lon="10.78548"><ele>124.0</ele><time>2026-03-28T10:38:13.832Z</time></trkpt><trkpt lat="45.4041167" lon="10.7856833"><ele>124.0</ele><time>2026-03-28T10:38:14.831Z</time></trkpt><trkpt lat="45.4041433" lon="10.7858833"><ele>124.0</ele><time>2026-03-28T10:38:15.831Z</time></trkpt><trkpt lat="45.404185" lon="10.7860683"><ele>124.0</ele><time>2026-03-28T10:38:16.832Z</time></trkpt><trkpt lat="45.4042417" lon="10.7862517"><ele>124.0</ele><time>2026-03-28T10:38:17.831Z</time></trkpt><trkpt lat="45.40428" lon="10.7864017"><ele>124.00000000000001</ele><time>2026-03-28T10:38:18.831Z</time></trkpt><trkpt lat="45.4042933" lon="10.7865433"><ele>124.0</ele><time>2026-03-28T10:38:19.831Z</time></trkpt><trkpt lat="45.404275" lon="10.7866667"><ele>124.0</ele><time>2026-03-28T10:38:20.832Z</time></trkpt><trkpt lat="45.4042433" lon="10.7867733"><ele>124.0</ele><time>2026-03-28T10:38:21.832Z</time></trkpt><trkpt lat="45.4042217" lon="10.786885"><ele>124.00000000000001</ele><time>2026-03-28T10:38:22.831Z</time></trkpt><trkpt lat="45.404205" lon="10.7870133"><ele>124.0</ele><time>2026-03-28T10:38:23.831Z</time></trkpt><trkpt lat="45.4042083" lon="10.78715"><ele>123.0</ele><time>2026-03-28T10:38:24.832Z</time></trkpt><trkpt lat="45.40423" lon="10.78731"><ele>122.0</ele><time>2026-03-28T10:38:25.831Z</time></trkpt><trkpt lat="45.4042583" lon="10.7874717"><ele>121.0</ele><time>2026-03-28T10:38:26.832Z</time></trkpt><trkpt lat="45.404285" lon="10.78762"><ele>120.0</ele><time>2026-03-28T10:38:27.832Z</time></trkpt><trkpt lat="45.4043217" lon="10.7877517"><ele>119.0</ele><time>2026-03-28T10:38:28.831Z</time></trkpt><trkpt lat="45.4043817" lon="10.7878883"><ele>118.0</ele><time>2026-03-28T10:38:29.831Z</time></trkpt><trkpt lat="45.4044567" lon="10.7880167"><ele>117.0</ele><time>2026-03-28T10:38:30.831Z</time></trkpt><trkpt lat="45.4045483" lon="10.78813"><ele>116.0</ele><time>2026-03-28T10:38:31.831Z</time></trkpt><trkpt lat="45.4046383" lon="10.788245"><ele>115.0</ele><time>2026-03-28T10:38:32.832Z</time></trkpt><trkpt lat="45.4047183" lon="10.78835"><ele>115.0</ele><time>2026-03-28T10:38:33.832Z</time></trkpt><trkpt lat="45.4047833" lon="10.7884417"><ele>115.0</ele><time>2026-03-28T10:38:34.831Z</time></trkpt><trkpt lat="45.4048217" lon="10.7885383"><ele>115.0</ele><time>2026-03-28T10:38:35.832Z</time></trkpt><trkpt lat="45.4048417" lon="10.7886583"><ele>115.0</ele><time>2026-03-28T10:38:36.832Z</time></trkpt><trkpt lat="45.4048517" lon="10.788815"><ele>115.0</ele><time>2026-03-28T10:38:37.831Z</time></trkpt><trkpt lat="45.4048617" lon="10.7890083"><ele>114.0</ele><time>2026-03-28T10:38:38.832Z</time></trkpt><trkpt lat="45.4048667" lon="10.78923"><ele>113.0</ele><time>2026-03-28T10:38:39.831Z</time></trkpt><trkpt lat="45.404875" lon="10.7894367"><ele>112.0</ele><time>2026-03-28T10:38:40.832Z</time></trkpt><trkpt lat="45.4048733" lon="10.78962"><ele>111.0</ele><time>2026-03-28T10:38:41.831Z</time></trkpt><trkpt lat="45.404875" lon="10.7898033"><ele>111.0</ele><time>2026-03-28T10:38:42.831Z</time></trkpt><trkpt lat="45.4048833" lon="10.7899833"><ele>111.0</ele><time>2026-03-28T10:38:43.831Z</time></trkpt><trkpt lat="45.4048917" lon="10.790175"><ele>111.0</ele><time>2026-03-28T10:38:44.831Z</time></trkpt><trkpt lat="45.4048967" lon="10.790375"><ele>111.0</ele><time>2026-03-28T10:38:45.831Z</time></trkpt><trkpt lat="45.404895" lon="10.7905967"><ele>110.75</ele><time>2026-03-28T10:38:46.83Z</time></trkpt><trkpt lat="45.4049033" lon="10.7908067"><ele>110.5</ele><time>2026-03-28T10:38:47.83Z</time></trkpt><trkpt lat="45.4049" lon="10.7909967"><ele>110.25</ele><time>2026-03-28T10:38:48.831Z</time></trkpt><trkpt lat="45.4048967" lon="10.791165"><ele>110.0</ele><time>2026-03-28T10:38:49.83Z</time></trkpt><trkpt lat="45.4049" lon="10.7913067"><ele>110.33333333333333</ele><time>2026-03-28T10:38:50.83Z</time></trkpt><trkpt lat="45.4049017" lon="10.7914117"><ele>110.66666666666666</ele><time>2026-03-28T10:38:51.831Z</time></trkpt><trkpt lat="45.4049517" lon="10.791515"><ele>111.0</ele><time>2026-03-28T10:38:53.83Z</time></trkpt><trkpt lat="45.405015" lon="10.7915217"><ele>111.33333333333334</ele><time>2026-03-28T10:38:54.83Z</time></trkpt><trkpt lat="45.4051083" lon="10.7915183"><ele>111.66666666666667</ele><time>2026-03-28T10:38:55.83Z</time></trkpt><trkpt lat="45.40523" lon="10.79151"><ele>112.0</ele><time>2026-03-28T10:38:56.83Z</time></trkpt><trkpt lat="45.4053917" lon="10.7915"><ele>112.33333333333334</ele><time>2026-03-28T10:38:57.831Z</time></trkpt><trkpt lat="45.4055683" lon="10.791485"><ele>112.66666666666666</ele><time>2026-03-28T10:38:58.83Z</time></trkpt><trkpt lat="45.4057683" lon="10.79147"><ele>113.0</ele><time>2026-03-28T10:38:59.831Z</time></trkpt><trkpt lat="45.4059967" lon="10.79146"><ele>113.0</ele><time>2026-03-28T10:39:00.831Z</time></trkpt><trkpt lat="45.4062067" lon="10.7914383"><ele>113.0</ele><time>2026-03-28T10:39:01.831Z</time></trkpt><trkpt lat="45.406405" lon="10.7914183"><ele>113.0</ele><time>2026-03-28T10:39:02.83Z</time></trkpt><trkpt lat="45.4065933" lon="10.7914017"><ele>112.66666666666666</ele><time>2026-03-28T10:39:03.831Z</time></trkpt><trkpt lat="45.406765" lon="10.7913983"><ele>112.33333333333334</ele><time>2026-03-28T10:39:04.831Z</time></trkpt><trkpt lat="45.40693" lon="10.791395"><ele>112.0</ele><time>2026-03-28T10:39:05.83Z</time></trkpt><trkpt lat="45.4071117" lon="10.7913833"><ele>112.0</ele><time>2026-03-28T10:39:06.831Z</time></trkpt><trkpt lat="45.40729" lon="10.791375"><ele>112.0</ele><time>2026-03-28T10:39:07.83Z</time></trkpt><trkpt lat="45.407475" lon="10.791355"><ele>112.0</ele><time>2026-03-28T10:39:08.83Z</time></trkpt><trkpt lat="45.4076617" lon="10.79134"><ele>112.0</ele><time>2026-03-28T10:39:09.831Z</time></trkpt><trkpt lat="45.4078367" lon="10.79133"><ele>112.0</ele><time>2026-03-28T10:39:10.83Z</time></trkpt><trkpt lat="45.408005" lon="10.791325"><ele>112.0</ele><time>2026-03-28T10:39:11.831Z</time></trkpt><trkpt lat="45.40815" lon="10.7913133"><ele>112.25</ele><time>2026-03-28T10:39:12.83Z</time></trkpt><trkpt lat="45.4083067" lon="10.7913117"><ele>112.5</ele><time>2026-03-28T10:39:13.83Z</time></trkpt><trkpt lat="45.4084467" lon="10.7913117"><ele>112.75</ele><time>2026-03-28T10:39:14.83Z</time></trkpt><trkpt lat="45.408575" lon="10.7913133"><ele>113.0</ele><time>2026-03-28T10:39:15.831Z</time></trkpt><trkpt lat="45.4086917" lon="10.7913033"><ele>112.99999999999999</ele><time>2026-03-28T10:39:16.83Z</time></trkpt><trkpt lat="45.408795" lon="10.7912917"><ele>113.0</ele><time>2026-03-28T10:39:17.83Z</time></trkpt><trkpt lat="45.40889" lon="10.7912867"><ele>113.0</ele><time>2026-03-28T10:39:18.83Z</time></trkpt><trkpt lat="45.4089817" lon="10.79127"><ele>113.0</ele><time>2026-03-28T10:39:19.831Z</time></trkpt><trkpt lat="45.4090633" lon="10.791265"><ele>112.99999999999999</ele><time>2026-03-28T10:39:20.831Z</time></trkpt><trkpt lat="45.409135" lon="10.79125"><ele>113.0</ele><time>2026-03-28T10:39:21.83Z</time></trkpt><trkpt lat="45.4092417" lon="10.79124"><ele>113.0</ele><time>2026-03-28T10:39:23.83Z</time></trkpt><trkpt lat="45.4093167" lon="10.791185"><ele>113.00000000000001</ele><time>2026-03-28T10:39:32.831Z</time></trkpt><trkpt lat="45.40932" lon="10.7909967"><ele>113.00000000000001</ele><time>2026-03-28T10:39:34.83Z</time></trkpt><trkpt lat="45.4093117" lon="10.7908483"><ele>113.0</ele><time>2026-03-28T10:39:35.83Z</time></trkpt><trkpt lat="45.4093" lon="10.7906733"><ele>113.0</ele><time>2026-03-28T10:39:36.831Z</time></trkpt><trkpt lat="45.409295" lon="10.7905117"><ele>113.2</ele><time>2026-03-28T10:39:37.83Z</time></trkpt><trkpt lat="45.4092967" lon="10.790395"><ele>113.4</ele><time>2026-03-28T10:39:38.83Z</time></trkpt><trkpt lat="45.4093683" lon="10.79027"><ele>113.60000000000001</ele><time>2026-03-28T10:39:40.83Z</time></trkpt><trkpt lat="45.40944" lon="10.7902167"><ele>113.80000000000001</ele><time>2026-03-28T10:39:41.83Z</time></trkpt><trkpt lat="45.4095333" lon="10.7901467"><ele>114.0</ele><time>2026-03-28T10:39:42.83Z</time></trkpt><trkpt lat="45.4096583" lon="10.7900583"><ele>114.66666666666666</ele><time>2026-03-28T10:39:43.83Z</time></trkpt><trkpt lat="45.4098033" lon="10.7899433"><ele>115.33333333333333</ele><time>2026-03-28T10:39:44.83Z</time></trkpt><trkpt lat="45.4099583" lon="10.7898"><ele>116.0</ele><time>2026-03-28T10:39:45.831Z</time></trkpt><trkpt lat="45.4101117" lon="10.7896417"><ele>116.0</ele><time>2026-03-28T10:39:46.83Z</time></trkpt><trkpt lat="45.4102933" lon="10.7894683"><ele>116.0</ele><time>2026-03-28T10:39:47.83Z</time></trkpt><trkpt lat="45.41047" lon="10.789305"><ele>116.0</ele><time>2026-03-28T10:39:48.831Z</time></trkpt><trkpt lat="45.4106317" lon="10.7891467"><ele>116.33333333333333</ele><time>2026-03-28T10:39:49.83Z</time></trkpt><trkpt lat="45.4107817" lon="10.788995"><ele>116.66666666666666</ele><time>2026-03-28T10:39:50.831Z</time></trkpt><trkpt lat="45.4109433" lon="10.7888417"><ele>117.0</ele><time>2026-03-28T10:39:51.831Z</time></trkpt><trkpt lat="45.4111033" lon="10.7886883"><ele>117.0</ele><time>2026-03-28T10:39:52.83Z</time></trkpt><trkpt lat="45.4112433" lon="10.78853"><ele>117.0</ele><time>2026-03-28T10:39:53.831Z</time></trkpt><trkpt lat="45.4113867" lon="10.7884083"><ele>117.0</ele><time>2026-03-28T10:39:54.831Z</time></trkpt><trkpt lat="45.41148" lon="10.7882883"><ele>117.16666666666667</ele><time>2026-03-28T10:39:55.831Z</time></trkpt><trkpt lat="45.4115483" lon="10.7881867"><ele>117.33333333333334</ele><time>2026-03-28T10:39:56.83Z</time></trkpt><trkpt lat="45.4116133" lon="10.7881017"><ele>117.5</ele><time>2026-03-28T10:39:57.83Z</time></trkpt><trkpt lat="45.4116717" lon="10.7880367"><ele>117.66666666666667</ele><time>2026-03-28T10:39:58.83Z</time></trkpt><trkpt lat="45.4117317" lon="10.7879733"><ele>117.83333333333334</ele><time>2026-03-28T10:39:59.83Z</time></trkpt><trkpt lat="45.4117883" lon="10.787925"><ele>118.0</ele><time>2026-03-28T10:40:00.83Z</time></trkpt><trkpt lat="45.4118933" lon="10.7878317"><ele>118.00000000000001</ele><time>2026-03-28T10:40:02.831Z</time></trkpt><trkpt lat="45.4119517" lon="10.78778"><ele>118.0</ele><time>2026-03-28T10:40:03.83Z</time></trkpt><trkpt lat="45.412045" lon="10.7876683"><ele>118.0</ele><time>2026-03-28T10:40:05.83Z</time></trkpt><trkpt lat="45.412095" lon="10.7876017"><ele>118.0</ele><time>2026-03-28T10:40:06.83Z</time></trkpt><trkpt lat="45.412135" lon="10.7875117"><ele>118.00000000000001</ele><time>2026-03-28T10:40:07.831Z</time></trkpt><trkpt lat="45.4121633" lon="10.7873967"><ele>118.0</ele><time>2026-03-28T10:40:08.83Z</time></trkpt><trkpt lat="45.4121883" lon="10.7872633"><ele>118.0</ele><time>2026-03-28T10:40:09.831Z</time></trkpt><trkpt lat="45.412215" lon="10.7871"><ele>118.0</ele><time>2026-03-28T10:40:10.83Z</time></trkpt><trkpt lat="45.412255" lon="10.786945"><ele>118.0</ele><time>2026-03-28T10:40:11.831Z</time></trkpt><trkpt lat="45.412315" lon="10.786805"><ele>118.0</ele><time>2026-03-28T10:40:12.831Z</time></trkpt><trkpt lat="45.4123883" lon="10.7866467"><ele>117.33333333333334</ele><time>2026-03-28T10:40:13.831Z</time></trkpt><trkpt lat="45.41248" lon="10.7865167"><ele>116.66666666666666</ele><time>2026-03-28T10:40:14.831Z</time></trkpt><trkpt lat="45.4126067" lon="10.78637"><ele>116.0</ele><time>2026-03-28T10:40:15.83Z</time></trkpt><trkpt lat="45.4127367" lon="10.7862017"><ele>116.0</ele><time>2026-03-28T10:40:16.831Z</time></trkpt><trkpt lat="45.4128617" lon="10.78604"><ele>116.0</ele><time>2026-03-28T10:40:17.831Z</time></trkpt><trkpt lat="45.4129683" lon="10.7858967"><ele>116.0</ele><time>2026-03-28T10:40:18.83Z</time></trkpt><trkpt lat="45.4130617" lon="10.7857767"><ele>116.0</ele><time>2026-03-28T10:40:19.83Z</time></trkpt><trkpt lat="45.413135" lon="10.7856667"><ele>116.42857142857144</ele><time>2026-03-28T10:40:20.831Z</time></trkpt><trkpt lat="45.4131817" lon="10.7855767"><ele>116.85714285714286</ele><time>2026-03-28T10:40:21.83Z</time></trkpt><trkpt lat="45.4132217" lon="10.785495"><ele>117.28571428571429</ele><time>2026-03-28T10:40:22.83Z</time></trkpt><trkpt lat="45.4132583" lon="10.7854183"><ele>117.71428571428572</ele><time>2026-03-28T10:40:23.831Z</time></trkpt><trkpt lat="45.4133" lon="10.7853467"><ele>118.14285714285714</ele><time>2026-03-28T10:40:24.83Z</time></trkpt><trkpt lat="45.4133467" lon="10.7852767"><ele>118.57142857142857</ele><time>2026-03-28T10:40:25.83Z</time></trkpt><trkpt lat="45.413405" lon="10.7851967"><ele>119.0</ele><time>2026-03-28T10:40:26.83Z</time></trkpt><trkpt lat="45.4134683" lon="10.7850933"><ele>119.75</ele><time>2026-03-28T10:40:27.83Z</time></trkpt><trkpt lat="45.413545" lon="10.7849617"><ele>120.5</ele><time>2026-03-28T10:40:28.831Z</time></trkpt><trkpt lat="45.4136383" lon="10.7848083"><ele>121.25</ele><time>2026-03-28T10:40:29.83Z</time></trkpt><trkpt lat="45.41373" lon="10.7846383"><ele>122.0</ele><time>2026-03-28T10:40:30.83Z</time></trkpt><trkpt lat="45.4138183" lon="10.784485"><ele>122.0</ele><time>2026-03-28T10:40:31.831Z</time></trkpt><trkpt lat="45.4138883" lon="10.7843617"><ele>121.99999999999999</ele><time>2026-03-28T10:40:32.83Z</time></trkpt><trkpt lat="45.4139433" lon="10.78426"><ele>121.99999999999999</ele><time>2026-03-28T10:40:33.83Z</time></trkpt><trkpt lat="45.4140367" lon="10.784185"><ele>122.0</ele><time>2026-03-28T10:40:35.83Z</time></trkpt><trkpt lat="45.4141683" lon="10.7842517"><ele>122.0</ele><time>2026-03-28T10:40:37.83Z</time></trkpt><trkpt lat="45.4142583" lon="10.784315"><ele>122.0</ele><time>2026-03-28T10:40:38.831Z</time></trkpt><trkpt lat="45.4143483" lon="10.78438"><ele>121.99999999999999</ele><time>2026-03-28T10:40:39.83Z</time></trkpt><trkpt lat="45.4144267" lon="10.7844483"><ele>121.99999999999999</ele><time>2026-03-28T10:40:40.831Z</time></trkpt><trkpt lat="45.4145083" lon="10.7845133"><ele>122.0</ele><time>2026-03-28T10:40:41.83Z</time></trkpt><trkpt lat="45.4145917" lon="10.7845667"><ele>122.0</ele><time>2026-03-28T10:40:42.83Z</time></trkpt><trkpt lat="45.414675" lon="10.7846233"><ele>122.0</ele><time>2026-03-28T10:40:43.83Z</time></trkpt><trkpt lat="45.4147567" lon="10.7846783"><ele>121.99999999999999</ele><time>2026-03-28T10:40:44.83Z</time></trkpt><trkpt lat="45.4148417" lon="10.7847367"><ele>121.99999999999999</ele><time>2026-03-28T10:40:45.831Z</time></trkpt><trkpt lat="45.41493" lon="10.7847833"><ele>122.0</ele><time>2026-03-28T10:40:46.831Z</time></trkpt><trkpt lat="45.4150233" lon="10.784835"><ele>122.0</ele><time>2026-03-28T10:40:47.83Z</time></trkpt><trkpt lat="45.4151167" lon="10.7849067"><ele>122.0</ele><time>2026-03-28T10:40:48.83Z</time></trkpt><trkpt lat="45.4152117" lon="10.784975"><ele>121.99999999999999</ele><time>2026-03-28T10:40:49.831Z</time></trkpt><trkpt lat="45.4153117" lon="10.7850317"><ele>121.99999999999999</ele><time>2026-03-28T10:40:50.83Z</time></trkpt><trkpt lat="45.4153983" lon="10.7850967"><ele>122.0</ele><time>2026-03-28T10:40:51.831Z</time></trkpt><trkpt lat="45.4154933" lon="10.7851567"><ele>122.0</ele><time>2026-03-28T10:40:52.831Z</time></trkpt><trkpt lat="45.4155883" lon="10.78522"><ele>121.75</ele><time>2026-03-28T10:40:53.831Z</time></trkpt><trkpt lat="45.4156817" lon="10.7852817"><ele>121.5</ele><time>2026-03-28T10:40:54.83Z</time></trkpt><trkpt lat="45.4157767" lon="10.785345"><ele>121.25</ele><time>2026-03-28T10:40:55.83Z</time></trkpt><trkpt lat="45.4158767" lon="10.78542"><ele>121.0</ele><time>2026-03-28T10:40:56.831Z</time></trkpt><trkpt lat="45.416" lon="10.7855"><ele>121.0</ele><time>2026-03-28T10:40:57.83Z</time></trkpt><trkpt lat="45.4161283" lon="10.7855883"><ele>121.0</ele><time>2026-03-28T10:40:58.831Z</time></trkpt><trkpt lat="45.416275" lon="10.785675"><ele>121.0</ele><time>2026-03-28T10:40:59.831Z</time></trkpt><trkpt lat="45.4164417" lon="10.7857783"><ele>121.0</ele><time>2026-03-28T10:41:00.83Z</time></trkpt><trkpt lat="45.416615" lon="10.7859"><ele>121.0</ele><time>2026-03-28T10:41:01.83Z</time></trkpt><trkpt lat="45.41678" lon="10.78601"><ele>121.0</ele><time>2026-03-28T10:41:02.831Z</time></trkpt><trkpt lat="45.41694" lon="10.7861217"><ele>121.0</ele><time>2026-03-28T10:41:03.831Z</time></trkpt><trkpt lat="45.4171" lon="10.7862383"><ele>121.0</ele><time>2026-03-28T10:41:04.83Z</time></trkpt><trkpt lat="45.4172717" lon="10.786355"><ele>121.0</ele><time>2026-03-28T10:41:05.83Z</time></trkpt><trkpt lat="45.4174367" lon="10.78647"><ele>122.33333333333334</ele><time>2026-03-28T10:41:06.83Z</time></trkpt><trkpt lat="45.417605" lon="10.7865867"><ele>123.66666666666666</ele><time>2026-03-28T10:41:07.83Z</time></trkpt><trkpt lat="45.4177683" lon="10.78668"><ele>125.0</ele><time>2026-03-28T10:41:08.83Z</time></trkpt><trkpt lat="45.4179267" lon="10.78678"><ele>125.0</ele><time>2026-03-28T10:41:09.831Z</time></trkpt><trkpt lat="45.418085" lon="10.7868767"><ele>125.0</ele><time>2026-03-28T10:41:10.83Z</time></trkpt><trkpt lat="45.4182317" lon="10.7869833"><ele>125.0</ele><time>2026-03-28T10:41:11.83Z</time></trkpt><trkpt lat="45.418375" lon="10.78708"><ele>125.0</ele><time>2026-03-28T10:41:12.831Z</time></trkpt><trkpt lat="45.418505" lon="10.787175"><ele>125.0</ele><time>2026-03-28T10:41:13.83Z</time></trkpt><trkpt lat="45.418615" lon="10.7872367"><ele>125.0</ele><time>2026-03-28T10:41:14.831Z</time></trkpt><trkpt lat="45.4187067" lon="10.7872967"><ele>125.0</ele><time>2026-03-28T10:41:15.83Z</time></trkpt><trkpt lat="45.4187967" lon="10.787345"><ele>124.6</ele><time>2026-03-28T10:41:16.831Z</time></trkpt><trkpt lat="45.418885" lon="10.787385"><ele>124.2</ele><time>2026-03-28T10:41:17.831Z</time></trkpt><trkpt lat="45.4189667" lon="10.78742"><ele>123.80000000000001</ele><time>2026-03-28T10:41:18.831Z</time></trkpt><trkpt lat="45.4190417" lon="10.7874433"><ele>123.4</ele><time>2026-03-28T10:41:19.83Z</time></trkpt><trkpt lat="45.41915" lon="10.7874233"><ele>123.0</ele><time>2026-03-28T10:41:21.83Z</time></trkpt><trkpt lat="45.4192433" lon="10.7873083"><ele>123.0</ele><time>2026-03-28T10:41:23.831Z</time></trkpt><trkpt lat="45.4192733" lon="10.7872017"><ele>123.00000000000001</ele><time>2026-03-28T10:41:24.831Z</time></trkpt><trkpt lat="45.4192883" lon="10.7871067"><ele>123.00000000000001</ele><time>2026-03-28T10:41:25.83Z</time></trkpt><trkpt lat="45.41934" lon="10.7869783"><ele>123.0</ele><time>2026-03-28T10:41:27.831Z</time></trkpt><trkpt lat="45.419425" lon="10.7869617"><ele>123.0</ele><time>2026-03-28T10:41:29.831Z</time></trkpt><trkpt lat="45.419545" lon="10.78706"><ele>123.0</ele><time>2026-03-28T10:41:31.83Z</time></trkpt><trkpt lat="45.4196283" lon="10.787125"><ele>123.00000000000001</ele><time>2026-03-28T10:41:32.83Z</time></trkpt><trkpt lat="45.4197267" lon="10.7871967"><ele>123.00000000000001</ele><time>2026-03-28T10:41:33.831Z</time></trkpt><trkpt lat="45.4198367" lon="10.7872667"><ele>123.0</ele><time>2026-03-28T10:41:34.831Z</time></trkpt><trkpt lat="45.4199433" lon="10.787335"><ele>123.0</ele><time>2026-03-28T10:41:35.83Z</time></trkpt><trkpt lat="45.4200467" lon="10.78741"><ele>123.25</ele><time>2026-03-28T10:41:36.83Z</time></trkpt><trkpt lat="45.4201383" lon="10.787505"><ele>123.5</ele><time>2026-03-28T10:41:37.831Z</time></trkpt><trkpt lat="45.4202283" lon="10.7876083"><ele>123.75</ele><time>2026-03-28T10:41:38.831Z</time></trkpt><trkpt lat="45.4203017" lon="10.7877267"><ele>124.0</ele><time>2026-03-28T10:41:39.831Z</time></trkpt><trkpt lat="45.4203767" lon="10.7878517"><ele>124.0</ele><time>2026-03-28T10:41:40.831Z</time></trkpt><trkpt lat="45.420455" lon="10.7879783"><ele>124.0</ele><time>2026-03-28T10:41:41.83Z</time></trkpt><trkpt lat="45.4205383" lon="10.7880983"><ele>124.0</ele><time>2026-03-28T10:41:42.83Z</time></trkpt><trkpt lat="45.420635" lon="10.7882183"><ele>124.0</ele><time>2026-03-28T10:41:43.83Z</time></trkpt><trkpt lat="45.420735" lon="10.7883183"><ele>125.25</ele><time>2026-03-28T10:41:44.83Z</time></trkpt><trkpt lat="45.4208333" lon="10.788425"><ele>126.5</ele><time>2026-03-28T10:41:45.831Z</time></trkpt><trkpt lat="45.4209317" lon="10.7885283"><ele>127.75</ele><time>2026-03-28T10:41:46.831Z</time></trkpt><trkpt lat="45.4210217" lon="10.7886417"><ele>129.0</ele><time>2026-03-28T10:41:47.831Z</time></trkpt><trkpt lat="45.421115" lon="10.7887483"><ele>129.0</ele><time>2026-03-28T10:41:48.83Z</time></trkpt><trkpt lat="45.4212017" lon="10.78886"><ele>129.0</ele><time>2026-03-28T10:41:49.831Z</time></trkpt><trkpt lat="45.4212883" lon="10.788975"><ele>129.0</ele><time>2026-03-28T10:41:50.83Z</time></trkpt><trkpt lat="45.4213817" lon="10.7890967"><ele>129.0</ele><time>2026-03-28T10:41:51.83Z</time></trkpt><trkpt lat="45.42147" lon="10.7892183"><ele>129.5</ele><time>2026-03-28T10:41:52.83Z</time></trkpt><trkpt lat="45.4215467" lon="10.78937"><ele>130.0</ele><time>2026-03-28T10:41:53.83Z</time></trkpt><trkpt lat="45.4216217" lon="10.78951"><ele>130.5</ele><time>2026-03-28T10:41:54.83Z</time></trkpt><trkpt lat="45.4216883" lon="10.789655"><ele>131.0</ele><time>2026-03-28T10:41:55.83Z</time></trkpt><trkpt lat="45.4217417" lon="10.7897867"><ele>131.0</ele><time>2026-03-28T10:41:56.83Z</time></trkpt><trkpt lat="45.4217917" lon="10.7899017"><ele>131.0</ele><time>2026-03-28T10:41:57.831Z</time></trkpt><trkpt lat="45.4218233" lon="10.79"><ele>131.0</ele><time>2026-03-28T10:41:58.831Z</time></trkpt><trkpt lat="45.4218667" lon="10.7900933"><ele>131.0</ele><time>2026-03-28T10:41:59.831Z</time></trkpt><trkpt lat="45.4219083" lon="10.7901833"><ele>131.0</ele><time>2026-03-28T10:42:00.83Z</time></trkpt><trkpt lat="45.4219433" lon="10.790285"><ele>131.0</ele><time>2026-03-28T10:42:01.831Z</time></trkpt><trkpt lat="45.4219667" lon="10.790385"><ele>131.0</ele><time>2026-03-28T10:42:02.831Z</time></trkpt><trkpt lat="45.4220083" lon="10.7904667"><ele>131.0</ele><time>2026-03-28T10:42:03.831Z</time></trkpt><trkpt lat="45.42206" lon="10.7905367"><ele>131.0</ele><time>2026-03-28T10:42:04.83Z</time></trkpt><trkpt lat="45.42211" lon="10.7905933"><ele>131.0</ele><time>2026-03-28T10:42:05.831Z</time></trkpt><trkpt lat="45.4222133" lon="10.7905617"><ele>131.0</ele><time>2026-03-28T10:42:07.83Z</time></trkpt><trkpt lat="45.422285" lon="10.7905217"><ele>131.0</ele><time>2026-03-28T10:42:08.831Z</time></trkpt><trkpt lat="45.4223567" lon="10.79049"><ele>131.0</ele><time>2026-03-28T10:42:09.83Z</time></trkpt><trkpt lat="45.4224317" lon="10.7904583"><ele>131.0</ele><time>2026-03-28T10:42:10.83Z</time></trkpt><trkpt lat="45.4225117" lon="10.7904383"><ele>131.0</ele><time>2026-03-28T10:42:11.83Z</time></trkpt><trkpt lat="45.4226017" lon="10.7904183"><ele>131.0</ele><time>2026-03-28T10:42:12.83Z</time></trkpt><trkpt lat="45.4227067" lon="10.790385"><ele>131.0</ele><time>2026-03-28T10:42:13.83Z</time></trkpt><trkpt lat="45.4228283" lon="10.7903533"><ele>131.0</ele><time>2026-03-28T10:42:14.829Z</time></trkpt><trkpt lat="45.42295" lon="10.7903183"><ele>131.0</ele><time>2026-03-28T10:42:15.829Z</time></trkpt><trkpt lat="45.423075" lon="10.7902867"><ele>131.0</ele><time>2026-03-28T10:42:16.829Z</time></trkpt><trkpt lat="45.4232033" lon="10.7902533"><ele>131.0</ele><time>2026-03-28T10:42:17.83Z</time></trkpt><trkpt lat="45.4233233" lon="10.790225"><ele>130.75</ele><time>2026-03-28T10:42:18.829Z</time></trkpt><trkpt lat="45.4234467" lon="10.7901983"><ele>130.5</ele><time>2026-03-28T10:42:19.829Z</time></trkpt><trkpt lat="45.42358" lon="10.79016"><ele>130.25</ele><time>2026-03-28T10:42:20.829Z</time></trkpt><trkpt lat="45.4236933" lon="10.7901233"><ele>130.0</ele><time>2026-03-28T10:42:21.829Z</time></trkpt><trkpt lat="45.4237883" lon="10.790085"><ele>130.2</ele><time>2026-03-28T10:42:22.83Z</time></trkpt><trkpt lat="45.4238667" lon="10.7900467"><ele>130.4</ele><time>2026-03-28T10:42:23.83Z</time></trkpt><trkpt lat="45.4239667" lon="10.7900067"><ele>130.6</ele><time>2026-03-28T10:42:25.829Z</time></trkpt><trkpt lat="45.4240117" lon="10.7900983"><ele>130.8</ele><time>2026-03-28T10:42:27.829Z</time></trkpt><trkpt lat="45.4240283" lon="10.7903083"><ele>131.0</ele><time>2026-03-28T10:42:29.83Z</time></trkpt><trkpt lat="45.4240233" lon="10.7904567"><ele>131.0</ele><time>2026-03-28T10:42:30.83Z</time></trkpt><trkpt lat="45.4240283" lon="10.7905917"><ele>131.0</ele><time>2026-03-28T10:42:31.83Z</time></trkpt><trkpt lat="45.4240417" lon="10.7907083"><ele>131.0</ele><time>2026-03-28T10:42:32.829Z</time></trkpt><trkpt lat="45.424055" lon="10.7908183"><ele>131.0</ele><time>2026-03-28T10:42:33.829Z</time></trkpt><trkpt lat="45.4240667" lon="10.79092"><ele>131.0</ele><time>2026-03-28T10:42:34.83Z</time></trkpt><trkpt lat="45.4240733" lon="10.7910133"><ele>131.0</ele><time>2026-03-28T10:42:35.829Z</time></trkpt><trkpt lat="45.4240733" lon="10.7911867"><ele>131.0</ele><time>2026-03-28T10:42:37.829Z</time></trkpt><trkpt lat="45.4240633" lon="10.79128"><ele>131.0</ele><time>2026-03-28T10:42:38.829Z</time></trkpt><trkpt lat="45.4240617" lon="10.7913817"><ele>131.0</ele><time>2026-03-28T10:42:39.829Z</time></trkpt><trkpt lat="45.424065" lon="10.7914783"><ele>131.0</ele><time>2026-03-28T10:42:40.829Z</time></trkpt><trkpt lat="45.424065" lon="10.791575"><ele>131.0</ele><time>2026-03-28T10:42:41.829Z</time></trkpt><trkpt lat="45.4240667" lon="10.7916717"><ele>131.0</ele><time>2026-03-28T10:42:42.829Z</time></trkpt><trkpt lat="45.4240667" lon="10.7917767"><ele>131.0</ele><time>2026-03-28T10:42:43.83Z</time></trkpt><trkpt lat="45.4240683" lon="10.7918767"><ele>130.6</ele><time>2026-03-28T10:42:44.83Z</time></trkpt><trkpt lat="45.4240683" lon="10.7919767"><ele>130.2</ele><time>2026-03-28T10:42:45.829Z</time></trkpt><trkpt lat="45.4240783" lon="10.7921467"><ele>129.8</ele><time>2026-03-28T10:42:47.829Z</time></trkpt><trkpt lat="45.42418" lon="10.792245"><ele>129.4</ele><time>2026-03-28T10:42:49.83Z</time></trkpt><trkpt lat="45.424265" lon="10.7922817"><ele>129.0</ele><time>2026-03-28T10:42:50.829Z</time></trkpt><trkpt lat="45.4243767" lon="10.79231"><ele>129.0</ele><time>2026-03-28T10:42:51.83Z</time></trkpt><trkpt lat="45.4245183" lon="10.79234"><ele>129.0</ele><time>2026-03-28T10:42:52.829Z</time></trkpt><trkpt lat="45.42467" lon="10.7923633"><ele>129.0</ele><time>2026-03-28T10:42:53.829Z</time></trkpt><trkpt lat="45.4247983" lon="10.7924"><ele>129.0</ele><time>2026-03-28T10:42:54.829Z</time></trkpt><trkpt lat="45.4249117" lon="10.7924417"><ele>128.33333333333334</ele><time>2026-03-28T10:42:55.83Z</time></trkpt><trkpt lat="45.4249983" lon="10.7924733"><ele>127.66666666666666</ele><time>2026-03-28T10:42:56.83Z</time></trkpt><trkpt lat="45.4250667" lon="10.7924933"><ele>127.0</ele><time>2026-03-28T10:42:57.829Z</time></trkpt><trkpt lat="45.4251517" lon="10.7925233"><ele>126.33333333333333</ele><time>2026-03-28T10:42:59.829Z</time></trkpt><trkpt lat="45.4252183" lon="10.792555"><ele>125.66666666666666</ele><time>2026-03-28T10:43:18.83Z</time></trkpt><trkpt lat="45.425285" lon="10.7925667"><ele>125.0</ele><time>2026-03-28T10:43:19.829Z</time></trkpt><trkpt lat="45.4253617" lon="10.792575"><ele>125.0</ele><time>2026-03-28T10:43:20.83Z</time></trkpt><trkpt lat="45.42547" lon="10.7925483"><ele>125.0</ele><time>2026-03-28T10:43:21.829Z</time></trkpt><trkpt lat="45.4256017" lon="10.7924967"><ele>125.0</ele><time>2026-03-28T10:43:22.83Z</time></trkpt><trkpt lat="45.42574" lon="10.7924483"><ele>125.0</ele><time>2026-03-28T10:43:23.83Z</time></trkpt><trkpt lat="45.4258967" lon="10.7923883"><ele>125.33333333333333</ele><time>2026-03-28T10:43:24.83Z</time></trkpt><trkpt lat="45.42607" lon="10.792315"><ele>125.66666666666666</ele><time>2026-03-28T10:43:25.829Z</time></trkpt><trkpt lat="45.426245" lon="10.7922683"><ele>126.0</ele><time>2026-03-28T10:43:26.829Z</time></trkpt><trkpt lat="45.4264133" lon="10.79222"><ele>125.33333333333334</ele><time>2026-03-28T10:43:27.83Z</time></trkpt><trkpt lat="45.4265833" lon="10.7921633"><ele>124.66666666666667</ele><time>2026-03-28T10:43:28.829Z</time></trkpt><trkpt lat="45.4267617" lon="10.7920933"><ele>124.0</ele><time>2026-03-28T10:43:29.829Z</time></trkpt><trkpt lat="45.426955" lon="10.7920217"><ele>123.33333333333334</ele><time>2026-03-28T10:43:30.829Z</time></trkpt><trkpt lat="45.4271483" lon="10.791965"><ele>122.66666666666666</ele><time>2026-03-28T10:43:31.83Z</time></trkpt><trkpt lat="45.4273433" lon="10.7919117"><ele>122.0</ele><time>2026-03-28T10:43:32.83Z</time></trkpt><trkpt lat="45.4275267" lon="10.791845"><ele>122.66666666666666</ele><time>2026-03-28T10:43:33.829Z</time></trkpt><trkpt lat="45.4277117" lon="10.7917967"><ele>123.33333333333334</ele><time>2026-03-28T10:43:34.829Z</time></trkpt><trkpt lat="45.4278867" lon="10.791745"><ele>124.0</ele><time>2026-03-28T10:43:35.829Z</time></trkpt><trkpt lat="45.4280583" lon="10.791695"><ele>124.33333333333334</ele><time>2026-03-28T10:43:36.829Z</time></trkpt><trkpt lat="45.428235" lon="10.7916417"><ele>124.66666666666666</ele><time>2026-03-28T10:43:37.83Z</time></trkpt><trkpt lat="45.428425" lon="10.7915817"><ele>125.0</ele><time>2026-03-28T10:43:38.83Z</time></trkpt><trkpt lat="45.428615" lon="10.7915183"><ele>125.0</ele><time>2026-03-28T10:43:39.83Z</time></trkpt><trkpt lat="45.4288033" lon="10.791455"><ele>125.0</ele><time>2026-03-28T10:43:40.83Z</time></trkpt><trkpt lat="45.42898" lon="10.791395"><ele>125.0</ele><time>2026-03-28T10:43:41.83Z</time></trkpt><trkpt lat="45.42915" lon="10.791335"><ele>125.0</ele><time>2026-03-28T10:43:42.829Z</time></trkpt><trkpt lat="45.4293083" lon="10.7912867"><ele>125.0</ele><time>2026-03-28T10:43:43.829Z</time></trkpt><trkpt lat="45.4294483" lon="10.7912467"><ele>125.0</ele><time>2026-03-28T10:43:44.83Z</time></trkpt><trkpt lat="45.429565" lon="10.7912033"><ele>125.0</ele><time>2026-03-28T10:43:45.83Z</time></trkpt><trkpt lat="45.429655" lon="10.79118"><ele>125.16666666666666</ele><time>2026-03-28T10:43:46.829Z</time></trkpt><trkpt lat="45.4297583" lon="10.7911583"><ele>125.33333333333333</ele><time>2026-03-28T10:43:48.829Z</time></trkpt><trkpt lat="45.42984" lon="10.7912417"><ele>125.5</ele><time>2026-03-28T10:43:51.83Z</time></trkpt><trkpt lat="45.4298733" lon="10.7913183"><ele>125.66666666666666</ele><time>2026-03-28T10:43:52.83Z</time></trkpt><trkpt lat="45.4299217" lon="10.7914167"><ele>125.83333333333333</ele><time>2026-03-28T10:43:53.829Z</time></trkpt><trkpt lat="45.4299817" lon="10.7915167"><ele>126.0</ele><time>2026-03-28T10:43:54.829Z</time></trkpt><trkpt lat="45.4300333" lon="10.7915933"><ele>126.0</ele><time>2026-03-28T10:43:55.83Z</time></trkpt><trkpt lat="45.4301" lon="10.791665"><ele>126.0</ele><time>2026-03-28T10:43:56.829Z</time></trkpt><trkpt lat="45.430185" lon="10.79168"><ele>126.0</ele><time>2026-03-28T10:43:57.829Z</time></trkpt><trkpt lat="45.4302867" lon="10.791665"><ele>126.0</ele><time>2026-03-28T10:43:58.83Z</time></trkpt><trkpt lat="45.4303883" lon="10.7916333"><ele>126.0</ele><time>2026-03-28T10:43:59.829Z</time></trkpt><trkpt lat="45.430505" lon="10.7916017"><ele>126.33333333333334</ele><time>2026-03-28T10:44:00.829Z</time></trkpt><trkpt lat="45.430655" lon="10.7915683"><ele>126.66666666666667</ele><time>2026-03-28T10:44:01.83Z</time></trkpt><trkpt lat="45.4308167" lon="10.791525"><ele>127.0</ele><time>2026-03-28T10:44:02.83Z</time></trkpt><trkpt lat="45.430985" lon="10.7914933"><ele>127.0</ele><time>2026-03-28T10:44:03.829Z</time></trkpt><trkpt lat="45.43115" lon="10.7914867"><ele>127.0</ele><time>2026-03-28T10:44:04.83Z</time></trkpt><trkpt lat="45.4313233" lon="10.79148"><ele>127.0</ele><time>2026-03-28T10:44:05.83Z</time></trkpt><trkpt lat="45.4314867" lon="10.791485"><ele>126.33333333333334</ele><time>2026-03-28T10:44:06.83Z</time></trkpt><trkpt lat="45.4316417" lon="10.7915533"><ele>125.66666666666666</ele><time>2026-03-28T10:44:07.829Z</time></trkpt><trkpt lat="45.4318" lon="10.7916483"><ele>125.0</ele><time>2026-03-28T10:44:08.829Z</time></trkpt><trkpt lat="45.431965" lon="10.7917533"><ele>125.33333333333333</ele><time>2026-03-28T10:44:09.829Z</time></trkpt><trkpt lat="45.4321333" lon="10.7918667"><ele>125.66666666666666</ele><time>2026-03-28T10:44:10.83Z</time></trkpt><trkpt lat="45.4323" lon="10.7919867"><ele>126.0</ele><time>2026-03-28T10:44:11.829Z</time></trkpt><trkpt lat="45.4324767" lon="10.79211"><ele>126.33333333333334</ele><time>2026-03-28T10:44:12.829Z</time></trkpt><trkpt lat="45.4326583" lon="10.7922183"><ele>126.66666666666667</ele><time>2026-03-28T10:44:13.83Z</time></trkpt><trkpt lat="45.4328383" lon="10.7923167"><ele>127.0</ele><time>2026-03-28T10:44:14.83Z</time></trkpt><trkpt lat="45.4330283" lon="10.79237"><ele>128.33333333333334</ele><time>2026-03-28T10:44:15.829Z</time></trkpt><trkpt lat="45.433235" lon="10.792395"><ele>129.66666666666666</ele><time>2026-03-28T10:44:16.83Z</time></trkpt><trkpt lat="45.4334517" lon="10.7924033"><ele>131.0</ele><time>2026-03-28T10:44:17.83Z</time></trkpt><trkpt lat="45.433685" lon="10.7923967"><ele>131.0</ele><time>2026-03-28T10:44:18.83Z</time></trkpt><trkpt lat="45.43391" lon="10.792415"><ele>131.0</ele><time>2026-03-28T10:44:19.829Z</time></trkpt><trkpt lat="45.4341533" lon="10.7924133"><ele>131.0</ele><time>2026-03-28T10:44:20.83Z</time></trkpt><trkpt lat="45.4343883" lon="10.7923833"><ele>131.0</ele><time>2026-03-28T10:44:21.83Z</time></trkpt><trkpt lat="45.43462" lon="10.792355"><ele>131.0</ele><time>2026-03-28T10:44:22.829Z</time></trkpt><trkpt lat="45.43486" lon="10.79232"><ele>131.0</ele><time>2026-03-28T10:44:23.829Z</time></trkpt><trkpt lat="45.435105" lon="10.7922867"><ele>131.0</ele><time>2026-03-28T10:44:24.829Z</time></trkpt><trkpt lat="45.4353517" lon="10.7922533"><ele>131.0</ele><time>2026-03-28T10:44:25.829Z</time></trkpt><trkpt lat="45.4355917" lon="10.7922183"><ele>132.5</ele><time>2026-03-28T10:44:26.83Z</time></trkpt><trkpt lat="45.4358317" lon="10.792185"><ele>134.0</ele><time>2026-03-28T10:44:27.829Z</time></trkpt><trkpt lat="45.4360467" lon="10.79215"><ele>134.0</ele><time>2026-03-28T10:44:28.829Z</time></trkpt><trkpt lat="45.43624" lon="10.7921183"><ele>134.0</ele><time>2026-03-28T10:44:29.83Z</time></trkpt><trkpt lat="45.43641" lon="10.7921"><ele>134.0</ele><time>2026-03-28T10:44:30.829Z</time></trkpt><trkpt lat="45.4365767" lon="10.7920767"><ele>133.75</ele><time>2026-03-28T10:44:31.83Z</time></trkpt><trkpt lat="45.4367317" lon="10.7920717"><ele>133.5</ele><time>2026-03-28T10:44:32.83Z</time></trkpt><trkpt lat="45.4368917" lon="10.79205"><ele>133.25</ele><time>2026-03-28T10:44:33.83Z</time></trkpt><trkpt lat="45.437025" lon="10.792045"><ele>133.0</ele><time>2026-03-28T10:44:34.829Z</time></trkpt><trkpt lat="45.4371317" lon="10.7920533"><ele>133.20000000000002</ele><time>2026-03-28T10:44:35.83Z</time></trkpt><trkpt lat="45.43722" lon="10.7920683"><ele>133.4</ele><time>2026-03-28T10:44:36.829Z</time></trkpt><trkpt lat="45.4372933" lon="10.79208"><ele>133.60000000000002</ele><time>2026-03-28T10:44:37.83Z</time></trkpt><trkpt lat="45.4373833" lon="10.7921083"><ele>133.8</ele><time>2026-03-28T10:44:39.83Z</time></trkpt><trkpt lat="45.4373017" lon="10.7920283"><ele>134.0</ele><time>2026-03-28T10:44:43.829Z</time></trkpt><trkpt lat="45.4371717" lon="10.79202"><ele>134.0</ele><time>2026-03-28T10:44:44.829Z</time></trkpt><trkpt lat="45.4370433" lon="10.7920117"><ele>134.0</ele><time>2026-03-28T10:44:45.829Z</time></trkpt><trkpt lat="45.4369433" lon="10.79201"><ele>134.0</ele><time>2026-03-28T10:44:46.829Z</time></trkpt><trkpt lat="45.4368667" lon="10.7919317"><ele>134.0</ele><time>2026-03-28T10:44:48.83Z</time></trkpt><trkpt lat="45.436875" lon="10.7917583"><ele>134.0</ele><time>2026-03-28T10:44:50.829Z</time></trkpt><trkpt lat="45.4369017" lon="10.791665"><ele>134.0</ele><time>2026-03-28T10:44:51.829Z</time></trkpt><trkpt lat="45.4369433" lon="10.7915517"><ele>134.0</ele><time>2026-03-28T10:44:52.83Z</time></trkpt><trkpt lat="45.4369783" lon="10.7914467"><ele>134.0</ele><time>2026-03-28T10:44:53.83Z</time></trkpt><trkpt lat="45.4369917" lon="10.7913433"><ele>134.0</ele><time>2026-03-28T10:44:54.83Z</time></trkpt><trkpt lat="45.4369967" lon="10.7912317"><ele>134.0</ele><time>2026-03-28T10:44:55.83Z</time></trkpt><trkpt lat="45.43698" lon="10.7910983"><ele>134.0</ele><time>2026-03-28T10:44:56.829Z</time></trkpt><trkpt lat="45.4369233" lon="10.79096"><ele>134.0</ele><time>2026-03-28T10:44:57.829Z</time></trkpt><trkpt lat="45.4368417" lon="10.790815"><ele>134.0</ele><time>2026-03-28T10:44:58.829Z</time></trkpt><trkpt lat="45.436765" lon="10.790685"><ele>134.0</ele><time>2026-03-28T10:44:59.83Z</time></trkpt><trkpt lat="45.4367" lon="10.7905933"><ele>134.0</ele><time>2026-03-28T10:45:00.829Z</time></trkpt><trkpt lat="45.4366567" lon="10.7905267"><ele>134.0</ele><time>2026-03-28T10:45:01.83Z</time></trkpt><trkpt lat="45.4366333" lon="10.7904133"><ele>134.0</ele><time>2026-03-28T10:45:03.83Z</time></trkpt><trkpt lat="45.4366867" lon="10.7902933"><ele>134.0</ele><time>2026-03-28T10:45:05.829Z</time></trkpt><trkpt lat="45.43675" lon="10.7902133"><ele>134.0</ele><time>2026-03-28T10:45:06.829Z</time></trkpt><trkpt lat="45.4368233" lon="10.7901117"><ele>134.0</ele><time>2026-03-28T10:45:07.83Z</time></trkpt><trkpt lat="45.4369033" lon="10.7899917"><ele>134.0</ele><time>2026-03-28T10:45:08.829Z</time></trkpt><trkpt lat="45.4369817" lon="10.7898717"><ele>133.5</ele><time>2026-03-28T10:45:09.83Z</time></trkpt><trkpt lat="45.43705" lon="10.7897667"><ele>133.0</ele><time>2026-03-28T10:45:10.829Z</time></trkpt><trkpt lat="45.4371167" lon="10.7896833"><ele>132.5</ele><time>2026-03-28T10:45:11.829Z</time></trkpt><trkpt lat="45.4371667" lon="10.7896017"><ele>132.0</ele><time>2026-03-28T10:45:12.829Z</time></trkpt><trkpt lat="45.4372217" lon="10.78952"><ele>131.5</ele><time>2026-03-28T10:45:13.83Z</time></trkpt><trkpt lat="45.4372433" lon="10.7894267"><ele>131.0</ele><time>2026-03-28T10:45:14.829Z</time></trkpt><trkpt lat="45.437225" lon="10.7892967"><ele>130.6</ele><time>2026-03-28T10:45:16.83Z</time></trkpt><trkpt lat="45.4371183" lon="10.7892183"><ele>130.2</ele><time>2026-03-28T10:45:18.83Z</time></trkpt><trkpt lat="45.4370283" lon="10.789175"><ele>129.8</ele><time>2026-03-28T10:45:19.83Z</time></trkpt><trkpt lat="45.4369617" lon="10.7891283"><ele>129.4</ele><time>2026-03-28T10:45:20.83Z</time></trkpt><trkpt lat="45.4369017" lon="10.78901"><ele>129.0</ele><time>2026-03-28T10:45:22.829Z</time></trkpt><trkpt lat="45.4369517" lon="10.788845"><ele>129.0</ele><time>2026-03-28T10:45:24.829Z</time></trkpt><trkpt lat="45.436995" lon="10.7887667"><ele>129.0</ele><time>2026-03-28T10:45:25.829Z</time></trkpt><trkpt lat="45.4370167" lon="10.7886717"><ele>129.0</ele><time>2026-03-28T10:45:26.83Z</time></trkpt><trkpt lat="45.4370217" lon="10.7885583"><ele>129.0</ele><time>2026-03-28T10:45:27.83Z</time></trkpt><trkpt lat="45.437025" lon="10.7884133"><ele>129.0</ele><time>2026-03-28T10:45:28.829Z</time></trkpt><trkpt lat="45.4370117" lon="10.788235"><ele>129.0</ele><time>2026-03-28T10:45:29.829Z</time></trkpt><trkpt lat="45.437005" lon="10.7880483"><ele>128.75</ele><time>2026-03-28T10:45:30.83Z</time></trkpt><trkpt lat="45.43698" lon="10.7878783"><ele>128.5</ele><time>2026-03-28T10:45:31.829Z</time></trkpt><trkpt lat="45.436965" lon="10.7877067"><ele>128.25</ele><time>2026-03-28T10:45:32.829Z</time></trkpt><trkpt lat="45.4369567" lon="10.7875333"><ele>128.0</ele><time>2026-03-28T10:45:33.83Z</time></trkpt><trkpt lat="45.4369583" lon="10.7873667"><ele>128.0</ele><time>2026-03-28T10:45:34.83Z</time></trkpt><trkpt lat="45.43699" lon="10.787205"><ele>128.0</ele><time>2026-03-28T10:45:35.829Z</time></trkpt><trkpt lat="45.4370317" lon="10.78704"><ele>128.0</ele><time>2026-03-28T10:45:36.829Z</time></trkpt><trkpt lat="45.4370733" lon="10.786875"><ele>128.0</ele><time>2026-03-28T10:45:37.829Z</time></trkpt><trkpt lat="45.4371067" lon="10.7867217"><ele>127.80000000000001</ele><time>2026-03-28T10:45:38.829Z</time></trkpt><trkpt lat="45.437145" lon="10.786575"><ele>127.60000000000001</ele><time>2026-03-28T10:45:39.828Z</time></trkpt><trkpt lat="45.4371833" lon="10.7864233"><ele>127.39999999999999</ele><time>2026-03-28T10:45:40.828Z</time></trkpt><trkpt lat="45.4372167" lon="10.7862717"><ele>127.19999999999999</ele><time>2026-03-28T10:45:41.829Z</time></trkpt><trkpt lat="45.43725" lon="10.7861317"><ele>127.0</ele><time>2026-03-28T10:45:42.828Z</time></trkpt><trkpt lat="45.43729" lon="10.7859917"><ele>128.5</ele><time>2026-03-28T10:45:43.828Z</time></trkpt><trkpt lat="45.43733" lon="10.7858283"><ele>130.0</ele><time>2026-03-28T10:45:44.828Z</time></trkpt><trkpt lat="45.4373767" lon="10.785655"><ele>131.5</ele><time>2026-03-28T10:45:45.828Z</time></trkpt><trkpt lat="45.4374267" lon="10.78547"><ele>133.0</ele><time>2026-03-28T10:45:46.828Z</time></trkpt><trkpt lat="45.4374767" lon="10.7852867"><ele>133.8</ele><time>2026-03-28T10:45:47.828Z</time></trkpt><trkpt lat="45.4375183" lon="10.7851183"><ele>134.60000000000002</ele><time>2026-03-28T10:45:48.829Z</time></trkpt><trkpt lat="45.437555" lon="10.784955"><ele>135.39999999999998</ele><time>2026-03-28T10:45:49.828Z</time></trkpt><trkpt lat="45.4375783" lon="10.7848333"><ele>136.2</ele><time>2026-03-28T10:45:50.828Z</time></trkpt><trkpt lat="45.4375833" lon="10.7847033"><ele>137.0</ele><time>2026-03-28T10:45:51.829Z</time></trkpt><trkpt lat="45.4375983" lon="10.7845633"><ele>137.0</ele><time>2026-03-28T10:45:52.828Z</time></trkpt><trkpt lat="45.43761" lon="10.7844183"><ele>137.0</ele><time>2026-03-28T10:45:53.828Z</time></trkpt><trkpt lat="45.43762" lon="10.784265"><ele>137.0</ele><time>2026-03-28T10:45:54.828Z</time></trkpt><trkpt lat="45.4376367" lon="10.78411"><ele>137.0</ele><time>2026-03-28T10:45:55.829Z</time></trkpt><trkpt lat="45.437645" lon="10.7839517"><ele>137.0</ele><time>2026-03-28T10:45:56.829Z</time></trkpt><trkpt lat="45.4376517" lon="10.783805"><ele>136.6</ele><time>2026-03-28T10:45:57.829Z</time></trkpt><trkpt lat="45.43764" lon="10.78368"><ele>136.2</ele><time>2026-03-28T10:45:58.829Z</time></trkpt><trkpt lat="45.4376467" lon="10.78354"><ele>135.8</ele><time>2026-03-28T10:45:59.828Z</time></trkpt><trkpt lat="45.437665" lon="10.7833933"><ele>135.4</ele><time>2026-03-28T10:46:00.828Z</time></trkpt><trkpt lat="45.4376917" lon="10.7832267"><ele>135.0</ele><time>2026-03-28T10:46:01.828Z</time></trkpt><trkpt lat="45.4377183" lon="10.783045"><ele>134.0</ele><time>2026-03-28T10:46:02.829Z</time></trkpt><trkpt lat="45.4377433" lon="10.782865"><ele>133.0</ele><time>2026-03-28T10:46:03.829Z</time></trkpt><trkpt lat="45.437765" lon="10.7826883"><ele>132.0</ele><time>2026-03-28T10:46:04.828Z</time></trkpt><trkpt lat="45.4377717" lon="10.782535"><ele>131.0</ele><time>2026-03-28T10:46:05.829Z</time></trkpt><trkpt lat="45.4377733" lon="10.78242"><ele>130.0</ele><time>2026-03-28T10:46:06.828Z</time></trkpt><trkpt lat="45.4377867" lon="10.7823217"><ele>128.8</ele><time>2026-03-28T10:46:07.828Z</time></trkpt><trkpt lat="45.43785" lon="10.782275"><ele>127.6</ele><time>2026-03-28T10:46:08.828Z</time></trkpt><trkpt lat="45.4379333" lon="10.7822633"><ele>126.4</ele><time>2026-03-28T10:46:09.828Z</time></trkpt><trkpt lat="45.43805" lon="10.7822983"><ele>125.2</ele><time>2026-03-28T10:46:10.828Z</time></trkpt><trkpt lat="45.4381917" lon="10.7823483"><ele>124.0</ele><time>2026-03-28T10:46:11.829Z</time></trkpt><trkpt lat="45.4383533" lon="10.782395"><ele>123.66666666666667</ele><time>2026-03-28T10:46:12.828Z</time></trkpt><trkpt lat="45.4385383" lon="10.7824133"><ele>123.33333333333334</ele><time>2026-03-28T10:46:13.829Z</time></trkpt><trkpt lat="45.4387283" lon="10.7824267"><ele>123.0</ele><time>2026-03-28T10:46:14.829Z</time></trkpt><trkpt lat="45.43892" lon="10.7824367"><ele>123.0</ele><time>2026-03-28T10:46:15.829Z</time></trkpt><trkpt lat="45.4390733" lon="10.7824433"><ele>123.0</ele><time>2026-03-28T10:46:16.828Z</time></trkpt><trkpt lat="45.439215" lon="10.782455"><ele>123.0</ele><time>2026-03-28T10:46:17.829Z</time></trkpt><trkpt lat="45.4393383" lon="10.7824667"><ele>123.0</ele><time>2026-03-28T10:46:18.828Z</time></trkpt><trkpt lat="45.439445" lon="10.7824767"><ele>123.0</ele><time>2026-03-28T10:46:19.829Z</time></trkpt><trkpt lat="45.439535" lon="10.7824933"><ele>123.00000000000001</ele><time>2026-03-28T10:46:20.829Z</time></trkpt><trkpt lat="45.43961" lon="10.7825083"><ele>123.00000000000001</ele><time>2026-03-28T10:46:21.828Z</time></trkpt><trkpt lat="45.439705" lon="10.7825167"><ele>123.0</ele><time>2026-03-28T10:46:23.828Z</time></trkpt><trkpt lat="45.4397933" lon="10.7823783"><ele>123.0</ele><time>2026-03-28T10:47:01.828Z</time></trkpt><trkpt lat="45.439825" lon="10.7822167"><ele>123.33333333333334</ele><time>2026-03-28T10:47:02.828Z</time></trkpt><trkpt lat="45.4398483" lon="10.7820033"><ele>123.66666666666667</ele><time>2026-03-28T10:47:03.829Z</time></trkpt><trkpt lat="45.4398767" lon="10.781775"><ele>124.0</ele><time>2026-03-28T10:47:04.828Z</time></trkpt><trkpt lat="45.4399033" lon="10.7815317"><ele>123.5</ele><time>2026-03-28T10:47:05.828Z</time></trkpt><trkpt lat="45.4399283" lon="10.7813017"><ele>123.0</ele><time>2026-03-28T10:47:06.828Z</time></trkpt><trkpt lat="45.4399433" lon="10.78111"><ele>122.5</ele><time>2026-03-28T10:47:07.828Z</time></trkpt><trkpt lat="45.4399733" lon="10.7809633"><ele>122.0</ele><time>2026-03-28T10:47:08.828Z</time></trkpt><trkpt lat="45.4400233" lon="10.7808617"><ele>121.75</ele><time>2026-03-28T10:47:09.829Z</time></trkpt><trkpt lat="45.4401" lon="10.7808183"><ele>121.5</ele><time>2026-03-28T10:47:10.828Z</time></trkpt><trkpt lat="45.4402033" lon="10.7808117"><ele>121.25</ele><time>2026-03-28T10:47:11.828Z</time></trkpt><trkpt lat="45.440325" lon="10.7808533"><ele>121.0</ele><time>2026-03-28T10:47:12.828Z</time></trkpt><trkpt lat="45.4404667" lon="10.7809183"><ele>121.0</ele><time>2026-03-28T10:47:13.829Z</time></trkpt><trkpt lat="45.4406167" lon="10.7810133"><ele>121.0</ele><time>2026-03-28T10:47:14.828Z</time></trkpt><trkpt lat="45.4407733" lon="10.78114"><ele>121.0</ele><time>2026-03-28T10:47:15.829Z</time></trkpt><trkpt lat="45.44094" lon="10.78129"><ele>120.66666666666667</ele><time>2026-03-28T10:47:16.828Z</time></trkpt><trkpt lat="45.441115" lon="10.7814417"><ele>120.33333333333334</ele><time>2026-03-28T10:47:17.828Z</time></trkpt><trkpt lat="45.441295" lon="10.7815933"><ele>120.0</ele><time>2026-03-28T10:47:18.828Z</time></trkpt><trkpt lat="45.441475" lon="10.7817383"><ele>119.66666666666666</ele><time>2026-03-28T10:47:19.829Z</time></trkpt><trkpt lat="45.44165" lon="10.7818567"><ele>119.33333333333333</ele><time>2026-03-28T10:47:20.829Z</time></trkpt><trkpt lat="45.4418167" lon="10.78196"><ele>119.0</ele><time>2026-03-28T10:47:21.828Z</time></trkpt><trkpt lat="45.44199" lon="10.7820283"><ele>118.66666666666666</ele><time>2026-03-28T10:47:22.829Z</time></trkpt><trkpt lat="45.4421867" lon="10.7820883"><ele>118.33333333333334</ele><time>2026-03-28T10:47:23.829Z</time></trkpt><trkpt lat="45.4423967" lon="10.78214"><ele>118.0</ele><time>2026-03-28T10:47:24.828Z</time></trkpt><trkpt lat="45.4426083" lon="10.7822"><ele>118.0</ele><time>2026-03-28T10:47:25.829Z</time></trkpt><trkpt lat="45.4428317" lon="10.78225"><ele>118.0</ele><time>2026-03-28T10:47:26.828Z</time></trkpt><trkpt lat="45.4430617" lon="10.7823067"><ele>118.5</ele><time>2026-03-28T10:47:27.829Z</time></trkpt><trkpt lat="45.4433033" lon="10.7823617"><ele>119.0</ele><time>2026-03-28T10:47:28.829Z</time></trkpt><trkpt lat="45.443555" lon="10.78239"><ele>120.0</ele><time>2026-03-28T10:47:29.828Z</time></trkpt><trkpt lat="45.4438067" lon="10.78243"><ele>121.0</ele><time>2026-03-28T10:47:30.829Z</time></trkpt><trkpt lat="45.4440717" lon="10.7824733"><ele>121.0</ele><time>2026-03-28T10:47:31.829Z</time></trkpt><trkpt lat="45.44432" lon="10.7825233"><ele>121.0</ele><time>2026-03-28T10:47:32.829Z</time></trkpt><trkpt lat="45.4445483" lon="10.7825633"><ele>121.0</ele><time>2026-03-28T10:47:33.828Z</time></trkpt><trkpt lat="45.4447633" lon="10.7826017"><ele>121.0</ele><time>2026-03-28T10:47:34.829Z</time></trkpt><trkpt lat="45.4449667" lon="10.7826467"><ele>121.0</ele><time>2026-03-28T10:47:35.828Z</time></trkpt><trkpt lat="45.445155" lon="10.7826817"><ele>121.0</ele><time>2026-03-28T10:47:36.829Z</time></trkpt><trkpt lat="45.4453233" lon="10.7826967"><ele>121.0</ele><time>2026-03-28T10:47:37.829Z</time></trkpt><trkpt lat="45.4454733" lon="10.7826683"><ele>121.0</ele><time>2026-03-28T10:47:38.828Z</time></trkpt><trkpt lat="45.4456317" lon="10.78261"><ele>120.33333333333334</ele><time>2026-03-28T10:47:39.829Z</time></trkpt><trkpt lat="45.4458117" lon="10.7825033"><ele>119.66666666666666</ele><time>2026-03-28T10:47:40.828Z</time></trkpt><trkpt lat="45.4459883" lon="10.7823967"><ele>119.0</ele><time>2026-03-28T10:47:41.829Z</time></trkpt><trkpt lat="45.4461717" lon="10.7823067"><ele>118.66666666666666</ele><time>2026-03-28T10:47:42.829Z</time></trkpt><trkpt lat="45.4463683" lon="10.782215"><ele>118.33333333333334</ele><time>2026-03-28T10:47:43.829Z</time></trkpt><trkpt lat="45.446545" lon="10.7821217"><ele>118.0</ele><time>2026-03-28T10:47:44.828Z</time></trkpt><trkpt lat="45.4467117" lon="10.7820167"><ele>118.0</ele><time>2026-03-28T10:47:45.828Z</time></trkpt><trkpt lat="45.4468833" lon="10.7818733"><ele>118.0</ele><time>2026-03-28T10:47:46.828Z</time></trkpt><trkpt lat="45.447045" lon="10.7816767"><ele>118.0</ele><time>2026-03-28T10:47:47.829Z</time></trkpt><trkpt lat="45.4471867" lon="10.7814517"><ele>116.33333333333334</ele><time>2026-03-28T10:47:48.829Z</time></trkpt><trkpt lat="45.4473217" lon="10.7812283"><ele>114.66666666666666</ele><time>2026-03-28T10:47:49.829Z</time></trkpt><trkpt lat="45.4474783" lon="10.78103"><ele>113.0</ele><time>2026-03-28T10:47:50.829Z</time></trkpt><trkpt lat="45.44765" lon="10.78089"><ele>113.0</ele><time>2026-03-28T10:47:51.828Z</time></trkpt><trkpt lat="45.4478533" lon="10.7807917"><ele>113.0</ele><time>2026-03-28T10:47:52.828Z</time></trkpt><trkpt lat="45.4480767" lon="10.780705"><ele>113.0</ele><time>2026-03-28T10:47:53.828Z</time></trkpt><trkpt lat="45.4482917" lon="10.7806217"><ele>114.0</ele><time>2026-03-28T10:47:54.829Z</time></trkpt><trkpt lat="45.4484717" lon="10.7805367"><ele>115.0</ele><time>2026-03-28T10:47:55.828Z</time></trkpt><trkpt lat="45.4486467" lon="10.7804367"><ele>116.0</ele><time>2026-03-28T10:47:56.828Z</time></trkpt><trkpt lat="45.4487817" lon="10.7803083"><ele>116.5</ele><time>2026-03-28T10:47:57.829Z</time></trkpt><trkpt lat="45.4488917" lon="10.78017"><ele>117.0</ele><time>2026-03-28T10:47:58.828Z</time></trkpt><trkpt lat="45.4489733" lon="10.7800383"><ele>117.5</ele><time>2026-03-28T10:47:59.828Z</time></trkpt><trkpt lat="45.44904" lon="10.7799133"><ele>118.0</ele><time>2026-03-28T10:48:00.828Z</time></trkpt><trkpt lat="45.44909" lon="10.7798167"><ele>118.0</ele><time>2026-03-28T10:48:01.828Z</time></trkpt><trkpt lat="45.4490833" lon="10.7796633"><ele>118.00000000000001</ele><time>2026-03-28T10:48:03.828Z</time></trkpt><trkpt lat="45.4490233" lon="10.779595"><ele>118.00000000000001</ele><time>2026-03-28T10:48:04.829Z</time></trkpt><trkpt lat="45.448935" lon="10.7795167"><ele>118.0</ele><time>2026-03-28T10:48:05.829Z</time></trkpt><trkpt lat="45.448825" lon="10.77942"><ele>118.0</ele><time>2026-03-28T10:48:06.828Z</time></trkpt><trkpt lat="45.4487033" lon="10.7792933"><ele>117.66666666666667</ele><time>2026-03-28T10:48:07.828Z</time></trkpt><trkpt lat="45.4485683" lon="10.7791467"><ele>117.33333333333334</ele><time>2026-03-28T10:48:08.828Z</time></trkpt><trkpt lat="45.4484267" lon="10.7789717"><ele>117.0</ele><time>2026-03-28T10:48:09.829Z</time></trkpt><trkpt lat="45.44827" lon="10.77879"><ele>117.0</ele><time>2026-03-28T10:48:10.828Z</time></trkpt><trkpt lat="45.4481" lon="10.778585"><ele>117.0</ele><time>2026-03-28T10:48:11.829Z</time></trkpt><trkpt lat="45.4479283" lon="10.7783717"><ele>115.5</ele><time>2026-03-28T10:48:12.829Z</time></trkpt><trkpt lat="45.447745" lon="10.7781483"><ele>114.0</ele><time>2026-03-28T10:48:13.829Z</time></trkpt><trkpt lat="45.4475667" lon="10.7779133"><ele>115.0</ele><time>2026-03-28T10:48:14.828Z</time></trkpt><trkpt lat="45.4473833" lon="10.77767"><ele>116.0</ele><time>2026-03-28T10:48:15.828Z</time></trkpt><trkpt lat="45.447205" lon="10.7774267"><ele>116.0</ele><time>2026-03-28T10:48:16.829Z</time></trkpt><trkpt lat="45.447035" lon="10.7771983"><ele>116.0</ele><time>2026-03-28T10:48:17.828Z</time></trkpt><trkpt lat="45.4468717" lon="10.7769717"><ele>116.0</ele><time>2026-03-28T10:48:18.828Z</time></trkpt><trkpt lat="45.4467167" lon="10.7767533"><ele>116.0</ele><time>2026-03-28T10:48:19.829Z</time></trkpt><trkpt lat="45.4465767" lon="10.7765233"><ele>116.0</ele><time>2026-03-28T10:48:20.829Z</time></trkpt><trkpt lat="45.4464533" lon="10.776295"><ele>116.0</ele><time>2026-03-28T10:48:21.828Z</time></trkpt><trkpt lat="45.446335" lon="10.7760767"><ele>116.0</ele><time>2026-03-28T10:48:22.828Z</time></trkpt><trkpt lat="45.44623" lon="10.7758517"><ele>116.0</ele><time>2026-03-28T10:48:23.828Z</time></trkpt><trkpt lat="45.4461567" lon="10.77563"><ele>115.33333333333333</ele><time>2026-03-28T10:48:24.829Z</time></trkpt><trkpt lat="45.4460933" lon="10.7754017"><ele>114.66666666666666</ele><time>2026-03-28T10:48:25.829Z</time></trkpt><trkpt lat="45.446025" lon="10.7751517"><ele>114.0</ele><time>2026-03-28T10:48:26.828Z</time></trkpt><trkpt lat="45.4459483" lon="10.7749033"><ele>114.0</ele><time>2026-03-28T10:48:27.828Z</time></trkpt><trkpt lat="45.445875" lon="10.7746567"><ele>114.0</ele><time>2026-03-28T10:48:28.828Z</time></trkpt><trkpt lat="45.4458133" lon="10.774425"><ele>114.0</ele><time>2026-03-28T10:48:29.829Z</time></trkpt><trkpt lat="45.4457633" lon="10.77419"><ele>113.66666666666666</ele><time>2026-03-28T10:48:30.828Z</time></trkpt><trkpt lat="45.44571" lon="10.77397"><ele>113.33333333333333</ele><time>2026-03-28T10:48:31.829Z</time></trkpt><trkpt lat="45.4456667" lon="10.773745"><ele>113.0</ele><time>2026-03-28T10:48:32.828Z</time></trkpt><trkpt lat="45.4455967" lon="10.77352"><ele>112.66666666666666</ele><time>2026-03-28T10:48:33.828Z</time></trkpt><trkpt lat="45.4455233" lon="10.7732833"><ele>112.33333333333334</ele><time>2026-03-28T10:48:34.828Z</time></trkpt><trkpt lat="45.4454467" lon="10.77304"><ele>112.0</ele><time>2026-03-28T10:48:35.828Z</time></trkpt><trkpt lat="45.4453467" lon="10.7728083"><ele>111.66666666666667</ele><time>2026-03-28T10:48:36.829Z</time></trkpt><trkpt lat="45.44525" lon="10.7726133"><ele>111.33333333333334</ele><time>2026-03-28T10:48:37.828Z</time></trkpt><trkpt lat="45.44516" lon="10.7724433"><ele>111.0</ele><time>2026-03-28T10:48:38.828Z</time></trkpt><trkpt lat="45.4450967" lon="10.7722733"><ele>111.0</ele><time>2026-03-28T10:48:39.829Z</time></trkpt><trkpt lat="45.4450383" lon="10.77213"><ele>111.0</ele><time>2026-03-28T10:48:40.829Z</time></trkpt><trkpt lat="45.4450117" lon="10.771985"><ele>111.0</ele><time>2026-03-28T10:48:41.829Z</time></trkpt><trkpt lat="45.445" lon="10.77182"><ele>111.0</ele><time>2026-03-28T10:48:42.828Z</time></trkpt><trkpt lat="45.4449883" lon="10.7716133"><ele>111.33333333333334</ele><time>2026-03-28T10:48:43.829Z</time></trkpt><trkpt lat="45.4449817" lon="10.7713883"><ele>111.66666666666667</ele><time>2026-03-28T10:48:44.828Z</time></trkpt><trkpt lat="45.4449717" lon="10.7711317"><ele>112.0</ele><time>2026-03-28T10:48:45.828Z</time></trkpt><trkpt lat="45.444955" lon="10.770875"><ele>114.0</ele><time>2026-03-28T10:48:46.829Z</time></trkpt><trkpt lat="45.444935" lon="10.7706067"><ele>116.0</ele><time>2026-03-28T10:48:47.828Z</time></trkpt><trkpt lat="45.444915" lon="10.7703617"><ele>118.0</ele><time>2026-03-28T10:48:48.829Z</time></trkpt><trkpt lat="45.4448933" lon="10.7701483"><ele>119.0</ele><time>2026-03-28T10:48:49.828Z</time></trkpt><trkpt lat="45.44486" lon="10.7699617"><ele>120.0</ele><time>2026-03-28T10:48:50.828Z</time></trkpt><trkpt lat="45.4448033" lon="10.7698067"><ele>121.0</ele><time>2026-03-28T10:48:51.829Z</time></trkpt><trkpt lat="45.4447233" lon="10.7696883"><ele>122.0</ele><time>2026-03-28T10:48:52.828Z</time></trkpt><trkpt lat="45.4446617" lon="10.7695667"><ele>122.0</ele><time>2026-03-28T10:48:53.828Z</time></trkpt><trkpt lat="45.444605" lon="10.7694383"><ele>121.99999999999999</ele><time>2026-03-28T10:48:54.828Z</time></trkpt><trkpt lat="45.444555" lon="10.76931"><ele>121.99999999999999</ele><time>2026-03-28T10:48:55.828Z</time></trkpt><trkpt lat="45.444495" lon="10.7691633"><ele>122.0</ele><time>2026-03-28T10:48:56.828Z</time></trkpt><trkpt lat="45.4444383" lon="10.7690183"><ele>122.0</ele><time>2026-03-28T10:48:57.829Z</time></trkpt><trkpt lat="45.444365" lon="10.76888"><ele>121.75</ele><time>2026-03-28T10:48:58.829Z</time></trkpt><trkpt lat="45.4442733" lon="10.7687483"><ele>121.5</ele><time>2026-03-28T10:48:59.829Z</time></trkpt><trkpt lat="45.4441833" lon="10.7686367"><ele>121.25</ele><time>2026-03-28T10:49:00.829Z</time></trkpt><trkpt lat="45.4441" lon="10.7685367"><ele>121.0</ele><time>2026-03-28T10:49:01.829Z</time></trkpt><trkpt lat="45.4440067" lon="10.7684483"><ele>120.16666666666667</ele><time>2026-03-28T10:49:02.828Z</time></trkpt><trkpt lat="45.4439333" lon="10.7683767"><ele>119.33333333333334</ele><time>2026-03-28T10:49:03.828Z</time></trkpt><trkpt lat="45.443875" lon="10.7683167"><ele>118.5</ele><time>2026-03-28T10:49:04.829Z</time></trkpt><trkpt lat="45.4438717" lon="10.7682117"><ele>117.66666666666666</ele><time>2026-03-28T10:49:07.827Z</time></trkpt><trkpt lat="45.44394" lon="10.768165"><ele>116.83333333333333</ele><time>2026-03-28T10:49:09.827Z</time></trkpt><trkpt lat="45.4440067" lon="10.7681533"><ele>116.0</ele><time>2026-03-28T10:49:10.827Z</time></trkpt><trkpt lat="45.444115" lon="10.7681317"><ele>116.0</ele><time>2026-03-28T10:49:11.828Z</time></trkpt><trkpt lat="45.444255" lon="10.7681233"><ele>116.0</ele><time>2026-03-28T10:49:12.828Z</time></trkpt><trkpt lat="45.444415" lon="10.7681217"><ele>116.0</ele><time>2026-03-28T10:49:13.828Z</time></trkpt><trkpt lat="45.4445967" lon="10.7681067"><ele>116.0</ele><time>2026-03-28T10:49:14.828Z</time></trkpt><trkpt lat="45.4447967" lon="10.7680783"><ele>116.0</ele><time>2026-03-28T10:49:15.827Z</time></trkpt><trkpt lat="45.445015" lon="10.7680567"><ele>116.0</ele><time>2026-03-28T10:49:16.828Z</time></trkpt><trkpt lat="45.445235" lon="10.7680317"><ele>115.0</ele><time>2026-03-28T10:49:17.827Z</time></trkpt><trkpt lat="45.4454667" lon="10.7680067"><ele>114.0</ele><time>2026-03-28T10:49:18.828Z</time></trkpt><trkpt lat="45.4457017" lon="10.7679817"><ele>114.0</ele><time>2026-03-28T10:49:19.827Z</time></trkpt><trkpt lat="45.445935" lon="10.7679867"><ele>114.0</ele><time>2026-03-28T10:49:20.827Z</time></trkpt><trkpt lat="45.446155" lon="10.7680283"><ele>113.0</ele><time>2026-03-28T10:49:21.827Z</time></trkpt><trkpt lat="45.4463917" lon="10.768095"><ele>112.0</ele><time>2026-03-28T10:49:22.828Z</time></trkpt><trkpt lat="45.4466117" lon="10.7681883"><ele>112.0</ele><time>2026-03-28T10:49:23.828Z</time></trkpt><trkpt lat="45.446835" lon="10.7683"><ele>112.0</ele><time>2026-03-28T10:49:24.827Z</time></trkpt><trkpt lat="45.4470517" lon="10.7684383"><ele>113.5</ele><time>2026-03-28T10:49:25.828Z</time></trkpt><trkpt lat="45.447275" lon="10.7686"><ele>115.0</ele><time>2026-03-28T10:49:26.828Z</time></trkpt><trkpt lat="45.44751" lon="10.768765"><ele>115.0</ele><time>2026-03-28T10:49:27.827Z</time></trkpt><trkpt lat="45.4477517" lon="10.7689283"><ele>115.0</ele><time>2026-03-28T10:49:28.828Z</time></trkpt><trkpt lat="45.4479867" lon="10.7690967"><ele>114.5</ele><time>2026-03-28T10:49:29.828Z</time></trkpt><trkpt lat="45.4482167" lon="10.7692767"><ele>114.0</ele><time>2026-03-28T10:49:30.827Z</time></trkpt><trkpt lat="45.4484433" lon="10.7694767"><ele>113.5</ele><time>2026-03-28T10:49:31.827Z</time></trkpt><trkpt lat="45.4486583" lon="10.7696883"><ele>113.0</ele><time>2026-03-28T10:49:32.828Z</time></trkpt><trkpt lat="45.4488367" lon="10.769885"><ele>113.5</ele><time>2026-03-28T10:49:33.827Z</time></trkpt><trkpt lat="45.4489533" lon="10.7700683"><ele>114.0</ele><time>2026-03-28T10:49:34.828Z</time></trkpt><trkpt lat="45.4490467" lon="10.7701983"><ele>114.5</ele><time>2026-03-28T10:49:35.827Z</time></trkpt><trkpt lat="45.4491167" lon="10.7703017"><ele>115.0</ele><time>2026-03-28T10:49:36.827Z</time></trkpt><trkpt lat="45.449175" lon="10.7703733"><ele>115.0</ele><time>2026-03-28T10:49:37.828Z</time></trkpt><trkpt lat="45.4492567" lon="10.7704133"><ele>115.0</ele><time>2026-03-28T10:49:38.827Z</time></trkpt><trkpt lat="45.449345" lon="10.77042"><ele>115.0</ele><time>2026-03-28T10:49:39.828Z</time></trkpt><trkpt lat="45.4494533" lon="10.7704133"><ele>115.0</ele><time>2026-03-28T10:49:40.828Z</time></trkpt><trkpt lat="45.44959" lon="10.7704133"><ele>115.0</ele><time>2026-03-28T10:49:41.828Z</time></trkpt><trkpt lat="45.4497433" lon="10.770425"><ele>115.0</ele><time>2026-03-28T10:49:42.828Z</time></trkpt><trkpt lat="45.449915" lon="10.770445"><ele>115.0</ele><time>2026-03-28T10:49:43.828Z</time></trkpt><trkpt lat="45.4500883" lon="10.7704683"><ele>115.0</ele><time>2026-03-28T10:49:44.827Z</time></trkpt><trkpt lat="45.450245" lon="10.770485"><ele>115.0</ele><time>2026-03-28T10:49:45.828Z</time></trkpt><trkpt lat="45.4504017" lon="10.7704983"><ele>115.0</ele><time>2026-03-28T10:49:46.827Z</time></trkpt><trkpt lat="45.450545" lon="10.7705067"><ele>115.0</ele><time>2026-03-28T10:49:47.827Z</time></trkpt><trkpt lat="45.4506717" lon="10.7705067"><ele>115.0</ele><time>2026-03-28T10:49:48.827Z</time></trkpt><trkpt lat="45.4507967" lon="10.7705167"><ele>115.25</ele><time>2026-03-28T10:49:49.828Z</time></trkpt><trkpt lat="45.45091" lon="10.77053"><ele>115.5</ele><time>2026-03-28T10:49:50.828Z</time></trkpt><trkpt lat="45.451025" lon="10.7705517"><ele>115.75</ele><time>2026-03-28T10:49:51.828Z</time></trkpt><trkpt lat="45.4511367" lon="10.7705783"><ele>116.0</ele><time>2026-03-28T10:49:52.828Z</time></trkpt><trkpt lat="45.45125" lon="10.7706017"><ele>116.25</ele><time>2026-03-28T10:49:53.828Z</time></trkpt><trkpt lat="45.451355" lon="10.7706283"><ele>116.5</ele><time>2026-03-28T10:49:54.827Z</time></trkpt><trkpt lat="45.4514567" lon="10.7706483"><ele>116.75</ele><time>2026-03-28T10:49:55.827Z</time></trkpt><trkpt lat="45.4515683" lon="10.77067"><ele>117.0</ele><time>2026-03-28T10:49:56.828Z</time></trkpt><trkpt lat="45.4516967" lon="10.77071"><ele>117.0</ele><time>2026-03-28T10:49:57.827Z</time></trkpt><trkpt lat="45.45185" lon="10.77074"><ele>117.0</ele><time>2026-03-28T10:49:58.828Z</time></trkpt><trkpt lat="45.4520183" lon="10.77078"><ele>117.0</ele><time>2026-03-28T10:49:59.828Z</time></trkpt><trkpt lat="45.4522033" lon="10.7708117"><ele>117.66666666666666</ele><time>2026-03-28T10:50:00.828Z</time></trkpt><trkpt lat="45.4523983" lon="10.770835"><ele>118.33333333333333</ele><time>2026-03-28T10:50:01.828Z</time></trkpt><trkpt lat="45.45258" lon="10.7708667"><ele>119.0</ele><time>2026-03-28T10:50:02.827Z</time></trkpt><trkpt lat="45.45276" lon="10.77091"><ele>119.0</ele><time>2026-03-28T10:50:03.827Z</time></trkpt><trkpt lat="45.452945" lon="10.770935"><ele>119.0</ele><time>2026-03-28T10:50:04.827Z</time></trkpt><trkpt lat="45.4531283" lon="10.7709717"><ele>119.0</ele><time>2026-03-28T10:50:05.827Z</time></trkpt><trkpt lat="45.453305" lon="10.771005"><ele>118.66666666666666</ele><time>2026-03-28T10:50:06.827Z</time></trkpt><trkpt lat="45.453485" lon="10.771035"><ele>118.33333333333334</ele><time>2026-03-28T10:50:07.827Z</time></trkpt><trkpt lat="45.453665" lon="10.771085"><ele>118.0</ele><time>2026-03-28T10:50:08.827Z</time></trkpt><trkpt lat="45.4538617" lon="10.771115"><ele>117.66666666666667</ele><time>2026-03-28T10:50:09.827Z</time></trkpt><trkpt lat="45.454045" lon="10.7711383"><ele>117.33333333333334</ele><time>2026-03-28T10:50:10.828Z</time></trkpt><trkpt lat="45.4542067" lon="10.7711583"><ele>117.0</ele><time>2026-03-28T10:50:11.827Z</time></trkpt><trkpt lat="45.4543683" lon="10.77119"><ele>117.0</ele><time>2026-03-28T10:50:12.828Z</time></trkpt><trkpt lat="45.4545167" lon="10.7712333"><ele>117.0</ele><time>2026-03-28T10:50:13.828Z</time></trkpt><trkpt lat="45.4546583" lon="10.771265"><ele>117.0</ele><time>2026-03-28T10:50:14.828Z</time></trkpt><trkpt lat="45.4547917" lon="10.771275"><ele>117.0</ele><time>2026-03-28T10:50:15.828Z</time></trkpt><trkpt lat="45.4549" lon="10.7712783"><ele>117.5</ele><time>2026-03-28T10:50:16.827Z</time></trkpt><trkpt lat="45.4549717" lon="10.7712767"><ele>118.0</ele><time>2026-03-28T10:50:17.827Z</time></trkpt><trkpt lat="45.4550633" lon="10.7712867"><ele>118.5</ele><time>2026-03-28T10:50:19.827Z</time></trkpt><trkpt lat="45.455085" lon="10.7713983"><ele>119.0</ele><time>2026-03-28T10:50:21.828Z</time></trkpt><trkpt lat="45.4550883" lon="10.7714967"><ele>119.5</ele><time>2026-03-28T10:50:22.827Z</time></trkpt><trkpt lat="45.4551" lon="10.7715967"><ele>120.0</ele><time>2026-03-28T10:50:23.828Z</time></trkpt><trkpt lat="45.4551767" lon="10.7717167"><ele>120.0</ele><time>2026-03-28T10:50:25.828Z</time></trkpt><trkpt lat="45.45527" lon="10.7717317"><ele>120.0</ele><time>2026-03-28T10:50:26.827Z</time></trkpt><trkpt lat="45.455395" lon="10.77175"><ele>120.0</ele><time>2026-03-28T10:50:27.827Z</time></trkpt><trkpt lat="45.455535" lon="10.7717933"><ele>120.0</ele><time>2026-03-28T10:50:28.827Z</time></trkpt><trkpt lat="45.4556917" lon="10.771835"><ele>120.33333333333334</ele><time>2026-03-28T10:50:29.827Z</time></trkpt><trkpt lat="45.4558433" lon="10.7718683"><ele>120.66666666666667</ele><time>2026-03-28T10:50:30.827Z</time></trkpt><trkpt lat="45.455995" lon="10.771905"><ele>121.0</ele><time>2026-03-28T10:50:31.828Z</time></trkpt><trkpt lat="45.456135" lon="10.7719467"><ele>121.0</ele><time>2026-03-28T10:50:32.827Z</time></trkpt><trkpt lat="45.4562833" lon="10.771995"><ele>121.0</ele><time>2026-03-28T10:50:33.827Z</time></trkpt><trkpt lat="45.4564533" lon="10.7720417"><ele>121.0</ele><time>2026-03-28T10:50:34.827Z</time></trkpt><trkpt lat="45.4566467" lon="10.7720733"><ele>121.0</ele><time>2026-03-28T10:50:35.828Z</time></trkpt><trkpt lat="45.4568383" lon="10.7721"><ele>121.0</ele><time>2026-03-28T10:50:36.828Z</time></trkpt><trkpt lat="45.4570367" lon="10.7721167"><ele>121.0</ele><time>2026-03-28T10:50:37.828Z</time></trkpt><trkpt lat="45.4572233" lon="10.7721217"><ele>121.0</ele><time>2026-03-28T10:50:38.827Z</time></trkpt><trkpt lat="45.45739" lon="10.7721233"><ele>121.0</ele><time>2026-03-28T10:50:39.828Z</time></trkpt><trkpt lat="45.4575483" lon="10.77211"><ele>121.0</ele><time>2026-03-28T10:50:40.827Z</time></trkpt><trkpt lat="45.4577" lon="10.7720983"><ele>121.0</ele><time>2026-03-28T10:50:41.828Z</time></trkpt><trkpt lat="45.45786" lon="10.7720833"><ele>121.0</ele><time>2026-03-28T10:50:42.828Z</time></trkpt><trkpt lat="45.4580217" lon="10.77208"><ele>121.0</ele><time>2026-03-28T10:50:43.828Z</time></trkpt><trkpt lat="45.45819" lon="10.772085"><ele>121.0</ele><time>2026-03-28T10:50:44.828Z</time></trkpt><trkpt lat="45.4583517" lon="10.7720833"><ele>121.0</ele><time>2026-03-28T10:50:45.827Z</time></trkpt><trkpt lat="45.4585117" lon="10.7720683"><ele>121.0</ele><time>2026-03-28T10:50:46.828Z</time></trkpt><trkpt lat="45.4586733" lon="10.77205"><ele>121.0</ele><time>2026-03-28T10:50:47.827Z</time></trkpt><trkpt lat="45.4588417" lon="10.7720267"><ele>121.0</ele><time>2026-03-28T10:50:48.827Z</time></trkpt><trkpt lat="45.4589983" lon="10.771995"><ele>121.0</ele><time>2026-03-28T10:50:49.827Z</time></trkpt><trkpt lat="45.459155" lon="10.7719633"><ele>121.0</ele><time>2026-03-28T10:50:50.828Z</time></trkpt><trkpt lat="45.4593067" lon="10.7719333"><ele>121.0</ele><time>2026-03-28T10:50:51.828Z</time></trkpt><trkpt lat="45.4594583" lon="10.7719133"><ele>121.0</ele><time>2026-03-28T10:50:52.828Z</time></trkpt><trkpt lat="45.4596233" lon="10.7719"><ele>121.33333333333334</ele><time>2026-03-28T10:50:53.828Z</time></trkpt><trkpt lat="45.4597883" lon="10.77193"><ele>121.66666666666666</ele><time>2026-03-28T10:50:54.828Z</time></trkpt><trkpt lat="45.4599633" lon="10.7719483"><ele>122.0</ele><time>2026-03-28T10:50:55.828Z</time></trkpt><trkpt lat="45.4601467" lon="10.771935"><ele>122.0</ele><time>2026-03-28T10:50:56.828Z</time></trkpt><trkpt lat="45.460325" lon="10.77193"><ele>122.0</ele><time>2026-03-28T10:50:57.827Z</time></trkpt><trkpt lat="45.4604883" lon="10.771935"><ele>122.0</ele><time>2026-03-28T10:50:58.827Z</time></trkpt><trkpt lat="45.4606517" lon="10.7719417"><ele>122.25</ele><time>2026-03-28T10:50:59.827Z</time></trkpt><trkpt lat="45.4608033" lon="10.7719433"><ele>122.5</ele><time>2026-03-28T10:51:00.827Z</time></trkpt><trkpt lat="45.4609467" lon="10.7719517"><ele>122.75</ele><time>2026-03-28T10:51:01.827Z</time></trkpt><trkpt lat="45.461075" lon="10.7719517"><ele>123.0</ele><time>2026-03-28T10:51:02.827Z</time></trkpt><trkpt lat="45.461155" lon="10.7719733"><ele>123.0</ele><time>2026-03-28T10:51:03.827Z</time></trkpt><trkpt lat="45.46125" lon="10.772"><ele>123.00000000000001</ele><time>2026-03-28T10:51:05.827Z</time></trkpt><trkpt lat="45.4612583" lon="10.772175"><ele>123.00000000000001</ele><time>2026-03-28T10:51:09.828Z</time></trkpt><trkpt lat="45.46126" lon="10.7723017"><ele>123.0</ele><time>2026-03-28T10:51:10.827Z</time></trkpt><trkpt lat="45.4612767" lon="10.7724233"><ele>123.0</ele><time>2026-03-28T10:51:11.827Z</time></trkpt><trkpt lat="45.4612883" lon="10.77253"><ele>123.4</ele><time>2026-03-28T10:51:12.827Z</time></trkpt><trkpt lat="45.4613767" lon="10.77262"><ele>123.80000000000001</ele><time>2026-03-28T10:51:14.827Z</time></trkpt><trkpt lat="45.4614617" lon="10.7726267"><ele>124.2</ele><time>2026-03-28T10:51:15.827Z</time></trkpt><trkpt lat="45.4615633" lon="10.772615"><ele>124.6</ele><time>2026-03-28T10:51:16.828Z</time></trkpt><trkpt lat="45.461685" lon="10.7726083"><ele>125.0</ele><time>2026-03-28T10:51:17.828Z</time></trkpt><trkpt lat="45.46182" lon="10.7726017"><ele>125.0</ele><time>2026-03-28T10:51:18.828Z</time></trkpt><trkpt lat="45.461965" lon="10.7725867"><ele>125.0</ele><time>2026-03-28T10:51:19.827Z</time></trkpt><trkpt lat="45.462135" lon="10.7725567"><ele>125.0</ele><time>2026-03-28T10:51:20.828Z</time></trkpt><trkpt lat="45.4623183" lon="10.7725183"><ele>125.66666666666666</ele><time>2026-03-28T10:51:21.827Z</time></trkpt><trkpt lat="45.4625017" lon="10.7724717"><ele>126.33333333333334</ele><time>2026-03-28T10:51:22.827Z</time></trkpt><trkpt lat="45.462675" lon="10.7724233"><ele>127.0</ele><time>2026-03-28T10:51:23.828Z</time></trkpt><trkpt lat="45.4628367" lon="10.7723733"><ele>128.0</ele><time>2026-03-28T10:51:24.828Z</time></trkpt><trkpt lat="45.4629783" lon="10.77236"><ele>129.0</ele><time>2026-03-28T10:51:25.828Z</time></trkpt><trkpt lat="45.4631183" lon="10.7723683"><ele>130.0</ele><time>2026-03-28T10:51:26.827Z</time></trkpt><trkpt lat="45.463255" lon="10.7723933"><ele>131.0</ele><time>2026-03-28T10:51:27.828Z</time></trkpt><trkpt lat="45.4633917" lon="10.7724233"><ele>131.0</ele><time>2026-03-28T10:51:28.827Z</time></trkpt><trkpt lat="45.4635283" lon="10.7724583"><ele>131.0</ele><time>2026-03-28T10:51:29.827Z</time></trkpt><trkpt lat="45.46367" lon="10.7725067"><ele>131.0</ele><time>2026-03-28T10:51:30.828Z</time></trkpt><trkpt lat="45.4638167" lon="10.77258"><ele>131.0</ele><time>2026-03-28T10:51:31.828Z</time></trkpt><trkpt lat="45.4639617" lon="10.77267"><ele>132.2</ele><time>2026-03-28T10:51:32.827Z</time></trkpt><trkpt lat="45.4640917" lon="10.7727483"><ele>133.39999999999998</ele><time>2026-03-28T10:51:33.827Z</time></trkpt><trkpt lat="45.464185" lon="10.7728433"><ele>134.6</ele><time>2026-03-28T10:51:34.828Z</time></trkpt><trkpt lat="45.46426" lon="10.7729433"><ele>135.79999999999998</ele><time>2026-03-28T10:51:35.827Z</time></trkpt><trkpt lat="45.464295" lon="10.7730367"><ele>137.0</ele><time>2026-03-28T10:51:36.828Z</time></trkpt><trkpt lat="45.4643283" lon="10.7731183"><ele>137.0</ele><time>2026-03-28T10:51:37.828Z</time></trkpt><trkpt lat="45.46432" lon="10.77326"><ele>137.0</ele><time>2026-03-28T10:51:39.828Z</time></trkpt><trkpt lat="45.464285" lon="10.773345"><ele>137.0</ele><time>2026-03-28T10:51:40.827Z</time></trkpt><trkpt lat="45.4642317" lon="10.7734483"><ele>137.0</ele><time>2026-03-28T10:51:41.828Z</time></trkpt><trkpt lat="45.464175" lon="10.7735767"><ele>137.0</ele><time>2026-03-28T10:51:42.827Z</time></trkpt><trkpt lat="45.4641017" lon="10.7737383"><ele>138.0</ele><time>2026-03-28T10:51:43.827Z</time></trkpt><trkpt lat="45.4640217" lon="10.7739117"><ele>139.0</ele><time>2026-03-28T10:51:44.828Z</time></trkpt><trkpt lat="45.4639483" lon="10.77408"><ele>140.0</ele><time>2026-03-28T10:51:45.828Z</time></trkpt><trkpt lat="45.4638933" lon="10.7742183"><ele>141.0</ele><time>2026-03-28T10:51:46.828Z</time></trkpt><trkpt lat="45.4638617" lon="10.7743233"><ele>141.25</ele><time>2026-03-28T10:51:47.828Z</time></trkpt><trkpt lat="45.463865" lon="10.7744683"><ele>141.5</ele><time>2026-03-28T10:51:49.828Z</time></trkpt><trkpt lat="45.4639733" lon="10.7746117"><ele>141.75</ele><time>2026-03-28T10:51:51.828Z</time></trkpt><trkpt lat="45.4640667" lon="10.7747"><ele>142.0</ele><time>2026-03-28T10:51:52.828Z</time></trkpt><trkpt lat="45.4641733" lon="10.77481"><ele>142.0</ele><time>2026-03-28T10:51:53.828Z</time></trkpt><trkpt lat="45.4642817" lon="10.77494"><ele>142.0</ele><time>2026-03-28T10:51:54.828Z</time></trkpt><trkpt lat="45.4643983" lon="10.7750817"><ele>142.0</ele><time>2026-03-28T10:51:55.827Z</time></trkpt><trkpt lat="45.4645133" lon="10.7752017"><ele>142.0</ele><time>2026-03-28T10:51:56.827Z</time></trkpt><trkpt lat="45.4646067" lon="10.7753067"><ele>143.75</ele><time>2026-03-28T10:51:57.828Z</time></trkpt><trkpt lat="45.464705" lon="10.7753967"><ele>145.5</ele><time>2026-03-28T10:51:58.827Z</time></trkpt><trkpt lat="45.4648083" lon="10.7754883"><ele>147.25</ele><time>2026-03-28T10:51:59.827Z</time></trkpt><trkpt lat="45.4649167" lon="10.7755733"><ele>149.0</ele><time>2026-03-28T10:52:00.828Z</time></trkpt><trkpt lat="45.4650233" lon="10.7756617"><ele>149.0</ele><time>2026-03-28T10:52:01.828Z</time></trkpt><trkpt lat="45.4651283" lon="10.77576"><ele>149.0</ele><time>2026-03-28T10:52:02.827Z</time></trkpt><trkpt lat="45.4652367" lon="10.7758633"><ele>149.0</ele><time>2026-03-28T10:52:03.827Z</time></trkpt><trkpt lat="45.46534" lon="10.775955"><ele>149.0</ele><time>2026-03-28T10:52:04.827Z</time></trkpt><trkpt lat="45.4654417" lon="10.776035"><ele>149.4</ele><time>2026-03-28T10:52:05.827Z</time></trkpt><trkpt lat="45.4655383" lon="10.77611"><ele>149.8</ele><time>2026-03-28T10:52:06.827Z</time></trkpt><trkpt lat="45.4656483" lon="10.776185"><ele>150.2</ele><time>2026-03-28T10:52:07.827Z</time></trkpt><trkpt lat="45.4657417" lon="10.7762467"><ele>150.6</ele><time>2026-03-28T10:52:08.828Z</time></trkpt><trkpt lat="45.4658433" lon="10.77628"><ele>151.0</ele><time>2026-03-28T10:52:09.827Z</time></trkpt><trkpt lat="45.4659417" lon="10.7763017"><ele>151.0</ele><time>2026-03-28T10:52:10.827Z</time></trkpt><trkpt lat="45.466055" lon="10.7763317"><ele>151.0</ele><time>2026-03-28T10:52:11.827Z</time></trkpt><trkpt lat="45.466165" lon="10.7763833"><ele>151.0</ele><time>2026-03-28T10:52:12.828Z</time></trkpt><trkpt lat="45.4662767" lon="10.7764583"><ele>151.0</ele><time>2026-03-28T10:52:13.828Z</time></trkpt><trkpt lat="45.466395" lon="10.776545"><ele>152.0</ele><time>2026-03-28T10:52:14.828Z</time></trkpt><trkpt lat="45.4665367" lon="10.7766167"><ele>153.0</ele><time>2026-03-28T10:52:15.827Z</time></trkpt><trkpt lat="45.4666833" lon="10.77669"><ele>154.0</ele><time>2026-03-28T10:52:16.827Z</time></trkpt><trkpt lat="45.4668333" lon="10.7767683"><ele>154.0</ele><time>2026-03-28T10:52:17.828Z</time></trkpt><trkpt lat="45.466985" lon="10.7768483"><ele>154.0</ele><time>2026-03-28T10:52:18.827Z</time></trkpt><trkpt lat="45.4671283" lon="10.776925"><ele>154.0</ele><time>2026-03-28T10:52:19.827Z</time></trkpt><trkpt lat="45.4672667" lon="10.77699"><ele>155.0</ele><time>2026-03-28T10:52:20.827Z</time></trkpt><trkpt lat="45.4673933" lon="10.777055"><ele>156.0</ele><time>2026-03-28T10:52:21.828Z</time></trkpt><trkpt lat="45.467505" lon="10.7771117"><ele>157.0</ele><time>2026-03-28T10:52:22.827Z</time></trkpt><trkpt lat="45.467605" lon="10.7771767"><ele>158.0</ele><time>2026-03-28T10:52:23.827Z</time></trkpt><trkpt lat="45.467695" lon="10.777225"><ele>158.0</ele><time>2026-03-28T10:52:24.827Z</time></trkpt><trkpt lat="45.4677817" lon="10.7772683"><ele>158.0</ele><time>2026-03-28T10:52:25.828Z</time></trkpt><trkpt lat="45.4678583" lon="10.77732"><ele>158.0</ele><time>2026-03-28T10:52:26.827Z</time></trkpt><trkpt lat="45.4679367" lon="10.7773683"><ele>158.0</ele><time>2026-03-28T10:52:27.827Z</time></trkpt><trkpt lat="45.4680367" lon="10.7774267"><ele>158.0</ele><time>2026-03-28T10:52:28.827Z</time></trkpt><trkpt lat="45.468155" lon="10.7774883"><ele>157.33333333333331</ele><time>2026-03-28T10:52:29.827Z</time></trkpt><trkpt lat="45.46829" lon="10.7775517"><ele>156.66666666666666</ele><time>2026-03-28T10:52:30.827Z</time></trkpt><trkpt lat="45.4684417" lon="10.7776383"><ele>156.0</ele><time>2026-03-28T10:52:31.828Z</time></trkpt><trkpt lat="45.4685933" lon="10.7777267"><ele>155.5</ele><time>2026-03-28T10:52:32.827Z</time></trkpt><trkpt lat="45.4687367" lon="10.777815"><ele>155.0</ele><time>2026-03-28T10:52:33.827Z</time></trkpt><trkpt lat="45.4688583" lon="10.7779067"><ele>154.5</ele><time>2026-03-28T10:52:34.828Z</time></trkpt><trkpt lat="45.4689667" lon="10.7779833"><ele>154.0</ele><time>2026-03-28T10:52:35.827Z</time></trkpt><trkpt lat="45.4690617" lon="10.778035"><ele>154.0</ele><time>2026-03-28T10:52:36.828Z</time></trkpt><trkpt lat="45.46914" lon="10.7780767"><ele>154.0</ele><time>2026-03-28T10:52:37.828Z</time></trkpt><trkpt lat="45.4692033" lon="10.7781067"><ele>154.0</ele><time>2026-03-28T10:52:38.827Z</time></trkpt><trkpt lat="45.4692883" lon="10.778165"><ele>154.0</ele><time>2026-03-28T10:52:40.827Z</time></trkpt><trkpt lat="45.46924" lon="10.7782983"><ele>154.0</ele><time>2026-03-28T10:52:42.828Z</time></trkpt><trkpt lat="45.4691917" lon="10.7783883"><ele>154.0</ele><time>2026-03-28T10:52:43.827Z</time></trkpt><trkpt lat="45.4691283" lon="10.7784917"><ele>154.0</ele><time>2026-03-28T10:52:44.828Z</time></trkpt><trkpt lat="45.4690483" lon="10.7786117"><ele>154.0</ele><time>2026-03-28T10:52:45.827Z</time></trkpt><trkpt lat="45.4689383" lon="10.7787583"><ele>154.0</ele><time>2026-03-28T10:52:46.828Z</time></trkpt><trkpt lat="45.46882" lon="10.77893"><ele>154.0</ele><time>2026-03-28T10:52:47.827Z</time></trkpt><trkpt lat="45.4686833" lon="10.7791283"><ele>153.33333333333334</ele><time>2026-03-28T10:52:48.827Z</time></trkpt><trkpt lat="45.4685367" lon="10.7793283"><ele>152.66666666666666</ele><time>2026-03-28T10:52:49.826Z</time></trkpt><trkpt lat="45.4684033" lon="10.779515"><ele>152.0</ele><time>2026-03-28T10:52:50.827Z</time></trkpt><trkpt lat="45.468265" lon="10.779675"><ele>152.0</ele><time>2026-03-28T10:52:51.826Z</time></trkpt><trkpt lat="45.468135" lon="10.779815"><ele>152.0</ele><time>2026-03-28T10:52:52.826Z</time></trkpt><trkpt lat="45.4680133" lon="10.77991"><ele>152.0</ele><time>2026-03-28T10:52:53.827Z</time></trkpt><trkpt lat="45.4678917" lon="10.7799967"><ele>152.0</ele><time>2026-03-28T10:52:54.826Z</time></trkpt><trkpt lat="45.4677733" lon="10.7800833"><ele>153.5</ele><time>2026-03-28T10:52:55.826Z</time></trkpt><trkpt lat="45.4676567" lon="10.7802133"><ele>155.0</ele><time>2026-03-28T10:52:56.826Z</time></trkpt><trkpt lat="45.4675667" lon="10.7803567"><ele>156.5</ele><time>2026-03-28T10:52:57.826Z</time></trkpt><trkpt lat="45.467495" lon="10.7804883"><ele>158.0</ele><time>2026-03-28T10:52:58.827Z</time></trkpt><trkpt lat="45.4674333" lon="10.7806183"><ele>158.0</ele><time>2026-03-28T10:52:59.826Z</time></trkpt><trkpt lat="45.467375" lon="10.7807533"><ele>158.0</ele><time>2026-03-28T10:53:00.827Z</time></trkpt><trkpt lat="45.46731" lon="10.78088"><ele>158.0</ele><time>2026-03-28T10:53:01.826Z</time></trkpt><trkpt lat="45.4672517" lon="10.781"><ele>158.0</ele><time>2026-03-28T10:53:02.826Z</time></trkpt><trkpt lat="45.467185" lon="10.781125"><ele>158.0</ele><time>2026-03-28T10:53:03.826Z</time></trkpt><trkpt lat="45.4671033" lon="10.781245"><ele>157.0</ele><time>2026-03-28T10:53:04.826Z</time></trkpt><trkpt lat="45.467035" lon="10.78138"><ele>156.0</ele><time>2026-03-28T10:53:05.827Z</time></trkpt><trkpt lat="45.46697" lon="10.7815567"><ele>155.0</ele><time>2026-03-28T10:53:06.826Z</time></trkpt><trkpt lat="45.4669133" lon="10.7817683"><ele>154.0</ele><time>2026-03-28T10:53:07.826Z</time></trkpt><trkpt lat="45.4668633" lon="10.78202"><ele>154.0</ele><time>2026-03-28T10:53:08.826Z</time></trkpt><trkpt lat="45.4668367" lon="10.7822667"><ele>154.0</ele><time>2026-03-28T10:53:09.827Z</time></trkpt><trkpt lat="45.466795" lon="10.7825033"><ele>154.0</ele><time>2026-03-28T10:53:10.827Z</time></trkpt><trkpt lat="45.46675" lon="10.78274"><ele>153.66666666666669</ele><time>2026-03-28T10:53:11.826Z</time></trkpt><trkpt lat="45.4667167" lon="10.7829883"><ele>153.33333333333334</ele><time>2026-03-28T10:53:12.826Z</time></trkpt><trkpt lat="45.4666733" lon="10.7832367"><ele>153.0</ele><time>2026-03-28T10:53:13.827Z</time></trkpt><trkpt lat="45.4666183" lon="10.78348"><ele>152.66666666666666</ele><time>2026-03-28T10:53:14.826Z</time></trkpt><trkpt lat="45.4665767" lon="10.7837167"><ele>152.33333333333331</ele><time>2026-03-28T10:53:15.826Z</time></trkpt><trkpt lat="45.4665533" lon="10.7839483"><ele>152.0</ele><time>2026-03-28T10:53:16.827Z</time></trkpt><trkpt lat="45.4665417" lon="10.784155"><ele>152.0</ele><time>2026-03-28T10:53:17.826Z</time></trkpt><trkpt lat="45.466535" lon="10.784335"><ele>152.0</ele><time>2026-03-28T10:53:18.826Z</time></trkpt><trkpt lat="45.4665333" lon="10.784475"><ele>152.0</ele><time>2026-03-28T10:53:19.827Z</time></trkpt><trkpt lat="45.466535" lon="10.7845683"><ele>152.0</ele><time>2026-03-28T10:53:20.826Z</time></trkpt><trkpt lat="45.4665783" lon="10.7846533"><ele>152.0</ele><time>2026-03-28T10:53:22.827Z</time></trkpt><trkpt lat="45.4666467" lon="10.7846383"><ele>152.0</ele><time>2026-03-28T10:53:23.827Z</time></trkpt><trkpt lat="45.46672" lon="10.784615"><ele>152.5</ele><time>2026-03-28T10:53:24.826Z</time></trkpt><trkpt lat="45.466805" lon="10.784595"><ele>153.0</ele><time>2026-03-28T10:53:25.826Z</time></trkpt><trkpt lat="45.4668883" lon="10.78459"><ele>153.5</ele><time>2026-03-28T10:53:26.826Z</time></trkpt><trkpt lat="45.46697" lon="10.7846167"><ele>154.0</ele><time>2026-03-28T10:53:27.827Z</time></trkpt><trkpt lat="45.4670467" lon="10.784665"><ele>154.5</ele><time>2026-03-28T10:53:28.827Z</time></trkpt><trkpt lat="45.4671333" lon="10.7847033"><ele>155.0</ele><time>2026-03-28T10:53:29.827Z</time></trkpt><trkpt lat="45.4672133" lon="10.7847017"><ele>155.0</ele><time>2026-03-28T10:53:30.826Z</time></trkpt><trkpt lat="45.4672917" lon="10.7846417"><ele>155.0</ele><time>2026-03-28T10:53:31.826Z</time></trkpt><trkpt lat="45.4673833" lon="10.7845667"><ele>155.0</ele><time>2026-03-28T10:53:32.826Z</time></trkpt><trkpt lat="45.4674983" lon="10.7844833"><ele>155.0</ele><time>2026-03-28T10:53:33.826Z</time></trkpt><trkpt lat="45.4676367" lon="10.7844317"><ele>155.0</ele><time>2026-03-28T10:53:34.826Z</time></trkpt><trkpt lat="45.4677867" lon="10.7844083"><ele>155.0</ele><time>2026-03-28T10:53:35.826Z</time></trkpt><trkpt lat="45.46793" lon="10.7844117"><ele>155.0</ele><time>2026-03-28T10:53:36.827Z</time></trkpt><trkpt lat="45.468075" lon="10.7843967"><ele>155.0</ele><time>2026-03-28T10:53:37.826Z</time></trkpt><trkpt lat="45.4682067" lon="10.784375"><ele>154.6</ele><time>2026-03-28T10:53:38.826Z</time></trkpt><trkpt lat="45.4683283" lon="10.7843383"><ele>154.2</ele><time>2026-03-28T10:53:39.826Z</time></trkpt><trkpt lat="45.4684367" lon="10.78429"><ele>153.8</ele><time>2026-03-28T10:53:40.827Z</time></trkpt><trkpt lat="45.468525" lon="10.7842283"><ele>153.4</ele><time>2026-03-28T10:53:41.827Z</time></trkpt><trkpt lat="45.4685967" lon="10.7841667"><ele>153.0</ele><time>2026-03-28T10:53:42.826Z</time></trkpt><trkpt lat="45.46866" lon="10.7841033"><ele>153.0</ele><time>2026-03-28T10:53:43.827Z</time></trkpt><trkpt lat="45.468725" lon="10.7840583"><ele>153.0</ele><time>2026-03-28T10:53:44.826Z</time></trkpt><trkpt lat="45.468795" lon="10.78402"><ele>153.0</ele><time>2026-03-28T10:53:45.826Z</time></trkpt><trkpt lat="45.4688767" lon="10.7839817"><ele>153.0</ele><time>2026-03-28T10:53:46.827Z</time></trkpt><trkpt lat="45.4689583" lon="10.7839533"><ele>153.0</ele><time>2026-03-28T10:53:47.827Z</time></trkpt><trkpt lat="45.4690367" lon="10.783925"><ele>153.0</ele><time>2026-03-28T10:53:48.826Z</time></trkpt><trkpt lat="45.4691117" lon="10.7838967"><ele>152.33333333333334</ele><time>2026-03-28T10:53:49.827Z</time></trkpt><trkpt lat="45.469185" lon="10.7838667"><ele>151.66666666666666</ele><time>2026-03-28T10:53:50.826Z</time></trkpt><trkpt lat="45.4692633" lon="10.7838383"><ele>151.0</ele><time>2026-03-28T10:53:51.826Z</time></trkpt><trkpt lat="45.469345" lon="10.7838067"><ele>150.33333333333331</ele><time>2026-03-28T10:53:52.826Z</time></trkpt><trkpt lat="45.469415" lon="10.7837817"><ele>149.66666666666666</ele><time>2026-03-28T10:53:53.826Z</time></trkpt><trkpt lat="45.4694917" lon="10.7837667"><ele>149.0</ele><time>2026-03-28T10:53:54.826Z</time></trkpt><trkpt lat="45.4695783" lon="10.7837533"><ele>148.5</ele><time>2026-03-28T10:53:55.827Z</time></trkpt><trkpt lat="45.46966" lon="10.7837433"><ele>148.0</ele><time>2026-03-28T10:53:56.826Z</time></trkpt><trkpt lat="45.4697433" lon="10.7837283"><ele>147.5</ele><time>2026-03-28T10:53:57.827Z</time></trkpt><trkpt lat="45.4698233" lon="10.7837133"><ele>147.0</ele><time>2026-03-28T10:53:58.827Z</time></trkpt><trkpt lat="45.46989" lon="10.7837217"><ele>146.5</ele><time>2026-03-28T10:53:59.827Z</time></trkpt><trkpt lat="45.4699617" lon="10.7837367"><ele>146.0</ele><time>2026-03-28T10:54:00.827Z</time></trkpt><trkpt lat="45.4700417" lon="10.7837467"><ele>146.0</ele><time>2026-03-28T10:54:01.827Z</time></trkpt><trkpt lat="45.4701217" lon="10.7837583"><ele>146.0</ele><time>2026-03-28T10:54:02.826Z</time></trkpt><trkpt lat="45.470205" lon="10.783775"><ele>146.0</ele><time>2026-03-28T10:54:03.826Z</time></trkpt><trkpt lat="45.470285" lon="10.7838"><ele>146.0</ele><time>2026-03-28T10:54:04.826Z</time></trkpt><trkpt lat="45.4703683" lon="10.783825"><ele>146.0</ele><time>2026-03-28T10:54:05.827Z</time></trkpt><trkpt lat="45.47045" lon="10.7838467"><ele>146.0</ele><time>2026-03-28T10:54:06.826Z</time></trkpt><trkpt lat="45.47052" lon="10.7838567"><ele>145.57142857142856</ele><time>2026-03-28T10:54:07.827Z</time></trkpt><trkpt lat="45.4705883" lon="10.7838717"><ele>145.14285714285714</ele><time>2026-03-28T10:54:08.826Z</time></trkpt><trkpt lat="45.4707017" lon="10.7838633"><ele>144.71428571428572</ele><time>2026-03-28T10:54:10.826Z</time></trkpt><trkpt lat="45.4707667" lon="10.7838617"><ele>144.28571428571428</ele><time>2026-03-28T10:54:11.826Z</time></trkpt><trkpt lat="45.4708317" lon="10.7838533"><ele>143.85714285714286</ele><time>2026-03-28T10:54:12.827Z</time></trkpt><trkpt lat="45.4708967" lon="10.783835"><ele>143.42857142857142</ele><time>2026-03-28T10:54:13.827Z</time></trkpt><trkpt lat="45.4709633" lon="10.7838217"><ele>143.0</ele><time>2026-03-28T10:54:14.827Z</time></trkpt><trkpt lat="45.4710317" lon="10.7838083"><ele>143.0</ele><time>2026-03-28T10:54:15.827Z</time></trkpt><trkpt lat="45.471105" lon="10.78379"><ele>143.0</ele><time>2026-03-28T10:54:16.826Z</time></trkpt><trkpt lat="45.4711833" lon="10.7837617"><ele>143.0</ele><time>2026-03-28T10:54:17.827Z</time></trkpt><trkpt lat="45.471265" lon="10.783745"><ele>143.0</ele><time>2026-03-28T10:54:18.826Z</time></trkpt><trkpt lat="45.4713367" lon="10.7837233"><ele>143.0</ele><time>2026-03-28T10:54:19.827Z</time></trkpt><trkpt lat="45.4714167" lon="10.783695"><ele>143.0</ele><time>2026-03-28T10:54:20.826Z</time></trkpt><trkpt lat="45.4715017" lon="10.783675"><ele>142.4</ele><time>2026-03-28T10:54:21.827Z</time></trkpt><trkpt lat="45.4715933" lon="10.7836567"><ele>141.8</ele><time>2026-03-28T10:54:22.826Z</time></trkpt><trkpt lat="45.4716967" lon="10.7836217"><ele>141.2</ele><time>2026-03-28T10:54:23.826Z</time></trkpt><trkpt lat="45.4718067" lon="10.783605"><ele>140.6</ele><time>2026-03-28T10:54:24.826Z</time></trkpt><trkpt lat="45.4719367" lon="10.783575"><ele>140.0</ele><time>2026-03-28T10:54:25.826Z</time></trkpt><trkpt lat="45.47207" lon="10.78354"><ele>139.66666666666666</ele><time>2026-03-28T10:54:26.826Z</time></trkpt><trkpt lat="45.47222" lon="10.7834883"><ele>139.33333333333334</ele><time>2026-03-28T10:54:27.826Z</time></trkpt><trkpt lat="45.47238" lon="10.783445"><ele>139.0</ele><time>2026-03-28T10:54:28.826Z</time></trkpt><trkpt lat="45.47255" lon="10.7834083"><ele>139.0</ele><time>2026-03-28T10:54:29.827Z</time></trkpt><trkpt lat="45.47271" lon="10.7833917"><ele>139.0</ele><time>2026-03-28T10:54:30.826Z</time></trkpt><trkpt lat="45.4728683" lon="10.7833717"><ele>139.0</ele><time>2026-03-28T10:54:31.827Z</time></trkpt><trkpt lat="45.4730183" lon="10.7833633"><ele>139.0</ele><time>2026-03-28T10:54:32.827Z</time></trkpt><trkpt lat="45.47314" lon="10.7833567"><ele>139.0</ele><time>2026-03-28T10:54:33.826Z</time></trkpt><trkpt lat="45.4732333" lon="10.7833567"><ele>139.0</ele><time>2026-03-28T10:54:34.827Z</time></trkpt><trkpt lat="45.4733017" lon="10.78336"><ele>139.0</ele><time>2026-03-28T10:54:35.827Z</time></trkpt><trkpt lat="45.47338" lon="10.7833683"><ele>139.0</ele><time>2026-03-28T10:54:37.826Z</time></trkpt><trkpt lat="45.4734483" lon="10.7833917"><ele>139.0</ele><time>2026-03-28T10:54:39.826Z</time></trkpt><trkpt lat="45.47361" lon="10.7834217"><ele>139.0</ele><time>2026-03-28T10:54:41.827Z</time></trkpt><trkpt lat="45.47372" lon="10.7834333"><ele>139.0</ele><time>2026-03-28T10:54:42.826Z</time></trkpt><trkpt lat="45.473845" lon="10.7834133"><ele>139.0</ele><time>2026-03-28T10:54:43.826Z</time></trkpt><trkpt lat="45.4739767" lon="10.7833633"><ele>139.0</ele><time>2026-03-28T10:54:44.826Z</time></trkpt><trkpt lat="45.4741067" lon="10.783305"><ele>139.25</ele><time>2026-03-28T10:54:45.827Z</time></trkpt><trkpt lat="45.47423" lon="10.7832467"><ele>139.5</ele><time>2026-03-28T10:54:46.826Z</time></trkpt><trkpt lat="45.4743567" lon="10.7831983"><ele>139.75</ele><time>2026-03-28T10:54:47.827Z</time></trkpt><trkpt lat="45.47449" lon="10.783145"><ele>140.0</ele><time>2026-03-28T10:54:48.827Z</time></trkpt><trkpt lat="45.4746367" lon="10.7830833"><ele>140.0</ele><time>2026-03-28T10:54:49.827Z</time></trkpt><trkpt lat="45.47478" lon="10.7830167"><ele>140.0</ele><time>2026-03-28T10:54:50.826Z</time></trkpt><trkpt lat="45.4749333" lon="10.7829283"><ele>140.0</ele><time>2026-03-28T10:54:51.827Z</time></trkpt><trkpt lat="45.4750783" lon="10.7828167"><ele>140.0</ele><time>2026-03-28T10:54:52.827Z</time></trkpt><trkpt lat="45.4752133" lon="10.7826883"><ele>140.0</ele><time>2026-03-28T10:54:53.826Z</time></trkpt><trkpt lat="45.4753483" lon="10.782565"><ele>140.0</ele><time>2026-03-28T10:54:54.826Z</time></trkpt><trkpt lat="45.4754717" lon="10.7824617"><ele>139.5</ele><time>2026-03-28T10:54:55.827Z</time></trkpt><trkpt lat="45.4755867" lon="10.7823567"><ele>139.0</ele><time>2026-03-28T10:54:56.826Z</time></trkpt><trkpt lat="45.475695" lon="10.7822433"><ele>138.5</ele><time>2026-03-28T10:54:57.826Z</time></trkpt><trkpt lat="45.4757917" lon="10.7821333"><ele>138.0</ele><time>2026-03-28T10:54:58.826Z</time></trkpt><trkpt lat="45.4758883" lon="10.7820017"><ele>138.0</ele><time>2026-03-28T10:54:59.827Z</time></trkpt><trkpt lat="45.4759833" lon="10.78185"><ele>138.0</ele><time>2026-03-28T10:55:00.826Z</time></trkpt><trkpt lat="45.4760683" lon="10.7816967"><ele>138.0</ele><time>2026-03-28T10:55:01.827Z</time></trkpt><trkpt lat="45.4761533" lon="10.78156"><ele>138.0</ele><time>2026-03-28T10:55:02.827Z</time></trkpt><trkpt lat="45.47624" lon="10.7814383"><ele>137.0</ele><time>2026-03-28T10:55:03.826Z</time></trkpt><trkpt lat="45.476335" lon="10.7813483"><ele>136.0</ele><time>2026-03-28T10:55:04.827Z</time></trkpt><trkpt lat="45.4764567" lon="10.781265"><ele>135.0</ele><time>2026-03-28T10:55:05.826Z</time></trkpt><trkpt lat="45.4765633" lon="10.781195"><ele>134.0</ele><time>2026-03-28T10:55:06.827Z</time></trkpt><trkpt lat="45.4766833" lon="10.7811083"><ele>134.0</ele><time>2026-03-28T10:55:07.826Z</time></trkpt><trkpt lat="45.476775" lon="10.78105"><ele>134.0</ele><time>2026-03-28T10:55:08.827Z</time></trkpt><trkpt lat="45.47685" lon="10.7810017"><ele>134.0</ele><time>2026-03-28T10:55:09.826Z</time></trkpt><trkpt lat="45.4769133" lon="10.7809583"><ele>134.0</ele><time>2026-03-28T10:55:11.826Z</time></trkpt><trkpt lat="45.4769133" lon="10.7808317"><ele>134.0</ele><time>2026-03-28T10:55:16.826Z</time></trkpt><trkpt lat="45.4768983" lon="10.7806917"><ele>134.0</ele><time>2026-03-28T10:55:17.827Z</time></trkpt><trkpt lat="45.4768817" lon="10.7805283"><ele>134.66666666666666</ele><time>2026-03-28T10:55:18.827Z</time></trkpt><trkpt lat="45.4768683" lon="10.7803267"><ele>135.33333333333334</ele><time>2026-03-28T10:55:19.826Z</time></trkpt><trkpt lat="45.4768617" lon="10.7800983"><ele>136.0</ele><time>2026-03-28T10:55:20.827Z</time></trkpt><trkpt lat="45.476855" lon="10.7798467"><ele>136.66666666666669</ele><time>2026-03-28T10:55:21.826Z</time></trkpt><trkpt lat="45.4768567" lon="10.7795833"><ele>137.33333333333334</ele><time>2026-03-28T10:55:22.827Z</time></trkpt><trkpt lat="45.4768517" lon="10.779315"><ele>138.0</ele><time>2026-03-28T10:55:23.827Z</time></trkpt><trkpt lat="45.476845" lon="10.7790417"><ele>138.33333333333334</ele><time>2026-03-28T10:55:24.826Z</time></trkpt><trkpt lat="45.4768483" lon="10.7787417"><ele>138.66666666666669</ele><time>2026-03-28T10:55:25.827Z</time></trkpt><trkpt lat="45.476855" lon="10.7784617"><ele>139.0</ele><time>2026-03-28T10:55:26.826Z</time></trkpt><trkpt lat="45.4768467" lon="10.7782033"><ele>138.0</ele><time>2026-03-28T10:55:27.826Z</time></trkpt><trkpt lat="45.47684" lon="10.7779617"><ele>137.0</ele><time>2026-03-28T10:55:28.826Z</time></trkpt><trkpt lat="45.4768367" lon="10.777735"><ele>136.0</ele><time>2026-03-28T10:55:29.827Z</time></trkpt><trkpt lat="45.47683" lon="10.777545"><ele>135.8</ele><time>2026-03-28T10:55:30.827Z</time></trkpt><trkpt lat="45.47682" lon="10.777395"><ele>135.6</ele><time>2026-03-28T10:55:31.827Z</time></trkpt><trkpt lat="45.4768217" lon="10.77727"><ele>135.4</ele><time>2026-03-28T10:55:32.827Z</time></trkpt><trkpt lat="45.4768467" lon="10.777185"><ele>135.2</ele><time>2026-03-28T10:55:33.827Z</time></trkpt><trkpt lat="45.4769233" lon="10.777055"><ele>135.0</ele><time>2026-03-28T10:55:35.827Z</time></trkpt><trkpt lat="45.4770033" lon="10.777015"><ele>134.75</ele><time>2026-03-28T10:55:36.826Z</time></trkpt><trkpt lat="45.47712" lon="10.7769733"><ele>134.5</ele><time>2026-03-28T10:55:37.827Z</time></trkpt><trkpt lat="45.4772567" lon="10.77693"><ele>134.25</ele><time>2026-03-28T10:55:38.826Z</time></trkpt><trkpt lat="45.477385" lon="10.7768867"><ele>134.0</ele><time>2026-03-28T10:55:39.826Z</time></trkpt><trkpt lat="45.4775283" lon="10.7768283"><ele>133.75</ele><time>2026-03-28T10:55:40.827Z</time></trkpt><trkpt lat="45.477655" lon="10.7767817"><ele>133.5</ele><time>2026-03-28T10:55:41.826Z</time></trkpt><trkpt lat="45.4777717" lon="10.7767283"><ele>133.25</ele><time>2026-03-28T10:55:42.826Z</time></trkpt><trkpt lat="45.4778867" lon="10.77672"><ele>133.0</ele><time>2026-03-28T10:55:43.827Z</time></trkpt><trkpt lat="45.478005" lon="10.7767333"><ele>134.6</ele><time>2026-03-28T10:55:44.826Z</time></trkpt><trkpt lat="45.4781117" lon="10.7767667"><ele>136.20000000000002</ele><time>2026-03-28T10:55:45.826Z</time></trkpt><trkpt lat="45.4782233" lon="10.7767817"><ele>137.8</ele><time>2026-03-28T10:55:46.826Z</time></trkpt><trkpt lat="45.47833" lon="10.7767717"><ele>139.4</ele><time>2026-03-28T10:55:47.826Z</time></trkpt><trkpt lat="45.47844" lon="10.7767433"><ele>141.0</ele><time>2026-03-28T10:55:48.827Z</time></trkpt><trkpt lat="45.4785217" lon="10.7767033"><ele>141.0</ele><time>2026-03-28T10:55:49.826Z</time></trkpt><trkpt lat="45.4785967" lon="10.77666"><ele>141.0</ele><time>2026-03-28T10:55:50.826Z</time></trkpt><trkpt lat="45.478665" lon="10.7765717"><ele>141.0</ele><time>2026-03-28T10:55:51.826Z</time></trkpt><trkpt lat="45.4787183" lon="10.77647"><ele>141.0</ele><time>2026-03-28T10:55:52.826Z</time></trkpt><trkpt lat="45.4787317" lon="10.7763333"><ele>141.0</ele><time>2026-03-28T10:55:53.826Z</time></trkpt><trkpt lat="45.4787533" lon="10.7762"><ele>141.0</ele><time>2026-03-28T10:55:54.827Z</time></trkpt><trkpt lat="45.47875" lon="10.7760767"><ele>141.0</ele><time>2026-03-28T10:55:55.827Z</time></trkpt><trkpt lat="45.478765" lon="10.7759767"><ele>141.0</ele><time>2026-03-28T10:55:56.826Z</time></trkpt><trkpt lat="45.47886" lon="10.775915"><ele>141.0</ele><time>2026-03-28T10:55:58.827Z</time></trkpt><trkpt lat="45.4789583" lon="10.7759167"><ele>141.0</ele><time>2026-03-28T10:55:59.826Z</time></trkpt><trkpt lat="45.47909" lon="10.77593"><ele>140.0</ele><time>2026-03-28T10:56:00.826Z</time></trkpt><trkpt lat="45.4792167" lon="10.7759567"><ele>139.0</ele><time>2026-03-28T10:56:01.826Z</time></trkpt><trkpt lat="45.4793267" lon="10.77598"><ele>138.0</ele><time>2026-03-28T10:56:02.826Z</time></trkpt><trkpt lat="45.47942" lon="10.7759917"><ele>137.0</ele><time>2026-03-28T10:56:03.826Z</time></trkpt><trkpt lat="45.4795117" lon="10.7759517"><ele>136.0</ele><time>2026-03-28T10:56:05.827Z</time></trkpt><trkpt lat="45.4795417" lon="10.77587"><ele>136.0</ele><time>2026-03-28T10:56:06.826Z</time></trkpt><trkpt lat="45.4795517" lon="10.7757283"><ele>136.0</ele><time>2026-03-28T10:56:07.826Z</time></trkpt><trkpt lat="45.4795667" lon="10.7755583"><ele>136.0</ele><time>2026-03-28T10:56:08.826Z</time></trkpt><trkpt lat="45.479585" lon="10.7753817"><ele>136.0</ele><time>2026-03-28T10:56:09.826Z</time></trkpt><trkpt lat="45.4796217" lon="10.77523"><ele>135.0</ele><time>2026-03-28T10:56:10.826Z</time></trkpt><trkpt lat="45.4796617" lon="10.775065"><ele>134.0</ele><time>2026-03-28T10:56:11.827Z</time></trkpt><trkpt lat="45.4797133" lon="10.7748917"><ele>133.0</ele><time>2026-03-28T10:56:12.826Z</time></trkpt><trkpt lat="45.4797917" lon="10.7746867"><ele>132.0</ele><time>2026-03-28T10:56:13.827Z</time></trkpt><trkpt lat="45.4798733" lon="10.7744667"><ele>132.33333333333334</ele><time>2026-03-28T10:56:14.826Z</time></trkpt><trkpt lat="45.479945" lon="10.7742433"><ele>132.66666666666669</ele><time>2026-03-28T10:56:15.826Z</time></trkpt><trkpt lat="45.48001" lon="10.77405"><ele>133.0</ele><time>2026-03-28T10:56:16.826Z</time></trkpt><trkpt lat="45.4800683" lon="10.7738817"><ele>133.0</ele><time>2026-03-28T10:56:17.826Z</time></trkpt><trkpt lat="45.480125" lon="10.7737567"><ele>133.0</ele><time>2026-03-28T10:56:18.826Z</time></trkpt><trkpt lat="45.4801717" lon="10.7736517"><ele>133.0</ele><time>2026-03-28T10:56:19.826Z</time></trkpt><trkpt lat="45.4802333" lon="10.7735683"><ele>133.0</ele><time>2026-03-28T10:56:20.827Z</time></trkpt><trkpt lat="45.4803" lon="10.7735183"><ele>133.0</ele><time>2026-03-28T10:56:21.827Z</time></trkpt><trkpt lat="45.4803717" lon="10.7735083"><ele>133.0</ele><time>2026-03-28T10:56:22.827Z</time></trkpt><trkpt lat="45.480455" lon="10.7735267"><ele>133.0</ele><time>2026-03-28T10:56:23.827Z</time></trkpt><trkpt lat="45.48055" lon="10.7735517"><ele>133.0</ele><time>2026-03-28T10:56:24.827Z</time></trkpt><trkpt lat="45.480635" lon="10.773575"><ele>133.0</ele><time>2026-03-28T10:56:25.826Z</time></trkpt><trkpt lat="45.4807017" lon="10.7735767"><ele>133.0</ele><time>2026-03-28T10:56:26.826Z</time></trkpt><trkpt lat="45.4808017" lon="10.7734717"><ele>133.0</ele><time>2026-03-28T10:56:28.826Z</time></trkpt><trkpt lat="45.48083" lon="10.7733417"><ele>133.0</ele><time>2026-03-28T10:56:29.826Z</time></trkpt><trkpt lat="45.4808533" lon="10.77318"><ele>133.0</ele><time>2026-03-28T10:56:30.826Z</time></trkpt><trkpt lat="45.4808733" lon="10.773005"><ele>133.0</ele><time>2026-03-28T10:56:31.826Z</time></trkpt><trkpt lat="45.4808917" lon="10.7728317"><ele>133.0</ele><time>2026-03-28T10:56:32.826Z</time></trkpt><trkpt lat="45.4809267" lon="10.7726933"><ele>133.5</ele><time>2026-03-28T10:56:33.825Z</time></trkpt><trkpt lat="45.480985" lon="10.7725633"><ele>134.0</ele><time>2026-03-28T10:56:34.825Z</time></trkpt><trkpt lat="45.48107" lon="10.7724283"><ele>134.5</ele><time>2026-03-28T10:56:35.826Z</time></trkpt><trkpt lat="45.48118" lon="10.7722983"><ele>135.0</ele><time>2026-03-28T10:56:36.825Z</time></trkpt><trkpt lat="45.4813033" lon="10.7721583"><ele>135.0</ele><time>2026-03-28T10:56:37.825Z</time></trkpt><trkpt lat="45.4814217" lon="10.7720183"><ele>135.0</ele><time>2026-03-28T10:56:38.825Z</time></trkpt><trkpt lat="45.4815167" lon="10.771895"><ele>135.0</ele><time>2026-03-28T10:56:39.825Z</time></trkpt><trkpt lat="45.4815883" lon="10.77179"><ele>135.0</ele><time>2026-03-28T10:56:40.826Z</time></trkpt><trkpt lat="45.481645" lon="10.7717067"><ele>135.0</ele><time>2026-03-28T10:56:41.825Z</time></trkpt><trkpt lat="45.4817117" lon="10.77164"><ele>135.0</ele><time>2026-03-28T10:56:42.826Z</time></trkpt><trkpt lat="45.48178" lon="10.7715617"><ele>135.0</ele><time>2026-03-28T10:56:43.825Z</time></trkpt><trkpt lat="45.4818533" lon="10.7714583"><ele>135.0</ele><time>2026-03-28T10:56:44.826Z</time></trkpt><trkpt lat="45.481935" lon="10.7713317"><ele>135.0</ele><time>2026-03-28T10:56:45.825Z</time></trkpt><trkpt lat="45.4820267" lon="10.7712033"><ele>135.0</ele><time>2026-03-28T10:56:46.825Z</time></trkpt><trkpt lat="45.4821133" lon="10.771075"><ele>135.0</ele><time>2026-03-28T10:56:47.826Z</time></trkpt><trkpt lat="45.4822" lon="10.7709583"><ele>135.0</ele><time>2026-03-28T10:56:48.826Z</time></trkpt><trkpt lat="45.4822917" lon="10.77084"><ele>135.0</ele><time>2026-03-28T10:56:49.826Z</time></trkpt><trkpt lat="45.4823733" lon="10.77072"><ele>135.0</ele><time>2026-03-28T10:56:50.825Z</time></trkpt><trkpt lat="45.4824483" lon="10.77061"><ele>135.0</ele><time>2026-03-28T10:56:51.825Z</time></trkpt><trkpt lat="45.4825233" lon="10.7704917"><ele>135.0</ele><time>2026-03-28T10:56:52.826Z</time></trkpt><trkpt lat="45.482585" lon="10.770415"><ele>135.0</ele><time>2026-03-28T10:56:53.826Z</time></trkpt><trkpt lat="45.4826467" lon="10.7703533"><ele>135.0</ele><time>2026-03-28T10:56:54.826Z</time></trkpt><trkpt lat="45.4827183" lon="10.7703283"><ele>135.0</ele><time>2026-03-28T10:56:55.825Z</time></trkpt><trkpt lat="45.4828083" lon="10.7703217"><ele>135.0</ele><time>2026-03-28T10:56:56.825Z</time></trkpt><trkpt lat="45.4829067" lon="10.7703683"><ele>135.0</ele><time>2026-03-28T10:56:57.826Z</time></trkpt><trkpt lat="45.4830533" lon="10.7704617"><ele>135.0</ele><time>2026-03-28T10:56:58.826Z</time></trkpt><trkpt lat="45.48323" lon="10.7705267"><ele>135.66666666666666</ele><time>2026-03-28T10:56:59.826Z</time></trkpt><trkpt lat="45.483395" lon="10.7706"><ele>136.33333333333331</ele><time>2026-03-28T10:57:00.826Z</time></trkpt><trkpt lat="45.4835617" lon="10.77064"><ele>137.0</ele><time>2026-03-28T10:57:01.826Z</time></trkpt><trkpt lat="45.4837283" lon="10.7706633"><ele>137.5</ele><time>2026-03-28T10:57:02.826Z</time></trkpt><trkpt lat="45.483875" lon="10.7706783"><ele>138.0</ele><time>2026-03-28T10:57:03.826Z</time></trkpt><trkpt lat="45.484015" lon="10.7706967"><ele>138.5</ele><time>2026-03-28T10:57:04.826Z</time></trkpt><trkpt lat="45.484135" lon="10.7707617"><ele>139.0</ele><time>2026-03-28T10:57:05.825Z</time></trkpt><trkpt lat="45.4842567" lon="10.7708367"><ele>139.0</ele><time>2026-03-28T10:57:06.825Z</time></trkpt><trkpt lat="45.4843783" lon="10.7709133"><ele>139.0</ele><time>2026-03-28T10:57:07.826Z</time></trkpt><trkpt lat="45.4844967" lon="10.771005"><ele>139.0</ele><time>2026-03-28T10:57:08.826Z</time></trkpt><trkpt lat="45.4845983" lon="10.7711233"><ele>139.0</ele><time>2026-03-28T10:57:09.825Z</time></trkpt><trkpt lat="45.4847033" lon="10.771245"><ele>137.33333333333334</ele><time>2026-03-28T10:57:10.826Z</time></trkpt><trkpt lat="45.48482" lon="10.7713733"><ele>135.66666666666666</ele><time>2026-03-28T10:57:11.826Z</time></trkpt><trkpt lat="45.4849467" lon="10.7715"><ele>134.0</ele><time>2026-03-28T10:57:12.825Z</time></trkpt><trkpt lat="45.4850717" lon="10.7716217"><ele>134.0</ele><time>2026-03-28T10:57:13.826Z</time></trkpt><trkpt lat="45.4852067" lon="10.771735"><ele>134.0</ele><time>2026-03-28T10:57:14.825Z</time></trkpt><trkpt lat="45.48534" lon="10.7718633"><ele>134.0</ele><time>2026-03-28T10:57:15.826Z</time></trkpt><trkpt lat="45.4854733" lon="10.7720033"><ele>134.33333333333331</ele><time>2026-03-28T10:57:16.825Z</time></trkpt><trkpt lat="45.485595" lon="10.7721333"><ele>134.66666666666666</ele><time>2026-03-28T10:57:17.826Z</time></trkpt><trkpt lat="45.48572" lon="10.7722633"><ele>135.0</ele><time>2026-03-28T10:57:18.825Z</time></trkpt><trkpt lat="45.4858533" lon="10.7723833"><ele>135.0</ele><time>2026-03-28T10:57:19.825Z</time></trkpt><trkpt lat="45.485985" lon="10.7724983"><ele>135.0</ele><time>2026-03-28T10:57:20.826Z</time></trkpt><trkpt lat="45.48609" lon="10.7725983"><ele>135.0</ele><time>2026-03-28T10:57:21.825Z</time></trkpt><trkpt lat="45.4861817" lon="10.772685"><ele>135.0</ele><time>2026-03-28T10:57:22.825Z</time></trkpt><trkpt lat="45.486245" lon="10.7727417"><ele>135.2</ele><time>2026-03-28T10:57:23.825Z</time></trkpt><trkpt lat="45.4863483" lon="10.7727517"><ele>135.4</ele><time>2026-03-28T10:57:25.826Z</time></trkpt><trkpt lat="45.4864083" lon="10.7727167"><ele>135.6</ele><time>2026-03-28T10:57:26.825Z</time></trkpt><trkpt lat="45.4864833" lon="10.7726433"><ele>135.8</ele><time>2026-03-28T10:57:27.826Z</time></trkpt><trkpt lat="45.486585" lon="10.7725167"><ele>136.0</ele><time>2026-03-28T10:57:28.825Z</time></trkpt><trkpt lat="45.4867083" lon="10.7723667"><ele>136.0</ele><time>2026-03-28T10:57:29.825Z</time></trkpt><trkpt lat="45.4868483" lon="10.7721917"><ele>136.0</ele><time>2026-03-28T10:57:30.825Z</time></trkpt><trkpt lat="45.487" lon="10.7720017"><ele>136.0</ele><time>2026-03-28T10:57:31.825Z</time></trkpt><trkpt lat="45.48715" lon="10.7717867"><ele>136.0</ele><time>2026-03-28T10:57:32.825Z</time></trkpt><trkpt lat="45.4872867" lon="10.7715333"><ele>136.0</ele><time>2026-03-28T10:57:33.826Z</time></trkpt><trkpt lat="45.4874233" lon="10.7712767"><ele>136.0</ele><time>2026-03-28T10:57:34.826Z</time></trkpt><trkpt lat="45.4875517" lon="10.771035"><ele>136.0</ele><time>2026-03-28T10:57:35.826Z</time></trkpt><trkpt lat="45.4876517" lon="10.770835"><ele>136.0</ele><time>2026-03-28T10:57:36.826Z</time></trkpt><trkpt lat="45.4877333" lon="10.7706767"><ele>135.8</ele><time>2026-03-28T10:57:37.825Z</time></trkpt><trkpt lat="45.4878" lon="10.7705617"><ele>135.6</ele><time>2026-03-28T10:57:38.825Z</time></trkpt><trkpt lat="45.4878483" lon="10.7704983"><ele>135.4</ele><time>2026-03-28T10:57:39.825Z</time></trkpt><trkpt lat="45.4879233" lon="10.7704417"><ele>135.2</ele><time>2026-03-28T10:57:41.826Z</time></trkpt><trkpt lat="45.4880383" lon="10.7705483"><ele>135.0</ele><time>2026-03-28T10:57:43.825Z</time></trkpt><trkpt lat="45.48812" lon="10.77067"><ele>135.0</ele><time>2026-03-28T10:57:44.825Z</time></trkpt><trkpt lat="45.4882133" lon="10.7708017"><ele>135.0</ele><time>2026-03-28T10:57:45.826Z</time></trkpt><trkpt lat="45.4883033" lon="10.7709233"><ele>135.0</ele><time>2026-03-28T10:57:46.826Z</time></trkpt><trkpt lat="45.488365" lon="10.771005"><ele>135.0</ele><time>2026-03-28T10:57:47.825Z</time></trkpt><trkpt lat="45.4884283" lon="10.7711017"><ele>135.0</ele><time>2026-03-28T10:57:49.826Z</time></trkpt><trkpt lat="45.4884517" lon="10.77122"><ele>135.2</ele><time>2026-03-28T10:57:51.826Z</time></trkpt><trkpt lat="45.4884383" lon="10.7713767"><ele>135.4</ele><time>2026-03-28T10:57:53.826Z</time></trkpt><trkpt lat="45.488405" lon="10.771455"><ele>135.6</ele><time>2026-03-28T10:57:54.825Z</time></trkpt><trkpt lat="45.488425" lon="10.771585"><ele>135.8</ele><time>2026-03-28T10:57:56.825Z</time></trkpt><trkpt lat="45.4885117" lon="10.7715717"><ele>136.0</ele><time>2026-03-28T10:57:58.825Z</time></trkpt><trkpt lat="45.4885933" lon="10.7714583"><ele>136.0</ele><time>2026-03-28T10:58:00.825Z</time></trkpt><trkpt lat="45.4886433" lon="10.7713717"><ele>136.0</ele><time>2026-03-28T10:58:01.825Z</time></trkpt><trkpt lat="45.488705" lon="10.77127"><ele>136.0</ele><time>2026-03-28T10:58:02.826Z</time></trkpt><trkpt lat="45.4887917" lon="10.7711367"><ele>136.0</ele><time>2026-03-28T10:58:03.825Z</time></trkpt><trkpt lat="45.4889033" lon="10.7710067"><ele>136.0</ele><time>2026-03-28T10:58:04.825Z</time></trkpt><trkpt lat="45.489035" lon="10.7709017"><ele>136.66666666666669</ele><time>2026-03-28T10:58:05.826Z</time></trkpt><trkpt lat="45.489195" lon="10.7708233"><ele>137.33333333333334</ele><time>2026-03-28T10:58:06.825Z</time></trkpt><trkpt lat="45.4893617" lon="10.77075"><ele>138.0</ele><time>2026-03-28T10:58:07.826Z</time></trkpt><trkpt lat="45.4895267" lon="10.77068"><ele>138.0</ele><time>2026-03-28T10:58:08.825Z</time></trkpt><trkpt lat="45.4897083" lon="10.770615"><ele>138.0</ele><time>2026-03-28T10:58:09.825Z</time></trkpt><trkpt lat="45.4899167" lon="10.7705717"><ele>138.0</ele><time>2026-03-28T10:58:10.826Z</time></trkpt><trkpt lat="45.4901383" lon="10.7705283"><ele>138.0</ele><time>2026-03-28T10:58:11.826Z</time></trkpt><trkpt lat="45.4903683" lon="10.770475"><ele>138.0</ele><time>2026-03-28T10:58:12.826Z</time></trkpt><trkpt lat="45.49062" lon="10.7704083"><ele>138.0</ele><time>2026-03-28T10:58:13.825Z</time></trkpt><trkpt lat="45.4908817" lon="10.7703483"><ele>138.0</ele><time>2026-03-28T10:58:14.826Z</time></trkpt><trkpt lat="45.4911367" lon="10.7702767"><ele>136.5</ele><time>2026-03-28T10:58:15.825Z</time></trkpt><trkpt lat="45.49139" lon="10.7701733"><ele>135.0</ele><time>2026-03-28T10:58:16.826Z</time></trkpt><trkpt lat="45.4916133" lon="10.7700683"><ele>135.0</ele><time>2026-03-28T10:58:17.826Z</time></trkpt><trkpt lat="45.4918167" lon="10.7699733"><ele>135.0</ele><time>2026-03-28T10:58:18.825Z</time></trkpt><trkpt lat="45.4920017" lon="10.7698767"><ele>135.0</ele><time>2026-03-28T10:58:19.826Z</time></trkpt><trkpt lat="45.4921683" lon="10.7697733"><ele>134.6</ele><time>2026-03-28T10:58:20.826Z</time></trkpt><trkpt lat="45.4923033" lon="10.7696933"><ele>134.2</ele><time>2026-03-28T10:58:21.825Z</time></trkpt><trkpt lat="45.4924067" lon="10.76961"><ele>133.8</ele><time>2026-03-28T10:58:22.825Z</time></trkpt><trkpt lat="45.49248" lon="10.7695483"><ele>133.4</ele><time>2026-03-28T10:58:23.826Z</time></trkpt><trkpt lat="45.492575" lon="10.76952"><ele>133.0</ele><time>2026-03-28T10:58:25.826Z</time></trkpt><trkpt lat="45.4926233" lon="10.7696183"><ele>133.0</ele><time>2026-03-28T10:58:27.826Z</time></trkpt><trkpt lat="45.4926617" lon="10.7697033"><ele>133.0</ele><time>2026-03-28T10:58:28.825Z</time></trkpt><trkpt lat="45.4927033" lon="10.7698033"><ele>133.0</ele><time>2026-03-28T10:58:29.825Z</time></trkpt><trkpt lat="45.49275" lon="10.769915"><ele>133.0</ele><time>2026-03-28T10:58:30.825Z</time></trkpt><trkpt lat="45.4928" lon="10.7700367"><ele>133.0</ele><time>2026-03-28T10:58:31.825Z</time></trkpt><trkpt lat="45.4928533" lon="10.770155"><ele>133.0</ele><time>2026-03-28T10:58:32.826Z</time></trkpt><trkpt lat="45.4929033" lon="10.7702867"><ele>133.0</ele><time>2026-03-28T10:58:33.825Z</time></trkpt><trkpt lat="45.492965" lon="10.7704383"><ele>133.0</ele><time>2026-03-28T10:58:34.826Z</time></trkpt><trkpt lat="45.49302" lon="10.7705883"><ele>133.0</ele><time>2026-03-28T10:58:35.826Z</time></trkpt><trkpt lat="45.493065" lon="10.7707367"><ele>133.0</ele><time>2026-03-28T10:58:36.825Z</time></trkpt><trkpt lat="45.49313" lon="10.770865"><ele>133.0</ele><time>2026-03-28T10:58:37.826Z</time></trkpt><trkpt lat="45.4932" lon="10.7709933"><ele>133.0</ele><time>2026-03-28T10:58:38.826Z</time></trkpt><trkpt lat="45.493265" lon="10.7710983"><ele>133.0</ele><time>2026-03-28T10:58:39.825Z</time></trkpt><trkpt lat="45.4933433" lon="10.771165"><ele>133.0</ele><time>2026-03-28T10:58:40.825Z</time></trkpt><trkpt lat="45.4934267" lon="10.7712217"><ele>133.0</ele><time>2026-03-28T10:58:41.826Z</time></trkpt><trkpt lat="45.4935233" lon="10.7712333"><ele>134.0</ele><time>2026-03-28T10:58:42.826Z</time></trkpt><trkpt lat="45.4936383" lon="10.7712133"><ele>135.0</ele><time>2026-03-28T10:58:43.825Z</time></trkpt><trkpt lat="45.4937583" lon="10.7711833"><ele>136.0</ele><time>2026-03-28T10:58:44.825Z</time></trkpt><trkpt lat="45.4938833" lon="10.7711767"><ele>137.0</ele><time>2026-03-28T10:58:45.825Z</time></trkpt><trkpt lat="45.49401" lon="10.771195"><ele>137.0</ele><time>2026-03-28T10:58:46.826Z</time></trkpt><trkpt lat="45.4941333" lon="10.771205"><ele>137.0</ele><time>2026-03-28T10:58:47.825Z</time></trkpt><trkpt lat="45.4942417" lon="10.7712267"><ele>137.0</ele><time>2026-03-28T10:58:48.825Z</time></trkpt><trkpt lat="45.4943083" lon="10.7712483"><ele>137.0</ele><time>2026-03-28T10:58:49.826Z</time></trkpt><trkpt lat="45.494365" lon="10.7713767"><ele>137.0</ele><time>2026-03-28T10:58:51.826Z</time></trkpt><trkpt lat="45.4943717" lon="10.7714767"><ele>137.0</ele><time>2026-03-28T10:58:52.826Z</time></trkpt><trkpt lat="45.494375" lon="10.7716083"><ele>137.0</ele><time>2026-03-28T10:58:53.826Z</time></trkpt><trkpt lat="45.494375" lon="10.7717817"><ele>137.0</ele><time>2026-03-28T10:58:54.825Z</time></trkpt><trkpt lat="45.49437" lon="10.77199"><ele>137.0</ele><time>2026-03-28T10:58:55.826Z</time></trkpt><trkpt lat="45.4943817" lon="10.7722033"><ele>137.0</ele><time>2026-03-28T10:58:56.826Z</time></trkpt><trkpt lat="45.494395" lon="10.772435"><ele>137.0</ele><time>2026-03-28T10:58:57.825Z</time></trkpt><trkpt lat="45.4944117" lon="10.7726883"><ele>137.0</ele><time>2026-03-28T10:58:58.826Z</time></trkpt><trkpt lat="45.4944283" lon="10.7729517"><ele>137.33333333333331</ele><time>2026-03-28T10:58:59.826Z</time></trkpt><trkpt lat="45.494445" lon="10.7732033"><ele>137.66666666666666</ele><time>2026-03-28T10:59:00.825Z</time></trkpt><trkpt lat="45.49446" lon="10.7734417"><ele>138.0</ele><time>2026-03-28T10:59:01.825Z</time></trkpt><trkpt lat="45.4944833" lon="10.7736533"><ele>139.33333333333334</ele><time>2026-03-28T10:59:02.826Z</time></trkpt><trkpt lat="45.4945167" lon="10.7738467"><ele>140.66666666666669</ele><time>2026-03-28T10:59:03.825Z</time></trkpt><trkpt lat="45.4945367" lon="10.77406"><ele>142.0</ele><time>2026-03-28T10:59:04.825Z</time></trkpt><trkpt lat="45.4945667" lon="10.77429"><ele>143.5</ele><time>2026-03-28T10:59:05.825Z</time></trkpt><trkpt lat="45.4945917" lon="10.774515"><ele>145.0</ele><time>2026-03-28T10:59:06.825Z</time></trkpt><trkpt lat="45.4946233" lon="10.774705"><ele>146.5</ele><time>2026-03-28T10:59:07.825Z</time></trkpt><trkpt lat="45.4946433" lon="10.7748733"><ele>148.0</ele><time>2026-03-28T10:59:08.825Z</time></trkpt><trkpt lat="45.4946483" lon="10.7750417"><ele>148.0</ele><time>2026-03-28T10:59:09.825Z</time></trkpt><trkpt lat="45.49466" lon="10.7752133"><ele>148.0</ele><time>2026-03-28T10:59:10.825Z</time></trkpt><trkpt lat="45.4946683" lon="10.77542"><ele>148.0</ele><time>2026-03-28T10:59:11.825Z</time></trkpt><trkpt lat="45.4946767" lon="10.7756433"><ele>148.0</ele><time>2026-03-28T10:59:12.825Z</time></trkpt><trkpt lat="45.494685" lon="10.775865"><ele>148.4</ele><time>2026-03-28T10:59:13.826Z</time></trkpt><trkpt lat="45.4946867" lon="10.7760383"><ele>148.8</ele><time>2026-03-28T10:59:14.826Z</time></trkpt><trkpt lat="45.4946933" lon="10.776175"><ele>149.2</ele><time>2026-03-28T10:59:15.825Z</time></trkpt><trkpt lat="45.494705" lon="10.7762767"><ele>149.6</ele><time>2026-03-28T10:59:16.826Z</time></trkpt><trkpt lat="45.4947217" lon="10.7764183"><ele>150.0</ele><time>2026-03-28T10:59:18.826Z</time></trkpt><trkpt lat="45.4948283" lon="10.7765433"><ele>150.0</ele><time>2026-03-28T10:59:20.826Z</time></trkpt><trkpt lat="45.4949" lon="10.776615"><ele>150.0</ele><time>2026-03-28T10:59:21.826Z</time></trkpt><trkpt lat="45.49498" lon="10.77669"><ele>150.0</ele><time>2026-03-28T10:59:22.826Z</time></trkpt><trkpt lat="45.495055" lon="10.7767633"><ele>150.0</ele><time>2026-03-28T10:59:23.826Z</time></trkpt><trkpt lat="45.495135" lon="10.776835"><ele>150.0</ele><time>2026-03-28T10:59:24.826Z</time></trkpt><trkpt lat="45.4952233" lon="10.7769083"><ele>149.5</ele><time>2026-03-28T10:59:25.826Z</time></trkpt><trkpt lat="45.4953183" lon="10.776995"><ele>149.0</ele><time>2026-03-28T10:59:26.825Z</time></trkpt><trkpt lat="45.4954083" lon="10.77709"><ele>148.5</ele><time>2026-03-28T10:59:27.826Z</time></trkpt><trkpt lat="45.4954917" lon="10.7771967"><ele>148.0</ele><time>2026-03-28T10:59:28.825Z</time></trkpt><trkpt lat="45.49557" lon="10.7773167"><ele>147.6</ele><time>2026-03-28T10:59:29.826Z</time></trkpt><trkpt lat="45.4956517" lon="10.777435"><ele>147.20000000000002</ele><time>2026-03-28T10:59:30.825Z</time></trkpt><trkpt lat="45.4957217" lon="10.7775317"><ele>146.8</ele><time>2026-03-28T10:59:31.826Z</time></trkpt><trkpt lat="45.495775" lon="10.7776433"><ele>146.4</ele><time>2026-03-28T10:59:32.826Z</time></trkpt><trkpt lat="45.4958183" lon="10.7777433"><ele>146.0</ele><time>2026-03-28T10:59:33.826Z</time></trkpt><trkpt lat="45.495845" lon="10.7778383"><ele>145.0</ele><time>2026-03-28T10:59:34.825Z</time></trkpt><trkpt lat="45.495885" lon="10.7779467"><ele>144.0</ele><time>2026-03-28T10:59:36.825Z</time></trkpt><trkpt lat="45.49598" lon="10.7779683"><ele>143.0</ele><time>2026-03-28T10:59:38.826Z</time></trkpt><trkpt lat="45.4960467" lon="10.7779517"><ele>142.0</ele><time>2026-03-28T10:59:39.826Z</time></trkpt><trkpt lat="45.49612" lon="10.7779217"><ele>141.0</ele><time>2026-03-28T10:59:40.825Z</time></trkpt><trkpt lat="45.4961983" lon="10.777895"><ele>140.0</ele><time>2026-03-28T10:59:41.825Z</time></trkpt><trkpt lat="45.4962733" lon="10.7778717"><ele>139.83333333333331</ele><time>2026-03-28T10:59:42.826Z</time></trkpt><trkpt lat="45.4963567" lon="10.7778567"><ele>139.66666666666666</ele><time>2026-03-28T10:59:43.825Z</time></trkpt><trkpt lat="45.4964433" lon="10.7778467"><ele>139.5</ele><time>2026-03-28T10:59:44.826Z</time></trkpt><trkpt lat="45.4965333" lon="10.777835"><ele>139.33333333333334</ele><time>2026-03-28T10:59:45.826Z</time></trkpt><trkpt lat="45.4966183" lon="10.7778317"><ele>139.16666666666669</ele><time>2026-03-28T10:59:46.826Z</time></trkpt><trkpt lat="45.4966967" lon="10.7778383"><ele>139.0</ele><time>2026-03-28T10:59:47.825Z</time></trkpt><trkpt lat="45.496765" lon="10.7778533"><ele>139.0</ele><time>2026-03-28T10:59:48.825Z</time></trkpt><trkpt lat="45.4968767" lon="10.7779267"><ele>139.0</ele><time>2026-03-28T10:59:50.826Z</time></trkpt><trkpt lat="45.49693" lon="10.7779883"><ele>139.0</ele><time>2026-03-28T10:59:51.826Z</time></trkpt><trkpt lat="45.4969933" lon="10.77806"><ele>139.0</ele><time>2026-03-28T10:59:52.825Z</time></trkpt><trkpt lat="45.4970567" lon="10.7781267"><ele>139.0</ele><time>2026-03-28T10:59:53.825Z</time></trkpt><trkpt lat="45.4971083" lon="10.7781783"><ele>139.0</ele><time>2026-03-28T10:59:54.825Z</time></trkpt><trkpt lat="45.4971933" lon="10.7782283"><ele>139.14285714285714</ele><time>2026-03-28T10:59:56.825Z</time></trkpt><trkpt lat="45.4972533" lon="10.7782633"><ele>139.28571428571428</ele><time>2026-03-28T10:59:58.825Z</time></trkpt><trkpt lat="45.4972617" lon="10.7783817"><ele>139.42857142857144</ele><time>2026-03-28T11:00:00.826Z</time></trkpt><trkpt lat="45.497255" lon="10.7784717"><ele>139.57142857142856</ele><time>2026-03-28T11:00:01.825Z</time></trkpt><trkpt lat="45.4972217" lon="10.7785683"><ele>139.71428571428572</ele><time>2026-03-28T11:00:02.826Z</time></trkpt><trkpt lat="45.4971933" lon="10.778655"><ele>139.85714285714286</ele><time>2026-03-28T11:00:03.825Z</time></trkpt><trkpt lat="45.4971617" lon="10.7787383"><ele>140.0</ele><time>2026-03-28T11:00:04.825Z</time></trkpt><trkpt lat="45.4971433" lon="10.7788317"><ele>140.0</ele><time>2026-03-28T11:00:05.825Z</time></trkpt><trkpt lat="45.4970983" lon="10.7789767"><ele>140.0</ele><time>2026-03-28T11:00:07.825Z</time></trkpt><trkpt lat="45.49708" lon="10.7791333"><ele>140.0</ele><time>2026-03-28T11:00:09.824Z</time></trkpt><trkpt lat="45.4970583" lon="10.779265"><ele>140.0</ele><time>2026-03-28T11:00:10.825Z</time></trkpt><trkpt lat="45.49703" lon="10.7794467"><ele>140.0</ele><time>2026-03-28T11:00:11.825Z</time></trkpt><trkpt lat="45.4970117" lon="10.7796733"><ele>138.33333333333331</ele><time>2026-03-28T11:00:12.825Z</time></trkpt><trkpt lat="45.497" lon="10.7799217"><ele>136.66666666666666</ele><time>2026-03-28T11:00:13.825Z</time></trkpt><trkpt lat="45.4969833" lon="10.780175"><ele>135.0</ele><time>2026-03-28T11:00:14.824Z</time></trkpt><trkpt lat="45.4969733" lon="10.7804033"><ele>135.0</ele><time>2026-03-28T11:00:15.824Z</time></trkpt><trkpt lat="45.4969683" lon="10.7805983"><ele>135.0</ele><time>2026-03-28T11:00:16.824Z</time></trkpt><trkpt lat="45.4969483" lon="10.7807633"><ele>135.0</ele><time>2026-03-28T11:00:17.825Z</time></trkpt><trkpt lat="45.496925" lon="10.7809083"><ele>135.0</ele><time>2026-03-28T11:00:18.824Z</time></trkpt><trkpt lat="45.4968883" lon="10.7810233"><ele>135.0</ele><time>2026-03-28T11:00:19.824Z</time></trkpt><trkpt lat="45.4968767" lon="10.781115"><ele>135.4</ele><time>2026-03-28T11:00:20.825Z</time></trkpt><trkpt lat="45.4969383" lon="10.7812067"><ele>135.8</ele><time>2026-03-28T11:00:22.825Z</time></trkpt><trkpt lat="45.497015" lon="10.781205"><ele>136.2</ele><time>2026-03-28T11:00:23.825Z</time></trkpt><trkpt lat="45.4971167" lon="10.7811983"><ele>136.6</ele><time>2026-03-28T11:00:24.824Z</time></trkpt><trkpt lat="45.49725" lon="10.7811917"><ele>137.0</ele><time>2026-03-28T11:00:25.824Z</time></trkpt><trkpt lat="45.4973983" lon="10.781185"><ele>138.0</ele><time>2026-03-28T11:00:26.824Z</time></trkpt><trkpt lat="45.4975617" lon="10.7811833"><ele>139.0</ele><time>2026-03-28T11:00:27.824Z</time></trkpt><trkpt lat="45.4977067" lon="10.7811933"><ele>140.0</ele><time>2026-03-28T11:00:28.824Z</time></trkpt><trkpt lat="45.4978133" lon="10.7812183"><ele>141.0</ele><time>2026-03-28T11:00:29.824Z</time></trkpt><trkpt lat="45.4978817" lon="10.7812433"><ele>143.75</ele><time>2026-03-28T11:00:30.824Z</time></trkpt><trkpt lat="45.4979617" lon="10.7813733"><ele>146.5</ele><time>2026-03-28T11:00:32.824Z</time></trkpt><trkpt lat="45.4979733" lon="10.781505"><ele>149.25</ele><time>2026-03-28T11:00:33.824Z</time></trkpt><trkpt lat="45.4979783" lon="10.781675"><ele>152.0</ele><time>2026-03-28T11:00:34.825Z</time></trkpt><trkpt lat="45.497985" lon="10.7818767"><ele>152.66666666666666</ele><time>2026-03-28T11:00:35.825Z</time></trkpt><trkpt lat="45.4980017" lon="10.78209"><ele>153.33333333333334</ele><time>2026-03-28T11:00:36.824Z</time></trkpt><trkpt lat="45.4980183" lon="10.7823267"><ele>154.0</ele><time>2026-03-28T11:00:37.825Z</time></trkpt><trkpt lat="45.4980267" lon="10.7825567"><ele>154.0</ele><time>2026-03-28T11:00:38.825Z</time></trkpt><trkpt lat="45.4980333" lon="10.7827817"><ele>154.0</ele><time>2026-03-28T11:00:39.825Z</time></trkpt><trkpt lat="45.4980417" lon="10.7829767"><ele>154.0</ele><time>2026-03-28T11:00:40.824Z</time></trkpt><trkpt lat="45.49805" lon="10.7831633"><ele>154.0</ele><time>2026-03-28T11:00:41.825Z</time></trkpt><trkpt lat="45.49806" lon="10.7833083"><ele>154.0</ele><time>2026-03-28T11:00:42.825Z</time></trkpt><trkpt lat="45.498105" lon="10.783465"><ele>154.0</ele><time>2026-03-28T11:00:43.825Z</time></trkpt><trkpt lat="45.49815" lon="10.783615"><ele>154.0</ele><time>2026-03-28T11:00:44.824Z</time></trkpt><trkpt lat="45.498175" lon="10.783765"><ele>154.0</ele><time>2026-03-28T11:00:45.825Z</time></trkpt><trkpt lat="45.498175" lon="10.7839167"><ele>154.0</ele><time>2026-03-28T11:00:46.825Z</time></trkpt><trkpt lat="45.4981667" lon="10.7840383"><ele>154.5</ele><time>2026-03-28T11:00:47.824Z</time></trkpt><trkpt lat="45.4981917" lon="10.784165"><ele>155.0</ele><time>2026-03-28T11:00:49.824Z</time></trkpt><trkpt lat="45.4983283" lon="10.7841517"><ele>155.5</ele><time>2026-03-28T11:00:51.824Z</time></trkpt><trkpt lat="45.4984367" lon="10.7841283"><ele>156.0</ele><time>2026-03-28T11:00:52.824Z</time></trkpt><trkpt lat="45.4985783" lon="10.7841133"><ele>156.0</ele><time>2026-03-28T11:00:53.824Z</time></trkpt><trkpt lat="45.4987367" lon="10.784105"><ele>156.0</ele><time>2026-03-28T11:00:54.825Z</time></trkpt><trkpt lat="45.498915" lon="10.784095"><ele>156.0</ele><time>2026-03-28T11:00:55.825Z</time></trkpt><trkpt lat="45.499095" lon="10.784105"><ele>156.25</ele><time>2026-03-28T11:00:56.824Z</time></trkpt><trkpt lat="45.49926" lon="10.7841117"><ele>156.5</ele><time>2026-03-28T11:00:57.825Z</time></trkpt><trkpt lat="45.4994017" lon="10.7841067"><ele>156.75</ele><time>2026-03-28T11:00:58.825Z</time></trkpt><trkpt lat="45.4995317" lon="10.7841017"><ele>157.0</ele><time>2026-03-28T11:00:59.825Z</time></trkpt><trkpt lat="45.499645" lon="10.7840767"><ele>157.5</ele><time>2026-03-28T11:01:00.824Z</time></trkpt><trkpt lat="45.499765" lon="10.7840283"><ele>158.0</ele><time>2026-03-28T11:01:01.824Z</time></trkpt><trkpt lat="45.4998667" lon="10.7839333"><ele>158.5</ele><time>2026-03-28T11:01:02.824Z</time></trkpt><trkpt lat="45.4999783" lon="10.7838317"><ele>159.0</ele><time>2026-03-28T11:01:03.825Z</time></trkpt><trkpt lat="45.5000833" lon="10.7837433"><ele>159.0</ele><time>2026-03-28T11:01:04.825Z</time></trkpt><trkpt lat="45.5001917" lon="10.7836283"><ele>159.0</ele><time>2026-03-28T11:01:05.824Z</time></trkpt><trkpt lat="45.5002783" lon="10.7835133"><ele>159.0</ele><time>2026-03-28T11:01:06.824Z</time></trkpt><trkpt lat="45.5003533" lon="10.78339"><ele>159.0</ele><time>2026-03-28T11:01:07.825Z</time></trkpt><trkpt lat="45.5004167" lon="10.7832533"><ele>159.2</ele><time>2026-03-28T11:01:08.824Z</time></trkpt><trkpt lat="45.5004717" lon="10.78313"><ele>159.4</ele><time>2026-03-28T11:01:09.824Z</time></trkpt><trkpt lat="45.5005267" lon="10.7830117"><ele>159.6</ele><time>2026-03-28T11:01:10.824Z</time></trkpt><trkpt lat="45.5005933" lon="10.782915"><ele>159.8</ele><time>2026-03-28T11:01:11.825Z</time></trkpt><trkpt lat="45.5006617" lon="10.7828283"><ele>160.0</ele><time>2026-03-28T11:01:12.825Z</time></trkpt><trkpt lat="45.500735" lon="10.7827767"><ele>160.0</ele><time>2026-03-28T11:01:13.824Z</time></trkpt><trkpt lat="45.5008067" lon="10.7827467"><ele>160.0</ele><time>2026-03-28T11:01:14.825Z</time></trkpt><trkpt lat="45.500895" lon="10.7827433"><ele>160.0</ele><time>2026-03-28T11:01:15.825Z</time></trkpt><trkpt lat="45.500995" lon="10.7827467"><ele>160.0</ele><time>2026-03-28T11:01:16.824Z</time></trkpt><trkpt lat="45.501115" lon="10.7827417"><ele>160.0</ele><time>2026-03-28T11:01:17.824Z</time></trkpt><trkpt lat="45.5012383" lon="10.7827217"><ele>160.2</ele><time>2026-03-28T11:01:18.824Z</time></trkpt><trkpt lat="45.5013567" lon="10.7827017"><ele>160.4</ele><time>2026-03-28T11:01:19.824Z</time></trkpt><trkpt lat="45.50145" lon="10.7826867"><ele>160.60000000000002</ele><time>2026-03-28T11:01:20.824Z</time></trkpt><trkpt lat="45.5015383" lon="10.7826617"><ele>160.8</ele><time>2026-03-28T11:01:21.824Z</time></trkpt><trkpt lat="45.5016267" lon="10.7826467"><ele>161.0</ele><time>2026-03-28T11:01:22.824Z</time></trkpt><trkpt lat="45.5017133" lon="10.782655"><ele>161.0</ele><time>2026-03-28T11:01:23.824Z</time></trkpt><trkpt lat="45.5017933" lon="10.7826767"><ele>161.0</ele><time>2026-03-28T11:01:24.824Z</time></trkpt><trkpt lat="45.5018867" lon="10.7827083"><ele>161.0</ele><time>2026-03-28T11:01:25.824Z</time></trkpt><trkpt lat="45.5019783" lon="10.782765"><ele>161.0</ele><time>2026-03-28T11:01:26.825Z</time></trkpt><trkpt lat="45.5020817" lon="10.7828317"><ele>161.0</ele><time>2026-03-28T11:01:27.825Z</time></trkpt><trkpt lat="45.5021683" lon="10.7828833"><ele>160.16666666666666</ele><time>2026-03-28T11:01:28.824Z</time></trkpt><trkpt lat="45.502255" lon="10.7829217"><ele>159.33333333333331</ele><time>2026-03-28T11:01:29.824Z</time></trkpt><trkpt lat="45.50234" lon="10.7829517"><ele>158.5</ele><time>2026-03-28T11:01:30.824Z</time></trkpt><trkpt lat="45.5024217" lon="10.7829667"><ele>157.66666666666666</ele><time>2026-03-28T11:01:31.824Z</time></trkpt><trkpt lat="45.5025067" lon="10.7829683"><ele>156.83333333333334</ele><time>2026-03-28T11:01:32.824Z</time></trkpt><trkpt lat="45.5026" lon="10.78295"><ele>156.0</ele><time>2026-03-28T11:01:33.824Z</time></trkpt><trkpt lat="45.5026883" lon="10.7829283"><ele>156.0</ele><time>2026-03-28T11:01:34.824Z</time></trkpt><trkpt lat="45.5027767" lon="10.7829183"><ele>156.0</ele><time>2026-03-28T11:01:35.824Z</time></trkpt><trkpt lat="45.5028567" lon="10.7829267"><ele>156.0</ele><time>2026-03-28T11:01:36.825Z</time></trkpt><trkpt lat="45.5029417" lon="10.7829517"><ele>156.0</ele><time>2026-03-28T11:01:37.824Z</time></trkpt><trkpt lat="45.5030317" lon="10.7829733"><ele>156.0</ele><time>2026-03-28T11:01:38.825Z</time></trkpt><trkpt lat="45.5031117" lon="10.7829883"><ele>156.0</ele><time>2026-03-28T11:01:39.825Z</time></trkpt><trkpt lat="45.5031983" lon="10.7829933"><ele>155.4</ele><time>2026-03-28T11:01:40.824Z</time></trkpt><trkpt lat="45.5032867" lon="10.7830067"><ele>154.8</ele><time>2026-03-28T11:01:41.824Z</time></trkpt><trkpt lat="45.50339" lon="10.783035"><ele>154.20000000000002</ele><time>2026-03-28T11:01:42.824Z</time></trkpt><trkpt lat="45.5034967" lon="10.7830633"><ele>153.6</ele><time>2026-03-28T11:01:43.824Z</time></trkpt><trkpt lat="45.5036067" lon="10.7830783"><ele>153.0</ele><time>2026-03-28T11:01:44.824Z</time></trkpt><trkpt lat="45.503695" lon="10.7830783"><ele>153.6</ele><time>2026-03-28T11:01:45.824Z</time></trkpt><trkpt lat="45.50377" lon="10.7830633"><ele>154.20000000000002</ele><time>2026-03-28T11:01:46.824Z</time></trkpt><trkpt lat="45.5038483" lon="10.7830367"><ele>154.8</ele><time>2026-03-28T11:01:47.824Z</time></trkpt><trkpt lat="45.5039367" lon="10.7830133"><ele>155.4</ele><time>2026-03-28T11:01:48.824Z</time></trkpt><trkpt lat="45.5040467" lon="10.782995"><ele>156.0</ele><time>2026-03-28T11:01:49.824Z</time></trkpt><trkpt lat="45.5041633" lon="10.7829867"><ele>156.0</ele><time>2026-03-28T11:01:50.824Z</time></trkpt><trkpt lat="45.5042783" lon="10.782975"><ele>156.0</ele><time>2026-03-28T11:01:51.824Z</time></trkpt><trkpt lat="45.5043783" lon="10.7829583"><ele>156.0</ele><time>2026-03-28T11:01:52.824Z</time></trkpt><trkpt lat="45.5044633" lon="10.7829517"><ele>156.0</ele><time>2026-03-28T11:01:53.825Z</time></trkpt><trkpt lat="45.5045333" lon="10.7829583"><ele>156.0</ele><time>2026-03-28T11:01:54.824Z</time></trkpt><trkpt lat="45.5045933" lon="10.78299"><ele>156.0</ele><time>2026-03-28T11:01:55.825Z</time></trkpt><trkpt lat="45.504655" lon="10.7830517"><ele>155.42857142857144</ele><time>2026-03-28T11:01:56.824Z</time></trkpt><trkpt lat="45.504715" lon="10.7831167"><ele>154.85714285714283</ele><time>2026-03-28T11:01:57.825Z</time></trkpt><trkpt lat="45.5047767" lon="10.7831517"><ele>154.28571428571428</ele><time>2026-03-28T11:01:58.825Z</time></trkpt><trkpt lat="45.5048417" lon="10.7831733"><ele>153.71428571428572</ele><time>2026-03-28T11:01:59.825Z</time></trkpt><trkpt lat="45.5049067" lon="10.7831683"><ele>153.14285714285717</ele><time>2026-03-28T11:02:00.824Z</time></trkpt><trkpt lat="45.5049867" lon="10.7831517"><ele>152.57142857142856</ele><time>2026-03-28T11:02:01.824Z</time></trkpt><trkpt lat="45.5050583" lon="10.7831467"><ele>152.0</ele><time>2026-03-28T11:02:02.825Z</time></trkpt><trkpt lat="45.5051633" lon="10.78317"><ele>152.0</ele><time>2026-03-28T11:02:04.824Z</time></trkpt><trkpt lat="45.5052183" lon="10.7832783"><ele>152.0</ele><time>2026-03-28T11:02:06.825Z</time></trkpt><trkpt lat="45.5052367" lon="10.783375"><ele>152.0</ele><time>2026-03-28T11:02:07.825Z</time></trkpt><trkpt lat="45.505245" lon="10.7834917"><ele>152.0</ele><time>2026-03-28T11:02:08.824Z</time></trkpt><trkpt lat="45.50525" lon="10.78362"><ele>152.0</ele><time>2026-03-28T11:02:09.825Z</time></trkpt><trkpt lat="45.5052483" lon="10.78378"><ele>152.0</ele><time>2026-03-28T11:02:10.825Z</time></trkpt><trkpt lat="45.5052417" lon="10.7839217"><ele>151.79999999999998</ele><time>2026-03-28T11:02:11.825Z</time></trkpt><trkpt lat="45.505235" lon="10.784055"><ele>151.6</ele><time>2026-03-28T11:02:12.825Z</time></trkpt><trkpt lat="45.5052267" lon="10.7842033"><ele>151.39999999999998</ele><time>2026-03-28T11:02:13.825Z</time></trkpt><trkpt lat="45.5052333" lon="10.784335"><ele>151.2</ele><time>2026-03-28T11:02:14.825Z</time></trkpt><trkpt lat="45.5052617" lon="10.7844533"><ele>151.0</ele><time>2026-03-28T11:02:15.825Z</time></trkpt><trkpt lat="45.505305" lon="10.7845933"><ele>150.8</ele><time>2026-03-28T11:02:16.825Z</time></trkpt><trkpt lat="45.5053333" lon="10.7847333"><ele>150.6</ele><time>2026-03-28T11:02:17.824Z</time></trkpt><trkpt lat="45.505365" lon="10.784875"><ele>150.4</ele><time>2026-03-28T11:02:18.825Z</time></trkpt><trkpt lat="45.5053933" lon="10.785035"><ele>150.2</ele><time>2026-03-28T11:02:19.825Z</time></trkpt><trkpt lat="45.5054183" lon="10.7852133"><ele>150.0</ele><time>2026-03-28T11:02:20.825Z</time></trkpt><trkpt lat="45.5054433" lon="10.7854067"><ele>149.75</ele><time>2026-03-28T11:02:21.825Z</time></trkpt><trkpt lat="45.50547" lon="10.7856033"><ele>149.5</ele><time>2026-03-28T11:02:22.825Z</time></trkpt><trkpt lat="45.505495" lon="10.7857983"><ele>149.25</ele><time>2026-03-28T11:02:23.825Z</time></trkpt><trkpt lat="45.5055267" lon="10.7860133"><ele>149.0</ele><time>2026-03-28T11:02:24.825Z</time></trkpt><trkpt lat="45.5055583" lon="10.7862333"><ele>148.66666666666666</ele><time>2026-03-28T11:02:25.824Z</time></trkpt><trkpt lat="45.5055867" lon="10.78648"><ele>148.33333333333334</ele><time>2026-03-28T11:02:26.824Z</time></trkpt><trkpt lat="45.5056083" lon="10.7867133"><ele>148.0</ele><time>2026-03-28T11:02:27.824Z</time></trkpt><trkpt lat="45.5056333" lon="10.786945"><ele>147.0</ele><time>2026-03-28T11:02:28.824Z</time></trkpt><trkpt lat="45.505665" lon="10.78717"><ele>146.0</ele><time>2026-03-28T11:02:29.824Z</time></trkpt><trkpt lat="45.50569" lon="10.7873833"><ele>145.0</ele><time>2026-03-28T11:02:30.825Z</time></trkpt><trkpt lat="45.5057117" lon="10.7875917"><ele>145.25</ele><time>2026-03-28T11:02:31.825Z</time></trkpt><trkpt lat="45.5057283" lon="10.7877833"><ele>145.5</ele><time>2026-03-28T11:02:32.824Z</time></trkpt><trkpt lat="45.5057417" lon="10.78795"><ele>145.75</ele><time>2026-03-28T11:02:33.825Z</time></trkpt><trkpt lat="45.505765" lon="10.788105"><ele>146.0</ele><time>2026-03-28T11:02:34.824Z</time></trkpt><trkpt lat="45.505785" lon="10.788235"><ele>146.0</ele><time>2026-03-28T11:02:35.825Z</time></trkpt><trkpt lat="45.5058" lon="10.7883433"><ele>146.0</ele><time>2026-03-28T11:02:36.824Z</time></trkpt><trkpt lat="45.5058283" lon="10.7884567"><ele>146.0</ele><time>2026-03-28T11:02:37.824Z</time></trkpt><trkpt lat="45.50587" lon="10.788565"><ele>146.0</ele><time>2026-03-28T11:02:38.824Z</time></trkpt><trkpt lat="45.5059167" lon="10.7886767"><ele>146.0</ele><time>2026-03-28T11:02:39.825Z</time></trkpt><trkpt lat="45.5059583" lon="10.788805"><ele>146.0</ele><time>2026-03-28T11:02:40.824Z</time></trkpt><trkpt lat="45.505995" lon="10.7889567"><ele>145.75</ele><time>2026-03-28T11:02:41.825Z</time></trkpt><trkpt lat="45.506035" lon="10.7891167"><ele>145.5</ele><time>2026-03-28T11:02:42.825Z</time></trkpt><trkpt lat="45.5060783" lon="10.7892833"><ele>145.25</ele><time>2026-03-28T11:02:43.824Z</time></trkpt><trkpt lat="45.506115" lon="10.789445"><ele>145.0</ele><time>2026-03-28T11:02:44.824Z</time></trkpt><trkpt lat="45.5061467" lon="10.7895817"><ele>145.5</ele><time>2026-03-28T11:02:45.824Z</time></trkpt><trkpt lat="45.506175" lon="10.7897067"><ele>146.0</ele><time>2026-03-28T11:02:46.824Z</time></trkpt><trkpt lat="45.50619" lon="10.789825"><ele>146.5</ele><time>2026-03-28T11:02:47.824Z</time></trkpt><trkpt lat="45.5062117" lon="10.7899433"><ele>147.0</ele><time>2026-03-28T11:02:48.824Z</time></trkpt><trkpt lat="45.5062367" lon="10.79006"><ele>147.5</ele><time>2026-03-28T11:02:49.825Z</time></trkpt><trkpt lat="45.5062567" lon="10.79018"><ele>148.0</ele><time>2026-03-28T11:02:50.824Z</time></trkpt><trkpt lat="45.506275" lon="10.7903167"><ele>148.0</ele><time>2026-03-28T11:02:51.825Z</time></trkpt><trkpt lat="45.5062967" lon="10.7904517"><ele>148.0</ele><time>2026-03-28T11:02:52.824Z</time></trkpt><trkpt lat="45.50631" lon="10.790575"><ele>148.0</ele><time>2026-03-28T11:02:53.824Z</time></trkpt><trkpt lat="45.5063183" lon="10.7906967"><ele>148.0</ele><time>2026-03-28T11:02:54.825Z</time></trkpt><trkpt lat="45.5063317" lon="10.790825"><ele>148.0</ele><time>2026-03-28T11:02:55.824Z</time></trkpt><trkpt lat="45.5063433" lon="10.79096"><ele>148.14285714285714</ele><time>2026-03-28T11:02:56.824Z</time></trkpt><trkpt lat="45.5063533" lon="10.7910867"><ele>148.28571428571428</ele><time>2026-03-28T11:02:57.824Z</time></trkpt><trkpt lat="45.5063683" lon="10.79119"><ele>148.42857142857142</ele><time>2026-03-28T11:02:58.825Z</time></trkpt><trkpt lat="45.506385" lon="10.791285"><ele>148.57142857142856</ele><time>2026-03-28T11:02:59.824Z</time></trkpt><trkpt lat="45.5063867" lon="10.7913833"><ele>148.7142857142857</ele><time>2026-03-28T11:03:00.824Z</time></trkpt><trkpt lat="45.5063917" lon="10.791475"><ele>148.85714285714286</ele><time>2026-03-28T11:03:01.825Z</time></trkpt><trkpt lat="45.5063933" lon="10.7915683"><ele>149.0</ele><time>2026-03-28T11:03:02.824Z</time></trkpt><trkpt lat="45.506405" lon="10.791725"><ele>149.0</ele><time>2026-03-28T11:03:04.824Z</time></trkpt><trkpt lat="45.5064167" lon="10.791815"><ele>149.0</ele><time>2026-03-28T11:03:05.825Z</time></trkpt><trkpt lat="45.5064317" lon="10.791915"><ele>149.0</ele><time>2026-03-28T11:03:06.825Z</time></trkpt><trkpt lat="45.5064517" lon="10.792025"><ele>149.0</ele><time>2026-03-28T11:03:07.825Z</time></trkpt><trkpt lat="45.506475" lon="10.7921417"><ele>149.0</ele><time>2026-03-28T11:03:08.824Z</time></trkpt><trkpt lat="45.5064983" lon="10.7922667"><ele>149.0</ele><time>2026-03-28T11:03:09.824Z</time></trkpt><trkpt lat="45.5065383" lon="10.7924"><ele>149.0</ele><time>2026-03-28T11:03:10.825Z</time></trkpt><trkpt lat="45.5065733" lon="10.7925433"><ele>149.0</ele><time>2026-03-28T11:03:11.824Z</time></trkpt><trkpt lat="45.506595" lon="10.79266"><ele>149.0</ele><time>2026-03-28T11:03:12.824Z</time></trkpt><trkpt lat="45.5066117" lon="10.7927583"><ele>149.0</ele><time>2026-03-28T11:03:13.824Z</time></trkpt><trkpt lat="45.50663" lon="10.7928633"><ele>149.0</ele><time>2026-03-28T11:03:14.825Z</time></trkpt><trkpt lat="45.5066383" lon="10.792955"><ele>149.0</ele><time>2026-03-28T11:03:15.824Z</time></trkpt><trkpt lat="45.5066467" lon="10.79306"><ele>149.2</ele><time>2026-03-28T11:03:16.825Z</time></trkpt><trkpt lat="45.5066567" lon="10.7931733"><ele>149.4</ele><time>2026-03-28T11:03:17.824Z</time></trkpt><trkpt lat="45.5066533" lon="10.79331"><ele>149.6</ele><time>2026-03-28T11:03:18.824Z</time></trkpt><trkpt lat="45.5066517" lon="10.793445"><ele>149.8</ele><time>2026-03-28T11:03:19.824Z</time></trkpt><trkpt lat="45.5066533" lon="10.7935817"><ele>150.0</ele><time>2026-03-28T11:03:20.824Z</time></trkpt><trkpt lat="45.5066483" lon="10.793725"><ele>150.25</ele><time>2026-03-28T11:03:21.825Z</time></trkpt><trkpt lat="45.5066217" lon="10.7939083"><ele>150.5</ele><time>2026-03-28T11:03:22.824Z</time></trkpt><trkpt lat="45.5066183" lon="10.79407"><ele>150.75</ele><time>2026-03-28T11:03:23.825Z</time></trkpt><trkpt lat="45.5066133" lon="10.79423"><ele>151.0</ele><time>2026-03-28T11:03:24.824Z</time></trkpt><trkpt lat="45.5066" lon="10.7943867"><ele>151.0</ele><time>2026-03-28T11:03:25.825Z</time></trkpt><trkpt lat="45.5066" lon="10.7945433"><ele>151.0</ele><time>2026-03-28T11:03:26.824Z</time></trkpt><trkpt lat="45.506595" lon="10.7946717"><ele>151.0</ele><time>2026-03-28T11:03:27.825Z</time></trkpt><trkpt lat="45.5065867" lon="10.7947967"><ele>151.0</ele><time>2026-03-28T11:03:28.825Z</time></trkpt><trkpt lat="45.506585" lon="10.7949067"><ele>151.0</ele><time>2026-03-28T11:03:29.824Z</time></trkpt><trkpt lat="45.50657" lon="10.795005"><ele>151.0</ele><time>2026-03-28T11:03:30.824Z</time></trkpt><trkpt lat="45.5065567" lon="10.7951017"><ele>150.83333333333334</ele><time>2026-03-28T11:03:32.825Z</time></trkpt><trkpt lat="45.50661" lon="10.7951933"><ele>150.66666666666669</ele><time>2026-03-28T11:03:37.825Z</time></trkpt><trkpt lat="45.506645" lon="10.7952767"><ele>150.5</ele><time>2026-03-28T11:03:38.825Z</time></trkpt><trkpt lat="45.5066833" lon="10.7953717"><ele>150.33333333333334</ele><time>2026-03-28T11:03:39.825Z</time></trkpt><trkpt lat="45.5067283" lon="10.7954417"><ele>150.16666666666666</ele><time>2026-03-28T11:03:40.825Z</time></trkpt><trkpt lat="45.5068583" lon="10.7954433"><ele>150.0</ele><time>2026-03-28T11:03:42.824Z</time></trkpt><trkpt lat="45.5069283" lon="10.7953533"><ele>150.0</ele><time>2026-03-28T11:03:43.825Z</time></trkpt><trkpt lat="45.5069683" lon="10.7952317"><ele>150.0</ele><time>2026-03-28T11:03:44.824Z</time></trkpt><trkpt lat="45.5069767" lon="10.7950867"><ele>150.0</ele><time>2026-03-28T11:03:45.825Z</time></trkpt><trkpt lat="45.50698" lon="10.7949433"><ele>150.0</ele><time>2026-03-28T11:03:46.824Z</time></trkpt><trkpt lat="45.506995" lon="10.794805"><ele>150.0</ele><time>2026-03-28T11:03:47.823Z</time></trkpt><trkpt lat="45.5070467" lon="10.7946733"><ele>149.75</ele><time>2026-03-28T11:03:48.823Z</time></trkpt><trkpt lat="45.5071433" lon="10.794545"><ele>149.5</ele><time>2026-03-28T11:03:49.823Z</time></trkpt><trkpt lat="45.5072567" lon="10.7944267"><ele>149.25</ele><time>2026-03-28T11:03:50.824Z</time></trkpt><trkpt lat="45.5073783" lon="10.7942917"><ele>149.0</ele><time>2026-03-28T11:03:51.823Z</time></trkpt><trkpt lat="45.507515" lon="10.7941483"><ele>149.0</ele><time>2026-03-28T11:03:52.823Z</time></trkpt><trkpt lat="45.5076533" lon="10.793995"><ele>149.0</ele><time>2026-03-28T11:03:53.823Z</time></trkpt><trkpt lat="45.5078017" lon="10.7938117"><ele>149.0</ele><time>2026-03-28T11:03:54.823Z</time></trkpt><trkpt lat="45.50796" lon="10.79363"><ele>149.66666666666666</ele><time>2026-03-28T11:03:55.824Z</time></trkpt><trkpt lat="45.5081233" lon="10.7934483"><ele>150.33333333333334</ele><time>2026-03-28T11:03:56.823Z</time></trkpt><trkpt lat="45.5082817" lon="10.7932533"><ele>151.0</ele><time>2026-03-28T11:03:57.824Z</time></trkpt><trkpt lat="45.5084467" lon="10.7930617"><ele>151.0</ele><time>2026-03-28T11:03:58.823Z</time></trkpt><trkpt lat="45.50862" lon="10.792885"><ele>151.0</ele><time>2026-03-28T11:03:59.824Z</time></trkpt><trkpt lat="45.50877" lon="10.7927"><ele>151.0</ele><time>2026-03-28T11:04:00.823Z</time></trkpt><trkpt lat="45.5089133" lon="10.792525"><ele>151.33333333333334</ele><time>2026-03-28T11:04:01.823Z</time></trkpt><trkpt lat="45.5090467" lon="10.7923767"><ele>151.66666666666666</ele><time>2026-03-28T11:04:02.823Z</time></trkpt><trkpt lat="45.5091583" lon="10.7922267"><ele>152.0</ele><time>2026-03-28T11:04:03.824Z</time></trkpt><trkpt lat="45.50928" lon="10.79205"><ele>152.0</ele><time>2026-03-28T11:04:04.823Z</time></trkpt><trkpt lat="45.5093733" lon="10.7918633"><ele>152.0</ele><time>2026-03-28T11:04:05.824Z</time></trkpt><trkpt lat="45.5094517" lon="10.7916633"><ele>152.0</ele><time>2026-03-28T11:04:06.823Z</time></trkpt><trkpt lat="45.5095167" lon="10.7914583"><ele>151.66666666666666</ele><time>2026-03-28T11:04:07.823Z</time></trkpt><trkpt lat="45.509565" lon="10.7912483"><ele>151.33333333333334</ele><time>2026-03-28T11:04:08.823Z</time></trkpt><trkpt lat="45.5096083" lon="10.7910317"><ele>151.0</ele><time>2026-03-28T11:04:09.823Z</time></trkpt><trkpt lat="45.5096383" lon="10.790815"><ele>151.66666666666669</ele><time>2026-03-28T11:04:10.823Z</time></trkpt><trkpt lat="45.5096517" lon="10.7905933"><ele>152.33333333333334</ele><time>2026-03-28T11:04:11.824Z</time></trkpt><trkpt lat="45.5096567" lon="10.790345"><ele>153.0</ele><time>2026-03-28T11:04:12.824Z</time></trkpt><trkpt lat="45.5096583" lon="10.7900883"><ele>153.33333333333334</ele><time>2026-03-28T11:04:13.823Z</time></trkpt><trkpt lat="45.5096517" lon="10.78982"><ele>153.66666666666669</ele><time>2026-03-28T11:04:14.824Z</time></trkpt><trkpt lat="45.5096533" lon="10.78956"><ele>154.0</ele><time>2026-03-28T11:04:15.824Z</time></trkpt><trkpt lat="45.5096533" lon="10.78932"><ele>153.33333333333334</ele><time>2026-03-28T11:04:16.823Z</time></trkpt><trkpt lat="45.5096617" lon="10.7890783"><ele>152.66666666666666</ele><time>2026-03-28T11:04:17.823Z</time></trkpt><trkpt lat="45.5096767" lon="10.7888433"><ele>152.0</ele><time>2026-03-28T11:04:18.824Z</time></trkpt><trkpt lat="45.5097067" lon="10.7886233"><ele>151.75</ele><time>2026-03-28T11:04:19.824Z</time></trkpt><trkpt lat="45.509745" lon="10.7884233"><ele>151.5</ele><time>2026-03-28T11:04:20.823Z</time></trkpt><trkpt lat="45.5097867" lon="10.7882417"><ele>151.25</ele><time>2026-03-28T11:04:21.824Z</time></trkpt><trkpt lat="45.5098233" lon="10.7880583"><ele>151.0</ele><time>2026-03-28T11:04:22.823Z</time></trkpt><trkpt lat="45.5098333" lon="10.7878683"><ele>151.5</ele><time>2026-03-28T11:04:23.823Z</time></trkpt><trkpt lat="45.5098167" lon="10.78766"><ele>152.0</ele><time>2026-03-28T11:04:24.824Z</time></trkpt><trkpt lat="45.50979" lon="10.7874633"><ele>152.5</ele><time>2026-03-28T11:04:25.823Z</time></trkpt><trkpt lat="45.50976" lon="10.7872717"><ele>153.0</ele><time>2026-03-28T11:04:26.824Z</time></trkpt><trkpt lat="45.50973" lon="10.7870833"><ele>153.0</ele><time>2026-03-28T11:04:27.824Z</time></trkpt><trkpt lat="45.509705" lon="10.7868983"><ele>153.0</ele><time>2026-03-28T11:04:28.823Z</time></trkpt><trkpt lat="45.5096817" lon="10.7867083"><ele>153.0</ele><time>2026-03-28T11:04:29.823Z</time></trkpt><trkpt lat="45.50965" lon="10.7865183"><ele>153.0</ele><time>2026-03-28T11:04:30.823Z</time></trkpt><trkpt lat="45.5096233" lon="10.7863067"><ele>152.75</ele><time>2026-03-28T11:04:31.824Z</time></trkpt><trkpt lat="45.509595" lon="10.786095"><ele>152.5</ele><time>2026-03-28T11:04:32.824Z</time></trkpt><trkpt lat="45.509575" lon="10.7858783"><ele>152.25</ele><time>2026-03-28T11:04:33.823Z</time></trkpt><trkpt lat="45.5095533" lon="10.785675"><ele>152.0</ele><time>2026-03-28T11:04:34.824Z</time></trkpt><trkpt lat="45.5095383" lon="10.7854967"><ele>152.0</ele><time>2026-03-28T11:04:35.823Z</time></trkpt><trkpt lat="45.5095267" lon="10.7853267"><ele>152.0</ele><time>2026-03-28T11:04:36.823Z</time></trkpt><trkpt lat="45.509525" lon="10.7851867"><ele>152.0</ele><time>2026-03-28T11:04:37.824Z</time></trkpt><trkpt lat="45.50953" lon="10.7850633"><ele>152.0</ele><time>2026-03-28T11:04:38.823Z</time></trkpt><trkpt lat="45.50955" lon="10.784965"><ele>152.0</ele><time>2026-03-28T11:04:39.823Z</time></trkpt><trkpt lat="45.5095783" lon="10.7848817"><ele>152.0</ele><time>2026-03-28T11:04:40.823Z</time></trkpt><trkpt lat="45.5096383" lon="10.7848433"><ele>152.25</ele><time>2026-03-28T11:04:41.823Z</time></trkpt><trkpt lat="45.5097433" lon="10.7848217"><ele>152.5</ele><time>2026-03-28T11:04:42.824Z</time></trkpt><trkpt lat="45.509875" lon="10.784815"><ele>152.75</ele><time>2026-03-28T11:04:43.823Z</time></trkpt><trkpt lat="45.510015" lon="10.78481"><ele>153.0</ele><time>2026-03-28T11:04:44.823Z</time></trkpt><trkpt lat="45.5101683" lon="10.784825"><ele>153.0</ele><time>2026-03-28T11:04:45.824Z</time></trkpt><trkpt lat="45.5103217" lon="10.784845"><ele>153.0</ele><time>2026-03-28T11:04:46.824Z</time></trkpt><trkpt lat="45.5104767" lon="10.7848683"><ele>153.0</ele><time>2026-03-28T11:04:47.824Z</time></trkpt><trkpt lat="45.5106283" lon="10.7848917"><ele>153.66666666666666</ele><time>2026-03-28T11:04:48.824Z</time></trkpt><trkpt lat="45.51078" lon="10.7848967"><ele>154.33333333333331</ele><time>2026-03-28T11:04:49.824Z</time></trkpt><trkpt lat="45.510925" lon="10.7849083"><ele>155.0</ele><time>2026-03-28T11:04:50.823Z</time></trkpt><trkpt lat="45.5110817" lon="10.78492"><ele>155.0</ele><time>2026-03-28T11:04:51.823Z</time></trkpt><trkpt lat="45.51122" lon="10.7849367"><ele>155.0</ele><time>2026-03-28T11:04:52.823Z</time></trkpt><trkpt lat="45.5113533" lon="10.7849367"><ele>155.0</ele><time>2026-03-28T11:04:53.823Z</time></trkpt><trkpt lat="45.5114817" lon="10.7849433"><ele>155.0</ele><time>2026-03-28T11:04:54.824Z</time></trkpt><trkpt lat="45.5116133" lon="10.78495"><ele>155.4</ele><time>2026-03-28T11:04:55.824Z</time></trkpt><trkpt lat="45.51173" lon="10.7849583"><ele>155.8</ele><time>2026-03-28T11:04:56.824Z</time></trkpt><trkpt lat="45.5118317" lon="10.7849717"><ele>156.2</ele><time>2026-03-28T11:04:57.824Z</time></trkpt><trkpt lat="45.5119217" lon="10.7849833"><ele>156.6</ele><time>2026-03-28T11:04:58.823Z</time></trkpt><trkpt lat="45.512015" lon="10.7849617"><ele>157.0</ele><time>2026-03-28T11:05:00.823Z</time></trkpt><trkpt lat="45.5120433" lon="10.7848217"><ele>157.0</ele><time>2026-03-28T11:05:02.823Z</time></trkpt><trkpt lat="45.51206" lon="10.7846333"><ele>157.0</ele><time>2026-03-28T11:05:04.824Z</time></trkpt><trkpt lat="45.5120683" lon="10.7845067"><ele>157.0</ele><time>2026-03-28T11:05:05.823Z</time></trkpt><trkpt lat="45.5120933" lon="10.7843883"><ele>157.0</ele><time>2026-03-28T11:05:07.824Z</time></trkpt><trkpt lat="45.5122083" lon="10.7843567"><ele>157.0</ele><time>2026-03-28T11:05:10.823Z</time></trkpt><trkpt lat="45.5123017" lon="10.7843683"><ele>156.5</ele><time>2026-03-28T11:05:11.823Z</time></trkpt><trkpt lat="45.5124083" lon="10.7843817"><ele>156.0</ele><time>2026-03-28T11:05:12.823Z</time></trkpt><trkpt lat="45.5125283" lon="10.78438"><ele>155.5</ele><time>2026-03-28T11:05:13.823Z</time></trkpt><trkpt lat="45.5126533" lon="10.7843717"><ele>155.0</ele><time>2026-03-28T11:05:14.823Z</time></trkpt><trkpt lat="45.5127783" lon="10.7843683"><ele>156.0</ele><time>2026-03-28T11:05:15.823Z</time></trkpt><trkpt lat="45.5129167" lon="10.7843617"><ele>157.0</ele><time>2026-03-28T11:05:16.824Z</time></trkpt><trkpt lat="45.5130683" lon="10.7843583"><ele>158.0</ele><time>2026-03-28T11:05:17.823Z</time></trkpt><trkpt lat="45.5132283" lon="10.7843517"><ele>158.0</ele><time>2026-03-28T11:05:18.824Z</time></trkpt><trkpt lat="45.5133883" lon="10.7843367"><ele>158.0</ele><time>2026-03-28T11:05:19.824Z</time></trkpt><trkpt lat="45.5135633" lon="10.784325"><ele>158.0</ele><time>2026-03-28T11:05:20.824Z</time></trkpt><trkpt lat="45.513735" lon="10.7843"><ele>159.33333333333331</ele><time>2026-03-28T11:05:21.823Z</time></trkpt><trkpt lat="45.5139117" lon="10.78427"><ele>160.66666666666666</ele><time>2026-03-28T11:05:22.823Z</time></trkpt><trkpt lat="45.5140933" lon="10.7842367"><ele>162.0</ele><time>2026-03-28T11:05:23.823Z</time></trkpt><trkpt lat="45.514285" lon="10.784205"><ele>162.0</ele><time>2026-03-28T11:05:24.824Z</time></trkpt><trkpt lat="45.5144683" lon="10.7841717"><ele>162.0</ele><time>2026-03-28T11:05:25.823Z</time></trkpt><trkpt lat="45.514645" lon="10.7841333"><ele>162.0</ele><time>2026-03-28T11:05:26.823Z</time></trkpt><trkpt lat="45.5147883" lon="10.7841017"><ele>162.75</ele><time>2026-03-28T11:05:27.823Z</time></trkpt><trkpt lat="45.5149367" lon="10.7840783"><ele>163.5</ele><time>2026-03-28T11:05:28.824Z</time></trkpt><trkpt lat="45.51506" lon="10.7840683"><ele>164.25</ele><time>2026-03-28T11:05:29.824Z</time></trkpt><trkpt lat="45.51517" lon="10.7840367"><ele>165.0</ele><time>2026-03-28T11:05:30.824Z</time></trkpt><trkpt lat="45.51527" lon="10.7840017"><ele>165.0</ele><time>2026-03-28T11:05:31.823Z</time></trkpt><trkpt lat="45.515355" lon="10.78396"><ele>165.0</ele><time>2026-03-28T11:05:32.823Z</time></trkpt><trkpt lat="45.51544" lon="10.7838917"><ele>165.0</ele><time>2026-03-28T11:05:33.823Z</time></trkpt><trkpt lat="45.51552" lon="10.7838217"><ele>165.0</ele><time>2026-03-28T11:05:34.823Z</time></trkpt><trkpt lat="45.515605" lon="10.7837567"><ele>165.0</ele><time>2026-03-28T11:05:35.824Z</time></trkpt><trkpt lat="45.5157" lon="10.7837"><ele>165.2</ele><time>2026-03-28T11:05:36.824Z</time></trkpt><trkpt lat="45.51579" lon="10.7836617"><ele>165.4</ele><time>2026-03-28T11:05:37.823Z</time></trkpt><trkpt lat="45.5158817" lon="10.7836533"><ele>165.60000000000002</ele><time>2026-03-28T11:05:38.823Z</time></trkpt><trkpt lat="45.51599" lon="10.7836683"><ele>165.8</ele><time>2026-03-28T11:05:39.823Z</time></trkpt><trkpt lat="45.516115" lon="10.7836783"><ele>166.0</ele><time>2026-03-28T11:05:40.824Z</time></trkpt><trkpt lat="45.51623" lon="10.7836983"><ele>166.5</ele><time>2026-03-28T11:05:41.824Z</time></trkpt><trkpt lat="45.5163567" lon="10.7836833"><ele>167.0</ele><time>2026-03-28T11:05:42.824Z</time></trkpt><trkpt lat="45.51648" lon="10.78366"><ele>167.5</ele><time>2026-03-28T11:05:43.823Z</time></trkpt><trkpt lat="45.5166017" lon="10.7836233"><ele>168.0</ele><time>2026-03-28T11:05:44.823Z</time></trkpt><trkpt lat="45.5167083" lon="10.78359"><ele>168.0</ele><time>2026-03-28T11:05:45.823Z</time></trkpt><trkpt lat="45.5167917" lon="10.7835667"><ele>168.0</ele><time>2026-03-28T11:05:46.823Z</time></trkpt><trkpt lat="45.5168633" lon="10.783545"><ele>168.0</ele><time>2026-03-28T11:05:47.823Z</time></trkpt><trkpt lat="45.516945" lon="10.7834917"><ele>168.0</ele><time>2026-03-28T11:05:49.823Z</time></trkpt><trkpt lat="45.5169883" lon="10.783425"><ele>168.0</ele><time>2026-03-28T11:05:52.824Z</time></trkpt><trkpt lat="45.5170517" lon="10.78354"><ele>168.0</ele><time>2026-03-28T11:05:55.824Z</time></trkpt><trkpt lat="45.517165" lon="10.783535"><ele>168.0</ele><time>2026-03-28T11:05:57.824Z</time></trkpt><trkpt lat="45.5172567" lon="10.7835167"><ele>168.0</ele><time>2026-03-28T11:05:58.823Z</time></trkpt><trkpt lat="45.5173733" lon="10.7834883"><ele>168.0</ele><time>2026-03-28T11:05:59.823Z</time></trkpt><trkpt lat="45.51751" lon="10.7834417"><ele>168.0</ele><time>2026-03-28T11:06:00.823Z</time></trkpt><trkpt lat="45.5176767" lon="10.7833833"><ele>168.0</ele><time>2026-03-28T11:06:01.823Z</time></trkpt><trkpt lat="45.517865" lon="10.783335"><ele>168.0</ele><time>2026-03-28T11:06:02.823Z</time></trkpt><trkpt lat="45.5180483" lon="10.7832867"><ele>168.0</ele><time>2026-03-28T11:06:03.824Z</time></trkpt><trkpt lat="45.5182433" lon="10.7832383"><ele>168.0</ele><time>2026-03-28T11:06:04.823Z</time></trkpt><trkpt lat="45.518425" lon="10.7831867"><ele>168.0</ele><time>2026-03-28T11:06:05.823Z</time></trkpt><trkpt lat="45.518605" lon="10.7831367"><ele>168.0</ele><time>2026-03-28T11:06:06.823Z</time></trkpt><trkpt lat="45.51877" lon="10.7830933"><ele>168.0</ele><time>2026-03-28T11:06:07.823Z</time></trkpt><trkpt lat="45.518935" lon="10.7830517"><ele>168.0</ele><time>2026-03-28T11:06:08.823Z</time></trkpt><trkpt lat="45.5191067" lon="10.783005"><ele>168.0</ele><time>2026-03-28T11:06:09.823Z</time></trkpt><trkpt lat="45.519285" lon="10.7829583"><ele>168.0</ele><time>2026-03-28T11:06:10.823Z</time></trkpt><trkpt lat="45.51946" lon="10.7829067"><ele>168.0</ele><time>2026-03-28T11:06:11.824Z</time></trkpt><trkpt lat="45.5196417" lon="10.7828567"><ele>168.0</ele><time>2026-03-28T11:06:12.824Z</time></trkpt><trkpt lat="45.51982" lon="10.782815"><ele>167.66666666666666</ele><time>2026-03-28T11:06:13.824Z</time></trkpt><trkpt lat="45.52" lon="10.7827717"><ele>167.33333333333331</ele><time>2026-03-28T11:06:14.824Z</time></trkpt><trkpt lat="45.5201767" lon="10.7827283"><ele>167.0</ele><time>2026-03-28T11:06:15.823Z</time></trkpt><trkpt lat="45.5203517" lon="10.78269"><ele>167.33333333333331</ele><time>2026-03-28T11:06:16.824Z</time></trkpt><trkpt lat="45.5205367" lon="10.7826467"><ele>167.66666666666666</ele><time>2026-03-28T11:06:17.823Z</time></trkpt><trkpt lat="45.5207167" lon="10.7826083"><ele>168.0</ele><time>2026-03-28T11:06:18.824Z</time></trkpt><trkpt lat="45.5208867" lon="10.7825833"><ele>168.0</ele><time>2026-03-28T11:06:19.823Z</time></trkpt><trkpt lat="45.521045" lon="10.7825333"><ele>168.0</ele><time>2026-03-28T11:06:20.824Z</time></trkpt><trkpt lat="45.5211983" lon="10.7824783"><ele>168.0</ele><time>2026-03-28T11:06:21.823Z</time></trkpt><trkpt lat="45.5213567" lon="10.7824217"><ele>168.66666666666666</ele><time>2026-03-28T11:06:22.824Z</time></trkpt><trkpt lat="45.5215217" lon="10.78236"><ele>169.33333333333331</ele><time>2026-03-28T11:06:23.824Z</time></trkpt><trkpt lat="45.5216867" lon="10.7823"><ele>170.0</ele><time>2026-03-28T11:06:24.823Z</time></trkpt><trkpt lat="45.521855" lon="10.7822533"><ele>170.0</ele><time>2026-03-28T11:06:25.824Z</time></trkpt><trkpt lat="45.5220283" lon="10.7822133"><ele>170.0</ele><time>2026-03-28T11:06:26.823Z</time></trkpt><trkpt lat="45.52219" lon="10.78217"><ele>170.0</ele><time>2026-03-28T11:06:27.824Z</time></trkpt><trkpt lat="45.5223583" lon="10.7821283"><ele>169.33333333333331</ele><time>2026-03-28T11:06:28.823Z</time></trkpt><trkpt lat="45.5225317" lon="10.7820933"><ele>168.66666666666666</ele><time>2026-03-28T11:06:29.824Z</time></trkpt><trkpt lat="45.522705" lon="10.782045"><ele>168.0</ele><time>2026-03-28T11:06:30.823Z</time></trkpt><trkpt lat="45.5228783" lon="10.782"><ele>166.66666666666666</ele><time>2026-03-28T11:06:31.823Z</time></trkpt><trkpt lat="45.5230467" lon="10.7819617"><ele>165.33333333333331</ele><time>2026-03-28T11:06:32.823Z</time></trkpt><trkpt lat="45.5232017" lon="10.781925"><ele>164.0</ele><time>2026-03-28T11:06:33.823Z</time></trkpt><trkpt lat="45.5233567" lon="10.78189"><ele>164.0</ele><time>2026-03-28T11:06:34.824Z</time></trkpt><trkpt lat="45.5235067" lon="10.781875"><ele>164.0</ele><time>2026-03-28T11:06:35.823Z</time></trkpt><trkpt lat="45.5236583" lon="10.7818467"><ele>164.0</ele><time>2026-03-28T11:06:36.823Z</time></trkpt><trkpt lat="45.52381" lon="10.781805"><ele>163.79999999999998</ele><time>2026-03-28T11:06:37.823Z</time></trkpt><trkpt lat="45.52393" lon="10.781775"><ele>163.6</ele><time>2026-03-28T11:06:38.824Z</time></trkpt><trkpt lat="45.52404" lon="10.7817383"><ele>163.4</ele><time>2026-03-28T11:06:39.823Z</time></trkpt><trkpt lat="45.524135" lon="10.7817133"><ele>163.2</ele><time>2026-03-28T11:06:40.823Z</time></trkpt><trkpt lat="45.524215" lon="10.7816867"><ele>163.0</ele><time>2026-03-28T11:06:41.823Z</time></trkpt><trkpt lat="45.5242917" lon="10.78167"><ele>163.0</ele><time>2026-03-28T11:06:42.824Z</time></trkpt><trkpt lat="45.524375" lon="10.7816033"><ele>163.0</ele><time>2026-03-28T11:06:44.823Z</time></trkpt><trkpt lat="45.5244317" lon="10.781535"><ele>163.0</ele><time>2026-03-28T11:06:45.824Z</time></trkpt><trkpt lat="45.5244917" lon="10.7814483"><ele>163.0</ele><time>2026-03-28T11:06:46.824Z</time></trkpt><trkpt lat="45.5245467" lon="10.78131"><ele>163.0</ele><time>2026-03-28T11:06:47.824Z</time></trkpt><trkpt lat="45.524595" lon="10.7811333"><ele>162.5</ele><time>2026-03-28T11:06:48.824Z</time></trkpt><trkpt lat="45.5246283" lon="10.7809433"><ele>162.0</ele><time>2026-03-28T11:06:49.823Z</time></trkpt><trkpt lat="45.5246367" lon="10.7807367"><ele>161.5</ele><time>2026-03-28T11:06:50.824Z</time></trkpt><trkpt lat="45.5246183" lon="10.78054"><ele>161.0</ele><time>2026-03-28T11:06:51.823Z</time></trkpt><trkpt lat="45.5246083" lon="10.7803317"><ele>161.0</ele><time>2026-03-28T11:06:52.823Z</time></trkpt><trkpt lat="45.524595" lon="10.7801067"><ele>161.0</ele><time>2026-03-28T11:06:53.824Z</time></trkpt><trkpt lat="45.5246" lon="10.7798817"><ele>161.0</ele><time>2026-03-28T11:06:54.824Z</time></trkpt><trkpt lat="45.5246183" lon="10.7796633"><ele>161.0</ele><time>2026-03-28T11:06:55.824Z</time></trkpt><trkpt lat="45.5246417" lon="10.77945"><ele>161.0</ele><time>2026-03-28T11:06:56.823Z</time></trkpt><trkpt lat="45.5246533" lon="10.77923"><ele>161.0</ele><time>2026-03-28T11:06:57.823Z</time></trkpt><trkpt lat="45.52465" lon="10.7790233"><ele>160.75</ele><time>2026-03-28T11:06:58.823Z</time></trkpt><trkpt lat="45.52463" lon="10.778825"><ele>160.5</ele><time>2026-03-28T11:06:59.823Z</time></trkpt><trkpt lat="45.5246067" lon="10.7786233"><ele>160.25</ele><time>2026-03-28T11:07:00.823Z</time></trkpt><trkpt lat="45.5245817" lon="10.778405"><ele>160.0</ele><time>2026-03-28T11:07:01.823Z</time></trkpt><trkpt lat="45.5245633" lon="10.7781883"><ele>159.66666666666669</ele><time>2026-03-28T11:07:02.824Z</time></trkpt><trkpt lat="45.52454" lon="10.7779567"><ele>159.33333333333334</ele><time>2026-03-28T11:07:03.824Z</time></trkpt><trkpt lat="45.5245217" lon="10.7777417"><ele>159.0</ele><time>2026-03-28T11:07:04.824Z</time></trkpt><trkpt lat="45.5245017" lon="10.7775167"><ele>159.0</ele><time>2026-03-28T11:07:05.824Z</time></trkpt><trkpt lat="45.5244733" lon="10.7773"><ele>159.0</ele><time>2026-03-28T11:07:06.823Z</time></trkpt><trkpt lat="45.5244517" lon="10.7770533"><ele>159.0</ele><time>2026-03-28T11:07:07.824Z</time></trkpt><trkpt lat="45.5244267" lon="10.776805"><ele>158.75</ele><time>2026-03-28T11:07:08.824Z</time></trkpt><trkpt lat="45.5244033" lon="10.7765883"><ele>158.5</ele><time>2026-03-28T11:07:09.824Z</time></trkpt><trkpt lat="45.5243983" lon="10.7764083"><ele>158.25</ele><time>2026-03-28T11:07:10.824Z</time></trkpt><trkpt lat="45.5243983" lon="10.7762667"><ele>158.0</ele><time>2026-03-28T11:07:11.824Z</time></trkpt><trkpt lat="45.5244033" lon="10.7761617"><ele>158.0</ele><time>2026-03-28T11:07:12.824Z</time></trkpt><trkpt lat="45.5244233" lon="10.7760717"><ele>158.0</ele><time>2026-03-28T11:07:13.824Z</time></trkpt><trkpt lat="45.52447" lon="10.776"><ele>158.0</ele><time>2026-03-28T11:07:14.823Z</time></trkpt><trkpt lat="45.5245417" lon="10.7759567"><ele>158.0</ele><time>2026-03-28T11:07:15.824Z</time></trkpt><trkpt lat="45.5246267" lon="10.7759283"><ele>158.0</ele><time>2026-03-28T11:07:16.824Z</time></trkpt><trkpt lat="45.5247283" lon="10.7759117"><ele>158.0</ele><time>2026-03-28T11:07:17.823Z</time></trkpt><trkpt lat="45.5248517" lon="10.77591"><ele>158.0</ele><time>2026-03-28T11:07:18.824Z</time></trkpt><trkpt lat="45.52503" lon="10.77591"><ele>158.0</ele><time>2026-03-28T11:07:19.824Z</time></trkpt><trkpt lat="45.5251983" lon="10.7759133"><ele>158.0</ele><time>2026-03-28T11:07:20.823Z</time></trkpt><trkpt lat="45.5253567" lon="10.7759"><ele>158.0</ele><time>2026-03-28T11:07:21.824Z</time></trkpt><trkpt lat="45.5255217" lon="10.77587"><ele>158.0</ele><time>2026-03-28T11:07:22.823Z</time></trkpt><trkpt lat="45.5256833" lon="10.7758333"><ele>158.0</ele><time>2026-03-28T11:07:23.823Z</time></trkpt><trkpt lat="45.5258267" lon="10.7758017"><ele>158.0</ele><time>2026-03-28T11:07:24.823Z</time></trkpt><trkpt lat="45.5259583" lon="10.7757683"><ele>158.0</ele><time>2026-03-28T11:07:25.824Z</time></trkpt><trkpt lat="45.5261017" lon="10.7757167"><ele>158.0</ele><time>2026-03-28T11:07:26.824Z</time></trkpt><trkpt lat="45.5262567" lon="10.7756533"><ele>158.0</ele><time>2026-03-28T11:07:27.824Z</time></trkpt><trkpt lat="45.526395" lon="10.775565"><ele>158.0</ele><time>2026-03-28T11:07:28.824Z</time></trkpt><trkpt lat="45.52652" lon="10.7755017"><ele>158.0</ele><time>2026-03-28T11:07:29.824Z</time></trkpt><trkpt lat="45.52664" lon="10.7754467"><ele>158.0</ele><time>2026-03-28T11:07:30.824Z</time></trkpt><trkpt lat="45.526755" lon="10.775435"><ele>158.0</ele><time>2026-03-28T11:07:31.824Z</time></trkpt><trkpt lat="45.52687" lon="10.7754717"><ele>158.0</ele><time>2026-03-28T11:07:32.823Z</time></trkpt><trkpt lat="45.52699" lon="10.7755333"><ele>158.0</ele><time>2026-03-28T11:07:33.823Z</time></trkpt><trkpt lat="45.5271233" lon="10.7755983"><ele>158.0</ele><time>2026-03-28T11:07:34.823Z</time></trkpt><trkpt lat="45.5272783" lon="10.7756967"><ele>158.0</ele><time>2026-03-28T11:07:35.824Z</time></trkpt><trkpt lat="45.5274483" lon="10.77578"><ele>158.33333333333331</ele><time>2026-03-28T11:07:36.823Z</time></trkpt><trkpt lat="45.5276067" lon="10.7758767"><ele>158.66666666666666</ele><time>2026-03-28T11:07:37.823Z</time></trkpt><trkpt lat="45.5277617" lon="10.7759617"><ele>159.0</ele><time>2026-03-28T11:07:38.822Z</time></trkpt><trkpt lat="45.5279133" lon="10.7760083"><ele>158.33333333333334</ele><time>2026-03-28T11:07:39.822Z</time></trkpt><trkpt lat="45.5280733" lon="10.77603"><ele>157.66666666666669</ele><time>2026-03-28T11:07:40.823Z</time></trkpt><trkpt lat="45.52823" lon="10.7760333"><ele>157.0</ele><time>2026-03-28T11:07:41.822Z</time></trkpt><trkpt lat="45.528385" lon="10.7760317"><ele>157.0</ele><time>2026-03-28T11:07:42.822Z</time></trkpt><trkpt lat="45.5285333" lon="10.7760283"><ele>157.0</ele><time>2026-03-28T11:07:43.822Z</time></trkpt><trkpt lat="45.5286533" lon="10.7760417"><ele>157.0</ele><time>2026-03-28T11:07:44.822Z</time></trkpt><trkpt lat="45.528775" lon="10.7760383"><ele>157.0</ele><time>2026-03-28T11:07:45.823Z</time></trkpt><trkpt lat="45.5289017" lon="10.7760017"><ele>157.75</ele><time>2026-03-28T11:07:46.822Z</time></trkpt><trkpt lat="45.5290333" lon="10.77594"><ele>158.5</ele><time>2026-03-28T11:07:47.823Z</time></trkpt><trkpt lat="45.5291583" lon="10.7758533"><ele>159.25</ele><time>2026-03-28T11:07:48.822Z</time></trkpt><trkpt lat="45.5292933" lon="10.775725"><ele>160.0</ele><time>2026-03-28T11:07:49.822Z</time></trkpt><trkpt lat="45.5294283" lon="10.77559"><ele>160.0</ele><time>2026-03-28T11:07:50.822Z</time></trkpt><trkpt lat="45.52954" lon="10.7754633"><ele>160.0</ele><time>2026-03-28T11:07:51.822Z</time></trkpt><trkpt lat="45.5296317" lon="10.775375"><ele>160.0</ele><time>2026-03-28T11:07:52.822Z</time></trkpt><trkpt lat="45.5297267" lon="10.775285"><ele>160.0</ele><time>2026-03-28T11:07:53.823Z</time></trkpt><trkpt lat="45.5298167" lon="10.7752483"><ele>160.2</ele><time>2026-03-28T11:07:54.823Z</time></trkpt><trkpt lat="45.5298917" lon="10.775245"><ele>160.4</ele><time>2026-03-28T11:07:55.823Z</time></trkpt><trkpt lat="45.5299817" lon="10.775285"><ele>160.60000000000002</ele><time>2026-03-28T11:07:56.822Z</time></trkpt><trkpt lat="45.530095" lon="10.7753533"><ele>160.8</ele><time>2026-03-28T11:07:57.823Z</time></trkpt><trkpt lat="45.5302133" lon="10.775435"><ele>161.0</ele><time>2026-03-28T11:07:58.822Z</time></trkpt><trkpt lat="45.5303367" lon="10.77554"><ele>161.0</ele><time>2026-03-28T11:07:59.823Z</time></trkpt><trkpt lat="45.5304667" lon="10.7756183"><ele>161.0</ele><time>2026-03-28T11:08:00.822Z</time></trkpt><trkpt lat="45.5305733" lon="10.7756783"><ele>161.0</ele><time>2026-03-28T11:08:01.822Z</time></trkpt><trkpt lat="45.5306533" lon="10.7757817"><ele>161.0</ele><time>2026-03-28T11:08:02.822Z</time></trkpt><trkpt lat="45.5307167" lon="10.775905"><ele>160.60000000000002</ele><time>2026-03-28T11:08:03.822Z</time></trkpt><trkpt lat="45.530755" lon="10.7760583"><ele>160.20000000000002</ele><time>2026-03-28T11:08:04.823Z</time></trkpt><trkpt lat="45.5307883" lon="10.776215"><ele>159.8</ele><time>2026-03-28T11:08:05.823Z</time></trkpt><trkpt lat="45.53082" lon="10.776365"><ele>159.4</ele><time>2026-03-28T11:08:06.823Z</time></trkpt><trkpt lat="45.530875" lon="10.7764917"><ele>159.0</ele><time>2026-03-28T11:08:07.823Z</time></trkpt><trkpt lat="45.5309517" lon="10.7765967"><ele>159.0</ele><time>2026-03-28T11:08:08.823Z</time></trkpt><trkpt lat="45.531045" lon="10.7766767"><ele>159.0</ele><time>2026-03-28T11:08:09.823Z</time></trkpt><trkpt lat="45.5311567" lon="10.7767333"><ele>159.0</ele><time>2026-03-28T11:08:10.822Z</time></trkpt><trkpt lat="45.5312717" lon="10.7767767"><ele>159.0</ele><time>2026-03-28T11:08:11.822Z</time></trkpt><trkpt lat="45.5313817" lon="10.77682"><ele>160.0</ele><time>2026-03-28T11:08:12.822Z</time></trkpt><trkpt lat="45.5314767" lon="10.7768633"><ele>161.0</ele><time>2026-03-28T11:08:13.823Z</time></trkpt><trkpt lat="45.531545" lon="10.7769233"><ele>162.0</ele><time>2026-03-28T11:08:14.822Z</time></trkpt><trkpt lat="45.531605" lon="10.7770633"><ele>163.0</ele><time>2026-03-28T11:08:16.822Z</time></trkpt><trkpt lat="45.531625" lon="10.77715"><ele>164.0</ele><time>2026-03-28T11:08:17.822Z</time></trkpt><trkpt lat="45.5316317" lon="10.777285"><ele>164.0</ele><time>2026-03-28T11:08:19.822Z</time></trkpt><trkpt lat="45.531665" lon="10.7773833"><ele>164.0</ele><time>2026-03-28T11:08:22.823Z</time></trkpt><trkpt lat="45.5317883" lon="10.77731"><ele>164.0</ele><time>2026-03-28T11:08:24.822Z</time></trkpt><trkpt lat="45.53188" lon="10.7772167"><ele>164.0</ele><time>2026-03-28T11:08:25.823Z</time></trkpt><trkpt lat="45.5319983" lon="10.7770817"><ele>164.33333333333331</ele><time>2026-03-28T11:08:26.822Z</time></trkpt><trkpt lat="45.53214" lon="10.7769283"><ele>164.66666666666666</ele><time>2026-03-28T11:08:27.823Z</time></trkpt><trkpt lat="45.5322917" lon="10.7767633"><ele>165.0</ele><time>2026-03-28T11:08:28.822Z</time></trkpt><trkpt lat="45.5324567" lon="10.7765767"><ele>165.0</ele><time>2026-03-28T11:08:29.822Z</time></trkpt><trkpt lat="45.5326383" lon="10.7763917"><ele>165.0</ele><time>2026-03-28T11:08:30.823Z</time></trkpt><trkpt lat="45.532815" lon="10.7762167"><ele>165.0</ele><time>2026-03-28T11:08:31.823Z</time></trkpt><trkpt lat="45.5329867" lon="10.776045"><ele>164.66666666666666</ele><time>2026-03-28T11:08:32.822Z</time></trkpt><trkpt lat="45.5331633" lon="10.7759267"><ele>164.33333333333331</ele><time>2026-03-28T11:08:33.822Z</time></trkpt><trkpt lat="45.5333283" lon="10.7758433"><ele>164.0</ele><time>2026-03-28T11:08:34.823Z</time></trkpt><trkpt lat="45.5335067" lon="10.7758"><ele>164.0</ele><time>2026-03-28T11:08:35.822Z</time></trkpt><trkpt lat="45.5337017" lon="10.775805"><ele>164.0</ele><time>2026-03-28T11:08:36.822Z</time></trkpt><trkpt lat="45.5339083" lon="10.77587"><ele>164.0</ele><time>2026-03-28T11:08:37.822Z</time></trkpt><trkpt lat="45.5341183" lon="10.775955"><ele>165.0</ele><time>2026-03-28T11:08:38.823Z</time></trkpt><trkpt lat="45.5343333" lon="10.7760417"><ele>166.0</ele><time>2026-03-28T11:08:39.823Z</time></trkpt><trkpt lat="45.5345383" lon="10.77616"><ele>167.0</ele><time>2026-03-28T11:08:40.823Z</time></trkpt><trkpt lat="45.5347533" lon="10.776265"><ele>168.0</ele><time>2026-03-28T11:08:41.823Z</time></trkpt><trkpt lat="45.5349483" lon="10.776305"><ele>169.0</ele><time>2026-03-28T11:08:42.822Z</time></trkpt><trkpt lat="45.535135" lon="10.7762983"><ele>170.0</ele><time>2026-03-28T11:08:43.822Z</time></trkpt><trkpt lat="45.53532" lon="10.776245"><ele>170.0</ele><time>2026-03-28T11:08:44.822Z</time></trkpt><trkpt lat="45.535475" lon="10.776165"><ele>170.0</ele><time>2026-03-28T11:08:45.822Z</time></trkpt><trkpt lat="45.5356367" lon="10.7760783"><ele>170.0</ele><time>2026-03-28T11:08:46.823Z</time></trkpt><trkpt lat="45.5357833" lon="10.7759817"><ele>170.0</ele><time>2026-03-28T11:08:47.822Z</time></trkpt><trkpt lat="45.53591" lon="10.7758817"><ele>170.0</ele><time>2026-03-28T11:08:48.823Z</time></trkpt><trkpt lat="45.5360383" lon="10.775795"><ele>170.0</ele><time>2026-03-28T11:08:49.822Z</time></trkpt><trkpt lat="45.5361633" lon="10.77572"><ele>170.0</ele><time>2026-03-28T11:08:50.822Z</time></trkpt><trkpt lat="45.5362817" lon="10.7756483"><ele>170.25</ele><time>2026-03-28T11:08:51.822Z</time></trkpt><trkpt lat="45.5364017" lon="10.7755733"><ele>170.5</ele><time>2026-03-28T11:08:52.823Z</time></trkpt><trkpt lat="45.5365183" lon="10.7755067"><ele>170.75</ele><time>2026-03-28T11:08:53.823Z</time></trkpt><trkpt lat="45.5366417" lon="10.7754383"><ele>171.0</ele><time>2026-03-28T11:08:54.823Z</time></trkpt><trkpt lat="45.5367683" lon="10.77537"><ele>171.0</ele><time>2026-03-28T11:08:55.822Z</time></trkpt><trkpt lat="45.5368883" lon="10.775305"><ele>171.0</ele><time>2026-03-28T11:08:56.823Z</time></trkpt><trkpt lat="45.537005" lon="10.775225"><ele>171.0</ele><time>2026-03-28T11:08:57.822Z</time></trkpt><trkpt lat="45.5371083" lon="10.775165"><ele>171.0</ele><time>2026-03-28T11:08:58.823Z</time></trkpt><trkpt lat="45.5372" lon="10.775115"><ele>171.60000000000002</ele><time>2026-03-28T11:08:59.823Z</time></trkpt><trkpt lat="45.5372683" lon="10.775085"><ele>172.2</ele><time>2026-03-28T11:09:00.823Z</time></trkpt><trkpt lat="45.53737" lon="10.7750533"><ele>172.8</ele><time>2026-03-28T11:09:02.823Z</time></trkpt><trkpt lat="45.5374583" lon="10.7750283"><ele>173.39999999999998</ele><time>2026-03-28T11:09:04.823Z</time></trkpt><trkpt lat="45.537535" lon="10.7750683"><ele>174.0</ele><time>2026-03-28T11:09:06.822Z</time></trkpt><trkpt lat="45.5375983" lon="10.7752367"><ele>174.25</ele><time>2026-03-28T11:09:08.823Z</time></trkpt><trkpt lat="45.537615" lon="10.7753817"><ele>174.5</ele><time>2026-03-28T11:09:09.823Z</time></trkpt><trkpt lat="45.5376167" lon="10.7755533"><ele>174.75</ele><time>2026-03-28T11:09:10.822Z</time></trkpt><trkpt lat="45.5376183" lon="10.7757483"><ele>175.0</ele><time>2026-03-28T11:09:11.823Z</time></trkpt><trkpt lat="45.5376233" lon="10.77597"><ele>174.33333333333334</ele><time>2026-03-28T11:09:12.822Z</time></trkpt><trkpt lat="45.5376133" lon="10.7762283"><ele>173.66666666666666</ele><time>2026-03-28T11:09:13.822Z</time></trkpt><trkpt lat="45.5376183" lon="10.7765"><ele>173.0</ele><time>2026-03-28T11:09:14.822Z</time></trkpt><trkpt lat="45.5376283" lon="10.7767667"><ele>174.0</ele><time>2026-03-28T11:09:15.822Z</time></trkpt><trkpt lat="45.5376433" lon="10.7770167"><ele>175.0</ele><time>2026-03-28T11:09:16.822Z</time></trkpt><trkpt lat="45.5376467" lon="10.7772533"><ele>176.0</ele><time>2026-03-28T11:09:17.823Z</time></trkpt><trkpt lat="45.5376433" lon="10.777475"><ele>175.75</ele><time>2026-03-28T11:09:18.823Z</time></trkpt><trkpt lat="45.537655" lon="10.7776967"><ele>175.5</ele><time>2026-03-28T11:09:19.823Z</time></trkpt><trkpt lat="45.5376683" lon="10.77787"><ele>175.25</ele><time>2026-03-28T11:09:20.823Z</time></trkpt><trkpt lat="45.5376833" lon="10.7780783"><ele>175.0</ele><time>2026-03-28T11:09:21.822Z</time></trkpt><trkpt lat="45.53769" lon="10.7782767"><ele>175.0</ele><time>2026-03-28T11:09:22.823Z</time></trkpt><trkpt lat="45.537685" lon="10.7784667"><ele>175.0</ele><time>2026-03-28T11:09:23.823Z</time></trkpt><trkpt lat="45.5376967" lon="10.7786417"><ele>175.0</ele><time>2026-03-28T11:09:24.822Z</time></trkpt><trkpt lat="45.5377067" lon="10.7788133"><ele>175.0</ele><time>2026-03-28T11:09:25.822Z</time></trkpt><trkpt lat="45.5377167" lon="10.7789767"><ele>174.5</ele><time>2026-03-28T11:09:26.822Z</time></trkpt><trkpt lat="45.5377367" lon="10.7791567"><ele>174.0</ele><time>2026-03-28T11:09:27.822Z</time></trkpt><trkpt lat="45.5377533" lon="10.7793333"><ele>173.5</ele><time>2026-03-28T11:09:28.823Z</time></trkpt><trkpt lat="45.5377683" lon="10.7794967"><ele>173.0</ele><time>2026-03-28T11:09:29.822Z</time></trkpt><trkpt lat="45.5377717" lon="10.7796467"><ele>173.0</ele><time>2026-03-28T11:09:30.823Z</time></trkpt><trkpt lat="45.5377733" lon="10.779805"><ele>173.0</ele><time>2026-03-28T11:09:31.823Z</time></trkpt><trkpt lat="45.5377767" lon="10.7799683"><ele>173.0</ele><time>2026-03-28T11:09:32.823Z</time></trkpt><trkpt lat="45.53778" lon="10.7801283"><ele>173.0</ele><time>2026-03-28T11:09:33.823Z</time></trkpt><trkpt lat="45.5377567" lon="10.7802517"><ele>173.0</ele><time>2026-03-28T11:09:34.822Z</time></trkpt><trkpt lat="45.537675" lon="10.7802167"><ele>173.0</ele><time>2026-03-28T11:09:36.822Z</time></trkpt><trkpt lat="45.5375167" lon="10.78016"><ele>173.0</ele><time>2026-03-28T11:09:38.823Z</time></trkpt><trkpt lat="45.537395" lon="10.7801433"><ele>173.0</ele><time>2026-03-28T11:09:39.823Z</time></trkpt><trkpt lat="45.5372617" lon="10.7801467"><ele>173.0</ele><time>2026-03-28T11:09:40.823Z</time></trkpt><trkpt lat="45.53713" lon="10.7801533"><ele>172.0</ele><time>2026-03-28T11:09:41.823Z</time></trkpt><trkpt lat="45.5369867" lon="10.7801633"><ele>171.0</ele><time>2026-03-28T11:09:42.822Z</time></trkpt><trkpt lat="45.5368217" lon="10.7801767"><ele>170.0</ele><time>2026-03-28T11:09:43.822Z</time></trkpt><trkpt lat="45.53663" lon="10.7802117"><ele>170.0</ele><time>2026-03-28T11:09:44.822Z</time></trkpt><trkpt lat="45.536435" lon="10.7802483"><ele>170.0</ele><time>2026-03-28T11:09:45.822Z</time></trkpt><trkpt lat="45.5362183" lon="10.7802817"><ele>170.0</ele><time>2026-03-28T11:09:46.823Z</time></trkpt><trkpt lat="45.5360017" lon="10.780325"><ele>168.0</ele><time>2026-03-28T11:09:47.823Z</time></trkpt><trkpt lat="45.5357833" lon="10.7803633"><ele>166.0</ele><time>2026-03-28T11:09:48.822Z</time></trkpt><trkpt lat="45.53557" lon="10.7804083"><ele>164.0</ele><time>2026-03-28T11:09:49.822Z</time></trkpt><trkpt lat="45.53536" lon="10.7804617"><ele>164.0</ele><time>2026-03-28T11:09:50.823Z</time></trkpt><trkpt lat="45.5351583" lon="10.7804983"><ele>164.0</ele><time>2026-03-28T11:09:51.823Z</time></trkpt><trkpt lat="45.5349583" lon="10.78053"><ele>164.0</ele><time>2026-03-28T11:09:52.822Z</time></trkpt><trkpt lat="45.534765" lon="10.780555"><ele>164.0</ele><time>2026-03-28T11:09:53.823Z</time></trkpt><trkpt lat="45.534575" lon="10.780575"><ele>164.0</ele><time>2026-03-28T11:09:54.822Z</time></trkpt><trkpt lat="45.5343983" lon="10.7805933"><ele>164.0</ele><time>2026-03-28T11:09:55.823Z</time></trkpt><trkpt lat="45.5342367" lon="10.78061"><ele>164.0</ele><time>2026-03-28T11:09:56.823Z</time></trkpt><trkpt lat="45.534085" lon="10.7806217"><ele>164.0</ele><time>2026-03-28T11:09:57.823Z</time></trkpt><trkpt lat="45.5339467" lon="10.78063"><ele>164.0</ele><time>2026-03-28T11:09:58.822Z</time></trkpt><trkpt lat="45.53381" lon="10.7806467"><ele>164.0</ele><time>2026-03-28T11:09:59.823Z</time></trkpt><trkpt lat="45.5336833" lon="10.78066"><ele>164.0</ele><time>2026-03-28T11:10:00.823Z</time></trkpt><trkpt lat="45.5335667" lon="10.7806683"><ele>164.0</ele><time>2026-03-28T11:10:01.822Z</time></trkpt><trkpt lat="45.5334417" lon="10.7806817"><ele>164.0</ele><time>2026-03-28T11:10:02.823Z</time></trkpt><trkpt lat="45.5333217" lon="10.7807017"><ele>164.0</ele><time>2026-03-28T11:10:03.822Z</time></trkpt><trkpt lat="45.5331817" lon="10.7807317"><ele>164.0</ele><time>2026-03-28T11:10:04.822Z</time></trkpt><trkpt lat="45.5330333" lon="10.7807583"><ele>164.0</ele><time>2026-03-28T11:10:05.823Z</time></trkpt><trkpt lat="45.5328917" lon="10.7807783"><ele>164.0</ele><time>2026-03-28T11:10:06.823Z</time></trkpt><trkpt lat="45.5327467" lon="10.7808"><ele>164.0</ele><time>2026-03-28T11:10:07.823Z</time></trkpt><trkpt lat="45.5325983" lon="10.780815"><ele>164.5</ele><time>2026-03-28T11:10:08.822Z</time></trkpt><trkpt lat="45.5324533" lon="10.780835"><ele>165.0</ele><time>2026-03-28T11:10:09.822Z</time></trkpt><trkpt lat="45.532325" lon="10.7808483"><ele>165.5</ele><time>2026-03-28T11:10:10.823Z</time></trkpt><trkpt lat="45.5322083" lon="10.7808667"><ele>166.0</ele><time>2026-03-28T11:10:11.822Z</time></trkpt><trkpt lat="45.5320983" lon="10.7808733"><ele>165.0</ele><time>2026-03-28T11:10:12.822Z</time></trkpt><trkpt lat="45.5320117" lon="10.78088"><ele>164.0</ele><time>2026-03-28T11:10:13.823Z</time></trkpt><trkpt lat="45.531945" lon="10.7809033"><ele>163.0</ele><time>2026-03-28T11:10:14.823Z</time></trkpt><trkpt lat="45.53194" lon="10.7810767"><ele>162.0</ele><time>2026-03-28T11:10:16.822Z</time></trkpt><trkpt lat="45.53199" lon="10.7812017"><ele>161.0</ele><time>2026-03-28T11:10:17.822Z</time></trkpt><trkpt lat="45.53205" lon="10.7813567"><ele>161.0</ele><time>2026-03-28T11:10:18.822Z</time></trkpt><trkpt lat="45.5321167" lon="10.781525"><ele>161.0</ele><time>2026-03-28T11:10:19.822Z</time></trkpt><trkpt lat="45.5321767" lon="10.7816967"><ele>161.0</ele><time>2026-03-28T11:10:20.822Z</time></trkpt><trkpt lat="45.5322317" lon="10.7818733"><ele>161.0</ele><time>2026-03-28T11:10:21.822Z</time></trkpt><trkpt lat="45.53229" lon="10.7820467"><ele>161.0</ele><time>2026-03-28T11:10:22.822Z</time></trkpt><trkpt lat="45.532335" lon="10.7822133"><ele>161.0</ele><time>2026-03-28T11:10:23.822Z</time></trkpt><trkpt lat="45.53238" lon="10.7823867"><ele>161.0</ele><time>2026-03-28T11:10:24.823Z</time></trkpt><trkpt lat="45.5324283" lon="10.782575"><ele>161.0</ele><time>2026-03-28T11:10:25.822Z</time></trkpt><trkpt lat="45.532475" lon="10.7827583"><ele>161.5</ele><time>2026-03-28T11:10:26.822Z</time></trkpt><trkpt lat="45.5325133" lon="10.7829367"><ele>162.0</ele><time>2026-03-28T11:10:27.823Z</time></trkpt><trkpt lat="45.5325433" lon="10.783115"><ele>162.5</ele><time>2026-03-28T11:10:28.822Z</time></trkpt><trkpt lat="45.5325767" lon="10.7832967"><ele>163.0</ele><time>2026-03-28T11:10:29.823Z</time></trkpt><trkpt lat="45.5325967" lon="10.7834467"><ele>163.4</ele><time>2026-03-28T11:10:30.823Z</time></trkpt><trkpt lat="45.5326017" lon="10.78357"><ele>163.8</ele><time>2026-03-28T11:10:31.823Z</time></trkpt><trkpt lat="45.5325817" lon="10.78371"><ele>164.2</ele><time>2026-03-28T11:10:32.823Z</time></trkpt><trkpt lat="45.532545" lon="10.7838583"><ele>164.6</ele><time>2026-03-28T11:10:33.822Z</time></trkpt><trkpt lat="45.532485" lon="10.7840267"><ele>165.0</ele><time>2026-03-28T11:10:34.823Z</time></trkpt><trkpt lat="45.5324133" lon="10.7842267"><ele>165.5</ele><time>2026-03-28T11:10:35.823Z</time></trkpt><trkpt lat="45.532335" lon="10.7844217"><ele>166.0</ele><time>2026-03-28T11:10:36.823Z</time></trkpt><trkpt lat="45.532275" lon="10.7845967"><ele>166.5</ele><time>2026-03-28T11:10:37.823Z</time></trkpt><trkpt lat="45.53223" lon="10.7847567"><ele>167.0</ele><time>2026-03-28T11:10:38.823Z</time></trkpt><trkpt lat="45.5322317" lon="10.78489"><ele>167.0</ele><time>2026-03-28T11:10:39.822Z</time></trkpt><trkpt lat="45.5322617" lon="10.7850367"><ele>167.0</ele><time>2026-03-28T11:10:40.822Z</time></trkpt><trkpt lat="45.53228" lon="10.78517"><ele>167.0</ele><time>2026-03-28T11:10:41.823Z</time></trkpt><trkpt lat="45.5322783" lon="10.7852983"><ele>167.0</ele><time>2026-03-28T11:10:42.823Z</time></trkpt><trkpt lat="45.5322483" lon="10.785435"><ele>167.0</ele><time>2026-03-28T11:10:43.823Z</time></trkpt><trkpt lat="45.5321767" lon="10.7855633"><ele>167.25</ele><time>2026-03-28T11:10:44.823Z</time></trkpt><trkpt lat="45.5320983" lon="10.7857033"><ele>167.5</ele><time>2026-03-28T11:10:45.823Z</time></trkpt><trkpt lat="45.5320033" lon="10.7858417"><ele>167.75</ele><time>2026-03-28T11:10:46.822Z</time></trkpt><trkpt lat="45.5319033" lon="10.785965"><ele>168.0</ele><time>2026-03-28T11:10:47.822Z</time></trkpt><trkpt lat="45.5318017" lon="10.78611"><ele>168.5</ele><time>2026-03-28T11:10:48.822Z</time></trkpt><trkpt lat="45.5317033" lon="10.7862583"><ele>169.0</ele><time>2026-03-28T11:10:49.823Z</time></trkpt><trkpt lat="45.5316" lon="10.7864217"><ele>169.5</ele><time>2026-03-28T11:10:50.822Z</time></trkpt><trkpt lat="45.5314967" lon="10.78658"><ele>170.0</ele><time>2026-03-28T11:10:51.823Z</time></trkpt><trkpt lat="45.5314" lon="10.7867517"><ele>170.25</ele><time>2026-03-28T11:10:52.823Z</time></trkpt><trkpt lat="45.53131" lon="10.7869233"><ele>170.5</ele><time>2026-03-28T11:10:53.822Z</time></trkpt><trkpt lat="45.5312417" lon="10.7870767"><ele>170.75</ele><time>2026-03-28T11:10:54.822Z</time></trkpt><trkpt lat="45.5312" lon="10.7871967"><ele>171.0</ele><time>2026-03-28T11:10:55.822Z</time></trkpt><trkpt lat="45.53117" lon="10.7873117"><ele>171.0</ele><time>2026-03-28T11:10:56.822Z</time></trkpt><trkpt lat="45.53117" lon="10.7874383"><ele>171.0</ele><time>2026-03-28T11:10:57.822Z</time></trkpt><trkpt lat="45.53119" lon="10.7875817"><ele>171.0</ele><time>2026-03-28T11:10:58.823Z</time></trkpt><trkpt lat="45.5312167" lon="10.78773"><ele>171.0</ele><time>2026-03-28T11:10:59.822Z</time></trkpt><trkpt lat="45.5312583" lon="10.7878717"><ele>171.0</ele><time>2026-03-28T11:11:00.823Z</time></trkpt><trkpt lat="45.5313033" lon="10.7879983"><ele>172.4</ele><time>2026-03-28T11:11:01.823Z</time></trkpt><trkpt lat="45.5313633" lon="10.7881167"><ele>173.8</ele><time>2026-03-28T11:11:02.823Z</time></trkpt><trkpt lat="45.5314233" lon="10.78824"><ele>175.20000000000002</ele><time>2026-03-28T11:11:03.823Z</time></trkpt><trkpt lat="45.5314817" lon="10.7883617"><ele>176.60000000000002</ele><time>2026-03-28T11:11:04.822Z</time></trkpt><trkpt lat="45.5315167" lon="10.788475"><ele>178.0</ele><time>2026-03-28T11:11:05.822Z</time></trkpt><trkpt lat="45.5315483" lon="10.7885983"><ele>178.0</ele><time>2026-03-28T11:11:07.822Z</time></trkpt><trkpt lat="45.5316633" lon="10.7885717"><ele>178.0</ele><time>2026-03-28T11:11:13.822Z</time></trkpt><trkpt lat="45.53174" lon="10.7885183"><ele>178.0</ele><time>2026-03-28T11:11:14.823Z</time></trkpt><trkpt lat="45.53184" lon="10.788435"><ele>178.0</ele><time>2026-03-28T11:11:15.822Z</time></trkpt><trkpt lat="45.5319517" lon="10.7883367"><ele>178.0</ele><time>2026-03-28T11:11:16.822Z</time></trkpt><trkpt lat="45.53207" lon="10.7882333"><ele>178.5</ele><time>2026-03-28T11:11:17.822Z</time></trkpt><trkpt lat="45.5321933" lon="10.7881467"><ele>179.0</ele><time>2026-03-28T11:11:18.823Z</time></trkpt><trkpt lat="45.5323117" lon="10.7880533"><ele>179.5</ele><time>2026-03-28T11:11:19.823Z</time></trkpt><trkpt lat="45.5324283" lon="10.7879717"><ele>180.0</ele><time>2026-03-28T11:11:20.822Z</time></trkpt><trkpt lat="45.53253" lon="10.787905"><ele>180.0</ele><time>2026-03-28T11:11:21.822Z</time></trkpt><trkpt lat="45.5326217" lon="10.7878533"><ele>180.0</ele><time>2026-03-28T11:11:22.823Z</time></trkpt><trkpt lat="45.532715" lon="10.7878017"><ele>180.0</ele><time>2026-03-28T11:11:23.822Z</time></trkpt><trkpt lat="45.5327983" lon="10.7877617"><ele>180.0</ele><time>2026-03-28T11:11:24.822Z</time></trkpt><trkpt lat="45.5328683" lon="10.7877417"><ele>180.0</ele><time>2026-03-28T11:11:25.822Z</time></trkpt><trkpt lat="45.5329417" lon="10.7878217"><ele>180.25</ele><time>2026-03-28T11:11:27.823Z</time></trkpt><trkpt lat="45.5329783" lon="10.787945"><ele>180.5</ele><time>2026-03-28T11:11:28.823Z</time></trkpt><trkpt lat="45.5330483" lon="10.78809"><ele>180.75</ele><time>2026-03-28T11:11:29.823Z</time></trkpt><trkpt lat="45.5331283" lon="10.7882467"><ele>181.0</ele><time>2026-03-28T11:11:30.822Z</time></trkpt><trkpt lat="45.533205" lon="10.788415"><ele>181.5</ele><time>2026-03-28T11:11:31.823Z</time></trkpt><trkpt lat="45.5333" lon="10.788595"><ele>182.0</ele><time>2026-03-28T11:11:32.823Z</time></trkpt><trkpt lat="45.5333833" lon="10.7887567"><ele>182.5</ele><time>2026-03-28T11:11:33.821Z</time></trkpt><trkpt lat="45.5334433" lon="10.7889"><ele>183.0</ele><time>2026-03-28T11:11:34.821Z</time></trkpt><trkpt lat="45.5334917" lon="10.7890067"><ele>183.0</ele><time>2026-03-28T11:11:35.822Z</time></trkpt><trkpt lat="45.5335533" lon="10.78915"><ele>183.0</ele><time>2026-03-28T11:11:37.821Z</time></trkpt><trkpt lat="45.533595" lon="10.7892267"><ele>183.0</ele><time>2026-03-28T11:11:38.822Z</time></trkpt><trkpt lat="45.533645" lon="10.78931"><ele>183.0</ele><time>2026-03-28T11:11:39.822Z</time></trkpt><trkpt lat="45.5336967" lon="10.7894017"><ele>183.0</ele><time>2026-03-28T11:11:40.821Z</time></trkpt><trkpt lat="45.5337467" lon="10.7895033"><ele>183.0</ele><time>2026-03-28T11:11:41.822Z</time></trkpt><trkpt lat="45.533805" lon="10.7896"><ele>186.60000000000002</ele><time>2026-03-28T11:11:42.821Z</time></trkpt><trkpt lat="45.5338617" lon="10.7896967"><ele>190.20000000000002</ele><time>2026-03-28T11:11:43.821Z</time></trkpt><trkpt lat="45.5339183" lon="10.7897967"><ele>193.8</ele><time>2026-03-28T11:11:44.821Z</time></trkpt><trkpt lat="45.53399" lon="10.7898867"><ele>197.4</ele><time>2026-03-28T11:11:45.822Z</time></trkpt><trkpt lat="45.5340717" lon="10.7899733"><ele>201.0</ele><time>2026-03-28T11:11:46.822Z</time></trkpt><trkpt lat="45.5341483" lon="10.7900467"><ele>201.0</ele><time>2026-03-28T11:11:47.821Z</time></trkpt><trkpt lat="45.5342317" lon="10.79012"><ele>201.0</ele><time>2026-03-28T11:11:48.821Z</time></trkpt><trkpt lat="45.5343" lon="10.79018"><ele>201.0</ele><time>2026-03-28T11:11:49.821Z</time></trkpt><trkpt lat="45.5343617" lon="10.7902283"><ele>201.0</ele><time>2026-03-28T11:11:50.821Z</time></trkpt><trkpt lat="45.5344167" lon="10.7902783"><ele>201.0</ele><time>2026-03-28T11:11:51.822Z</time></trkpt><trkpt lat="45.534535" lon="10.7903483"><ele>201.0</ele><time>2026-03-28T11:11:53.821Z</time></trkpt><trkpt lat="45.5345917" lon="10.7903883"><ele>202.16666666666666</ele><time>2026-03-28T11:11:54.821Z</time></trkpt><trkpt lat="45.534675" lon="10.7904933"><ele>203.33333333333331</ele><time>2026-03-28T11:11:56.822Z</time></trkpt><trkpt lat="45.5347133" lon="10.7905733"><ele>204.5</ele><time>2026-03-28T11:11:57.821Z</time></trkpt><trkpt lat="45.5347633" lon="10.7906517"><ele>205.66666666666666</ele><time>2026-03-28T11:11:58.822Z</time></trkpt><trkpt lat="45.5348133" lon="10.7907317"><ele>206.83333333333331</ele><time>2026-03-28T11:11:59.822Z</time></trkpt><trkpt lat="45.5348667" lon="10.7908067"><ele>208.0</ele><time>2026-03-28T11:12:00.822Z</time></trkpt><trkpt lat="45.53495" lon="10.7908983"><ele>208.0</ele><time>2026-03-28T11:12:02.822Z</time></trkpt><trkpt lat="45.5350167" lon="10.7909717"><ele>208.0</ele><time>2026-03-28T11:12:05.821Z</time></trkpt><trkpt lat="45.5350983" lon="10.7909783"><ele>208.0</ele><time>2026-03-28T11:12:12.821Z</time></trkpt><trkpt lat="45.5351967" lon="10.79081"><ele>208.0</ele><time>2026-03-28T11:12:14.821Z</time></trkpt><trkpt lat="45.535255" lon="10.7907133"><ele>208.0</ele><time>2026-03-28T11:12:15.821Z</time></trkpt><trkpt lat="45.5353217" lon="10.79062"><ele>207.99999999999997</ele><time>2026-03-28T11:12:16.821Z</time></trkpt><trkpt lat="45.5353783" lon="10.79056"><ele>208.0</ele><time>2026-03-28T11:12:17.822Z</time></trkpt><trkpt lat="45.5354833" lon="10.7905183"><ele>208.0</ele><time>2026-03-28T11:12:19.822Z</time></trkpt><trkpt lat="45.5355383" lon="10.7905833"><ele>208.0</ele><time>2026-03-28T11:12:22.822Z</time></trkpt><trkpt lat="45.5355133" lon="10.79067"><ele>207.99999999999997</ele><time>2026-03-28T11:12:24.821Z</time></trkpt><trkpt lat="45.5354667" lon="10.7907833"><ele>208.0</ele><time>2026-03-28T11:12:29.822Z</time></trkpt><trkpt lat="45.5353933" lon="10.7908917"><ele>208.0</ele><time>2026-03-28T11:12:31.822Z</time></trkpt><trkpt lat="45.53533" lon="10.7910033"><ele>208.0</ele><time>2026-03-28T11:12:33.821Z</time></trkpt><trkpt lat="45.5352717" lon="10.791105"><ele>208.0</ele><time>2026-03-28T11:12:35.821Z</time></trkpt><trkpt lat="45.5352617" lon="10.791205"><ele>208.0</ele><time>2026-03-28T11:12:40.822Z</time></trkpt><trkpt lat="45.53533" lon="10.7911717"><ele>208.0</ele><time>2026-03-28T11:12:43.821Z</time></trkpt><trkpt lat="45.5354433" lon="10.79113"><ele>205.99999999999997</ele><time>2026-03-28T11:12:45.821Z</time></trkpt><trkpt lat="45.5355083" lon="10.7911317"><ele>204.0</ele><time>2026-03-28T11:12:46.821Z</time></trkpt><trkpt lat="45.5355767" lon="10.791135"><ele>202.0</ele><time>2026-03-28T11:12:47.821Z</time></trkpt><trkpt lat="45.535695" lon="10.7911883"><ele>200.0</ele><time>2026-03-28T11:12:49.822Z</time></trkpt><trkpt lat="45.53575" lon="10.7912617"><ele>197.99999999999997</ele><time>2026-03-28T11:12:50.822Z</time></trkpt><trkpt lat="45.535805" lon="10.7913533"><ele>196.0</ele><time>2026-03-28T11:12:51.822Z</time></trkpt><trkpt lat="45.535865" lon="10.7914517"><ele>195.99999999999997</ele><time>2026-03-28T11:12:52.822Z</time></trkpt><trkpt lat="45.5359183" lon="10.7915333"><ele>196.0</ele><time>2026-03-28T11:12:53.822Z</time></trkpt><trkpt lat="45.5359667" lon="10.7916017"><ele>196.0</ele><time>2026-03-28T11:12:54.821Z</time></trkpt><trkpt lat="45.536055" lon="10.7916783"><ele>196.0</ele><time>2026-03-28T11:12:56.821Z</time></trkpt><trkpt lat="45.536125" lon="10.7916467"><ele>195.99999999999997</ele><time>2026-03-28T11:12:58.821Z</time></trkpt><trkpt lat="45.5362033" lon="10.7915217"><ele>196.0</ele><time>2026-03-28T11:13:00.821Z</time></trkpt><trkpt lat="45.5362467" lon="10.791455"><ele>193.99999999999997</ele><time>2026-03-28T11:13:01.822Z</time></trkpt><trkpt lat="45.5363067" lon="10.7914033"><ele>192.0</ele><time>2026-03-28T11:13:02.821Z</time></trkpt><trkpt lat="45.5363833" lon="10.791365"><ele>190.0</ele><time>2026-03-28T11:13:03.821Z</time></trkpt><trkpt lat="45.536475" lon="10.7913433"><ele>188.0</ele><time>2026-03-28T11:13:04.821Z</time></trkpt><trkpt lat="45.53655" lon="10.791345"><ele>186.0</ele><time>2026-03-28T11:13:05.822Z</time></trkpt><trkpt lat="45.5366183" lon="10.7913567"><ele>184.0</ele><time>2026-03-28T11:13:06.822Z</time></trkpt><trkpt lat="45.536715" lon="10.791385"><ele>184.0</ele><time>2026-03-28T11:13:08.821Z</time></trkpt><trkpt lat="45.536785" lon="10.7913833"><ele>184.0</ele><time>2026-03-28T11:13:10.821Z</time></trkpt><trkpt lat="45.5368567" lon="10.791345"><ele>184.0</ele><time>2026-03-28T11:13:12.821Z</time></trkpt><trkpt lat="45.5369533" lon="10.7912333"><ele>184.0</ele><time>2026-03-28T11:13:14.821Z</time></trkpt><trkpt lat="45.537005" lon="10.7911783"><ele>184.0</ele><time>2026-03-28T11:13:15.822Z</time></trkpt><trkpt lat="45.53709" lon="10.7910717"><ele>184.0</ele><time>2026-03-28T11:13:17.821Z</time></trkpt><trkpt lat="45.537175" lon="10.79101"><ele>185.0</ele><time>2026-03-28T11:13:19.821Z</time></trkpt><trkpt lat="45.537235" lon="10.7909817"><ele>186.0</ele><time>2026-03-28T11:13:20.822Z</time></trkpt><trkpt lat="45.53734" lon="10.7909617"><ele>187.0</ele><time>2026-03-28T11:13:22.822Z</time></trkpt><trkpt lat="45.537435" lon="10.7909067"><ele>188.0</ele><time>2026-03-28T11:13:24.822Z</time></trkpt><trkpt lat="45.5375283" lon="10.7908217"><ele>189.0</ele><time>2026-03-28T11:13:26.822Z</time></trkpt><trkpt lat="45.53763" lon="10.7907367"><ele>189.0</ele><time>2026-03-28T11:13:28.822Z</time></trkpt><trkpt lat="45.5377017" lon="10.7907"><ele>189.0</ele><time>2026-03-28T11:13:29.822Z</time></trkpt><trkpt lat="45.5377717" lon="10.790665"><ele>189.0</ele><time>2026-03-28T11:13:30.822Z</time></trkpt><trkpt lat="45.5378783" lon="10.7906067"><ele>189.0</ele><time>2026-03-28T11:13:32.822Z</time></trkpt><trkpt lat="45.5379367" lon="10.790565"><ele>189.0</ele><time>2026-03-28T11:13:33.821Z</time></trkpt><trkpt lat="45.5380083" lon="10.7904983"><ele>189.0</ele><time>2026-03-28T11:13:34.822Z</time></trkpt><trkpt lat="45.53807" lon="10.7904333"><ele>188.0</ele><time>2026-03-28T11:13:35.822Z</time></trkpt><trkpt lat="45.5381433" lon="10.7903483"><ele>187.0</ele><time>2026-03-28T11:13:36.821Z</time></trkpt><trkpt lat="45.5382183" lon="10.7902767"><ele>186.0</ele><time>2026-03-28T11:13:37.821Z</time></trkpt><trkpt lat="45.53829" lon="10.79021"><ele>185.0</ele><time>2026-03-28T11:13:38.822Z</time></trkpt><trkpt lat="45.5383517" lon="10.79013"><ele>184.0</ele><time>2026-03-28T11:13:39.821Z</time></trkpt><trkpt lat="45.5384083" lon="10.7900483"><ele>183.0</ele><time>2026-03-28T11:13:40.822Z</time></trkpt><trkpt lat="45.53846" lon="10.7899617"><ele>183.0</ele><time>2026-03-28T11:13:41.822Z</time></trkpt><trkpt lat="45.5385067" lon="10.789865"><ele>183.0</ele><time>2026-03-28T11:13:42.822Z</time></trkpt><trkpt lat="45.5385583" lon="10.7897867"><ele>183.0</ele><time>2026-03-28T11:13:43.821Z</time></trkpt><trkpt lat="45.5386067" lon="10.78971"><ele>183.0</ele><time>2026-03-28T11:13:44.821Z</time></trkpt><trkpt lat="45.5386733" lon="10.7896333"><ele>183.0</ele><time>2026-03-28T11:13:45.821Z</time></trkpt><trkpt lat="45.5387433" lon="10.7895583"><ele>183.0</ele><time>2026-03-28T11:13:46.821Z</time></trkpt><trkpt lat="45.5388167" lon="10.789465"><ele>181.60000000000002</ele><time>2026-03-28T11:13:47.821Z</time></trkpt><trkpt lat="45.5389033" lon="10.7893567"><ele>180.20000000000002</ele><time>2026-03-28T11:13:48.822Z</time></trkpt><trkpt lat="45.5389633" lon="10.78924"><ele>178.8</ele><time>2026-03-28T11:13:49.822Z</time></trkpt><trkpt lat="45.539025" lon="10.7891367"><ele>177.4</ele><time>2026-03-28T11:13:50.821Z</time></trkpt><trkpt lat="45.5390817" lon="10.7890333"><ele>176.0</ele><time>2026-03-28T11:13:51.821Z</time></trkpt><trkpt lat="45.5391267" lon="10.78894"><ele>176.0</ele><time>2026-03-28T11:13:52.821Z</time></trkpt><trkpt lat="45.5391733" lon="10.7888383"><ele>176.0</ele><time>2026-03-28T11:13:53.822Z</time></trkpt><trkpt lat="45.5392283" lon="10.788735"><ele>176.0</ele><time>2026-03-28T11:13:54.822Z</time></trkpt><trkpt lat="45.5392867" lon="10.7886333"><ele>176.0</ele><time>2026-03-28T11:13:55.821Z</time></trkpt><trkpt lat="45.5393383" lon="10.78854"><ele>176.0</ele><time>2026-03-28T11:13:56.821Z</time></trkpt><trkpt lat="45.53939" lon="10.78844"><ele>176.0</ele><time>2026-03-28T11:13:57.821Z</time></trkpt><trkpt lat="45.5394433" lon="10.78834"><ele>175.57142857142858</ele><time>2026-03-28T11:13:58.821Z</time></trkpt><trkpt lat="45.5394817" lon="10.7882433"><ele>175.14285714285714</ele><time>2026-03-28T11:13:59.821Z</time></trkpt><trkpt lat="45.5395217" lon="10.78816"><ele>174.71428571428572</ele><time>2026-03-28T11:14:00.821Z</time></trkpt><trkpt lat="45.53956" lon="10.7880667"><ele>174.28571428571428</ele><time>2026-03-28T11:14:01.821Z</time></trkpt><trkpt lat="45.539595" lon="10.787985"><ele>173.85714285714286</ele><time>2026-03-28T11:14:02.822Z</time></trkpt><trkpt lat="45.5396433" lon="10.7879167"><ele>173.42857142857142</ele><time>2026-03-28T11:14:03.821Z</time></trkpt><trkpt lat="45.5396983" lon="10.7878483"><ele>173.0</ele><time>2026-03-28T11:14:04.822Z</time></trkpt><trkpt lat="45.53976" lon="10.7877817"><ele>173.0</ele><time>2026-03-28T11:14:05.821Z</time></trkpt><trkpt lat="45.5398233" lon="10.7877333"><ele>173.0</ele><time>2026-03-28T11:14:06.821Z</time></trkpt><trkpt lat="45.5398933" lon="10.787675"><ele>173.0</ele><time>2026-03-28T11:14:07.821Z</time></trkpt><trkpt lat="45.5399633" lon="10.7876083"><ele>173.0</ele><time>2026-03-28T11:14:08.821Z</time></trkpt><trkpt lat="45.5400283" lon="10.7875217"><ele>173.0</ele><time>2026-03-28T11:14:09.821Z</time></trkpt><trkpt lat="45.5400867" lon="10.787425"><ele>173.0</ele><time>2026-03-28T11:14:10.821Z</time></trkpt><trkpt lat="45.5401383" lon="10.7873433"><ele>173.66666666666666</ele><time>2026-03-28T11:14:11.822Z</time></trkpt><trkpt lat="45.5401933" lon="10.78727"><ele>174.33333333333331</ele><time>2026-03-28T11:14:12.822Z</time></trkpt><trkpt lat="45.5402483" lon="10.7871933"><ele>175.0</ele><time>2026-03-28T11:14:13.822Z</time></trkpt><trkpt lat="45.5403017" lon="10.7871067"><ele>175.66666666666666</ele><time>2026-03-28T11:14:14.821Z</time></trkpt><trkpt lat="45.5403483" lon="10.7870233"><ele>176.33333333333334</ele><time>2026-03-28T11:14:15.821Z</time></trkpt><trkpt lat="45.5404133" lon="10.7868817"><ele>177.0</ele><time>2026-03-28T11:14:17.822Z</time></trkpt><trkpt lat="45.540445" lon="10.7867683"><ele>177.2</ele><time>2026-03-28T11:14:18.822Z</time></trkpt><trkpt lat="45.5404783" lon="10.7866417"><ele>177.39999999999998</ele><time>2026-03-28T11:14:19.821Z</time></trkpt><trkpt lat="45.54051" lon="10.78652"><ele>177.60000000000002</ele><time>2026-03-28T11:14:20.822Z</time></trkpt><trkpt lat="45.54054" lon="10.7863883"><ele>177.8</ele><time>2026-03-28T11:14:21.821Z</time></trkpt><trkpt lat="45.540585" lon="10.78628"><ele>178.0</ele><time>2026-03-28T11:14:22.821Z</time></trkpt><trkpt lat="45.54064" lon="10.78617"><ele>178.0</ele><time>2026-03-28T11:14:23.822Z</time></trkpt><trkpt lat="45.5407033" lon="10.786055"><ele>178.0</ele><time>2026-03-28T11:14:24.821Z</time></trkpt><trkpt lat="45.540785" lon="10.7859233"><ele>178.0</ele><time>2026-03-28T11:14:25.822Z</time></trkpt><trkpt lat="45.540865" lon="10.7858033"><ele>178.0</ele><time>2026-03-28T11:14:26.822Z</time></trkpt><trkpt lat="45.5409467" lon="10.7856983"><ele>177.8</ele><time>2026-03-28T11:14:27.821Z</time></trkpt><trkpt lat="45.54102" lon="10.7855933"><ele>177.60000000000002</ele><time>2026-03-28T11:14:28.822Z</time></trkpt><trkpt lat="45.5411" lon="10.7854983"><ele>177.39999999999998</ele><time>2026-03-28T11:14:29.822Z</time></trkpt><trkpt lat="45.541175" lon="10.78542"><ele>177.2</ele><time>2026-03-28T11:14:30.822Z</time></trkpt><trkpt lat="45.5412517" lon="10.7853483"><ele>177.0</ele><time>2026-03-28T11:14:31.821Z</time></trkpt><trkpt lat="45.54133" lon="10.7852917"><ele>177.0</ele><time>2026-03-28T11:14:32.821Z</time></trkpt><trkpt lat="45.5414" lon="10.78524"><ele>177.0</ele><time>2026-03-28T11:14:33.821Z</time></trkpt><trkpt lat="45.5414783" lon="10.785165"><ele>177.0</ele><time>2026-03-28T11:14:34.822Z</time></trkpt><trkpt lat="45.54158" lon="10.7850933"><ele>177.0</ele><time>2026-03-28T11:14:35.821Z</time></trkpt><trkpt lat="45.5416867" lon="10.785025"><ele>177.0</ele><time>2026-03-28T11:14:36.821Z</time></trkpt><trkpt lat="45.5417983" lon="10.7849467"><ele>178.66666666666666</ele><time>2026-03-28T11:14:37.822Z</time></trkpt><trkpt lat="45.5419367" lon="10.7848367"><ele>180.33333333333331</ele><time>2026-03-28T11:14:38.821Z</time></trkpt><trkpt lat="45.54209" lon="10.784715"><ele>182.0</ele><time>2026-03-28T11:14:39.822Z</time></trkpt><trkpt lat="45.5422217" lon="10.7845533"><ele>182.0</ele><time>2026-03-28T11:14:40.822Z</time></trkpt><trkpt lat="45.5423267" lon="10.78436"><ele>182.0</ele><time>2026-03-28T11:14:41.822Z</time></trkpt><trkpt lat="45.5424333" lon="10.78415"><ele>182.0</ele><time>2026-03-28T11:14:42.821Z</time></trkpt><trkpt lat="45.5425283" lon="10.7839467"><ele>183.0</ele><time>2026-03-28T11:14:43.821Z</time></trkpt><trkpt lat="45.542615" lon="10.7837683"><ele>184.0</ele><time>2026-03-28T11:14:44.822Z</time></trkpt><trkpt lat="45.5427017" lon="10.7836267"><ele>185.0</ele><time>2026-03-28T11:14:45.821Z</time></trkpt><trkpt lat="45.5427883" lon="10.78352"><ele>186.0</ele><time>2026-03-28T11:14:46.821Z</time></trkpt><trkpt lat="45.5428867" lon="10.7834017"><ele>186.0</ele><time>2026-03-28T11:14:47.822Z</time></trkpt><trkpt lat="45.5429883" lon="10.78327"><ele>186.0</ele><time>2026-03-28T11:14:48.821Z</time></trkpt><trkpt lat="45.54308" lon="10.7831467"><ele>186.0</ele><time>2026-03-28T11:14:49.821Z</time></trkpt><trkpt lat="45.54315" lon="10.7830417"><ele>186.0</ele><time>2026-03-28T11:14:50.821Z</time></trkpt><trkpt lat="45.5432" lon="10.7829417"><ele>186.0</ele><time>2026-03-28T11:14:51.821Z</time></trkpt><trkpt lat="45.5432367" lon="10.78285"><ele>186.0</ele><time>2026-03-28T11:14:52.821Z</time></trkpt><trkpt lat="45.5432683" lon="10.7827567"><ele>186.0</ele><time>2026-03-28T11:14:53.822Z</time></trkpt><trkpt lat="45.5432967" lon="10.78262"><ele>186.0</ele><time>2026-03-28T11:14:55.821Z</time></trkpt><trkpt lat="45.54329" lon="10.7824783"><ele>186.0</ele><time>2026-03-28T11:15:10.821Z</time></trkpt><trkpt lat="45.543255" lon="10.7823833"><ele>186.0</ele><time>2026-03-28T11:15:11.822Z</time></trkpt><trkpt lat="45.5432083" lon="10.7822567"><ele>187.0</ele><time>2026-03-28T11:15:12.822Z</time></trkpt><trkpt lat="45.5431733" lon="10.7821"><ele>188.0</ele><time>2026-03-28T11:15:13.822Z</time></trkpt><trkpt lat="45.5431567" lon="10.7819317"><ele>189.0</ele><time>2026-03-28T11:15:14.822Z</time></trkpt><trkpt lat="45.5431617" lon="10.7817883"><ele>190.0</ele><time>2026-03-28T11:15:15.821Z</time></trkpt><trkpt lat="45.5431867" lon="10.7816517"><ele>191.0</ele><time>2026-03-28T11:15:16.821Z</time></trkpt><trkpt lat="45.5432417" lon="10.7815117"><ele>191.0</ele><time>2026-03-28T11:15:17.821Z</time></trkpt><trkpt lat="45.5433067" lon="10.7813617"><ele>191.0</ele><time>2026-03-28T11:15:18.821Z</time></trkpt><trkpt lat="45.54337" lon="10.7812217"><ele>191.0</ele><time>2026-03-28T11:15:19.822Z</time></trkpt><trkpt lat="45.54342" lon="10.781115"><ele>191.0</ele><time>2026-03-28T11:15:20.821Z</time></trkpt><trkpt lat="45.54348" lon="10.7810533"><ele>191.0</ele><time>2026-03-28T11:15:21.822Z</time></trkpt><trkpt lat="45.5435983" lon="10.7810883"><ele>191.0</ele><time>2026-03-28T11:15:23.822Z</time></trkpt><trkpt lat="45.5436717" lon="10.781205"><ele>191.0</ele><time>2026-03-28T11:15:24.821Z</time></trkpt><trkpt lat="45.54376" lon="10.78136"><ele>191.0</ele><time>2026-03-28T11:15:25.821Z</time></trkpt><trkpt lat="45.543865" lon="10.781545"><ele>191.0</ele><time>2026-03-28T11:15:26.82Z</time></trkpt><trkpt lat="45.5439967" lon="10.781725"><ele>189.66666666666666</ele><time>2026-03-28T11:15:27.821Z</time></trkpt><trkpt lat="45.5441367" lon="10.7819117"><ele>188.33333333333334</ele><time>2026-03-28T11:15:28.82Z</time></trkpt><trkpt lat="45.54429" lon="10.7821033"><ele>187.0</ele><time>2026-03-28T11:15:29.821Z</time></trkpt><trkpt lat="45.544435" lon="10.7823"><ele>187.0</ele><time>2026-03-28T11:15:30.821Z</time></trkpt><trkpt lat="45.5445783" lon="10.7824917"><ele>187.0</ele><time>2026-03-28T11:15:31.82Z</time></trkpt><trkpt lat="45.54473" lon="10.7826783"><ele>187.0</ele><time>2026-03-28T11:15:32.821Z</time></trkpt><trkpt lat="45.5448833" lon="10.7828667"><ele>186.0</ele><time>2026-03-28T11:15:33.82Z</time></trkpt><trkpt lat="45.5450483" lon="10.7830767"><ele>185.0</ele><time>2026-03-28T11:15:34.821Z</time></trkpt><trkpt lat="45.5452167" lon="10.783305"><ele>184.5</ele><time>2026-03-28T11:15:35.82Z</time></trkpt><trkpt lat="45.5453917" lon="10.7835483"><ele>184.0</ele><time>2026-03-28T11:15:36.821Z</time></trkpt><trkpt lat="45.5455583" lon="10.7837983"><ele>184.0</ele><time>2026-03-28T11:15:37.82Z</time></trkpt><trkpt lat="45.5457183" lon="10.7840483"><ele>184.0</ele><time>2026-03-28T11:15:38.82Z</time></trkpt><trkpt lat="45.5458767" lon="10.7843217"><ele>183.0</ele><time>2026-03-28T11:15:39.821Z</time></trkpt><trkpt lat="45.5460417" lon="10.7846"><ele>182.0</ele><time>2026-03-28T11:15:40.82Z</time></trkpt><trkpt lat="45.5462" lon="10.7848933"><ele>182.0</ele><time>2026-03-28T11:15:41.82Z</time></trkpt><trkpt lat="45.5463467" lon="10.7851783"><ele>182.0</ele><time>2026-03-28T11:15:42.82Z</time></trkpt><trkpt lat="45.5465017" lon="10.7854483"><ele>182.0</ele><time>2026-03-28T11:15:43.821Z</time></trkpt><trkpt lat="45.546655" lon="10.7857067"><ele>182.0</ele><time>2026-03-28T11:15:44.821Z</time></trkpt><trkpt lat="45.5468083" lon="10.7859717"><ele>179.0</ele><time>2026-03-28T11:15:45.821Z</time></trkpt><trkpt lat="45.5469683" lon="10.7862417"><ele>176.0</ele><time>2026-03-28T11:15:46.82Z</time></trkpt><trkpt lat="45.547125" lon="10.786515"><ele>174.5</ele><time>2026-03-28T11:15:47.821Z</time></trkpt><trkpt lat="45.5472967" lon="10.78678"><ele>173.0</ele><time>2026-03-28T11:15:48.82Z</time></trkpt><trkpt lat="45.54745" lon="10.7870467"><ele>173.0</ele><time>2026-03-28T11:15:49.82Z</time></trkpt><trkpt lat="45.5475833" lon="10.7872933"><ele>173.0</ele><time>2026-03-28T11:15:50.82Z</time></trkpt><trkpt lat="45.5477067" lon="10.7875283"><ele>173.0</ele><time>2026-03-28T11:15:51.82Z</time></trkpt><trkpt lat="45.5478133" lon="10.7877283"><ele>173.75</ele><time>2026-03-28T11:15:52.821Z</time></trkpt><trkpt lat="45.5479133" lon="10.787905"><ele>174.5</ele><time>2026-03-28T11:15:53.821Z</time></trkpt><trkpt lat="45.5479967" lon="10.7880617"><ele>175.25</ele><time>2026-03-28T11:15:54.82Z</time></trkpt><trkpt lat="45.5480767" lon="10.7882033"><ele>176.0</ele><time>2026-03-28T11:15:55.82Z</time></trkpt><trkpt lat="45.5481417" lon="10.78833"><ele>176.0</ele><time>2026-03-28T11:15:56.821Z</time></trkpt><trkpt lat="45.5481967" lon="10.7884267"><ele>176.0</ele><time>2026-03-28T11:15:57.82Z</time></trkpt><trkpt lat="45.548245" lon="10.7884967"><ele>176.0</ele><time>2026-03-28T11:15:58.82Z</time></trkpt><trkpt lat="45.54832" lon="10.7886167"><ele>176.0</ele><time>2026-03-28T11:16:00.82Z</time></trkpt><trkpt lat="45.54838" lon="10.7886883"><ele>176.0</ele><time>2026-03-28T11:16:02.82Z</time></trkpt><trkpt lat="45.54837" lon="10.78878"><ele>176.0</ele><time>2026-03-28T11:16:04.82Z</time></trkpt><trkpt lat="45.5483117" lon="10.7888617"><ele>177.25</ele><time>2026-03-28T11:16:06.821Z</time></trkpt><trkpt lat="45.548255" lon="10.78895"><ele>178.5</ele><time>2026-03-28T11:16:08.82Z</time></trkpt><trkpt lat="45.5481783" lon="10.78903"><ele>179.75</ele><time>2026-03-28T11:16:09.82Z</time></trkpt><trkpt lat="45.5480817" lon="10.789155"><ele>181.0</ele><time>2026-03-28T11:16:10.82Z</time></trkpt><trkpt lat="45.54795" lon="10.7892433"><ele>181.4</ele><time>2026-03-28T11:16:11.821Z</time></trkpt><trkpt lat="45.5478483" lon="10.7893317"><ele>181.8</ele><time>2026-03-28T11:16:12.821Z</time></trkpt><trkpt lat="45.5477667" lon="10.7894283"><ele>182.20000000000002</ele><time>2026-03-28T11:16:13.821Z</time></trkpt><trkpt lat="45.5477" lon="10.7895167"><ele>182.60000000000002</ele><time>2026-03-28T11:16:14.821Z</time></trkpt><trkpt lat="45.54763" lon="10.7895933"><ele>183.0</ele><time>2026-03-28T11:16:15.82Z</time></trkpt><trkpt lat="45.5475733" lon="10.7896483"><ele>183.0</ele><time>2026-03-28T11:16:16.82Z</time></trkpt><trkpt lat="45.5474717" lon="10.7896967"><ele>183.0</ele><time>2026-03-28T11:16:18.821Z</time></trkpt><trkpt lat="45.5474067" lon="10.7897367"><ele>183.0</ele><time>2026-03-28T11:16:19.82Z</time></trkpt><trkpt lat="45.5473233" lon="10.7897833"><ele>183.0</ele><time>2026-03-28T11:16:20.821Z</time></trkpt><trkpt lat="45.5472067" lon="10.7898367"><ele>183.0</ele><time>2026-03-28T11:16:21.82Z</time></trkpt><trkpt lat="45.5470717" lon="10.78989"><ele>182.5</ele><time>2026-03-28T11:16:22.82Z</time></trkpt><trkpt lat="45.5469383" lon="10.7899567"><ele>182.0</ele><time>2026-03-28T11:16:23.82Z</time></trkpt><trkpt lat="45.546815" lon="10.7900317"><ele>181.5</ele><time>2026-03-28T11:16:24.82Z</time></trkpt><trkpt lat="45.54673" lon="10.7901283"><ele>181.0</ele><time>2026-03-28T11:16:25.821Z</time></trkpt><trkpt lat="45.5466717" lon="10.79027"><ele>180.66666666666669</ele><time>2026-03-28T11:16:26.82Z</time></trkpt><trkpt lat="45.5466383" lon="10.7904517"><ele>180.33333333333334</ele><time>2026-03-28T11:16:27.821Z</time></trkpt><trkpt lat="45.5466133" lon="10.7906717"><ele>180.0</ele><time>2026-03-28T11:16:28.821Z</time></trkpt><trkpt lat="45.546585" lon="10.7909233"><ele>181.0</ele><time>2026-03-28T11:16:29.821Z</time></trkpt><trkpt lat="45.5465467" lon="10.79119"><ele>182.0</ele><time>2026-03-28T11:16:30.82Z</time></trkpt><trkpt lat="45.546505" lon="10.79145"><ele>183.0</ele><time>2026-03-28T11:16:31.821Z</time></trkpt><trkpt lat="45.5464583" lon="10.7917317"><ele>183.0</ele><time>2026-03-28T11:16:32.82Z</time></trkpt><trkpt lat="45.54641" lon="10.7920233"><ele>183.0</ele><time>2026-03-28T11:16:33.82Z</time></trkpt><trkpt lat="45.54637" lon="10.7922983"><ele>183.0</ele><time>2026-03-28T11:16:34.821Z</time></trkpt><trkpt lat="45.5463417" lon="10.792515"><ele>182.8</ele><time>2026-03-28T11:16:35.821Z</time></trkpt><trkpt lat="45.5463067" lon="10.7926833"><ele>182.60000000000002</ele><time>2026-03-28T11:16:36.82Z</time></trkpt><trkpt lat="45.5462883" lon="10.792825"><ele>182.39999999999998</ele><time>2026-03-28T11:16:37.821Z</time></trkpt><trkpt lat="45.5462717" lon="10.79294"><ele>182.2</ele><time>2026-03-28T11:16:38.82Z</time></trkpt><trkpt lat="45.5462817" lon="10.7930783"><ele>182.0</ele><time>2026-03-28T11:16:40.821Z</time></trkpt><trkpt lat="45.5463633" lon="10.7931567"><ele>182.0</ele><time>2026-03-28T11:16:42.82Z</time></trkpt><trkpt lat="45.5464317" lon="10.7931783"><ele>182.0</ele><time>2026-03-28T11:16:43.82Z</time></trkpt><trkpt lat="45.5465133" lon="10.7931983"><ele>182.0</ele><time>2026-03-28T11:16:44.82Z</time></trkpt><trkpt lat="45.5465883" lon="10.7932267"><ele>182.0</ele><time>2026-03-28T11:16:45.82Z</time></trkpt><trkpt lat="45.546665" lon="10.7932633"><ele>182.0</ele><time>2026-03-28T11:16:46.821Z</time></trkpt><trkpt lat="45.5467567" lon="10.7932983"><ele>182.0</ele><time>2026-03-28T11:16:47.821Z</time></trkpt><trkpt lat="45.5468617" lon="10.7933367"><ele>182.0</ele><time>2026-03-28T11:16:48.82Z</time></trkpt><trkpt lat="45.5469767" lon="10.7933783"><ele>182.0</ele><time>2026-03-28T11:16:49.821Z</time></trkpt><trkpt lat="45.5471" lon="10.7934283"><ele>182.0</ele><time>2026-03-28T11:16:50.82Z</time></trkpt><trkpt lat="45.5472117" lon="10.7934817"><ele>182.0</ele><time>2026-03-28T11:16:51.82Z</time></trkpt><trkpt lat="45.5473" lon="10.7935283"><ele>182.0</ele><time>2026-03-28T11:16:52.82Z</time></trkpt><trkpt lat="45.547365" lon="10.79354"><ele>182.0</ele><time>2026-03-28T11:16:53.82Z</time></trkpt><trkpt lat="45.5474683" lon="10.7934167"><ele>182.0</ele><time>2026-03-28T11:16:55.82Z</time></trkpt><trkpt lat="45.5475067" lon="10.7933017"><ele>182.0</ele><time>2026-03-28T11:16:56.82Z</time></trkpt><trkpt lat="45.5475367" lon="10.7931633"><ele>182.0</ele><time>2026-03-28T11:16:57.82Z</time></trkpt><trkpt lat="45.5475633" lon="10.7929883"><ele>182.0</ele><time>2026-03-28T11:16:58.82Z</time></trkpt><trkpt lat="45.54759" lon="10.7928017"><ele>182.0</ele><time>2026-03-28T11:16:59.821Z</time></trkpt><trkpt lat="45.5476233" lon="10.7926333"><ele>182.0</ele><time>2026-03-28T11:17:00.82Z</time></trkpt><trkpt lat="45.5476533" lon="10.7925333"><ele>182.0</ele><time>2026-03-28T11:17:01.821Z</time></trkpt><trkpt lat="45.5477183" lon="10.792425"><ele>182.0</ele><time>2026-03-28T11:17:03.82Z</time></trkpt><trkpt lat="45.54784" lon="10.79243"><ele>182.2</ele><time>2026-03-28T11:17:05.82Z</time></trkpt><trkpt lat="45.547915" lon="10.7924733"><ele>182.39999999999998</ele><time>2026-03-28T11:17:06.821Z</time></trkpt><trkpt lat="45.547995" lon="10.7925583"><ele>182.60000000000002</ele><time>2026-03-28T11:17:07.82Z</time></trkpt><trkpt lat="45.5480933" lon="10.7926683"><ele>182.8</ele><time>2026-03-28T11:17:08.821Z</time></trkpt><trkpt lat="45.5482033" lon="10.7927633"><ele>183.0</ele><time>2026-03-28T11:17:09.821Z</time></trkpt><trkpt lat="45.5483267" lon="10.7928233"><ele>183.0</ele><time>2026-03-28T11:17:10.821Z</time></trkpt><trkpt lat="45.548455" lon="10.79285"><ele>183.0</ele><time>2026-03-28T11:17:11.821Z</time></trkpt><trkpt lat="45.5485933" lon="10.7928617"><ele>183.0</ele><time>2026-03-28T11:17:12.821Z</time></trkpt><trkpt lat="45.5487483" lon="10.79286"><ele>183.0</ele><time>2026-03-28T11:17:13.82Z</time></trkpt><trkpt lat="45.548895" lon="10.79284"><ele>184.0</ele><time>2026-03-28T11:17:14.82Z</time></trkpt><trkpt lat="45.5490367" lon="10.792805"><ele>185.0</ele><time>2026-03-28T11:17:15.82Z</time></trkpt><trkpt lat="45.5491633" lon="10.7927633"><ele>186.0</ele><time>2026-03-28T11:17:16.821Z</time></trkpt><trkpt lat="45.549275" lon="10.7927367"><ele>187.0</ele><time>2026-03-28T11:17:17.82Z</time></trkpt><trkpt lat="45.5493783" lon="10.792725"><ele>187.0</ele><time>2026-03-28T11:17:18.821Z</time></trkpt><trkpt lat="45.5494817" lon="10.7927383"><ele>187.0</ele><time>2026-03-28T11:17:19.821Z</time></trkpt><trkpt lat="45.54958" lon="10.792765"><ele>187.0</ele><time>2026-03-28T11:17:20.82Z</time></trkpt><trkpt lat="45.5496667" lon="10.7928083"><ele>187.0</ele><time>2026-03-28T11:17:21.821Z</time></trkpt><trkpt lat="45.5497517" lon="10.7928667"><ele>187.0</ele><time>2026-03-28T11:17:22.821Z</time></trkpt><trkpt lat="45.5498517" lon="10.7929383"><ele>186.75</ele><time>2026-03-28T11:17:23.821Z</time></trkpt><trkpt lat="45.5499583" lon="10.7930267"><ele>186.5</ele><time>2026-03-28T11:17:24.82Z</time></trkpt><trkpt lat="45.5500633" lon="10.79313"><ele>186.25</ele><time>2026-03-28T11:17:25.82Z</time></trkpt><trkpt lat="45.5501467" lon="10.793225"><ele>186.0</ele><time>2026-03-28T11:17:26.82Z</time></trkpt><trkpt lat="45.550235" lon="10.7933383"><ele>186.0</ele><time>2026-03-28T11:17:27.821Z</time></trkpt><trkpt lat="45.5503283" lon="10.7934867"><ele>186.0</ele><time>2026-03-28T11:17:28.821Z</time></trkpt><trkpt lat="45.5504117" lon="10.7936567"><ele>186.0</ele><time>2026-03-28T11:17:29.82Z</time></trkpt><trkpt lat="45.5505" lon="10.7938267"><ele>186.0</ele><time>2026-03-28T11:17:30.821Z</time></trkpt><trkpt lat="45.5505883" lon="10.7939833"><ele>186.0</ele><time>2026-03-28T11:17:31.821Z</time></trkpt><trkpt lat="45.55067" lon="10.7941317"><ele>186.0</ele><time>2026-03-28T11:17:32.821Z</time></trkpt><trkpt lat="45.550735" lon="10.7942533"><ele>186.0</ele><time>2026-03-28T11:17:33.82Z</time></trkpt><trkpt lat="45.5507783" lon="10.7943633"><ele>186.0</ele><time>2026-03-28T11:17:34.821Z</time></trkpt><trkpt lat="45.550805" lon="10.794465"><ele>186.0</ele><time>2026-03-28T11:17:35.82Z</time></trkpt><trkpt lat="45.5508183" lon="10.7945583"><ele>186.0</ele><time>2026-03-28T11:17:36.82Z</time></trkpt><trkpt lat="45.5508233" lon="10.7946533"><ele>186.0</ele><time>2026-03-28T11:17:37.82Z</time></trkpt><trkpt lat="45.5508133" lon="10.79477"><ele>186.0</ele><time>2026-03-28T11:17:38.821Z</time></trkpt><trkpt lat="45.5508133" lon="10.7949083"><ele>186.0</ele><time>2026-03-28T11:17:39.82Z</time></trkpt><trkpt lat="45.5508083" lon="10.7950867"><ele>186.0</ele><time>2026-03-28T11:17:40.82Z</time></trkpt><trkpt lat="45.550815" lon="10.7952983"><ele>186.0</ele><time>2026-03-28T11:17:41.82Z</time></trkpt><trkpt lat="45.5508067" lon="10.79552"><ele>186.0</ele><time>2026-03-28T11:17:42.82Z</time></trkpt><trkpt lat="45.5508033" lon="10.7957583"><ele>186.0</ele><time>2026-03-28T11:17:43.821Z</time></trkpt><trkpt lat="45.5507933" lon="10.79597"><ele>186.0</ele><time>2026-03-28T11:17:44.821Z</time></trkpt><trkpt lat="45.5507983" lon="10.796165"><ele>186.0</ele><time>2026-03-28T11:17:45.82Z</time></trkpt><trkpt lat="45.550795" lon="10.7963583"><ele>186.0</ele><time>2026-03-28T11:17:46.82Z</time></trkpt><trkpt lat="45.550805" lon="10.7965167"><ele>186.0</ele><time>2026-03-28T11:17:47.82Z</time></trkpt><trkpt lat="45.550815" lon="10.7966633"><ele>186.0</ele><time>2026-03-28T11:17:48.82Z</time></trkpt><trkpt lat="45.550815" lon="10.7968217"><ele>186.0</ele><time>2026-03-28T11:17:49.82Z</time></trkpt><trkpt lat="45.5508233" lon="10.7969667"><ele>186.0</ele><time>2026-03-28T11:17:50.821Z</time></trkpt><trkpt lat="45.5508217" lon="10.7971383"><ele>186.0</ele><time>2026-03-28T11:17:51.821Z</time></trkpt><trkpt lat="45.55082" lon="10.7973617"><ele>186.0</ele><time>2026-03-28T11:17:52.82Z</time></trkpt><trkpt lat="45.5508117" lon="10.7976133"><ele>186.0</ele><time>2026-03-28T11:17:53.82Z</time></trkpt><trkpt lat="45.5508067" lon="10.7978983"><ele>186.0</ele><time>2026-03-28T11:17:54.82Z</time></trkpt><trkpt lat="45.5507967" lon="10.7981917"><ele>185.5</ele><time>2026-03-28T11:17:55.82Z</time></trkpt><trkpt lat="45.55079" lon="10.7985133"><ele>185.0</ele><time>2026-03-28T11:17:56.821Z</time></trkpt><trkpt lat="45.5507717" lon="10.7988483"><ele>185.0</ele><time>2026-03-28T11:17:57.82Z</time></trkpt><trkpt lat="45.550765" lon="10.7992033"><ele>185.0</ele><time>2026-03-28T11:17:58.821Z</time></trkpt><trkpt lat="45.55077" lon="10.7995717"><ele>184.5</ele><time>2026-03-28T11:17:59.821Z</time></trkpt><trkpt lat="45.5507833" lon="10.799945"><ele>184.0</ele><time>2026-03-28T11:18:00.821Z</time></trkpt><trkpt lat="45.5508033" lon="10.8002983"><ele>182.0</ele><time>2026-03-28T11:18:01.82Z</time></trkpt><trkpt lat="45.550835" lon="10.800625"><ele>180.0</ele><time>2026-03-28T11:18:02.821Z</time></trkpt><trkpt lat="45.550855" lon="10.8009433"><ele>179.0</ele><time>2026-03-28T11:18:03.821Z</time></trkpt><trkpt lat="45.5508617" lon="10.8012367"><ele>178.0</ele><time>2026-03-28T11:18:04.82Z</time></trkpt><trkpt lat="45.5508617" lon="10.8015133"><ele>177.0</ele><time>2026-03-28T11:18:05.82Z</time></trkpt><trkpt lat="45.5508483" lon="10.8017733"><ele>177.0</ele><time>2026-03-28T11:18:06.821Z</time></trkpt><trkpt lat="45.550825" lon="10.8020033"><ele>177.0</ele><time>2026-03-28T11:18:07.82Z</time></trkpt><trkpt lat="45.5508017" lon="10.8022283"><ele>177.0</ele><time>2026-03-28T11:18:08.82Z</time></trkpt><trkpt lat="45.550785" lon="10.8024667"><ele>175.66666666666666</ele><time>2026-03-28T11:18:09.82Z</time></trkpt><trkpt lat="45.5507367" lon="10.802715"><ele>174.33333333333331</ele><time>2026-03-28T11:18:10.821Z</time></trkpt><trkpt lat="45.5506733" lon="10.8029383"><ele>173.0</ele><time>2026-03-28T11:18:11.82Z</time></trkpt><trkpt lat="45.5506167" lon="10.8031333"><ele>173.0</ele><time>2026-03-28T11:18:12.821Z</time></trkpt><trkpt lat="45.550525" lon="10.8033017"><ele>173.0</ele><time>2026-03-28T11:18:13.82Z</time></trkpt><trkpt lat="45.5504483" lon="10.8034433"><ele>173.0</ele><time>2026-03-28T11:18:14.82Z</time></trkpt><trkpt lat="45.5503917" lon="10.8035483"><ele>173.0</ele><time>2026-03-28T11:18:15.82Z</time></trkpt><trkpt lat="45.5503383" lon="10.803635"><ele>173.0</ele><time>2026-03-28T11:18:16.82Z</time></trkpt><trkpt lat="45.55035" lon="10.8037917"><ele>172.60000000000002</ele><time>2026-03-28T11:18:18.821Z</time></trkpt><trkpt lat="45.5504417" lon="10.8038983"><ele>172.20000000000002</ele><time>2026-03-28T11:18:20.821Z</time></trkpt><trkpt lat="45.5505117" lon="10.803945"><ele>171.8</ele><time>2026-03-28T11:18:21.821Z</time></trkpt><trkpt lat="45.55059" lon="10.8039883"><ele>171.4</ele><time>2026-03-28T11:18:22.82Z</time></trkpt><trkpt lat="45.550675" lon="10.8040283"><ele>171.0</ele><time>2026-03-28T11:18:23.82Z</time></trkpt><trkpt lat="45.5507733" lon="10.804045"><ele>171.0</ele><time>2026-03-28T11:18:24.82Z</time></trkpt><trkpt lat="45.5508883" lon="10.8040433"><ele>171.0</ele><time>2026-03-28T11:18:25.821Z</time></trkpt><trkpt lat="45.55101" lon="10.8040283"><ele>171.0</ele><time>2026-03-28T11:18:26.821Z</time></trkpt><trkpt lat="45.5511383" lon="10.8040067"><ele>171.0</ele><time>2026-03-28T11:18:27.821Z</time></trkpt><trkpt lat="45.5512967" lon="10.803985"><ele>171.66666666666666</ele><time>2026-03-28T11:18:28.82Z</time></trkpt><trkpt lat="45.5514667" lon="10.8039617"><ele>172.33333333333331</ele><time>2026-03-28T11:18:29.821Z</time></trkpt><trkpt lat="45.551665" lon="10.8039333"><ele>173.0</ele><time>2026-03-28T11:18:30.82Z</time></trkpt><trkpt lat="45.551875" lon="10.8039133"><ele>172.5</ele><time>2026-03-28T11:18:31.821Z</time></trkpt><trkpt lat="45.55209" lon="10.8038883"><ele>172.0</ele><time>2026-03-28T11:18:32.821Z</time></trkpt><trkpt lat="45.55233" lon="10.80386"><ele>172.0</ele><time>2026-03-28T11:18:33.821Z</time></trkpt><trkpt lat="45.5525667" lon="10.8038283"><ele>172.0</ele><time>2026-03-28T11:18:34.82Z</time></trkpt><trkpt lat="45.5528167" lon="10.8038017"><ele>173.5</ele><time>2026-03-28T11:18:35.821Z</time></trkpt><trkpt lat="45.55307" lon="10.8037717"><ele>175.0</ele><time>2026-03-28T11:18:36.82Z</time></trkpt><trkpt lat="45.5533017" lon="10.803735"><ele>175.0</ele><time>2026-03-28T11:18:37.821Z</time></trkpt><trkpt lat="45.5535183" lon="10.80369"><ele>175.0</ele><time>2026-03-28T11:18:38.821Z</time></trkpt><trkpt lat="45.553715" lon="10.8036617"><ele>175.0</ele><time>2026-03-28T11:18:39.821Z</time></trkpt><trkpt lat="45.5539117" lon="10.8036367"><ele>175.0</ele><time>2026-03-28T11:18:40.821Z</time></trkpt><trkpt lat="45.5541133" lon="10.8036267"><ele>175.0</ele><time>2026-03-28T11:18:41.82Z</time></trkpt><trkpt lat="45.554325" lon="10.8036467"><ele>175.0</ele><time>2026-03-28T11:18:42.821Z</time></trkpt><trkpt lat="45.5545267" lon="10.8036683"><ele>176.0</ele><time>2026-03-28T11:18:43.82Z</time></trkpt><trkpt lat="45.554745" lon="10.80369"><ele>177.0</ele><time>2026-03-28T11:18:44.82Z</time></trkpt><trkpt lat="45.554975" lon="10.80367"><ele>178.0</ele><time>2026-03-28T11:18:45.82Z</time></trkpt><trkpt lat="45.555215" lon="10.80361"><ele>178.0</ele><time>2026-03-28T11:18:46.821Z</time></trkpt><trkpt lat="45.55544" lon="10.8034967"><ele>178.0</ele><time>2026-03-28T11:18:47.82Z</time></trkpt><trkpt lat="45.5556483" lon="10.8033533"><ele>178.0</ele><time>2026-03-28T11:18:48.821Z</time></trkpt><trkpt lat="45.555855" lon="10.80317"><ele>178.0</ele><time>2026-03-28T11:18:49.821Z</time></trkpt><trkpt lat="45.5560567" lon="10.8029783"><ele>179.0</ele><time>2026-03-28T11:18:50.821Z</time></trkpt><trkpt lat="45.5562617" lon="10.80277"><ele>180.0</ele><time>2026-03-28T11:18:51.82Z</time></trkpt><trkpt lat="45.5564717" lon="10.8025683"><ele>180.0</ele><time>2026-03-28T11:18:52.82Z</time></trkpt><trkpt lat="45.5566817" lon="10.8023683"><ele>180.0</ele><time>2026-03-28T11:18:53.821Z</time></trkpt><trkpt lat="45.5568817" lon="10.80218"><ele>181.5</ele><time>2026-03-28T11:18:54.821Z</time></trkpt><trkpt lat="45.5570783" lon="10.801995"><ele>183.0</ele><time>2026-03-28T11:18:55.82Z</time></trkpt><trkpt lat="45.557275" lon="10.8018067"><ele>183.0</ele><time>2026-03-28T11:18:56.821Z</time></trkpt><trkpt lat="45.5574717" lon="10.8016333"><ele>183.0</ele><time>2026-03-28T11:18:57.82Z</time></trkpt><trkpt lat="45.5576417" lon="10.8014767"><ele>183.0</ele><time>2026-03-28T11:18:58.821Z</time></trkpt><trkpt lat="45.5577917" lon="10.8013533"><ele>183.75</ele><time>2026-03-28T11:18:59.82Z</time></trkpt><trkpt lat="45.5579283" lon="10.8012567"><ele>184.5</ele><time>2026-03-28T11:19:00.82Z</time></trkpt><trkpt lat="45.558035" lon="10.8011883"><ele>185.25</ele><time>2026-03-28T11:19:01.82Z</time></trkpt><trkpt lat="45.5581333" lon="10.8011133"><ele>186.0</ele><time>2026-03-28T11:19:02.821Z</time></trkpt><trkpt lat="45.558235" lon="10.80103"><ele>185.75</ele><time>2026-03-28T11:19:03.82Z</time></trkpt><trkpt lat="45.558345" lon="10.8009383"><ele>185.5</ele><time>2026-03-28T11:19:04.821Z</time></trkpt><trkpt lat="45.55846" lon="10.8008233"><ele>185.25</ele><time>2026-03-28T11:19:05.82Z</time></trkpt><trkpt lat="45.558565" lon="10.800695"><ele>185.0</ele><time>2026-03-28T11:19:06.82Z</time></trkpt><trkpt lat="45.5586717" lon="10.8005483"><ele>185.0</ele><time>2026-03-28T11:19:07.82Z</time></trkpt><trkpt lat="45.5587833" lon="10.8004167"><ele>185.0</ele><time>2026-03-28T11:19:08.82Z</time></trkpt><trkpt lat="45.5589233" lon="10.80027"><ele>185.0</ele><time>2026-03-28T11:19:09.821Z</time></trkpt><trkpt lat="45.5590683" lon="10.8001017"><ele>185.0</ele><time>2026-03-28T11:19:10.821Z</time></trkpt><trkpt lat="45.55926" lon="10.7999733"><ele>185.0</ele><time>2026-03-28T11:19:11.82Z</time></trkpt><trkpt lat="45.5594533" lon="10.7998817"><ele>185.0</ele><time>2026-03-28T11:19:12.82Z</time></trkpt><trkpt lat="45.5596517" lon="10.7998667"><ele>185.5</ele><time>2026-03-28T11:19:13.82Z</time></trkpt><trkpt lat="45.5598867" lon="10.7998567"><ele>186.0</ele><time>2026-03-28T11:19:14.82Z</time></trkpt><trkpt lat="45.56012" lon="10.7998867"><ele>186.0</ele><time>2026-03-28T11:19:15.821Z</time></trkpt><trkpt lat="45.560355" lon="10.79994"><ele>186.0</ele><time>2026-03-28T11:19:16.82Z</time></trkpt><trkpt lat="45.5606017" lon="10.7999917"><ele>185.5</ele><time>2026-03-28T11:19:17.82Z</time></trkpt><trkpt lat="45.56085" lon="10.8000283"><ele>185.0</ele><time>2026-03-28T11:19:18.82Z</time></trkpt><trkpt lat="45.5611033" lon="10.8000567"><ele>185.5</ele><time>2026-03-28T11:19:19.821Z</time></trkpt><trkpt lat="45.5613717" lon="10.800085"><ele>186.0</ele><time>2026-03-28T11:19:20.82Z</time></trkpt><trkpt lat="45.5616467" lon="10.8001183"><ele>186.0</ele><time>2026-03-28T11:19:21.821Z</time></trkpt><trkpt lat="45.5619233" lon="10.8001433"><ele>186.0</ele><time>2026-03-28T11:19:22.82Z</time></trkpt><trkpt lat="45.5622133" lon="10.8001783"><ele>187.0</ele><time>2026-03-28T11:19:23.82Z</time></trkpt><trkpt lat="45.5624867" lon="10.8002417"><ele>188.0</ele><time>2026-03-28T11:19:24.821Z</time></trkpt><trkpt lat="45.562755" lon="10.8003217"><ele>189.5</ele><time>2026-03-28T11:19:25.821Z</time></trkpt><trkpt lat="45.563005" lon="10.8004417"><ele>191.0</ele><time>2026-03-28T11:19:26.82Z</time></trkpt><trkpt lat="45.5632583" lon="10.8005733"><ele>191.0</ele><time>2026-03-28T11:19:27.82Z</time></trkpt><trkpt lat="45.563505" lon="10.8007233"><ele>191.0</ele><time>2026-03-28T11:19:28.821Z</time></trkpt><trkpt lat="45.5637467" lon="10.8008983"><ele>190.0</ele><time>2026-03-28T11:19:29.82Z</time></trkpt><trkpt lat="45.563965" lon="10.8011067"><ele>189.0</ele><time>2026-03-28T11:19:30.82Z</time></trkpt><trkpt lat="45.5641833" lon="10.80131"><ele>189.0</ele><time>2026-03-28T11:19:31.82Z</time></trkpt><trkpt lat="45.564405" lon="10.8014883"><ele>189.0</ele><time>2026-03-28T11:19:32.821Z</time></trkpt><trkpt lat="45.56463" lon="10.80165"><ele>189.5</ele><time>2026-03-28T11:19:33.82Z</time></trkpt><trkpt lat="45.5648583" lon="10.8017683"><ele>190.0</ele><time>2026-03-28T11:19:34.82Z</time></trkpt><trkpt lat="45.5651033" lon="10.8018633"><ele>190.5</ele><time>2026-03-28T11:19:35.82Z</time></trkpt><trkpt lat="45.5653683" lon="10.80194"><ele>191.0</ele><time>2026-03-28T11:19:36.82Z</time></trkpt><trkpt lat="45.5656367" lon="10.8019867"><ele>191.0</ele><time>2026-03-28T11:19:37.82Z</time></trkpt><trkpt lat="45.5659067" lon="10.802035"><ele>191.0</ele><time>2026-03-28T11:19:38.82Z</time></trkpt><trkpt lat="45.5661633" lon="10.802085"><ele>190.5</ele><time>2026-03-28T11:19:39.819Z</time></trkpt><trkpt lat="45.5664083" lon="10.8021483"><ele>190.0</ele><time>2026-03-28T11:19:40.82Z</time></trkpt><trkpt lat="45.56664" lon="10.8022017"><ele>190.0</ele><time>2026-03-28T11:19:41.819Z</time></trkpt><trkpt lat="45.566855" lon="10.8022483"><ele>190.0</ele><time>2026-03-28T11:19:42.82Z</time></trkpt><trkpt lat="45.5670683" lon="10.802275"><ele>190.0</ele><time>2026-03-28T11:19:43.819Z</time></trkpt><trkpt lat="45.56727" lon="10.8022817"><ele>190.66666666666669</ele><time>2026-03-28T11:19:44.82Z</time></trkpt><trkpt lat="45.5674483" lon="10.802285"><ele>191.33333333333334</ele><time>2026-03-28T11:19:45.819Z</time></trkpt><trkpt lat="45.5676067" lon="10.8022783"><ele>192.0</ele><time>2026-03-28T11:19:46.82Z</time></trkpt><trkpt lat="45.5677533" lon="10.8022667"><ele>191.83333333333334</ele><time>2026-03-28T11:19:47.82Z</time></trkpt><trkpt lat="45.567875" lon="10.802255"><ele>191.66666666666666</ele><time>2026-03-28T11:19:48.82Z</time></trkpt><trkpt lat="45.5679833" lon="10.8022367"><ele>191.5</ele><time>2026-03-28T11:19:49.82Z</time></trkpt><trkpt lat="45.568065" lon="10.802225"><ele>191.33333333333331</ele><time>2026-03-28T11:19:50.82Z</time></trkpt><trkpt lat="45.56813" lon="10.8022167"><ele>191.16666666666666</ele><time>2026-03-28T11:19:51.819Z</time></trkpt><trkpt lat="45.5681983" lon="10.8021983"><ele>191.0</ele><time>2026-03-28T11:19:52.82Z</time></trkpt><trkpt lat="45.5682883" lon="10.8021867"><ele>191.0</ele><time>2026-03-28T11:19:53.819Z</time></trkpt><trkpt lat="45.5684017" lon="10.8021617"><ele>191.0</ele><time>2026-03-28T11:19:54.819Z</time></trkpt><trkpt lat="45.5685167" lon="10.802145"><ele>191.0</ele><time>2026-03-28T11:19:55.819Z</time></trkpt><trkpt lat="45.5686433" lon="10.8021267"><ele>191.0</ele><time>2026-03-28T11:19:56.82Z</time></trkpt><trkpt lat="45.5687667" lon="10.8021267"><ele>191.75</ele><time>2026-03-28T11:19:57.82Z</time></trkpt><trkpt lat="45.5688917" lon="10.8021417"><ele>192.5</ele><time>2026-03-28T11:19:58.819Z</time></trkpt><trkpt lat="45.56902" lon="10.8021517"><ele>193.25</ele><time>2026-03-28T11:19:59.819Z</time></trkpt><trkpt lat="45.56914" lon="10.802165"><ele>194.0</ele><time>2026-03-28T11:20:00.819Z</time></trkpt><trkpt lat="45.5692333" lon="10.8021483"><ele>194.0</ele><time>2026-03-28T11:20:01.819Z</time></trkpt><trkpt lat="45.5693" lon="10.8021"><ele>194.0</ele><time>2026-03-28T11:20:02.819Z</time></trkpt><trkpt lat="45.5693633" lon="10.8020067"><ele>194.0</ele><time>2026-03-28T11:20:03.82Z</time></trkpt><trkpt lat="45.5694017" lon="10.8018883"><ele>194.0</ele><time>2026-03-28T11:20:04.82Z</time></trkpt><trkpt lat="45.56944" lon="10.8017433"><ele>194.0</ele><time>2026-03-28T11:20:05.82Z</time></trkpt><trkpt lat="45.5694767" lon="10.8015883"><ele>193.5</ele><time>2026-03-28T11:20:06.82Z</time></trkpt><trkpt lat="45.5695233" lon="10.80142"><ele>193.0</ele><time>2026-03-28T11:20:07.819Z</time></trkpt><trkpt lat="45.5695783" lon="10.8012433"><ele>192.5</ele><time>2026-03-28T11:20:08.819Z</time></trkpt><trkpt lat="45.5696233" lon="10.8010533"><ele>192.0</ele><time>2026-03-28T11:20:09.82Z</time></trkpt><trkpt lat="45.5696733" lon="10.8008583"><ele>192.0</ele><time>2026-03-28T11:20:10.819Z</time></trkpt><trkpt lat="45.5697217" lon="10.8006533"><ele>192.0</ele><time>2026-03-28T11:20:11.82Z</time></trkpt><trkpt lat="45.5697617" lon="10.80046"><ele>192.0</ele><time>2026-03-28T11:20:12.819Z</time></trkpt><trkpt lat="45.5698083" lon="10.8002983"><ele>192.0</ele><time>2026-03-28T11:20:13.819Z</time></trkpt><trkpt lat="45.5698533" lon="10.8001683"><ele>192.33333333333334</ele><time>2026-03-28T11:20:14.819Z</time></trkpt><trkpt lat="45.5699167" lon="10.8000733"><ele>192.66666666666669</ele><time>2026-03-28T11:20:15.82Z</time></trkpt><trkpt lat="45.56998" lon="10.800025"><ele>193.0</ele><time>2026-03-28T11:20:16.82Z</time></trkpt><trkpt lat="45.5700467" lon="10.7999867"><ele>193.33333333333334</ele><time>2026-03-28T11:20:17.82Z</time></trkpt><trkpt lat="45.5701217" lon="10.79997"><ele>193.66666666666669</ele><time>2026-03-28T11:20:18.819Z</time></trkpt><trkpt lat="45.5702133" lon="10.7999567"><ele>194.0</ele><time>2026-03-28T11:20:19.82Z</time></trkpt><trkpt lat="45.5703167" lon="10.799945"><ele>194.75</ele><time>2026-03-28T11:20:20.82Z</time></trkpt><trkpt lat="45.570415" lon="10.7999233"><ele>195.5</ele><time>2026-03-28T11:20:21.819Z</time></trkpt><trkpt lat="45.5705283" lon="10.7998783"><ele>196.25</ele><time>2026-03-28T11:20:22.819Z</time></trkpt><trkpt lat="45.5706483" lon="10.7997983"><ele>197.0</ele><time>2026-03-28T11:20:23.819Z</time></trkpt><trkpt lat="45.5707617" lon="10.7997133"><ele>197.0</ele><time>2026-03-28T11:20:24.82Z</time></trkpt><trkpt lat="45.5708667" lon="10.7996217"><ele>197.0</ele><time>2026-03-28T11:20:25.82Z</time></trkpt><trkpt lat="45.57099" lon="10.799555"><ele>197.0</ele><time>2026-03-28T11:20:26.82Z</time></trkpt><trkpt lat="45.5711183" lon="10.79948"><ele>197.0</ele><time>2026-03-28T11:20:27.82Z</time></trkpt><trkpt lat="45.5712483" lon="10.79939"><ele>198.0</ele><time>2026-03-28T11:20:28.819Z</time></trkpt><trkpt lat="45.5713733" lon="10.7992967"><ele>199.0</ele><time>2026-03-28T11:20:29.819Z</time></trkpt><trkpt lat="45.5715133" lon="10.7991917"><ele>200.0</ele><time>2026-03-28T11:20:30.82Z</time></trkpt><trkpt lat="45.57165" lon="10.7991033"><ele>201.0</ele><time>2026-03-28T11:20:31.82Z</time></trkpt><trkpt lat="45.57178" lon="10.7990017"><ele>201.0</ele><time>2026-03-28T11:20:32.819Z</time></trkpt><trkpt lat="45.5719067" lon="10.7989133"><ele>201.0</ele><time>2026-03-28T11:20:33.819Z</time></trkpt><trkpt lat="45.5720183" lon="10.7988217"><ele>201.0</ele><time>2026-03-28T11:20:34.819Z</time></trkpt><trkpt lat="45.5721217" lon="10.79873"><ele>201.0</ele><time>2026-03-28T11:20:35.82Z</time></trkpt><trkpt lat="45.57222" lon="10.79864"><ele>201.0</ele><time>2026-03-28T11:20:36.82Z</time></trkpt><trkpt lat="45.572325" lon="10.7985617"><ele>201.0</ele><time>2026-03-28T11:20:37.82Z</time></trkpt><trkpt lat="45.57243" lon="10.7984783"><ele>201.0</ele><time>2026-03-28T11:20:38.82Z</time></trkpt><trkpt lat="45.572555" lon="10.7984017"><ele>201.0</ele><time>2026-03-28T11:20:39.819Z</time></trkpt><trkpt lat="45.5726867" lon="10.798315"><ele>201.66666666666669</ele><time>2026-03-28T11:20:40.82Z</time></trkpt><trkpt lat="45.572815" lon="10.7982233"><ele>202.33333333333334</ele><time>2026-03-28T11:20:41.82Z</time></trkpt><trkpt lat="45.5729633" lon="10.79815"><ele>203.0</ele><time>2026-03-28T11:20:42.819Z</time></trkpt><trkpt lat="45.573115" lon="10.7980817"><ele>203.0</ele><time>2026-03-28T11:20:43.82Z</time></trkpt><trkpt lat="45.5732733" lon="10.7980183"><ele>203.0</ele><time>2026-03-28T11:20:44.82Z</time></trkpt><trkpt lat="45.573435" lon="10.79795"><ele>203.0</ele><time>2026-03-28T11:20:45.82Z</time></trkpt><trkpt lat="45.5735867" lon="10.7978767"><ele>201.75</ele><time>2026-03-28T11:20:46.819Z</time></trkpt><trkpt lat="45.5737267" lon="10.7978267"><ele>200.5</ele><time>2026-03-28T11:20:47.819Z</time></trkpt><trkpt lat="45.5738617" lon="10.7977667"><ele>199.25</ele><time>2026-03-28T11:20:48.819Z</time></trkpt><trkpt lat="45.57401" lon="10.7976883"><ele>198.0</ele><time>2026-03-28T11:20:49.819Z</time></trkpt><trkpt lat="45.5741333" lon="10.79762"><ele>198.5</ele><time>2026-03-28T11:20:50.82Z</time></trkpt><trkpt lat="45.5742533" lon="10.7975433"><ele>199.0</ele><time>2026-03-28T11:20:51.819Z</time></trkpt><trkpt lat="45.5743633" lon="10.797455"><ele>199.5</ele><time>2026-03-28T11:20:52.82Z</time></trkpt><trkpt lat="45.57447" lon="10.7973267"><ele>200.0</ele><time>2026-03-28T11:20:53.819Z</time></trkpt><trkpt lat="45.5745633" lon="10.7971733"><ele>200.0</ele><time>2026-03-28T11:20:54.82Z</time></trkpt><trkpt lat="45.5746417" lon="10.7970417"><ele>200.0</ele><time>2026-03-28T11:20:55.819Z</time></trkpt><trkpt lat="45.5747433" lon="10.7969317"><ele>200.0</ele><time>2026-03-28T11:20:56.82Z</time></trkpt><trkpt lat="45.574855" lon="10.7968433"><ele>200.0</ele><time>2026-03-28T11:20:57.82Z</time></trkpt><trkpt lat="45.5749817" lon="10.79674"><ele>199.75</ele><time>2026-03-28T11:20:58.819Z</time></trkpt><trkpt lat="45.5751117" lon="10.79663"><ele>199.5</ele><time>2026-03-28T11:20:59.819Z</time></trkpt><trkpt lat="45.5752433" lon="10.7965217"><ele>199.25</ele><time>2026-03-28T11:21:00.819Z</time></trkpt><trkpt lat="45.5753583" lon="10.79641"><ele>199.0</ele><time>2026-03-28T11:21:01.82Z</time></trkpt><trkpt lat="45.5754567" lon="10.79628"><ele>199.0</ele><time>2026-03-28T11:21:02.82Z</time></trkpt><trkpt lat="45.57556" lon="10.7961467"><ele>199.0</ele><time>2026-03-28T11:21:03.82Z</time></trkpt><trkpt lat="45.5756617" lon="10.795995"><ele>199.0</ele><time>2026-03-28T11:21:04.819Z</time></trkpt><trkpt lat="45.5757617" lon="10.7958383"><ele>199.0</ele><time>2026-03-28T11:21:05.82Z</time></trkpt><trkpt lat="45.5758517" lon="10.79569"><ele>199.0</ele><time>2026-03-28T11:21:06.82Z</time></trkpt><trkpt lat="45.5759333" lon="10.7955533"><ele>199.0</ele><time>2026-03-28T11:21:07.82Z</time></trkpt><trkpt lat="45.5760133" lon="10.79543"><ele>199.0</ele><time>2026-03-28T11:21:08.819Z</time></trkpt><trkpt lat="45.5761017" lon="10.795325"><ele>199.0</ele><time>2026-03-28T11:21:09.82Z</time></trkpt><trkpt lat="45.5761917" lon="10.7952467"><ele>198.99999999999997</ele><time>2026-03-28T11:21:10.82Z</time></trkpt><trkpt lat="45.5762567" lon="10.7951967"><ele>199.0</ele><time>2026-03-28T11:21:11.82Z</time></trkpt><trkpt lat="45.57632" lon="10.7951617"><ele>199.0</ele><time>2026-03-28T11:21:12.82Z</time></trkpt><trkpt lat="45.576415" lon="10.795135"><ele>199.0</ele><time>2026-03-28T11:21:14.82Z</time></trkpt><trkpt lat="45.5764933" lon="10.7950467"><ele>198.99999999999997</ele><time>2026-03-28T11:21:16.819Z</time></trkpt><trkpt lat="45.5765167" lon="10.7949367"><ele>199.0</ele><time>2026-03-28T11:21:17.819Z</time></trkpt><trkpt lat="45.5765417" lon="10.7947817"><ele>199.75</ele><time>2026-03-28T11:21:18.819Z</time></trkpt><trkpt lat="45.57655" lon="10.794585"><ele>200.5</ele><time>2026-03-28T11:21:19.819Z</time></trkpt><trkpt lat="45.5765467" lon="10.7943733"><ele>201.25</ele><time>2026-03-28T11:21:20.819Z</time></trkpt><trkpt lat="45.57654" lon="10.794145"><ele>202.0</ele><time>2026-03-28T11:21:21.819Z</time></trkpt><trkpt lat="45.5765517" lon="10.7938817"><ele>202.0</ele><time>2026-03-28T11:21:22.819Z</time></trkpt><trkpt lat="45.5765567" lon="10.793595"><ele>202.0</ele><time>2026-03-28T11:21:23.819Z</time></trkpt><trkpt lat="45.57657" lon="10.7932883"><ele>202.0</ele><time>2026-03-28T11:21:24.819Z</time></trkpt><trkpt lat="45.5765883" lon="10.79295"><ele>202.0</ele><time>2026-03-28T11:21:25.82Z</time></trkpt><trkpt lat="45.5765967" lon="10.7926017"><ele>202.0</ele><time>2026-03-28T11:21:26.819Z</time></trkpt><trkpt lat="45.5766083" lon="10.7922733"><ele>202.0</ele><time>2026-03-28T11:21:27.82Z</time></trkpt><trkpt lat="45.576615" lon="10.7919933"><ele>202.0</ele><time>2026-03-28T11:21:28.819Z</time></trkpt><trkpt lat="45.5766" lon="10.79175"><ele>202.0</ele><time>2026-03-28T11:21:29.82Z</time></trkpt><trkpt lat="45.5765667" lon="10.7915133"><ele>202.0</ele><time>2026-03-28T11:21:30.82Z</time></trkpt><trkpt lat="45.576495" lon="10.7912817"><ele>202.0</ele><time>2026-03-28T11:21:31.82Z</time></trkpt><trkpt lat="45.5763833" lon="10.7910617"><ele>202.0</ele><time>2026-03-28T11:21:32.819Z</time></trkpt><trkpt lat="45.576245" lon="10.7908417"><ele>203.5</ele><time>2026-03-28T11:21:33.819Z</time></trkpt><trkpt lat="45.5761" lon="10.7906083"><ele>205.0</ele><time>2026-03-28T11:21:34.82Z</time></trkpt><trkpt lat="45.5759567" lon="10.790345"><ele>207.0</ele><time>2026-03-28T11:21:35.82Z</time></trkpt><trkpt lat="45.5758333" lon="10.7900633"><ele>209.0</ele><time>2026-03-28T11:21:36.82Z</time></trkpt><trkpt lat="45.5757083" lon="10.7897717"><ele>209.0</ele><time>2026-03-28T11:21:37.819Z</time></trkpt><trkpt lat="45.5755967" lon="10.78949"><ele>209.0</ele><time>2026-03-28T11:21:38.82Z</time></trkpt><trkpt lat="45.57551" lon="10.7892283"><ele>209.0</ele><time>2026-03-28T11:21:39.819Z</time></trkpt><trkpt lat="45.57546" lon="10.788975"><ele>212.33333333333334</ele><time>2026-03-28T11:21:40.819Z</time></trkpt><trkpt lat="45.5754467" lon="10.788735"><ele>215.66666666666669</ele><time>2026-03-28T11:21:41.82Z</time></trkpt><trkpt lat="45.5754433" lon="10.788475"><ele>219.0</ele><time>2026-03-28T11:21:42.82Z</time></trkpt><trkpt lat="45.5754683" lon="10.7881917"><ele>219.0</ele><time>2026-03-28T11:21:43.82Z</time></trkpt><trkpt lat="45.575485" lon="10.7878983"><ele>219.0</ele><time>2026-03-28T11:21:44.819Z</time></trkpt><trkpt lat="45.5755067" lon="10.7875933"><ele>219.0</ele><time>2026-03-28T11:21:45.82Z</time></trkpt><trkpt lat="45.57554" lon="10.787285"><ele>219.0</ele><time>2026-03-28T11:21:46.819Z</time></trkpt><trkpt lat="45.5755867" lon="10.7869783"><ele>219.0</ele><time>2026-03-28T11:21:47.819Z</time></trkpt><trkpt lat="45.575625" lon="10.786685"><ele>219.0</ele><time>2026-03-28T11:21:48.819Z</time></trkpt><trkpt lat="45.5756533" lon="10.7864067"><ele>219.0</ele><time>2026-03-28T11:21:49.819Z</time></trkpt><trkpt lat="45.5756683" lon="10.7861567"><ele>219.0</ele><time>2026-03-28T11:21:50.82Z</time></trkpt><trkpt lat="45.5756783" lon="10.7859017"><ele>219.0</ele><time>2026-03-28T11:21:51.82Z</time></trkpt><trkpt lat="45.5756667" lon="10.7856283"><ele>220.66666666666669</ele><time>2026-03-28T11:21:52.82Z</time></trkpt><trkpt lat="45.5756417" lon="10.7853567"><ele>222.33333333333334</ele><time>2026-03-28T11:21:53.819Z</time></trkpt><trkpt lat="45.5756033" lon="10.7850667"><ele>224.0</ele><time>2026-03-28T11:21:54.819Z</time></trkpt><trkpt lat="45.5755633" lon="10.7847683"><ele>226.33333333333334</ele><time>2026-03-28T11:21:55.82Z</time></trkpt><trkpt lat="45.5755233" lon="10.7844733"><ele>228.66666666666669</ele><time>2026-03-28T11:21:56.82Z</time></trkpt><trkpt lat="45.5754683" lon="10.7841833"><ele>231.0</ele><time>2026-03-28T11:21:57.82Z</time></trkpt><trkpt lat="45.5754233" lon="10.7838817"><ele>234.5</ele><time>2026-03-28T11:21:58.819Z</time></trkpt><trkpt lat="45.5753817" lon="10.78356"><ele>238.0</ele><time>2026-03-28T11:21:59.82Z</time></trkpt><trkpt lat="45.5753517" lon="10.7832183"><ele>232.5</ele><time>2026-03-28T11:22:00.819Z</time></trkpt><trkpt lat="45.5753467" lon="10.7828633"><ele>227.0</ele><time>2026-03-28T11:22:01.819Z</time></trkpt><trkpt lat="45.57534" lon="10.7825117"><ele>227.0</ele><time>2026-03-28T11:22:02.82Z</time></trkpt><trkpt lat="45.5753367" lon="10.7822033"><ele>227.0</ele><time>2026-03-28T11:22:03.819Z</time></trkpt><trkpt lat="45.5753317" lon="10.7819283"><ele>227.0</ele><time>2026-03-28T11:22:04.819Z</time></trkpt><trkpt lat="45.5753683" lon="10.7816917"><ele>232.66666666666669</ele><time>2026-03-28T11:22:05.819Z</time></trkpt><trkpt lat="45.5754367" lon="10.7814883"><ele>238.33333333333331</ele><time>2026-03-28T11:22:06.82Z</time></trkpt><trkpt lat="45.575535" lon="10.7812683"><ele>244.0</ele><time>2026-03-28T11:22:07.819Z</time></trkpt><trkpt lat="45.5756267" lon="10.7810183"><ele>243.0</ele><time>2026-03-28T11:22:08.819Z</time></trkpt><trkpt lat="45.5756883" lon="10.7807467"><ele>242.0</ele><time>2026-03-28T11:22:09.819Z</time></trkpt><trkpt lat="45.57572" lon="10.7804633"><ele>241.0</ele><time>2026-03-28T11:22:10.82Z</time></trkpt><trkpt lat="45.5757117" lon="10.78018"><ele>238.0</ele><time>2026-03-28T11:22:11.819Z</time></trkpt><trkpt lat="45.575685" lon="10.7799083"><ele>235.0</ele><time>2026-03-28T11:22:12.82Z</time></trkpt><trkpt lat="45.5756167" lon="10.779655"><ele>232.0</ele><time>2026-03-28T11:22:13.819Z</time></trkpt><trkpt lat="45.5754983" lon="10.7793967"><ele>232.5</ele><time>2026-03-28T11:22:14.82Z</time></trkpt><trkpt lat="45.5753533" lon="10.7791483"><ele>233.0</ele><time>2026-03-28T11:22:15.819Z</time></trkpt><trkpt lat="45.575185" lon="10.7789017"><ele>233.0</ele><time>2026-03-28T11:22:16.82Z</time></trkpt><trkpt lat="45.5750233" lon="10.778645"><ele>233.0</ele><time>2026-03-28T11:22:17.82Z</time></trkpt><trkpt lat="45.5748567" lon="10.778355"><ele>227.5</ele><time>2026-03-28T11:22:18.82Z</time></trkpt><trkpt lat="45.5746767" lon="10.7780167"><ele>222.0</ele><time>2026-03-28T11:22:19.82Z</time></trkpt><trkpt lat="45.5745183" lon="10.7776617"><ele>220.5</ele><time>2026-03-28T11:22:20.82Z</time></trkpt><trkpt lat="45.5743667" lon="10.7772967"><ele>219.0</ele><time>2026-03-28T11:22:21.819Z</time></trkpt><trkpt lat="45.57423" lon="10.7769417"><ele>219.5</ele><time>2026-03-28T11:22:22.82Z</time></trkpt><trkpt lat="45.574095" lon="10.776615"><ele>220.0</ele><time>2026-03-28T11:22:23.819Z</time></trkpt><trkpt lat="45.573965" lon="10.7763217"><ele>220.0</ele><time>2026-03-28T11:22:24.82Z</time></trkpt><trkpt lat="45.57386" lon="10.7760217"><ele>220.0</ele><time>2026-03-28T11:22:25.82Z</time></trkpt><trkpt lat="45.5737717" lon="10.7757267"><ele>221.0</ele><time>2026-03-28T11:22:26.82Z</time></trkpt><trkpt lat="45.5736933" lon="10.77544"><ele>222.0</ele><time>2026-03-28T11:22:27.82Z</time></trkpt><trkpt lat="45.5736183" lon="10.7751717"><ele>223.0</ele><time>2026-03-28T11:22:28.82Z</time></trkpt><trkpt lat="45.573545" lon="10.7749167"><ele>221.25</ele><time>2026-03-28T11:22:29.82Z</time></trkpt><trkpt lat="45.5734967" lon="10.7747033"><ele>219.5</ele><time>2026-03-28T11:22:30.82Z</time></trkpt><trkpt lat="45.5734683" lon="10.7745333"><ele>217.75</ele><time>2026-03-28T11:22:31.819Z</time></trkpt><trkpt lat="45.5734583" lon="10.7744117"><ele>216.0</ele><time>2026-03-28T11:22:32.819Z</time></trkpt><trkpt lat="45.573445" lon="10.774245"><ele>215.60000000000002</ele><time>2026-03-28T11:22:34.819Z</time></trkpt><trkpt lat="45.5734267" lon="10.7740883"><ele>215.20000000000002</ele><time>2026-03-28T11:22:36.819Z</time></trkpt><trkpt lat="45.5734233" lon="10.7739983"><ele>214.79999999999998</ele><time>2026-03-28T11:22:38.82Z</time></trkpt><trkpt lat="45.5734233" lon="10.7738167"><ele>214.39999999999998</ele><time>2026-03-28T11:22:47.819Z</time></trkpt><trkpt lat="45.57342" lon="10.7736767"><ele>214.0</ele><time>2026-03-28T11:22:48.82Z</time></trkpt><trkpt lat="45.573425" lon="10.773465"><ele>214.0</ele><time>2026-03-28T11:22:49.819Z</time></trkpt><trkpt lat="45.573425" lon="10.7732233"><ele>214.0</ele><time>2026-03-28T11:22:50.819Z</time></trkpt><trkpt lat="45.57343" lon="10.77296"><ele>214.0</ele><time>2026-03-28T11:22:51.82Z</time></trkpt><trkpt lat="45.57344" lon="10.7726933"><ele>213.66666666666666</ele><time>2026-03-28T11:22:52.82Z</time></trkpt><trkpt lat="45.5734483" lon="10.77241"><ele>213.33333333333331</ele><time>2026-03-28T11:22:53.82Z</time></trkpt><trkpt lat="45.5734817" lon="10.7721233"><ele>213.0</ele><time>2026-03-28T11:22:54.82Z</time></trkpt><trkpt lat="45.573515" lon="10.77182"><ele>212.0</ele><time>2026-03-28T11:22:55.819Z</time></trkpt><trkpt lat="45.5735517" lon="10.7715"><ele>211.0</ele><time>2026-03-28T11:22:56.82Z</time></trkpt><trkpt lat="45.5736067" lon="10.7711717"><ele>210.66666666666666</ele><time>2026-03-28T11:22:57.819Z</time></trkpt><trkpt lat="45.5736317" lon="10.7708717"><ele>210.33333333333331</ele><time>2026-03-28T11:22:58.82Z</time></trkpt><trkpt lat="45.57366" lon="10.7705633"><ele>210.0</ele><time>2026-03-28T11:22:59.82Z</time></trkpt><trkpt lat="45.57368" lon="10.7702467"><ele>209.5</ele><time>2026-03-28T11:23:00.82Z</time></trkpt><trkpt lat="45.57369" lon="10.7699333"><ele>209.0</ele><time>2026-03-28T11:23:01.819Z</time></trkpt><trkpt lat="45.5736933" lon="10.7695983"><ele>209.5</ele><time>2026-03-28T11:23:02.819Z</time></trkpt><trkpt lat="45.5737017" lon="10.76926"><ele>210.0</ele><time>2026-03-28T11:23:03.82Z</time></trkpt><trkpt lat="45.573705" lon="10.7689333"><ele>210.0</ele><time>2026-03-28T11:23:04.819Z</time></trkpt><trkpt lat="45.5736983" lon="10.7686083"><ele>210.0</ele><time>2026-03-28T11:23:05.82Z</time></trkpt><trkpt lat="45.5736933" lon="10.76828"><ele>208.66666666666669</ele><time>2026-03-28T11:23:06.819Z</time></trkpt><trkpt lat="45.5736883" lon="10.7679533"><ele>207.33333333333334</ele><time>2026-03-28T11:23:07.82Z</time></trkpt><trkpt lat="45.5736817" lon="10.76765"><ele>206.0</ele><time>2026-03-28T11:23:08.82Z</time></trkpt><trkpt lat="45.5736833" lon="10.7673767"><ele>205.66666666666669</ele><time>2026-03-28T11:23:09.819Z</time></trkpt><trkpt lat="45.5736883" lon="10.767125"><ele>205.33333333333331</ele><time>2026-03-28T11:23:10.82Z</time></trkpt><trkpt lat="45.5736983" lon="10.7669017"><ele>205.0</ele><time>2026-03-28T11:23:11.82Z</time></trkpt><trkpt lat="45.57371" lon="10.7666767"><ele>205.0</ele><time>2026-03-28T11:23:12.82Z</time></trkpt><trkpt lat="45.5737183" lon="10.7664533"><ele>205.0</ele><time>2026-03-28T11:23:13.82Z</time></trkpt><trkpt lat="45.57373" lon="10.7662233"><ele>205.0</ele><time>2026-03-28T11:23:14.819Z</time></trkpt><trkpt lat="45.5737367" lon="10.76598"><ele>205.0</ele><time>2026-03-28T11:23:15.819Z</time></trkpt><trkpt lat="45.57372" lon="10.7657433"><ele>205.0</ele><time>2026-03-28T11:23:16.82Z</time></trkpt><trkpt lat="45.5736517" lon="10.7654983"><ele>205.0</ele><time>2026-03-28T11:23:17.819Z</time></trkpt><trkpt lat="45.5735533" lon="10.7652583"><ele>205.66666666666666</ele><time>2026-03-28T11:23:18.82Z</time></trkpt><trkpt lat="45.5734417" lon="10.765025"><ele>206.33333333333331</ele><time>2026-03-28T11:23:19.819Z</time></trkpt><trkpt lat="45.57333" lon="10.7648133"><ele>207.0</ele><time>2026-03-28T11:23:20.819Z</time></trkpt><trkpt lat="45.573215" lon="10.764625"><ele>207.0</ele><time>2026-03-28T11:23:21.819Z</time></trkpt><trkpt lat="45.5731283" lon="10.7644317"><ele>207.0</ele><time>2026-03-28T11:23:22.819Z</time></trkpt><trkpt lat="45.57307" lon="10.7642167"><ele>207.0</ele><time>2026-03-28T11:23:23.819Z</time></trkpt><trkpt lat="45.573015" lon="10.763965"><ele>206.66666666666669</ele><time>2026-03-28T11:23:24.819Z</time></trkpt><trkpt lat="45.5729683" lon="10.7636983"><ele>206.33333333333334</ele><time>2026-03-28T11:23:25.819Z</time></trkpt><trkpt lat="45.5729317" lon="10.763405"><ele>206.0</ele><time>2026-03-28T11:23:26.819Z</time></trkpt><trkpt lat="45.5728917" lon="10.7630917"><ele>204.0</ele><time>2026-03-28T11:23:27.82Z</time></trkpt><trkpt lat="45.5728417" lon="10.7627733"><ele>202.0</ele><time>2026-03-28T11:23:28.819Z</time></trkpt><trkpt lat="45.5727867" lon="10.7624317"><ele>202.0</ele><time>2026-03-28T11:23:29.819Z</time></trkpt><trkpt lat="45.572735" lon="10.7620783"><ele>202.0</ele><time>2026-03-28T11:23:30.82Z</time></trkpt><trkpt lat="45.5726817" lon="10.7617267"><ele>202.0</ele><time>2026-03-28T11:23:31.82Z</time></trkpt><trkpt lat="45.5726183" lon="10.7613633"><ele>202.0</ele><time>2026-03-28T11:23:32.819Z</time></trkpt><trkpt lat="45.5725633" lon="10.761"><ele>202.0</ele><time>2026-03-28T11:23:33.82Z</time></trkpt><trkpt lat="45.57252" lon="10.7606667"><ele>202.0</ele><time>2026-03-28T11:23:34.819Z</time></trkpt><trkpt lat="45.5724667" lon="10.76036"><ele>202.0</ele><time>2026-03-28T11:23:35.82Z</time></trkpt><trkpt lat="45.57242" lon="10.7600683"><ele>202.0</ele><time>2026-03-28T11:23:36.819Z</time></trkpt><trkpt lat="45.5723767" lon="10.7598033"><ele>202.0</ele><time>2026-03-28T11:23:37.82Z</time></trkpt><trkpt lat="45.5723367" lon="10.7595633"><ele>202.5</ele><time>2026-03-28T11:23:38.82Z</time></trkpt><trkpt lat="45.5723" lon="10.759345"><ele>203.0</ele><time>2026-03-28T11:23:39.819Z</time></trkpt><trkpt lat="45.5722617" lon="10.7591467"><ele>203.5</ele><time>2026-03-28T11:23:40.819Z</time></trkpt><trkpt lat="45.5722233" lon="10.7589917"><ele>204.0</ele><time>2026-03-28T11:23:41.82Z</time></trkpt><trkpt lat="45.5722067" lon="10.7588533"><ele>204.0</ele><time>2026-03-28T11:23:42.819Z</time></trkpt><trkpt lat="45.5722" lon="10.75875"><ele>204.0</ele><time>2026-03-28T11:23:43.819Z</time></trkpt><trkpt lat="45.5721983" lon="10.7586517"><ele>204.0</ele><time>2026-03-28T11:23:45.819Z</time></trkpt><trkpt lat="45.572225" lon="10.7585367"><ele>204.0</ele><time>2026-03-28T11:23:47.819Z</time></trkpt><trkpt lat="45.5722817" lon="10.7583983"><ele>204.0</ele><time>2026-03-28T11:23:49.819Z</time></trkpt><trkpt lat="45.5723417" lon="10.7583317"><ele>204.0</ele><time>2026-03-28T11:23:50.819Z</time></trkpt><trkpt lat="45.5724117" lon="10.7582967"><ele>204.39999999999998</ele><time>2026-03-28T11:23:51.819Z</time></trkpt><trkpt lat="45.5724917" lon="10.7582717"><ele>204.8</ele><time>2026-03-28T11:23:52.819Z</time></trkpt><trkpt lat="45.5725783" lon="10.7582433"><ele>205.2</ele><time>2026-03-28T11:23:53.819Z</time></trkpt><trkpt lat="45.5726817" lon="10.7582083"><ele>205.60000000000002</ele><time>2026-03-28T11:23:54.819Z</time></trkpt><trkpt lat="45.5727867" lon="10.7581667"><ele>206.0</ele><time>2026-03-28T11:23:55.819Z</time></trkpt><trkpt lat="45.572905" lon="10.7581333"><ele>206.0</ele><time>2026-03-28T11:23:56.82Z</time></trkpt><trkpt lat="45.57304" lon="10.7580833"><ele>206.0</ele><time>2026-03-28T11:23:57.819Z</time></trkpt><trkpt lat="45.573175" lon="10.7580383"><ele>206.0</ele><time>2026-03-28T11:23:58.819Z</time></trkpt><trkpt lat="45.5733083" lon="10.7579917"><ele>206.0</ele><time>2026-03-28T11:23:59.82Z</time></trkpt><trkpt lat="45.5734467" lon="10.7579467"><ele>206.0</ele><time>2026-03-28T11:24:00.819Z</time></trkpt><trkpt lat="45.5735833" lon="10.75791"><ele>206.0</ele><time>2026-03-28T11:24:01.818Z</time></trkpt><trkpt lat="45.5737217" lon="10.757855"><ele>206.0</ele><time>2026-03-28T11:24:02.819Z</time></trkpt><trkpt lat="45.5738567" lon="10.7578067"><ele>206.0</ele><time>2026-03-28T11:24:03.818Z</time></trkpt><trkpt lat="45.5739983" lon="10.7577567"><ele>205.75</ele><time>2026-03-28T11:24:04.819Z</time></trkpt><trkpt lat="45.5741383" lon="10.7577067"><ele>205.5</ele><time>2026-03-28T11:24:05.818Z</time></trkpt><trkpt lat="45.57427" lon="10.7576733"><ele>205.25</ele><time>2026-03-28T11:24:06.818Z</time></trkpt><trkpt lat="45.5744033" lon="10.7576483"><ele>205.0</ele><time>2026-03-28T11:24:07.819Z</time></trkpt><trkpt lat="45.5745433" lon="10.7576117"><ele>205.5</ele><time>2026-03-28T11:24:08.819Z</time></trkpt><trkpt lat="45.5746867" lon="10.7575717"><ele>206.0</ele><time>2026-03-28T11:24:09.818Z</time></trkpt><trkpt lat="45.574815" lon="10.7575283"><ele>206.5</ele><time>2026-03-28T11:24:10.818Z</time></trkpt><trkpt lat="45.5749467" lon="10.7574867"><ele>207.0</ele><time>2026-03-28T11:24:11.818Z</time></trkpt><trkpt lat="45.5750817" lon="10.7574467"><ele>207.0</ele><time>2026-03-28T11:24:12.818Z</time></trkpt><trkpt lat="45.5752267" lon="10.7573983"><ele>207.0</ele><time>2026-03-28T11:24:13.819Z</time></trkpt><trkpt lat="45.57538" lon="10.7573383"><ele>207.0</ele><time>2026-03-28T11:24:14.818Z</time></trkpt><trkpt lat="45.5755467" lon="10.7572867"><ele>207.33333333333331</ele><time>2026-03-28T11:24:15.819Z</time></trkpt><trkpt lat="45.5757033" lon="10.7572283"><ele>207.66666666666666</ele><time>2026-03-28T11:24:16.818Z</time></trkpt><trkpt lat="45.5758667" lon="10.757175"><ele>208.0</ele><time>2026-03-28T11:24:17.819Z</time></trkpt><trkpt lat="45.576025" lon="10.75712"><ele>208.0</ele><time>2026-03-28T11:24:18.818Z</time></trkpt><trkpt lat="45.5761683" lon="10.757065"><ele>208.0</ele><time>2026-03-28T11:24:19.819Z</time></trkpt><trkpt lat="45.5763033" lon="10.7570133"><ele>208.0</ele><time>2026-03-28T11:24:20.819Z</time></trkpt><trkpt lat="45.5764417" lon="10.7569667"><ele>208.0</ele><time>2026-03-28T11:24:21.818Z</time></trkpt><trkpt lat="45.5765683" lon="10.75693"><ele>207.60000000000002</ele><time>2026-03-28T11:24:22.819Z</time></trkpt><trkpt lat="45.5766833" lon="10.7568967"><ele>207.20000000000002</ele><time>2026-03-28T11:24:23.818Z</time></trkpt><trkpt lat="45.5767933" lon="10.756865"><ele>206.8</ele><time>2026-03-28T11:24:24.819Z</time></trkpt><trkpt lat="45.5768783" lon="10.7568217"><ele>206.4</ele><time>2026-03-28T11:24:25.819Z</time></trkpt><trkpt lat="45.5769567" lon="10.7567367"><ele>206.0</ele><time>2026-03-28T11:24:26.819Z</time></trkpt><trkpt lat="45.5770233" lon="10.75662"><ele>206.0</ele><time>2026-03-28T11:24:27.819Z</time></trkpt><trkpt lat="45.5770933" lon="10.7564933"><ele>206.0</ele><time>2026-03-28T11:24:28.819Z</time></trkpt><trkpt lat="45.577155" lon="10.7563467"><ele>206.0</ele><time>2026-03-28T11:24:29.819Z</time></trkpt><trkpt lat="45.5772067" lon="10.7561767"><ele>206.0</ele><time>2026-03-28T11:24:30.819Z</time></trkpt><trkpt lat="45.5772333" lon="10.75601"><ele>206.0</ele><time>2026-03-28T11:24:31.818Z</time></trkpt><trkpt lat="45.57725" lon="10.755825"><ele>206.0</ele><time>2026-03-28T11:24:32.818Z</time></trkpt><trkpt lat="45.5772633" lon="10.755635"><ele>206.0</ele><time>2026-03-28T11:24:33.818Z</time></trkpt><trkpt lat="45.5772667" lon="10.7554267"><ele>206.0</ele><time>2026-03-28T11:24:34.818Z</time></trkpt><trkpt lat="45.5772533" lon="10.7552283"><ele>206.25</ele><time>2026-03-28T11:24:35.819Z</time></trkpt><trkpt lat="45.5772317" lon="10.7550467"><ele>206.5</ele><time>2026-03-28T11:24:36.818Z</time></trkpt><trkpt lat="45.5771983" lon="10.754865"><ele>206.75</ele><time>2026-03-28T11:24:37.819Z</time></trkpt><trkpt lat="45.5771717" lon="10.754695"><ele>207.0</ele><time>2026-03-28T11:24:38.818Z</time></trkpt><trkpt lat="45.5771467" lon="10.754555"><ele>207.0</ele><time>2026-03-28T11:24:39.818Z</time></trkpt><trkpt lat="45.5771217" lon="10.7544383"><ele>207.0</ele><time>2026-03-28T11:24:40.818Z</time></trkpt><trkpt lat="45.5770983" lon="10.7543467"><ele>207.0</ele><time>2026-03-28T11:24:41.819Z</time></trkpt><trkpt lat="45.5770417" lon="10.7542183"><ele>207.0</ele><time>2026-03-28T11:24:43.818Z</time></trkpt><trkpt lat="45.5769633" lon="10.754165"><ele>210.0</ele><time>2026-03-28T11:24:46.818Z</time></trkpt><trkpt lat="45.5769" lon="10.7541667"><ele>210.0</ele><time>2026-03-28T11:24:49.818Z</time></trkpt></trkseg><trkseg><trkpt lat="45.57667" lon="10.75433"><ele>264.2</ele><time>2026-03-28T11:50:18.842Z</time></trkpt></trkseg><trkseg><trkpt lat="45.5766749" lon="10.7543559"><ele>210.0</ele><time>2026-03-28T12:19:06.863Z</time></trkpt><trkpt lat="45.57676" lon="10.7543101"><ele>210.0</ele><time>2026-03-28T12:19:12.862Z</time></trkpt><trkpt lat="45.5768298" lon="10.7542357"><ele>210.0</ele><time>2026-03-28T12:20:10.844Z</time></trkpt><trkpt lat="45.5768886" lon="10.7541978"><ele>210.0</ele><time>2026-03-28T12:20:12.843Z</time></trkpt><trkpt lat="45.5769787" lon="10.7542229"><ele>210.0</ele><time>2026-03-28T12:20:15.843Z</time></trkpt><trkpt lat="45.5770262" lon="10.7542973"><ele>210.0</ele><time>2026-03-28T12:20:17.844Z</time></trkpt><trkpt lat="45.5770808" lon="10.7544735"><ele>209.4</ele><time>2026-03-28T12:20:19.843Z</time></trkpt><trkpt lat="45.5771098" lon="10.7545927"><ele>208.8</ele><time>2026-03-28T12:20:20.844Z</time></trkpt><trkpt lat="45.5771336" lon="10.7547356"><ele>208.2</ele><time>2026-03-28T12:20:21.844Z</time></trkpt><trkpt lat="45.577155" lon="10.7548954"><ele>207.6</ele><time>2026-03-28T12:20:22.844Z</time></trkpt><trkpt lat="45.5771776" lon="10.7550748"><ele>207.0</ele><time>2026-03-28T12:20:23.844Z</time></trkpt><trkpt lat="45.577207" lon="10.7552565"><ele>206.75</ele><time>2026-03-28T12:20:24.843Z</time></trkpt><trkpt lat="45.5772246" lon="10.7554397"><ele>206.5</ele><time>2026-03-28T12:20:25.844Z</time></trkpt><trkpt lat="45.5772358" lon="10.7556218"><ele>206.25</ele><time>2026-03-28T12:20:26.843Z</time></trkpt><trkpt lat="45.5772432" lon="10.7558075"><ele>206.0</ele><time>2026-03-28T12:20:27.844Z</time></trkpt><trkpt lat="45.5772299" lon="10.7559846"><ele>206.0</ele><time>2026-03-28T12:20:28.843Z</time></trkpt><trkpt lat="45.5772067" lon="10.7561503"><ele>206.0</ele><time>2026-03-28T12:20:29.843Z</time></trkpt><trkpt lat="45.5771669" lon="10.7563012"><ele>206.0</ele><time>2026-03-28T12:20:30.843Z</time></trkpt><trkpt lat="45.5771137" lon="10.7564346"><ele>206.0</ele><time>2026-03-28T12:20:31.843Z</time></trkpt><trkpt lat="45.577052" lon="10.7565319"><ele>206.0</ele><time>2026-03-28T12:20:32.843Z</time></trkpt><trkpt lat="45.5770073" lon="10.7566086"><ele>206.00000000000003</ele><time>2026-03-28T12:20:33.843Z</time></trkpt><trkpt lat="45.5769994" lon="10.7567082"><ele>206.0</ele><time>2026-03-28T12:20:38.844Z</time></trkpt><trkpt lat="45.5770658" lon="10.7567481"><ele>206.0</ele><time>2026-03-28T12:20:53.844Z</time></trkpt><trkpt lat="45.5771856" lon="10.7567463"><ele>206.0</ele><time>2026-03-28T12:20:55.843Z</time></trkpt><trkpt lat="45.5772646" lon="10.7567237"><ele>206.00000000000003</ele><time>2026-03-28T12:20:56.844Z</time></trkpt><trkpt lat="45.5773574" lon="10.7566895"><ele>206.0</ele><time>2026-03-28T12:20:57.843Z</time></trkpt><trkpt lat="45.5774657" lon="10.7566482"><ele>206.0</ele><time>2026-03-28T12:20:58.844Z</time></trkpt><trkpt lat="45.5775831" lon="10.7566016"><ele>206.0</ele><time>2026-03-28T12:20:59.843Z</time></trkpt><trkpt lat="45.5777037" lon="10.7565518"><ele>206.0</ele><time>2026-03-28T12:21:00.843Z</time></trkpt><trkpt lat="45.5778218" lon="10.7565029"><ele>206.0</ele><time>2026-03-28T12:21:01.843Z</time></trkpt><trkpt lat="45.5779492" lon="10.7564598"><ele>205.75</ele><time>2026-03-28T12:21:02.843Z</time></trkpt><trkpt lat="45.5780718" lon="10.7564151"><ele>205.5</ele><time>2026-03-28T12:21:03.843Z</time></trkpt><trkpt lat="45.5781935" lon="10.756373"><ele>205.25</ele><time>2026-03-28T12:21:04.843Z</time></trkpt><trkpt lat="45.5783274" lon="10.7563315"><ele>205.0</ele><time>2026-03-28T12:21:05.844Z</time></trkpt><trkpt lat="45.5784719" lon="10.7562804"><ele>205.0</ele><time>2026-03-28T12:21:06.843Z</time></trkpt><trkpt lat="45.5786138" lon="10.7562256"><ele>205.0</ele><time>2026-03-28T12:21:07.843Z</time></trkpt><trkpt lat="45.5787627" lon="10.756142"><ele>205.0</ele><time>2026-03-28T12:21:08.843Z</time></trkpt><trkpt lat="45.5789103" lon="10.7560495"><ele>206.0</ele><time>2026-03-28T12:21:09.843Z</time></trkpt><trkpt lat="45.5790627" lon="10.7559444"><ele>207.0</ele><time>2026-03-28T12:21:10.843Z</time></trkpt><trkpt lat="45.5792069" lon="10.7558299"><ele>208.0</ele><time>2026-03-28T12:21:11.843Z</time></trkpt><trkpt lat="45.5793471" lon="10.7557238"><ele>208.0</ele><time>2026-03-28T12:21:12.844Z</time></trkpt><trkpt lat="45.5794923" lon="10.7556168"><ele>208.0</ele><time>2026-03-28T12:21:13.844Z</time></trkpt><trkpt lat="45.5796188" lon="10.7555059"><ele>208.0</ele><time>2026-03-28T12:21:14.844Z</time></trkpt><trkpt lat="45.5797288" lon="10.7553912"><ele>208.0</ele><time>2026-03-28T12:21:15.843Z</time></trkpt><trkpt lat="45.579835" lon="10.7552871"><ele>208.0</ele><time>2026-03-28T12:21:16.844Z</time></trkpt><trkpt lat="45.5799419" lon="10.7551861"><ele>208.0</ele><time>2026-03-28T12:21:17.844Z</time></trkpt><trkpt lat="45.580059" lon="10.7550693"><ele>208.0</ele><time>2026-03-28T12:21:18.844Z</time></trkpt><trkpt lat="45.5801793" lon="10.754949"><ele>208.0</ele><time>2026-03-28T12:21:19.844Z</time></trkpt><trkpt lat="45.580316" lon="10.7548348"><ele>208.33333333333331</ele><time>2026-03-28T12:21:20.843Z</time></trkpt><trkpt lat="45.5804568" lon="10.7547087"><ele>208.66666666666669</ele><time>2026-03-28T12:21:21.844Z</time></trkpt><trkpt lat="45.580615" lon="10.7545762"><ele>209.0</ele><time>2026-03-28T12:21:22.843Z</time></trkpt><trkpt lat="45.580771" lon="10.7544266"><ele>209.0</ele><time>2026-03-28T12:21:23.843Z</time></trkpt><trkpt lat="45.5809342" lon="10.7542733"><ele>209.0</ele><time>2026-03-28T12:21:24.843Z</time></trkpt><trkpt lat="45.5810987" lon="10.7541315"><ele>209.0</ele><time>2026-03-28T12:21:25.844Z</time></trkpt><trkpt lat="45.5812519" lon="10.7539888"><ele>209.0</ele><time>2026-03-28T12:21:26.843Z</time></trkpt><trkpt lat="45.5814008" lon="10.7538551"><ele>209.0</ele><time>2026-03-28T12:21:27.843Z</time></trkpt><trkpt lat="45.581541" lon="10.7537391"><ele>209.0</ele><time>2026-03-28T12:21:28.843Z</time></trkpt><trkpt lat="45.5816726" lon="10.7536287"><ele>209.0</ele><time>2026-03-28T12:21:29.844Z</time></trkpt><trkpt lat="45.5817817" lon="10.7535318"><ele>209.0</ele><time>2026-03-28T12:21:30.844Z</time></trkpt><trkpt lat="45.581885" lon="10.7534365"><ele>209.0</ele><time>2026-03-28T12:21:31.843Z</time></trkpt><trkpt lat="45.5819876" lon="10.7533359"><ele>209.0</ele><time>2026-03-28T12:21:32.843Z</time></trkpt><trkpt lat="45.582088" lon="10.7532512"><ele>209.39999999999998</ele><time>2026-03-28T12:21:33.844Z</time></trkpt><trkpt lat="45.5821782" lon="10.7531765"><ele>209.8</ele><time>2026-03-28T12:21:34.843Z</time></trkpt><trkpt lat="45.5822635" lon="10.753106"><ele>210.2</ele><time>2026-03-28T12:21:35.843Z</time></trkpt><trkpt lat="45.5823426" lon="10.7530358"><ele>210.60000000000002</ele><time>2026-03-28T12:21:36.843Z</time></trkpt><trkpt lat="45.5824203" lon="10.7529799"><ele>211.0</ele><time>2026-03-28T12:21:37.843Z</time></trkpt><trkpt lat="45.5824878" lon="10.7529558"><ele>211.0</ele><time>2026-03-28T12:21:38.843Z</time></trkpt><trkpt lat="45.5825959" lon="10.7530623"><ele>211.0</ele><time>2026-03-28T12:21:40.844Z</time></trkpt><trkpt lat="45.5826437" lon="10.7531584"><ele>211.0</ele><time>2026-03-28T12:21:41.844Z</time></trkpt><trkpt lat="45.582694" lon="10.7532689"><ele>211.0</ele><time>2026-03-28T12:21:42.843Z</time></trkpt><trkpt lat="45.5827542" lon="10.7533909"><ele>211.0</ele><time>2026-03-28T12:21:43.843Z</time></trkpt><trkpt lat="45.5828192" lon="10.7535228"><ele>210.25</ele><time>2026-03-28T12:21:44.843Z</time></trkpt><trkpt lat="45.5828933" lon="10.7536557"><ele>209.5</ele><time>2026-03-28T12:21:45.844Z</time></trkpt><trkpt lat="45.5829807" lon="10.7538027"><ele>208.75</ele><time>2026-03-28T12:21:46.843Z</time></trkpt><trkpt lat="45.5830714" lon="10.7539598"><ele>208.0</ele><time>2026-03-28T12:21:47.843Z</time></trkpt><trkpt lat="45.5831611" lon="10.7541267"><ele>208.0</ele><time>2026-03-28T12:21:48.843Z</time></trkpt><trkpt lat="45.5832544" lon="10.7542986"><ele>208.0</ele><time>2026-03-28T12:21:49.843Z</time></trkpt><trkpt lat="45.5833488" lon="10.7544756"><ele>208.0</ele><time>2026-03-28T12:21:50.844Z</time></trkpt><trkpt lat="45.5834434" lon="10.7546447"><ele>208.5</ele><time>2026-03-28T12:21:51.843Z</time></trkpt><trkpt lat="45.583532" lon="10.7547899"><ele>209.0</ele><time>2026-03-28T12:21:52.844Z</time></trkpt><trkpt lat="45.5836085" lon="10.7549246"><ele>209.5</ele><time>2026-03-28T12:21:53.844Z</time></trkpt><trkpt lat="45.5836894" lon="10.7550413"><ele>210.0</ele><time>2026-03-28T12:21:54.843Z</time></trkpt><trkpt lat="45.5837456" lon="10.7551835"><ele>210.25</ele><time>2026-03-28T12:21:55.844Z</time></trkpt><trkpt lat="45.5837968" lon="10.7553404"><ele>210.5</ele><time>2026-03-28T12:21:56.843Z</time></trkpt><trkpt lat="45.5838525" lon="10.7555088"><ele>210.75</ele><time>2026-03-28T12:21:57.843Z</time></trkpt><trkpt lat="45.5839236" lon="10.755676"><ele>211.0</ele><time>2026-03-28T12:21:58.844Z</time></trkpt><trkpt lat="45.5840025" lon="10.7558358"><ele>211.0</ele><time>2026-03-28T12:21:59.843Z</time></trkpt><trkpt lat="45.5840925" lon="10.7560026"><ele>211.0</ele><time>2026-03-28T12:22:00.843Z</time></trkpt><trkpt lat="45.5841935" lon="10.7561751"><ele>211.0</ele><time>2026-03-28T12:22:01.843Z</time></trkpt><trkpt lat="45.5842898" lon="10.756339"><ele>210.75</ele><time>2026-03-28T12:22:02.844Z</time></trkpt><trkpt lat="45.5843875" lon="10.7565017"><ele>210.5</ele><time>2026-03-28T12:22:03.844Z</time></trkpt><trkpt lat="45.5844855" lon="10.7566616"><ele>210.25</ele><time>2026-03-28T12:22:04.844Z</time></trkpt><trkpt lat="45.5845859" lon="10.7568168"><ele>210.0</ele><time>2026-03-28T12:22:05.844Z</time></trkpt><trkpt lat="45.5846859" lon="10.7569675"><ele>209.75</ele><time>2026-03-28T12:22:06.843Z</time></trkpt><trkpt lat="45.5847773" lon="10.7571047"><ele>209.5</ele><time>2026-03-28T12:22:07.843Z</time></trkpt><trkpt lat="45.5848779" lon="10.7572295"><ele>209.25</ele><time>2026-03-28T12:22:08.843Z</time></trkpt><trkpt lat="45.5849772" lon="10.757327"><ele>209.0</ele><time>2026-03-28T12:22:09.843Z</time></trkpt><trkpt lat="45.5850723" lon="10.7574077"><ele>209.0</ele><time>2026-03-28T12:22:10.843Z</time></trkpt><trkpt lat="45.5851611" lon="10.7574725"><ele>209.0</ele><time>2026-03-28T12:22:11.843Z</time></trkpt><trkpt lat="45.5852489" lon="10.757521"><ele>209.0</ele><time>2026-03-28T12:22:12.844Z</time></trkpt><trkpt lat="45.5853374" lon="10.7575448"><ele>209.0</ele><time>2026-03-28T12:22:13.843Z</time></trkpt><trkpt lat="45.5854334" lon="10.7575863"><ele>209.0</ele><time>2026-03-28T12:22:14.844Z</time></trkpt><trkpt lat="45.5855361" lon="10.7576579"><ele>209.2</ele><time>2026-03-28T12:22:15.843Z</time></trkpt><trkpt lat="45.5856413" lon="10.7577417"><ele>209.39999999999998</ele><time>2026-03-28T12:22:16.843Z</time></trkpt><trkpt lat="45.585737" lon="10.7578198"><ele>209.6</ele><time>2026-03-28T12:22:17.844Z</time></trkpt><trkpt lat="45.585822" lon="10.757885"><ele>209.8</ele><time>2026-03-28T12:22:18.843Z</time></trkpt><trkpt lat="45.5858956" lon="10.7579371"><ele>210.0</ele><time>2026-03-28T12:22:19.843Z</time></trkpt><trkpt lat="45.5859632" lon="10.7579722"><ele>210.0</ele><time>2026-03-28T12:22:20.843Z</time></trkpt><trkpt lat="45.5860328" lon="10.7579948"><ele>210.0</ele><time>2026-03-28T12:22:21.844Z</time></trkpt><trkpt lat="45.5861106" lon="10.7580096"><ele>210.0</ele><time>2026-03-28T12:22:22.843Z</time></trkpt><trkpt lat="45.5861924" lon="10.7580229"><ele>210.0</ele><time>2026-03-28T12:22:23.844Z</time></trkpt><trkpt lat="45.5862806" lon="10.7580385"><ele>210.0</ele><time>2026-03-28T12:22:24.844Z</time></trkpt><trkpt lat="45.586381" lon="10.7580625"><ele>210.0</ele><time>2026-03-28T12:22:25.843Z</time></trkpt><trkpt lat="45.586484" lon="10.7580892"><ele>210.0</ele><time>2026-03-28T12:22:26.843Z</time></trkpt><trkpt lat="45.586585" lon="10.7581187"><ele>210.0</ele><time>2026-03-28T12:22:27.843Z</time></trkpt><trkpt lat="45.5866881" lon="10.7581506"><ele>210.0</ele><time>2026-03-28T12:22:28.843Z</time></trkpt><trkpt lat="45.5867889" lon="10.7581831"><ele>210.0</ele><time>2026-03-28T12:22:29.844Z</time></trkpt><trkpt lat="45.5869028" lon="10.7582209"><ele>210.0</ele><time>2026-03-28T12:22:30.843Z</time></trkpt><trkpt lat="45.5870245" lon="10.7582593"><ele>210.25</ele><time>2026-03-28T12:22:31.844Z</time></trkpt><trkpt lat="45.5871501" lon="10.7582927"><ele>210.5</ele><time>2026-03-28T12:22:32.844Z</time></trkpt><trkpt lat="45.5872762" lon="10.7583268"><ele>210.75</ele><time>2026-03-28T12:22:33.843Z</time></trkpt><trkpt lat="45.587382" lon="10.7583628"><ele>211.0</ele><time>2026-03-28T12:22:34.843Z</time></trkpt><trkpt lat="45.587475" lon="10.7584047"><ele>211.0</ele><time>2026-03-28T12:22:35.843Z</time></trkpt><trkpt lat="45.5875523" lon="10.75848"><ele>211.0</ele><time>2026-03-28T12:22:36.844Z</time></trkpt><trkpt lat="45.5876148" lon="10.7585629"><ele>211.0</ele><time>2026-03-28T12:22:37.843Z</time></trkpt><trkpt lat="45.5876627" lon="10.7587091"><ele>211.0</ele><time>2026-03-28T12:22:39.844Z</time></trkpt><trkpt lat="45.5876502" lon="10.7588945"><ele>211.0</ele><time>2026-03-28T12:22:41.843Z</time></trkpt><trkpt lat="45.587628" lon="10.7590365"><ele>210.75</ele><time>2026-03-28T12:22:42.844Z</time></trkpt><trkpt lat="45.587608" lon="10.75921"><ele>210.5</ele><time>2026-03-28T12:22:43.844Z</time></trkpt><trkpt lat="45.5875924" lon="10.7594076"><ele>210.25</ele><time>2026-03-28T12:22:44.844Z</time></trkpt><trkpt lat="45.5875822" lon="10.7596295"><ele>210.0</ele><time>2026-03-28T12:22:45.843Z</time></trkpt><trkpt lat="45.5875762" lon="10.7598669"><ele>210.0</ele><time>2026-03-28T12:22:46.843Z</time></trkpt><trkpt lat="45.5875714" lon="10.7601057"><ele>210.0</ele><time>2026-03-28T12:22:47.844Z</time></trkpt><trkpt lat="45.587558" lon="10.7603511"><ele>210.0</ele><time>2026-03-28T12:22:48.844Z</time></trkpt><trkpt lat="45.587554" lon="10.7605827"><ele>210.0</ele><time>2026-03-28T12:22:49.844Z</time></trkpt><trkpt lat="45.5875541" lon="10.760812"><ele>210.0</ele><time>2026-03-28T12:22:50.843Z</time></trkpt><trkpt lat="45.5875433" lon="10.7610383"><ele>210.0</ele><time>2026-03-28T12:22:51.843Z</time></trkpt><trkpt lat="45.5875283" lon="10.76126"><ele>210.33333333333331</ele><time>2026-03-28T12:22:52.843Z</time></trkpt><trkpt lat="45.5875167" lon="10.7614833"><ele>210.66666666666666</ele><time>2026-03-28T12:22:53.843Z</time></trkpt><trkpt lat="45.58749" lon="10.7616933"><ele>211.0</ele><time>2026-03-28T12:22:54.843Z</time></trkpt><trkpt lat="45.5874533" lon="10.7618983"><ele>211.33333333333331</ele><time>2026-03-28T12:22:55.843Z</time></trkpt><trkpt lat="45.5874017" lon="10.7620883"><ele>211.66666666666669</ele><time>2026-03-28T12:22:56.843Z</time></trkpt><trkpt lat="45.5873383" lon="10.7622833"><ele>212.0</ele><time>2026-03-28T12:22:57.843Z</time></trkpt><trkpt lat="45.5872667" lon="10.7624867"><ele>212.0</ele><time>2026-03-28T12:22:58.843Z</time></trkpt><trkpt lat="45.58719" lon="10.7626567"><ele>212.0</ele><time>2026-03-28T12:22:59.843Z</time></trkpt><trkpt lat="45.5871117" lon="10.7627883"><ele>212.0</ele><time>2026-03-28T12:23:00.844Z</time></trkpt><trkpt lat="45.5870483" lon="10.762875"><ele>212.0</ele><time>2026-03-28T12:23:01.844Z</time></trkpt><trkpt lat="45.5869983" lon="10.7629567"><ele>212.0</ele><time>2026-03-28T12:23:02.844Z</time></trkpt><trkpt lat="45.5869417" lon="10.763035"><ele>211.75</ele><time>2026-03-28T12:23:03.843Z</time></trkpt><trkpt lat="45.586865" lon="10.763125"><ele>211.5</ele><time>2026-03-28T12:23:04.844Z</time></trkpt><trkpt lat="45.5867633" lon="10.7632167"><ele>211.25</ele><time>2026-03-28T12:23:05.843Z</time></trkpt><trkpt lat="45.5866583" lon="10.7633183"><ele>211.0</ele><time>2026-03-28T12:23:06.844Z</time></trkpt><trkpt lat="45.58654" lon="10.7634517"><ele>211.33333333333331</ele><time>2026-03-28T12:23:07.843Z</time></trkpt><trkpt lat="45.5864033" lon="10.7635933"><ele>211.66666666666669</ele><time>2026-03-28T12:23:08.844Z</time></trkpt><trkpt lat="45.5862767" lon="10.763745"><ele>212.0</ele><time>2026-03-28T12:23:09.844Z</time></trkpt><trkpt lat="45.5861467" lon="10.7638983"><ele>212.0</ele><time>2026-03-28T12:23:10.844Z</time></trkpt><trkpt lat="45.586025" lon="10.7640667"><ele>212.0</ele><time>2026-03-28T12:23:11.843Z</time></trkpt><trkpt lat="45.5859183" lon="10.7642517"><ele>212.0</ele><time>2026-03-28T12:23:12.844Z</time></trkpt><trkpt lat="45.5858117" lon="10.7644367"><ele>212.33333333333334</ele><time>2026-03-28T12:23:13.844Z</time></trkpt><trkpt lat="45.585715" lon="10.7646317"><ele>212.66666666666669</ele><time>2026-03-28T12:23:14.843Z</time></trkpt><trkpt lat="45.5856167" lon="10.7648467"><ele>213.0</ele><time>2026-03-28T12:23:15.844Z</time></trkpt><trkpt lat="45.58552" lon="10.7650517"><ele>213.0</ele><time>2026-03-28T12:23:16.844Z</time></trkpt><trkpt lat="45.585415" lon="10.7652633"><ele>213.0</ele><time>2026-03-28T12:23:17.842Z</time></trkpt><trkpt lat="45.5853117" lon="10.7654867"><ele>213.0</ele><time>2026-03-28T12:23:18.843Z</time></trkpt><trkpt lat="45.5851967" lon="10.7656883"><ele>213.0</ele><time>2026-03-28T12:23:19.842Z</time></trkpt><trkpt lat="45.5850883" lon="10.76589"><ele>213.0</ele><time>2026-03-28T12:23:20.842Z</time></trkpt><trkpt lat="45.5849817" lon="10.766095"><ele>213.0</ele><time>2026-03-28T12:23:21.842Z</time></trkpt><trkpt lat="45.5848583" lon="10.7662917"><ele>213.33333333333331</ele><time>2026-03-28T12:23:22.842Z</time></trkpt><trkpt lat="45.58475" lon="10.766475"><ele>213.66666666666666</ele><time>2026-03-28T12:23:23.843Z</time></trkpt><trkpt lat="45.5846467" lon="10.76664"><ele>214.0</ele><time>2026-03-28T12:23:24.842Z</time></trkpt><trkpt lat="45.5845533" lon="10.7667917"><ele>214.0</ele><time>2026-03-28T12:23:25.842Z</time></trkpt><trkpt lat="45.5844633" lon="10.76693"><ele>214.0</ele><time>2026-03-28T12:23:26.842Z</time></trkpt><trkpt lat="45.584375" lon="10.7670417"><ele>214.0</ele><time>2026-03-28T12:23:27.842Z</time></trkpt><trkpt lat="45.5842733" lon="10.7671417"><ele>214.0</ele><time>2026-03-28T12:23:28.843Z</time></trkpt><trkpt lat="45.5841883" lon="10.7672467"><ele>214.0</ele><time>2026-03-28T12:23:29.842Z</time></trkpt><trkpt lat="45.58411" lon="10.7673717"><ele>214.0</ele><time>2026-03-28T12:23:30.842Z</time></trkpt><trkpt lat="45.5840433" lon="10.7675167"><ele>214.0</ele><time>2026-03-28T12:23:31.842Z</time></trkpt><trkpt lat="45.584" lon="10.7676733"><ele>214.0</ele><time>2026-03-28T12:23:32.842Z</time></trkpt><trkpt lat="45.5839767" lon="10.7678433"><ele>213.75</ele><time>2026-03-28T12:23:33.842Z</time></trkpt><trkpt lat="45.58395" lon="10.7680233"><ele>213.5</ele><time>2026-03-28T12:23:34.842Z</time></trkpt><trkpt lat="45.5839217" lon="10.7682083"><ele>213.25</ele><time>2026-03-28T12:23:35.842Z</time></trkpt><trkpt lat="45.5839" lon="10.7683917"><ele>213.0</ele><time>2026-03-28T12:23:36.842Z</time></trkpt><trkpt lat="45.5838867" lon="10.7685917"><ele>214.0</ele><time>2026-03-28T12:23:37.843Z</time></trkpt><trkpt lat="45.5838767" lon="10.7688033"><ele>215.0</ele><time>2026-03-28T12:23:38.843Z</time></trkpt><trkpt lat="45.5838533" lon="10.7690133"><ele>216.0</ele><time>2026-03-28T12:23:39.843Z</time></trkpt><trkpt lat="45.5838333" lon="10.76923"><ele>217.0</ele><time>2026-03-28T12:23:40.842Z</time></trkpt><trkpt lat="45.5838067" lon="10.76945"><ele>218.0</ele><time>2026-03-28T12:23:41.842Z</time></trkpt><trkpt lat="45.5837833" lon="10.7696767"><ele>219.0</ele><time>2026-03-28T12:23:42.843Z</time></trkpt><trkpt lat="45.5837583" lon="10.76991"><ele>219.0</ele><time>2026-03-28T12:23:43.842Z</time></trkpt><trkpt lat="45.58374" lon="10.7701533"><ele>219.0</ele><time>2026-03-28T12:23:44.842Z</time></trkpt><trkpt lat="45.5836983" lon="10.7704017"><ele>219.0</ele><time>2026-03-28T12:23:45.842Z</time></trkpt><trkpt lat="45.5836867" lon="10.770655"><ele>218.66666666666669</ele><time>2026-03-28T12:23:46.842Z</time></trkpt><trkpt lat="45.5836717" lon="10.7709133"><ele>218.33333333333334</ele><time>2026-03-28T12:23:47.843Z</time></trkpt><trkpt lat="45.5836517" lon="10.771175"><ele>218.0</ele><time>2026-03-28T12:23:48.842Z</time></trkpt><trkpt lat="45.5836333" lon="10.7714383"><ele>218.66666666666669</ele><time>2026-03-28T12:23:49.842Z</time></trkpt><trkpt lat="45.583625" lon="10.7717"><ele>219.33333333333331</ele><time>2026-03-28T12:23:50.842Z</time></trkpt><trkpt lat="45.5836" lon="10.7719667"><ele>220.0</ele><time>2026-03-28T12:23:51.842Z</time></trkpt><trkpt lat="45.5835667" lon="10.772225"><ele>221.0</ele><time>2026-03-28T12:23:52.843Z</time></trkpt><trkpt lat="45.58351" lon="10.7724567"><ele>222.0</ele><time>2026-03-28T12:23:53.843Z</time></trkpt><trkpt lat="45.5834267" lon="10.7726717"><ele>223.0</ele><time>2026-03-28T12:23:54.842Z</time></trkpt><trkpt lat="45.583325" lon="10.77286"><ele>223.66666666666666</ele><time>2026-03-28T12:23:55.842Z</time></trkpt><trkpt lat="45.5832133" lon="10.7730567"><ele>224.33333333333331</ele><time>2026-03-28T12:23:56.842Z</time></trkpt><trkpt lat="45.5830933" lon="10.7732267"><ele>225.0</ele><time>2026-03-28T12:23:57.842Z</time></trkpt><trkpt lat="45.5829583" lon="10.7733917"><ele>225.66666666666669</ele><time>2026-03-28T12:23:58.843Z</time></trkpt><trkpt lat="45.5828267" lon="10.7735617"><ele>226.33333333333334</ele><time>2026-03-28T12:23:59.842Z</time></trkpt><trkpt lat="45.5827217" lon="10.7737483"><ele>227.0</ele><time>2026-03-28T12:24:00.842Z</time></trkpt><trkpt lat="45.5826317" lon="10.7739333"><ele>227.0</ele><time>2026-03-28T12:24:01.842Z</time></trkpt><trkpt lat="45.5825583" lon="10.774155"><ele>227.0</ele><time>2026-03-28T12:24:02.843Z</time></trkpt><trkpt lat="45.582505" lon="10.7743933"><ele>227.0</ele><time>2026-03-28T12:24:03.843Z</time></trkpt><trkpt lat="45.582475" lon="10.7746317"><ele>227.33333333333334</ele><time>2026-03-28T12:24:04.843Z</time></trkpt><trkpt lat="45.5824533" lon="10.7748817"><ele>227.66666666666669</ele><time>2026-03-28T12:24:05.842Z</time></trkpt><trkpt lat="45.58244" lon="10.7751117"><ele>228.0</ele><time>2026-03-28T12:24:06.843Z</time></trkpt><trkpt lat="45.5824267" lon="10.7753133"><ele>228.33333333333334</ele><time>2026-03-28T12:24:07.842Z</time></trkpt><trkpt lat="45.582405" lon="10.7754883"><ele>228.66666666666669</ele><time>2026-03-28T12:24:08.843Z</time></trkpt><trkpt lat="45.5823833" lon="10.7756383"><ele>229.0</ele><time>2026-03-28T12:24:09.842Z</time></trkpt><trkpt lat="45.58236" lon="10.7757283"><ele>229.33333333333334</ele><time>2026-03-28T12:24:10.842Z</time></trkpt><trkpt lat="45.5823317" lon="10.7758233"><ele>229.66666666666669</ele><time>2026-03-28T12:24:13.842Z</time></trkpt><trkpt lat="45.58235" lon="10.77592"><ele>230.0</ele><time>2026-03-28T12:24:16.843Z</time></trkpt><trkpt lat="45.5823867" lon="10.7760217"><ele>230.0</ele><time>2026-03-28T12:24:17.842Z</time></trkpt><trkpt lat="45.5824433" lon="10.776135"><ele>230.0</ele><time>2026-03-28T12:24:18.842Z</time></trkpt><trkpt lat="45.58252" lon="10.7762533"><ele>230.0</ele><time>2026-03-28T12:24:19.843Z</time></trkpt><trkpt lat="45.5825983" lon="10.77639"><ele>230.0</ele><time>2026-03-28T12:24:20.843Z</time></trkpt><trkpt lat="45.5826867" lon="10.77654"><ele>230.0</ele><time>2026-03-28T12:24:21.842Z</time></trkpt><trkpt lat="45.582775" lon="10.77671"><ele>230.0</ele><time>2026-03-28T12:24:22.842Z</time></trkpt><trkpt lat="45.58286" lon="10.7768917"><ele>230.0</ele><time>2026-03-28T12:24:23.842Z</time></trkpt><trkpt lat="45.5829533" lon="10.7770933"><ele>231.33333333333334</ele><time>2026-03-28T12:24:24.843Z</time></trkpt><trkpt lat="45.5830517" lon="10.7772883"><ele>232.66666666666669</ele><time>2026-03-28T12:24:25.842Z</time></trkpt><trkpt lat="45.583165" lon="10.777515"><ele>234.0</ele><time>2026-03-28T12:24:26.842Z</time></trkpt><trkpt lat="45.5832767" lon="10.7777583"><ele>234.0</ele><time>2026-03-28T12:24:27.842Z</time></trkpt><trkpt lat="45.5834067" lon="10.7780083"><ele>234.0</ele><time>2026-03-28T12:24:28.843Z</time></trkpt><trkpt lat="45.58353" lon="10.7782333"><ele>234.0</ele><time>2026-03-28T12:24:29.842Z</time></trkpt><trkpt lat="45.5836833" lon="10.7784517"><ele>237.0</ele><time>2026-03-28T12:24:30.843Z</time></trkpt><trkpt lat="45.5838433" lon="10.77865"><ele>240.0</ele><time>2026-03-28T12:24:31.843Z</time></trkpt><trkpt lat="45.5840083" lon="10.7788217"><ele>243.0</ele><time>2026-03-28T12:24:32.842Z</time></trkpt><trkpt lat="45.5841817" lon="10.7789733"><ele>243.0</ele><time>2026-03-28T12:24:33.843Z</time></trkpt><trkpt lat="45.5843567" lon="10.7791133"><ele>243.0</ele><time>2026-03-28T12:24:34.842Z</time></trkpt><trkpt lat="45.5845433" lon="10.77924"><ele>243.0</ele><time>2026-03-28T12:24:35.843Z</time></trkpt><trkpt lat="45.5847333" lon="10.7793667"><ele>244.0</ele><time>2026-03-28T12:24:36.842Z</time></trkpt><trkpt lat="45.5849233" lon="10.7794867"><ele>245.0</ele><time>2026-03-28T12:24:37.842Z</time></trkpt><trkpt lat="45.5851117" lon="10.7796117"><ele>246.0</ele><time>2026-03-28T12:24:38.842Z</time></trkpt><trkpt lat="45.5852967" lon="10.7797383"><ele>245.66666666666669</ele><time>2026-03-28T12:24:39.843Z</time></trkpt><trkpt lat="45.5854817" lon="10.77987"><ele>245.33333333333334</ele><time>2026-03-28T12:24:40.842Z</time></trkpt><trkpt lat="45.5856617" lon="10.7800017"><ele>245.0</ele><time>2026-03-28T12:24:41.843Z</time></trkpt><trkpt lat="45.58584" lon="10.780125"><ele>246.0</ele><time>2026-03-28T12:24:42.842Z</time></trkpt><trkpt lat="45.5860267" lon="10.7802517"><ele>247.0</ele><time>2026-03-28T12:24:43.843Z</time></trkpt><trkpt lat="45.586205" lon="10.780375"><ele>248.0</ele><time>2026-03-28T12:24:44.843Z</time></trkpt><trkpt lat="45.58638" lon="10.7804917"><ele>248.0</ele><time>2026-03-28T12:24:45.842Z</time></trkpt><trkpt lat="45.5865517" lon="10.780615"><ele>248.0</ele><time>2026-03-28T12:24:46.843Z</time></trkpt><trkpt lat="45.5867183" lon="10.7807317"><ele>248.0</ele><time>2026-03-28T12:24:47.842Z</time></trkpt><trkpt lat="45.5868883" lon="10.78086"><ele>246.66666666666669</ele><time>2026-03-28T12:24:48.843Z</time></trkpt><trkpt lat="45.5870583" lon="10.78099"><ele>245.33333333333331</ele><time>2026-03-28T12:24:49.842Z</time></trkpt><trkpt lat="45.5872283" lon="10.7811183"><ele>244.0</ele><time>2026-03-28T12:24:50.842Z</time></trkpt><trkpt lat="45.5873983" lon="10.7812517"><ele>244.33333333333331</ele><time>2026-03-28T12:24:51.842Z</time></trkpt><trkpt lat="45.5875783" lon="10.78139"><ele>244.66666666666669</ele><time>2026-03-28T12:24:52.842Z</time></trkpt><trkpt lat="45.587755" lon="10.7815133"><ele>245.0</ele><time>2026-03-28T12:24:53.842Z</time></trkpt><trkpt lat="45.587915" lon="10.7816267"><ele>245.0</ele><time>2026-03-28T12:24:54.843Z</time></trkpt><trkpt lat="45.588075" lon="10.781735"><ele>245.0</ele><time>2026-03-28T12:24:55.843Z</time></trkpt><trkpt lat="45.5882183" lon="10.781855"><ele>245.0</ele><time>2026-03-28T12:24:56.843Z</time></trkpt><trkpt lat="45.5883617" lon="10.78197"><ele>246.33333333333334</ele><time>2026-03-28T12:24:57.842Z</time></trkpt><trkpt lat="45.5885067" lon="10.78208"><ele>247.66666666666669</ele><time>2026-03-28T12:24:58.842Z</time></trkpt><trkpt lat="45.588655" lon="10.7821933"><ele>249.0</ele><time>2026-03-28T12:24:59.842Z</time></trkpt><trkpt lat="45.5887967" lon="10.7823"><ele>249.0</ele><time>2026-03-28T12:25:00.842Z</time></trkpt><trkpt lat="45.5889317" lon="10.7823983"><ele>249.0</ele><time>2026-03-28T12:25:01.842Z</time></trkpt><trkpt lat="45.5890667" lon="10.7824983"><ele>249.0</ele><time>2026-03-28T12:25:02.843Z</time></trkpt><trkpt lat="45.5892" lon="10.78259"><ele>249.0</ele><time>2026-03-28T12:25:03.843Z</time></trkpt><trkpt lat="45.5893017" lon="10.7826767"><ele>248.99999999999997</ele><time>2026-03-28T12:25:04.843Z</time></trkpt><trkpt lat="45.5893633" lon="10.7827633"><ele>248.99999999999997</ele><time>2026-03-28T12:25:05.842Z</time></trkpt><trkpt lat="45.5893883" lon="10.7828467"><ele>249.0</ele><time>2026-03-28T12:25:06.843Z</time></trkpt><trkpt lat="45.5893433" lon="10.7830167"><ele>249.0</ele><time>2026-03-28T12:25:08.842Z</time></trkpt><trkpt lat="45.589275" lon="10.7831133"><ele>250.75</ele><time>2026-03-28T12:25:09.843Z</time></trkpt><trkpt lat="45.5891933" lon="10.7832367"><ele>252.5</ele><time>2026-03-28T12:25:10.843Z</time></trkpt><trkpt lat="45.5891067" lon="10.78336"><ele>254.25</ele><time>2026-03-28T12:25:11.843Z</time></trkpt><trkpt lat="45.5890117" lon="10.783505"><ele>256.0</ele><time>2026-03-28T12:25:12.843Z</time></trkpt><trkpt lat="45.5889133" lon="10.7836733"><ele>256.66666666666663</ele><time>2026-03-28T12:25:13.842Z</time></trkpt><trkpt lat="45.588805" lon="10.78385"><ele>257.3333333333333</ele><time>2026-03-28T12:25:14.843Z</time></trkpt><trkpt lat="45.5887033" lon="10.78402"><ele>258.0</ele><time>2026-03-28T12:25:15.842Z</time></trkpt><trkpt lat="45.58861" lon="10.7841833"><ele>258.0</ele><time>2026-03-28T12:25:16.842Z</time></trkpt><trkpt lat="45.5885333" lon="10.78433"><ele>258.0</ele><time>2026-03-28T12:25:17.843Z</time></trkpt><trkpt lat="45.5884967" lon="10.7844317"><ele>258.0</ele><time>2026-03-28T12:25:18.843Z</time></trkpt><trkpt lat="45.5885333" lon="10.7845117"><ele>258.0</ele><time>2026-03-28T12:25:20.843Z</time></trkpt><trkpt lat="45.5886567" lon="10.784615"><ele>258.0</ele><time>2026-03-28T12:25:22.843Z</time></trkpt><trkpt lat="45.588745" lon="10.7846683"><ele>258.75</ele><time>2026-03-28T12:25:23.842Z</time></trkpt><trkpt lat="45.5888367" lon="10.7847233"><ele>259.5</ele><time>2026-03-28T12:25:24.842Z</time></trkpt><trkpt lat="45.588935" lon="10.7848083"><ele>260.25</ele><time>2026-03-28T12:25:25.842Z</time></trkpt><trkpt lat="45.5890433" lon="10.78491"><ele>261.0</ele><time>2026-03-28T12:25:26.842Z</time></trkpt><trkpt lat="45.5891533" lon="10.785045"><ele>263.3333333333333</ele><time>2026-03-28T12:25:27.843Z</time></trkpt><trkpt lat="45.5892683" lon="10.78519"><ele>265.66666666666663</ele><time>2026-03-28T12:25:28.842Z</time></trkpt><trkpt lat="45.589385" lon="10.785325"><ele>268.0</ele><time>2026-03-28T12:25:29.843Z</time></trkpt><trkpt lat="45.5895067" lon="10.7854767"><ele>267.0</ele><time>2026-03-28T12:25:30.842Z</time></trkpt><trkpt lat="45.58962" lon="10.78563"><ele>266.0</ele><time>2026-03-28T12:25:31.842Z</time></trkpt><trkpt lat="45.5897367" lon="10.7857633"><ele>265.0</ele><time>2026-03-28T12:25:32.842Z</time></trkpt><trkpt lat="45.58986" lon="10.7858917"><ele>266.0</ele><time>2026-03-28T12:25:33.842Z</time></trkpt><trkpt lat="45.5899817" lon="10.7860283"><ele>267.0</ele><time>2026-03-28T12:25:34.843Z</time></trkpt><trkpt lat="45.5901133" lon="10.7861567"><ele>268.0</ele><time>2026-03-28T12:25:35.843Z</time></trkpt><trkpt lat="45.59024" lon="10.7862867"><ele>267.66666666666663</ele><time>2026-03-28T12:25:36.843Z</time></trkpt><trkpt lat="45.590365" lon="10.786425"><ele>267.3333333333333</ele><time>2026-03-28T12:25:37.843Z</time></trkpt><trkpt lat="45.5904983" lon="10.7865633"><ele>267.0</ele><time>2026-03-28T12:25:38.842Z</time></trkpt><trkpt lat="45.59063" lon="10.7867117"><ele>269.0</ele><time>2026-03-28T12:25:39.842Z</time></trkpt><trkpt lat="45.590745" lon="10.78685"><ele>271.0</ele><time>2026-03-28T12:25:40.842Z</time></trkpt><trkpt lat="45.590865" lon="10.7869983"><ele>273.0</ele><time>2026-03-28T12:25:41.842Z</time></trkpt><trkpt lat="45.5909717" lon="10.7871567"><ele>273.0</ele><time>2026-03-28T12:25:42.842Z</time></trkpt><trkpt lat="45.5910917" lon="10.7873067"><ele>273.0</ele><time>2026-03-28T12:25:43.842Z</time></trkpt><trkpt lat="45.591215" lon="10.7874667"><ele>273.0</ele><time>2026-03-28T12:25:44.842Z</time></trkpt><trkpt lat="45.5913383" lon="10.7876383"><ele>272.6666666666667</ele><time>2026-03-28T12:25:45.843Z</time></trkpt><trkpt lat="45.5914717" lon="10.7877917"><ele>272.33333333333337</ele><time>2026-03-28T12:25:46.843Z</time></trkpt><trkpt lat="45.5916067" lon="10.7879417"><ele>272.0</ele><time>2026-03-28T12:25:47.842Z</time></trkpt><trkpt lat="45.5917283" lon="10.788085"><ele>272.0</ele><time>2026-03-28T12:25:48.843Z</time></trkpt><trkpt lat="45.5918517" lon="10.7882183"><ele>272.0</ele><time>2026-03-28T12:25:49.842Z</time></trkpt><trkpt lat="45.5919867" lon="10.7883483"><ele>272.0</ele><time>2026-03-28T12:25:50.843Z</time></trkpt><trkpt lat="45.5921017" lon="10.7884533"><ele>272.2</ele><time>2026-03-28T12:25:51.842Z</time></trkpt><trkpt lat="45.592195" lon="10.7885733"><ele>272.4</ele><time>2026-03-28T12:25:52.842Z</time></trkpt><trkpt lat="45.5922717" lon="10.7886983"><ele>272.6</ele><time>2026-03-28T12:25:53.842Z</time></trkpt><trkpt lat="45.592335" lon="10.788795"><ele>272.8</ele><time>2026-03-28T12:25:54.842Z</time></trkpt><trkpt lat="45.5923933" lon="10.788875"><ele>273.0</ele><time>2026-03-28T12:25:55.842Z</time></trkpt><trkpt lat="45.5924683" lon="10.7889333"><ele>273.0</ele><time>2026-03-28T12:25:56.843Z</time></trkpt><trkpt lat="45.5925517" lon="10.788985"><ele>273.0</ele><time>2026-03-28T12:25:57.842Z</time></trkpt><trkpt lat="45.5926367" lon="10.7890683"><ele>273.0</ele><time>2026-03-28T12:25:58.842Z</time></trkpt><trkpt lat="45.5927217" lon="10.78917"><ele>273.0</ele><time>2026-03-28T12:25:59.842Z</time></trkpt><trkpt lat="45.5928133" lon="10.789295"><ele>273.0</ele><time>2026-03-28T12:26:00.842Z</time></trkpt><trkpt lat="45.592915" lon="10.789415"><ele>273.8</ele><time>2026-03-28T12:26:01.842Z</time></trkpt><trkpt lat="45.5930033" lon="10.7895383"><ele>274.6</ele><time>2026-03-28T12:26:02.842Z</time></trkpt><trkpt lat="45.593075" lon="10.7896333"><ele>275.4</ele><time>2026-03-28T12:26:03.842Z</time></trkpt><trkpt lat="45.5931083" lon="10.789775"><ele>276.2</ele><time>2026-03-28T12:26:05.843Z</time></trkpt><trkpt lat="45.59307" lon="10.7898533"><ele>277.0</ele><time>2026-03-28T12:26:07.842Z</time></trkpt><trkpt lat="45.592995" lon="10.7899267"><ele>277.0</ele><time>2026-03-28T12:26:13.842Z</time></trkpt><trkpt lat="45.592915" lon="10.79"><ele>277.0</ele><time>2026-03-28T12:26:15.842Z</time></trkpt><trkpt lat="45.5928817" lon="10.790125"><ele>277.0</ele><time>2026-03-28T12:26:17.843Z</time></trkpt><trkpt lat="45.5929483" lon="10.790265"><ele>277.0</ele><time>2026-03-28T12:26:19.842Z</time></trkpt><trkpt lat="45.59302" lon="10.7903433"><ele>277.0</ele><time>2026-03-28T12:26:20.842Z</time></trkpt><trkpt lat="45.5931117" lon="10.7904333"><ele>277.5</ele><time>2026-03-28T12:26:21.843Z</time></trkpt><trkpt lat="45.5932017" lon="10.7905433"><ele>278.0</ele><time>2026-03-28T12:26:22.843Z</time></trkpt><trkpt lat="45.59329" lon="10.7906567"><ele>278.5</ele><time>2026-03-28T12:26:23.842Z</time></trkpt><trkpt lat="45.5933633" lon="10.7907667"><ele>279.0</ele><time>2026-03-28T12:26:24.843Z</time></trkpt><trkpt lat="45.59343" lon="10.7909033"><ele>279.59999999999997</ele><time>2026-03-28T12:26:25.842Z</time></trkpt><trkpt lat="45.5934917" lon="10.79104"><ele>280.2</ele><time>2026-03-28T12:26:26.842Z</time></trkpt><trkpt lat="45.5935517" lon="10.791155"><ele>280.79999999999995</ele><time>2026-03-28T12:26:27.843Z</time></trkpt><trkpt lat="45.59363" lon="10.7912567"><ele>281.4</ele><time>2026-03-28T12:26:28.842Z</time></trkpt><trkpt lat="45.5937117" lon="10.7913667"><ele>282.0</ele><time>2026-03-28T12:26:29.843Z</time></trkpt><trkpt lat="45.5938033" lon="10.79148"><ele>282.0</ele><time>2026-03-28T12:26:30.842Z</time></trkpt><trkpt lat="45.5938817" lon="10.7916083"><ele>282.0</ele><time>2026-03-28T12:26:31.842Z</time></trkpt><trkpt lat="45.593945" lon="10.79173"><ele>282.0</ele><time>2026-03-28T12:26:32.842Z</time></trkpt><trkpt lat="45.5939983" lon="10.7918467"><ele>282.0</ele><time>2026-03-28T12:26:33.843Z</time></trkpt><trkpt lat="45.59405" lon="10.7919883"><ele>282.0</ele><time>2026-03-28T12:26:34.843Z</time></trkpt><trkpt lat="45.5940983" lon="10.7921267"><ele>282.8</ele><time>2026-03-28T12:26:35.843Z</time></trkpt><trkpt lat="45.5941667" lon="10.7922317"><ele>283.6</ele><time>2026-03-28T12:26:36.842Z</time></trkpt><trkpt lat="45.5942533" lon="10.79233"><ele>284.40000000000003</ele><time>2026-03-28T12:26:37.842Z</time></trkpt><trkpt lat="45.5943317" lon="10.7924083"><ele>285.2</ele><time>2026-03-28T12:26:38.843Z</time></trkpt><trkpt lat="45.5944083" lon="10.7925067"><ele>286.0</ele><time>2026-03-28T12:26:39.843Z</time></trkpt><trkpt lat="45.59447" lon="10.7926117"><ele>285.8</ele><time>2026-03-28T12:26:40.842Z</time></trkpt><trkpt lat="45.59452" lon="10.7927217"><ele>285.6</ele><time>2026-03-28T12:26:41.842Z</time></trkpt><trkpt lat="45.59457" lon="10.79285"><ele>285.4</ele><time>2026-03-28T12:26:42.842Z</time></trkpt><trkpt lat="45.594625" lon="10.79297"><ele>285.2</ele><time>2026-03-28T12:26:43.843Z</time></trkpt><trkpt lat="45.594685" lon="10.7930983"><ele>285.0</ele><time>2026-03-28T12:26:44.842Z</time></trkpt><trkpt lat="45.5947533" lon="10.7932233"><ele>285.0</ele><time>2026-03-28T12:26:45.843Z</time></trkpt><trkpt lat="45.59482" lon="10.7933383"><ele>285.0</ele><time>2026-03-28T12:26:46.842Z</time></trkpt><trkpt lat="45.5948883" lon="10.793455"><ele>285.0</ele><time>2026-03-28T12:26:47.842Z</time></trkpt><trkpt lat="45.5949567" lon="10.7935617"><ele>285.0</ele><time>2026-03-28T12:26:48.842Z</time></trkpt><trkpt lat="45.5950317" lon="10.7936767"><ele>285.0</ele><time>2026-03-28T12:26:49.842Z</time></trkpt><trkpt lat="45.5951133" lon="10.7937983"><ele>284.8</ele><time>2026-03-28T12:26:50.842Z</time></trkpt><trkpt lat="45.5951967" lon="10.7939217"><ele>284.6</ele><time>2026-03-28T12:26:51.842Z</time></trkpt><trkpt lat="45.5952783" lon="10.7940433"><ele>284.4</ele><time>2026-03-28T12:26:52.843Z</time></trkpt><trkpt lat="45.5953533" lon="10.79416"><ele>284.2</ele><time>2026-03-28T12:26:53.843Z</time></trkpt><trkpt lat="45.5954217" lon="10.794265"><ele>284.0</ele><time>2026-03-28T12:26:54.843Z</time></trkpt><trkpt lat="45.5954883" lon="10.7943633"><ele>284.0</ele><time>2026-03-28T12:26:55.842Z</time></trkpt><trkpt lat="45.5955517" lon="10.794445"><ele>284.0</ele><time>2026-03-28T12:26:56.842Z</time></trkpt><trkpt lat="45.5956" lon="10.7945033"><ele>284.0</ele><time>2026-03-28T12:26:57.842Z</time></trkpt><trkpt lat="45.5956683" lon="10.7945633"><ele>284.0</ele><time>2026-03-28T12:26:59.842Z</time></trkpt><trkpt lat="45.5957917" lon="10.7945667"><ele>284.0</ele><time>2026-03-28T12:27:01.842Z</time></trkpt><trkpt lat="45.595885" lon="10.79454"><ele>284.0</ele><time>2026-03-28T12:27:02.843Z</time></trkpt><trkpt lat="45.5959983" lon="10.79451"><ele>284.0</ele><time>2026-03-28T12:27:03.842Z</time></trkpt><trkpt lat="45.5961183" lon="10.7944833"><ele>284.0</ele><time>2026-03-28T12:27:04.842Z</time></trkpt><trkpt lat="45.5962317" lon="10.794455"><ele>284.0</ele><time>2026-03-28T12:27:05.843Z</time></trkpt><trkpt lat="45.596335" lon="10.7944233"><ele>284.0</ele><time>2026-03-28T12:27:06.842Z</time></trkpt><trkpt lat="45.5964417" lon="10.7943883"><ele>282.25</ele><time>2026-03-28T12:27:07.842Z</time></trkpt><trkpt lat="45.5965483" lon="10.7943567"><ele>280.5</ele><time>2026-03-28T12:27:08.842Z</time></trkpt><trkpt lat="45.5966667" lon="10.7943267"><ele>278.75</ele><time>2026-03-28T12:27:09.843Z</time></trkpt><trkpt lat="45.59678" lon="10.794315"><ele>277.0</ele><time>2026-03-28T12:27:10.843Z</time></trkpt><trkpt lat="45.5968967" lon="10.794305"><ele>274.8</ele><time>2026-03-28T12:27:11.842Z</time></trkpt><trkpt lat="45.5970083" lon="10.7942983"><ele>272.6</ele><time>2026-03-28T12:27:12.842Z</time></trkpt><trkpt lat="45.5971117" lon="10.7943133"><ele>270.40000000000003</ele><time>2026-03-28T12:27:13.843Z</time></trkpt><trkpt lat="45.59721" lon="10.7943433"><ele>268.2</ele><time>2026-03-28T12:27:14.843Z</time></trkpt><trkpt lat="45.5973067" lon="10.79439"><ele>266.0</ele><time>2026-03-28T12:27:15.842Z</time></trkpt><trkpt lat="45.5974033" lon="10.794455"><ele>266.0</ele><time>2026-03-28T12:27:16.842Z</time></trkpt><trkpt lat="45.597505" lon="10.7945283"><ele>266.0</ele><time>2026-03-28T12:27:17.843Z</time></trkpt><trkpt lat="45.5976283" lon="10.7946133"><ele>266.0</ele><time>2026-03-28T12:27:18.843Z</time></trkpt><trkpt lat="45.5977533" lon="10.7947017"><ele>266.0</ele><time>2026-03-28T12:27:19.842Z</time></trkpt><trkpt lat="45.5978767" lon="10.79478"><ele>264.83333333333337</ele><time>2026-03-28T12:27:20.842Z</time></trkpt><trkpt lat="45.59798" lon="10.794855"><ele>263.6666666666667</ele><time>2026-03-28T12:27:21.843Z</time></trkpt><trkpt lat="45.5980667" lon="10.79491"><ele>262.5</ele><time>2026-03-28T12:27:22.843Z</time></trkpt><trkpt lat="45.5981433" lon="10.794965"><ele>261.3333333333333</ele><time>2026-03-28T12:27:23.843Z</time></trkpt><trkpt lat="45.5981983" lon="10.795035"><ele>260.16666666666663</ele><time>2026-03-28T12:27:24.842Z</time></trkpt><trkpt lat="45.5982417" lon="10.795115"><ele>259.0</ele><time>2026-03-28T12:27:25.842Z</time></trkpt><trkpt lat="45.5983083" lon="10.7952267"><ele>259.0</ele><time>2026-03-28T12:27:27.843Z</time></trkpt><trkpt lat="45.5982483" lon="10.795325"><ele>259.0</ele><time>2026-03-28T12:27:30.842Z</time></trkpt><trkpt lat="45.59817" lon="10.79536"><ele>259.0</ele><time>2026-03-28T12:27:31.842Z</time></trkpt><trkpt lat="45.598075" lon="10.7953917"><ele>259.0</ele><time>2026-03-28T12:27:32.842Z</time></trkpt><trkpt lat="45.5979683" lon="10.7954017"><ele>259.0</ele><time>2026-03-28T12:27:33.842Z</time></trkpt><trkpt lat="45.5978567" lon="10.795405"><ele>262.0</ele><time>2026-03-28T12:27:34.843Z</time></trkpt><trkpt lat="45.59774" lon="10.79541"><ele>265.0</ele><time>2026-03-28T12:27:35.843Z</time></trkpt><trkpt lat="45.5976367" lon="10.795425"><ele>268.0</ele><time>2026-03-28T12:27:36.843Z</time></trkpt><trkpt lat="45.5975283" lon="10.79546"><ele>271.0</ele><time>2026-03-28T12:27:37.842Z</time></trkpt><trkpt lat="45.5974333" lon="10.7955083"><ele>274.0</ele><time>2026-03-28T12:27:38.843Z</time></trkpt><trkpt lat="45.5973433" lon="10.795575"><ele>274.0</ele><time>2026-03-28T12:27:39.843Z</time></trkpt><trkpt lat="45.5972717" lon="10.7956617"><ele>274.0</ele><time>2026-03-28T12:27:40.843Z</time></trkpt><trkpt lat="45.59721" lon="10.7957617"><ele>274.0</ele><time>2026-03-28T12:27:41.843Z</time></trkpt><trkpt lat="45.5971533" lon="10.79588"><ele>274.0</ele><time>2026-03-28T12:27:42.843Z</time></trkpt><trkpt lat="45.5971083" lon="10.7960083"><ele>274.0</ele><time>2026-03-28T12:27:43.842Z</time></trkpt><trkpt lat="45.5970617" lon="10.7961417"><ele>275.0</ele><time>2026-03-28T12:27:44.842Z</time></trkpt><trkpt lat="45.5970167" lon="10.7962633"><ele>276.0</ele><time>2026-03-28T12:27:45.842Z</time></trkpt><trkpt lat="45.5969667" lon="10.7963783"><ele>277.0</ele><time>2026-03-28T12:27:46.842Z</time></trkpt><trkpt lat="45.5969167" lon="10.7964933"><ele>278.0</ele><time>2026-03-28T12:27:47.842Z</time></trkpt><trkpt lat="45.5968767" lon="10.796615"><ele>279.0</ele><time>2026-03-28T12:27:48.843Z</time></trkpt><trkpt lat="45.59685" lon="10.796745"><ele>280.3333333333333</ele><time>2026-03-28T12:27:49.843Z</time></trkpt><trkpt lat="45.5968283" lon="10.7968783"><ele>281.6666666666667</ele><time>2026-03-28T12:27:50.842Z</time></trkpt><trkpt lat="45.59682" lon="10.7970033"><ele>283.0</ele><time>2026-03-28T12:27:51.842Z</time></trkpt><trkpt lat="45.596815" lon="10.79712"><ele>284.33333333333337</ele><time>2026-03-28T12:27:52.843Z</time></trkpt><trkpt lat="45.59682" lon="10.7972333"><ele>285.6666666666667</ele><time>2026-03-28T12:27:53.842Z</time></trkpt><trkpt lat="45.5968333" lon="10.7973517"><ele>287.0</ele><time>2026-03-28T12:27:54.842Z</time></trkpt><trkpt lat="45.5968417" lon="10.7974633"><ele>287.0</ele><time>2026-03-28T12:27:55.842Z</time></trkpt><trkpt lat="45.596855" lon="10.797575"><ele>287.0</ele><time>2026-03-28T12:27:56.842Z</time></trkpt><trkpt lat="45.596875" lon="10.7977617"><ele>287.0</ele><time>2026-03-28T12:27:58.842Z</time></trkpt><trkpt lat="45.59687" lon="10.797855"><ele>287.0</ele><time>2026-03-28T12:27:59.842Z</time></trkpt><trkpt lat="45.59687" lon="10.797955"><ele>287.0</ele><time>2026-03-28T12:28:00.842Z</time></trkpt><trkpt lat="45.5968667" lon="10.7980567"><ele>287.0</ele><time>2026-03-28T12:28:01.842Z</time></trkpt><trkpt lat="45.596855" lon="10.7981633"><ele>287.33333333333337</ele><time>2026-03-28T12:28:02.843Z</time></trkpt><trkpt lat="45.5968267" lon="10.798275"><ele>287.6666666666667</ele><time>2026-03-28T12:28:03.842Z</time></trkpt><trkpt lat="45.59679" lon="10.7983767"><ele>288.0</ele><time>2026-03-28T12:28:04.842Z</time></trkpt><trkpt lat="45.5967583" lon="10.7984667"><ele>288.3333333333333</ele><time>2026-03-28T12:28:05.842Z</time></trkpt><trkpt lat="45.5967233" lon="10.7985683"><ele>288.66666666666663</ele><time>2026-03-28T12:28:06.842Z</time></trkpt><trkpt lat="45.5966983" lon="10.7986517"><ele>289.0</ele><time>2026-03-28T12:28:07.843Z</time></trkpt><trkpt lat="45.5966583" lon="10.798795"><ele>289.5</ele><time>2026-03-28T12:28:09.842Z</time></trkpt><trkpt lat="45.5966183" lon="10.7989667"><ele>290.0</ele><time>2026-03-28T12:28:11.842Z</time></trkpt><trkpt lat="45.59659" lon="10.7990517"><ele>290.5</ele><time>2026-03-28T12:28:12.842Z</time></trkpt><trkpt lat="45.5965417" lon="10.7991733"><ele>291.0</ele><time>2026-03-28T12:28:14.843Z</time></trkpt><trkpt lat="45.5965033" lon="10.7992467"><ele>291.5</ele><time>2026-03-28T12:28:15.843Z</time></trkpt><trkpt lat="45.596455" lon="10.7993283"><ele>292.0</ele><time>2026-03-28T12:28:16.842Z</time></trkpt><trkpt lat="45.5964083" lon="10.7994217"><ele>293.0</ele><time>2026-03-28T12:28:17.842Z</time></trkpt><trkpt lat="45.5963583" lon="10.7995367"><ele>294.0</ele><time>2026-03-28T12:28:18.842Z</time></trkpt><trkpt lat="45.5963" lon="10.7996483"><ele>295.0</ele><time>2026-03-28T12:28:19.843Z</time></trkpt><trkpt lat="45.596215" lon="10.7997533"><ele>296.0</ele><time>2026-03-28T12:28:20.843Z</time></trkpt><trkpt lat="45.5961317" lon="10.7998317"><ele>297.0</ele><time>2026-03-28T12:28:21.842Z</time></trkpt><trkpt lat="45.5960333" lon="10.7999"><ele>299.25</ele><time>2026-03-28T12:28:22.843Z</time></trkpt><trkpt lat="45.595925" lon="10.7999583"><ele>301.5</ele><time>2026-03-28T12:28:23.843Z</time></trkpt><trkpt lat="45.5957967" lon="10.80002"><ele>303.75</ele><time>2026-03-28T12:28:24.843Z</time></trkpt><trkpt lat="45.59565" lon="10.8001067"><ele>306.0</ele><time>2026-03-28T12:28:25.843Z</time></trkpt><trkpt lat="45.595525" lon="10.8001983"><ele>306.3333333333333</ele><time>2026-03-28T12:28:26.842Z</time></trkpt><trkpt lat="45.5954267" lon="10.8002683"><ele>306.6666666666667</ele><time>2026-03-28T12:28:27.843Z</time></trkpt><trkpt lat="45.5953533" lon="10.8003283"><ele>307.0</ele><time>2026-03-28T12:28:28.843Z</time></trkpt><trkpt lat="45.5952933" lon="10.8004067"><ele>307.33333333333337</ele><time>2026-03-28T12:28:29.842Z</time></trkpt><trkpt lat="45.5952417" lon="10.8004783"><ele>307.6666666666667</ele><time>2026-03-28T12:28:30.843Z</time></trkpt><trkpt lat="45.595215" lon="10.8005767"><ele>308.0</ele><time>2026-03-28T12:28:31.842Z</time></trkpt><trkpt lat="45.59521" lon="10.8006783"><ele>305.2</ele><time>2026-03-28T12:28:32.842Z</time></trkpt><trkpt lat="45.595215" lon="10.8007967"><ele>302.4</ele><time>2026-03-28T12:28:33.842Z</time></trkpt><trkpt lat="45.5952383" lon="10.8009183"><ele>299.59999999999997</ele><time>2026-03-28T12:28:34.843Z</time></trkpt><trkpt lat="45.59527" lon="10.8010483"><ele>296.8</ele><time>2026-03-28T12:28:35.842Z</time></trkpt><trkpt lat="45.595305" lon="10.8011933"><ele>294.0</ele><time>2026-03-28T12:28:36.842Z</time></trkpt><trkpt lat="45.5953367" lon="10.8013333"><ele>293.0</ele><time>2026-03-28T12:28:37.842Z</time></trkpt><trkpt lat="45.595355" lon="10.801455"><ele>292.0</ele><time>2026-03-28T12:28:38.843Z</time></trkpt><trkpt lat="45.59537" lon="10.8015667"><ele>291.0</ele><time>2026-03-28T12:28:39.842Z</time></trkpt><trkpt lat="45.5953683" lon="10.8016733"><ele>290.0</ele><time>2026-03-28T12:28:40.843Z</time></trkpt><trkpt lat="45.5953417" lon="10.8018"><ele>289.0</ele><time>2026-03-28T12:28:41.843Z</time></trkpt><trkpt lat="45.5953233" lon="10.8019233"><ele>288.0</ele><time>2026-03-28T12:28:42.842Z</time></trkpt><trkpt lat="45.5953117" lon="10.8020367"><ele>288.0</ele><time>2026-03-28T12:28:43.843Z</time></trkpt><trkpt lat="45.59533" lon="10.8021433"><ele>288.0</ele><time>2026-03-28T12:28:44.842Z</time></trkpt><trkpt lat="45.595425" lon="10.8022383"><ele>288.0</ele><time>2026-03-28T12:28:46.842Z</time></trkpt><trkpt lat="45.5955433" lon="10.8022133"><ele>288.0</ele><time>2026-03-28T12:28:48.843Z</time></trkpt><trkpt lat="45.59562" lon="10.80217"><ele>288.0</ele><time>2026-03-28T12:28:49.842Z</time></trkpt><trkpt lat="45.59571" lon="10.80212"><ele>291.1666666666667</ele><time>2026-03-28T12:28:50.842Z</time></trkpt><trkpt lat="45.5958083" lon="10.80209"><ele>294.3333333333333</ele><time>2026-03-28T12:28:51.843Z</time></trkpt><trkpt lat="45.5958917" lon="10.8021017"><ele>297.5</ele><time>2026-03-28T12:28:52.842Z</time></trkpt><trkpt lat="45.5959717" lon="10.8021317"><ele>300.66666666666663</ele><time>2026-03-28T12:28:53.842Z</time></trkpt><trkpt lat="45.5960383" lon="10.8021933"><ele>303.8333333333333</ele><time>2026-03-28T12:28:54.843Z</time></trkpt><trkpt lat="45.5960983" lon="10.802275"><ele>307.0</ele><time>2026-03-28T12:28:55.842Z</time></trkpt><trkpt lat="45.5961517" lon="10.802365"><ele>306.4</ele><time>2026-03-28T12:28:56.842Z</time></trkpt><trkpt lat="45.5962117" lon="10.8024867"><ele>305.79999999999995</ele><time>2026-03-28T12:28:57.843Z</time></trkpt><trkpt lat="45.596265" lon="10.8026183"><ele>305.2</ele><time>2026-03-28T12:28:58.842Z</time></trkpt><trkpt lat="45.5963117" lon="10.8027717"><ele>304.59999999999997</ele><time>2026-03-28T12:28:59.842Z</time></trkpt><trkpt lat="45.5963467" lon="10.80293"><ele>304.0</ele><time>2026-03-28T12:29:00.842Z</time></trkpt><trkpt lat="45.5963783" lon="10.8031067"><ele>303.5</ele><time>2026-03-28T12:29:01.842Z</time></trkpt><trkpt lat="45.59643" lon="10.803275"><ele>303.0</ele><time>2026-03-28T12:29:02.842Z</time></trkpt><trkpt lat="45.5964783" lon="10.8034367"><ele>302.5</ele><time>2026-03-28T12:29:03.842Z</time></trkpt><trkpt lat="45.5965217" lon="10.8036017"><ele>302.0</ele><time>2026-03-28T12:29:04.842Z</time></trkpt><trkpt lat="45.5965433" lon="10.80374"><ele>301.8</ele><time>2026-03-28T12:29:05.843Z</time></trkpt><trkpt lat="45.59657" lon="10.80386"><ele>301.6</ele><time>2026-03-28T12:29:06.843Z</time></trkpt><trkpt lat="45.5965917" lon="10.8039983"><ele>301.40000000000003</ele><time>2026-03-28T12:29:07.842Z</time></trkpt><trkpt lat="45.596615" lon="10.80413"><ele>301.2</ele><time>2026-03-28T12:29:08.842Z</time></trkpt><trkpt lat="45.5966417" lon="10.80426"><ele>301.0</ele><time>2026-03-28T12:29:09.843Z</time></trkpt><trkpt lat="45.5966617" lon="10.8043867"><ele>300.0</ele><time>2026-03-28T12:29:10.842Z</time></trkpt><trkpt lat="45.5966767" lon="10.8045017"><ele>299.0</ele><time>2026-03-28T12:29:11.842Z</time></trkpt><trkpt lat="45.5966833" lon="10.8046033"><ele>298.0</ele><time>2026-03-28T12:29:12.842Z</time></trkpt><trkpt lat="45.59669" lon="10.80471"><ele>297.0</ele><time>2026-03-28T12:29:13.842Z</time></trkpt><trkpt lat="45.5967" lon="10.804815"><ele>296.0</ele><time>2026-03-28T12:29:14.842Z</time></trkpt><trkpt lat="45.5967233" lon="10.8049683"><ele>295.0</ele><time>2026-03-28T12:29:16.843Z</time></trkpt><trkpt lat="45.596835" lon="10.8049817"><ele>295.0</ele><time>2026-03-28T12:29:19.843Z</time></trkpt><trkpt lat="45.5969017" lon="10.8049583"><ele>295.0</ele><time>2026-03-28T12:29:20.843Z</time></trkpt><trkpt lat="45.5969817" lon="10.80492"><ele>295.0</ele><time>2026-03-28T12:29:21.842Z</time></trkpt><trkpt lat="45.5970633" lon="10.804875"><ele>295.0</ele><time>2026-03-28T12:29:22.842Z</time></trkpt><trkpt lat="45.5971433" lon="10.804815"><ele>295.0</ele><time>2026-03-28T12:29:23.843Z</time></trkpt><trkpt lat="45.5972183" lon="10.804755"><ele>295.0</ele><time>2026-03-28T12:29:24.843Z</time></trkpt><trkpt lat="45.597275" lon="10.80468"><ele>293.4</ele><time>2026-03-28T12:29:25.842Z</time></trkpt><trkpt lat="45.5973217" lon="10.8045717"><ele>291.8</ele><time>2026-03-28T12:29:26.843Z</time></trkpt><trkpt lat="45.597365" lon="10.8044483"><ele>290.2</ele><time>2026-03-28T12:29:27.842Z</time></trkpt><trkpt lat="45.5974167" lon="10.80431"><ele>288.6</ele><time>2026-03-28T12:29:28.842Z</time></trkpt><trkpt lat="45.597475" lon="10.8041617"><ele>287.0</ele><time>2026-03-28T12:29:29.842Z</time></trkpt><trkpt lat="45.59754" lon="10.8040117"><ele>287.0</ele><time>2026-03-28T12:29:30.843Z</time></trkpt><trkpt lat="45.597605" lon="10.80387"><ele>287.0</ele><time>2026-03-28T12:29:31.842Z</time></trkpt><trkpt lat="45.5976817" lon="10.8037467"><ele>287.0</ele><time>2026-03-28T12:29:32.842Z</time></trkpt><trkpt lat="45.5977633" lon="10.8036483"><ele>287.0</ele><time>2026-03-28T12:29:33.842Z</time></trkpt><trkpt lat="45.5978333" lon="10.8035733"><ele>287.0</ele><time>2026-03-28T12:29:34.842Z</time></trkpt><trkpt lat="45.5979133" lon="10.8035233"><ele>285.6</ele><time>2026-03-28T12:29:35.842Z</time></trkpt><trkpt lat="45.59801" lon="10.8035133"><ele>284.2</ele><time>2026-03-28T12:29:36.843Z</time></trkpt><trkpt lat="45.59812" lon="10.8035183"><ele>282.8</ele><time>2026-03-28T12:29:37.842Z</time></trkpt><trkpt lat="45.5982317" lon="10.8035267"><ele>281.4</ele><time>2026-03-28T12:29:38.842Z</time></trkpt><trkpt lat="45.5983567" lon="10.8035467"><ele>280.0</ele><time>2026-03-28T12:29:39.842Z</time></trkpt><trkpt lat="45.59847" lon="10.80358"><ele>280.0</ele><time>2026-03-28T12:29:40.842Z</time></trkpt><trkpt lat="45.598585" lon="10.8036083"><ele>280.0</ele><time>2026-03-28T12:29:41.843Z</time></trkpt><trkpt lat="45.5987067" lon="10.8036167"><ele>280.0</ele><time>2026-03-28T12:29:42.843Z</time></trkpt><trkpt lat="45.5988233" lon="10.8036167"><ele>280.0</ele><time>2026-03-28T12:29:43.842Z</time></trkpt><trkpt lat="45.5989417" lon="10.8036083"><ele>278.4</ele><time>2026-03-28T12:29:44.842Z</time></trkpt><trkpt lat="45.599045" lon="10.8036"><ele>276.8</ele><time>2026-03-28T12:29:45.842Z</time></trkpt><trkpt lat="45.599135" lon="10.8035733"><ele>275.2</ele><time>2026-03-28T12:29:46.842Z</time></trkpt><trkpt lat="45.5992117" lon="10.8034967"><ele>273.6</ele><time>2026-03-28T12:29:47.841Z</time></trkpt><trkpt lat="45.5992683" lon="10.8034133"><ele>272.0</ele><time>2026-03-28T12:29:48.842Z</time></trkpt><trkpt lat="45.5993167" lon="10.8033217"><ele>271.4</ele><time>2026-03-28T12:29:49.841Z</time></trkpt><trkpt lat="45.599375" lon="10.8032517"><ele>270.79999999999995</ele><time>2026-03-28T12:29:50.842Z</time></trkpt><trkpt lat="45.59945" lon="10.8032017"><ele>270.2</ele><time>2026-03-28T12:29:51.841Z</time></trkpt><trkpt lat="45.5995317" lon="10.803165"><ele>269.59999999999997</ele><time>2026-03-28T12:29:52.841Z</time></trkpt><trkpt lat="45.5996267" lon="10.8031233"><ele>269.0</ele><time>2026-03-28T12:29:53.841Z</time></trkpt><trkpt lat="45.5997367" lon="10.8030917"><ele>267.75</ele><time>2026-03-28T12:29:54.841Z</time></trkpt><trkpt lat="45.5998467" lon="10.8030633"><ele>266.5</ele><time>2026-03-28T12:29:55.841Z</time></trkpt><trkpt lat="45.5999617" lon="10.8030567"><ele>265.25</ele><time>2026-03-28T12:29:56.842Z</time></trkpt><trkpt lat="45.60007" lon="10.8030783"><ele>264.0</ele><time>2026-03-28T12:29:57.842Z</time></trkpt><trkpt lat="45.6001817" lon="10.8031283"><ele>264.0</ele><time>2026-03-28T12:29:58.841Z</time></trkpt><trkpt lat="45.6002983" lon="10.8031683"><ele>264.0</ele><time>2026-03-28T12:29:59.842Z</time></trkpt><trkpt lat="45.6004117" lon="10.803215"><ele>264.0</ele><time>2026-03-28T12:30:00.841Z</time></trkpt><trkpt lat="45.6005167" lon="10.8032267"><ele>264.0</ele><time>2026-03-28T12:30:01.841Z</time></trkpt><trkpt lat="45.6006033" lon="10.8032383"><ele>264.0</ele><time>2026-03-28T12:30:02.842Z</time></trkpt><trkpt lat="45.6006783" lon="10.8032433"><ele>263.0</ele><time>2026-03-28T12:30:03.842Z</time></trkpt><trkpt lat="45.6007517" lon="10.8032567"><ele>262.0</ele><time>2026-03-28T12:30:04.842Z</time></trkpt><trkpt lat="45.6008167" lon="10.8032517"><ele>261.0</ele><time>2026-03-28T12:30:06.841Z</time></trkpt><trkpt lat="45.6008733" lon="10.80317"><ele>260.0</ele><time>2026-03-28T12:30:09.842Z</time></trkpt><trkpt lat="45.60087" lon="10.803075"><ele>259.0</ele><time>2026-03-28T12:30:10.841Z</time></trkpt><trkpt lat="45.6008533" lon="10.802965"><ele>258.0</ele><time>2026-03-28T12:30:11.842Z</time></trkpt><trkpt lat="45.6008267" lon="10.8028467"><ele>258.0</ele><time>2026-03-28T12:30:12.842Z</time></trkpt><trkpt lat="45.6007933" lon="10.8027067"><ele>258.0</ele><time>2026-03-28T12:30:13.842Z</time></trkpt><trkpt lat="45.60076" lon="10.8025483"><ele>258.0</ele><time>2026-03-28T12:30:14.841Z</time></trkpt><trkpt lat="45.6007217" lon="10.8023817"><ele>258.0</ele><time>2026-03-28T12:30:15.842Z</time></trkpt><trkpt lat="45.6006767" lon="10.8022117"><ele>257.25</ele><time>2026-03-28T12:30:16.842Z</time></trkpt><trkpt lat="45.6006317" lon="10.8020267"><ele>256.5</ele><time>2026-03-28T12:30:17.842Z</time></trkpt><trkpt lat="45.600585" lon="10.8018333"><ele>255.75</ele><time>2026-03-28T12:30:18.842Z</time></trkpt><trkpt lat="45.6005383" lon="10.8016367"><ele>255.0</ele><time>2026-03-28T12:30:19.842Z</time></trkpt><trkpt lat="45.6004967" lon="10.8014367"><ele>254.75</ele><time>2026-03-28T12:30:20.841Z</time></trkpt><trkpt lat="45.6004517" lon="10.801245"><ele>254.5</ele><time>2026-03-28T12:30:21.841Z</time></trkpt><trkpt lat="45.6004033" lon="10.8010483"><ele>254.25</ele><time>2026-03-28T12:30:22.841Z</time></trkpt><trkpt lat="45.600355" lon="10.8008517"><ele>254.0</ele><time>2026-03-28T12:30:23.841Z</time></trkpt><trkpt lat="45.6003083" lon="10.8006467"><ele>255.33333333333334</ele><time>2026-03-28T12:30:24.842Z</time></trkpt><trkpt lat="45.6002483" lon="10.8004433"><ele>256.6666666666667</ele><time>2026-03-28T12:30:25.841Z</time></trkpt><trkpt lat="45.6002" lon="10.8002383"><ele>258.0</ele><time>2026-03-28T12:30:26.842Z</time></trkpt><trkpt lat="45.6001533" lon="10.800035"><ele>258.0</ele><time>2026-03-28T12:30:27.841Z</time></trkpt><trkpt lat="45.6001117" lon="10.79983"><ele>258.0</ele><time>2026-03-28T12:30:28.842Z</time></trkpt><trkpt lat="45.6000733" lon="10.7996067"><ele>258.0</ele><time>2026-03-28T12:30:29.841Z</time></trkpt><trkpt lat="45.6000333" lon="10.7993867"><ele>257.0</ele><time>2026-03-28T12:30:30.841Z</time></trkpt><trkpt lat="45.5999933" lon="10.7991667"><ele>256.0</ele><time>2026-03-28T12:30:31.841Z</time></trkpt><trkpt lat="45.59996" lon="10.79894"><ele>255.0</ele><time>2026-03-28T12:30:32.842Z</time></trkpt><trkpt lat="45.5999367" lon="10.7986983"><ele>254.0</ele><time>2026-03-28T12:30:33.842Z</time></trkpt><trkpt lat="45.59991" lon="10.7984633"><ele>253.0</ele><time>2026-03-28T12:30:34.842Z</time></trkpt><trkpt lat="45.5998867" lon="10.7982367"><ele>252.0</ele><time>2026-03-28T12:30:35.841Z</time></trkpt><trkpt lat="45.5998667" lon="10.7980117"><ele>252.0</ele><time>2026-03-28T12:30:36.841Z</time></trkpt><trkpt lat="45.59984" lon="10.7977817"><ele>252.0</ele><time>2026-03-28T12:30:37.842Z</time></trkpt><trkpt lat="45.599815" lon="10.797565"><ele>252.0</ele><time>2026-03-28T12:30:38.842Z</time></trkpt><trkpt lat="45.5998017" lon="10.7973433"><ele>252.0</ele><time>2026-03-28T12:30:39.841Z</time></trkpt><trkpt lat="45.5997933" lon="10.79711"><ele>252.0</ele><time>2026-03-28T12:30:40.842Z</time></trkpt><trkpt lat="45.5998" lon="10.79688"><ele>252.0</ele><time>2026-03-28T12:30:41.841Z</time></trkpt><trkpt lat="45.5998167" lon="10.7966433"><ele>251.66666666666669</ele><time>2026-03-28T12:30:42.842Z</time></trkpt><trkpt lat="45.5998267" lon="10.796405"><ele>251.33333333333334</ele><time>2026-03-28T12:30:43.841Z</time></trkpt><trkpt lat="45.5998367" lon="10.796165"><ele>251.0</ele><time>2026-03-28T12:30:44.841Z</time></trkpt><trkpt lat="45.5998483" lon="10.7959217"><ele>250.66666666666669</ele><time>2026-03-28T12:30:45.841Z</time></trkpt><trkpt lat="45.5998567" lon="10.79568"><ele>250.33333333333331</ele><time>2026-03-28T12:30:46.842Z</time></trkpt><trkpt lat="45.5998617" lon="10.7954383"><ele>250.0</ele><time>2026-03-28T12:30:47.842Z</time></trkpt><trkpt lat="45.5998717" lon="10.7952033"><ele>249.8</ele><time>2026-03-28T12:30:48.841Z</time></trkpt><trkpt lat="45.59988" lon="10.7949667"><ele>249.6</ele><time>2026-03-28T12:30:49.841Z</time></trkpt><trkpt lat="45.5998817" lon="10.7947783"><ele>249.39999999999998</ele><time>2026-03-28T12:30:50.842Z</time></trkpt><trkpt lat="45.59988" lon="10.7946617"><ele>249.2</ele><time>2026-03-28T12:30:51.841Z</time></trkpt><trkpt lat="45.5999367" lon="10.794705"><ele>249.0</ele><time>2026-03-28T12:31:04.841Z</time></trkpt><trkpt lat="45.60001" lon="10.7947133"><ele>249.0</ele><time>2026-03-28T12:31:05.841Z</time></trkpt><trkpt lat="45.6001217" lon="10.79469"><ele>249.0</ele><time>2026-03-28T12:31:06.841Z</time></trkpt><trkpt lat="45.60025" lon="10.7946483"><ele>249.0</ele><time>2026-03-28T12:31:07.842Z</time></trkpt><trkpt lat="45.6004" lon="10.7946017"><ele>249.0</ele><time>2026-03-28T12:31:08.842Z</time></trkpt><trkpt lat="45.6005383" lon="10.7945667"><ele>249.0</ele><time>2026-03-28T12:31:09.842Z</time></trkpt><trkpt lat="45.60064" lon="10.79455"><ele>248.99999999999997</ele><time>2026-03-28T12:31:10.841Z</time></trkpt><trkpt lat="45.6007217" lon="10.7945317"><ele>248.99999999999997</ele><time>2026-03-28T12:31:11.841Z</time></trkpt><trkpt lat="45.6008183" lon="10.7945317"><ele>249.0</ele><time>2026-03-28T12:31:13.841Z</time></trkpt><trkpt lat="45.6009183" lon="10.794605"><ele>249.0</ele><time>2026-03-28T12:31:15.842Z</time></trkpt><trkpt lat="45.600985" lon="10.794715"><ele>249.0</ele><time>2026-03-28T12:31:16.841Z</time></trkpt><trkpt lat="45.6010667" lon="10.7948383"><ele>249.0</ele><time>2026-03-28T12:31:17.841Z</time></trkpt><trkpt lat="45.6011733" lon="10.7949583"><ele>249.0</ele><time>2026-03-28T12:31:18.841Z</time></trkpt><trkpt lat="45.6012767" lon="10.7950583"><ele>249.0</ele><time>2026-03-28T12:31:19.842Z</time></trkpt><trkpt lat="45.60137" lon="10.7951417"><ele>249.25</ele><time>2026-03-28T12:31:20.841Z</time></trkpt><trkpt lat="45.6014767" lon="10.7951983"><ele>249.5</ele><time>2026-03-28T12:31:21.842Z</time></trkpt><trkpt lat="45.6015833" lon="10.7952167"><ele>249.75</ele><time>2026-03-28T12:31:22.842Z</time></trkpt><trkpt lat="45.6017" lon="10.795215"><ele>250.0</ele><time>2026-03-28T12:31:23.842Z</time></trkpt><trkpt lat="45.6018233" lon="10.7952083"><ele>250.0</ele><time>2026-03-28T12:31:24.841Z</time></trkpt><trkpt lat="45.6019617" lon="10.7951967"><ele>250.0</ele><time>2026-03-28T12:31:25.841Z</time></trkpt><trkpt lat="45.60212" lon="10.7951817"><ele>250.0</ele><time>2026-03-28T12:31:26.841Z</time></trkpt><trkpt lat="45.602265" lon="10.795185"><ele>250.0</ele><time>2026-03-28T12:31:27.841Z</time></trkpt><trkpt lat="45.6024" lon="10.7952133"><ele>250.2</ele><time>2026-03-28T12:31:28.841Z</time></trkpt><trkpt lat="45.6025033" lon="10.7952517"><ele>250.4</ele><time>2026-03-28T12:31:29.842Z</time></trkpt><trkpt lat="45.60258" lon="10.7953"><ele>250.60000000000002</ele><time>2026-03-28T12:31:30.841Z</time></trkpt><trkpt lat="45.6026467" lon="10.795335"><ele>250.8</ele><time>2026-03-28T12:31:31.842Z</time></trkpt><trkpt lat="45.6027367" lon="10.7953683"><ele>251.0</ele><time>2026-03-28T12:31:33.842Z</time></trkpt><trkpt lat="45.602805" lon="10.795265"><ele>251.00000000000003</ele><time>2026-03-28T12:31:35.841Z</time></trkpt><trkpt lat="45.602885" lon="10.7951633"><ele>251.0</ele><time>2026-03-28T12:31:37.842Z</time></trkpt><trkpt lat="45.60296" lon="10.795135"><ele>251.0</ele><time>2026-03-28T12:31:39.842Z</time></trkpt><trkpt lat="45.6030283" lon="10.795135"><ele>251.0</ele><time>2026-03-28T12:31:41.842Z</time></trkpt><trkpt lat="45.6030067" lon="10.79505"><ele>251.00000000000003</ele><time>2026-03-28T12:31:49.841Z</time></trkpt><trkpt lat="45.602945" lon="10.7950783"><ele>251.0</ele><time>2026-03-28T12:31:51.841Z</time></trkpt><trkpt lat="45.602855" lon="10.7950983"><ele>251.00000000000003</ele><time>2026-03-28T12:31:53.841Z</time></trkpt><trkpt lat="45.602785" lon="10.7951133"><ele>251.0</ele><time>2026-03-28T12:31:54.841Z</time></trkpt><trkpt lat="45.6027117" lon="10.7951233"><ele>251.0</ele><time>2026-03-28T12:31:55.841Z</time></trkpt><trkpt lat="45.602645" lon="10.795155"><ele>251.0</ele><time>2026-03-28T12:31:56.841Z</time></trkpt><trkpt lat="45.6025717" lon="10.795245"><ele>251.00000000000003</ele><time>2026-03-28T12:31:58.841Z</time></trkpt><trkpt lat="45.6025983" lon="10.7953667"><ele>251.0</ele><time>2026-03-28T12:32:00.841Z</time></trkpt><trkpt lat="45.6026483" lon="10.7954583"><ele>251.0</ele><time>2026-03-28T12:32:01.842Z</time></trkpt><trkpt lat="45.602685" lon="10.7955583"><ele>251.00000000000003</ele><time>2026-03-28T12:32:02.841Z</time></trkpt><trkpt lat="45.6027083" lon="10.7956783"><ele>251.00000000000003</ele><time>2026-03-28T12:32:03.841Z</time></trkpt><trkpt lat="45.6027233" lon="10.79581"><ele>251.0</ele><time>2026-03-28T12:32:04.842Z</time></trkpt><trkpt lat="45.6027333" lon="10.7959467"><ele>251.0</ele><time>2026-03-28T12:32:05.842Z</time></trkpt><trkpt lat="45.60274" lon="10.7960983"><ele>251.0</ele><time>2026-03-28T12:32:06.842Z</time></trkpt><trkpt lat="45.6027467" lon="10.7962517"><ele>251.00000000000003</ele><time>2026-03-28T12:32:07.841Z</time></trkpt><trkpt lat="45.6027583" lon="10.7964067"><ele>251.00000000000003</ele><time>2026-03-28T12:32:08.842Z</time></trkpt><trkpt lat="45.6027633" lon="10.7965567"><ele>251.0</ele><time>2026-03-28T12:32:09.841Z</time></trkpt><trkpt lat="45.60277" lon="10.796705"><ele>251.0</ele><time>2026-03-28T12:32:10.841Z</time></trkpt><trkpt lat="45.6027833" lon="10.7968617"><ele>251.00000000000003</ele><time>2026-03-28T12:32:11.842Z</time></trkpt><trkpt lat="45.6027967" lon="10.7970133"><ele>251.0</ele><time>2026-03-28T12:32:12.841Z</time></trkpt><trkpt lat="45.602825" lon="10.7971283"><ele>251.0</ele><time>2026-03-28T12:32:13.842Z</time></trkpt><trkpt lat="45.6028633" lon="10.7972217"><ele>251.0</ele><time>2026-03-28T12:32:14.842Z</time></trkpt><trkpt lat="45.6029133" lon="10.79729"><ele>251.00000000000003</ele><time>2026-03-28T12:32:15.842Z</time></trkpt><trkpt lat="45.6029833" lon="10.7973517"><ele>251.0</ele><time>2026-03-28T12:32:16.841Z</time></trkpt><trkpt lat="45.6030567" lon="10.7973983"><ele>251.00000000000003</ele><time>2026-03-28T12:32:17.842Z</time></trkpt><trkpt lat="45.603135" lon="10.79745"><ele>251.0</ele><time>2026-03-28T12:32:18.841Z</time></trkpt><trkpt lat="45.6032117" lon="10.797515"><ele>251.0</ele><time>2026-03-28T12:32:19.842Z</time></trkpt><trkpt lat="45.603245" lon="10.7975967"><ele>251.0</ele><time>2026-03-28T12:32:20.841Z</time></trkpt><trkpt lat="45.6032633" lon="10.7976983"><ele>251.00000000000003</ele><time>2026-03-28T12:32:21.842Z</time></trkpt><trkpt lat="45.6032633" lon="10.7978267"><ele>251.0</ele><time>2026-03-28T12:32:22.842Z</time></trkpt><trkpt lat="45.6032583" lon="10.7979667"><ele>251.0</ele><time>2026-03-28T12:32:23.842Z</time></trkpt><trkpt lat="45.6032617" lon="10.7980917"><ele>251.00000000000003</ele><time>2026-03-28T12:32:24.842Z</time></trkpt><trkpt lat="45.60332" lon="10.79818"><ele>251.00000000000003</ele><time>2026-03-28T12:32:25.841Z</time></trkpt><trkpt lat="45.603405" lon="10.7982517"><ele>251.0</ele><time>2026-03-28T12:32:26.841Z</time></trkpt><trkpt lat="45.6035" lon="10.798305"><ele>251.0</ele><time>2026-03-28T12:32:27.842Z</time></trkpt><trkpt lat="45.6036067" lon="10.7983533"><ele>251.25</ele><time>2026-03-28T12:32:28.841Z</time></trkpt><trkpt lat="45.60372" lon="10.798405"><ele>251.5</ele><time>2026-03-28T12:32:29.841Z</time></trkpt><trkpt lat="45.6038317" lon="10.7984717"><ele>251.75</ele><time>2026-03-28T12:32:30.841Z</time></trkpt><trkpt lat="45.6039567" lon="10.79854"><ele>252.0</ele><time>2026-03-28T12:32:31.841Z</time></trkpt><trkpt lat="45.60408" lon="10.7986167"><ele>252.0</ele><time>2026-03-28T12:32:32.841Z</time></trkpt><trkpt lat="45.60421" lon="10.7986933"><ele>252.0</ele><time>2026-03-28T12:32:33.841Z</time></trkpt><trkpt lat="45.6043367" lon="10.7987667"><ele>252.0</ele><time>2026-03-28T12:32:34.841Z</time></trkpt><trkpt lat="45.6044667" lon="10.798825"><ele>252.0</ele><time>2026-03-28T12:32:35.842Z</time></trkpt><trkpt lat="45.6045983" lon="10.7989033"><ele>252.0</ele><time>2026-03-28T12:32:36.841Z</time></trkpt><trkpt lat="45.6047383" lon="10.7989783"><ele>252.0</ele><time>2026-03-28T12:32:37.842Z</time></trkpt><trkpt lat="45.6048733" lon="10.7990533"><ele>252.0</ele><time>2026-03-28T12:32:38.842Z</time></trkpt><trkpt lat="45.605" lon="10.799125"><ele>252.0</ele><time>2026-03-28T12:32:39.841Z</time></trkpt><trkpt lat="45.6051283" lon="10.7992083"><ele>252.0</ele><time>2026-03-28T12:32:40.842Z</time></trkpt><trkpt lat="45.6052433" lon="10.79929"><ele>252.0</ele><time>2026-03-28T12:32:41.841Z</time></trkpt><trkpt lat="45.605355" lon="10.7993633"><ele>252.0</ele><time>2026-03-28T12:32:42.841Z</time></trkpt><trkpt lat="45.6054567" lon="10.799435"><ele>252.0</ele><time>2026-03-28T12:32:43.841Z</time></trkpt><trkpt lat="45.6055283" lon="10.7995317"><ele>253.8</ele><time>2026-03-28T12:32:44.841Z</time></trkpt><trkpt lat="45.6055567" lon="10.79964"><ele>255.6</ele><time>2026-03-28T12:32:45.842Z</time></trkpt><trkpt lat="45.605575" lon="10.7997833"><ele>257.40000000000003</ele><time>2026-03-28T12:32:46.841Z</time></trkpt><trkpt lat="45.6055733" lon="10.7999283"><ele>259.2</ele><time>2026-03-28T12:32:47.841Z</time></trkpt><trkpt lat="45.6055533" lon="10.8000817"><ele>261.0</ele><time>2026-03-28T12:32:48.842Z</time></trkpt><trkpt lat="45.6055333" lon="10.8002517"><ele>261.5</ele><time>2026-03-28T12:32:49.842Z</time></trkpt><trkpt lat="45.60551" lon="10.8004233"><ele>262.0</ele><time>2026-03-28T12:32:50.841Z</time></trkpt><trkpt lat="45.6054733" lon="10.8006133"><ele>262.5</ele><time>2026-03-28T12:32:51.842Z</time></trkpt><trkpt lat="45.6054467" lon="10.8008217"><ele>263.0</ele><time>2026-03-28T12:32:52.842Z</time></trkpt><trkpt lat="45.60542" lon="10.8010433"><ele>264.6666666666667</ele><time>2026-03-28T12:32:53.842Z</time></trkpt><trkpt lat="45.605395" lon="10.8012733"><ele>266.3333333333333</ele><time>2026-03-28T12:32:54.841Z</time></trkpt><trkpt lat="45.605375" lon="10.8014967"><ele>268.0</ele><time>2026-03-28T12:32:55.842Z</time></trkpt><trkpt lat="45.605355" lon="10.80174"><ele>264.0</ele><time>2026-03-28T12:32:56.841Z</time></trkpt><trkpt lat="45.6053217" lon="10.8019967"><ele>260.0</ele><time>2026-03-28T12:32:57.841Z</time></trkpt><trkpt lat="45.6052833" lon="10.8022283"><ele>256.0</ele><time>2026-03-28T12:32:58.841Z</time></trkpt><trkpt lat="45.6052483" lon="10.802425"><ele>256.0</ele><time>2026-03-28T12:32:59.841Z</time></trkpt><trkpt lat="45.605205" lon="10.80261"><ele>256.0</ele><time>2026-03-28T12:33:00.842Z</time></trkpt><trkpt lat="45.60518" lon="10.80278"><ele>256.0</ele><time>2026-03-28T12:33:01.841Z</time></trkpt><trkpt lat="45.6051733" lon="10.802945"><ele>256.0</ele><time>2026-03-28T12:33:02.841Z</time></trkpt><trkpt lat="45.6051833" lon="10.803105"><ele>256.2</ele><time>2026-03-28T12:33:03.841Z</time></trkpt><trkpt lat="45.6052083" lon="10.8032533"><ele>256.40000000000003</ele><time>2026-03-28T12:33:04.841Z</time></trkpt><trkpt lat="45.605215" lon="10.8034"><ele>256.6</ele><time>2026-03-28T12:33:05.841Z</time></trkpt><trkpt lat="45.60521" lon="10.8035517"><ele>256.8</ele><time>2026-03-28T12:33:06.841Z</time></trkpt><trkpt lat="45.6052" lon="10.8037233"><ele>257.0</ele><time>2026-03-28T12:33:07.841Z</time></trkpt><trkpt lat="45.6051867" lon="10.803905"><ele>257.75</ele><time>2026-03-28T12:33:08.841Z</time></trkpt><trkpt lat="45.6051717" lon="10.8040933"><ele>258.5</ele><time>2026-03-28T12:33:09.842Z</time></trkpt><trkpt lat="45.6051567" lon="10.8042733"><ele>259.25</ele><time>2026-03-28T12:33:10.841Z</time></trkpt><trkpt lat="45.6051433" lon="10.8044767"><ele>260.0</ele><time>2026-03-28T12:33:11.842Z</time></trkpt><trkpt lat="45.60513" lon="10.80468"><ele>260.2</ele><time>2026-03-28T12:33:12.841Z</time></trkpt><trkpt lat="45.6051217" lon="10.8048717"><ele>260.4</ele><time>2026-03-28T12:33:13.841Z</time></trkpt><trkpt lat="45.6051283" lon="10.8050383"><ele>260.6</ele><time>2026-03-28T12:33:14.842Z</time></trkpt><trkpt lat="45.60514" lon="10.80517"><ele>260.8</ele><time>2026-03-28T12:33:15.841Z</time></trkpt><trkpt lat="45.6051517" lon="10.8052717"><ele>261.0</ele><time>2026-03-28T12:33:16.842Z</time></trkpt><trkpt lat="45.6051833" lon="10.8053683"><ele>261.0</ele><time>2026-03-28T12:33:17.842Z</time></trkpt><trkpt lat="45.6052317" lon="10.805445"><ele>261.0</ele><time>2026-03-28T12:33:18.842Z</time></trkpt><trkpt lat="45.6053067" lon="10.8055167"><ele>261.0</ele><time>2026-03-28T12:33:19.841Z</time></trkpt><trkpt lat="45.6053967" lon="10.8056117"><ele>261.0</ele><time>2026-03-28T12:33:20.842Z</time></trkpt><trkpt lat="45.6054833" lon="10.805725"><ele>261.0</ele><time>2026-03-28T12:33:21.841Z</time></trkpt><trkpt lat="45.6055433" lon="10.80586"><ele>262.0</ele><time>2026-03-28T12:33:22.841Z</time></trkpt><trkpt lat="45.6056083" lon="10.8060233"><ele>263.0</ele><time>2026-03-28T12:33:23.841Z</time></trkpt><trkpt lat="45.6056617" lon="10.8062033"><ele>264.0</ele><time>2026-03-28T12:33:24.841Z</time></trkpt><trkpt lat="45.6057117" lon="10.80638"><ele>265.0</ele><time>2026-03-28T12:33:25.841Z</time></trkpt><trkpt lat="45.6057683" lon="10.8065467"><ele>265.0</ele><time>2026-03-28T12:33:26.842Z</time></trkpt><trkpt lat="45.6058183" lon="10.80671"><ele>265.0</ele><time>2026-03-28T12:33:27.841Z</time></trkpt><trkpt lat="45.605855" lon="10.8068833"><ele>265.0</ele><time>2026-03-28T12:33:28.84Z</time></trkpt><trkpt lat="45.6058933" lon="10.8070583"><ele>265.0</ele><time>2026-03-28T12:33:29.842Z</time></trkpt><trkpt lat="45.6059317" lon="10.8072317"><ele>264.75</ele><time>2026-03-28T12:33:30.841Z</time></trkpt><trkpt lat="45.6059817" lon="10.8074167"><ele>264.5</ele><time>2026-03-28T12:33:31.842Z</time></trkpt><trkpt lat="45.6060283" lon="10.807595"><ele>264.25</ele><time>2026-03-28T12:33:32.842Z</time></trkpt><trkpt lat="45.6060717" lon="10.8077667"><ele>264.0</ele><time>2026-03-28T12:33:33.841Z</time></trkpt><trkpt lat="45.60612" lon="10.80794"><ele>264.75</ele><time>2026-03-28T12:33:34.841Z</time></trkpt><trkpt lat="45.6061717" lon="10.80813"><ele>265.5</ele><time>2026-03-28T12:33:35.842Z</time></trkpt><trkpt lat="45.60621" lon="10.8083117"><ele>266.25</ele><time>2026-03-28T12:33:36.841Z</time></trkpt><trkpt lat="45.6062467" lon="10.8084917"><ele>267.0</ele><time>2026-03-28T12:33:37.841Z</time></trkpt><trkpt lat="45.60628" lon="10.808635"><ele>267.0</ele><time>2026-03-28T12:33:38.842Z</time></trkpt><trkpt lat="45.606335" lon="10.8087517"><ele>267.0</ele><time>2026-03-28T12:33:39.841Z</time></trkpt><trkpt lat="45.6064" lon="10.8088733"><ele>267.0</ele><time>2026-03-28T12:33:40.842Z</time></trkpt><trkpt lat="45.6064783" lon="10.8089817"><ele>267.0</ele><time>2026-03-28T12:33:41.841Z</time></trkpt><trkpt lat="45.606565" lon="10.8090917"><ele>267.0</ele><time>2026-03-28T12:33:42.842Z</time></trkpt><trkpt lat="45.6066633" lon="10.8091883"><ele>267.0</ele><time>2026-03-28T12:33:43.841Z</time></trkpt><trkpt lat="45.6067483" lon="10.80927"><ele>267.0</ele><time>2026-03-28T12:33:44.841Z</time></trkpt><trkpt lat="45.6068167" lon="10.8093567"><ele>267.0</ele><time>2026-03-28T12:33:45.841Z</time></trkpt><trkpt lat="45.6068767" lon="10.8094467"><ele>267.0</ele><time>2026-03-28T12:33:46.841Z</time></trkpt><trkpt lat="45.606935" lon="10.80954"><ele>267.0</ele><time>2026-03-28T12:33:47.842Z</time></trkpt><trkpt lat="45.6069867" lon="10.8096233"><ele>267.0</ele><time>2026-03-28T12:33:48.842Z</time></trkpt><trkpt lat="45.607045" lon="10.80975"><ele>267.0</ele><time>2026-03-28T12:33:50.841Z</time></trkpt><trkpt lat="45.6070033" lon="10.8098617"><ele>267.0</ele><time>2026-03-28T12:33:55.841Z</time></trkpt><trkpt lat="45.6069017" lon="10.8099217"><ele>267.0</ele><time>2026-03-28T12:33:57.842Z</time></trkpt><trkpt lat="45.6068183" lon="10.8099617"><ele>267.0</ele><time>2026-03-28T12:33:58.841Z</time></trkpt><trkpt lat="45.6067367" lon="10.8100083"><ele>267.0</ele><time>2026-03-28T12:33:59.842Z</time></trkpt><trkpt lat="45.6066567" lon="10.8100583"><ele>267.0</ele><time>2026-03-28T12:34:00.841Z</time></trkpt><trkpt lat="45.6065883" lon="10.8101117"><ele>267.0</ele><time>2026-03-28T12:34:01.841Z</time></trkpt><trkpt lat="45.6065317" lon="10.810165"><ele>267.0</ele><time>2026-03-28T12:34:02.841Z</time></trkpt><trkpt lat="45.60646" lon="10.810245"><ele>267.0</ele><time>2026-03-28T12:34:04.842Z</time></trkpt><trkpt lat="45.6064017" lon="10.81038"><ele>267.0</ele><time>2026-03-28T12:34:06.841Z</time></trkpt><trkpt lat="45.6063633" lon="10.81046"><ele>267.0</ele><time>2026-03-28T12:34:07.841Z</time></trkpt><trkpt lat="45.6063267" lon="10.8105583"><ele>267.2</ele><time>2026-03-28T12:34:08.841Z</time></trkpt><trkpt lat="45.6062883" lon="10.8106483"><ele>267.4</ele><time>2026-03-28T12:34:09.841Z</time></trkpt><trkpt lat="45.6062367" lon="10.8107667"><ele>267.6</ele><time>2026-03-28T12:34:10.842Z</time></trkpt><trkpt lat="45.6061733" lon="10.8108917"><ele>267.8</ele><time>2026-03-28T12:34:11.841Z</time></trkpt><trkpt lat="45.606105" lon="10.8110233"><ele>268.0</ele><time>2026-03-28T12:34:12.842Z</time></trkpt><trkpt lat="45.606025" lon="10.8111583"><ele>268.25</ele><time>2026-03-28T12:34:13.842Z</time></trkpt><trkpt lat="45.605945" lon="10.811295"><ele>268.5</ele><time>2026-03-28T12:34:14.842Z</time></trkpt><trkpt lat="45.6058517" lon="10.8114333"><ele>268.75</ele><time>2026-03-28T12:34:15.841Z</time></trkpt><trkpt lat="45.6057683" lon="10.8115567"><ele>269.0</ele><time>2026-03-28T12:34:16.841Z</time></trkpt><trkpt lat="45.6057" lon="10.8116767"><ele>269.0</ele><time>2026-03-28T12:34:17.841Z</time></trkpt><trkpt lat="45.6056533" lon="10.8117967"><ele>269.0</ele><time>2026-03-28T12:34:18.841Z</time></trkpt><trkpt lat="45.6056233" lon="10.81192"><ele>269.0</ele><time>2026-03-28T12:34:19.841Z</time></trkpt><trkpt lat="45.6056033" lon="10.8120583"><ele>269.0</ele><time>2026-03-28T12:34:20.841Z</time></trkpt><trkpt lat="45.6055817" lon="10.8121833"><ele>269.0</ele><time>2026-03-28T12:34:21.842Z</time></trkpt><trkpt lat="45.605555" lon="10.8123083"><ele>269.2</ele><time>2026-03-28T12:34:22.841Z</time></trkpt><trkpt lat="45.6055333" lon="10.8124567"><ele>269.4</ele><time>2026-03-28T12:34:24.842Z</time></trkpt><trkpt lat="45.6054983" lon="10.812545"><ele>269.6</ele><time>2026-03-28T12:34:26.842Z</time></trkpt><trkpt lat="45.6054483" lon="10.8126267"><ele>269.8</ele><time>2026-03-28T12:34:28.841Z</time></trkpt><trkpt lat="45.6053733" lon="10.812695"><ele>270.0</ele><time>2026-03-28T12:34:30.841Z</time></trkpt><trkpt lat="45.6053033" lon="10.8128533"><ele>269.5</ele><time>2026-03-28T12:34:32.841Z</time></trkpt><trkpt lat="45.6052467" lon="10.8129867"><ele>269.0</ele><time>2026-03-28T12:34:33.841Z</time></trkpt><trkpt lat="45.6051883" lon="10.8131433"><ele>268.5</ele><time>2026-03-28T12:34:34.841Z</time></trkpt><trkpt lat="45.6051367" lon="10.8132967"><ele>268.0</ele><time>2026-03-28T12:34:35.841Z</time></trkpt><trkpt lat="45.6050983" lon="10.81345"><ele>268.0</ele><time>2026-03-28T12:34:36.841Z</time></trkpt><trkpt lat="45.60506" lon="10.81359"><ele>268.0</ele><time>2026-03-28T12:34:37.841Z</time></trkpt><trkpt lat="45.6050267" lon="10.81372"><ele>268.0</ele><time>2026-03-28T12:34:38.842Z</time></trkpt><trkpt lat="45.6049883" lon="10.81386"><ele>268.0</ele><time>2026-03-28T12:34:39.842Z</time></trkpt><trkpt lat="45.6049517" lon="10.8139983"><ele>268.0</ele><time>2026-03-28T12:34:40.841Z</time></trkpt><trkpt lat="45.604925" lon="10.81413"><ele>268.0</ele><time>2026-03-28T12:34:41.841Z</time></trkpt><trkpt lat="45.6048933" lon="10.8142733"><ele>268.0</ele><time>2026-03-28T12:34:42.841Z</time></trkpt><trkpt lat="45.6048583" lon="10.8144083"><ele>268.0</ele><time>2026-03-28T12:34:43.842Z</time></trkpt><trkpt lat="45.6048217" lon="10.8145467"><ele>268.0</ele><time>2026-03-28T12:34:44.842Z</time></trkpt><trkpt lat="45.604795" lon="10.8146967"><ele>268.0</ele><time>2026-03-28T12:34:45.841Z</time></trkpt><trkpt lat="45.60477" lon="10.8148567"><ele>268.2</ele><time>2026-03-28T12:34:46.842Z</time></trkpt><trkpt lat="45.6047417" lon="10.8149933"><ele>268.4</ele><time>2026-03-28T12:34:47.84Z</time></trkpt><trkpt lat="45.604715" lon="10.8151283"><ele>268.59999999999997</ele><time>2026-03-28T12:34:48.841Z</time></trkpt><trkpt lat="45.6046883" lon="10.815265"><ele>268.8</ele><time>2026-03-28T12:34:49.841Z</time></trkpt><trkpt lat="45.6046683" lon="10.815395"><ele>269.0</ele><time>2026-03-28T12:34:50.841Z</time></trkpt><trkpt lat="45.6046517" lon="10.8155183"><ele>269.0</ele><time>2026-03-28T12:34:51.84Z</time></trkpt><trkpt lat="45.60464" lon="10.8156317"><ele>269.0</ele><time>2026-03-28T12:34:52.84Z</time></trkpt><trkpt lat="45.6046367" lon="10.8157267"><ele>269.0</ele><time>2026-03-28T12:34:53.841Z</time></trkpt><trkpt lat="45.6046167" lon="10.8158783"><ele>269.0</ele><time>2026-03-28T12:34:55.841Z</time></trkpt><trkpt lat="45.6046283" lon="10.8159917"><ele>269.0</ele><time>2026-03-28T12:35:00.841Z</time></trkpt><trkpt lat="45.604675" lon="10.8160917"><ele>269.0</ele><time>2026-03-28T12:35:02.841Z</time></trkpt><trkpt lat="45.6046717" lon="10.8162167"><ele>269.0</ele><time>2026-03-28T12:35:04.84Z</time></trkpt><trkpt lat="45.6046683" lon="10.8163067"><ele>269.0</ele><time>2026-03-28T12:35:05.84Z</time></trkpt><trkpt lat="45.6046667" lon="10.8164233"><ele>269.0</ele><time>2026-03-28T12:35:06.84Z</time></trkpt><trkpt lat="45.60467" lon="10.816565"><ele>269.0</ele><time>2026-03-28T12:35:07.841Z</time></trkpt><trkpt lat="45.6046733" lon="10.816735"><ele>269.0</ele><time>2026-03-28T12:35:08.84Z</time></trkpt><trkpt lat="45.60469" lon="10.8169067"><ele>270.0</ele><time>2026-03-28T12:35:09.84Z</time></trkpt><trkpt lat="45.604715" lon="10.8170733"><ele>271.0</ele><time>2026-03-28T12:35:10.84Z</time></trkpt><trkpt lat="45.6047467" lon="10.8172467"><ele>272.0</ele><time>2026-03-28T12:35:11.84Z</time></trkpt><trkpt lat="45.6047767" lon="10.8174117"><ele>273.0</ele><time>2026-03-28T12:35:12.841Z</time></trkpt><trkpt lat="45.6048" lon="10.8175583"><ele>273.25</ele><time>2026-03-28T12:35:13.84Z</time></trkpt><trkpt lat="45.6048017" lon="10.81772"><ele>273.5</ele><time>2026-03-28T12:35:14.84Z</time></trkpt><trkpt lat="45.6047733" lon="10.817885"><ele>273.75</ele><time>2026-03-28T12:35:15.841Z</time></trkpt><trkpt lat="45.604725" lon="10.8180467"><ele>274.0</ele><time>2026-03-28T12:35:16.84Z</time></trkpt><trkpt lat="45.6046617" lon="10.8182033"><ele>274.0</ele><time>2026-03-28T12:35:17.84Z</time></trkpt><trkpt lat="45.6045883" lon="10.818365"><ele>274.0</ele><time>2026-03-28T12:35:18.84Z</time></trkpt><trkpt lat="45.6045233" lon="10.8185217"><ele>274.0</ele><time>2026-03-28T12:35:19.84Z</time></trkpt><trkpt lat="45.6044583" lon="10.8186967"><ele>274.0</ele><time>2026-03-28T12:35:20.841Z</time></trkpt><trkpt lat="45.60442" lon="10.8188633"><ele>273.4</ele><time>2026-03-28T12:35:21.841Z</time></trkpt><trkpt lat="45.6043767" lon="10.8190233"><ele>272.79999999999995</ele><time>2026-03-28T12:35:22.841Z</time></trkpt><trkpt lat="45.6043317" lon="10.8191567"><ele>272.20000000000005</ele><time>2026-03-28T12:35:23.84Z</time></trkpt><trkpt lat="45.6042617" lon="10.8192333"><ele>271.6</ele><time>2026-03-28T12:35:24.841Z</time></trkpt><trkpt lat="45.6041967" lon="10.81928"><ele>271.0</ele><time>2026-03-28T12:35:25.84Z</time></trkpt><trkpt lat="45.604115" lon="10.8192717"><ele>271.0</ele><time>2026-03-28T12:35:26.841Z</time></trkpt><trkpt lat="45.60404" lon="10.81923"><ele>271.0</ele><time>2026-03-28T12:35:27.84Z</time></trkpt><trkpt lat="45.6039667" lon="10.8191817"><ele>271.0</ele><time>2026-03-28T12:35:28.841Z</time></trkpt><trkpt lat="45.6038517" lon="10.81915"><ele>271.0</ele><time>2026-03-28T12:35:30.84Z</time></trkpt><trkpt lat="45.60379" lon="10.8192067"><ele>271.0</ele><time>2026-03-28T12:35:31.841Z</time></trkpt><trkpt lat="45.6037167" lon="10.8192933"><ele>271.0</ele><time>2026-03-28T12:35:32.84Z</time></trkpt><trkpt lat="45.6036317" lon="10.81942"><ele>270.66666666666663</ele><time>2026-03-28T12:35:33.84Z</time></trkpt><trkpt lat="45.6035183" lon="10.8195717"><ele>270.3333333333333</ele><time>2026-03-28T12:35:34.841Z</time></trkpt><trkpt lat="45.60338" lon="10.81973"><ele>270.0</ele><time>2026-03-28T12:35:35.841Z</time></trkpt><trkpt lat="45.6032333" lon="10.8199033"><ele>270.0</ele><time>2026-03-28T12:35:36.84Z</time></trkpt><trkpt lat="45.6030833" lon="10.8200883"><ele>270.0</ele><time>2026-03-28T12:35:37.84Z</time></trkpt><trkpt lat="45.602925" lon="10.8202667"><ele>270.0</ele><time>2026-03-28T12:35:38.841Z</time></trkpt><trkpt lat="45.6027583" lon="10.8204367"><ele>270.0</ele><time>2026-03-28T12:35:39.841Z</time></trkpt><trkpt lat="45.602615" lon="10.820595"><ele>270.0</ele><time>2026-03-28T12:35:40.841Z</time></trkpt><trkpt lat="45.6024917" lon="10.82076"><ele>270.0</ele><time>2026-03-28T12:35:41.841Z</time></trkpt><trkpt lat="45.60236" lon="10.8209067"><ele>269.6666666666667</ele><time>2026-03-28T12:35:42.84Z</time></trkpt><trkpt lat="45.6022267" lon="10.821075"><ele>269.33333333333337</ele><time>2026-03-28T12:35:43.84Z</time></trkpt><trkpt lat="45.602105" lon="10.821225"><ele>269.0</ele><time>2026-03-28T12:35:44.841Z</time></trkpt><trkpt lat="45.6019883" lon="10.8213633"><ele>269.0</ele><time>2026-03-28T12:35:45.841Z</time></trkpt><trkpt lat="45.6018733" lon="10.82149"><ele>269.0</ele><time>2026-03-28T12:35:46.841Z</time></trkpt><trkpt lat="45.601765" lon="10.821605"><ele>269.0</ele><time>2026-03-28T12:35:47.841Z</time></trkpt><trkpt lat="45.60167" lon="10.821715"><ele>269.0</ele><time>2026-03-28T12:35:48.84Z</time></trkpt><trkpt lat="45.6015967" lon="10.8218067"><ele>270.0</ele><time>2026-03-28T12:35:49.841Z</time></trkpt><trkpt lat="45.6015433" lon="10.82189"><ele>271.0</ele><time>2026-03-28T12:35:50.84Z</time></trkpt><trkpt lat="45.601495" lon="10.8220217"><ele>272.0</ele><time>2026-03-28T12:35:52.841Z</time></trkpt><trkpt lat="45.6015317" lon="10.822165"><ele>273.0</ele><time>2026-03-28T12:35:54.841Z</time></trkpt><trkpt lat="45.6015867" lon="10.8222583"><ele>274.0</ele><time>2026-03-28T12:35:55.841Z</time></trkpt><trkpt lat="45.6016417" lon="10.8223683"><ele>274.0</ele><time>2026-03-28T12:35:56.84Z</time></trkpt><trkpt lat="45.6017217" lon="10.8225033"><ele>274.0</ele><time>2026-03-28T12:35:57.84Z</time></trkpt><trkpt lat="45.6018083" lon="10.8226617"><ele>274.0</ele><time>2026-03-28T12:35:58.84Z</time></trkpt><trkpt lat="45.6018867" lon="10.8228017"><ele>274.0</ele><time>2026-03-28T12:35:59.841Z</time></trkpt><trkpt lat="45.60195" lon="10.822905"><ele>275.16666666666663</ele><time>2026-03-28T12:36:00.84Z</time></trkpt><trkpt lat="45.6020017" lon="10.8229717"><ele>276.3333333333333</ele><time>2026-03-28T12:36:01.84Z</time></trkpt><trkpt lat="45.60211" lon="10.8229783"><ele>277.5</ele><time>2026-03-28T12:36:03.841Z</time></trkpt><trkpt lat="45.6021717" lon="10.822955"><ele>278.6666666666667</ele><time>2026-03-28T12:36:04.84Z</time></trkpt><trkpt lat="45.6022467" lon="10.8229083"><ele>279.83333333333337</ele><time>2026-03-28T12:36:05.84Z</time></trkpt><trkpt lat="45.6023367" lon="10.8228367"><ele>281.0</ele><time>2026-03-28T12:36:06.841Z</time></trkpt><trkpt lat="45.6024433" lon="10.8227533"><ele>281.0</ele><time>2026-03-28T12:36:07.841Z</time></trkpt><trkpt lat="45.6025567" lon="10.8226667"><ele>281.0</ele><time>2026-03-28T12:36:08.84Z</time></trkpt><trkpt lat="45.602655" lon="10.8225867"><ele>281.0</ele><time>2026-03-28T12:36:09.84Z</time></trkpt><trkpt lat="45.6027617" lon="10.822515"><ele>281.0</ele><time>2026-03-28T12:36:10.84Z</time></trkpt><trkpt lat="45.6028683" lon="10.82245"><ele>280.25</ele><time>2026-03-28T12:36:11.84Z</time></trkpt><trkpt lat="45.6029767" lon="10.822385"><ele>279.5</ele><time>2026-03-28T12:36:12.841Z</time></trkpt><trkpt lat="45.6030883" lon="10.8223283"><ele>278.75</ele><time>2026-03-28T12:36:13.841Z</time></trkpt><trkpt lat="45.6032" lon="10.8222733"><ele>278.0</ele><time>2026-03-28T12:36:14.84Z</time></trkpt><trkpt lat="45.6033017" lon="10.8222333"><ele>278.0</ele><time>2026-03-28T12:36:15.841Z</time></trkpt><trkpt lat="45.6034067" lon="10.8222067"><ele>278.0</ele><time>2026-03-28T12:36:16.841Z</time></trkpt><trkpt lat="45.6035233" lon="10.8221783"><ele>278.0</ele><time>2026-03-28T12:36:17.84Z</time></trkpt><trkpt lat="45.603635" lon="10.82216"><ele>278.0</ele><time>2026-03-28T12:36:18.84Z</time></trkpt><trkpt lat="45.603725" lon="10.8221367"><ele>278.0</ele><time>2026-03-28T12:36:19.84Z</time></trkpt><trkpt lat="45.6038133" lon="10.8221033"><ele>279.0</ele><time>2026-03-28T12:36:20.84Z</time></trkpt><trkpt lat="45.60389" lon="10.8220883"><ele>280.0</ele><time>2026-03-28T12:36:21.841Z</time></trkpt><trkpt lat="45.603965" lon="10.8220767"><ele>281.0</ele><time>2026-03-28T12:36:22.841Z</time></trkpt><trkpt lat="45.6040567" lon="10.8220933"><ele>282.0</ele><time>2026-03-28T12:36:23.84Z</time></trkpt><trkpt lat="45.6041467" lon="10.8221183"><ele>283.0</ele><time>2026-03-28T12:36:24.84Z</time></trkpt><trkpt lat="45.6042333" lon="10.822105"><ele>284.0</ele><time>2026-03-28T12:36:25.841Z</time></trkpt><trkpt lat="45.6043017" lon="10.8220683"><ele>284.0</ele><time>2026-03-28T12:36:26.841Z</time></trkpt><trkpt lat="45.6043683" lon="10.8220267"><ele>284.0</ele><time>2026-03-28T12:36:27.841Z</time></trkpt><trkpt lat="45.6044483" lon="10.8219383"><ele>284.0</ele><time>2026-03-28T12:36:29.84Z</time></trkpt><trkpt lat="45.604545" lon="10.8218667"><ele>284.0</ele><time>2026-03-28T12:36:31.84Z</time></trkpt><trkpt lat="45.6046633" lon="10.821805"><ele>284.0</ele><time>2026-03-28T12:36:33.841Z</time></trkpt><trkpt lat="45.6047333" lon="10.821775"><ele>285.7142857142857</ele><time>2026-03-28T12:36:34.841Z</time></trkpt><trkpt lat="45.6048" lon="10.8217683"><ele>287.4285714285714</ele><time>2026-03-28T12:36:35.84Z</time></trkpt><trkpt lat="45.60487" lon="10.8217717"><ele>289.1428571428571</ele><time>2026-03-28T12:36:36.841Z</time></trkpt><trkpt lat="45.60494" lon="10.8217733"><ele>290.85714285714283</ele><time>2026-03-28T12:36:37.841Z</time></trkpt><trkpt lat="45.6050083" lon="10.82179"><ele>292.57142857142856</ele><time>2026-03-28T12:36:38.84Z</time></trkpt><trkpt lat="45.60508" lon="10.8218017"><ele>294.2857142857143</ele><time>2026-03-28T12:36:39.841Z</time></trkpt><trkpt lat="45.6051433" lon="10.82178"><ele>296.0</ele><time>2026-03-28T12:36:40.84Z</time></trkpt><trkpt lat="45.605205" lon="10.82173"><ele>296.0</ele><time>2026-03-28T12:36:41.84Z</time></trkpt><trkpt lat="45.6052533" lon="10.821645"><ele>296.0</ele><time>2026-03-28T12:36:42.84Z</time></trkpt><trkpt lat="45.6052867" lon="10.821555"><ele>296.0</ele><time>2026-03-28T12:36:43.84Z</time></trkpt><trkpt lat="45.60533" lon="10.821465"><ele>296.0</ele><time>2026-03-28T12:36:45.84Z</time></trkpt><trkpt lat="45.605345" lon="10.8216067"><ele>296.0</ele><time>2026-03-28T12:36:54.841Z</time></trkpt><trkpt lat="45.6053517" lon="10.82188"><ele>299.25</ele><time>2026-03-28T12:36:56.841Z</time></trkpt><trkpt lat="45.605355" lon="10.8220533"><ele>302.5</ele><time>2026-03-28T12:36:57.84Z</time></trkpt><trkpt lat="45.6053567" lon="10.8222583"><ele>305.75</ele><time>2026-03-28T12:36:58.84Z</time></trkpt><trkpt lat="45.605375" lon="10.8224733"><ele>309.0</ele><time>2026-03-28T12:36:59.841Z</time></trkpt><trkpt lat="45.6053733" lon="10.8226967"><ele>309.3333333333333</ele><time>2026-03-28T12:37:00.841Z</time></trkpt><trkpt lat="45.6053883" lon="10.8229217"><ele>309.66666666666663</ele><time>2026-03-28T12:37:01.84Z</time></trkpt><trkpt lat="45.6054117" lon="10.823145"><ele>310.0</ele><time>2026-03-28T12:37:02.84Z</time></trkpt><trkpt lat="45.605425" lon="10.82338"><ele>309.3333333333333</ele><time>2026-03-28T12:37:03.84Z</time></trkpt><trkpt lat="45.6054183" lon="10.823615"><ele>308.6666666666667</ele><time>2026-03-28T12:37:04.841Z</time></trkpt><trkpt lat="45.60543" lon="10.8238417"><ele>308.0</ele><time>2026-03-28T12:37:05.84Z</time></trkpt><trkpt lat="45.605445" lon="10.8240617"><ele>308.0</ele><time>2026-03-28T12:37:06.841Z</time></trkpt><trkpt lat="45.605455" lon="10.82427"><ele>308.0</ele><time>2026-03-28T12:37:07.84Z</time></trkpt><trkpt lat="45.6054317" lon="10.8244367"><ele>308.0</ele><time>2026-03-28T12:37:08.84Z</time></trkpt><trkpt lat="45.6053933" lon="10.8245717"><ele>308.0</ele><time>2026-03-28T12:37:09.84Z</time></trkpt><trkpt lat="45.6053117" lon="10.824675"><ele>306.0</ele><time>2026-03-28T12:37:10.84Z</time></trkpt><trkpt lat="45.6052033" lon="10.824775"><ele>304.0</ele><time>2026-03-28T12:37:11.84Z</time></trkpt><trkpt lat="45.6050883" lon="10.8248517"><ele>302.0</ele><time>2026-03-28T12:37:12.841Z</time></trkpt><trkpt lat="45.6049733" lon="10.8249"><ele>300.0</ele><time>2026-03-28T12:37:13.84Z</time></trkpt><trkpt lat="45.6048433" lon="10.824945"><ele>300.0</ele><time>2026-03-28T12:37:14.84Z</time></trkpt><trkpt lat="45.60473" lon="10.8249933"><ele>300.0</ele><time>2026-03-28T12:37:15.841Z</time></trkpt><trkpt lat="45.6046517" lon="10.82509"><ele>300.0</ele><time>2026-03-28T12:37:16.84Z</time></trkpt><trkpt lat="45.60459" lon="10.825225"><ele>300.0</ele><time>2026-03-28T12:37:17.84Z</time></trkpt><trkpt lat="45.60455" lon="10.8253783"><ele>300.0</ele><time>2026-03-28T12:37:18.84Z</time></trkpt><trkpt lat="45.60451" lon="10.8255417"><ele>300.0</ele><time>2026-03-28T12:37:19.841Z</time></trkpt><trkpt lat="45.6044667" lon="10.8257017"><ele>300.0</ele><time>2026-03-28T12:37:20.84Z</time></trkpt><trkpt lat="45.6044033" lon="10.825855"><ele>300.0</ele><time>2026-03-28T12:37:21.841Z</time></trkpt><trkpt lat="45.6043183" lon="10.8259683"><ele>300.0</ele><time>2026-03-28T12:37:22.841Z</time></trkpt><trkpt lat="45.604205" lon="10.8260533"><ele>301.0</ele><time>2026-03-28T12:37:23.841Z</time></trkpt><trkpt lat="45.6040867" lon="10.8261283"><ele>302.0</ele><time>2026-03-28T12:37:24.841Z</time></trkpt><trkpt lat="45.6039633" lon="10.82622"><ele>303.0</ele><time>2026-03-28T12:37:25.84Z</time></trkpt><trkpt lat="45.6038433" lon="10.826305"><ele>304.0</ele><time>2026-03-28T12:37:26.84Z</time></trkpt><trkpt lat="45.6037167" lon="10.8263767"><ele>303.75</ele><time>2026-03-28T12:37:27.84Z</time></trkpt><trkpt lat="45.6035917" lon="10.82645"><ele>303.5</ele><time>2026-03-28T12:37:28.841Z</time></trkpt><trkpt lat="45.603475" lon="10.8265067"><ele>303.25</ele><time>2026-03-28T12:37:29.84Z</time></trkpt><trkpt lat="45.60336" lon="10.8265583"><ele>303.0</ele><time>2026-03-28T12:37:30.84Z</time></trkpt><trkpt lat="45.603255" lon="10.8266067"><ele>303.0</ele><time>2026-03-28T12:37:31.841Z</time></trkpt><trkpt lat="45.6031633" lon="10.8266367"><ele>303.0</ele><time>2026-03-28T12:37:32.84Z</time></trkpt><trkpt lat="45.6030817" lon="10.8266467"><ele>303.0</ele><time>2026-03-28T12:37:33.841Z</time></trkpt><trkpt lat="45.6030033" lon="10.826695"><ele>303.0</ele><time>2026-03-28T12:37:35.841Z</time></trkpt><trkpt lat="45.6030233" lon="10.8268033"><ele>303.0</ele><time>2026-03-28T12:37:37.841Z</time></trkpt><trkpt lat="45.6031133" lon="10.8269283"><ele>306.25</ele><time>2026-03-28T12:37:39.84Z</time></trkpt><trkpt lat="45.6031867" lon="10.8270117"><ele>309.5</ele><time>2026-03-28T12:37:40.84Z</time></trkpt><trkpt lat="45.6032883" lon="10.8270667"><ele>312.75</ele><time>2026-03-28T12:37:41.841Z</time></trkpt><trkpt lat="45.6034117" lon="10.8271167"><ele>316.0</ele><time>2026-03-28T12:37:42.841Z</time></trkpt><trkpt lat="45.6035367" lon="10.8271967"><ele>316.0</ele><time>2026-03-28T12:37:43.841Z</time></trkpt><trkpt lat="45.6036633" lon="10.8272683"><ele>316.0</ele><time>2026-03-28T12:37:44.84Z</time></trkpt><trkpt lat="45.6037967" lon="10.8272983"><ele>316.0</ele><time>2026-03-28T12:37:45.84Z</time></trkpt><trkpt lat="45.6039217" lon="10.827315"><ele>316.0</ele><time>2026-03-28T12:37:46.841Z</time></trkpt><trkpt lat="45.6040217" lon="10.8273167"><ele>315.8333333333333</ele><time>2026-03-28T12:37:47.841Z</time></trkpt><trkpt lat="45.604115" lon="10.8272983"><ele>315.66666666666663</ele><time>2026-03-28T12:37:48.84Z</time></trkpt><trkpt lat="45.6041883" lon="10.827275"><ele>315.5</ele><time>2026-03-28T12:37:49.84Z</time></trkpt><trkpt lat="45.60426" lon="10.8272433"><ele>315.3333333333333</ele><time>2026-03-28T12:37:50.841Z</time></trkpt><trkpt lat="45.60434" lon="10.8271833"><ele>315.1666666666667</ele><time>2026-03-28T12:37:51.84Z</time></trkpt><trkpt lat="45.6044217" lon="10.8270867"><ele>315.0</ele><time>2026-03-28T12:37:52.841Z</time></trkpt><trkpt lat="45.6045033" lon="10.8269717"><ele>314.4</ele><time>2026-03-28T12:37:53.84Z</time></trkpt><trkpt lat="45.6045783" lon="10.8268533"><ele>313.8</ele><time>2026-03-28T12:37:54.841Z</time></trkpt><trkpt lat="45.6046467" lon="10.8267383"><ele>313.2</ele><time>2026-03-28T12:37:55.841Z</time></trkpt><trkpt lat="45.604705" lon="10.8266417"><ele>312.6</ele><time>2026-03-28T12:37:56.84Z</time></trkpt><trkpt lat="45.6047533" lon="10.826565"><ele>312.0</ele><time>2026-03-28T12:37:57.841Z</time></trkpt><trkpt lat="45.60483" lon="10.8264883"><ele>312.0</ele><time>2026-03-28T12:37:59.84Z</time></trkpt><trkpt lat="45.6049667" lon="10.82647"><ele>312.0</ele><time>2026-03-28T12:38:01.84Z</time></trkpt><trkpt lat="45.60504" lon="10.826475"><ele>312.0</ele><time>2026-03-28T12:38:02.841Z</time></trkpt><trkpt lat="45.60511" lon="10.82647"><ele>312.0</ele><time>2026-03-28T12:38:03.841Z</time></trkpt><trkpt lat="45.605175" lon="10.826415"><ele>312.0</ele><time>2026-03-28T12:38:04.84Z</time></trkpt><trkpt lat="45.6052417" lon="10.826315"><ele>312.0</ele><time>2026-03-28T12:38:05.841Z</time></trkpt><trkpt lat="45.6053033" lon="10.82621"><ele>312.0</ele><time>2026-03-28T12:38:06.841Z</time></trkpt><trkpt lat="45.6053767" lon="10.8261067"><ele>312.0</ele><time>2026-03-28T12:38:07.84Z</time></trkpt><trkpt lat="45.6054467" lon="10.8260283"><ele>312.0</ele><time>2026-03-28T12:38:08.841Z</time></trkpt><trkpt lat="45.60552" lon="10.825995"><ele>312.0</ele><time>2026-03-28T12:38:09.841Z</time></trkpt><trkpt lat="45.6056017" lon="10.8259767"><ele>312.0</ele><time>2026-03-28T12:38:10.841Z</time></trkpt><trkpt lat="45.60568" lon="10.826"><ele>313.8</ele><time>2026-03-28T12:38:11.84Z</time></trkpt><trkpt lat="45.6057583" lon="10.8260117"><ele>315.6</ele><time>2026-03-28T12:38:12.84Z</time></trkpt><trkpt lat="45.60582" lon="10.82605"><ele>317.40000000000003</ele><time>2026-03-28T12:38:13.84Z</time></trkpt><trkpt lat="45.605895" lon="10.8261217"><ele>319.2</ele><time>2026-03-28T12:38:14.84Z</time></trkpt><trkpt lat="45.6059917" lon="10.8262133"><ele>321.0</ele><time>2026-03-28T12:38:15.84Z</time></trkpt><trkpt lat="45.6061067" lon="10.82629"><ele>322.3333333333333</ele><time>2026-03-28T12:38:16.841Z</time></trkpt><trkpt lat="45.60624" lon="10.8263633"><ele>323.66666666666663</ele><time>2026-03-28T12:38:17.84Z</time></trkpt><trkpt lat="45.6063883" lon="10.826445"><ele>325.0</ele><time>2026-03-28T12:38:18.84Z</time></trkpt><trkpt lat="45.6065417" lon="10.8265283"><ele>325.0</ele><time>2026-03-28T12:38:19.84Z</time></trkpt><trkpt lat="45.6066917" lon="10.826615"><ele>325.0</ele><time>2026-03-28T12:38:20.841Z</time></trkpt><trkpt lat="45.6068483" lon="10.82671"><ele>325.0</ele><time>2026-03-28T12:38:21.841Z</time></trkpt><trkpt lat="45.6069983" lon="10.8268033"><ele>328.0</ele><time>2026-03-28T12:38:22.841Z</time></trkpt><trkpt lat="45.6071433" lon="10.82689"><ele>331.0</ele><time>2026-03-28T12:38:23.841Z</time></trkpt><trkpt lat="45.60728" lon="10.8269783"><ele>334.0</ele><time>2026-03-28T12:38:24.84Z</time></trkpt><trkpt lat="45.6074117" lon="10.8270317"><ele>337.0</ele><time>2026-03-28T12:38:25.841Z</time></trkpt><trkpt lat="45.6075533" lon="10.827065"><ele>337.0</ele><time>2026-03-28T12:38:26.84Z</time></trkpt><trkpt lat="45.6077" lon="10.8270667"><ele>337.0</ele><time>2026-03-28T12:38:27.84Z</time></trkpt><trkpt lat="45.607835" lon="10.827095"><ele>337.0</ele><time>2026-03-28T12:38:28.84Z</time></trkpt><trkpt lat="45.6079667" lon="10.8271183"><ele>337.0</ele><time>2026-03-28T12:38:29.841Z</time></trkpt><trkpt lat="45.6080767" lon="10.827145"><ele>336.66666666666663</ele><time>2026-03-28T12:38:30.84Z</time></trkpt><trkpt lat="45.608165" lon="10.8271683"><ele>336.3333333333333</ele><time>2026-03-28T12:38:31.841Z</time></trkpt><trkpt lat="45.608235" lon="10.8272"><ele>336.0</ele><time>2026-03-28T12:38:32.84Z</time></trkpt><trkpt lat="45.6083333" lon="10.8272317"><ele>335.6666666666667</ele><time>2026-03-28T12:38:34.84Z</time></trkpt><trkpt lat="45.6084183" lon="10.827185"><ele>335.33333333333337</ele><time>2026-03-28T12:38:36.841Z</time></trkpt><trkpt lat="45.608465" lon="10.827095"><ele>335.0</ele><time>2026-03-28T12:38:37.84Z</time></trkpt><trkpt lat="45.60851" lon="10.8269767"><ele>335.0</ele><time>2026-03-28T12:38:38.841Z</time></trkpt><trkpt lat="45.6085583" lon="10.8268333"><ele>335.0</ele><time>2026-03-28T12:38:39.841Z</time></trkpt><trkpt lat="45.6085867" lon="10.8266533"><ele>335.0</ele><time>2026-03-28T12:38:40.84Z</time></trkpt><trkpt lat="45.6085967" lon="10.826455"><ele>335.0</ele><time>2026-03-28T12:38:41.84Z</time></trkpt><trkpt lat="45.6085917" lon="10.8262583"><ele>333.5</ele><time>2026-03-28T12:38:42.84Z</time></trkpt><trkpt lat="45.6085817" lon="10.8260733"><ele>332.0</ele><time>2026-03-28T12:38:43.841Z</time></trkpt><trkpt lat="45.6085783" lon="10.8259033"><ele>330.5</ele><time>2026-03-28T12:38:44.84Z</time></trkpt><trkpt lat="45.6085833" lon="10.8257383"><ele>329.0</ele><time>2026-03-28T12:38:45.84Z</time></trkpt><trkpt lat="45.608595" lon="10.8255683"><ele>329.0</ele><time>2026-03-28T12:38:46.841Z</time></trkpt><trkpt lat="45.6086167" lon="10.8253933"><ele>329.0</ele><time>2026-03-28T12:38:47.84Z</time></trkpt><trkpt lat="45.6086433" lon="10.8252333"><ele>329.0</ele><time>2026-03-28T12:38:48.841Z</time></trkpt><trkpt lat="45.6086617" lon="10.82509"><ele>329.0</ele><time>2026-03-28T12:38:49.84Z</time></trkpt><trkpt lat="45.6086733" lon="10.8249517"><ele>329.0</ele><time>2026-03-28T12:38:50.841Z</time></trkpt><trkpt lat="45.6086783" lon="10.8248133"><ele>329.25</ele><time>2026-03-28T12:38:51.841Z</time></trkpt><trkpt lat="45.608665" lon="10.8246567"><ele>329.5</ele><time>2026-03-28T12:38:52.841Z</time></trkpt><trkpt lat="45.6086183" lon="10.82449"><ele>329.75</ele><time>2026-03-28T12:38:53.841Z</time></trkpt><trkpt lat="45.608565" lon="10.8243417"><ele>330.0</ele><time>2026-03-28T12:38:54.841Z</time></trkpt><trkpt lat="45.608495" lon="10.8242183"><ele>328.75</ele><time>2026-03-28T12:38:55.84Z</time></trkpt><trkpt lat="45.6084233" lon="10.82407"><ele>327.5</ele><time>2026-03-28T12:38:56.841Z</time></trkpt><trkpt lat="45.6083317" lon="10.82391"><ele>326.25</ele><time>2026-03-28T12:38:57.841Z</time></trkpt><trkpt lat="45.608255" lon="10.82375"><ele>325.0</ele><time>2026-03-28T12:38:58.841Z</time></trkpt><trkpt lat="45.6081817" lon="10.8235917"><ele>324.75</ele><time>2026-03-28T12:38:59.84Z</time></trkpt><trkpt lat="45.6081067" lon="10.823435"><ele>324.5</ele><time>2026-03-28T12:39:00.84Z</time></trkpt><trkpt lat="45.6080283" lon="10.8232717"><ele>324.25</ele><time>2026-03-28T12:39:01.84Z</time></trkpt><trkpt lat="45.60795" lon="10.8230917"><ele>324.0</ele><time>2026-03-28T12:39:02.841Z</time></trkpt><trkpt lat="45.6078683" lon="10.8229"><ele>324.0</ele><time>2026-03-28T12:39:03.841Z</time></trkpt><trkpt lat="45.6077967" lon="10.8227067"><ele>324.0</ele><time>2026-03-28T12:39:04.841Z</time></trkpt><trkpt lat="45.6077033" lon="10.8225167"><ele>324.0</ele><time>2026-03-28T12:39:05.84Z</time></trkpt><trkpt lat="45.60761" lon="10.822305"><ele>322.0</ele><time>2026-03-28T12:39:06.84Z</time></trkpt><trkpt lat="45.6075367" lon="10.8220883"><ele>320.0</ele><time>2026-03-28T12:39:07.84Z</time></trkpt><trkpt lat="45.6074767" lon="10.8218817"><ele>318.0</ele><time>2026-03-28T12:39:08.84Z</time></trkpt><trkpt lat="45.60743" lon="10.8216833"><ele>315.75</ele><time>2026-03-28T12:39:09.84Z</time></trkpt><trkpt lat="45.6073933" lon="10.8214817"><ele>313.5</ele><time>2026-03-28T12:39:10.841Z</time></trkpt><trkpt lat="45.60736" lon="10.8212917"><ele>311.25</ele><time>2026-03-28T12:39:11.84Z</time></trkpt><trkpt lat="45.6073083" lon="10.8211"><ele>309.0</ele><time>2026-03-28T12:39:12.841Z</time></trkpt><trkpt lat="45.60723" lon="10.820875"><ele>307.3333333333333</ele><time>2026-03-28T12:39:13.841Z</time></trkpt><trkpt lat="45.6071633" lon="10.820655"><ele>305.66666666666663</ele><time>2026-03-28T12:39:14.839Z</time></trkpt><trkpt lat="45.6071283" lon="10.8204533"><ele>304.0</ele><time>2026-03-28T12:39:15.84Z</time></trkpt><trkpt lat="45.6071233" lon="10.8202583"><ele>302.75</ele><time>2026-03-28T12:39:16.84Z</time></trkpt><trkpt lat="45.6071533" lon="10.8200633"><ele>301.5</ele><time>2026-03-28T12:39:17.84Z</time></trkpt><trkpt lat="45.60722" lon="10.8198833"><ele>300.25</ele><time>2026-03-28T12:39:18.84Z</time></trkpt><trkpt lat="45.6072833" lon="10.81971"><ele>299.0</ele><time>2026-03-28T12:39:19.839Z</time></trkpt><trkpt lat="45.6073383" lon="10.8195483"><ele>299.0</ele><time>2026-03-28T12:39:20.839Z</time></trkpt><trkpt lat="45.6073917" lon="10.8193983"><ele>299.0</ele><time>2026-03-28T12:39:21.839Z</time></trkpt><trkpt lat="45.60744" lon="10.8192667"><ele>299.0</ele><time>2026-03-28T12:39:22.839Z</time></trkpt><trkpt lat="45.607485" lon="10.8191317"><ele>299.0</ele><time>2026-03-28T12:39:23.84Z</time></trkpt><trkpt lat="45.60753" lon="10.818995"><ele>299.0</ele><time>2026-03-28T12:39:24.839Z</time></trkpt><trkpt lat="45.6075733" lon="10.81883"><ele>297.6666666666667</ele><time>2026-03-28T12:39:25.839Z</time></trkpt><trkpt lat="45.6076167" lon="10.81865"><ele>296.3333333333333</ele><time>2026-03-28T12:39:26.84Z</time></trkpt><trkpt lat="45.6076617" lon="10.8184383"><ele>295.0</ele><time>2026-03-28T12:39:27.839Z</time></trkpt><trkpt lat="45.6077083" lon="10.8182133"><ele>294.0</ele><time>2026-03-28T12:39:28.839Z</time></trkpt><trkpt lat="45.6077533" lon="10.8179817"><ele>293.0</ele><time>2026-03-28T12:39:29.84Z</time></trkpt><trkpt lat="45.6077967" lon="10.817745"><ele>292.0</ele><time>2026-03-28T12:39:30.84Z</time></trkpt><trkpt lat="45.60785" lon="10.8175267"><ele>290.25</ele><time>2026-03-28T12:39:31.84Z</time></trkpt><trkpt lat="45.6079067" lon="10.8173333"><ele>288.5</ele><time>2026-03-28T12:39:32.84Z</time></trkpt><trkpt lat="45.6079617" lon="10.81715"><ele>286.75</ele><time>2026-03-28T12:39:33.839Z</time></trkpt><trkpt lat="45.60802" lon="10.8169817"><ele>285.0</ele><time>2026-03-28T12:39:34.839Z</time></trkpt><trkpt lat="45.6080717" lon="10.8168383"><ele>284.5</ele><time>2026-03-28T12:39:35.839Z</time></trkpt><trkpt lat="45.6081267" lon="10.816725"><ele>284.0</ele><time>2026-03-28T12:39:36.84Z</time></trkpt><trkpt lat="45.60817" lon="10.8166433"><ele>283.5</ele><time>2026-03-28T12:39:37.84Z</time></trkpt><trkpt lat="45.608215" lon="10.8165633"><ele>283.0</ele><time>2026-03-28T12:39:38.84Z</time></trkpt><trkpt lat="45.6082617" lon="10.8164667"><ele>282.5</ele><time>2026-03-28T12:39:39.839Z</time></trkpt><trkpt lat="45.608315" lon="10.8163517"><ele>282.0</ele><time>2026-03-28T12:39:40.839Z</time></trkpt><trkpt lat="45.60837" lon="10.8162317"><ele>282.0</ele><time>2026-03-28T12:39:41.839Z</time></trkpt><trkpt lat="45.6084217" lon="10.81609"><ele>282.0</ele><time>2026-03-28T12:39:42.84Z</time></trkpt><trkpt lat="45.6084817" lon="10.81594"><ele>282.0</ele><time>2026-03-28T12:39:43.84Z</time></trkpt><trkpt lat="45.60854" lon="10.815795"><ele>282.0</ele><time>2026-03-28T12:39:44.839Z</time></trkpt><trkpt lat="45.6085933" lon="10.81566"><ele>282.0</ele><time>2026-03-28T12:39:45.84Z</time></trkpt><trkpt lat="45.6086583" lon="10.8155467"><ele>282.0</ele><time>2026-03-28T12:39:46.839Z</time></trkpt><trkpt lat="45.60873" lon="10.8154417"><ele>282.0</ele><time>2026-03-28T12:39:47.84Z</time></trkpt><trkpt lat="45.6088033" lon="10.8153317"><ele>282.0</ele><time>2026-03-28T12:39:48.84Z</time></trkpt><trkpt lat="45.608855" lon="10.8152133"><ele>282.0</ele><time>2026-03-28T12:39:49.84Z</time></trkpt><trkpt lat="45.6088917" lon="10.81507"><ele>282.0</ele><time>2026-03-28T12:39:50.839Z</time></trkpt><trkpt lat="45.6089167" lon="10.8148983"><ele>282.0</ele><time>2026-03-28T12:39:51.839Z</time></trkpt><trkpt lat="45.6089283" lon="10.814715"><ele>282.0</ele><time>2026-03-28T12:39:52.84Z</time></trkpt><trkpt lat="45.6089417" lon="10.8145117"><ele>282.0</ele><time>2026-03-28T12:39:53.839Z</time></trkpt><trkpt lat="45.608965" lon="10.8142983"><ele>281.6666666666667</ele><time>2026-03-28T12:39:54.839Z</time></trkpt><trkpt lat="45.6089933" lon="10.8140717"><ele>281.33333333333337</ele><time>2026-03-28T12:39:55.84Z</time></trkpt><trkpt lat="45.6090333" lon="10.8138467"><ele>281.0</ele><time>2026-03-28T12:39:56.839Z</time></trkpt><trkpt lat="45.6090817" lon="10.8136233"><ele>280.6666666666667</ele><time>2026-03-28T12:39:57.839Z</time></trkpt><trkpt lat="45.60912" lon="10.8133983"><ele>280.3333333333333</ele><time>2026-03-28T12:39:58.84Z</time></trkpt><trkpt lat="45.609165" lon="10.8131667"><ele>280.0</ele><time>2026-03-28T12:39:59.839Z</time></trkpt><trkpt lat="45.6092117" lon="10.812945"><ele>280.0</ele><time>2026-03-28T12:40:00.84Z</time></trkpt><trkpt lat="45.6092367" lon="10.8127067"><ele>280.0</ele><time>2026-03-28T12:40:01.84Z</time></trkpt><trkpt lat="45.609255" lon="10.8124683"><ele>280.0</ele><time>2026-03-28T12:40:02.84Z</time></trkpt><trkpt lat="45.6092633" lon="10.8122467"><ele>281.0</ele><time>2026-03-28T12:40:03.839Z</time></trkpt><trkpt lat="45.60928" lon="10.81206"><ele>282.0</ele><time>2026-03-28T12:40:04.839Z</time></trkpt><trkpt lat="45.6093217" lon="10.811905"><ele>283.0</ele><time>2026-03-28T12:40:05.839Z</time></trkpt><trkpt lat="45.6093867" lon="10.8117783"><ele>284.0</ele><time>2026-03-28T12:40:06.84Z</time></trkpt><trkpt lat="45.6094833" lon="10.8117133"><ele>285.0</ele><time>2026-03-28T12:40:07.84Z</time></trkpt><trkpt lat="45.609605" lon="10.811655"><ele>286.0</ele><time>2026-03-28T12:40:08.839Z</time></trkpt><trkpt lat="45.609715" lon="10.811565"><ele>287.0</ele><time>2026-03-28T12:40:09.839Z</time></trkpt><trkpt lat="45.6098183" lon="10.8114467"><ele>288.0</ele><time>2026-03-28T12:40:10.839Z</time></trkpt><trkpt lat="45.6099033" lon="10.8113283"><ele>288.0</ele><time>2026-03-28T12:40:11.84Z</time></trkpt><trkpt lat="45.60997" lon="10.8112483"><ele>288.0</ele><time>2026-03-28T12:40:12.84Z</time></trkpt><trkpt lat="45.610025" lon="10.8111983"><ele>288.0</ele><time>2026-03-28T12:40:13.839Z</time></trkpt><trkpt lat="45.6101233" lon="10.8111983"><ele>288.0</ele><time>2026-03-28T12:40:15.839Z</time></trkpt><trkpt lat="45.6102" lon="10.8112283"><ele>288.0</ele><time>2026-03-28T12:40:16.84Z</time></trkpt><trkpt lat="45.6102933" lon="10.8112767"><ele>288.0</ele><time>2026-03-28T12:40:17.84Z</time></trkpt><trkpt lat="45.61041" lon="10.811325"><ele>289.0</ele><time>2026-03-28T12:40:18.84Z</time></trkpt><trkpt lat="45.61054" lon="10.811365"><ele>290.0</ele><time>2026-03-28T12:40:19.84Z</time></trkpt><trkpt lat="45.610675" lon="10.8113983"><ele>291.0</ele><time>2026-03-28T12:40:20.839Z</time></trkpt><trkpt lat="45.6108133" lon="10.811435"><ele>292.0</ele><time>2026-03-28T12:40:21.84Z</time></trkpt><trkpt lat="45.610955" lon="10.811465"><ele>292.0</ele><time>2026-03-28T12:40:22.839Z</time></trkpt><trkpt lat="45.6110883" lon="10.81149"><ele>292.0</ele><time>2026-03-28T12:40:23.84Z</time></trkpt><trkpt lat="45.61121" lon="10.8115167"><ele>292.0</ele><time>2026-03-28T12:40:24.84Z</time></trkpt><trkpt lat="45.6113167" lon="10.8115333"><ele>292.0</ele><time>2026-03-28T12:40:25.84Z</time></trkpt><trkpt lat="45.6114017" lon="10.8115533"><ele>294.16666666666663</ele><time>2026-03-28T12:40:26.84Z</time></trkpt><trkpt lat="45.61147" lon="10.8115583"><ele>296.3333333333333</ele><time>2026-03-28T12:40:27.839Z</time></trkpt><trkpt lat="45.611525" lon="10.8114483"><ele>298.5</ele><time>2026-03-28T12:40:29.839Z</time></trkpt><trkpt lat="45.6115133" lon="10.811355"><ele>300.6666666666667</ele><time>2026-03-28T12:40:30.84Z</time></trkpt><trkpt lat="45.611465" lon="10.811245"><ele>302.83333333333337</ele><time>2026-03-28T12:40:31.839Z</time></trkpt><trkpt lat="45.6114083" lon="10.8111033"><ele>305.0</ele><time>2026-03-28T12:40:32.839Z</time></trkpt><trkpt lat="45.6113667" lon="10.8109717"><ele>307.4</ele><time>2026-03-28T12:40:33.84Z</time></trkpt><trkpt lat="45.6113417" lon="10.810825"><ele>309.8</ele><time>2026-03-28T12:40:34.839Z</time></trkpt><trkpt lat="45.6113233" lon="10.8106633"><ele>312.2</ele><time>2026-03-28T12:40:35.839Z</time></trkpt><trkpt lat="45.6113017" lon="10.81051"><ele>314.6</ele><time>2026-03-28T12:40:36.839Z</time></trkpt><trkpt lat="45.6112967" lon="10.81037"><ele>317.0</ele><time>2026-03-28T12:40:37.84Z</time></trkpt><trkpt lat="45.611305" lon="10.8102333"><ele>319.25</ele><time>2026-03-28T12:40:38.84Z</time></trkpt><trkpt lat="45.6113133" lon="10.8100883"><ele>321.5</ele><time>2026-03-28T12:40:39.839Z</time></trkpt><trkpt lat="45.6113183" lon="10.8099333"><ele>323.75</ele><time>2026-03-28T12:40:40.84Z</time></trkpt><trkpt lat="45.6113433" lon="10.80976"><ele>326.0</ele><time>2026-03-28T12:40:41.839Z</time></trkpt><trkpt lat="45.6113667" lon="10.8095817"><ele>326.0</ele><time>2026-03-28T12:40:42.839Z</time></trkpt><trkpt lat="45.6113933" lon="10.8094183"><ele>326.0</ele><time>2026-03-28T12:40:43.84Z</time></trkpt><trkpt lat="45.6114333" lon="10.8092533"><ele>326.0</ele><time>2026-03-28T12:40:44.84Z</time></trkpt><trkpt lat="45.6114933" lon="10.809065"><ele>326.0</ele><time>2026-03-28T12:40:45.839Z</time></trkpt><trkpt lat="45.6115467" lon="10.808905"><ele>325.8</ele><time>2026-03-28T12:40:46.84Z</time></trkpt><trkpt lat="45.611585" lon="10.8087383"><ele>325.6</ele><time>2026-03-28T12:40:47.84Z</time></trkpt><trkpt lat="45.61162" lon="10.808595"><ele>325.4</ele><time>2026-03-28T12:40:48.839Z</time></trkpt><trkpt lat="45.6116367" lon="10.808455"><ele>325.2</ele><time>2026-03-28T12:40:49.839Z</time></trkpt><trkpt lat="45.6116517" lon="10.808315"><ele>325.0</ele><time>2026-03-28T12:40:50.839Z</time></trkpt><trkpt lat="45.6116733" lon="10.80818"><ele>323.8333333333333</ele><time>2026-03-28T12:40:51.839Z</time></trkpt><trkpt lat="45.6116967" lon="10.8080583"><ele>322.66666666666663</ele><time>2026-03-28T12:40:52.839Z</time></trkpt><trkpt lat="45.611735" lon="10.8079767"><ele>321.5</ele><time>2026-03-28T12:40:53.839Z</time></trkpt><trkpt lat="45.611825" lon="10.8078883"><ele>320.3333333333333</ele><time>2026-03-28T12:40:55.839Z</time></trkpt><trkpt lat="45.61187" lon="10.8079683"><ele>319.1666666666667</ele><time>2026-03-28T12:41:01.84Z</time></trkpt><trkpt lat="45.6118367" lon="10.8080967"><ele>318.0</ele><time>2026-03-28T12:41:03.84Z</time></trkpt><trkpt lat="45.6118567" lon="10.8082517"><ele>318.0</ele><time>2026-03-28T12:41:05.839Z</time></trkpt><trkpt lat="45.6119017" lon="10.80838"><ele>318.0</ele><time>2026-03-28T12:41:07.84Z</time></trkpt><trkpt lat="45.61197" lon="10.80847"><ele>318.0</ele><time>2026-03-28T12:41:09.839Z</time></trkpt><trkpt lat="45.61193" lon="10.808365"><ele>318.0</ele><time>2026-03-28T12:41:19.839Z</time></trkpt><trkpt lat="45.6118717" lon="10.8082633"><ele>318.0</ele><time>2026-03-28T12:41:20.84Z</time></trkpt><trkpt lat="45.6118283" lon="10.808185"><ele>318.0</ele><time>2026-03-28T12:41:21.839Z</time></trkpt><trkpt lat="45.61181" lon="10.80809"><ele>318.0</ele><time>2026-03-28T12:41:22.839Z</time></trkpt><trkpt lat="45.6118533" lon="10.8079233"><ele>318.0</ele><time>2026-03-28T12:41:24.839Z</time></trkpt><trkpt lat="45.6118917" lon="10.8078317"><ele>318.0</ele><time>2026-03-28T12:41:25.84Z</time></trkpt><trkpt lat="45.6119283" lon="10.8077483"><ele>318.0</ele><time>2026-03-28T12:41:26.84Z</time></trkpt><trkpt lat="45.611965" lon="10.807645"><ele>318.0</ele><time>2026-03-28T12:41:28.839Z</time></trkpt><trkpt lat="45.61207" lon="10.8075967"><ele>318.25</ele><time>2026-03-28T12:41:32.839Z</time></trkpt><trkpt lat="45.6121617" lon="10.807585"><ele>318.5</ele><time>2026-03-28T12:41:33.84Z</time></trkpt><trkpt lat="45.6122733" lon="10.8075717"><ele>318.75</ele><time>2026-03-28T12:41:34.84Z</time></trkpt><trkpt lat="45.6123933" lon="10.8075567"><ele>319.0</ele><time>2026-03-28T12:41:35.839Z</time></trkpt><trkpt lat="45.6125183" lon="10.8075467"><ele>319.0</ele><time>2026-03-28T12:41:36.84Z</time></trkpt><trkpt lat="45.61265" lon="10.8075383"><ele>319.0</ele><time>2026-03-28T12:41:37.839Z</time></trkpt><trkpt lat="45.61279" lon="10.8075283"><ele>319.0</ele><time>2026-03-28T12:41:38.84Z</time></trkpt><trkpt lat="45.6129367" lon="10.8075133"><ele>319.0</ele><time>2026-03-28T12:41:39.84Z</time></trkpt><trkpt lat="45.6130783" lon="10.8075067"><ele>321.0</ele><time>2026-03-28T12:41:40.84Z</time></trkpt><trkpt lat="45.6132117" lon="10.80749"><ele>323.0</ele><time>2026-03-28T12:41:41.84Z</time></trkpt><trkpt lat="45.61335" lon="10.8074767"><ele>325.0</ele><time>2026-03-28T12:41:42.839Z</time></trkpt><trkpt lat="45.6134867" lon="10.8074617"><ele>327.0</ele><time>2026-03-28T12:41:43.84Z</time></trkpt><trkpt lat="45.61361" lon="10.8074833"><ele>327.6</ele><time>2026-03-28T12:41:44.84Z</time></trkpt><trkpt lat="45.613725" lon="10.8075217"><ele>328.20000000000005</ele><time>2026-03-28T12:41:45.84Z</time></trkpt><trkpt lat="45.6138383" lon="10.8075933"><ele>328.8</ele><time>2026-03-28T12:41:46.839Z</time></trkpt><trkpt lat="45.61393" lon="10.807665"><ele>329.4</ele><time>2026-03-28T12:41:47.839Z</time></trkpt><trkpt lat="45.6140217" lon="10.8076967"><ele>330.0</ele><time>2026-03-28T12:41:48.84Z</time></trkpt><trkpt lat="45.6141017" lon="10.807695"><ele>330.0</ele><time>2026-03-28T12:41:49.839Z</time></trkpt><trkpt lat="45.6142033" lon="10.80759"><ele>330.0</ele><time>2026-03-28T12:41:51.839Z</time></trkpt><trkpt lat="45.614245" lon="10.8075217"><ele>330.0</ele><time>2026-03-28T12:41:52.839Z</time></trkpt><trkpt lat="45.6142933" lon="10.8074283"><ele>330.0</ele><time>2026-03-28T12:41:54.84Z</time></trkpt><trkpt lat="45.6143667" lon="10.8073667"><ele>330.0</ele><time>2026-03-28T12:41:56.84Z</time></trkpt><trkpt lat="45.6144967" lon="10.8073183"><ele>333.0</ele><time>2026-03-28T12:41:58.84Z</time></trkpt><trkpt lat="45.6145817" lon="10.8073417"><ele>336.0</ele><time>2026-03-28T12:41:59.84Z</time></trkpt><trkpt lat="45.614685" lon="10.80739"><ele>339.0</ele><time>2026-03-28T12:42:00.839Z</time></trkpt><trkpt lat="45.614805" lon="10.8074483"><ele>342.0</ele><time>2026-03-28T12:42:01.839Z</time></trkpt><trkpt lat="45.6149367" lon="10.8075017"><ele>342.0</ele><time>2026-03-28T12:42:02.84Z</time></trkpt><trkpt lat="45.615075" lon="10.80756"><ele>342.0</ele><time>2026-03-28T12:42:03.839Z</time></trkpt><trkpt lat="45.61521" lon="10.8076483"><ele>342.0</ele><time>2026-03-28T12:42:04.839Z</time></trkpt><trkpt lat="45.6153367" lon="10.8077567"><ele>342.0</ele><time>2026-03-28T12:42:05.84Z</time></trkpt><trkpt lat="45.61545" lon="10.80789"><ele>344.5</ele><time>2026-03-28T12:42:06.839Z</time></trkpt><trkpt lat="45.6155817" lon="10.80798"><ele>347.0</ele><time>2026-03-28T12:42:07.839Z</time></trkpt><trkpt lat="45.6157267" lon="10.808045"><ele>349.5</ele><time>2026-03-28T12:42:08.84Z</time></trkpt><trkpt lat="45.6158667" lon="10.8080767"><ele>352.0</ele><time>2026-03-28T12:42:09.839Z</time></trkpt><trkpt lat="45.6160183" lon="10.808105"><ele>355.66666666666663</ele><time>2026-03-28T12:42:10.84Z</time></trkpt><trkpt lat="45.6161633" lon="10.8081483"><ele>359.3333333333333</ele><time>2026-03-28T12:42:11.839Z</time></trkpt><trkpt lat="45.6163067" lon="10.808225"><ele>363.0</ele><time>2026-03-28T12:42:12.839Z</time></trkpt><trkpt lat="45.6164367" lon="10.8083383"><ele>363.0</ele><time>2026-03-28T12:42:13.839Z</time></trkpt><trkpt lat="45.6165667" lon="10.8084633"><ele>363.0</ele><time>2026-03-28T12:42:14.839Z</time></trkpt><trkpt lat="45.6166917" lon="10.80859"><ele>363.0</ele><time>2026-03-28T12:42:15.839Z</time></trkpt><trkpt lat="45.6168067" lon="10.8087183"><ele>364.75</ele><time>2026-03-28T12:42:16.84Z</time></trkpt><trkpt lat="45.61691" lon="10.8088683"><ele>366.5</ele><time>2026-03-28T12:42:17.839Z</time></trkpt><trkpt lat="45.6170183" lon="10.809"><ele>368.25</ele><time>2026-03-28T12:42:18.839Z</time></trkpt><trkpt lat="45.617115" lon="10.8091117"><ele>370.0</ele><time>2026-03-28T12:42:19.84Z</time></trkpt><trkpt lat="45.617225" lon="10.80919"><ele>370.75</ele><time>2026-03-28T12:42:20.839Z</time></trkpt><trkpt lat="45.6173533" lon="10.8092467"><ele>371.5</ele><time>2026-03-28T12:42:21.84Z</time></trkpt><trkpt lat="45.6175" lon="10.8093117"><ele>372.25</ele><time>2026-03-28T12:42:22.839Z</time></trkpt><trkpt lat="45.6176367" lon="10.8094"><ele>373.0</ele><time>2026-03-28T12:42:23.84Z</time></trkpt><trkpt lat="45.6177667" lon="10.8095183"><ele>376.5</ele><time>2026-03-28T12:42:24.839Z</time></trkpt><trkpt lat="45.6178983" lon="10.8096317"><ele>380.0</ele><time>2026-03-28T12:42:25.839Z</time></trkpt><trkpt lat="45.6180217" lon="10.8097367"><ele>383.5</ele><time>2026-03-28T12:42:26.84Z</time></trkpt><trkpt lat="45.6181267" lon="10.8098517"><ele>387.0</ele><time>2026-03-28T12:42:27.839Z</time></trkpt><trkpt lat="45.618215" lon="10.8099767"><ele>387.0</ele><time>2026-03-28T12:42:28.839Z</time></trkpt><trkpt lat="45.6182733" lon="10.8101167"><ele>387.0</ele><time>2026-03-28T12:42:29.84Z</time></trkpt><trkpt lat="45.6183433" lon="10.8102867"><ele>387.0</ele><time>2026-03-28T12:42:30.84Z</time></trkpt><trkpt lat="45.6184217" lon="10.81044"><ele>387.0</ele><time>2026-03-28T12:42:31.839Z</time></trkpt><trkpt lat="45.6185117" lon="10.8105783"><ele>385.75</ele><time>2026-03-28T12:42:32.839Z</time></trkpt><trkpt lat="45.61864" lon="10.81068"><ele>384.5</ele><time>2026-03-28T12:42:33.839Z</time></trkpt><trkpt lat="45.6187617" lon="10.8107667"><ele>383.25</ele><time>2026-03-28T12:42:34.84Z</time></trkpt><trkpt lat="45.618885" lon="10.8108833"><ele>382.0</ele><time>2026-03-28T12:42:35.839Z</time></trkpt><trkpt lat="45.6189967" lon="10.8110133"><ele>385.25</ele><time>2026-03-28T12:42:36.84Z</time></trkpt><trkpt lat="45.6191133" lon="10.8111533"><ele>388.5</ele><time>2026-03-28T12:42:37.839Z</time></trkpt><trkpt lat="45.619215" lon="10.811275"><ele>391.75</ele><time>2026-03-28T12:42:38.839Z</time></trkpt><trkpt lat="45.6193183" lon="10.8114117"><ele>395.0</ele><time>2026-03-28T12:42:39.84Z</time></trkpt><trkpt lat="45.619415" lon="10.811555"><ele>398.75</ele><time>2026-03-28T12:42:40.839Z</time></trkpt><trkpt lat="45.6194933" lon="10.8117133"><ele>402.5</ele><time>2026-03-28T12:42:41.839Z</time></trkpt><trkpt lat="45.6195717" lon="10.81187"><ele>406.25</ele><time>2026-03-28T12:42:42.84Z</time></trkpt><trkpt lat="45.6196517" lon="10.81204"><ele>410.0</ele><time>2026-03-28T12:42:43.839Z</time></trkpt><trkpt lat="45.6197433" lon="10.8122067"><ele>410.66666666666663</ele><time>2026-03-28T12:42:44.839Z</time></trkpt><trkpt lat="45.6198383" lon="10.8123767"><ele>411.33333333333337</ele><time>2026-03-28T12:42:45.839Z</time></trkpt><trkpt lat="45.6199533" lon="10.812535"><ele>412.0</ele><time>2026-03-28T12:42:46.84Z</time></trkpt><trkpt lat="45.6200717" lon="10.8126983"><ele>415.33333333333337</ele><time>2026-03-28T12:42:47.839Z</time></trkpt><trkpt lat="45.6201867" lon="10.812865"><ele>418.66666666666663</ele><time>2026-03-28T12:42:48.839Z</time></trkpt><trkpt lat="45.620275" lon="10.8130417"><ele>422.0</ele><time>2026-03-28T12:42:49.84Z</time></trkpt><trkpt lat="45.62036" lon="10.8132433"><ele>422.75</ele><time>2026-03-28T12:42:50.839Z</time></trkpt><trkpt lat="45.6204433" lon="10.813435"><ele>423.5</ele><time>2026-03-28T12:42:51.84Z</time></trkpt><trkpt lat="45.62054" lon="10.813595"><ele>424.25</ele><time>2026-03-28T12:42:52.84Z</time></trkpt><trkpt lat="45.6206483" lon="10.813725"><ele>425.0</ele><time>2026-03-28T12:42:53.839Z</time></trkpt><trkpt lat="45.6207717" lon="10.8138233"><ele>425.75</ele><time>2026-03-28T12:42:54.84Z</time></trkpt><trkpt lat="45.6209117" lon="10.8138717"><ele>426.5</ele><time>2026-03-28T12:42:55.839Z</time></trkpt><trkpt lat="45.6210533" lon="10.8138983"><ele>427.25</ele><time>2026-03-28T12:42:56.84Z</time></trkpt><trkpt lat="45.62121" lon="10.8139383"><ele>428.0</ele><time>2026-03-28T12:42:57.84Z</time></trkpt><trkpt lat="45.6213517" lon="10.8139817"><ele>429.3333333333333</ele><time>2026-03-28T12:42:58.84Z</time></trkpt><trkpt lat="45.62145" lon="10.81405"><ele>430.66666666666663</ele><time>2026-03-28T12:42:59.84Z</time></trkpt><trkpt lat="45.6215083" lon="10.814135"><ele>432.0</ele><time>2026-03-28T12:43:00.84Z</time></trkpt><trkpt lat="45.62152" lon="10.81423"><ele>433.33333333333337</ele><time>2026-03-28T12:43:01.839Z</time></trkpt><trkpt lat="45.621515" lon="10.8143483"><ele>434.6666666666667</ele><time>2026-03-28T12:43:02.84Z</time></trkpt><trkpt lat="45.6214917" lon="10.8144817"><ele>436.0</ele><time>2026-03-28T12:43:03.84Z</time></trkpt><trkpt lat="45.6214683" lon="10.8146383"><ele>436.0</ele><time>2026-03-28T12:43:04.839Z</time></trkpt><trkpt lat="45.621465" lon="10.8148067"><ele>436.0</ele><time>2026-03-28T12:43:05.839Z</time></trkpt><trkpt lat="45.621475" lon="10.8149917"><ele>436.0</ele><time>2026-03-28T12:43:06.839Z</time></trkpt><trkpt lat="45.6214917" lon="10.8151867"><ele>436.0</ele><time>2026-03-28T12:43:07.84Z</time></trkpt><trkpt lat="45.621525" lon="10.81536"><ele>437.25</ele><time>2026-03-28T12:43:08.839Z</time></trkpt><trkpt lat="45.62157" lon="10.8155183"><ele>438.5</ele><time>2026-03-28T12:43:09.839Z</time></trkpt><trkpt lat="45.6216133" lon="10.8156733"><ele>439.75</ele><time>2026-03-28T12:43:10.84Z</time></trkpt><trkpt lat="45.621655" lon="10.8158267"><ele>441.0</ele><time>2026-03-28T12:43:11.839Z</time></trkpt><trkpt lat="45.6216833" lon="10.8159867"><ele>442.4</ele><time>2026-03-28T12:43:12.839Z</time></trkpt><trkpt lat="45.621715" lon="10.81613"><ele>443.8</ele><time>2026-03-28T12:43:13.839Z</time></trkpt><trkpt lat="45.62176" lon="10.8162583"><ele>445.19999999999993</ele><time>2026-03-28T12:43:14.84Z</time></trkpt><trkpt lat="45.6218067" lon="10.8163833"><ele>446.59999999999997</ele><time>2026-03-28T12:43:15.84Z</time></trkpt><trkpt lat="45.62186" lon="10.8165033"><ele>448.0</ele><time>2026-03-28T12:43:16.84Z</time></trkpt><trkpt lat="45.6219383" lon="10.8166167"><ele>447.83333333333337</ele><time>2026-03-28T12:43:17.84Z</time></trkpt><trkpt lat="45.6220167" lon="10.8167133"><ele>447.6666666666667</ele><time>2026-03-28T12:43:18.839Z</time></trkpt><trkpt lat="45.622085" lon="10.816795"><ele>447.5</ele><time>2026-03-28T12:43:19.84Z</time></trkpt><trkpt lat="45.62215" lon="10.8168667"><ele>447.33333333333337</ele><time>2026-03-28T12:43:20.84Z</time></trkpt><trkpt lat="45.6222183" lon="10.8169233"><ele>447.1666666666667</ele><time>2026-03-28T12:43:21.84Z</time></trkpt><trkpt lat="45.6223033" lon="10.8169717"><ele>447.0</ele><time>2026-03-28T12:43:22.84Z</time></trkpt><trkpt lat="45.62238" lon="10.81702"><ele>447.0</ele><time>2026-03-28T12:43:23.84Z</time></trkpt><trkpt lat="45.622455" lon="10.8170917"><ele>447.0</ele><time>2026-03-28T12:43:25.839Z</time></trkpt><trkpt lat="45.62252" lon="10.8170433"><ele>447.0</ele><time>2026-03-28T12:43:29.839Z</time></trkpt><trkpt lat="45.62254" lon="10.816955"><ele>447.0</ele><time>2026-03-28T12:43:30.839Z</time></trkpt><trkpt lat="45.62256" lon="10.8168333"><ele>447.0</ele><time>2026-03-28T12:43:31.839Z</time></trkpt><trkpt lat="45.6225733" lon="10.81668"><ele>447.0</ele><time>2026-03-28T12:43:32.839Z</time></trkpt><trkpt lat="45.6225933" lon="10.8165267"><ele>448.0</ele><time>2026-03-28T12:43:33.839Z</time></trkpt><trkpt lat="45.6226017" lon="10.8163717"><ele>449.0</ele><time>2026-03-28T12:43:34.84Z</time></trkpt><trkpt lat="45.6225867" lon="10.816215"><ele>450.0</ele><time>2026-03-28T12:43:35.839Z</time></trkpt><trkpt lat="45.62258" lon="10.8160467"><ele>451.0</ele><time>2026-03-28T12:43:36.84Z</time></trkpt><trkpt lat="45.6225467" lon="10.815875"><ele>451.0</ele><time>2026-03-28T12:43:37.839Z</time></trkpt><trkpt lat="45.6225167" lon="10.8157167"><ele>451.0</ele><time>2026-03-28T12:43:38.838Z</time></trkpt><trkpt lat="45.62249" lon="10.8156033"><ele>451.0</ele><time>2026-03-28T12:43:39.839Z</time></trkpt><trkpt lat="45.622445" lon="10.81551"><ele>451.0</ele><time>2026-03-28T12:43:40.838Z</time></trkpt><trkpt lat="45.6224017" lon="10.8154183"><ele>451.0</ele><time>2026-03-28T12:43:41.839Z</time></trkpt><trkpt lat="45.62235" lon="10.815265"><ele>451.6</ele><time>2026-03-28T12:43:43.838Z</time></trkpt><trkpt lat="45.622375" lon="10.81509"><ele>452.20000000000005</ele><time>2026-03-28T12:43:45.839Z</time></trkpt><trkpt lat="45.6223817" lon="10.81498"><ele>452.79999999999995</ele><time>2026-03-28T12:43:46.839Z</time></trkpt><trkpt lat="45.6223967" lon="10.8148533"><ele>453.4</ele><time>2026-03-28T12:43:47.839Z</time></trkpt><trkpt lat="45.6224117" lon="10.8147133"><ele>454.0</ele><time>2026-03-28T12:43:48.838Z</time></trkpt><trkpt lat="45.6224217" lon="10.8145783"><ele>454.00000000000006</ele><time>2026-03-28T12:43:49.838Z</time></trkpt><trkpt lat="45.6224233" lon="10.814455"><ele>454.0</ele><time>2026-03-28T12:43:50.839Z</time></trkpt><trkpt lat="45.62243" lon="10.8143517"><ele>454.0</ele><time>2026-03-28T12:43:51.839Z</time></trkpt><trkpt lat="45.6224417" lon="10.8142617"><ele>454.0</ele><time>2026-03-28T12:43:52.838Z</time></trkpt><trkpt lat="45.6224817" lon="10.8141333"><ele>454.00000000000006</ele><time>2026-03-28T12:43:54.838Z</time></trkpt><trkpt lat="45.6225517" lon="10.8139933"><ele>454.0</ele><time>2026-03-28T12:43:56.839Z</time></trkpt><trkpt lat="45.62258" lon="10.8139083"><ele>454.14285714285717</ele><time>2026-03-28T12:43:57.839Z</time></trkpt><trkpt lat="45.62259" lon="10.8138167"><ele>454.28571428571433</ele><time>2026-03-28T12:43:58.839Z</time></trkpt><trkpt lat="45.622535" lon="10.8137"><ele>454.42857142857144</ele><time>2026-03-28T12:44:00.839Z</time></trkpt><trkpt lat="45.6224717" lon="10.8136617"><ele>454.57142857142856</ele><time>2026-03-28T12:44:01.839Z</time></trkpt><trkpt lat="45.6224" lon="10.81361"><ele>454.7142857142857</ele><time>2026-03-28T12:44:02.839Z</time></trkpt><trkpt lat="45.6223533" lon="10.81354"><ele>454.8571428571429</ele><time>2026-03-28T12:44:03.839Z</time></trkpt><trkpt lat="45.6223267" lon="10.8134517"><ele>455.0</ele><time>2026-03-28T12:44:04.839Z</time></trkpt><trkpt lat="45.62232" lon="10.81336"><ele>455.99999999999994</ele><time>2026-03-28T12:44:05.838Z</time></trkpt><trkpt lat="45.6223367" lon="10.813215"><ele>457.0</ele><time>2026-03-28T12:44:07.839Z</time></trkpt><trkpt lat="45.622345" lon="10.813115"><ele>458.0</ele><time>2026-03-28T12:44:09.838Z</time></trkpt><trkpt lat="45.6223883" lon="10.8130417"><ele>459.0</ele><time>2026-03-28T12:44:12.838Z</time></trkpt><trkpt lat="45.6224483" lon="10.8129683"><ele>459.99999999999994</ele><time>2026-03-28T12:44:14.838Z</time></trkpt><trkpt lat="45.6225" lon="10.8128833"><ele>461.0</ele><time>2026-03-28T12:44:16.839Z</time></trkpt><trkpt lat="45.6224217" lon="10.8129267"><ele>461.0</ele><time>2026-03-28T12:44:34.838Z</time></trkpt><trkpt lat="45.6223317" lon="10.8130433"><ele>461.0</ele><time>2026-03-28T12:44:36.839Z</time></trkpt><trkpt lat="45.622305" lon="10.8131433"><ele>461.0</ele><time>2026-03-28T12:44:38.838Z</time></trkpt><trkpt lat="45.6222717" lon="10.81323"><ele>461.0</ele><time>2026-03-28T12:44:50.839Z</time></trkpt><trkpt lat="45.6223083" lon="10.8131483"><ele>461.0</ele><time>2026-03-28T12:45:02.838Z</time></trkpt><trkpt lat="45.6224033" lon="10.8130467"><ele>461.0</ele><time>2026-03-28T12:45:04.838Z</time></trkpt><trkpt lat="45.6224833" lon="10.8129633"><ele>461.0</ele><time>2026-03-28T12:45:06.839Z</time></trkpt><trkpt lat="45.622525" lon="10.8128833"><ele>461.0</ele><time>2026-03-28T12:45:07.839Z</time></trkpt><trkpt lat="45.622605" lon="10.8127467"><ele>461.0</ele><time>2026-03-28T12:45:09.839Z</time></trkpt><trkpt lat="45.6226583" lon="10.81268"><ele>461.0</ele><time>2026-03-28T12:45:10.838Z</time></trkpt><trkpt lat="45.6227717" lon="10.8126117"><ele>467.4</ele><time>2026-03-28T12:45:12.839Z</time></trkpt><trkpt lat="45.622875" lon="10.8125483"><ele>473.8</ele><time>2026-03-28T12:45:14.838Z</time></trkpt><trkpt lat="45.622965" lon="10.8124717"><ele>480.19999999999993</ele><time>2026-03-28T12:45:16.838Z</time></trkpt><trkpt lat="45.6230567" lon="10.8124333"><ele>486.59999999999997</ele><time>2026-03-28T12:45:45.838Z</time></trkpt><trkpt lat="45.623135" lon="10.81243"><ele>493.0</ele><time>2026-03-28T12:45:48.838Z</time></trkpt><trkpt lat="45.6232183" lon="10.81239"><ele>493.00000000000006</ele><time>2026-03-28T12:45:50.839Z</time></trkpt><trkpt lat="45.6233" lon="10.8123467"><ele>493.0</ele><time>2026-03-28T12:45:52.839Z</time></trkpt><trkpt lat="45.62337" lon="10.812295"><ele>493.0</ele><time>2026-03-28T12:45:54.839Z</time></trkpt><trkpt lat="45.6234483" lon="10.8122783"><ele>493.0</ele><time>2026-03-28T12:45:56.838Z</time></trkpt><trkpt lat="45.6235117" lon="10.81227"><ele>493.00000000000006</ele><time>2026-03-28T12:46:15.839Z</time></trkpt><trkpt lat="45.623445" lon="10.812285"><ele>493.0</ele><time>2026-03-28T12:46:18.838Z</time></trkpt><trkpt lat="45.6233767" lon="10.812325"><ele>493.00000000000006</ele><time>2026-03-28T12:46:21.838Z</time></trkpt><trkpt lat="45.6233" lon="10.8123217"><ele>493.0</ele><time>2026-03-28T12:46:24.838Z</time></trkpt><trkpt lat="45.6232283" lon="10.8123283"><ele>493.0</ele><time>2026-03-28T12:46:27.839Z</time></trkpt><trkpt lat="45.6231533" lon="10.8123383"><ele>493.0</ele><time>2026-03-28T12:46:30.839Z</time></trkpt><trkpt lat="45.62308" lon="10.8123617"><ele>493.00000000000006</ele><time>2026-03-28T12:46:34.838Z</time></trkpt><trkpt lat="45.623005" lon="10.8124583"><ele>493.0</ele><time>2026-03-28T12:47:12.838Z</time></trkpt><trkpt lat="45.6229317" lon="10.8125083"><ele>493.00000000000006</ele><time>2026-03-28T12:47:15.838Z</time></trkpt><trkpt lat="45.622865" lon="10.812535"><ele>493.0</ele><time>2026-03-28T12:47:17.839Z</time></trkpt><trkpt lat="45.6227833" lon="10.8125517"><ele>493.0</ele><time>2026-03-28T12:47:20.838Z</time></trkpt><trkpt lat="45.6227017" lon="10.8126083"><ele>493.0</ele><time>2026-03-28T12:47:23.838Z</time></trkpt><trkpt lat="45.62266" lon="10.8126767"><ele>493.00000000000006</ele><time>2026-03-28T12:47:25.838Z</time></trkpt><trkpt lat="45.6225967" lon="10.812765"><ele>493.0</ele><time>2026-03-28T12:47:28.839Z</time></trkpt><trkpt lat="45.6225417" lon="10.81284"><ele>486.59999999999997</ele><time>2026-03-28T12:47:30.839Z</time></trkpt><trkpt lat="45.6224867" lon="10.81291"><ele>480.19999999999993</ele><time>2026-03-28T12:47:33.839Z</time></trkpt><trkpt lat="45.6223833" lon="10.8130683"><ele>473.8</ele><time>2026-03-28T12:47:41.838Z</time></trkpt><trkpt lat="45.6223017" lon="10.8131383"><ele>467.4</ele><time>2026-03-28T12:48:05.838Z</time></trkpt><trkpt lat="45.6222167" lon="10.8130717"><ele>461.0</ele><time>2026-03-28T12:48:08.837Z</time></trkpt><trkpt lat="45.6221783" lon="10.8129733"><ele>460.99999999999994</ele><time>2026-03-28T12:48:10.837Z</time></trkpt><trkpt lat="45.6221333" lon="10.81282"><ele>461.0</ele><time>2026-03-28T12:48:12.837Z</time></trkpt><trkpt lat="45.622105" lon="10.8127283"><ele>461.0</ele><time>2026-03-28T12:48:13.837Z</time></trkpt><trkpt lat="45.6220717" lon="10.8126417"><ele>461.0</ele><time>2026-03-28T12:48:14.837Z</time></trkpt><trkpt lat="45.6220383" lon="10.8125583"><ele>460.99999999999994</ele><time>2026-03-28T12:48:15.837Z</time></trkpt><trkpt lat="45.6219983" lon="10.812475"><ele>461.0</ele><time>2026-03-28T12:48:16.837Z</time></trkpt><trkpt lat="45.6219583" lon="10.8123767"><ele>459.8333333333333</ele><time>2026-03-28T12:48:17.837Z</time></trkpt><trkpt lat="45.6219267" lon="10.812285"><ele>458.66666666666663</ele><time>2026-03-28T12:48:18.837Z</time></trkpt><trkpt lat="45.6218967" lon="10.81218"><ele>457.5</ele><time>2026-03-28T12:48:19.838Z</time></trkpt><trkpt lat="45.6218633" lon="10.8120767"><ele>456.33333333333337</ele><time>2026-03-28T12:48:20.838Z</time></trkpt><trkpt lat="45.62182" lon="10.81198"><ele>455.1666666666667</ele><time>2026-03-28T12:48:21.837Z</time></trkpt><trkpt lat="45.6217917" lon="10.811875"><ele>454.0</ele><time>2026-03-28T12:48:22.837Z</time></trkpt><trkpt lat="45.6217617" lon="10.8117717"><ele>454.00000000000006</ele><time>2026-03-28T12:48:23.838Z</time></trkpt><trkpt lat="45.6217183" lon="10.8116683"><ele>454.0</ele><time>2026-03-28T12:48:24.837Z</time></trkpt><trkpt lat="45.6216767" lon="10.81156"><ele>454.0</ele><time>2026-03-28T12:48:25.838Z</time></trkpt><trkpt lat="45.6216367" lon="10.8114583"><ele>454.0</ele><time>2026-03-28T12:48:26.838Z</time></trkpt><trkpt lat="45.6215983" lon="10.811355"><ele>454.00000000000006</ele><time>2026-03-28T12:48:27.837Z</time></trkpt><trkpt lat="45.6215633" lon="10.81123"><ele>454.0</ele><time>2026-03-28T12:48:28.837Z</time></trkpt><trkpt lat="45.621535" lon="10.8111067"><ele>455.83333333333337</ele><time>2026-03-28T12:48:29.838Z</time></trkpt><trkpt lat="45.62151" lon="10.810985"><ele>457.6666666666667</ele><time>2026-03-28T12:48:30.838Z</time></trkpt><trkpt lat="45.6214933" lon="10.8108667"><ele>459.5</ele><time>2026-03-28T12:48:31.837Z</time></trkpt><trkpt lat="45.6214767" lon="10.8107783"><ele>461.33333333333337</ele><time>2026-03-28T12:48:32.837Z</time></trkpt><trkpt lat="45.621425" lon="10.8106417"><ele>463.1666666666667</ele><time>2026-03-28T12:48:34.838Z</time></trkpt><trkpt lat="45.62139" lon="10.8105533"><ele>465.0</ele><time>2026-03-28T12:48:35.837Z</time></trkpt><trkpt lat="45.6213533" lon="10.8104617"><ele>465.0</ele><time>2026-03-28T12:48:36.838Z</time></trkpt><trkpt lat="45.6213183" lon="10.8103717"><ele>465.0</ele><time>2026-03-28T12:48:37.837Z</time></trkpt><trkpt lat="45.6212867" lon="10.8102917"><ele>465.0</ele><time>2026-03-28T12:48:38.838Z</time></trkpt><trkpt lat="45.6212333" lon="10.8102067"><ele>465.0</ele><time>2026-03-28T12:48:40.838Z</time></trkpt><trkpt lat="45.6211783" lon="10.8101217"><ele>465.0</ele><time>2026-03-28T12:48:42.838Z</time></trkpt><trkpt lat="45.6210867" lon="10.8100183"><ele>465.0</ele><time>2026-03-28T12:48:44.838Z</time></trkpt><trkpt lat="45.6209883" lon="10.809935"><ele>462.2</ele><time>2026-03-28T12:48:46.838Z</time></trkpt><trkpt lat="45.6208983" lon="10.809865"><ele>459.4</ele><time>2026-03-28T12:48:48.838Z</time></trkpt><trkpt lat="45.6208183" lon="10.8097533"><ele>456.6</ele><time>2026-03-28T12:48:50.838Z</time></trkpt><trkpt lat="45.620735" lon="10.8096167"><ele>453.8</ele><time>2026-03-28T12:48:52.838Z</time></trkpt><trkpt lat="45.6206533" lon="10.80953"><ele>451.0</ele><time>2026-03-28T12:48:54.838Z</time></trkpt><trkpt lat="45.6205683" lon="10.8094817"><ele>451.00000000000006</ele><time>2026-03-28T12:48:56.838Z</time></trkpt><trkpt lat="45.6205033" lon="10.8094483"><ele>451.0</ele><time>2026-03-28T12:48:57.838Z</time></trkpt><trkpt lat="45.6204233" lon="10.8093917"><ele>451.0</ele><time>2026-03-28T12:48:58.837Z</time></trkpt><trkpt lat="45.6203433" lon="10.8093367"><ele>451.0</ele><time>2026-03-28T12:48:59.838Z</time></trkpt><trkpt lat="45.62026" lon="10.809285"><ele>451.00000000000006</ele><time>2026-03-28T12:49:00.838Z</time></trkpt><trkpt lat="45.6201817" lon="10.8092467"><ele>451.0</ele><time>2026-03-28T12:49:01.838Z</time></trkpt><trkpt lat="45.6201133" lon="10.8091917"><ele>450.83333333333337</ele><time>2026-03-28T12:49:02.838Z</time></trkpt><trkpt lat="45.6200467" lon="10.809125"><ele>450.6666666666667</ele><time>2026-03-28T12:49:03.838Z</time></trkpt><trkpt lat="45.6199733" lon="10.809065"><ele>450.5</ele><time>2026-03-28T12:49:04.837Z</time></trkpt><trkpt lat="45.619915" lon="10.8090033"><ele>450.33333333333337</ele><time>2026-03-28T12:49:05.837Z</time></trkpt><trkpt lat="45.6198467" lon="10.8089383"><ele>450.1666666666667</ele><time>2026-03-28T12:49:06.837Z</time></trkpt><trkpt lat="45.619785" lon="10.8088767"><ele>450.0</ele><time>2026-03-28T12:49:07.837Z</time></trkpt><trkpt lat="45.619725" lon="10.8088117"><ele>450.0</ele><time>2026-03-28T12:49:08.837Z</time></trkpt><trkpt lat="45.619675" lon="10.8087383"><ele>450.0</ele><time>2026-03-28T12:49:09.837Z</time></trkpt><trkpt lat="45.6196267" lon="10.8086683"><ele>450.0</ele><time>2026-03-28T12:49:10.837Z</time></trkpt><trkpt lat="45.61958" lon="10.8086033"><ele>450.0</ele><time>2026-03-28T12:49:11.838Z</time></trkpt><trkpt lat="45.6195117" lon="10.8084483"><ele>450.0</ele><time>2026-03-28T12:49:13.838Z</time></trkpt><trkpt lat="45.6194433" lon="10.8083217"><ele>450.0</ele><time>2026-03-28T12:49:15.837Z</time></trkpt><trkpt lat="45.619375" lon="10.8081867"><ele>449.6</ele><time>2026-03-28T12:49:17.837Z</time></trkpt><trkpt lat="45.6193317" lon="10.8081133"><ele>449.2</ele><time>2026-03-28T12:49:18.837Z</time></trkpt><trkpt lat="45.6192867" lon="10.8080367"><ele>448.79999999999995</ele><time>2026-03-28T12:49:19.838Z</time></trkpt><trkpt lat="45.619215" lon="10.8079083"><ele>448.4</ele><time>2026-03-28T12:49:21.837Z</time></trkpt><trkpt lat="45.6191417" lon="10.807835"><ele>448.0</ele><time>2026-03-28T12:49:23.837Z</time></trkpt><trkpt lat="45.61905" lon="10.80774"><ele>448.00000000000006</ele><time>2026-03-28T12:49:25.838Z</time></trkpt><trkpt lat="45.6189933" lon="10.8076867"><ele>448.0</ele><time>2026-03-28T12:49:26.837Z</time></trkpt><trkpt lat="45.6189017" lon="10.807585"><ele>448.0</ele><time>2026-03-28T12:49:28.837Z</time></trkpt><trkpt lat="45.6188333" lon="10.80751"><ele>448.0</ele><time>2026-03-28T12:49:31.838Z</time></trkpt><trkpt lat="45.618805" lon="10.8074183"><ele>448.00000000000006</ele><time>2026-03-28T12:49:34.837Z</time></trkpt><trkpt lat="45.6187667" lon="10.8072883"><ele>448.0</ele><time>2026-03-28T12:49:42.837Z</time></trkpt><trkpt lat="45.6186983" lon="10.8071367"><ele>446.59999999999997</ele><time>2026-03-28T12:49:44.837Z</time></trkpt><trkpt lat="45.6186467" lon="10.807045"><ele>445.19999999999993</ele><time>2026-03-28T12:49:45.838Z</time></trkpt><trkpt lat="45.6186017" lon="10.8069467"><ele>443.8</ele><time>2026-03-28T12:49:46.838Z</time></trkpt><trkpt lat="45.61856" lon="10.8068367"><ele>442.4</ele><time>2026-03-28T12:49:47.838Z</time></trkpt><trkpt lat="45.6185083" lon="10.806715"><ele>441.0</ele><time>2026-03-28T12:49:48.838Z</time></trkpt><trkpt lat="45.6184467" lon="10.8065667"><ele>441.0</ele><time>2026-03-28T12:49:49.837Z</time></trkpt><trkpt lat="45.6184033" lon="10.8064367"><ele>441.0</ele><time>2026-03-28T12:49:50.837Z</time></trkpt><trkpt lat="45.61836" lon="10.8063217"><ele>441.0</ele><time>2026-03-28T12:49:51.837Z</time></trkpt><trkpt lat="45.6183133" lon="10.80622"><ele>441.0</ele><time>2026-03-28T12:49:52.838Z</time></trkpt><trkpt lat="45.6182633" lon="10.8061017"><ele>441.0</ele><time>2026-03-28T12:49:53.837Z</time></trkpt><trkpt lat="45.61823" lon="10.8059933"><ele>443.0</ele><time>2026-03-28T12:49:54.838Z</time></trkpt><trkpt lat="45.6182033" lon="10.805895"><ele>445.0</ele><time>2026-03-28T12:49:55.837Z</time></trkpt><trkpt lat="45.6181667" lon="10.8057583"><ele>447.0</ele><time>2026-03-28T12:49:57.838Z</time></trkpt><trkpt lat="45.6181267" lon="10.8055967"><ele>449.0</ele><time>2026-03-28T12:50:10.837Z</time></trkpt><trkpt lat="45.6180733" lon="10.8055"><ele>451.0</ele><time>2026-03-28T12:51:45.838Z</time></trkpt><trkpt lat="45.61807" lon="10.80539"><ele>453.8</ele><time>2026-03-28T12:54:39.837Z</time></trkpt><trkpt lat="45.61804" lon="10.8051267"><ele>456.6</ele><time>2026-03-28T12:55:02.836Z</time></trkpt><trkpt lat="45.6180467" lon="10.8050167"><ele>459.4</ele><time>2026-03-28T12:55:04.837Z</time></trkpt><trkpt lat="45.61798" lon="10.8049867"><ele>462.2</ele><time>2026-03-28T12:55:12.836Z</time></trkpt><trkpt lat="45.6179117" lon="10.8049717"><ele>465.0</ele><time>2026-03-28T12:55:16.836Z</time></trkpt><trkpt lat="45.6178567" lon="10.8049233"><ele>460.1666666666667</ele><time>2026-03-28T12:55:18.837Z</time></trkpt><trkpt lat="45.6177983" lon="10.804825"><ele>455.33333333333337</ele><time>2026-03-28T12:55:20.837Z</time></trkpt><trkpt lat="45.6177183" lon="10.8047133"><ele>450.5</ele><time>2026-03-28T12:55:22.837Z</time></trkpt><trkpt lat="45.6176683" lon="10.804655"><ele>445.6666666666667</ele><time>2026-03-28T12:55:23.836Z</time></trkpt><trkpt lat="45.6176083" lon="10.80459"><ele>440.83333333333337</ele><time>2026-03-28T12:55:24.837Z</time></trkpt><trkpt lat="45.617545" lon="10.8045283"><ele>436.0</ele><time>2026-03-28T12:55:25.836Z</time></trkpt><trkpt lat="45.6174883" lon="10.80446"><ele>436.00000000000006</ele><time>2026-03-28T12:55:26.837Z</time></trkpt><trkpt lat="45.61743" lon="10.8043917"><ele>436.0</ele><time>2026-03-28T12:55:27.837Z</time></trkpt><trkpt lat="45.6173683" lon="10.8043317"><ele>436.0</ele><time>2026-03-28T12:55:28.836Z</time></trkpt><trkpt lat="45.6172933" lon="10.8042717"><ele>436.0</ele><time>2026-03-28T12:55:29.837Z</time></trkpt><trkpt lat="45.6172217" lon="10.8042233"><ele>436.00000000000006</ele><time>2026-03-28T12:55:30.836Z</time></trkpt><trkpt lat="45.61716" lon="10.804185"><ele>436.0</ele><time>2026-03-28T12:55:31.836Z</time></trkpt><trkpt lat="45.6170917" lon="10.8041367"><ele>437.50000000000006</ele><time>2026-03-28T12:55:32.836Z</time></trkpt><trkpt lat="45.6170267" lon="10.8040767"><ele>439.0</ele><time>2026-03-28T12:55:33.836Z</time></trkpt><trkpt lat="45.6169683" lon="10.8040133"><ele>440.5</ele><time>2026-03-28T12:55:34.837Z</time></trkpt><trkpt lat="45.6169083" lon="10.80395"><ele>442.0</ele><time>2026-03-28T12:55:35.836Z</time></trkpt><trkpt lat="45.6168417" lon="10.803885"><ele>443.50000000000006</ele><time>2026-03-28T12:55:36.836Z</time></trkpt><trkpt lat="45.61677" lon="10.8038083"><ele>445.0</ele><time>2026-03-28T12:55:37.837Z</time></trkpt><trkpt lat="45.61671" lon="10.80376"><ele>445.0</ele><time>2026-03-28T12:55:38.836Z</time></trkpt><trkpt lat="45.61661" lon="10.8036817"><ele>445.0</ele><time>2026-03-28T12:55:40.837Z</time></trkpt><trkpt lat="45.6165317" lon="10.8036417"><ele>445.0</ele><time>2026-03-28T12:55:42.836Z</time></trkpt><trkpt lat="45.6164683" lon="10.8035983"><ele>445.0</ele><time>2026-03-28T12:55:52.837Z</time></trkpt><trkpt lat="45.6163717" lon="10.8034483"><ele>445.0</ele><time>2026-03-28T12:55:54.837Z</time></trkpt><trkpt lat="45.6163083" lon="10.803355"><ele>445.5</ele><time>2026-03-28T12:55:55.837Z</time></trkpt><trkpt lat="45.6162283" lon="10.8032483"><ele>446.0</ele><time>2026-03-28T12:55:56.836Z</time></trkpt><trkpt lat="45.6161333" lon="10.8031433"><ele>446.5</ele><time>2026-03-28T12:55:57.836Z</time></trkpt><trkpt lat="45.6160383" lon="10.80303"><ele>447.0</ele><time>2026-03-28T12:55:58.837Z</time></trkpt><trkpt lat="45.6159367" lon="10.8029367"><ele>447.0</ele><time>2026-03-28T12:55:59.837Z</time></trkpt><trkpt lat="45.6158583" lon="10.8028633"><ele>447.0</ele><time>2026-03-28T12:56:00.836Z</time></trkpt><trkpt lat="45.6158" lon="10.8027983"><ele>447.0</ele><time>2026-03-28T12:56:01.836Z</time></trkpt><trkpt lat="45.615755" lon="10.8027317"><ele>447.0</ele><time>2026-03-28T12:56:02.836Z</time></trkpt><trkpt lat="45.615715" lon="10.80264"><ele>447.0</ele><time>2026-03-28T12:56:03.836Z</time></trkpt><trkpt lat="45.615675" lon="10.80253"><ele>447.0</ele><time>2026-03-28T12:56:04.837Z</time></trkpt><trkpt lat="45.615645" lon="10.8024017"><ele>445.6</ele><time>2026-03-28T12:56:05.836Z</time></trkpt><trkpt lat="45.615615" lon="10.8022683"><ele>444.20000000000005</ele><time>2026-03-28T12:56:06.836Z</time></trkpt><trkpt lat="45.61559" lon="10.80214"><ele>442.8</ele><time>2026-03-28T12:56:07.837Z</time></trkpt><trkpt lat="45.61556" lon="10.8020183"><ele>441.4</ele><time>2026-03-28T12:56:08.837Z</time></trkpt><trkpt lat="45.6155267" lon="10.801905"><ele>440.0</ele><time>2026-03-28T12:56:09.837Z</time></trkpt><trkpt lat="45.6154867" lon="10.8017967"><ele>439.99999999999994</ele><time>2026-03-28T12:56:10.837Z</time></trkpt><trkpt lat="45.6154417" lon="10.8017117"><ele>440.0</ele><time>2026-03-28T12:56:11.836Z</time></trkpt><trkpt lat="45.6153867" lon="10.8016317"><ele>440.0</ele><time>2026-03-28T12:56:12.836Z</time></trkpt><trkpt lat="45.6153483" lon="10.8015533"><ele>440.0</ele><time>2026-03-28T12:56:13.837Z</time></trkpt><trkpt lat="45.6153" lon="10.8014683"><ele>439.99999999999994</ele><time>2026-03-28T12:56:14.836Z</time></trkpt><trkpt lat="45.6152633" lon="10.8013267"><ele>440.0</ele><time>2026-03-28T12:56:16.836Z</time></trkpt><trkpt lat="45.6152633" lon="10.8011867"><ele>438.0</ele><time>2026-03-28T12:56:18.836Z</time></trkpt><trkpt lat="45.6152567" lon="10.8010533"><ele>436.0</ele><time>2026-03-28T12:56:20.837Z</time></trkpt><trkpt lat="45.615245" lon="10.800905"><ele>434.0</ele><time>2026-03-28T12:56:22.837Z</time></trkpt><trkpt lat="45.6152233" lon="10.8007617"><ele>432.0</ele><time>2026-03-28T12:56:24.837Z</time></trkpt><trkpt lat="45.6152033" lon="10.8006217"><ele>430.0</ele><time>2026-03-28T12:56:26.837Z</time></trkpt><trkpt lat="45.6152033" lon="10.8004933"><ele>428.6666666666667</ele><time>2026-03-28T12:56:28.836Z</time></trkpt><trkpt lat="45.6152133" lon="10.80034"><ele>427.33333333333337</ele><time>2026-03-28T12:56:30.837Z</time></trkpt><trkpt lat="45.6152317" lon="10.800235"><ele>426.0</ele><time>2026-03-28T12:56:32.837Z</time></trkpt><trkpt lat="45.615265" lon="10.8001483"><ele>424.66666666666663</ele><time>2026-03-28T12:56:34.837Z</time></trkpt><trkpt lat="45.615305" lon="10.8000683"><ele>423.3333333333333</ele><time>2026-03-28T12:56:36.836Z</time></trkpt><trkpt lat="45.6153417" lon="10.7999717"><ele>422.0</ele><time>2026-03-28T12:56:38.836Z</time></trkpt><trkpt lat="45.61538" lon="10.799855"><ele>424.99999999999994</ele><time>2026-03-28T12:56:40.836Z</time></trkpt><trkpt lat="45.6154" lon="10.7997583"><ele>428.0</ele><time>2026-03-28T12:56:42.835Z</time></trkpt><trkpt lat="45.6154167" lon="10.7996467"><ele>431.0</ele><time>2026-03-28T12:56:44.835Z</time></trkpt><trkpt lat="45.6154183" lon="10.7995167"><ele>434.0</ele><time>2026-03-28T12:56:46.836Z</time></trkpt><trkpt lat="45.6153983" lon="10.7993783"><ele>436.99999999999994</ele><time>2026-03-28T12:56:48.836Z</time></trkpt><trkpt lat="45.61538" lon="10.7992633"><ele>440.0</ele><time>2026-03-28T12:56:50.835Z</time></trkpt><trkpt lat="45.6153467" lon="10.7991183"><ele>433.8</ele><time>2026-03-28T12:56:52.835Z</time></trkpt><trkpt lat="45.61531" lon="10.798965"><ele>427.6</ele><time>2026-03-28T12:56:54.835Z</time></trkpt><trkpt lat="45.6152717" lon="10.79882"><ele>421.4</ele><time>2026-03-28T12:56:56.835Z</time></trkpt><trkpt lat="45.6152467" lon="10.798735"><ele>415.2</ele><time>2026-03-28T12:56:57.835Z</time></trkpt><trkpt lat="45.6152017" lon="10.7985817"><ele>409.0</ele><time>2026-03-28T12:56:59.836Z</time></trkpt><trkpt lat="45.61519" lon="10.798485"><ele>409.0</ele><time>2026-03-28T12:57:00.835Z</time></trkpt><trkpt lat="45.6151617" lon="10.7983217"><ele>409.0</ele><time>2026-03-28T12:57:02.835Z</time></trkpt><trkpt lat="45.61512" lon="10.798155"><ele>409.0</ele><time>2026-03-28T12:57:04.835Z</time></trkpt><trkpt lat="45.6150967" lon="10.7980633"><ele>409.0</ele><time>2026-03-28T12:57:05.836Z</time></trkpt><trkpt lat="45.61505" lon="10.7979317"><ele>409.0</ele><time>2026-03-28T12:57:07.835Z</time></trkpt><trkpt lat="45.6150233" lon="10.7977833"><ele>408.79999999999995</ele><time>2026-03-28T12:57:09.835Z</time></trkpt><trkpt lat="45.6149833" lon="10.7976383"><ele>408.59999999999997</ele><time>2026-03-28T12:57:11.835Z</time></trkpt><trkpt lat="45.6149517" lon="10.7975"><ele>408.4</ele><time>2026-03-28T12:57:13.836Z</time></trkpt><trkpt lat="45.6149233" lon="10.79738"><ele>408.2</ele><time>2026-03-28T12:57:15.835Z</time></trkpt><trkpt lat="45.6149033" lon="10.7972633"><ele>408.0</ele><time>2026-03-28T12:57:18.835Z</time></trkpt><trkpt lat="45.6148983" lon="10.7971617"><ele>408.0</ele><time>2026-03-28T12:57:20.835Z</time></trkpt><trkpt lat="45.6148917" lon="10.79704"><ele>408.0</ele><time>2026-03-28T12:57:22.836Z</time></trkpt><trkpt lat="45.6148967" lon="10.796925"><ele>408.0</ele><time>2026-03-28T12:57:24.835Z</time></trkpt><trkpt lat="45.6148967" lon="10.7968133"><ele>408.0</ele><time>2026-03-28T12:57:26.835Z</time></trkpt><trkpt lat="45.614885" lon="10.7966767"><ele>408.0</ele><time>2026-03-28T12:57:28.836Z</time></trkpt><trkpt lat="45.614865" lon="10.7965483"><ele>408.0</ele><time>2026-03-28T12:57:30.836Z</time></trkpt><trkpt lat="45.614835" lon="10.7964233"><ele>407.59999999999997</ele><time>2026-03-28T12:57:32.835Z</time></trkpt><trkpt lat="45.61478" lon="10.7962833"><ele>407.2</ele><time>2026-03-28T12:57:34.836Z</time></trkpt><trkpt lat="45.6147067" lon="10.7961817"><ele>406.8</ele><time>2026-03-28T12:57:36.836Z</time></trkpt><trkpt lat="45.6146367" lon="10.7961417"><ele>406.4</ele><time>2026-03-28T12:57:37.835Z</time></trkpt><trkpt lat="45.6145717" lon="10.7961167"><ele>406.0</ele><time>2026-03-28T12:57:38.836Z</time></trkpt><trkpt lat="45.6144517" lon="10.7960883"><ele>402.85714285714283</ele><time>2026-03-28T12:57:40.836Z</time></trkpt><trkpt lat="45.6143883" lon="10.79608"><ele>399.7142857142857</ele><time>2026-03-28T12:57:41.835Z</time></trkpt><trkpt lat="45.614325" lon="10.7960733"><ele>396.57142857142856</ele><time>2026-03-28T12:57:42.836Z</time></trkpt><trkpt lat="45.61426" lon="10.7960617"><ele>393.42857142857144</ele><time>2026-03-28T12:57:43.835Z</time></trkpt><trkpt lat="45.6141933" lon="10.7960417"><ele>390.2857142857143</ele><time>2026-03-28T12:57:44.835Z</time></trkpt><trkpt lat="45.614135" lon="10.7959983"><ele>387.1428571428571</ele><time>2026-03-28T12:57:45.836Z</time></trkpt><trkpt lat="45.61405" lon="10.7959183"><ele>384.0</ele><time>2026-03-28T12:57:47.835Z</time></trkpt><trkpt lat="45.613995" lon="10.7958633"><ele>384.0</ele><time>2026-03-28T12:57:49.835Z</time></trkpt><trkpt lat="45.61393" lon="10.7958367"><ele>384.0</ele><time>2026-03-28T12:57:52.835Z</time></trkpt><trkpt lat="45.6138733" lon="10.79571"><ele>384.0</ele><time>2026-03-28T12:57:55.835Z</time></trkpt><trkpt lat="45.6138583" lon="10.79562"><ele>384.0</ele><time>2026-03-28T12:57:56.835Z</time></trkpt><trkpt lat="45.61384" lon="10.7955133"><ele>384.0</ele><time>2026-03-28T12:57:57.835Z</time></trkpt><trkpt lat="45.6138133" lon="10.7953917"><ele>384.0</ele><time>2026-03-28T12:57:58.836Z</time></trkpt><trkpt lat="45.613785" lon="10.79526"><ele>385.1666666666667</ele><time>2026-03-28T12:57:59.836Z</time></trkpt><trkpt lat="45.6137533" lon="10.7951567"><ele>386.33333333333337</ele><time>2026-03-28T12:58:00.835Z</time></trkpt><trkpt lat="45.6137167" lon="10.79506"><ele>387.5</ele><time>2026-03-28T12:58:01.835Z</time></trkpt><trkpt lat="45.6136767" lon="10.7949517"><ele>388.6666666666667</ele><time>2026-03-28T12:58:02.836Z</time></trkpt><trkpt lat="45.6136383" lon="10.7948517"><ele>389.83333333333337</ele><time>2026-03-28T12:58:03.836Z</time></trkpt><trkpt lat="45.6136167" lon="10.794745"><ele>391.0</ele><time>2026-03-28T12:58:04.835Z</time></trkpt><trkpt lat="45.6136033" lon="10.794655"><ele>389.0</ele><time>2026-03-28T12:58:05.836Z</time></trkpt><trkpt lat="45.6135783" lon="10.79448"><ele>387.0</ele><time>2026-03-28T12:58:07.835Z</time></trkpt><trkpt lat="45.6135633" lon="10.79438"><ele>385.0</ele><time>2026-03-28T12:58:08.836Z</time></trkpt><trkpt lat="45.6135383" lon="10.7942517"><ele>383.0</ele><time>2026-03-28T12:58:09.835Z</time></trkpt><trkpt lat="45.6135117" lon="10.7941133"><ele>381.0</ele><time>2026-03-28T12:58:10.836Z</time></trkpt><trkpt lat="45.6134767" lon="10.7939917"><ele>381.0</ele><time>2026-03-28T12:58:11.836Z</time></trkpt><trkpt lat="45.613435" lon="10.793885"><ele>381.0</ele><time>2026-03-28T12:58:12.836Z</time></trkpt><trkpt lat="45.613385" lon="10.793775"><ele>381.0</ele><time>2026-03-28T12:58:13.835Z</time></trkpt><trkpt lat="45.6133383" lon="10.7936767"><ele>381.0</ele><time>2026-03-28T12:58:14.836Z</time></trkpt><trkpt lat="45.61329" lon="10.7935917"><ele>381.0</ele><time>2026-03-28T12:58:15.835Z</time></trkpt><trkpt lat="45.6132417" lon="10.7935183"><ele>381.0</ele><time>2026-03-28T12:58:16.835Z</time></trkpt><trkpt lat="45.6131817" lon="10.7934583"><ele>383.0</ele><time>2026-03-28T12:58:17.835Z</time></trkpt><trkpt lat="45.6131133" lon="10.7933933"><ele>385.0</ele><time>2026-03-28T12:58:18.836Z</time></trkpt><trkpt lat="45.6130333" lon="10.79333"><ele>387.0</ele><time>2026-03-28T12:58:19.836Z</time></trkpt><trkpt lat="45.6129567" lon="10.7932583"><ele>389.0</ele><time>2026-03-28T12:58:20.836Z</time></trkpt><trkpt lat="45.6128833" lon="10.793185"><ele>391.0</ele><time>2026-03-28T12:58:21.836Z</time></trkpt><trkpt lat="45.6128283" lon="10.7931083"><ele>393.0</ele><time>2026-03-28T12:58:22.836Z</time></trkpt><trkpt lat="45.6127717" lon="10.7930233"><ele>390.1666666666667</ele><time>2026-03-28T12:58:23.835Z</time></trkpt><trkpt lat="45.6127217" lon="10.79293"><ele>387.3333333333333</ele><time>2026-03-28T12:58:24.836Z</time></trkpt><trkpt lat="45.6126683" lon="10.7928317"><ele>384.5</ele><time>2026-03-28T12:58:25.835Z</time></trkpt><trkpt lat="45.612625" lon="10.792735"><ele>381.66666666666663</ele><time>2026-03-28T12:58:26.836Z</time></trkpt><trkpt lat="45.6125967" lon="10.7926383"><ele>378.8333333333333</ele><time>2026-03-28T12:58:27.835Z</time></trkpt><trkpt lat="45.6125817" lon="10.7925467"><ele>376.0</ele><time>2026-03-28T12:58:28.836Z</time></trkpt><trkpt lat="45.6125783" lon="10.7924533"><ele>376.0</ele><time>2026-03-28T12:58:29.836Z</time></trkpt><trkpt lat="45.6125783" lon="10.79235"><ele>376.0</ele><time>2026-03-28T12:58:30.835Z</time></trkpt><trkpt lat="45.612585" lon="10.7922517"><ele>376.0</ele><time>2026-03-28T12:58:31.835Z</time></trkpt><trkpt lat="45.61261" lon="10.792155"><ele>376.0</ele><time>2026-03-28T12:58:32.835Z</time></trkpt><trkpt lat="45.6126417" lon="10.7920667"><ele>376.0</ele><time>2026-03-28T12:58:33.835Z</time></trkpt><trkpt lat="45.6126783" lon="10.7919867"><ele>376.0</ele><time>2026-03-28T12:58:34.836Z</time></trkpt><trkpt lat="45.612715" lon="10.7919033"><ele>376.0</ele><time>2026-03-28T12:58:35.835Z</time></trkpt><trkpt lat="45.612725" lon="10.7917083"><ele>375.4</ele><time>2026-03-28T12:58:37.836Z</time></trkpt><trkpt lat="45.612715" lon="10.7915583"><ele>374.8</ele><time>2026-03-28T12:58:38.835Z</time></trkpt><trkpt lat="45.6127033" lon="10.791405"><ele>374.2</ele><time>2026-03-28T12:58:39.836Z</time></trkpt><trkpt lat="45.6126883" lon="10.7912517"><ele>373.59999999999997</ele><time>2026-03-28T12:58:40.835Z</time></trkpt><trkpt lat="45.6126783" lon="10.7910983"><ele>373.0</ele><time>2026-03-28T12:58:41.835Z</time></trkpt><trkpt lat="45.6126667" lon="10.790955"><ele>372.2</ele><time>2026-03-28T12:58:42.835Z</time></trkpt><trkpt lat="45.6126567" lon="10.790815"><ele>371.4</ele><time>2026-03-28T12:58:43.835Z</time></trkpt><trkpt lat="45.6126383" lon="10.7906783"><ele>370.59999999999997</ele><time>2026-03-28T12:58:44.836Z</time></trkpt><trkpt lat="45.61262" lon="10.7905433"><ele>369.79999999999995</ele><time>2026-03-28T12:58:45.835Z</time></trkpt><trkpt lat="45.6125883" lon="10.7903917"><ele>369.0</ele><time>2026-03-28T12:58:46.836Z</time></trkpt><trkpt lat="45.61254" lon="10.7902417"><ele>369.5</ele><time>2026-03-28T12:58:47.835Z</time></trkpt><trkpt lat="45.6124783" lon="10.7900733"><ele>370.0</ele><time>2026-03-28T12:58:48.836Z</time></trkpt><trkpt lat="45.612415" lon="10.7899183"><ele>370.5</ele><time>2026-03-28T12:58:49.835Z</time></trkpt><trkpt lat="45.6123333" lon="10.7897833"><ele>371.0</ele><time>2026-03-28T12:58:50.836Z</time></trkpt><trkpt lat="45.6122417" lon="10.7896633"><ele>371.0</ele><time>2026-03-28T12:58:51.835Z</time></trkpt><trkpt lat="45.612145" lon="10.7895417"><ele>371.0</ele><time>2026-03-28T12:58:52.836Z</time></trkpt><trkpt lat="45.612045" lon="10.789405"><ele>371.0</ele><time>2026-03-28T12:58:53.836Z</time></trkpt><trkpt lat="45.6119433" lon="10.7892667"><ele>371.0</ele><time>2026-03-28T12:58:54.835Z</time></trkpt><trkpt lat="45.6118517" lon="10.7891333"><ele>368.20000000000005</ele><time>2026-03-28T12:58:55.835Z</time></trkpt><trkpt lat="45.6117683" lon="10.7890117"><ele>365.40000000000003</ele><time>2026-03-28T12:58:56.835Z</time></trkpt><trkpt lat="45.6117167" lon="10.788885"><ele>362.6</ele><time>2026-03-28T12:58:57.835Z</time></trkpt><trkpt lat="45.6116883" lon="10.788745"><ele>359.8</ele><time>2026-03-28T12:58:58.836Z</time></trkpt><trkpt lat="45.6116833" lon="10.7886033"><ele>357.0</ele><time>2026-03-28T12:58:59.835Z</time></trkpt><trkpt lat="45.61169" lon="10.7884733"><ele>357.0</ele><time>2026-03-28T12:59:00.835Z</time></trkpt><trkpt lat="45.6117067" lon="10.7883317"><ele>357.0</ele><time>2026-03-28T12:59:01.836Z</time></trkpt><trkpt lat="45.6117333" lon="10.7881833"><ele>357.0</ele><time>2026-03-28T12:59:02.835Z</time></trkpt><trkpt lat="45.6117717" lon="10.788035"><ele>357.0</ele><time>2026-03-28T12:59:03.836Z</time></trkpt><trkpt lat="45.6118283" lon="10.7878967"><ele>357.0</ele><time>2026-03-28T12:59:04.835Z</time></trkpt><trkpt lat="45.611905" lon="10.787745"><ele>355.8</ele><time>2026-03-28T12:59:05.835Z</time></trkpt><trkpt lat="45.6119733" lon="10.787585"><ele>354.6</ele><time>2026-03-28T12:59:06.836Z</time></trkpt><trkpt lat="45.6120017" lon="10.78743"><ele>353.40000000000003</ele><time>2026-03-28T12:59:07.835Z</time></trkpt><trkpt lat="45.61201" lon="10.7872883"><ele>352.20000000000005</ele><time>2026-03-28T12:59:08.835Z</time></trkpt><trkpt lat="45.6120083" lon="10.7871583"><ele>351.0</ele><time>2026-03-28T12:59:09.835Z</time></trkpt><trkpt lat="45.6119917" lon="10.7870467"><ele>351.0</ele><time>2026-03-28T12:59:10.836Z</time></trkpt><trkpt lat="45.6119617" lon="10.786945"><ele>351.0</ele><time>2026-03-28T12:59:11.835Z</time></trkpt><trkpt lat="45.6119033" lon="10.7868667"><ele>351.0</ele><time>2026-03-28T12:59:12.836Z</time></trkpt><trkpt lat="45.6118183" lon="10.7868033"><ele>351.0</ele><time>2026-03-28T12:59:13.836Z</time></trkpt><trkpt lat="45.6117233" lon="10.7867417"><ele>351.0</ele><time>2026-03-28T12:59:14.835Z</time></trkpt><trkpt lat="45.6116167" lon="10.786645"><ele>351.25</ele><time>2026-03-28T12:59:15.836Z</time></trkpt><trkpt lat="45.6115067" lon="10.786535"><ele>351.5</ele><time>2026-03-28T12:59:16.836Z</time></trkpt><trkpt lat="45.61141" lon="10.786405"><ele>351.75</ele><time>2026-03-28T12:59:17.836Z</time></trkpt><trkpt lat="45.6113183" lon="10.7862667"><ele>352.0</ele><time>2026-03-28T12:59:18.835Z</time></trkpt><trkpt lat="45.61124" lon="10.7861333"><ele>353.0</ele><time>2026-03-28T12:59:19.835Z</time></trkpt><trkpt lat="45.6111833" lon="10.785985"><ele>354.0</ele><time>2026-03-28T12:59:20.836Z</time></trkpt><trkpt lat="45.61114" lon="10.785845"><ele>355.0</ele><time>2026-03-28T12:59:21.835Z</time></trkpt><trkpt lat="45.61112" lon="10.7857317"><ele>356.0</ele><time>2026-03-28T12:59:22.835Z</time></trkpt><trkpt lat="45.6110933" lon="10.7856283"><ele>357.0</ele><time>2026-03-28T12:59:23.835Z</time></trkpt><trkpt lat="45.6110567" lon="10.7855533"><ele>358.0</ele><time>2026-03-28T12:59:24.836Z</time></trkpt><trkpt lat="45.6110267" lon="10.785425"><ele>358.0</ele><time>2026-03-28T12:59:26.835Z</time></trkpt><trkpt lat="45.6110917" lon="10.7853917"><ele>358.0</ele><time>2026-03-28T12:59:30.836Z</time></trkpt><trkpt lat="45.6111533" lon="10.7854583"><ele>358.0</ele><time>2026-03-28T12:59:50.836Z</time></trkpt><trkpt lat="45.6112567" lon="10.7854933"><ele>358.0</ele><time>2026-03-28T13:01:37.834Z</time></trkpt><trkpt lat="45.6113817" lon="10.7854683"><ele>358.0</ele><time>2026-03-28T13:01:39.834Z</time></trkpt><trkpt lat="45.6114733" lon="10.785435"><ele>358.0</ele><time>2026-03-28T13:01:40.835Z</time></trkpt><trkpt lat="45.6115583" lon="10.7853817"><ele>358.0</ele><time>2026-03-28T13:01:41.835Z</time></trkpt><trkpt lat="45.611625" lon="10.78533"><ele>358.0</ele><time>2026-03-28T13:01:42.834Z</time></trkpt><trkpt lat="45.6116783" lon="10.7852717"><ele>358.0</ele><time>2026-03-28T13:01:43.835Z</time></trkpt><trkpt lat="45.6117217" lon="10.785205"><ele>358.0</ele><time>2026-03-28T13:01:44.835Z</time></trkpt><trkpt lat="45.61177" lon="10.7850933"><ele>358.0</ele><time>2026-03-28T13:01:46.834Z</time></trkpt><trkpt lat="45.6118017" lon="10.78499"><ele>358.25</ele><time>2026-03-28T13:01:48.834Z</time></trkpt><trkpt lat="45.6118117" lon="10.784885"><ele>358.5</ele><time>2026-03-28T13:01:49.834Z</time></trkpt><trkpt lat="45.6118133" lon="10.7847383"><ele>358.75</ele><time>2026-03-28T13:01:50.834Z</time></trkpt><trkpt lat="45.611805" lon="10.78455"><ele>359.0</ele><time>2026-03-28T13:01:51.835Z</time></trkpt><trkpt lat="45.611785" lon="10.7843367"><ele>359.6666666666667</ele><time>2026-03-28T13:01:52.834Z</time></trkpt><trkpt lat="45.6117583" lon="10.7840967"><ele>360.3333333333333</ele><time>2026-03-28T13:01:53.834Z</time></trkpt><trkpt lat="45.6117333" lon="10.78383"><ele>361.0</ele><time>2026-03-28T13:01:54.835Z</time></trkpt><trkpt lat="45.61171" lon="10.7835533"><ele>362.0</ele><time>2026-03-28T13:01:55.835Z</time></trkpt><trkpt lat="45.611685" lon="10.7832667"><ele>363.0</ele><time>2026-03-28T13:01:56.834Z</time></trkpt><trkpt lat="45.6116633" lon="10.7829767"><ele>364.0</ele><time>2026-03-28T13:01:57.834Z</time></trkpt><trkpt lat="45.6116483" lon="10.7826733"><ele>366.0</ele><time>2026-03-28T13:01:58.834Z</time></trkpt><trkpt lat="45.6116383" lon="10.78237"><ele>368.0</ele><time>2026-03-28T13:01:59.835Z</time></trkpt><trkpt lat="45.6116333" lon="10.7820633"><ele>370.0</ele><time>2026-03-28T13:02:00.835Z</time></trkpt><trkpt lat="45.6116333" lon="10.7817467"><ele>370.66666666666663</ele><time>2026-03-28T13:02:01.834Z</time></trkpt><trkpt lat="45.6116317" lon="10.781445"><ele>371.3333333333333</ele><time>2026-03-28T13:02:02.834Z</time></trkpt><trkpt lat="45.611625" lon="10.78117"><ele>372.0</ele><time>2026-03-28T13:02:03.834Z</time></trkpt><trkpt lat="45.6116017" lon="10.780915"><ele>373.3333333333333</ele><time>2026-03-28T13:02:04.835Z</time></trkpt><trkpt lat="45.6115467" lon="10.7806783"><ele>374.66666666666663</ele><time>2026-03-28T13:02:05.835Z</time></trkpt><trkpt lat="45.6114817" lon="10.780465"><ele>376.0</ele><time>2026-03-28T13:02:06.834Z</time></trkpt><trkpt lat="45.6114083" lon="10.7802833"><ele>377.4</ele><time>2026-03-28T13:02:07.835Z</time></trkpt><trkpt lat="45.61135" lon="10.7801417"><ele>378.8</ele><time>2026-03-28T13:02:08.835Z</time></trkpt><trkpt lat="45.6113183" lon="10.78"><ele>380.2</ele><time>2026-03-28T13:02:09.834Z</time></trkpt><trkpt lat="45.6113067" lon="10.7798617"><ele>381.59999999999997</ele><time>2026-03-28T13:02:10.834Z</time></trkpt><trkpt lat="45.61131" lon="10.7797133"><ele>383.0</ele><time>2026-03-28T13:02:11.834Z</time></trkpt><trkpt lat="45.6113133" lon="10.7795633"><ele>383.0</ele><time>2026-03-28T13:02:12.835Z</time></trkpt><trkpt lat="45.6113167" lon="10.7794217"><ele>383.0</ele><time>2026-03-28T13:02:13.834Z</time></trkpt><trkpt lat="45.611325" lon="10.7793"><ele>383.0</ele><time>2026-03-28T13:02:14.835Z</time></trkpt><trkpt lat="45.6113367" lon="10.7792033"><ele>383.0</ele><time>2026-03-28T13:02:15.835Z</time></trkpt><trkpt lat="45.61136" lon="10.7791"><ele>383.0</ele><time>2026-03-28T13:02:17.835Z</time></trkpt><trkpt lat="45.6113" lon="10.779195"><ele>383.0</ele><time>2026-03-28T13:02:21.834Z</time></trkpt><trkpt lat="45.6112917" lon="10.77934"><ele>383.0</ele><time>2026-03-28T13:02:22.834Z</time></trkpt><trkpt lat="45.6112817" lon="10.7795183"><ele>383.0</ele><time>2026-03-28T13:02:23.835Z</time></trkpt><trkpt lat="45.611275" lon="10.7797017"><ele>383.0</ele><time>2026-03-28T13:02:24.835Z</time></trkpt><trkpt lat="45.6112617" lon="10.779875"><ele>383.0</ele><time>2026-03-28T13:02:25.834Z</time></trkpt><trkpt lat="45.6112633" lon="10.7800217"><ele>383.0</ele><time>2026-03-28T13:02:26.835Z</time></trkpt><trkpt lat="45.6112617" lon="10.7801267"><ele>383.0</ele><time>2026-03-28T13:02:27.834Z</time></trkpt><trkpt lat="45.6111917" lon="10.7802183"><ele>383.0</ele><time>2026-03-28T13:02:29.835Z</time></trkpt><trkpt lat="45.6111167" lon="10.78023"><ele>383.0</ele><time>2026-03-28T13:02:30.834Z</time></trkpt><trkpt lat="45.6110317" lon="10.78024"><ele>383.0</ele><time>2026-03-28T13:02:31.834Z</time></trkpt><trkpt lat="45.6109617" lon="10.78025"><ele>383.0</ele><time>2026-03-28T13:02:32.834Z</time></trkpt><trkpt lat="45.6108633" lon="10.7802367"><ele>380.83333333333337</ele><time>2026-03-28T13:02:34.834Z</time></trkpt><trkpt lat="45.6108017" lon="10.7802"><ele>378.6666666666667</ele><time>2026-03-28T13:02:35.834Z</time></trkpt><trkpt lat="45.6107283" lon="10.7801383"><ele>376.5</ele><time>2026-03-28T13:02:36.834Z</time></trkpt><trkpt lat="45.6106433" lon="10.780065"><ele>374.3333333333333</ele><time>2026-03-28T13:02:37.835Z</time></trkpt><trkpt lat="45.6105567" lon="10.7800117"><ele>372.16666666666663</ele><time>2026-03-28T13:02:38.835Z</time></trkpt><trkpt lat="45.6104617" lon="10.779975"><ele>370.0</ele><time>2026-03-28T13:02:39.835Z</time></trkpt><trkpt lat="45.61036" lon="10.7799383"><ele>367.2</ele><time>2026-03-28T13:02:40.835Z</time></trkpt><trkpt lat="45.61026" lon="10.779905"><ele>364.4</ele><time>2026-03-28T13:02:41.834Z</time></trkpt><trkpt lat="45.6101717" lon="10.77988"><ele>361.6</ele><time>2026-03-28T13:02:42.834Z</time></trkpt><trkpt lat="45.610095" lon="10.779855"><ele>358.8</ele><time>2026-03-28T13:02:43.834Z</time></trkpt><trkpt lat="45.6100333" lon="10.77982"><ele>356.0</ele><time>2026-03-28T13:02:44.835Z</time></trkpt><trkpt lat="45.609915" lon="10.7797533"><ele>356.0</ele><time>2026-03-28T13:02:46.834Z</time></trkpt><trkpt lat="45.6098417" lon="10.7797417"><ele>356.0</ele><time>2026-03-28T13:02:47.834Z</time></trkpt><trkpt lat="45.60976" lon="10.7797567"><ele>356.0</ele><time>2026-03-28T13:02:48.835Z</time></trkpt><trkpt lat="45.6096517" lon="10.77979"><ele>356.0</ele><time>2026-03-28T13:02:49.834Z</time></trkpt><trkpt lat="45.6095333" lon="10.7798233"><ele>356.0</ele><time>2026-03-28T13:02:50.834Z</time></trkpt><trkpt lat="45.6094267" lon="10.7798333"><ele>351.5</ele><time>2026-03-28T13:02:51.834Z</time></trkpt><trkpt lat="45.609325" lon="10.7798383"><ele>347.0</ele><time>2026-03-28T13:02:52.834Z</time></trkpt><trkpt lat="45.6092083" lon="10.7798167"><ele>342.5</ele><time>2026-03-28T13:02:53.835Z</time></trkpt><trkpt lat="45.609085" lon="10.779795"><ele>338.0</ele><time>2026-03-28T13:02:54.834Z</time></trkpt><trkpt lat="45.6089633" lon="10.7797767"><ele>338.0</ele><time>2026-03-28T13:02:55.834Z</time></trkpt><trkpt lat="45.6088517" lon="10.7797217"><ele>338.0</ele><time>2026-03-28T13:02:56.834Z</time></trkpt><trkpt lat="45.608745" lon="10.7796517"><ele>338.0</ele><time>2026-03-28T13:02:57.834Z</time></trkpt><trkpt lat="45.6086217" lon="10.7795633"><ele>338.0</ele><time>2026-03-28T13:02:58.835Z</time></trkpt><trkpt lat="45.6084833" lon="10.7794667"><ele>336.0</ele><time>2026-03-28T13:02:59.835Z</time></trkpt><trkpt lat="45.6083533" lon="10.7793883"><ele>334.0</ele><time>2026-03-28T13:03:00.834Z</time></trkpt><trkpt lat="45.6082117" lon="10.779315"><ele>332.0</ele><time>2026-03-28T13:03:01.834Z</time></trkpt><trkpt lat="45.608085" lon="10.7792633"><ele>330.0</ele><time>2026-03-28T13:03:02.834Z</time></trkpt><trkpt lat="45.6079667" lon="10.77921"><ele>330.0</ele><time>2026-03-28T13:03:03.835Z</time></trkpt><trkpt lat="45.6078633" lon="10.7791583"><ele>330.0</ele><time>2026-03-28T13:03:04.835Z</time></trkpt><trkpt lat="45.607765" lon="10.779105"><ele>330.0</ele><time>2026-03-28T13:03:05.834Z</time></trkpt><trkpt lat="45.607665" lon="10.7790583"><ele>330.0</ele><time>2026-03-28T13:03:06.835Z</time></trkpt><trkpt lat="45.6075517" lon="10.7790033"><ele>330.0</ele><time>2026-03-28T13:03:07.834Z</time></trkpt><trkpt lat="45.607425" lon="10.7789467"><ele>328.5</ele><time>2026-03-28T13:03:08.834Z</time></trkpt><trkpt lat="45.6073033" lon="10.7788883"><ele>327.0</ele><time>2026-03-28T13:03:09.835Z</time></trkpt><trkpt lat="45.6071867" lon="10.778845"><ele>325.5</ele><time>2026-03-28T13:03:10.834Z</time></trkpt><trkpt lat="45.6070733" lon="10.778835"><ele>324.0</ele><time>2026-03-28T13:03:11.834Z</time></trkpt><trkpt lat="45.606965" lon="10.778835"><ele>321.59999999999997</ele><time>2026-03-28T13:03:12.834Z</time></trkpt><trkpt lat="45.6068683" lon="10.7788217"><ele>319.2</ele><time>2026-03-28T13:03:13.834Z</time></trkpt><trkpt lat="45.606775" lon="10.7788"><ele>316.79999999999995</ele><time>2026-03-28T13:03:14.835Z</time></trkpt><trkpt lat="45.6066883" lon="10.7787733"><ele>314.4</ele><time>2026-03-28T13:03:15.834Z</time></trkpt><trkpt lat="45.6066017" lon="10.778755"><ele>312.0</ele><time>2026-03-28T13:03:16.835Z</time></trkpt><trkpt lat="45.6065233" lon="10.7787217"><ele>312.0</ele><time>2026-03-28T13:03:17.834Z</time></trkpt><trkpt lat="45.606445" lon="10.7787083"><ele>312.0</ele><time>2026-03-28T13:03:18.834Z</time></trkpt><trkpt lat="45.6063817" lon="10.7786817"><ele>312.0</ele><time>2026-03-28T13:03:19.834Z</time></trkpt><trkpt lat="45.6062583" lon="10.7786367"><ele>312.0</ele><time>2026-03-28T13:03:21.835Z</time></trkpt><trkpt lat="45.6061917" lon="10.7786033"><ele>312.0</ele><time>2026-03-28T13:03:22.834Z</time></trkpt><trkpt lat="45.6060983" lon="10.7785667"><ele>312.0</ele><time>2026-03-28T13:03:24.835Z</time></trkpt><trkpt lat="45.6060117" lon="10.778545"><ele>308.2</ele><time>2026-03-28T13:03:26.834Z</time></trkpt><trkpt lat="45.6059167" lon="10.7785283"><ele>304.4</ele><time>2026-03-28T13:03:28.834Z</time></trkpt><trkpt lat="45.60583" lon="10.7785217"><ele>300.6</ele><time>2026-03-28T13:03:30.835Z</time></trkpt><trkpt lat="45.6057217" lon="10.7785183"><ele>296.8</ele><time>2026-03-28T13:03:32.834Z</time></trkpt><trkpt lat="45.605625" lon="10.77852"><ele>293.0</ele><time>2026-03-28T13:03:34.835Z</time></trkpt><trkpt lat="45.6055417" lon="10.7785183"><ele>292.4</ele><time>2026-03-28T13:03:36.834Z</time></trkpt><trkpt lat="45.6054533" lon="10.7785017"><ele>291.8</ele><time>2026-03-28T13:03:38.834Z</time></trkpt><trkpt lat="45.605365" lon="10.7784967"><ele>291.2</ele><time>2026-03-28T13:03:40.834Z</time></trkpt><trkpt lat="45.6052633" lon="10.7784933"><ele>290.6</ele><time>2026-03-28T13:03:42.835Z</time></trkpt><trkpt lat="45.605165" lon="10.7784817"><ele>290.0</ele><time>2026-03-28T13:03:44.835Z</time></trkpt><trkpt lat="45.605075" lon="10.7784633"><ele>287.33333333333337</ele><time>2026-03-28T13:03:46.835Z</time></trkpt><trkpt lat="45.6049933" lon="10.7784217"><ele>284.6666666666667</ele><time>2026-03-28T13:03:48.835Z</time></trkpt><trkpt lat="45.604915" lon="10.7783817"><ele>282.0</ele><time>2026-03-28T13:03:50.834Z</time></trkpt><trkpt lat="45.6048267" lon="10.7783433"><ele>279.3333333333333</ele><time>2026-03-28T13:03:52.834Z</time></trkpt><trkpt lat="45.6047367" lon="10.77833"><ele>276.66666666666663</ele><time>2026-03-28T13:03:54.834Z</time></trkpt><trkpt lat="45.604675" lon="10.7783067"><ele>274.0</ele><time>2026-03-28T13:03:56.834Z</time></trkpt><trkpt lat="45.60461" lon="10.7782883"><ele>274.0</ele><time>2026-03-28T13:03:58.835Z</time></trkpt><trkpt lat="45.6045533" lon="10.77824"><ele>274.0</ele><time>2026-03-28T13:04:00.835Z</time></trkpt><trkpt lat="45.6044883" lon="10.778155"><ele>274.0</ele><time>2026-03-28T13:04:02.835Z</time></trkpt><trkpt lat="45.6044033" lon="10.77813"><ele>274.0</ele><time>2026-03-28T13:04:04.834Z</time></trkpt><trkpt lat="45.604295" lon="10.7781767"><ele>274.0</ele><time>2026-03-28T13:04:06.835Z</time></trkpt><trkpt lat="45.6041733" lon="10.7781733"><ele>271.59999999999997</ele><time>2026-03-28T13:04:08.835Z</time></trkpt><trkpt lat="45.60405" lon="10.7781883"><ele>269.2</ele><time>2026-03-28T13:04:10.835Z</time></trkpt><trkpt lat="45.6039867" lon="10.7781783"><ele>266.79999999999995</ele><time>2026-03-28T13:04:11.834Z</time></trkpt><trkpt lat="45.6039133" lon="10.7781517"><ele>264.4</ele><time>2026-03-28T13:04:12.835Z</time></trkpt><trkpt lat="45.6038183" lon="10.7781317"><ele>262.0</ele><time>2026-03-28T13:04:13.835Z</time></trkpt><trkpt lat="45.60371" lon="10.778095"><ele>259.8</ele><time>2026-03-28T13:04:14.834Z</time></trkpt><trkpt lat="45.6035867" lon="10.7780633"><ele>257.6</ele><time>2026-03-28T13:04:15.835Z</time></trkpt><trkpt lat="45.6034767" lon="10.7780533"><ele>255.40000000000003</ele><time>2026-03-28T13:04:16.834Z</time></trkpt><trkpt lat="45.603385" lon="10.77805"><ele>253.20000000000002</ele><time>2026-03-28T13:04:17.834Z</time></trkpt><trkpt lat="45.6033167" lon="10.7780767"><ele>251.0</ele><time>2026-03-28T13:04:18.834Z</time></trkpt><trkpt lat="45.6032367" lon="10.7780933"><ele>251.00000000000003</ele><time>2026-03-28T13:04:20.834Z</time></trkpt><trkpt lat="45.60317" lon="10.7781117"><ele>251.0</ele><time>2026-03-28T13:04:24.835Z</time></trkpt><trkpt lat="45.603145" lon="10.7782633"><ele>251.0</ele><time>2026-03-28T13:04:30.834Z</time></trkpt><trkpt lat="45.6031633" lon="10.7783783"><ele>251.0</ele><time>2026-03-28T13:04:32.834Z</time></trkpt><trkpt lat="45.603185" lon="10.778475"><ele>251.00000000000003</ele><time>2026-03-28T13:04:34.835Z</time></trkpt><trkpt lat="45.6032133" lon="10.7785833"><ele>251.0</ele><time>2026-03-28T13:04:37.835Z</time></trkpt><trkpt lat="45.6032467" lon="10.7786933"><ele>250.4</ele><time>2026-03-28T13:04:41.834Z</time></trkpt><trkpt lat="45.603285" lon="10.7788083"><ele>249.8</ele><time>2026-03-28T13:04:51.835Z</time></trkpt><trkpt lat="45.6033383" lon="10.778975"><ele>249.20000000000002</ele><time>2026-03-28T13:04:53.834Z</time></trkpt><trkpt lat="45.6033783" lon="10.7790933"><ele>248.60000000000002</ele><time>2026-03-28T13:04:54.835Z</time></trkpt><trkpt lat="45.6034133" lon="10.7792233"><ele>248.0</ele><time>2026-03-28T13:04:55.835Z</time></trkpt><trkpt lat="45.6034467" lon="10.7793783"><ele>247.25</ele><time>2026-03-28T13:04:56.834Z</time></trkpt><trkpt lat="45.6034783" lon="10.7795517"><ele>246.5</ele><time>2026-03-28T13:04:57.835Z</time></trkpt><trkpt lat="45.6035017" lon="10.7797367"><ele>245.75</ele><time>2026-03-28T13:04:58.834Z</time></trkpt><trkpt lat="45.6035267" lon="10.7799283"><ele>245.0</ele><time>2026-03-28T13:04:59.835Z</time></trkpt><trkpt lat="45.60356" lon="10.78013"><ele>245.0</ele><time>2026-03-28T13:05:00.834Z</time></trkpt><trkpt lat="45.6035967" lon="10.780325"><ele>245.0</ele><time>2026-03-28T13:05:01.835Z</time></trkpt><trkpt lat="45.6036333" lon="10.7805183"><ele>245.0</ele><time>2026-03-28T13:05:02.834Z</time></trkpt><trkpt lat="45.6036633" lon="10.7806917"><ele>245.0</ele><time>2026-03-28T13:05:03.834Z</time></trkpt><trkpt lat="45.60369" lon="10.780845"><ele>245.33333333333334</ele><time>2026-03-28T13:05:04.834Z</time></trkpt><trkpt lat="45.6037133" lon="10.7809783"><ele>245.66666666666669</ele><time>2026-03-28T13:05:05.834Z</time></trkpt><trkpt lat="45.6037283" lon="10.78109"><ele>246.0</ele><time>2026-03-28T13:05:06.835Z</time></trkpt><trkpt lat="45.603685" lon="10.781225"><ele>246.33333333333331</ele><time>2026-03-28T13:05:08.835Z</time></trkpt><trkpt lat="45.6036367" lon="10.7812867"><ele>246.66666666666666</ele><time>2026-03-28T13:05:09.834Z</time></trkpt><trkpt lat="45.603575" lon="10.7813367"><ele>247.0</ele><time>2026-03-28T13:05:10.834Z</time></trkpt><trkpt lat="45.603495" lon="10.7813683"><ele>247.0</ele><time>2026-03-28T13:05:11.834Z</time></trkpt><trkpt lat="45.6033967" lon="10.7813817"><ele>247.0</ele><time>2026-03-28T13:05:12.833Z</time></trkpt><trkpt lat="45.6032883" lon="10.7814"><ele>247.0</ele><time>2026-03-28T13:05:13.834Z</time></trkpt><trkpt lat="45.603165" lon="10.78143"><ele>247.0</ele><time>2026-03-28T13:05:14.833Z</time></trkpt><trkpt lat="45.603045" lon="10.7814617"><ele>247.0</ele><time>2026-03-28T13:05:15.834Z</time></trkpt><trkpt lat="45.602935" lon="10.781485"><ele>247.0</ele><time>2026-03-28T13:05:16.833Z</time></trkpt><trkpt lat="45.6028367" lon="10.78151"><ele>247.0</ele><time>2026-03-28T13:05:17.833Z</time></trkpt><trkpt lat="45.6027533" lon="10.7815183"><ele>247.0</ele><time>2026-03-28T13:05:18.833Z</time></trkpt><trkpt lat="45.6026583" lon="10.7815633"><ele>247.0</ele><time>2026-03-28T13:05:20.834Z</time></trkpt><trkpt lat="45.6026433" lon="10.7817233"><ele>246.33333333333331</ele><time>2026-03-28T13:05:22.833Z</time></trkpt><trkpt lat="45.6026517" lon="10.78185"><ele>245.66666666666666</ele><time>2026-03-28T13:05:23.833Z</time></trkpt><trkpt lat="45.60267" lon="10.7819833"><ele>245.0</ele><time>2026-03-28T13:05:24.834Z</time></trkpt><trkpt lat="45.60269" lon="10.782105"><ele>244.33333333333331</ele><time>2026-03-28T13:05:25.833Z</time></trkpt><trkpt lat="45.6027067" lon="10.7822017"><ele>243.66666666666666</ele><time>2026-03-28T13:05:26.833Z</time></trkpt><trkpt lat="45.6027167" lon="10.78232"><ele>243.0</ele><time>2026-03-28T13:05:28.834Z</time></trkpt><trkpt lat="45.6026633" lon="10.7824217"><ele>243.0</ele><time>2026-03-28T13:05:31.833Z</time></trkpt><trkpt lat="45.6025883" lon="10.78246"><ele>243.0</ele><time>2026-03-28T13:05:33.833Z</time></trkpt><trkpt lat="45.6024867" lon="10.782525"><ele>243.0</ele><time>2026-03-28T13:05:35.833Z</time></trkpt><trkpt lat="45.6023767" lon="10.78259"><ele>243.0</ele><time>2026-03-28T13:05:37.833Z</time></trkpt><trkpt lat="45.6022633" lon="10.7826417"><ele>243.0</ele><time>2026-03-28T13:05:39.834Z</time></trkpt><trkpt lat="45.6021967" lon="10.7826733"><ele>243.0</ele><time>2026-03-28T13:05:40.833Z</time></trkpt><trkpt lat="45.6021183" lon="10.7827067"><ele>243.0</ele><time>2026-03-28T13:05:41.833Z</time></trkpt><trkpt lat="45.6020283" lon="10.7827467"><ele>243.0</ele><time>2026-03-28T13:05:42.833Z</time></trkpt><trkpt lat="45.6019317" lon="10.7827967"><ele>243.0</ele><time>2026-03-28T13:05:43.833Z</time></trkpt><trkpt lat="45.6018283" lon="10.7828517"><ele>243.0</ele><time>2026-03-28T13:05:44.833Z</time></trkpt><trkpt lat="45.6017067" lon="10.782905"><ele>241.75</ele><time>2026-03-28T13:05:45.834Z</time></trkpt><trkpt lat="45.60157" lon="10.782975"><ele>240.5</ele><time>2026-03-28T13:05:46.833Z</time></trkpt><trkpt lat="45.60142" lon="10.7830517"><ele>239.25</ele><time>2026-03-28T13:05:47.834Z</time></trkpt><trkpt lat="45.601285" lon="10.78312"><ele>238.0</ele><time>2026-03-28T13:05:48.834Z</time></trkpt><trkpt lat="45.6011567" lon="10.783175"><ele>237.49999999999997</ele><time>2026-03-28T13:05:49.833Z</time></trkpt><trkpt lat="45.6010567" lon="10.783215"><ele>237.0</ele><time>2026-03-28T13:05:50.833Z</time></trkpt><trkpt lat="45.6009767" lon="10.7832583"><ele>236.5</ele><time>2026-03-28T13:05:51.834Z</time></trkpt><trkpt lat="45.6009033" lon="10.7832967"><ele>236.0</ele><time>2026-03-28T13:05:52.834Z</time></trkpt><trkpt lat="45.6008367" lon="10.7833333"><ele>235.49999999999997</ele><time>2026-03-28T13:05:53.833Z</time></trkpt><trkpt lat="45.6007367" lon="10.78338"><ele>235.0</ele><time>2026-03-28T13:05:55.834Z</time></trkpt><trkpt lat="45.6006783" lon="10.783295"><ele>235.0</ele><time>2026-03-28T13:05:58.833Z</time></trkpt><trkpt lat="45.6006517" lon="10.7831583"><ele>235.0</ele><time>2026-03-28T13:06:00.834Z</time></trkpt><trkpt lat="45.6006233" lon="10.78306"><ele>235.0</ele><time>2026-03-28T13:06:01.833Z</time></trkpt><trkpt lat="45.600585" lon="10.7829417"><ele>235.0</ele><time>2026-03-28T13:06:02.834Z</time></trkpt><trkpt lat="45.600535" lon="10.7828067"><ele>235.0</ele><time>2026-03-28T13:06:03.833Z</time></trkpt><trkpt lat="45.600495" lon="10.7826583"><ele>234.6</ele><time>2026-03-28T13:06:04.834Z</time></trkpt><trkpt lat="45.6004583" lon="10.78252"><ele>234.2</ele><time>2026-03-28T13:06:05.834Z</time></trkpt><trkpt lat="45.6004217" lon="10.782385"><ele>233.8</ele><time>2026-03-28T13:06:06.833Z</time></trkpt><trkpt lat="45.600375" lon="10.78226"><ele>233.4</ele><time>2026-03-28T13:06:07.834Z</time></trkpt><trkpt lat="45.6003183" lon="10.7821283"><ele>233.0</ele><time>2026-03-28T13:06:08.833Z</time></trkpt><trkpt lat="45.6002467" lon="10.7819883"><ele>232.75</ele><time>2026-03-28T13:06:09.833Z</time></trkpt><trkpt lat="45.60018" lon="10.7818517"><ele>232.5</ele><time>2026-03-28T13:06:10.834Z</time></trkpt><trkpt lat="45.6001133" lon="10.7816967"><ele>232.25</ele><time>2026-03-28T13:06:11.834Z</time></trkpt><trkpt lat="45.60005" lon="10.781535"><ele>232.0</ele><time>2026-03-28T13:06:12.834Z</time></trkpt><trkpt lat="45.5999817" lon="10.7813733"><ele>231.75</ele><time>2026-03-28T13:06:13.833Z</time></trkpt><trkpt lat="45.599915" lon="10.7812217"><ele>231.5</ele><time>2026-03-28T13:06:14.834Z</time></trkpt><trkpt lat="45.5998683" lon="10.7810633"><ele>231.25</ele><time>2026-03-28T13:06:15.834Z</time></trkpt><trkpt lat="45.5998117" lon="10.78092"><ele>231.0</ele><time>2026-03-28T13:06:16.833Z</time></trkpt><trkpt lat="45.5997567" lon="10.7807817"><ele>231.0</ele><time>2026-03-28T13:06:17.834Z</time></trkpt><trkpt lat="45.5997067" lon="10.7806383"><ele>231.0</ele><time>2026-03-28T13:06:18.833Z</time></trkpt><trkpt lat="45.5996517" lon="10.780495"><ele>231.0</ele><time>2026-03-28T13:06:19.834Z</time></trkpt><trkpt lat="45.5995967" lon="10.78035"><ele>231.0</ele><time>2026-03-28T13:06:20.834Z</time></trkpt><trkpt lat="45.59955" lon="10.7802083"><ele>231.0</ele><time>2026-03-28T13:06:21.833Z</time></trkpt><trkpt lat="45.5995017" lon="10.7801"><ele>231.0</ele><time>2026-03-28T13:06:22.833Z</time></trkpt><trkpt lat="45.5994583" lon="10.7800133"><ele>231.0</ele><time>2026-03-28T13:06:23.833Z</time></trkpt><trkpt lat="45.599405" lon="10.7799117"><ele>231.0</ele><time>2026-03-28T13:06:25.834Z</time></trkpt><trkpt lat="45.5993583" lon="10.779825"><ele>231.0</ele><time>2026-03-28T13:06:28.834Z</time></trkpt><trkpt lat="45.5992967" lon="10.7797517"><ele>231.0</ele><time>2026-03-28T13:06:35.833Z</time></trkpt><trkpt lat="45.5992233" lon="10.7795733"><ele>231.0</ele><time>2026-03-28T13:06:37.833Z</time></trkpt><trkpt lat="45.5991767" lon="10.7794517"><ele>231.0</ele><time>2026-03-28T13:06:38.834Z</time></trkpt><trkpt lat="45.5991183" lon="10.7793167"><ele>231.0</ele><time>2026-03-28T13:06:39.833Z</time></trkpt><trkpt lat="45.5990483" lon="10.7791733"><ele>231.0</ele><time>2026-03-28T13:06:40.833Z</time></trkpt><trkpt lat="45.5989717" lon="10.77902"><ele>231.25</ele><time>2026-03-28T13:06:41.833Z</time></trkpt><trkpt lat="45.5988917" lon="10.7788617"><ele>231.5</ele><time>2026-03-28T13:06:42.834Z</time></trkpt><trkpt lat="45.598815" lon="10.7787017"><ele>231.75</ele><time>2026-03-28T13:06:43.833Z</time></trkpt><trkpt lat="45.5987317" lon="10.778535"><ele>232.0</ele><time>2026-03-28T13:06:44.833Z</time></trkpt><trkpt lat="45.5986483" lon="10.7783667"><ele>231.0</ele><time>2026-03-28T13:06:45.834Z</time></trkpt><trkpt lat="45.5985617" lon="10.7781933"><ele>230.0</ele><time>2026-03-28T13:06:46.833Z</time></trkpt><trkpt lat="45.5984733" lon="10.7779983"><ele>229.0</ele><time>2026-03-28T13:06:47.834Z</time></trkpt><trkpt lat="45.59838" lon="10.7777967"><ele>230.0</ele><time>2026-03-28T13:06:48.834Z</time></trkpt><trkpt lat="45.5982833" lon="10.7775833"><ele>231.0</ele><time>2026-03-28T13:06:49.834Z</time></trkpt><trkpt lat="45.5981933" lon="10.77736"><ele>232.0</ele><time>2026-03-28T13:06:50.833Z</time></trkpt><trkpt lat="45.5981167" lon="10.777135"><ele>232.0</ele><time>2026-03-28T13:06:51.833Z</time></trkpt><trkpt lat="45.5980383" lon="10.7769067"><ele>232.0</ele><time>2026-03-28T13:06:52.833Z</time></trkpt><trkpt lat="45.5979567" lon="10.776665"><ele>232.0</ele><time>2026-03-28T13:06:53.833Z</time></trkpt><trkpt lat="45.5978667" lon="10.776415"><ele>231.66666666666666</ele><time>2026-03-28T13:06:54.834Z</time></trkpt><trkpt lat="45.597775" lon="10.7761617"><ele>231.33333333333331</ele><time>2026-03-28T13:06:55.833Z</time></trkpt><trkpt lat="45.5976833" lon="10.7759"><ele>231.0</ele><time>2026-03-28T13:06:56.834Z</time></trkpt><trkpt lat="45.5975983" lon="10.7756467"><ele>230.0</ele><time>2026-03-28T13:06:57.833Z</time></trkpt><trkpt lat="45.5975117" lon="10.7754"><ele>229.0</ele><time>2026-03-28T13:06:58.833Z</time></trkpt><trkpt lat="45.5974483" lon="10.7752017"><ele>228.0</ele><time>2026-03-28T13:06:59.833Z</time></trkpt><trkpt lat="45.5974" lon="10.7750383"><ele>227.75</ele><time>2026-03-28T13:07:00.834Z</time></trkpt><trkpt lat="45.5973583" lon="10.77489"><ele>227.5</ele><time>2026-03-28T13:07:01.833Z</time></trkpt><trkpt lat="45.5973117" lon="10.7747467"><ele>227.25</ele><time>2026-03-28T13:07:02.834Z</time></trkpt><trkpt lat="45.59726" lon="10.7745883"><ele>227.0</ele><time>2026-03-28T13:07:03.834Z</time></trkpt><trkpt lat="45.597205" lon="10.7744333"><ele>227.16666666666669</ele><time>2026-03-28T13:07:04.834Z</time></trkpt><trkpt lat="45.5971783" lon="10.7742967"><ele>227.33333333333334</ele><time>2026-03-28T13:07:05.833Z</time></trkpt><trkpt lat="45.5971667" lon="10.7741567"><ele>227.5</ele><time>2026-03-28T13:07:06.833Z</time></trkpt><trkpt lat="45.597145" lon="10.77403"><ele>227.66666666666669</ele><time>2026-03-28T13:07:07.833Z</time></trkpt><trkpt lat="45.5971267" lon="10.7739217"><ele>227.83333333333334</ele><time>2026-03-28T13:07:08.833Z</time></trkpt><trkpt lat="45.5970883" lon="10.7738433"><ele>228.0</ele><time>2026-03-28T13:07:09.834Z</time></trkpt><trkpt lat="45.5970267" lon="10.7738233"><ele>227.2</ele><time>2026-03-28T13:07:10.834Z</time></trkpt><trkpt lat="45.5969" lon="10.77389"><ele>226.4</ele><time>2026-03-28T13:07:12.834Z</time></trkpt><trkpt lat="45.5968433" lon="10.7739717"><ele>225.59999999999997</ele><time>2026-03-28T13:07:13.834Z</time></trkpt><trkpt lat="45.5967867" lon="10.7740483"><ele>224.79999999999998</ele><time>2026-03-28T13:07:14.833Z</time></trkpt><trkpt lat="45.5967133" lon="10.7741117"><ele>224.0</ele><time>2026-03-28T13:07:15.834Z</time></trkpt><trkpt lat="45.5966267" lon="10.7741717"><ele>224.0</ele><time>2026-03-28T13:07:16.833Z</time></trkpt><trkpt lat="45.5965267" lon="10.7742283"><ele>224.0</ele><time>2026-03-28T13:07:17.834Z</time></trkpt><trkpt lat="45.5964183" lon="10.774315"><ele>224.0</ele><time>2026-03-28T13:07:18.833Z</time></trkpt><trkpt lat="45.59632" lon="10.7744283"><ele>224.0</ele><time>2026-03-28T13:07:19.833Z</time></trkpt><trkpt lat="45.59623" lon="10.7745783"><ele>223.66666666666669</ele><time>2026-03-28T13:07:20.833Z</time></trkpt><trkpt lat="45.596135" lon="10.77475"><ele>223.33333333333331</ele><time>2026-03-28T13:07:21.833Z</time></trkpt><trkpt lat="45.59603" lon="10.7749217"><ele>223.0</ele><time>2026-03-28T13:07:22.833Z</time></trkpt><trkpt lat="45.595915" lon="10.7750917"><ele>224.0</ele><time>2026-03-28T13:07:23.833Z</time></trkpt><trkpt lat="45.595775" lon="10.775225"><ele>225.0</ele><time>2026-03-28T13:07:24.833Z</time></trkpt><trkpt lat="45.59562" lon="10.7753483"><ele>226.0</ele><time>2026-03-28T13:07:25.833Z</time></trkpt><trkpt lat="45.5954633" lon="10.7754517"><ele>226.0</ele><time>2026-03-28T13:07:26.833Z</time></trkpt><trkpt lat="45.595315" lon="10.7755567"><ele>226.0</ele><time>2026-03-28T13:07:27.834Z</time></trkpt><trkpt lat="45.595185" lon="10.7756783"><ele>226.0</ele><time>2026-03-28T13:07:28.834Z</time></trkpt><trkpt lat="45.5950667" lon="10.77579"><ele>226.0</ele><time>2026-03-28T13:07:29.833Z</time></trkpt><trkpt lat="45.594965" lon="10.775885"><ele>226.00000000000003</ele><time>2026-03-28T13:07:30.834Z</time></trkpt><trkpt lat="45.5948767" lon="10.7759633"><ele>226.00000000000003</ele><time>2026-03-28T13:07:31.833Z</time></trkpt><trkpt lat="45.594805" lon="10.7760283"><ele>226.0</ele><time>2026-03-28T13:07:32.834Z</time></trkpt><trkpt lat="45.5947383" lon="10.7760667"><ele>226.0</ele><time>2026-03-28T13:07:33.833Z</time></trkpt><trkpt lat="45.5946717" lon="10.7760867"><ele>226.16666666666666</ele><time>2026-03-28T13:07:34.834Z</time></trkpt><trkpt lat="45.5946067" lon="10.776105"><ele>226.33333333333331</ele><time>2026-03-28T13:07:35.834Z</time></trkpt><trkpt lat="45.5945017" lon="10.776045"><ele>226.5</ele><time>2026-03-28T13:07:37.834Z</time></trkpt><trkpt lat="45.59445" lon="10.7759733"><ele>226.66666666666669</ele><time>2026-03-28T13:07:38.833Z</time></trkpt><trkpt lat="45.5943867" lon="10.7758883"><ele>226.83333333333334</ele><time>2026-03-28T13:07:39.833Z</time></trkpt><trkpt lat="45.5943217" lon="10.7757883"><ele>227.0</ele><time>2026-03-28T13:07:40.834Z</time></trkpt><trkpt lat="45.59425" lon="10.7756733"><ele>226.5</ele><time>2026-03-28T13:07:41.833Z</time></trkpt><trkpt lat="45.5941633" lon="10.7755617"><ele>226.0</ele><time>2026-03-28T13:07:42.833Z</time></trkpt><trkpt lat="45.5940633" lon="10.77543"><ele>225.5</ele><time>2026-03-28T13:07:43.834Z</time></trkpt><trkpt lat="45.5939517" lon="10.77529"><ele>225.0</ele><time>2026-03-28T13:07:44.834Z</time></trkpt><trkpt lat="45.5938433" lon="10.7751417"><ele>224.75</ele><time>2026-03-28T13:07:45.834Z</time></trkpt><trkpt lat="45.593735" lon="10.7750033"><ele>224.5</ele><time>2026-03-28T13:07:46.834Z</time></trkpt><trkpt lat="45.59363" lon="10.77487"><ele>224.25</ele><time>2026-03-28T13:07:47.834Z</time></trkpt><trkpt lat="45.5935167" lon="10.7747583"><ele>224.0</ele><time>2026-03-28T13:07:48.833Z</time></trkpt><trkpt lat="45.5933917" lon="10.77466"><ele>224.0</ele><time>2026-03-28T13:07:49.834Z</time></trkpt><trkpt lat="45.5932433" lon="10.7745767"><ele>224.0</ele><time>2026-03-28T13:07:50.834Z</time></trkpt><trkpt lat="45.5930917" lon="10.7744967"><ele>224.0</ele><time>2026-03-28T13:07:51.833Z</time></trkpt><trkpt lat="45.5929367" lon="10.7744217"><ele>224.33333333333334</ele><time>2026-03-28T13:07:52.834Z</time></trkpt><trkpt lat="45.5927683" lon="10.7743467"><ele>224.66666666666669</ele><time>2026-03-28T13:07:53.833Z</time></trkpt><trkpt lat="45.5925983" lon="10.7742667"><ele>225.0</ele><time>2026-03-28T13:07:54.834Z</time></trkpt><trkpt lat="45.5924383" lon="10.7741833"><ele>225.0</ele><time>2026-03-28T13:07:55.833Z</time></trkpt><trkpt lat="45.5922867" lon="10.7740983"><ele>225.0</ele><time>2026-03-28T13:07:56.833Z</time></trkpt><trkpt lat="45.5921483" lon="10.774015"><ele>225.0</ele><time>2026-03-28T13:07:57.833Z</time></trkpt><trkpt lat="45.5920167" lon="10.773945"><ele>224.5</ele><time>2026-03-28T13:07:58.833Z</time></trkpt><trkpt lat="45.5919" lon="10.773885"><ele>224.0</ele><time>2026-03-28T13:07:59.833Z</time></trkpt><trkpt lat="45.5917883" lon="10.7738233"><ele>223.5</ele><time>2026-03-28T13:08:00.833Z</time></trkpt><trkpt lat="45.5916733" lon="10.773755"><ele>223.0</ele><time>2026-03-28T13:08:01.834Z</time></trkpt><trkpt lat="45.59155" lon="10.773675"><ele>223.0</ele><time>2026-03-28T13:08:02.833Z</time></trkpt><trkpt lat="45.5914117" lon="10.7736017"><ele>223.0</ele><time>2026-03-28T13:08:03.833Z</time></trkpt><trkpt lat="45.5912817" lon="10.773535"><ele>223.0</ele><time>2026-03-28T13:08:04.833Z</time></trkpt><trkpt lat="45.59115" lon="10.7734817"><ele>223.0</ele><time>2026-03-28T13:08:05.833Z</time></trkpt><trkpt lat="45.5910317" lon="10.7734217"><ele>222.5</ele><time>2026-03-28T13:08:06.833Z</time></trkpt><trkpt lat="45.5909283" lon="10.7733533"><ele>222.0</ele><time>2026-03-28T13:08:07.834Z</time></trkpt><trkpt lat="45.5908167" lon="10.7732617"><ele>221.5</ele><time>2026-03-28T13:08:08.834Z</time></trkpt><trkpt lat="45.59072" lon="10.7731533"><ele>221.0</ele><time>2026-03-28T13:08:09.834Z</time></trkpt><trkpt lat="45.59063" lon="10.7730367"><ele>221.0</ele><time>2026-03-28T13:08:10.834Z</time></trkpt><trkpt lat="45.5905533" lon="10.77293"><ele>221.00000000000003</ele><time>2026-03-28T13:08:11.834Z</time></trkpt><trkpt lat="45.5904883" lon="10.772835"><ele>221.00000000000003</ele><time>2026-03-28T13:08:12.833Z</time></trkpt><trkpt lat="45.59045" lon="10.77274"><ele>221.0</ele><time>2026-03-28T13:08:13.834Z</time></trkpt><trkpt lat="45.5904333" lon="10.7725817"><ele>221.0</ele><time>2026-03-28T13:08:15.834Z</time></trkpt><trkpt lat="45.5904633" lon="10.7724733"><ele>221.0</ele><time>2026-03-28T13:08:16.834Z</time></trkpt><trkpt lat="45.59052" lon="10.772365"><ele>221.00000000000003</ele><time>2026-03-28T13:08:17.834Z</time></trkpt><trkpt lat="45.5905967" lon="10.7722517"><ele>221.00000000000003</ele><time>2026-03-28T13:08:18.834Z</time></trkpt><trkpt lat="45.59068" lon="10.77213"><ele>221.0</ele><time>2026-03-28T13:08:19.833Z</time></trkpt><trkpt lat="45.5907617" lon="10.772015"><ele>221.0</ele><time>2026-03-28T13:08:20.834Z</time></trkpt><trkpt lat="45.590825" lon="10.7718983"><ele>220.60000000000002</ele><time>2026-03-28T13:08:21.833Z</time></trkpt><trkpt lat="45.5908817" lon="10.7717733"><ele>220.20000000000002</ele><time>2026-03-28T13:08:22.833Z</time></trkpt><trkpt lat="45.5909383" lon="10.7716433"><ele>219.79999999999998</ele><time>2026-03-28T13:08:23.833Z</time></trkpt><trkpt lat="45.591" lon="10.7715067"><ele>219.39999999999998</ele><time>2026-03-28T13:08:24.833Z</time></trkpt><trkpt lat="45.591055" lon="10.77137"><ele>219.0</ele><time>2026-03-28T13:08:25.833Z</time></trkpt><trkpt lat="45.591095" lon="10.7712467"><ele>219.0</ele><time>2026-03-28T13:08:26.833Z</time></trkpt><trkpt lat="45.591115" lon="10.7711133"><ele>218.99999999999997</ele><time>2026-03-28T13:08:27.833Z</time></trkpt><trkpt lat="45.5911033" lon="10.7709567"><ele>218.99999999999997</ele><time>2026-03-28T13:08:28.834Z</time></trkpt><trkpt lat="45.59109" lon="10.7707933"><ele>219.0</ele><time>2026-03-28T13:08:29.833Z</time></trkpt><trkpt lat="45.59108" lon="10.7706283"><ele>219.0</ele><time>2026-03-28T13:08:30.834Z</time></trkpt><trkpt lat="45.591075" lon="10.770475"><ele>219.0</ele><time>2026-03-28T13:08:31.834Z</time></trkpt><trkpt lat="45.5910867" lon="10.7703167"><ele>219.0</ele><time>2026-03-28T13:08:32.833Z</time></trkpt><trkpt lat="45.5911083" lon="10.77016"><ele>219.0</ele><time>2026-03-28T13:08:33.833Z</time></trkpt><trkpt lat="45.591135" lon="10.7699933"><ele>219.0</ele><time>2026-03-28T13:08:34.834Z</time></trkpt><trkpt lat="45.5911767" lon="10.7698233"><ele>219.0</ele><time>2026-03-28T13:08:35.833Z</time></trkpt><trkpt lat="45.5912217" lon="10.7696567"><ele>219.0</ele><time>2026-03-28T13:08:36.833Z</time></trkpt><trkpt lat="45.5912817" lon="10.7694833"><ele>219.0</ele><time>2026-03-28T13:08:37.834Z</time></trkpt><trkpt lat="45.591335" lon="10.7693183"><ele>219.0</ele><time>2026-03-28T13:08:38.833Z</time></trkpt><trkpt lat="45.5913917" lon="10.7691517"><ele>218.6</ele><time>2026-03-28T13:08:39.833Z</time></trkpt><trkpt lat="45.591445" lon="10.7689983"><ele>218.2</ele><time>2026-03-28T13:08:40.833Z</time></trkpt><trkpt lat="45.5914833" lon="10.76885"><ele>217.79999999999998</ele><time>2026-03-28T13:08:41.833Z</time></trkpt><trkpt lat="45.5915217" lon="10.7687083"><ele>217.39999999999998</ele><time>2026-03-28T13:08:42.834Z</time></trkpt><trkpt lat="45.5915483" lon="10.7685767"><ele>217.0</ele><time>2026-03-28T13:08:43.833Z</time></trkpt><trkpt lat="45.591575" lon="10.76845"><ele>217.0</ele><time>2026-03-28T13:08:44.833Z</time></trkpt><trkpt lat="45.5915917" lon="10.7683217"><ele>217.0</ele><time>2026-03-28T13:08:45.834Z</time></trkpt><trkpt lat="45.5915917" lon="10.7681783"><ele>217.0</ele><time>2026-03-28T13:08:46.833Z</time></trkpt><trkpt lat="45.591595" lon="10.76803"><ele>217.0</ele><time>2026-03-28T13:08:47.834Z</time></trkpt><trkpt lat="45.5915817" lon="10.7678667"><ele>217.0</ele><time>2026-03-28T13:08:48.833Z</time></trkpt><trkpt lat="45.5915733" lon="10.7677083"><ele>217.25</ele><time>2026-03-28T13:08:49.833Z</time></trkpt><trkpt lat="45.5915683" lon="10.76754"><ele>217.5</ele><time>2026-03-28T13:08:50.833Z</time></trkpt><trkpt lat="45.5915767" lon="10.7673717"><ele>217.75</ele><time>2026-03-28T13:08:51.834Z</time></trkpt><trkpt lat="45.59159" lon="10.7672"><ele>218.0</ele><time>2026-03-28T13:08:52.834Z</time></trkpt><trkpt lat="45.5916217" lon="10.76704"><ele>218.0</ele><time>2026-03-28T13:08:53.833Z</time></trkpt><trkpt lat="45.5916583" lon="10.766875"><ele>218.0</ele><time>2026-03-28T13:08:54.834Z</time></trkpt><trkpt lat="45.5917233" lon="10.7667033"><ele>218.0</ele><time>2026-03-28T13:08:55.834Z</time></trkpt><trkpt lat="45.5917983" lon="10.7665183"><ele>218.0</ele><time>2026-03-28T13:08:56.833Z</time></trkpt><trkpt lat="45.59187" lon="10.7663317"><ele>217.5</ele><time>2026-03-28T13:08:57.833Z</time></trkpt><trkpt lat="45.5919383" lon="10.766155"><ele>217.0</ele><time>2026-03-28T13:08:58.833Z</time></trkpt><trkpt lat="45.59201" lon="10.76599"><ele>216.5</ele><time>2026-03-28T13:08:59.834Z</time></trkpt><trkpt lat="45.5920883" lon="10.7658367"><ele>216.0</ele><time>2026-03-28T13:09:00.833Z</time></trkpt><trkpt lat="45.59216" lon="10.7656967"><ele>216.0</ele><time>2026-03-28T13:09:01.834Z</time></trkpt><trkpt lat="45.5922367" lon="10.76557"><ele>216.0</ele><time>2026-03-28T13:09:02.833Z</time></trkpt><trkpt lat="45.5923233" lon="10.765435"><ele>216.0</ele><time>2026-03-28T13:09:03.834Z</time></trkpt><trkpt lat="45.5924033" lon="10.7653017"><ele>216.0</ele><time>2026-03-28T13:09:04.833Z</time></trkpt><trkpt lat="45.5924767" lon="10.7651683"><ele>216.20000000000002</ele><time>2026-03-28T13:09:05.833Z</time></trkpt><trkpt lat="45.5925417" lon="10.765045"><ele>216.40000000000003</ele><time>2026-03-28T13:09:06.833Z</time></trkpt><trkpt lat="45.5925967" lon="10.7649383"><ele>216.6</ele><time>2026-03-28T13:09:07.833Z</time></trkpt><trkpt lat="45.5926433" lon="10.76479"><ele>216.8</ele><time>2026-03-28T13:09:09.833Z</time></trkpt><trkpt lat="45.5926567" lon="10.7646517"><ele>217.0</ele><time>2026-03-28T13:09:11.834Z</time></trkpt><trkpt lat="45.5926767" lon="10.7645317"><ele>216.99999999999997</ele><time>2026-03-28T13:09:14.833Z</time></trkpt><trkpt lat="45.5927317" lon="10.7644217"><ele>217.0</ele><time>2026-03-28T13:09:16.833Z</time></trkpt><trkpt lat="45.5927733" lon="10.76434"><ele>217.0</ele><time>2026-03-28T13:09:17.833Z</time></trkpt><trkpt lat="45.5928167" lon="10.7642533"><ele>217.0</ele><time>2026-03-28T13:09:18.834Z</time></trkpt><trkpt lat="45.5928733" lon="10.7641717"><ele>216.99999999999997</ele><time>2026-03-28T13:09:19.834Z</time></trkpt><trkpt lat="45.5929333" lon="10.7640983"><ele>217.0</ele><time>2026-03-28T13:09:20.834Z</time></trkpt><trkpt lat="45.5930033" lon="10.7640233"><ele>216.83333333333331</ele><time>2026-03-28T13:09:21.834Z</time></trkpt><trkpt lat="45.5930683" lon="10.763945"><ele>216.66666666666666</ele><time>2026-03-28T13:09:22.834Z</time></trkpt><trkpt lat="45.5931233" lon="10.7638917"><ele>216.5</ele><time>2026-03-28T13:09:23.834Z</time></trkpt><trkpt lat="45.593185" lon="10.7638217"><ele>216.33333333333331</ele><time>2026-03-28T13:09:26.834Z</time></trkpt><trkpt lat="45.593215" lon="10.7637367"><ele>216.16666666666666</ele><time>2026-03-28T13:09:28.833Z</time></trkpt><trkpt lat="45.5932767" lon="10.7635833"><ele>216.0</ele><time>2026-03-28T13:09:30.833Z</time></trkpt><trkpt lat="45.5933283" lon="10.763465"><ele>216.0</ele><time>2026-03-28T13:09:31.832Z</time></trkpt><trkpt lat="45.5933833" lon="10.7633283"><ele>216.0</ele><time>2026-03-28T13:09:32.832Z</time></trkpt><trkpt lat="45.5934367" lon="10.7631717"><ele>216.0</ele><time>2026-03-28T13:09:33.832Z</time></trkpt><trkpt lat="45.59349" lon="10.7630083"><ele>216.0</ele><time>2026-03-28T13:09:34.833Z</time></trkpt><trkpt lat="45.59354" lon="10.76283"><ele>216.0</ele><time>2026-03-28T13:09:35.832Z</time></trkpt><trkpt lat="45.593585" lon="10.762645"><ele>216.0</ele><time>2026-03-28T13:09:36.833Z</time></trkpt><trkpt lat="45.5936267" lon="10.7624417"><ele>216.0</ele><time>2026-03-28T13:09:37.832Z</time></trkpt><trkpt lat="45.59366" lon="10.7622317"><ele>216.0</ele><time>2026-03-28T13:09:38.833Z</time></trkpt><trkpt lat="45.593685" lon="10.7620167"><ele>216.0</ele><time>2026-03-28T13:09:39.833Z</time></trkpt><trkpt lat="45.5937117" lon="10.76182"><ele>216.0</ele><time>2026-03-28T13:09:40.832Z</time></trkpt><trkpt lat="45.5937317" lon="10.7616183"><ele>216.0</ele><time>2026-03-28T13:09:41.832Z</time></trkpt><trkpt lat="45.5937317" lon="10.761415"><ele>216.0</ele><time>2026-03-28T13:09:42.832Z</time></trkpt><trkpt lat="45.593735" lon="10.7612167"><ele>216.0</ele><time>2026-03-28T13:09:43.833Z</time></trkpt><trkpt lat="45.59373" lon="10.761015"><ele>216.0</ele><time>2026-03-28T13:09:44.832Z</time></trkpt><trkpt lat="45.59373" lon="10.76081"><ele>216.0</ele><time>2026-03-28T13:09:45.832Z</time></trkpt><trkpt lat="45.5937333" lon="10.7605967"><ele>216.0</ele><time>2026-03-28T13:09:46.833Z</time></trkpt><trkpt lat="45.5937417" lon="10.760385"><ele>216.66666666666669</ele><time>2026-03-28T13:09:47.832Z</time></trkpt><trkpt lat="45.5937483" lon="10.7601683"><ele>217.33333333333334</ele><time>2026-03-28T13:09:48.833Z</time></trkpt><trkpt lat="45.5937567" lon="10.7599433"><ele>218.0</ele><time>2026-03-28T13:09:49.832Z</time></trkpt><trkpt lat="45.5937733" lon="10.7597167"><ele>218.0</ele><time>2026-03-28T13:09:50.833Z</time></trkpt><trkpt lat="45.5937833" lon="10.759505"><ele>218.0</ele><time>2026-03-28T13:09:51.833Z</time></trkpt><trkpt lat="45.593805" lon="10.7593083"><ele>218.0</ele><time>2026-03-28T13:09:52.833Z</time></trkpt><trkpt lat="45.5938183" lon="10.759125"><ele>218.0</ele><time>2026-03-28T13:09:53.832Z</time></trkpt><trkpt lat="45.5938317" lon="10.7589583"><ele>218.33333333333334</ele><time>2026-03-28T13:09:54.832Z</time></trkpt><trkpt lat="45.5938433" lon="10.7587983"><ele>218.66666666666669</ele><time>2026-03-28T13:09:55.833Z</time></trkpt><trkpt lat="45.59386" lon="10.7586583"><ele>219.0</ele><time>2026-03-28T13:09:56.832Z</time></trkpt><trkpt lat="45.5938767" lon="10.7585433"><ele>219.33333333333331</ele><time>2026-03-28T13:09:57.832Z</time></trkpt><trkpt lat="45.593895" lon="10.7584267"><ele>219.66666666666666</ele><time>2026-03-28T13:09:58.832Z</time></trkpt><trkpt lat="45.5939267" lon="10.7583483"><ele>220.0</ele><time>2026-03-28T13:09:59.833Z</time></trkpt><trkpt lat="45.5939617" lon="10.7582567"><ele>220.0</ele><time>2026-03-28T13:10:00.833Z</time></trkpt><trkpt lat="45.5939983" lon="10.7581467"><ele>220.0</ele><time>2026-03-28T13:10:01.832Z</time></trkpt><trkpt lat="45.5940333" lon="10.7580217"><ele>220.0</ele><time>2026-03-28T13:10:02.833Z</time></trkpt><trkpt lat="45.5940733" lon="10.7578783"><ele>220.0</ele><time>2026-03-28T13:10:03.832Z</time></trkpt><trkpt lat="45.5941183" lon="10.757735"><ele>220.0</ele><time>2026-03-28T13:10:04.832Z</time></trkpt><trkpt lat="45.594165" lon="10.7575783"><ele>219.5</ele><time>2026-03-28T13:10:05.832Z</time></trkpt><trkpt lat="45.59421" lon="10.7574083"><ele>219.0</ele><time>2026-03-28T13:10:06.832Z</time></trkpt><trkpt lat="45.5942583" lon="10.75724"><ele>218.5</ele><time>2026-03-28T13:10:07.833Z</time></trkpt><trkpt lat="45.59431" lon="10.7570783"><ele>218.0</ele><time>2026-03-28T13:10:08.832Z</time></trkpt><trkpt lat="45.5943517" lon="10.756925"><ele>218.5</ele><time>2026-03-28T13:10:09.832Z</time></trkpt><trkpt lat="45.5943867" lon="10.7567633"><ele>219.0</ele><time>2026-03-28T13:10:10.832Z</time></trkpt><trkpt lat="45.5944267" lon="10.7566"><ele>219.5</ele><time>2026-03-28T13:10:11.832Z</time></trkpt><trkpt lat="45.5944667" lon="10.7564517"><ele>220.0</ele><time>2026-03-28T13:10:12.832Z</time></trkpt><trkpt lat="45.5945117" lon="10.7563017"><ele>221.0</ele><time>2026-03-28T13:10:13.832Z</time></trkpt><trkpt lat="45.59455" lon="10.75614"><ele>222.0</ele><time>2026-03-28T13:10:14.833Z</time></trkpt><trkpt lat="45.5945933" lon="10.75599"><ele>223.0</ele><time>2026-03-28T13:10:15.833Z</time></trkpt><trkpt lat="45.5946433" lon="10.755845"><ele>224.0</ele><time>2026-03-28T13:10:16.832Z</time></trkpt><trkpt lat="45.59471" lon="10.7556933"><ele>224.25</ele><time>2026-03-28T13:10:17.832Z</time></trkpt><trkpt lat="45.594765" lon="10.7555417"><ele>224.5</ele><time>2026-03-28T13:10:18.833Z</time></trkpt><trkpt lat="45.5948267" lon="10.7553883"><ele>224.75</ele><time>2026-03-28T13:10:19.833Z</time></trkpt><trkpt lat="45.5948833" lon="10.7552417"><ele>225.0</ele><time>2026-03-28T13:10:20.832Z</time></trkpt><trkpt lat="45.5949367" lon="10.7550933"><ele>225.25</ele><time>2026-03-28T13:10:21.833Z</time></trkpt><trkpt lat="45.5949867" lon="10.75496"><ele>225.5</ele><time>2026-03-28T13:10:22.832Z</time></trkpt><trkpt lat="45.59504" lon="10.75482"><ele>225.75</ele><time>2026-03-28T13:10:23.833Z</time></trkpt><trkpt lat="45.5950933" lon="10.7546683"><ele>226.0</ele><time>2026-03-28T13:10:24.832Z</time></trkpt><trkpt lat="45.5951433" lon="10.7545167"><ele>226.25</ele><time>2026-03-28T13:10:25.833Z</time></trkpt><trkpt lat="45.5951833" lon="10.7543633"><ele>226.5</ele><time>2026-03-28T13:10:26.833Z</time></trkpt><trkpt lat="45.5952233" lon="10.7542017"><ele>226.75</ele><time>2026-03-28T13:10:27.832Z</time></trkpt><trkpt lat="45.59526" lon="10.75405"><ele>227.0</ele><time>2026-03-28T13:10:28.833Z</time></trkpt><trkpt lat="45.5952917" lon="10.7539033"><ele>227.0</ele><time>2026-03-28T13:10:29.832Z</time></trkpt><trkpt lat="45.5953233" lon="10.753755"><ele>227.0</ele><time>2026-03-28T13:10:30.832Z</time></trkpt><trkpt lat="45.5953567" lon="10.753625"><ele>227.0</ele><time>2026-03-28T13:10:31.833Z</time></trkpt><trkpt lat="45.59537" lon="10.75351"><ele>227.0</ele><time>2026-03-28T13:10:32.832Z</time></trkpt><trkpt lat="45.5953883" lon="10.7534083"><ele>227.0</ele><time>2026-03-28T13:10:33.833Z</time></trkpt><trkpt lat="45.5954233" lon="10.753285"><ele>228.39999999999998</ele><time>2026-03-28T13:10:35.832Z</time></trkpt><trkpt lat="45.595475" lon="10.753225"><ele>229.79999999999998</ele><time>2026-03-28T13:10:37.833Z</time></trkpt><trkpt lat="45.59558" lon="10.7531717"><ele>231.2</ele><time>2026-03-28T13:10:39.833Z</time></trkpt><trkpt lat="45.5957017" lon="10.75314"><ele>232.6</ele><time>2026-03-28T13:10:41.833Z</time></trkpt><trkpt lat="45.5957883" lon="10.7531233"><ele>234.0</ele><time>2026-03-28T13:10:43.832Z</time></trkpt><trkpt lat="45.5958667" lon="10.7530983"><ele>234.0</ele><time>2026-03-28T13:10:46.833Z</time></trkpt><trkpt lat="45.595785" lon="10.753045"><ele>234.0</ele><time>2026-03-28T13:11:37.832Z</time></trkpt><trkpt lat="45.59572" lon="10.7529667"><ele>234.0</ele><time>2026-03-28T13:11:41.832Z</time></trkpt><trkpt lat="45.5957867" lon="10.7530667"><ele>234.0</ele><time>2026-03-28T13:23:17.829Z</time></trkpt><trkpt lat="45.5958567" lon="10.7531033"><ele>234.0</ele><time>2026-03-28T13:23:19.83Z</time></trkpt><trkpt lat="45.595915" lon="10.7530633"><ele>234.0</ele><time>2026-03-28T13:23:21.829Z</time></trkpt><trkpt lat="45.5959" lon="10.75294"><ele>234.0</ele><time>2026-03-28T13:23:31.829Z</time></trkpt><trkpt lat="45.595805" lon="10.7528367"><ele>234.0</ele><time>2026-03-28T13:23:33.83Z</time></trkpt><trkpt lat="45.5957417" lon="10.7527867"><ele>234.0</ele><time>2026-03-28T13:23:34.83Z</time></trkpt><trkpt lat="45.5956833" lon="10.7527267"><ele>234.0</ele><time>2026-03-28T13:23:35.829Z</time></trkpt><trkpt lat="45.5956267" lon="10.7526817"><ele>234.0</ele><time>2026-03-28T13:23:36.83Z</time></trkpt><trkpt lat="45.59554" lon="10.7526117"><ele>234.0</ele><time>2026-03-28T13:23:38.829Z</time></trkpt><trkpt lat="45.59549" lon="10.75254"><ele>233.6</ele><time>2026-03-28T13:23:40.83Z</time></trkpt><trkpt lat="45.5954483" lon="10.752435"><ele>233.2</ele><time>2026-03-28T13:23:42.829Z</time></trkpt><trkpt lat="45.59535" lon="10.75232"><ele>232.79999999999998</ele><time>2026-03-28T13:23:44.829Z</time></trkpt><trkpt lat="45.5952817" lon="10.7522567"><ele>232.39999999999998</ele><time>2026-03-28T13:23:45.829Z</time></trkpt><trkpt lat="45.595205" lon="10.75219"><ele>232.0</ele><time>2026-03-28T13:23:46.829Z</time></trkpt><trkpt lat="45.5951217" lon="10.7521283"><ele>231.39999999999998</ele><time>2026-03-28T13:23:47.829Z</time></trkpt><trkpt lat="45.59504" lon="10.7520517"><ele>230.79999999999998</ele><time>2026-03-28T13:23:48.83Z</time></trkpt><trkpt lat="45.594955" lon="10.7519633"><ele>230.2</ele><time>2026-03-28T13:23:49.829Z</time></trkpt><trkpt lat="45.59487" lon="10.75187"><ele>229.6</ele><time>2026-03-28T13:23:50.829Z</time></trkpt><trkpt lat="45.5947767" lon="10.7517783"><ele>229.0</ele><time>2026-03-28T13:23:51.83Z</time></trkpt><trkpt lat="45.594685" lon="10.751685"><ele>229.0</ele><time>2026-03-28T13:23:52.829Z</time></trkpt><trkpt lat="45.59459" lon="10.7515883"><ele>229.0</ele><time>2026-03-28T13:23:53.829Z</time></trkpt><trkpt lat="45.5944917" lon="10.751495"><ele>229.0</ele><time>2026-03-28T13:23:54.83Z</time></trkpt><trkpt lat="45.59439" lon="10.7513967"><ele>229.0</ele><time>2026-03-28T13:23:55.829Z</time></trkpt><trkpt lat="45.5942917" lon="10.7512933"><ele>228.25</ele><time>2026-03-28T13:23:56.83Z</time></trkpt><trkpt lat="45.5941917" lon="10.751195"><ele>227.5</ele><time>2026-03-28T13:23:57.829Z</time></trkpt><trkpt lat="45.594095" lon="10.7510933"><ele>226.75</ele><time>2026-03-28T13:23:58.829Z</time></trkpt><trkpt lat="45.593995" lon="10.7509933"><ele>226.0</ele><time>2026-03-28T13:23:59.829Z</time></trkpt><trkpt lat="45.5938983" lon="10.7508917"><ele>226.0</ele><time>2026-03-28T13:24:00.83Z</time></trkpt><trkpt lat="45.593805" lon="10.750785"><ele>226.0</ele><time>2026-03-28T13:24:01.829Z</time></trkpt><trkpt lat="45.5937033" lon="10.7506833"><ele>226.0</ele><time>2026-03-28T13:24:02.83Z</time></trkpt><trkpt lat="45.593605" lon="10.7505867"><ele>226.0</ele><time>2026-03-28T13:24:03.829Z</time></trkpt><trkpt lat="45.5935017" lon="10.750495"><ele>225.5</ele><time>2026-03-28T13:24:04.829Z</time></trkpt><trkpt lat="45.5934" lon="10.7504133"><ele>225.0</ele><time>2026-03-28T13:24:05.829Z</time></trkpt><trkpt lat="45.5933" lon="10.7503367"><ele>224.5</ele><time>2026-03-28T13:24:06.83Z</time></trkpt><trkpt lat="45.5932033" lon="10.7502567"><ele>224.0</ele><time>2026-03-28T13:24:07.83Z</time></trkpt><trkpt lat="45.5930917" lon="10.750185"><ele>224.0</ele><time>2026-03-28T13:24:08.829Z</time></trkpt><trkpt lat="45.592985" lon="10.7501033"><ele>224.0</ele><time>2026-03-28T13:24:09.83Z</time></trkpt><trkpt lat="45.5928783" lon="10.7500317"><ele>224.0</ele><time>2026-03-28T13:24:10.829Z</time></trkpt><trkpt lat="45.59277" lon="10.7499517"><ele>224.0</ele><time>2026-03-28T13:24:11.83Z</time></trkpt><trkpt lat="45.59266" lon="10.7498767"><ele>223.5</ele><time>2026-03-28T13:24:12.829Z</time></trkpt><trkpt lat="45.5925483" lon="10.7498"><ele>223.0</ele><time>2026-03-28T13:24:13.829Z</time></trkpt><trkpt lat="45.592425" lon="10.7497167"><ele>222.5</ele><time>2026-03-28T13:24:14.829Z</time></trkpt><trkpt lat="45.5923017" lon="10.7496267"><ele>222.0</ele><time>2026-03-28T13:24:15.829Z</time></trkpt><trkpt lat="45.5921867" lon="10.7495267"><ele>222.0</ele><time>2026-03-28T13:24:16.83Z</time></trkpt><trkpt lat="45.592065" lon="10.7494317"><ele>222.0</ele><time>2026-03-28T13:24:17.829Z</time></trkpt><trkpt lat="45.59194" lon="10.74933"><ele>222.0</ele><time>2026-03-28T13:24:18.829Z</time></trkpt><trkpt lat="45.5918117" lon="10.7492383"><ele>222.0</ele><time>2026-03-28T13:24:19.83Z</time></trkpt><trkpt lat="45.59169" lon="10.7491417"><ele>222.0</ele><time>2026-03-28T13:24:20.83Z</time></trkpt><trkpt lat="45.591565" lon="10.74903"><ele>222.0</ele><time>2026-03-28T13:24:21.829Z</time></trkpt><trkpt lat="45.5914483" lon="10.7489383"><ele>222.0</ele><time>2026-03-28T13:24:22.83Z</time></trkpt><trkpt lat="45.5913217" lon="10.7488317"><ele>222.0</ele><time>2026-03-28T13:24:23.83Z</time></trkpt><trkpt lat="45.591205" lon="10.74873"><ele>222.0</ele><time>2026-03-28T13:24:24.829Z</time></trkpt><trkpt lat="45.5910883" lon="10.7486267"><ele>222.0</ele><time>2026-03-28T13:24:25.83Z</time></trkpt><trkpt lat="45.59097" lon="10.7485333"><ele>222.0</ele><time>2026-03-28T13:24:26.83Z</time></trkpt><trkpt lat="45.5908483" lon="10.7484333"><ele>222.0</ele><time>2026-03-28T13:24:27.829Z</time></trkpt><trkpt lat="45.5907233" lon="10.7483317"><ele>222.0</ele><time>2026-03-28T13:24:28.83Z</time></trkpt><trkpt lat="45.5906033" lon="10.748235"><ele>222.0</ele><time>2026-03-28T13:24:29.83Z</time></trkpt><trkpt lat="45.59048" lon="10.748145"><ele>222.0</ele><time>2026-03-28T13:24:30.829Z</time></trkpt><trkpt lat="45.5903617" lon="10.7480433"><ele>222.0</ele><time>2026-03-28T13:24:31.83Z</time></trkpt><trkpt lat="45.5902383" lon="10.7479467"><ele>222.0</ele><time>2026-03-28T13:24:32.83Z</time></trkpt><trkpt lat="45.59012" lon="10.74786"><ele>222.0</ele><time>2026-03-28T13:24:33.829Z</time></trkpt><trkpt lat="45.59" lon="10.74778"><ele>222.0</ele><time>2026-03-28T13:24:34.83Z</time></trkpt><trkpt lat="45.5898833" lon="10.74771"><ele>222.0</ele><time>2026-03-28T13:24:35.83Z</time></trkpt><trkpt lat="45.5897683" lon="10.7476333"><ele>222.25</ele><time>2026-03-28T13:24:36.829Z</time></trkpt><trkpt lat="45.5896517" lon="10.747565"><ele>222.5</ele><time>2026-03-28T13:24:37.83Z</time></trkpt><trkpt lat="45.589525" lon="10.747495"><ele>222.75</ele><time>2026-03-28T13:24:38.83Z</time></trkpt><trkpt lat="45.58941" lon="10.7474267"><ele>223.0</ele><time>2026-03-28T13:24:39.829Z</time></trkpt><trkpt lat="45.589285" lon="10.74737"><ele>222.5</ele><time>2026-03-28T13:24:40.83Z</time></trkpt><trkpt lat="45.5891583" lon="10.7472983"><ele>222.0</ele><time>2026-03-28T13:24:41.83Z</time></trkpt><trkpt lat="45.58904" lon="10.7472217"><ele>221.5</ele><time>2026-03-28T13:24:42.829Z</time></trkpt><trkpt lat="45.588915" lon="10.7471533"><ele>221.0</ele><time>2026-03-28T13:24:43.829Z</time></trkpt><trkpt lat="45.5887967" lon="10.747085"><ele>221.0</ele><time>2026-03-28T13:24:44.83Z</time></trkpt><trkpt lat="45.5886733" lon="10.7470167"><ele>221.0</ele><time>2026-03-28T13:24:45.829Z</time></trkpt><trkpt lat="45.5885617" lon="10.7469417"><ele>221.0</ele><time>2026-03-28T13:24:46.83Z</time></trkpt><trkpt lat="45.5884583" lon="10.7468717"><ele>221.0</ele><time>2026-03-28T13:24:47.829Z</time></trkpt><trkpt lat="45.5883717" lon="10.7467917"><ele>221.50000000000003</ele><time>2026-03-28T13:24:48.829Z</time></trkpt><trkpt lat="45.58832" lon="10.7467283"><ele>222.0</ele><time>2026-03-28T13:24:49.83Z</time></trkpt><trkpt lat="45.5882767" lon="10.7466533"><ele>222.5</ele><time>2026-03-28T13:24:50.83Z</time></trkpt><trkpt lat="45.58825" lon="10.7465233"><ele>223.0</ele><time>2026-03-28T13:24:52.829Z</time></trkpt><trkpt lat="45.5882483" lon="10.7464167"><ele>223.50000000000003</ele><time>2026-03-28T13:25:03.829Z</time></trkpt><trkpt lat="45.5881883" lon="10.746375"><ele>224.0</ele><time>2026-03-28T13:25:06.828Z</time></trkpt><trkpt lat="45.58809" lon="10.74642"><ele>224.0</ele><time>2026-03-28T13:25:08.829Z</time></trkpt><trkpt lat="45.587995" lon="10.7464983"><ele>223.99999999999997</ele><time>2026-03-28T13:25:10.828Z</time></trkpt><trkpt lat="45.587885" lon="10.74659"><ele>223.99999999999997</ele><time>2026-03-28T13:25:12.828Z</time></trkpt><trkpt lat="45.5878333" lon="10.7466533"><ele>224.0</ele><time>2026-03-28T13:25:13.828Z</time></trkpt><trkpt lat="45.5877767" lon="10.7468067"><ele>224.0</ele><time>2026-03-28T13:25:15.828Z</time></trkpt><trkpt lat="45.5877217" lon="10.7469333"><ele>224.0</ele><time>2026-03-28T13:25:17.829Z</time></trkpt><trkpt lat="45.5876617" lon="10.74703"><ele>223.99999999999997</ele><time>2026-03-28T13:25:19.828Z</time></trkpt><trkpt lat="45.5876033" lon="10.7471"><ele>223.99999999999997</ele><time>2026-03-28T13:25:22.829Z</time></trkpt><trkpt lat="45.5875233" lon="10.7472417"><ele>224.0</ele><time>2026-03-28T13:26:13.828Z</time></trkpt><trkpt lat="45.5874567" lon="10.7473467"><ele>224.0</ele><time>2026-03-28T13:26:15.829Z</time></trkpt><trkpt lat="45.5874017" lon="10.7474283"><ele>224.0</ele><time>2026-03-28T13:26:17.829Z</time></trkpt><trkpt lat="45.5873467" lon="10.7474833"><ele>223.99999999999997</ele><time>2026-03-28T13:26:18.828Z</time></trkpt><trkpt lat="45.587285" lon="10.74756"><ele>223.99999999999997</ele><time>2026-03-28T13:26:19.828Z</time></trkpt><trkpt lat="45.5872083" lon="10.7476567"><ele>224.0</ele><time>2026-03-28T13:26:20.829Z</time></trkpt><trkpt lat="45.58711" lon="10.747765"><ele>224.0</ele><time>2026-03-28T13:26:21.828Z</time></trkpt><trkpt lat="45.587015" lon="10.7478533"><ele>223.83333333333334</ele><time>2026-03-28T13:26:22.828Z</time></trkpt><trkpt lat="45.58693" lon="10.7479333"><ele>223.66666666666669</ele><time>2026-03-28T13:26:23.828Z</time></trkpt><trkpt lat="45.5868617" lon="10.7479683"><ele>223.5</ele><time>2026-03-28T13:26:24.829Z</time></trkpt><trkpt lat="45.586815" lon="10.7480317"><ele>223.33333333333331</ele><time>2026-03-28T13:26:25.828Z</time></trkpt><trkpt lat="45.5868017" lon="10.74816"><ele>223.16666666666666</ele><time>2026-03-28T13:26:27.829Z</time></trkpt><trkpt lat="45.58689" lon="10.7481433"><ele>223.0</ele><time>2026-03-28T13:26:29.829Z</time></trkpt><trkpt lat="45.5869767" lon="10.748055"><ele>222.8</ele><time>2026-03-28T13:26:30.829Z</time></trkpt><trkpt lat="45.5870533" lon="10.74796"><ele>222.60000000000002</ele><time>2026-03-28T13:26:31.828Z</time></trkpt><trkpt lat="45.5871383" lon="10.747865"><ele>222.39999999999998</ele><time>2026-03-28T13:26:32.829Z</time></trkpt><trkpt lat="45.587225" lon="10.74778"><ele>222.2</ele><time>2026-03-28T13:26:33.829Z</time></trkpt><trkpt lat="45.5873117" lon="10.7476767"><ele>222.0</ele><time>2026-03-28T13:26:34.828Z</time></trkpt><trkpt lat="45.5873983" lon="10.7475783"><ele>222.39999999999998</ele><time>2026-03-28T13:26:35.828Z</time></trkpt><trkpt lat="45.5874833" lon="10.7474833"><ele>222.79999999999998</ele><time>2026-03-28T13:26:36.829Z</time></trkpt><trkpt lat="45.5875617" lon="10.747395"><ele>223.2</ele><time>2026-03-28T13:26:37.828Z</time></trkpt><trkpt lat="45.5876433" lon="10.7473083"><ele>223.6</ele><time>2026-03-28T13:26:38.829Z</time></trkpt><trkpt lat="45.587735" lon="10.747225"><ele>224.0</ele><time>2026-03-28T13:26:39.828Z</time></trkpt><trkpt lat="45.587825" lon="10.74715"><ele>224.00000000000003</ele><time>2026-03-28T13:26:40.828Z</time></trkpt><trkpt lat="45.58791" lon="10.747085"><ele>224.0</ele><time>2026-03-28T13:26:41.829Z</time></trkpt><trkpt lat="45.5879817" lon="10.747035"><ele>224.0</ele><time>2026-03-28T13:26:42.828Z</time></trkpt><trkpt lat="45.5880483" lon="10.7469817"><ele>224.0</ele><time>2026-03-28T13:26:43.829Z</time></trkpt><trkpt lat="45.588105" lon="10.746905"><ele>224.00000000000003</ele><time>2026-03-28T13:26:44.828Z</time></trkpt><trkpt lat="45.5881433" lon="10.7468"><ele>224.0</ele><time>2026-03-28T13:26:45.829Z</time></trkpt><trkpt lat="45.5881467" lon="10.7466833"><ele>224.0</ele><time>2026-03-28T13:26:46.829Z</time></trkpt><trkpt lat="45.58813" lon="10.7465833"><ele>223.99999999999997</ele><time>2026-03-28T13:26:47.829Z</time></trkpt><trkpt lat="45.5880233" lon="10.7465"><ele>223.99999999999997</ele><time>2026-03-28T13:26:49.828Z</time></trkpt><trkpt lat="45.5879133" lon="10.7465233"><ele>224.0</ele><time>2026-03-28T13:26:51.829Z</time></trkpt><trkpt lat="45.5878467" lon="10.7465217"><ele>224.0</ele><time>2026-03-28T13:26:53.829Z</time></trkpt><trkpt lat="45.5876967" lon="10.74648"><ele>224.00000000000003</ele><time>2026-03-28T13:27:08.829Z</time></trkpt><trkpt lat="45.587655" lon="10.74641"><ele>224.0</ele><time>2026-03-28T13:27:10.828Z</time></trkpt><trkpt lat="45.5877283" lon="10.746365"><ele>224.0</ele><time>2026-03-28T13:27:13.828Z</time></trkpt><trkpt lat="45.587805" lon="10.7463783"><ele>224.0</ele><time>2026-03-28T13:27:15.828Z</time></trkpt><trkpt lat="45.5878733" lon="10.7463983"><ele>224.00000000000003</ele><time>2026-03-28T13:27:17.828Z</time></trkpt><trkpt lat="45.587945" lon="10.746315"><ele>224.0</ele><time>2026-03-28T13:57:23.818Z</time></trkpt><trkpt lat="45.58787" lon="10.7463033"><ele>224.0</ele><time>2026-03-28T13:57:26.818Z</time></trkpt><trkpt lat="45.5878" lon="10.7462933"><ele>223.99999999999997</ele><time>2026-03-28T13:57:28.818Z</time></trkpt><trkpt lat="45.5877183" lon="10.7463483"><ele>223.99999999999997</ele><time>2026-03-28T14:19:54.813Z</time></trkpt><trkpt lat="45.5877883" lon="10.74639"><ele>224.0</ele><time>2026-03-28T14:19:59.812Z</time></trkpt><trkpt lat="45.5879" lon="10.7463467"><ele>224.0</ele><time>2026-03-28T14:20:01.813Z</time></trkpt><trkpt lat="45.588" lon="10.7463383"><ele>224.00000000000003</ele><time>2026-03-28T14:20:03.812Z</time></trkpt><trkpt lat="45.5880567" lon="10.7463983"><ele>224.0</ele><time>2026-03-28T14:20:05.812Z</time></trkpt><trkpt lat="45.5880067" lon="10.7464933"><ele>224.0</ele><time>2026-03-28T14:20:08.812Z</time></trkpt><trkpt lat="45.5879183" lon="10.7465367"><ele>224.0</ele><time>2026-03-28T14:21:25.813Z</time></trkpt><trkpt lat="45.5878533" lon="10.74664"><ele>224.00000000000003</ele><time>2026-03-28T14:21:27.812Z</time></trkpt><trkpt lat="45.58782" lon="10.7467233"><ele>224.0</ele><time>2026-03-28T14:21:28.813Z</time></trkpt><trkpt lat="45.5877967" lon="10.7468117"><ele>224.00000000000003</ele><time>2026-03-28T14:21:29.813Z</time></trkpt><trkpt lat="45.5877667" lon="10.746915"><ele>224.0</ele><time>2026-03-28T14:21:30.813Z</time></trkpt><trkpt lat="45.5877233" lon="10.747015"><ele>224.0</ele><time>2026-03-28T14:21:31.812Z</time></trkpt><trkpt lat="45.587675" lon="10.7471133"><ele>224.0</ele><time>2026-03-28T14:21:32.812Z</time></trkpt><trkpt lat="45.5876117" lon="10.7472083"><ele>224.00000000000003</ele><time>2026-03-28T14:21:33.813Z</time></trkpt><trkpt lat="45.5875433" lon="10.7473167"><ele>224.0</ele><time>2026-03-28T14:21:34.812Z</time></trkpt><trkpt lat="45.587455" lon="10.7474083"><ele>224.0</ele><time>2026-03-28T14:21:35.812Z</time></trkpt><trkpt lat="45.5873683" lon="10.7475083"><ele>223.99999999999997</ele><time>2026-03-28T14:21:36.812Z</time></trkpt><trkpt lat="45.5872867" lon="10.7476317"><ele>223.99999999999997</ele><time>2026-03-28T14:21:37.813Z</time></trkpt><trkpt lat="45.587205" lon="10.747735"><ele>224.0</ele><time>2026-03-28T14:21:38.812Z</time></trkpt><trkpt lat="45.587115" lon="10.7478117"><ele>224.0</ele><time>2026-03-28T14:21:39.813Z</time></trkpt><trkpt lat="45.5870417" lon="10.7478633"><ele>223.83333333333334</ele><time>2026-03-28T14:21:40.812Z</time></trkpt><trkpt lat="45.5869833" lon="10.7479133"><ele>223.66666666666669</ele><time>2026-03-28T14:21:41.813Z</time></trkpt><trkpt lat="45.5869233" lon="10.7479483"><ele>223.5</ele><time>2026-03-28T14:21:42.812Z</time></trkpt><trkpt lat="45.58686" lon="10.7479767"><ele>223.33333333333331</ele><time>2026-03-28T14:21:43.813Z</time></trkpt><trkpt lat="45.5867833" lon="10.7480367"><ele>223.16666666666666</ele><time>2026-03-28T14:21:44.813Z</time></trkpt><trkpt lat="45.5867167" lon="10.7481233"><ele>223.0</ele><time>2026-03-28T14:21:45.812Z</time></trkpt><trkpt lat="45.5866433" lon="10.7482167"><ele>223.0</ele><time>2026-03-28T14:21:46.812Z</time></trkpt><trkpt lat="45.58656" lon="10.7483067"><ele>223.0</ele><time>2026-03-28T14:21:47.813Z</time></trkpt><trkpt lat="45.5864717" lon="10.748405"><ele>223.0</ele><time>2026-03-28T14:21:48.812Z</time></trkpt><trkpt lat="45.5863733" lon="10.74849"><ele>223.0</ele><time>2026-03-28T14:21:49.812Z</time></trkpt><trkpt lat="45.5862767" lon="10.7485883"><ele>222.5</ele><time>2026-03-28T14:21:50.812Z</time></trkpt><trkpt lat="45.58619" lon="10.7486917"><ele>222.0</ele><time>2026-03-28T14:21:51.812Z</time></trkpt><trkpt lat="45.5860933" lon="10.74878"><ele>221.5</ele><time>2026-03-28T14:21:52.812Z</time></trkpt><trkpt lat="45.585985" lon="10.7488817"><ele>221.0</ele><time>2026-03-28T14:21:53.813Z</time></trkpt><trkpt lat="45.5858767" lon="10.74898"><ele>221.0</ele><time>2026-03-28T14:21:54.812Z</time></trkpt><trkpt lat="45.585765" lon="10.7490783"><ele>221.0</ele><time>2026-03-28T14:21:55.812Z</time></trkpt><trkpt lat="45.5856567" lon="10.74919"><ele>221.0</ele><time>2026-03-28T14:21:56.813Z</time></trkpt><trkpt lat="45.5855417" lon="10.74931"><ele>221.0</ele><time>2026-03-28T14:21:57.812Z</time></trkpt><trkpt lat="45.5854217" lon="10.7494467"><ele>220.66666666666669</ele><time>2026-03-28T14:21:58.812Z</time></trkpt><trkpt lat="45.5853067" lon="10.7495917"><ele>220.33333333333331</ele><time>2026-03-28T14:21:59.813Z</time></trkpt><trkpt lat="45.585195" lon="10.7497367"><ele>220.0</ele><time>2026-03-28T14:22:00.812Z</time></trkpt><trkpt lat="45.58509" lon="10.7499"><ele>220.0</ele><time>2026-03-28T14:22:01.812Z</time></trkpt><trkpt lat="45.5849767" lon="10.7500633"><ele>220.0</ele><time>2026-03-28T14:22:02.812Z</time></trkpt><trkpt lat="45.5848633" lon="10.7502283"><ele>220.0</ele><time>2026-03-28T14:22:03.813Z</time></trkpt><trkpt lat="45.584745" lon="10.750375"><ele>220.0</ele><time>2026-03-28T14:22:04.812Z</time></trkpt><trkpt lat="45.584635" lon="10.7505083"><ele>220.0</ele><time>2026-03-28T14:22:05.813Z</time></trkpt><trkpt lat="45.5845533" lon="10.7506417"><ele>220.0</ele><time>2026-03-28T14:22:06.812Z</time></trkpt><trkpt lat="45.5844783" lon="10.7507467"><ele>220.0</ele><time>2026-03-28T14:22:07.812Z</time></trkpt><trkpt lat="45.5844183" lon="10.7508333"><ele>220.2</ele><time>2026-03-28T14:22:08.813Z</time></trkpt><trkpt lat="45.5843517" lon="10.7509367"><ele>220.4</ele><time>2026-03-28T14:22:09.811Z</time></trkpt><trkpt lat="45.5842867" lon="10.7510283"><ele>220.60000000000002</ele><time>2026-03-28T14:22:10.812Z</time></trkpt><trkpt lat="45.58422" lon="10.751115"><ele>220.8</ele><time>2026-03-28T14:22:11.812Z</time></trkpt><trkpt lat="45.5841583" lon="10.7511983"><ele>221.0</ele><time>2026-03-28T14:22:12.811Z</time></trkpt><trkpt lat="45.5840833" lon="10.751285"><ele>220.60000000000002</ele><time>2026-03-28T14:22:13.811Z</time></trkpt><trkpt lat="45.584005" lon="10.7513717"><ele>220.20000000000002</ele><time>2026-03-28T14:22:14.811Z</time></trkpt><trkpt lat="45.583925" lon="10.75147"><ele>219.79999999999998</ele><time>2026-03-28T14:22:15.811Z</time></trkpt><trkpt lat="45.5838517" lon="10.7515667"><ele>219.39999999999998</ele><time>2026-03-28T14:22:16.812Z</time></trkpt><trkpt lat="45.583795" lon="10.7516367"><ele>219.0</ele><time>2026-03-28T14:22:17.812Z</time></trkpt><trkpt lat="45.58374" lon="10.75171"><ele>219.0</ele><time>2026-03-28T14:22:19.812Z</time></trkpt><trkpt lat="45.5838367" lon="10.7516267"><ele>219.0</ele><time>2026-03-28T14:22:33.811Z</time></trkpt><trkpt lat="45.58393" lon="10.7515483"><ele>219.0</ele><time>2026-03-28T14:22:35.811Z</time></trkpt><trkpt lat="45.5839867" lon="10.7514917"><ele>219.0</ele><time>2026-03-28T14:22:36.811Z</time></trkpt><trkpt lat="45.584045" lon="10.7514267"><ele>219.0</ele><time>2026-03-28T14:22:37.812Z</time></trkpt><trkpt lat="45.5841017" lon="10.7513733"><ele>219.0</ele><time>2026-03-28T14:22:38.811Z</time></trkpt><trkpt lat="45.58416" lon="10.7512983"><ele>219.0</ele><time>2026-03-28T14:22:39.811Z</time></trkpt><trkpt lat="45.584225" lon="10.7512283"><ele>219.0</ele><time>2026-03-28T14:22:40.811Z</time></trkpt><trkpt lat="45.5842883" lon="10.7511517"><ele>219.0</ele><time>2026-03-28T14:22:41.812Z</time></trkpt><trkpt lat="45.58436" lon="10.75106"><ele>219.0</ele><time>2026-03-28T14:22:42.811Z</time></trkpt><trkpt lat="45.5844267" lon="10.7509717"><ele>219.0</ele><time>2026-03-28T14:22:43.811Z</time></trkpt><trkpt lat="45.5845" lon="10.7508817"><ele>219.0</ele><time>2026-03-28T14:22:44.811Z</time></trkpt><trkpt lat="45.584565" lon="10.7507817"><ele>219.2</ele><time>2026-03-28T14:22:45.812Z</time></trkpt><trkpt lat="45.5846217" lon="10.7506817"><ele>219.39999999999998</ele><time>2026-03-28T14:22:46.811Z</time></trkpt><trkpt lat="45.5846767" lon="10.7505867"><ele>219.6</ele><time>2026-03-28T14:22:47.812Z</time></trkpt><trkpt lat="45.5847383" lon="10.7505017"><ele>219.8</ele><time>2026-03-28T14:22:48.811Z</time></trkpt><trkpt lat="45.5848033" lon="10.7504083"><ele>220.0</ele><time>2026-03-28T14:22:49.811Z</time></trkpt><trkpt lat="45.5848733" lon="10.7503033"><ele>220.0</ele><time>2026-03-28T14:22:50.811Z</time></trkpt><trkpt lat="45.5849533" lon="10.7501883"><ele>220.0</ele><time>2026-03-28T14:22:51.812Z</time></trkpt><trkpt lat="45.58503" lon="10.750065"><ele>220.0</ele><time>2026-03-28T14:22:52.811Z</time></trkpt><trkpt lat="45.58511" lon="10.7499483"><ele>220.0</ele><time>2026-03-28T14:22:53.811Z</time></trkpt><trkpt lat="45.5851883" lon="10.7498333"><ele>220.0</ele><time>2026-03-28T14:22:54.811Z</time></trkpt><trkpt lat="45.58527" lon="10.7497117"><ele>220.0</ele><time>2026-03-28T14:22:55.811Z</time></trkpt><trkpt lat="45.5853483" lon="10.7495983"><ele>220.0</ele><time>2026-03-28T14:22:56.812Z</time></trkpt><trkpt lat="45.5854267" lon="10.7494983"><ele>220.0</ele><time>2026-03-28T14:22:57.811Z</time></trkpt><trkpt lat="45.5854967" lon="10.749425"><ele>220.0</ele><time>2026-03-28T14:22:58.811Z</time></trkpt><trkpt lat="45.58556" lon="10.7493483"><ele>220.16666666666666</ele><time>2026-03-28T14:22:59.811Z</time></trkpt><trkpt lat="45.5856133" lon="10.749265"><ele>220.33333333333331</ele><time>2026-03-28T14:23:00.811Z</time></trkpt><trkpt lat="45.585655" lon="10.7491933"><ele>220.5</ele><time>2026-03-28T14:23:01.811Z</time></trkpt><trkpt lat="45.5856517" lon="10.7490533"><ele>220.66666666666669</ele><time>2026-03-28T14:23:03.811Z</time></trkpt><trkpt lat="45.5855983" lon="10.7489933"><ele>220.83333333333334</ele><time>2026-03-28T14:23:05.811Z</time></trkpt><trkpt lat="45.5855117" lon="10.7489633"><ele>221.0</ele><time>2026-03-28T14:23:23.811Z</time></trkpt><trkpt lat="45.5854483" lon="10.748935"><ele>221.0</ele><time>2026-03-28T14:23:24.812Z</time></trkpt><trkpt lat="45.5853683" lon="10.7489117"><ele>221.00000000000003</ele><time>2026-03-28T14:23:25.811Z</time></trkpt><trkpt lat="45.585265" lon="10.7489083"><ele>221.00000000000003</ele><time>2026-03-28T14:23:26.812Z</time></trkpt><trkpt lat="45.5851467" lon="10.7489467"><ele>221.0</ele><time>2026-03-28T14:23:27.811Z</time></trkpt><trkpt lat="45.58504" lon="10.7490167"><ele>221.0</ele><time>2026-03-28T14:23:28.811Z</time></trkpt><trkpt lat="45.5849433" lon="10.7491217"><ele>220.8</ele><time>2026-03-28T14:23:29.811Z</time></trkpt><trkpt lat="45.5848683" lon="10.7492367"><ele>220.60000000000002</ele><time>2026-03-28T14:23:30.812Z</time></trkpt><trkpt lat="45.5847933" lon="10.7493483"><ele>220.4</ele><time>2026-03-28T14:23:31.812Z</time></trkpt><trkpt lat="45.5847117" lon="10.749455"><ele>220.2</ele><time>2026-03-28T14:23:32.812Z</time></trkpt><trkpt lat="45.5846283" lon="10.7495467"><ele>220.0</ele><time>2026-03-28T14:23:33.812Z</time></trkpt><trkpt lat="45.58454" lon="10.749595"><ele>220.8</ele><time>2026-03-28T14:23:34.811Z</time></trkpt><trkpt lat="45.5844583" lon="10.7496267"><ele>221.6</ele><time>2026-03-28T14:23:35.811Z</time></trkpt><trkpt lat="45.5843633" lon="10.7496217"><ele>222.39999999999998</ele><time>2026-03-28T14:23:36.812Z</time></trkpt><trkpt lat="45.58426" lon="10.749605"><ele>223.2</ele><time>2026-03-28T14:23:37.811Z</time></trkpt><trkpt lat="45.5841517" lon="10.749595"><ele>224.0</ele><time>2026-03-28T14:23:38.811Z</time></trkpt><trkpt lat="45.5840367" lon="10.7495867"><ele>224.0</ele><time>2026-03-28T14:23:39.812Z</time></trkpt><trkpt lat="45.5839183" lon="10.7495967"><ele>224.0</ele><time>2026-03-28T14:23:40.812Z</time></trkpt><trkpt lat="45.5838033" lon="10.7496067"><ele>224.0</ele><time>2026-03-28T14:23:41.811Z</time></trkpt><trkpt lat="45.5836833" lon="10.74963"><ele>224.0</ele><time>2026-03-28T14:23:42.812Z</time></trkpt><trkpt lat="45.5835683" lon="10.749645"><ele>224.75</ele><time>2026-03-28T14:23:43.811Z</time></trkpt><trkpt lat="45.58345" lon="10.7496733"><ele>225.5</ele><time>2026-03-28T14:23:44.812Z</time></trkpt><trkpt lat="45.583325" lon="10.7497117"><ele>226.25</ele><time>2026-03-28T14:23:45.812Z</time></trkpt><trkpt lat="45.583205" lon="10.7497533"><ele>227.0</ele><time>2026-03-28T14:23:46.812Z</time></trkpt><trkpt lat="45.5830817" lon="10.7497717"><ele>227.0</ele><time>2026-03-28T14:23:47.811Z</time></trkpt><trkpt lat="45.5829633" lon="10.74976"><ele>227.0</ele><time>2026-03-28T14:23:48.811Z</time></trkpt><trkpt lat="45.5828417" lon="10.7497333"><ele>227.0</ele><time>2026-03-28T14:23:49.811Z</time></trkpt><trkpt lat="45.5827233" lon="10.7496983"><ele>227.0</ele><time>2026-03-28T14:23:50.812Z</time></trkpt><trkpt lat="45.5826017" lon="10.749665"><ele>226.5</ele><time>2026-03-28T14:23:51.811Z</time></trkpt><trkpt lat="45.5824767" lon="10.7496267"><ele>226.0</ele><time>2026-03-28T14:23:52.811Z</time></trkpt><trkpt lat="45.582355" lon="10.7496"><ele>225.5</ele><time>2026-03-28T14:23:53.812Z</time></trkpt><trkpt lat="45.582235" lon="10.7495633"><ele>225.0</ele><time>2026-03-28T14:23:54.812Z</time></trkpt><trkpt lat="45.5821117" lon="10.74952"><ele>224.25</ele><time>2026-03-28T14:23:55.812Z</time></trkpt><trkpt lat="45.5819883" lon="10.7494867"><ele>223.5</ele><time>2026-03-28T14:23:56.811Z</time></trkpt><trkpt lat="45.5818583" lon="10.7494567"><ele>222.75</ele><time>2026-03-28T14:23:57.811Z</time></trkpt><trkpt lat="45.5817367" lon="10.7494467"><ele>222.0</ele><time>2026-03-28T14:23:58.812Z</time></trkpt><trkpt lat="45.5816133" lon="10.7494283"><ele>222.0</ele><time>2026-03-28T14:23:59.812Z</time></trkpt><trkpt lat="45.5814883" lon="10.74941"><ele>222.0</ele><time>2026-03-28T14:24:00.812Z</time></trkpt><trkpt lat="45.5813683" lon="10.7493783"><ele>222.0</ele><time>2026-03-28T14:24:01.812Z</time></trkpt><trkpt lat="45.5812517" lon="10.7493567"><ele>222.0</ele><time>2026-03-28T14:24:02.811Z</time></trkpt><trkpt lat="45.5811283" lon="10.74935"><ele>222.25</ele><time>2026-03-28T14:24:03.811Z</time></trkpt><trkpt lat="45.5810017" lon="10.7493517"><ele>222.5</ele><time>2026-03-28T14:24:04.812Z</time></trkpt><trkpt lat="45.5808717" lon="10.7493733"><ele>222.75</ele><time>2026-03-28T14:24:05.811Z</time></trkpt><trkpt lat="45.5807417" lon="10.7494083"><ele>223.0</ele><time>2026-03-28T14:24:06.811Z</time></trkpt><trkpt lat="45.5806283" lon="10.7494633"><ele>223.0</ele><time>2026-03-28T14:24:07.811Z</time></trkpt><trkpt lat="45.580525" lon="10.7495317"><ele>223.0</ele><time>2026-03-28T14:24:08.811Z</time></trkpt><trkpt lat="45.5804317" lon="10.7496017"><ele>223.0</ele><time>2026-03-28T14:24:09.812Z</time></trkpt><trkpt lat="45.5803417" lon="10.74967"><ele>223.0</ele><time>2026-03-28T14:24:10.811Z</time></trkpt><trkpt lat="45.5802617" lon="10.7497083"><ele>223.0</ele><time>2026-03-28T14:24:11.812Z</time></trkpt><trkpt lat="45.5802067" lon="10.7497567"><ele>224.16666666666666</ele><time>2026-03-28T14:24:12.811Z</time></trkpt><trkpt lat="45.5801517" lon="10.7498483"><ele>225.33333333333331</ele><time>2026-03-28T14:24:14.811Z</time></trkpt><trkpt lat="45.5800917" lon="10.7499233"><ele>226.5</ele><time>2026-03-28T14:24:16.812Z</time></trkpt><trkpt lat="45.5799917" lon="10.7499867"><ele>227.66666666666669</ele><time>2026-03-28T14:24:18.812Z</time></trkpt><trkpt lat="45.5798983" lon="10.7500383"><ele>228.83333333333334</ele><time>2026-03-28T14:24:20.812Z</time></trkpt><trkpt lat="45.5798383" lon="10.7500817"><ele>230.0</ele><time>2026-03-28T14:24:22.811Z</time></trkpt><trkpt lat="45.579755" lon="10.7501183"><ele>230.0</ele><time>2026-03-28T14:24:28.811Z</time></trkpt><trkpt lat="45.5796217" lon="10.75016"><ele>230.0</ele><time>2026-03-28T14:24:30.811Z</time></trkpt><trkpt lat="45.57954" lon="10.7502133"><ele>230.0</ele><time>2026-03-28T14:24:31.812Z</time></trkpt><trkpt lat="45.579445" lon="10.7502817"><ele>230.0</ele><time>2026-03-28T14:24:32.812Z</time></trkpt><trkpt lat="45.579345" lon="10.750365"><ele>230.0</ele><time>2026-03-28T14:24:33.811Z</time></trkpt><trkpt lat="45.579215" lon="10.75047"><ele>229.75</ele><time>2026-03-28T14:24:34.811Z</time></trkpt><trkpt lat="45.5790967" lon="10.7505567"><ele>229.5</ele><time>2026-03-28T14:24:35.811Z</time></trkpt><trkpt lat="45.5789767" lon="10.7506367"><ele>229.25</ele><time>2026-03-28T14:24:36.811Z</time></trkpt><trkpt lat="45.578865" lon="10.7507067"><ele>229.0</ele><time>2026-03-28T14:24:37.812Z</time></trkpt><trkpt lat="45.578775" lon="10.7507717"><ele>228.99999999999997</ele><time>2026-03-28T14:24:38.812Z</time></trkpt><trkpt lat="45.5787033" lon="10.7508383"><ele>229.0</ele><time>2026-03-28T14:24:39.812Z</time></trkpt><trkpt lat="45.5786283" lon="10.7509083"><ele>229.0</ele><time>2026-03-28T14:24:40.811Z</time></trkpt><trkpt lat="45.5785817" lon="10.7509783"><ele>229.0</ele><time>2026-03-28T14:24:41.812Z</time></trkpt><trkpt lat="45.5785633" lon="10.751105"><ele>228.99999999999997</ele><time>2026-03-28T14:24:43.811Z</time></trkpt><trkpt lat="45.5786133" lon="10.7512417"><ele>229.0</ele><time>2026-03-28T14:24:45.812Z</time></trkpt><trkpt lat="45.5786467" lon="10.7513283"><ele>228.33333333333331</ele><time>2026-03-28T14:24:46.811Z</time></trkpt><trkpt lat="45.5786817" lon="10.75143"><ele>227.66666666666666</ele><time>2026-03-28T14:24:47.812Z</time></trkpt><trkpt lat="45.5787117" lon="10.7515433"><ele>227.0</ele><time>2026-03-28T14:24:48.811Z</time></trkpt><trkpt lat="45.578725" lon="10.7516533"><ele>226.33333333333331</ele><time>2026-03-28T14:24:49.811Z</time></trkpt><trkpt lat="45.5787383" lon="10.7517533"><ele>225.66666666666666</ele><time>2026-03-28T14:24:50.811Z</time></trkpt><trkpt lat="45.5787367" lon="10.75186"><ele>225.0</ele><time>2026-03-28T14:24:51.812Z</time></trkpt><trkpt lat="45.5787183" lon="10.751975"><ele>223.83333333333334</ele><time>2026-03-28T14:24:52.812Z</time></trkpt><trkpt lat="45.578695" lon="10.7520917"><ele>222.66666666666669</ele><time>2026-03-28T14:24:53.811Z</time></trkpt><trkpt lat="45.578685" lon="10.7522"><ele>221.5</ele><time>2026-03-28T14:24:54.812Z</time></trkpt><trkpt lat="45.5786733" lon="10.7523283"><ele>220.33333333333334</ele><time>2026-03-28T14:24:55.811Z</time></trkpt><trkpt lat="45.5786567" lon="10.7524417"><ele>219.16666666666669</ele><time>2026-03-28T14:24:56.811Z</time></trkpt><trkpt lat="45.57864" lon="10.752535"><ele>218.0</ele><time>2026-03-28T14:24:57.812Z</time></trkpt><trkpt lat="45.578585" lon="10.752635"><ele>218.00000000000003</ele><time>2026-03-28T14:24:59.812Z</time></trkpt><trkpt lat="45.5785167" lon="10.7526883"><ele>218.0</ele><time>2026-03-28T14:25:02.812Z</time></trkpt><trkpt lat="45.57848" lon="10.7527933"><ele>218.0</ele><time>2026-03-28T14:25:14.812Z</time></trkpt><trkpt lat="45.5784917" lon="10.7526133"><ele>218.0</ele><time>2026-03-28T14:25:18.812Z</time></trkpt><trkpt lat="45.5784467" lon="10.75254"><ele>218.00000000000003</ele><time>2026-03-28T14:25:20.812Z</time></trkpt><trkpt lat="45.5784" lon="10.7526367"><ele>218.0</ele><time>2026-03-28T14:25:22.811Z</time></trkpt><trkpt lat="45.57834" lon="10.7527883"><ele>217.16666666666669</ele><time>2026-03-28T14:25:24.811Z</time></trkpt><trkpt lat="45.578305" lon="10.752865"><ele>216.33333333333334</ele><time>2026-03-28T14:25:25.811Z</time></trkpt><trkpt lat="45.57826" lon="10.752945"><ele>215.5</ele><time>2026-03-28T14:25:27.811Z</time></trkpt><trkpt lat="45.5782617" lon="10.753045"><ele>214.66666666666669</ele><time>2026-03-28T14:25:39.811Z</time></trkpt><trkpt lat="45.57833" lon="10.753005"><ele>213.83333333333334</ele><time>2026-03-28T14:25:42.812Z</time></trkpt><trkpt lat="45.5783583" lon="10.752845"><ele>213.0</ele><time>2026-03-28T14:25:44.812Z</time></trkpt><trkpt lat="45.57839" lon="10.7527217"><ele>213.0</ele><time>2026-03-28T14:25:46.811Z</time></trkpt><trkpt lat="45.5784283" lon="10.75262"><ele>213.0</ele><time>2026-03-28T14:25:48.811Z</time></trkpt><trkpt lat="45.5784733" lon="10.7525467"><ele>213.0</ele><time>2026-03-28T14:25:50.812Z</time></trkpt><trkpt lat="45.5785017" lon="10.752685"><ele>213.0</ele><time>2026-03-28T14:25:54.811Z</time></trkpt><trkpt lat="45.5784883" lon="10.7527817"><ele>213.0</ele><time>2026-03-28T14:25:55.811Z</time></trkpt><trkpt lat="45.5784717" lon="10.7529083"><ele>213.0</ele><time>2026-03-28T14:25:56.812Z</time></trkpt><trkpt lat="45.5784583" lon="10.75307"><ele>213.0</ele><time>2026-03-28T14:25:57.812Z</time></trkpt><trkpt lat="45.5784583" lon="10.7532333"><ele>213.0</ele><time>2026-03-28T14:25:58.812Z</time></trkpt><trkpt lat="45.578455" lon="10.7533733"><ele>213.0</ele><time>2026-03-28T14:25:59.811Z</time></trkpt><trkpt lat="45.57846" lon="10.7535117"><ele>213.0</ele><time>2026-03-28T14:26:00.812Z</time></trkpt><trkpt lat="45.5784783" lon="10.7536467"><ele>213.0</ele><time>2026-03-28T14:26:01.812Z</time></trkpt><trkpt lat="45.5785017" lon="10.7537783"><ele>212.33333333333334</ele><time>2026-03-28T14:26:02.811Z</time></trkpt><trkpt lat="45.5785283" lon="10.7538883"><ele>211.66666666666669</ele><time>2026-03-28T14:26:03.811Z</time></trkpt><trkpt lat="45.578555" lon="10.75397"><ele>211.0</ele><time>2026-03-28T14:26:04.811Z</time></trkpt><trkpt lat="45.5785883" lon="10.75409"><ele>210.33333333333334</ele><time>2026-03-28T14:26:06.811Z</time></trkpt><trkpt lat="45.5785683" lon="10.7541883"><ele>209.66666666666669</ele><time>2026-03-28T14:26:09.812Z</time></trkpt><trkpt lat="45.57847" lon="10.754125"><ele>209.0</ele><time>2026-03-28T14:26:12.811Z</time></trkpt><trkpt lat="45.5784167" lon="10.7540667"><ele>209.0</ele><time>2026-03-28T14:26:13.812Z</time></trkpt><trkpt lat="45.578355" lon="10.7540033"><ele>209.0</ele><time>2026-03-28T14:26:14.812Z</time></trkpt><trkpt lat="45.5782817" lon="10.7539367"><ele>209.0</ele><time>2026-03-28T14:26:15.811Z</time></trkpt><trkpt lat="45.5781917" lon="10.75386"><ele>209.0</ele><time>2026-03-28T14:26:16.811Z</time></trkpt><trkpt lat="45.5780867" lon="10.75378"><ele>209.0</ele><time>2026-03-28T14:26:17.812Z</time></trkpt><trkpt lat="45.5779783" lon="10.7536933"><ele>209.0</ele><time>2026-03-28T14:26:18.811Z</time></trkpt><trkpt lat="45.5778783" lon="10.7536"><ele>209.0</ele><time>2026-03-28T14:26:19.811Z</time></trkpt><trkpt lat="45.5777783" lon="10.7535"><ele>209.0</ele><time>2026-03-28T14:26:20.812Z</time></trkpt><trkpt lat="45.577675" lon="10.7534"><ele>209.0</ele><time>2026-03-28T14:26:21.811Z</time></trkpt><trkpt lat="45.5775767" lon="10.7533083"><ele>209.25</ele><time>2026-03-28T14:26:22.811Z</time></trkpt><trkpt lat="45.5774767" lon="10.7531983"><ele>209.5</ele><time>2026-03-28T14:26:23.812Z</time></trkpt><trkpt lat="45.5773883" lon="10.7530783"><ele>209.75</ele><time>2026-03-28T14:26:24.812Z</time></trkpt><trkpt lat="45.5773133" lon="10.7529467"><ele>210.0</ele><time>2026-03-28T14:26:25.811Z</time></trkpt><trkpt lat="45.57725" lon="10.7528467"><ele>210.0</ele><time>2026-03-28T14:26:26.811Z</time></trkpt><trkpt lat="45.5772067" lon="10.7527483"><ele>210.0</ele><time>2026-03-28T14:26:27.812Z</time></trkpt><trkpt lat="45.5771567" lon="10.7525883"><ele>210.0</ele><time>2026-03-28T14:26:29.812Z</time></trkpt><trkpt lat="45.5770967" lon="10.7524467"><ele>210.0</ele><time>2026-03-28T14:26:31.811Z</time></trkpt><trkpt lat="45.5770617" lon="10.752365"><ele>210.0</ele><time>2026-03-28T14:26:32.811Z</time></trkpt><trkpt lat="45.5770217" lon="10.7522667"><ele>210.0</ele><time>2026-03-28T14:26:33.81Z</time></trkpt><trkpt lat="45.57698" lon="10.7521633"><ele>210.0</ele><time>2026-03-28T14:26:34.81Z</time></trkpt><trkpt lat="45.5769367" lon="10.7520667"><ele>210.0</ele><time>2026-03-28T14:26:35.81Z</time></trkpt><trkpt lat="45.5768967" lon="10.7519717"><ele>210.0</ele><time>2026-03-28T14:26:36.811Z</time></trkpt><trkpt lat="45.5768533" lon="10.7518867"><ele>210.0</ele><time>2026-03-28T14:26:37.811Z</time></trkpt><trkpt lat="45.5768117" lon="10.7518133"><ele>210.0</ele><time>2026-03-28T14:26:38.81Z</time></trkpt><trkpt lat="45.5767667" lon="10.751735"><ele>210.0</ele><time>2026-03-28T14:26:39.811Z</time></trkpt><trkpt lat="45.57672" lon="10.7516583"><ele>210.0</ele><time>2026-03-28T14:26:40.81Z</time></trkpt><trkpt lat="45.5766383" lon="10.7515367"><ele>210.0</ele><time>2026-03-28T14:26:42.811Z</time></trkpt><trkpt lat="45.5765917" lon="10.7514433"><ele>210.0</ele><time>2026-03-28T14:26:44.81Z</time></trkpt><trkpt lat="45.5765183" lon="10.7513367"><ele>210.0</ele><time>2026-03-28T14:26:47.811Z</time></trkpt><trkpt lat="45.57645" lon="10.751245"><ele>210.0</ele><time>2026-03-28T14:26:49.811Z</time></trkpt><trkpt lat="45.5763633" lon="10.7510983"><ele>210.0</ele><time>2026-03-28T14:26:51.81Z</time></trkpt><trkpt lat="45.57631" lon="10.7510083"><ele>210.0</ele><time>2026-03-28T14:26:52.81Z</time></trkpt><trkpt lat="45.5762567" lon="10.7508917"><ele>210.0</ele><time>2026-03-28T14:26:53.811Z</time></trkpt><trkpt lat="45.5761983" lon="10.75076"><ele>210.0</ele><time>2026-03-28T14:26:54.81Z</time></trkpt><trkpt lat="45.57612" lon="10.7506117"><ele>210.0</ele><time>2026-03-28T14:26:55.81Z</time></trkpt><trkpt lat="45.5760183" lon="10.7504417"><ele>210.0</ele><time>2026-03-28T14:26:56.811Z</time></trkpt><trkpt lat="45.5759183" lon="10.75027"><ele>210.0</ele><time>2026-03-28T14:26:57.811Z</time></trkpt><trkpt lat="45.5757883" lon="10.750095"><ele>210.0</ele><time>2026-03-28T14:26:58.811Z</time></trkpt><trkpt lat="45.5756517" lon="10.74995"><ele>210.0</ele><time>2026-03-28T14:26:59.811Z</time></trkpt><trkpt lat="45.5755033" lon="10.74983"><ele>210.0</ele><time>2026-03-28T14:27:00.81Z</time></trkpt><trkpt lat="45.575355" lon="10.7497317"><ele>209.0</ele><time>2026-03-28T14:27:01.811Z</time></trkpt><trkpt lat="45.5752067" lon="10.7496367"><ele>208.0</ele><time>2026-03-28T14:27:02.81Z</time></trkpt><trkpt lat="45.5750667" lon="10.7495333"><ele>207.0</ele><time>2026-03-28T14:27:03.81Z</time></trkpt><trkpt lat="45.5749367" lon="10.7494183"><ele>206.66666666666669</ele><time>2026-03-28T14:27:04.811Z</time></trkpt><trkpt lat="45.5748" lon="10.7492983"><ele>206.33333333333334</ele><time>2026-03-28T14:27:05.811Z</time></trkpt><trkpt lat="45.5746617" lon="10.7491917"><ele>206.0</ele><time>2026-03-28T14:27:06.811Z</time></trkpt><trkpt lat="45.57452" lon="10.7491033"><ele>206.0</ele><time>2026-03-28T14:27:07.811Z</time></trkpt><trkpt lat="45.5743883" lon="10.7490233"><ele>206.0</ele><time>2026-03-28T14:27:08.811Z</time></trkpt><trkpt lat="45.574255" lon="10.74894"><ele>206.0</ele><time>2026-03-28T14:27:09.811Z</time></trkpt><trkpt lat="45.5741267" lon="10.748865"><ele>206.0</ele><time>2026-03-28T14:27:10.81Z</time></trkpt><trkpt lat="45.5740083" lon="10.7487633"><ele>206.0</ele><time>2026-03-28T14:27:11.811Z</time></trkpt><trkpt lat="45.5738983" lon="10.7486767"><ele>206.0</ele><time>2026-03-28T14:27:12.811Z</time></trkpt><trkpt lat="45.5738217" lon="10.7486033"><ele>206.0</ele><time>2026-03-28T14:27:13.81Z</time></trkpt><trkpt lat="45.5737717" lon="10.74854"><ele>206.0</ele><time>2026-03-28T14:27:14.81Z</time></trkpt><trkpt lat="45.5737" lon="10.7484533"><ele>206.0</ele><time>2026-03-28T14:27:16.81Z</time></trkpt><trkpt lat="45.5736083" lon="10.7483717"><ele>206.20000000000002</ele><time>2026-03-28T14:27:18.81Z</time></trkpt><trkpt lat="45.5735483" lon="10.7483083"><ele>206.4</ele><time>2026-03-28T14:27:19.81Z</time></trkpt><trkpt lat="45.573475" lon="10.748225"><ele>206.6</ele><time>2026-03-28T14:27:20.81Z</time></trkpt><trkpt lat="45.5734017" lon="10.7481267"><ele>206.8</ele><time>2026-03-28T14:27:21.81Z</time></trkpt><trkpt lat="45.5733333" lon="10.7480417"><ele>207.0</ele><time>2026-03-28T14:27:22.811Z</time></trkpt><trkpt lat="45.573235" lon="10.7480083"><ele>207.0</ele><time>2026-03-28T14:27:24.81Z</time></trkpt><trkpt lat="45.5731783" lon="10.7480483"><ele>207.0</ele><time>2026-03-28T14:27:25.81Z</time></trkpt><trkpt lat="45.5731133" lon="10.7480983"><ele>207.0</ele><time>2026-03-28T14:27:26.811Z</time></trkpt><trkpt lat="45.57304" lon="10.748175"><ele>207.0</ele><time>2026-03-28T14:27:27.81Z</time></trkpt><trkpt lat="45.5729633" lon="10.7482567"><ele>207.0</ele><time>2026-03-28T14:27:28.81Z</time></trkpt><trkpt lat="45.5728783" lon="10.748345"><ele>207.0</ele><time>2026-03-28T14:27:29.81Z</time></trkpt><trkpt lat="45.57278" lon="10.7484383"><ele>207.25</ele><time>2026-03-28T14:27:30.811Z</time></trkpt><trkpt lat="45.5726683" lon="10.74853"><ele>207.5</ele><time>2026-03-28T14:27:31.811Z</time></trkpt><trkpt lat="45.57256" lon="10.7486117"><ele>207.75</ele><time>2026-03-28T14:27:32.81Z</time></trkpt><trkpt lat="45.5724633" lon="10.7487067"><ele>208.0</ele><time>2026-03-28T14:27:33.81Z</time></trkpt><trkpt lat="45.572365" lon="10.748795"><ele>208.0</ele><time>2026-03-28T14:27:34.81Z</time></trkpt><trkpt lat="45.57227" lon="10.748845"><ele>208.0</ele><time>2026-03-28T14:27:35.81Z</time></trkpt><trkpt lat="45.572175" lon="10.74887"><ele>208.0</ele><time>2026-03-28T14:27:36.811Z</time></trkpt><trkpt lat="45.5720883" lon="10.7488683"><ele>208.0</ele><time>2026-03-28T14:27:37.811Z</time></trkpt><trkpt lat="45.5719933" lon="10.7488383"><ele>208.0</ele><time>2026-03-28T14:27:38.81Z</time></trkpt><trkpt lat="45.5718933" lon="10.7487867"><ele>208.2</ele><time>2026-03-28T14:27:39.811Z</time></trkpt><trkpt lat="45.5717883" lon="10.7487333"><ele>208.4</ele><time>2026-03-28T14:27:40.811Z</time></trkpt><trkpt lat="45.5716983" lon="10.7486717"><ele>208.6</ele><time>2026-03-28T14:27:41.811Z</time></trkpt><trkpt lat="45.5716067" lon="10.7486067"><ele>208.79999999999998</ele><time>2026-03-28T14:27:42.811Z</time></trkpt><trkpt lat="45.5715183" lon="10.748545"><ele>209.0</ele><time>2026-03-28T14:27:43.81Z</time></trkpt><trkpt lat="45.571415" lon="10.7484617"><ele>209.0</ele><time>2026-03-28T14:27:44.81Z</time></trkpt><trkpt lat="45.5713317" lon="10.7483867"><ele>209.0</ele><time>2026-03-28T14:27:45.81Z</time></trkpt><trkpt lat="45.57124" lon="10.7483033"><ele>209.0</ele><time>2026-03-28T14:27:46.81Z</time></trkpt><trkpt lat="45.57114" lon="10.7482233"><ele>209.0</ele><time>2026-03-28T14:27:47.81Z</time></trkpt><trkpt lat="45.5710483" lon="10.7481383"><ele>209.0</ele><time>2026-03-28T14:27:48.811Z</time></trkpt><trkpt lat="45.570955" lon="10.7480433"><ele>208.6</ele><time>2026-03-28T14:27:49.81Z</time></trkpt><trkpt lat="45.5708483" lon="10.7479917"><ele>208.2</ele><time>2026-03-28T14:27:50.811Z</time></trkpt><trkpt lat="45.5707533" lon="10.7479833"><ele>207.79999999999998</ele><time>2026-03-28T14:27:51.811Z</time></trkpt><trkpt lat="45.5706517" lon="10.7480367"><ele>207.39999999999998</ele><time>2026-03-28T14:27:52.811Z</time></trkpt><trkpt lat="45.5705667" lon="10.7481183"><ele>207.0</ele><time>2026-03-28T14:27:53.81Z</time></trkpt><trkpt lat="45.5704783" lon="10.7482283"><ele>207.0</ele><time>2026-03-28T14:27:54.811Z</time></trkpt><trkpt lat="45.57039" lon="10.7483617"><ele>207.0</ele><time>2026-03-28T14:27:55.81Z</time></trkpt><trkpt lat="45.5703" lon="10.7485083"><ele>207.0</ele><time>2026-03-28T14:27:56.811Z</time></trkpt><trkpt lat="45.5702167" lon="10.7486783"><ele>207.0</ele><time>2026-03-28T14:27:57.811Z</time></trkpt><trkpt lat="45.5701517" lon="10.7488617"><ele>211.25</ele><time>2026-03-28T14:27:58.811Z</time></trkpt><trkpt lat="45.5701083" lon="10.7490483"><ele>215.5</ele><time>2026-03-28T14:27:59.811Z</time></trkpt><trkpt lat="45.5700817" lon="10.7492183"><ele>219.75</ele><time>2026-03-28T14:28:00.81Z</time></trkpt><trkpt lat="45.5700517" lon="10.7493917"><ele>224.0</ele><time>2026-03-28T14:28:01.81Z</time></trkpt><trkpt lat="45.57003" lon="10.7495583"><ele>224.6</ele><time>2026-03-28T14:28:02.811Z</time></trkpt><trkpt lat="45.5700017" lon="10.7497167"><ele>225.2</ele><time>2026-03-28T14:28:03.811Z</time></trkpt><trkpt lat="45.5699783" lon="10.7498583"><ele>225.79999999999998</ele><time>2026-03-28T14:28:04.811Z</time></trkpt><trkpt lat="45.5699317" lon="10.7499633"><ele>226.39999999999998</ele><time>2026-03-28T14:28:05.811Z</time></trkpt><trkpt lat="45.56988" lon="10.7500467"><ele>227.0</ele><time>2026-03-28T14:28:06.811Z</time></trkpt><trkpt lat="45.5698217" lon="10.7501267"><ele>227.00000000000003</ele><time>2026-03-28T14:28:07.811Z</time></trkpt><trkpt lat="45.56978" lon="10.75021"><ele>227.0</ele><time>2026-03-28T14:28:08.81Z</time></trkpt><trkpt lat="45.5697417" lon="10.750285"><ele>227.0</ele><time>2026-03-28T14:28:09.811Z</time></trkpt><trkpt lat="45.569685" lon="10.7503367"><ele>227.0</ele><time>2026-03-28T14:28:12.81Z</time></trkpt><trkpt lat="45.5696633" lon="10.750185"><ele>227.00000000000003</ele><time>2026-03-28T14:28:14.81Z</time></trkpt><trkpt lat="45.5696383" lon="10.7500583"><ele>227.0</ele><time>2026-03-28T14:28:15.811Z</time></trkpt><trkpt lat="45.5696083" lon="10.74991"><ele>227.0</ele><time>2026-03-28T14:28:16.811Z</time></trkpt><trkpt lat="45.5695683" lon="10.7497383"><ele>227.0</ele><time>2026-03-28T14:28:17.81Z</time></trkpt><trkpt lat="45.569525" lon="10.7495283"><ele>227.0</ele><time>2026-03-28T14:28:18.81Z</time></trkpt><trkpt lat="45.569485" lon="10.7493183"><ele>227.0</ele><time>2026-03-28T14:28:19.81Z</time></trkpt><trkpt lat="45.5694533" lon="10.7491033"><ele>226.75</ele><time>2026-03-28T14:28:20.811Z</time></trkpt><trkpt lat="45.5694267" lon="10.7488867"><ele>226.5</ele><time>2026-03-28T14:28:21.811Z</time></trkpt><trkpt lat="45.5694067" lon="10.74868"><ele>226.25</ele><time>2026-03-28T14:28:22.81Z</time></trkpt><trkpt lat="45.5693883" lon="10.7484983"><ele>226.0</ele><time>2026-03-28T14:28:23.81Z</time></trkpt><trkpt lat="45.5693833" lon="10.7483533"><ele>225.8</ele><time>2026-03-28T14:28:24.81Z</time></trkpt><trkpt lat="45.569375" lon="10.7482517"><ele>225.60000000000002</ele><time>2026-03-28T14:28:25.81Z</time></trkpt><trkpt lat="45.5692817" lon="10.7481233"><ele>225.4</ele><time>2026-03-28T14:28:27.81Z</time></trkpt><trkpt lat="45.56921" lon="10.7480567"><ele>225.2</ele><time>2026-03-28T14:28:28.811Z</time></trkpt><trkpt lat="45.5691183" lon="10.747965"><ele>225.0</ele><time>2026-03-28T14:28:29.81Z</time></trkpt><trkpt lat="45.5690133" lon="10.7478467"><ele>225.0</ele><time>2026-03-28T14:28:30.81Z</time></trkpt><trkpt lat="45.5689067" lon="10.7477167"><ele>225.0</ele><time>2026-03-28T14:28:31.81Z</time></trkpt><trkpt lat="45.5688017" lon="10.747595"><ele>225.0</ele><time>2026-03-28T14:28:32.81Z</time></trkpt><trkpt lat="45.56869" lon="10.747505"><ele>225.0</ele><time>2026-03-28T14:28:33.81Z</time></trkpt><trkpt lat="45.5685633" lon="10.747435"><ele>226.5</ele><time>2026-03-28T14:28:34.811Z</time></trkpt><trkpt lat="45.5684383" lon="10.7473817"><ele>228.0</ele><time>2026-03-28T14:28:35.81Z</time></trkpt><trkpt lat="45.568315" lon="10.747335"><ele>229.5</ele><time>2026-03-28T14:28:36.811Z</time></trkpt><trkpt lat="45.568195" lon="10.7473083"><ele>231.0</ele><time>2026-03-28T14:28:37.81Z</time></trkpt><trkpt lat="45.568065" lon="10.7472983"><ele>231.0</ele><time>2026-03-28T14:28:38.811Z</time></trkpt><trkpt lat="45.56794" lon="10.7473033"><ele>231.0</ele><time>2026-03-28T14:28:39.81Z</time></trkpt><trkpt lat="45.5678283" lon="10.74731"><ele>231.0</ele><time>2026-03-28T14:28:40.811Z</time></trkpt><trkpt lat="45.56772" lon="10.747325"><ele>231.0</ele><time>2026-03-28T14:28:41.81Z</time></trkpt><trkpt lat="45.567615" lon="10.7473483"><ele>232.0</ele><time>2026-03-28T14:28:42.811Z</time></trkpt><trkpt lat="45.5675083" lon="10.7473633"><ele>233.00000000000003</ele><time>2026-03-28T14:28:43.81Z</time></trkpt><trkpt lat="45.5674117" lon="10.7473817"><ele>234.00000000000003</ele><time>2026-03-28T14:28:44.81Z</time></trkpt><trkpt lat="45.5672967" lon="10.7473967"><ele>235.0</ele><time>2026-03-28T14:28:45.811Z</time></trkpt><trkpt lat="45.5671883" lon="10.747415"><ele>236.0</ele><time>2026-03-28T14:28:46.81Z</time></trkpt><trkpt lat="45.5670867" lon="10.747415"><ele>238.4</ele><time>2026-03-28T14:28:47.81Z</time></trkpt><trkpt lat="45.5669917" lon="10.7473967"><ele>240.8</ele><time>2026-03-28T14:28:48.81Z</time></trkpt><trkpt lat="45.5669083" lon="10.7473767"><ele>243.20000000000002</ele><time>2026-03-28T14:28:49.81Z</time></trkpt><trkpt lat="45.5668417" lon="10.7473667"><ele>245.60000000000002</ele><time>2026-03-28T14:28:50.81Z</time></trkpt><trkpt lat="45.56675" lon="10.747395"><ele>248.0</ele><time>2026-03-28T14:28:52.81Z</time></trkpt><trkpt lat="45.5666333" lon="10.7474767"><ele>248.00000000000003</ele><time>2026-03-28T14:28:54.811Z</time></trkpt><trkpt lat="45.566565" lon="10.7475333"><ele>248.0</ele><time>2026-03-28T14:28:55.81Z</time></trkpt><trkpt lat="45.56649" lon="10.7475917"><ele>248.0</ele><time>2026-03-28T14:28:56.81Z</time></trkpt><trkpt lat="45.566415" lon="10.7476567"><ele>248.0</ele><time>2026-03-28T14:28:57.81Z</time></trkpt><trkpt lat="45.5663517" lon="10.7477317"><ele>248.00000000000003</ele><time>2026-03-28T14:28:58.811Z</time></trkpt><trkpt lat="45.566315" lon="10.7478467"><ele>248.0</ele><time>2026-03-28T14:28:59.81Z</time></trkpt><trkpt lat="45.5663083" lon="10.7479633"><ele>249.5</ele><time>2026-03-28T14:29:00.81Z</time></trkpt><trkpt lat="45.5663267" lon="10.7480967"><ele>251.0</ele><time>2026-03-28T14:29:01.811Z</time></trkpt><trkpt lat="45.5663633" lon="10.74826"><ele>252.5</ele><time>2026-03-28T14:29:02.811Z</time></trkpt><trkpt lat="45.5664067" lon="10.7484333"><ele>254.0</ele><time>2026-03-28T14:29:03.81Z</time></trkpt><trkpt lat="45.5664617" lon="10.7485933"><ele>256.59999999999997</ele><time>2026-03-28T14:29:04.811Z</time></trkpt><trkpt lat="45.5665067" lon="10.7487433"><ele>259.2</ele><time>2026-03-28T14:29:05.811Z</time></trkpt><trkpt lat="45.56655" lon="10.7488767"><ele>261.79999999999995</ele><time>2026-03-28T14:29:06.811Z</time></trkpt><trkpt lat="45.5665967" lon="10.74901"><ele>264.4</ele><time>2026-03-28T14:29:07.81Z</time></trkpt><trkpt lat="45.56663" lon="10.749135"><ele>267.0</ele><time>2026-03-28T14:29:08.811Z</time></trkpt><trkpt lat="45.5666617" lon="10.74924"><ele>268.0</ele><time>2026-03-28T14:29:09.81Z</time></trkpt><trkpt lat="45.5666667" lon="10.7493967"><ele>269.0</ele><time>2026-03-28T14:29:11.81Z</time></trkpt><trkpt lat="45.5666267" lon="10.7494983"><ele>270.0</ele><time>2026-03-28T14:29:13.81Z</time></trkpt><trkpt lat="45.5665833" lon="10.7495667"><ele>271.0</ele><time>2026-03-28T14:29:14.81Z</time></trkpt><trkpt lat="45.5664933" lon="10.7496467"><ele>272.0</ele><time>2026-03-28T14:29:15.811Z</time></trkpt><trkpt lat="45.5664067" lon="10.74974"><ele>272.0</ele><time>2026-03-28T14:29:16.811Z</time></trkpt><trkpt lat="45.56631" lon="10.7498467"><ele>272.0</ele><time>2026-03-28T14:29:17.81Z</time></trkpt><trkpt lat="45.5661683" lon="10.7499617"><ele>272.0</ele><time>2026-03-28T14:29:18.81Z</time></trkpt><trkpt lat="45.5660283" lon="10.7500767"><ele>272.0</ele><time>2026-03-28T14:29:19.811Z</time></trkpt><trkpt lat="45.565905" lon="10.7501833"><ele>272.25</ele><time>2026-03-28T14:29:20.811Z</time></trkpt><trkpt lat="45.56578" lon="10.7502967"><ele>272.5</ele><time>2026-03-28T14:29:21.81Z</time></trkpt><trkpt lat="45.56567" lon="10.7504033"><ele>272.75</ele><time>2026-03-28T14:29:22.81Z</time></trkpt><trkpt lat="45.565575" lon="10.750495"><ele>273.0</ele><time>2026-03-28T14:29:23.811Z</time></trkpt><trkpt lat="45.5654883" lon="10.7505683"><ele>273.0</ele><time>2026-03-28T14:29:24.81Z</time></trkpt><trkpt lat="45.5654217" lon="10.75064"><ele>273.0</ele><time>2026-03-28T14:29:25.811Z</time></trkpt><trkpt lat="45.5653433" lon="10.7507"><ele>273.0</ele><time>2026-03-28T14:29:26.81Z</time></trkpt><trkpt lat="45.5652483" lon="10.7507583"><ele>273.0</ele><time>2026-03-28T14:29:27.811Z</time></trkpt><trkpt lat="45.56514" lon="10.75082"><ele>273.0</ele><time>2026-03-28T14:29:28.81Z</time></trkpt><trkpt lat="45.56502" lon="10.7508817"><ele>273.5</ele><time>2026-03-28T14:29:29.81Z</time></trkpt><trkpt lat="45.56491" lon="10.75098"><ele>274.0</ele><time>2026-03-28T14:29:30.811Z</time></trkpt><trkpt lat="45.5648217" lon="10.751105"><ele>274.5</ele><time>2026-03-28T14:29:31.81Z</time></trkpt><trkpt lat="45.56475" lon="10.7512467"><ele>275.0</ele><time>2026-03-28T14:29:32.811Z</time></trkpt><trkpt lat="45.56468" lon="10.7513783"><ele>275.25</ele><time>2026-03-28T14:29:33.81Z</time></trkpt><trkpt lat="45.564595" lon="10.75149"><ele>275.5</ele><time>2026-03-28T14:29:34.81Z</time></trkpt><trkpt lat="45.5644933" lon="10.7515883"><ele>275.75</ele><time>2026-03-28T14:29:35.81Z</time></trkpt><trkpt lat="45.5643783" lon="10.7516733"><ele>276.0</ele><time>2026-03-28T14:29:36.811Z</time></trkpt><trkpt lat="45.564255" lon="10.75175"><ele>274.6</ele><time>2026-03-28T14:29:37.81Z</time></trkpt><trkpt lat="45.5641467" lon="10.7518183"><ele>273.20000000000005</ele><time>2026-03-28T14:29:38.81Z</time></trkpt><trkpt lat="45.564045" lon="10.75188"><ele>271.79999999999995</ele><time>2026-03-28T14:29:39.811Z</time></trkpt><trkpt lat="45.5639583" lon="10.7519617"><ele>270.4</ele><time>2026-03-28T14:29:40.81Z</time></trkpt><trkpt lat="45.56389" lon="10.7520683"><ele>269.0</ele><time>2026-03-28T14:29:41.81Z</time></trkpt><trkpt lat="45.5638367" lon="10.752185"><ele>267.4</ele><time>2026-03-28T14:29:42.811Z</time></trkpt><trkpt lat="45.5638033" lon="10.7523167"><ele>265.79999999999995</ele><time>2026-03-28T14:29:43.81Z</time></trkpt><trkpt lat="45.5638067" lon="10.7524617"><ele>264.20000000000005</ele><time>2026-03-28T14:29:44.81Z</time></trkpt><trkpt lat="45.5638367" lon="10.7526217"><ele>262.6</ele><time>2026-03-28T14:29:45.81Z</time></trkpt><trkpt lat="45.5638783" lon="10.75279"><ele>261.0</ele><time>2026-03-28T14:29:46.811Z</time></trkpt><trkpt lat="45.5639183" lon="10.75294"><ele>260.0</ele><time>2026-03-28T14:29:47.811Z</time></trkpt><trkpt lat="45.5639367" lon="10.7530683"><ele>259.0</ele><time>2026-03-28T14:29:48.811Z</time></trkpt><trkpt lat="45.56396" lon="10.7531683"><ele>258.0</ele><time>2026-03-28T14:29:49.811Z</time></trkpt><trkpt lat="45.5638933" lon="10.7531183"><ele>257.0</ele><time>2026-03-28T14:29:53.811Z</time></trkpt><trkpt lat="45.56386" lon="10.7529183"><ele>256.0</ele><time>2026-03-28T14:29:54.811Z</time></trkpt><trkpt lat="45.56383" lon="10.7527783"><ele>256.8333333333333</ele><time>2026-03-28T14:29:55.811Z</time></trkpt><trkpt lat="45.5637967" lon="10.7526817"><ele>257.66666666666663</ele><time>2026-03-28T14:29:56.811Z</time></trkpt><trkpt lat="45.56372" lon="10.7526483"><ele>258.5</ele><time>2026-03-28T14:29:58.81Z</time></trkpt><trkpt lat="45.563675" lon="10.7527867"><ele>259.3333333333333</ele><time>2026-03-28T14:30:00.811Z</time></trkpt><trkpt lat="45.5636667" lon="10.752885"><ele>260.1666666666667</ele><time>2026-03-28T14:30:01.81Z</time></trkpt><trkpt lat="45.56365" lon="10.7529867"><ele>261.0</ele><time>2026-03-28T14:30:02.811Z</time></trkpt><trkpt lat="45.5636283" lon="10.75309"><ele>259.1666666666667</ele><time>2026-03-28T14:30:03.811Z</time></trkpt><trkpt lat="45.5635517" lon="10.7532033"><ele>257.3333333333333</ele><time>2026-03-28T14:30:05.81Z</time></trkpt><trkpt lat="45.56349" lon="10.753235"><ele>255.5</ele><time>2026-03-28T14:30:06.81Z</time></trkpt><trkpt lat="45.56344" lon="10.75329"><ele>253.66666666666666</ele><time>2026-03-28T14:30:07.811Z</time></trkpt><trkpt lat="45.5633867" lon="10.753365"><ele>251.83333333333331</ele><time>2026-03-28T14:30:08.81Z</time></trkpt><trkpt lat="45.56333" lon="10.75345"><ele>250.0</ele><time>2026-03-28T14:30:09.81Z</time></trkpt><trkpt lat="45.5632683" lon="10.753525"><ele>247.4</ele><time>2026-03-28T14:30:10.811Z</time></trkpt><trkpt lat="45.5631883" lon="10.7536"><ele>244.8</ele><time>2026-03-28T14:30:11.81Z</time></trkpt><trkpt lat="45.5630967" lon="10.7536617"><ele>242.2</ele><time>2026-03-28T14:30:12.811Z</time></trkpt><trkpt lat="45.563" lon="10.7537"><ele>239.6</ele><time>2026-03-28T14:30:13.811Z</time></trkpt><trkpt lat="45.5629133" lon="10.7537167"><ele>237.0</ele><time>2026-03-28T14:30:14.81Z</time></trkpt><trkpt lat="45.5628267" lon="10.753715"><ele>236.0</ele><time>2026-03-28T14:30:15.81Z</time></trkpt><trkpt lat="45.56273" lon="10.7537033"><ele>235.0</ele><time>2026-03-28T14:30:16.811Z</time></trkpt><trkpt lat="45.5626167" lon="10.7536467"><ele>234.0</ele><time>2026-03-28T14:30:17.811Z</time></trkpt><trkpt lat="45.5624933" lon="10.7535983"><ele>233.0</ele><time>2026-03-28T14:30:18.81Z</time></trkpt><trkpt lat="45.562365" lon="10.7535683"><ele>233.0</ele><time>2026-03-28T14:30:19.811Z</time></trkpt><trkpt lat="45.5622367" lon="10.7535633"><ele>233.0</ele><time>2026-03-28T14:30:20.811Z</time></trkpt><trkpt lat="45.5621117" lon="10.7535833"><ele>233.0</ele><time>2026-03-28T14:30:21.811Z</time></trkpt><trkpt lat="45.56199" lon="10.7536017"><ele>233.0</ele><time>2026-03-28T14:30:22.81Z</time></trkpt><trkpt lat="45.5618683" lon="10.7536167"><ele>232.2</ele><time>2026-03-28T14:30:23.811Z</time></trkpt><trkpt lat="45.5617567" lon="10.7536083"><ele>231.4</ele><time>2026-03-28T14:30:24.81Z</time></trkpt><trkpt lat="45.5616467" lon="10.75358"><ele>230.59999999999997</ele><time>2026-03-28T14:30:25.811Z</time></trkpt><trkpt lat="45.5615533" lon="10.7535383"><ele>229.79999999999998</ele><time>2026-03-28T14:30:26.811Z</time></trkpt><trkpt lat="45.5614817" lon="10.7534867"><ele>229.0</ele><time>2026-03-28T14:30:27.811Z</time></trkpt><trkpt lat="45.5614033" lon="10.7534333"><ele>230.16666666666666</ele><time>2026-03-28T14:30:28.811Z</time></trkpt><trkpt lat="45.5613367" lon="10.7533717"><ele>231.33333333333331</ele><time>2026-03-28T14:30:29.811Z</time></trkpt><trkpt lat="45.5612817" lon="10.7533033"><ele>232.5</ele><time>2026-03-28T14:30:30.81Z</time></trkpt><trkpt lat="45.561205" lon="10.7532233"><ele>233.66666666666669</ele><time>2026-03-28T14:30:32.811Z</time></trkpt><trkpt lat="45.5611333" lon="10.7532"><ele>234.83333333333334</ele><time>2026-03-28T14:30:34.81Z</time></trkpt><trkpt lat="45.5610667" lon="10.7531783"><ele>236.0</ele><time>2026-03-28T14:30:36.811Z</time></trkpt><trkpt lat="45.5609917" lon="10.75314"><ele>236.00000000000003</ele><time>2026-03-28T14:30:38.811Z</time></trkpt><trkpt lat="45.5609133" lon="10.753095"><ele>236.0</ele><time>2026-03-28T14:30:40.81Z</time></trkpt><trkpt lat="45.560835" lon="10.7530567"><ele>236.0</ele><time>2026-03-28T14:30:42.81Z</time></trkpt><trkpt lat="45.5607467" lon="10.7530517"><ele>236.0</ele><time>2026-03-28T14:30:44.811Z</time></trkpt><trkpt lat="45.5606667" lon="10.75305"><ele>236.00000000000003</ele><time>2026-03-28T14:30:45.811Z</time></trkpt><trkpt lat="45.560575" lon="10.7530483"><ele>236.0</ele><time>2026-03-28T14:30:46.81Z</time></trkpt><trkpt lat="45.5604617" lon="10.7530467"><ele>234.75</ele><time>2026-03-28T14:30:47.81Z</time></trkpt><trkpt lat="45.5603317" lon="10.75303"><ele>233.5</ele><time>2026-03-28T14:30:48.811Z</time></trkpt><trkpt lat="45.560185" lon="10.7529917"><ele>232.25</ele><time>2026-03-28T14:30:49.811Z</time></trkpt><trkpt lat="45.5600567" lon="10.7529467"><ele>231.0</ele><time>2026-03-28T14:30:50.811Z</time></trkpt><trkpt lat="45.5599383" lon="10.7528917"><ele>231.0</ele><time>2026-03-28T14:30:51.811Z</time></trkpt><trkpt lat="45.5598167" lon="10.7528117"><ele>231.0</ele><time>2026-03-28T14:30:52.81Z</time></trkpt><trkpt lat="45.5596833" lon="10.7527233"><ele>231.0</ele><time>2026-03-28T14:30:53.81Z</time></trkpt><trkpt lat="45.5595533" lon="10.7526267"><ele>231.0</ele><time>2026-03-28T14:30:54.811Z</time></trkpt><trkpt lat="45.5594433" lon="10.752525"><ele>232.0</ele><time>2026-03-28T14:30:55.811Z</time></trkpt><trkpt lat="45.5593567" lon="10.7524333"><ele>233.0</ele><time>2026-03-28T14:30:56.811Z</time></trkpt><trkpt lat="45.559265" lon="10.7523417"><ele>234.0</ele><time>2026-03-28T14:30:57.81Z</time></trkpt><trkpt lat="45.5591717" lon="10.7522467"><ele>235.0</ele><time>2026-03-28T14:30:58.811Z</time></trkpt><trkpt lat="45.55907" lon="10.7521483"><ele>235.0</ele><time>2026-03-28T14:30:59.811Z</time></trkpt><trkpt lat="45.5589583" lon="10.75205"><ele>235.0</ele><time>2026-03-28T14:31:00.81Z</time></trkpt><trkpt lat="45.5588383" lon="10.7519467"><ele>235.0</ele><time>2026-03-28T14:31:01.81Z</time></trkpt><trkpt lat="45.5587317" lon="10.7518467"><ele>235.0</ele><time>2026-03-28T14:31:02.811Z</time></trkpt><trkpt lat="45.5586433" lon="10.7517733"><ele>235.75</ele><time>2026-03-28T14:31:03.81Z</time></trkpt><trkpt lat="45.5585617" lon="10.7516883"><ele>236.5</ele><time>2026-03-28T14:31:04.81Z</time></trkpt><trkpt lat="45.558475" lon="10.7515983"><ele>237.25</ele><time>2026-03-28T14:31:05.811Z</time></trkpt><trkpt lat="45.558365" lon="10.75151"><ele>238.0</ele><time>2026-03-28T14:31:06.81Z</time></trkpt><trkpt lat="45.5582433" lon="10.7514333"><ele>238.0</ele><time>2026-03-28T14:31:07.811Z</time></trkpt><trkpt lat="45.55811" lon="10.75136"><ele>238.0</ele><time>2026-03-28T14:31:08.81Z</time></trkpt><trkpt lat="45.5579783" lon="10.7513033"><ele>238.0</ele><time>2026-03-28T14:31:09.81Z</time></trkpt><trkpt lat="45.5578317" lon="10.751265"><ele>238.0</ele><time>2026-03-28T14:31:10.81Z</time></trkpt><trkpt lat="45.5576883" lon="10.7512217"><ele>236.5</ele><time>2026-03-28T14:31:11.811Z</time></trkpt><trkpt lat="45.5575367" lon="10.7512067"><ele>235.0</ele><time>2026-03-28T14:31:12.81Z</time></trkpt><trkpt lat="45.5573967" lon="10.7512"><ele>233.5</ele><time>2026-03-28T14:31:13.81Z</time></trkpt><trkpt lat="45.5572483" lon="10.7512283"><ele>232.0</ele><time>2026-03-28T14:31:14.81Z</time></trkpt><trkpt lat="45.557095" lon="10.7512483"><ele>232.75</ele><time>2026-03-28T14:31:15.81Z</time></trkpt><trkpt lat="45.5569433" lon="10.7512867"><ele>233.5</ele><time>2026-03-28T14:31:16.81Z</time></trkpt><trkpt lat="45.5568" lon="10.751325"><ele>234.25</ele><time>2026-03-28T14:31:17.81Z</time></trkpt><trkpt lat="45.5566683" lon="10.75135"><ele>235.0</ele><time>2026-03-28T14:31:18.81Z</time></trkpt><trkpt lat="45.5565567" lon="10.7513717"><ele>234.99999999999997</ele><time>2026-03-28T14:31:19.81Z</time></trkpt><trkpt lat="45.55646" lon="10.7513783"><ele>235.0</ele><time>2026-03-28T14:31:20.81Z</time></trkpt><trkpt lat="45.55637" lon="10.7513983"><ele>235.0</ele><time>2026-03-28T14:31:21.81Z</time></trkpt><trkpt lat="45.5562883" lon="10.75144"><ele>235.0</ele><time>2026-03-28T14:31:22.81Z</time></trkpt><trkpt lat="45.55622" lon="10.751495"><ele>234.99999999999997</ele><time>2026-03-28T14:31:23.811Z</time></trkpt><trkpt lat="45.55615" lon="10.75155"><ele>235.0</ele><time>2026-03-28T14:31:24.811Z</time></trkpt><trkpt lat="45.5560733" lon="10.7516033"><ele>235.33333333333331</ele><time>2026-03-28T14:31:25.81Z</time></trkpt><trkpt lat="45.5559917" lon="10.7516367"><ele>235.66666666666666</ele><time>2026-03-28T14:31:26.81Z</time></trkpt><trkpt lat="45.5559217" lon="10.7516533"><ele>236.0</ele><time>2026-03-28T14:31:27.81Z</time></trkpt><trkpt lat="45.5558517" lon="10.7516733"><ele>236.33333333333331</ele><time>2026-03-28T14:31:28.81Z</time></trkpt><trkpt lat="45.555725" lon="10.7516533"><ele>236.66666666666666</ele><time>2026-03-28T14:31:30.81Z</time></trkpt><trkpt lat="45.5556667" lon="10.7516117"><ele>237.0</ele><time>2026-03-28T14:31:31.81Z</time></trkpt><trkpt lat="45.555615" lon="10.7515533"><ele>237.0</ele><time>2026-03-28T14:31:32.809Z</time></trkpt><trkpt lat="45.5555533" lon="10.7514183"><ele>237.0</ele><time>2026-03-28T14:31:34.809Z</time></trkpt><trkpt lat="45.55552" lon="10.75127"><ele>237.0</ele><time>2026-03-28T14:31:36.809Z</time></trkpt><trkpt lat="45.5555633" lon="10.751165"><ele>237.0</ele><time>2026-03-28T14:31:38.809Z</time></trkpt><trkpt lat="45.5556783" lon="10.751055"><ele>237.0</ele><time>2026-03-28T14:31:40.809Z</time></trkpt><trkpt lat="45.5557383" lon="10.750975"><ele>237.8</ele><time>2026-03-28T14:31:41.809Z</time></trkpt><trkpt lat="45.555765" lon="10.7508633"><ele>238.6</ele><time>2026-03-28T14:31:42.81Z</time></trkpt><trkpt lat="45.5557767" lon="10.7507333"><ele>239.40000000000003</ele><time>2026-03-28T14:31:43.81Z</time></trkpt><trkpt lat="45.5557833" lon="10.7505633"><ele>240.20000000000002</ele><time>2026-03-28T14:31:44.809Z</time></trkpt><trkpt lat="45.5558067" lon="10.7503733"><ele>241.0</ele><time>2026-03-28T14:31:45.81Z</time></trkpt><trkpt lat="45.5558417" lon="10.7501783"><ele>241.0</ele><time>2026-03-28T14:31:46.81Z</time></trkpt><trkpt lat="45.5558883" lon="10.7499783"><ele>241.0</ele><time>2026-03-28T14:31:47.809Z</time></trkpt><trkpt lat="45.55595" lon="10.7497667"><ele>241.0</ele><time>2026-03-28T14:31:48.809Z</time></trkpt><trkpt lat="45.5560083" lon="10.749575"><ele>241.0</ele><time>2026-03-28T14:31:49.809Z</time></trkpt><trkpt lat="45.5560683" lon="10.74939"><ele>241.0</ele><time>2026-03-28T14:31:50.81Z</time></trkpt><trkpt lat="45.5561117" lon="10.7492167"><ele>241.0</ele><time>2026-03-28T14:31:51.81Z</time></trkpt><trkpt lat="45.55617" lon="10.749055"><ele>241.0</ele><time>2026-03-28T14:31:52.809Z</time></trkpt><trkpt lat="45.5562167" lon="10.7488933"><ele>242.8</ele><time>2026-03-28T14:31:53.809Z</time></trkpt><trkpt lat="45.556255" lon="10.7487417"><ele>244.60000000000002</ele><time>2026-03-28T14:31:54.809Z</time></trkpt><trkpt lat="45.556305" lon="10.748605"><ele>246.4</ele><time>2026-03-28T14:31:55.809Z</time></trkpt><trkpt lat="45.55635" lon="10.748475"><ele>248.2</ele><time>2026-03-28T14:31:56.81Z</time></trkpt><trkpt lat="45.55639" lon="10.7483533"><ele>250.0</ele><time>2026-03-28T14:31:57.81Z</time></trkpt><trkpt lat="45.5564217" lon="10.7482383"><ele>249.99999999999997</ele><time>2026-03-28T14:31:58.809Z</time></trkpt><trkpt lat="45.5564483" lon="10.7481267"><ele>250.0</ele><time>2026-03-28T14:31:59.81Z</time></trkpt><trkpt lat="45.5564783" lon="10.74801"><ele>250.0</ele><time>2026-03-28T14:32:00.809Z</time></trkpt><trkpt lat="45.55651" lon="10.7478983"><ele>250.0</ele><time>2026-03-28T14:32:01.809Z</time></trkpt><trkpt lat="45.5565333" lon="10.7478033"><ele>249.99999999999997</ele><time>2026-03-28T14:32:02.81Z</time></trkpt><trkpt lat="45.5565667" lon="10.7477267"><ele>250.0</ele><time>2026-03-28T14:32:03.81Z</time></trkpt><trkpt lat="45.5566117" lon="10.7476533"><ele>248.83333333333331</ele><time>2026-03-28T14:32:04.81Z</time></trkpt><trkpt lat="45.5566633" lon="10.747575"><ele>247.66666666666666</ele><time>2026-03-28T14:32:05.809Z</time></trkpt><trkpt lat="45.5567133" lon="10.7474867"><ele>246.5</ele><time>2026-03-28T14:32:06.81Z</time></trkpt><trkpt lat="45.5567617" lon="10.7473867"><ele>245.33333333333331</ele><time>2026-03-28T14:32:07.81Z</time></trkpt><trkpt lat="45.556815" lon="10.7472783"><ele>244.16666666666666</ele><time>2026-03-28T14:32:08.809Z</time></trkpt><trkpt lat="45.55686" lon="10.747185"><ele>243.0</ele><time>2026-03-28T14:32:09.809Z</time></trkpt><trkpt lat="45.556925" lon="10.7471067"><ele>243.0</ele><time>2026-03-28T14:32:10.81Z</time></trkpt><trkpt lat="45.5569917" lon="10.747055"><ele>243.0</ele><time>2026-03-28T14:32:11.809Z</time></trkpt><trkpt lat="45.55706" lon="10.7470167"><ele>243.0</ele><time>2026-03-28T14:32:12.809Z</time></trkpt><trkpt lat="45.55714" lon="10.7469667"><ele>243.0</ele><time>2026-03-28T14:32:13.81Z</time></trkpt><trkpt lat="45.5572233" lon="10.7468983"><ele>243.0</ele><time>2026-03-28T14:32:14.81Z</time></trkpt><trkpt lat="45.55731" lon="10.7467967"><ele>243.0</ele><time>2026-03-28T14:32:15.809Z</time></trkpt><trkpt lat="45.5574017" lon="10.7466733"><ele>244.2</ele><time>2026-03-28T14:32:16.809Z</time></trkpt><trkpt lat="45.5574817" lon="10.7465317"><ele>245.4</ele><time>2026-03-28T14:32:17.809Z</time></trkpt><trkpt lat="45.5575283" lon="10.74639"><ele>246.59999999999997</ele><time>2026-03-28T14:32:18.81Z</time></trkpt><trkpt lat="45.557575" lon="10.7462667"><ele>247.79999999999998</ele><time>2026-03-28T14:32:19.809Z</time></trkpt><trkpt lat="45.5576033" lon="10.7461717"><ele>249.0</ele><time>2026-03-28T14:32:20.81Z</time></trkpt><trkpt lat="45.55766" lon="10.7460233"><ele>249.0</ele><time>2026-03-28T14:32:22.809Z</time></trkpt><trkpt lat="45.55774" lon="10.7459133"><ele>248.99999999999997</ele><time>2026-03-28T14:32:24.809Z</time></trkpt><trkpt lat="45.5578317" lon="10.7458267"><ele>248.99999999999997</ele><time>2026-03-28T14:32:26.809Z</time></trkpt><trkpt lat="45.5579367" lon="10.745745"><ele>249.0</ele><time>2026-03-28T14:32:28.809Z</time></trkpt><trkpt lat="45.5579933" lon="10.7456933"><ele>249.0</ele><time>2026-03-28T14:32:29.81Z</time></trkpt><trkpt lat="45.5580583" lon="10.74564"><ele>250.39999999999998</ele><time>2026-03-28T14:32:30.809Z</time></trkpt><trkpt lat="45.5581467" lon="10.7455733"><ele>251.79999999999998</ele><time>2026-03-28T14:32:31.809Z</time></trkpt><trkpt lat="45.5582433" lon="10.7455283"><ele>253.20000000000002</ele><time>2026-03-28T14:32:32.809Z</time></trkpt><trkpt lat="45.55835" lon="10.745485"><ele>254.60000000000002</ele><time>2026-03-28T14:32:33.809Z</time></trkpt><trkpt lat="45.5584617" lon="10.7454467"><ele>256.0</ele><time>2026-03-28T14:32:34.81Z</time></trkpt><trkpt lat="45.5585733" lon="10.7454083"><ele>256.0</ele><time>2026-03-28T14:32:35.809Z</time></trkpt><trkpt lat="45.558695" lon="10.7453667"><ele>256.0</ele><time>2026-03-28T14:32:36.81Z</time></trkpt><trkpt lat="45.5588117" lon="10.7453233"><ele>256.0</ele><time>2026-03-28T14:32:37.81Z</time></trkpt><trkpt lat="45.5589067" lon="10.745285"><ele>256.0</ele><time>2026-03-28T14:32:38.809Z</time></trkpt><trkpt lat="45.558985" lon="10.7452583"><ele>256.0</ele><time>2026-03-28T14:32:39.809Z</time></trkpt><trkpt lat="45.5590533" lon="10.7452317"><ele>255.4</ele><time>2026-03-28T14:32:40.809Z</time></trkpt><trkpt lat="45.5591617" lon="10.74517"><ele>254.8</ele><time>2026-03-28T14:32:42.81Z</time></trkpt><trkpt lat="45.55925" lon="10.7451217"><ele>254.20000000000002</ele><time>2026-03-28T14:32:44.81Z</time></trkpt><trkpt lat="45.559355" lon="10.7450733"><ele>253.60000000000002</ele><time>2026-03-28T14:32:46.81Z</time></trkpt><trkpt lat="45.5594117" lon="10.7450333"><ele>253.0</ele><time>2026-03-28T14:32:47.809Z</time></trkpt><trkpt lat="45.5594733" lon="10.7449933"><ele>253.2</ele><time>2026-03-28T14:32:48.809Z</time></trkpt><trkpt lat="45.559535" lon="10.744945"><ele>253.4</ele><time>2026-03-28T14:32:49.81Z</time></trkpt><trkpt lat="45.559605" lon="10.7448917"><ele>253.59999999999997</ele><time>2026-03-28T14:32:50.809Z</time></trkpt><trkpt lat="45.559685" lon="10.74482"><ele>253.79999999999998</ele><time>2026-03-28T14:32:51.81Z</time></trkpt><trkpt lat="45.5597783" lon="10.7447417"><ele>254.0</ele><time>2026-03-28T14:32:52.81Z</time></trkpt><trkpt lat="45.5598817" lon="10.7446383"><ele>254.0</ele><time>2026-03-28T14:32:53.81Z</time></trkpt><trkpt lat="45.559995" lon="10.744525"><ele>254.0</ele><time>2026-03-28T14:32:54.81Z</time></trkpt><trkpt lat="45.5601033" lon="10.7443933"><ele>254.0</ele><time>2026-03-28T14:32:55.809Z</time></trkpt><trkpt lat="45.5601983" lon="10.74427"><ele>254.0</ele><time>2026-03-28T14:32:56.809Z</time></trkpt><trkpt lat="45.560295" lon="10.74414"><ele>252.5</ele><time>2026-03-28T14:32:57.81Z</time></trkpt><trkpt lat="45.560395" lon="10.74401"><ele>251.0</ele><time>2026-03-28T14:32:58.81Z</time></trkpt><trkpt lat="45.5605083" lon="10.7438717"><ele>249.5</ele><time>2026-03-28T14:32:59.809Z</time></trkpt><trkpt lat="45.5606067" lon="10.7437367"><ele>248.0</ele><time>2026-03-28T14:33:00.809Z</time></trkpt><trkpt lat="45.5606967" lon="10.7436283"><ele>248.2</ele><time>2026-03-28T14:33:01.81Z</time></trkpt><trkpt lat="45.5607933" lon="10.7435383"><ele>248.4</ele><time>2026-03-28T14:33:02.81Z</time></trkpt><trkpt lat="45.5608917" lon="10.7434683"><ele>248.59999999999997</ele><time>2026-03-28T14:33:03.809Z</time></trkpt><trkpt lat="45.560995" lon="10.7434267"><ele>248.79999999999998</ele><time>2026-03-28T14:33:04.809Z</time></trkpt><trkpt lat="45.5611083" lon="10.7433883"><ele>249.0</ele><time>2026-03-28T14:33:05.809Z</time></trkpt><trkpt lat="45.5612217" lon="10.7433667"><ele>248.0</ele><time>2026-03-28T14:33:06.809Z</time></trkpt><trkpt lat="45.5613533" lon="10.7433533"><ele>247.0</ele><time>2026-03-28T14:33:07.81Z</time></trkpt><trkpt lat="45.5614833" lon="10.7433317"><ele>246.0</ele><time>2026-03-28T14:33:08.809Z</time></trkpt><trkpt lat="45.5616167" lon="10.7433"><ele>245.0</ele><time>2026-03-28T14:33:09.81Z</time></trkpt><trkpt lat="45.56176" lon="10.743275"><ele>245.0</ele><time>2026-03-28T14:33:10.809Z</time></trkpt><trkpt lat="45.5618983" lon="10.7432333"><ele>245.0</ele><time>2026-03-28T14:33:11.809Z</time></trkpt><trkpt lat="45.5620417" lon="10.7431967"><ele>245.0</ele><time>2026-03-28T14:33:12.81Z</time></trkpt><trkpt lat="45.5621667" lon="10.74316"><ele>245.0</ele><time>2026-03-28T14:33:13.809Z</time></trkpt><trkpt lat="45.5622867" lon="10.7431367"><ele>244.25</ele><time>2026-03-28T14:33:14.809Z</time></trkpt><trkpt lat="45.5623967" lon="10.7431133"><ele>243.5</ele><time>2026-03-28T14:33:15.81Z</time></trkpt><trkpt lat="45.5625117" lon="10.7430733"><ele>242.75</ele><time>2026-03-28T14:33:16.81Z</time></trkpt><trkpt lat="45.5626233" lon="10.74302"><ele>242.0</ele><time>2026-03-28T14:33:17.809Z</time></trkpt><trkpt lat="45.5627417" lon="10.7429583"><ele>242.0</ele><time>2026-03-28T14:33:18.809Z</time></trkpt><trkpt lat="45.56285" lon="10.7428883"><ele>242.0</ele><time>2026-03-28T14:33:19.809Z</time></trkpt><trkpt lat="45.5629467" lon="10.7428083"><ele>242.0</ele><time>2026-03-28T14:33:20.81Z</time></trkpt><trkpt lat="45.5630383" lon="10.7427367"><ele>242.0</ele><time>2026-03-28T14:33:21.809Z</time></trkpt><trkpt lat="45.5631333" lon="10.7426717"><ele>242.0</ele><time>2026-03-28T14:33:22.809Z</time></trkpt><trkpt lat="45.563215" lon="10.742625"><ele>241.33333333333334</ele><time>2026-03-28T14:33:23.809Z</time></trkpt><trkpt lat="45.56329" lon="10.74259"><ele>240.66666666666669</ele><time>2026-03-28T14:33:24.809Z</time></trkpt><trkpt lat="45.563365" lon="10.7425733"><ele>240.0</ele><time>2026-03-28T14:33:25.81Z</time></trkpt><trkpt lat="45.5634367" lon="10.7426183"><ele>239.33333333333331</ele><time>2026-03-28T14:33:27.81Z</time></trkpt><trkpt lat="45.563445" lon="10.742735"><ele>238.66666666666666</ele><time>2026-03-28T14:33:29.809Z</time></trkpt><trkpt lat="45.563445" lon="10.74283"><ele>238.0</ele><time>2026-03-28T14:33:30.809Z</time></trkpt><trkpt lat="45.56342" lon="10.742945"><ele>238.2</ele><time>2026-03-28T14:33:31.81Z</time></trkpt><trkpt lat="45.5633783" lon="10.74308"><ele>238.4</ele><time>2026-03-28T14:33:32.809Z</time></trkpt><trkpt lat="45.5633417" lon="10.7432367"><ele>238.59999999999997</ele><time>2026-03-28T14:33:33.809Z</time></trkpt><trkpt lat="45.5633233" lon="10.743395"><ele>238.79999999999998</ele><time>2026-03-28T14:33:34.809Z</time></trkpt><trkpt lat="45.5633133" lon="10.7435583"><ele>239.0</ele><time>2026-03-28T14:33:35.809Z</time></trkpt><trkpt lat="45.563335" lon="10.7437483"><ele>239.0</ele><time>2026-03-28T14:33:36.809Z</time></trkpt><trkpt lat="45.5633517" lon="10.7439117"><ele>238.99999999999997</ele><time>2026-03-28T14:33:37.809Z</time></trkpt><trkpt lat="45.56339" lon="10.74404"><ele>238.99999999999997</ele><time>2026-03-28T14:33:38.809Z</time></trkpt><trkpt lat="45.5634417" lon="10.74414"><ele>239.0</ele><time>2026-03-28T14:33:39.809Z</time></trkpt><trkpt lat="45.5635267" lon="10.7441983"><ele>239.0</ele><time>2026-03-28T14:33:40.81Z</time></trkpt><trkpt lat="45.5636367" lon="10.7442417"><ele>239.0</ele><time>2026-03-28T14:33:41.809Z</time></trkpt><trkpt lat="45.5637733" lon="10.7442783"><ele>239.0</ele><time>2026-03-28T14:33:42.81Z</time></trkpt><trkpt lat="45.5639383" lon="10.7443"><ele>239.0</ele><time>2026-03-28T14:33:43.81Z</time></trkpt><trkpt lat="45.564105" lon="10.7443083"><ele>239.0</ele><time>2026-03-28T14:33:44.809Z</time></trkpt><trkpt lat="45.5642867" lon="10.7443117"><ele>239.0</ele><time>2026-03-28T14:33:45.81Z</time></trkpt><trkpt lat="45.5644683" lon="10.7443133"><ele>239.0</ele><time>2026-03-28T14:33:46.809Z</time></trkpt><trkpt lat="45.5646483" lon="10.7443233"><ele>239.75</ele><time>2026-03-28T14:33:47.81Z</time></trkpt><trkpt lat="45.5648183" lon="10.744335"><ele>240.5</ele><time>2026-03-28T14:33:48.809Z</time></trkpt><trkpt lat="45.56496" lon="10.744345"><ele>241.25</ele><time>2026-03-28T14:33:49.809Z</time></trkpt><trkpt lat="45.5650667" lon="10.7443633"><ele>242.0</ele><time>2026-03-28T14:33:50.81Z</time></trkpt><trkpt lat="45.565155" lon="10.7443667"><ele>242.0</ele><time>2026-03-28T14:33:51.809Z</time></trkpt><trkpt lat="45.56523" lon="10.744365"><ele>242.0</ele><time>2026-03-28T14:33:52.809Z</time></trkpt><trkpt lat="45.5653267" lon="10.7443617"><ele>242.0</ele><time>2026-03-28T14:33:54.81Z</time></trkpt><trkpt lat="45.565415" lon="10.7443517"><ele>242.0</ele><time>2026-03-28T14:33:56.809Z</time></trkpt><trkpt lat="45.5655167" lon="10.7443433"><ele>242.0</ele><time>2026-03-28T14:33:58.809Z</time></trkpt><trkpt lat="45.565615" lon="10.7443217"><ele>242.2</ele><time>2026-03-28T14:34:00.81Z</time></trkpt><trkpt lat="45.5656833" lon="10.7443067"><ele>242.39999999999998</ele><time>2026-03-28T14:34:01.809Z</time></trkpt><trkpt lat="45.5657533" lon="10.7442883"><ele>242.60000000000002</ele><time>2026-03-28T14:34:02.81Z</time></trkpt><trkpt lat="45.5658433" lon="10.7442633"><ele>242.8</ele><time>2026-03-28T14:34:03.809Z</time></trkpt><trkpt lat="45.565945" lon="10.7442267"><ele>243.0</ele><time>2026-03-28T14:34:04.809Z</time></trkpt><trkpt lat="45.5660583" lon="10.7441883"><ele>243.0</ele><time>2026-03-28T14:34:05.81Z</time></trkpt><trkpt lat="45.56619" lon="10.7441517"><ele>243.0</ele><time>2026-03-28T14:34:06.809Z</time></trkpt><trkpt lat="45.5663167" lon="10.7441067"><ele>243.0</ele><time>2026-03-28T14:34:07.809Z</time></trkpt><trkpt lat="45.5664367" lon="10.7440783"><ele>243.0</ele><time>2026-03-28T14:34:08.81Z</time></trkpt><trkpt lat="45.5665483" lon="10.7440567"><ele>244.0</ele><time>2026-03-28T14:34:09.81Z</time></trkpt><trkpt lat="45.5666533" lon="10.7440383"><ele>245.0</ele><time>2026-03-28T14:34:10.809Z</time></trkpt><trkpt lat="45.5667683" lon="10.744035"><ele>246.0</ele><time>2026-03-28T14:34:11.81Z</time></trkpt><trkpt lat="45.566885" lon="10.7440433"><ele>247.0</ele><time>2026-03-28T14:34:12.809Z</time></trkpt><trkpt lat="45.5670183" lon="10.7440633"><ele>247.5</ele><time>2026-03-28T14:34:13.809Z</time></trkpt><trkpt lat="45.56716" lon="10.7440767"><ele>248.0</ele><time>2026-03-28T14:34:14.81Z</time></trkpt><trkpt lat="45.5672983" lon="10.7440917"><ele>248.5</ele><time>2026-03-28T14:34:15.81Z</time></trkpt><trkpt lat="45.56743" lon="10.7441233"><ele>249.0</ele><time>2026-03-28T14:34:16.81Z</time></trkpt><trkpt lat="45.56754" lon="10.74417"><ele>249.0</ele><time>2026-03-28T14:34:17.809Z</time></trkpt><trkpt lat="45.5676367" lon="10.7442133"><ele>248.99999999999997</ele><time>2026-03-28T14:34:18.81Z</time></trkpt><trkpt lat="45.5677" lon="10.74424"><ele>248.99999999999997</ele><time>2026-03-28T14:34:19.81Z</time></trkpt><trkpt lat="45.5677767" lon="10.7442667"><ele>249.0</ele><time>2026-03-28T14:34:21.81Z</time></trkpt><trkpt lat="45.567825" lon="10.7441783"><ele>249.0</ele><time>2026-03-28T14:34:24.809Z</time></trkpt><trkpt lat="45.5678183" lon="10.7439833"><ele>249.0</ele><time>2026-03-28T14:34:26.81Z</time></trkpt><trkpt lat="45.567795" lon="10.743825"><ele>249.0</ele><time>2026-03-28T14:34:27.81Z</time></trkpt><trkpt lat="45.5677633" lon="10.7436567"><ele>249.0</ele><time>2026-03-28T14:34:28.809Z</time></trkpt><trkpt lat="45.5677367" lon="10.74347"><ele>249.0</ele><time>2026-03-28T14:34:29.809Z</time></trkpt><trkpt lat="45.5677117" lon="10.743295"><ele>248.83333333333334</ele><time>2026-03-28T14:34:30.809Z</time></trkpt><trkpt lat="45.56768" lon="10.7431467"><ele>248.66666666666669</ele><time>2026-03-28T14:34:31.81Z</time></trkpt><trkpt lat="45.5676467" lon="10.7430233"><ele>248.5</ele><time>2026-03-28T14:34:32.809Z</time></trkpt><trkpt lat="45.567625" lon="10.7429183"><ele>248.33333333333334</ele><time>2026-03-28T14:34:33.81Z</time></trkpt><trkpt lat="45.5676183" lon="10.7428183"><ele>248.16666666666669</ele><time>2026-03-28T14:34:34.809Z</time></trkpt><trkpt lat="45.56762" lon="10.7427067"><ele>248.0</ele><time>2026-03-28T14:34:35.809Z</time></trkpt><trkpt lat="45.5676317" lon="10.742585"><ele>247.2</ele><time>2026-03-28T14:34:36.81Z</time></trkpt><trkpt lat="45.56766" lon="10.7424517"><ele>246.4</ele><time>2026-03-28T14:34:37.809Z</time></trkpt><trkpt lat="45.5676833" lon="10.7423267"><ele>245.59999999999997</ele><time>2026-03-28T14:34:38.81Z</time></trkpt><trkpt lat="45.5677233" lon="10.742215"><ele>244.79999999999998</ele><time>2026-03-28T14:34:39.81Z</time></trkpt><trkpt lat="45.5677583" lon="10.7421033"><ele>244.0</ele><time>2026-03-28T14:34:40.81Z</time></trkpt><trkpt lat="45.5678067" lon="10.7419833"><ele>243.49999999999997</ele><time>2026-03-28T14:34:41.81Z</time></trkpt><trkpt lat="45.5678683" lon="10.7418717"><ele>243.0</ele><time>2026-03-28T14:34:42.809Z</time></trkpt><trkpt lat="45.567925" lon="10.74177"><ele>242.5</ele><time>2026-03-28T14:34:43.809Z</time></trkpt><trkpt lat="45.567985" lon="10.7416633"><ele>242.0</ele><time>2026-03-28T14:34:44.81Z</time></trkpt><trkpt lat="45.5680317" lon="10.7415617"><ele>241.49999999999997</ele><time>2026-03-28T14:34:45.809Z</time></trkpt><trkpt lat="45.5680633" lon="10.7414683"><ele>241.0</ele><time>2026-03-28T14:34:46.81Z</time></trkpt><trkpt lat="45.5680683" lon="10.7413667"><ele>240.99999999999997</ele><time>2026-03-28T14:34:47.809Z</time></trkpt><trkpt lat="45.5680633" lon="10.741255"><ele>241.0</ele><time>2026-03-28T14:34:48.81Z</time></trkpt><trkpt lat="45.5680467" lon="10.7411283"><ele>241.0</ele><time>2026-03-28T14:34:49.81Z</time></trkpt><trkpt lat="45.568025" lon="10.7410183"><ele>241.0</ele><time>2026-03-28T14:34:50.81Z</time></trkpt><trkpt lat="45.5679733" lon="10.7409083"><ele>240.99999999999997</ele><time>2026-03-28T14:34:51.81Z</time></trkpt><trkpt lat="45.567915" lon="10.7408217"><ele>241.0</ele><time>2026-03-28T14:34:52.81Z</time></trkpt><trkpt lat="45.56783" lon="10.740745"><ele>237.5</ele><time>2026-03-28T14:34:53.81Z</time></trkpt><trkpt lat="45.5677167" lon="10.7406867"><ele>234.0</ele><time>2026-03-28T14:34:54.809Z</time></trkpt><trkpt lat="45.5675933" lon="10.740635"><ele>230.5</ele><time>2026-03-28T14:34:55.81Z</time></trkpt><trkpt lat="45.5674633" lon="10.74059"><ele>227.0</ele><time>2026-03-28T14:34:56.81Z</time></trkpt><trkpt lat="45.5673067" lon="10.740565"><ele>227.0</ele><time>2026-03-28T14:34:57.809Z</time></trkpt><trkpt lat="45.5671617" lon="10.7405233"><ele>227.0</ele><time>2026-03-28T14:34:58.81Z</time></trkpt><trkpt lat="45.5670367" lon="10.74049"><ele>227.0</ele><time>2026-03-28T14:34:59.809Z</time></trkpt><trkpt lat="45.5669317" lon="10.74045"><ele>227.0</ele><time>2026-03-28T14:35:00.809Z</time></trkpt><trkpt lat="45.56684" lon="10.7404"><ele>227.2</ele><time>2026-03-28T14:35:01.81Z</time></trkpt><trkpt lat="45.5667667" lon="10.74033"><ele>227.39999999999998</ele><time>2026-03-28T14:35:02.809Z</time></trkpt><trkpt lat="45.5666883" lon="10.74022"><ele>227.60000000000002</ele><time>2026-03-28T14:35:03.81Z</time></trkpt><trkpt lat="45.5666167" lon="10.7400933"><ele>227.8</ele><time>2026-03-28T14:35:04.809Z</time></trkpt><trkpt lat="45.5665517" lon="10.739965"><ele>228.0</ele><time>2026-03-28T14:35:05.809Z</time></trkpt><trkpt lat="45.56649" lon="10.7398233"><ele>229.0</ele><time>2026-03-28T14:35:06.81Z</time></trkpt><trkpt lat="45.56643" lon="10.7396683"><ele>230.0</ele><time>2026-03-28T14:35:07.809Z</time></trkpt><trkpt lat="45.566395" lon="10.7395233"><ele>231.0</ele><time>2026-03-28T14:35:08.81Z</time></trkpt><trkpt lat="45.5663767" lon="10.739395"><ele>232.0</ele><time>2026-03-28T14:35:09.81Z</time></trkpt><trkpt lat="45.566365" lon="10.73928"><ele>233.0</ele><time>2026-03-28T14:35:10.81Z</time></trkpt><trkpt lat="45.5663617" lon="10.73918"><ele>233.66666666666669</ele><time>2026-03-28T14:35:11.809Z</time></trkpt><trkpt lat="45.5663567" lon="10.73909"><ele>234.33333333333334</ele><time>2026-03-28T14:35:12.81Z</time></trkpt><trkpt lat="45.5663517" lon="10.7389283"><ele>235.0</ele><time>2026-03-28T14:35:14.809Z</time></trkpt><trkpt lat="45.5663817" lon="10.73884"><ele>235.66666666666669</ele><time>2026-03-28T14:35:16.809Z</time></trkpt><trkpt lat="45.5664567" lon="10.7387633"><ele>236.33333333333334</ele><time>2026-03-28T14:35:18.809Z</time></trkpt><trkpt lat="45.566505" lon="10.738695"><ele>237.0</ele><time>2026-03-28T14:35:19.81Z</time></trkpt><trkpt lat="45.5665667" lon="10.7386117"><ele>237.0</ele><time>2026-03-28T14:35:20.81Z</time></trkpt><trkpt lat="45.56663" lon="10.7385283"><ele>237.0</ele><time>2026-03-28T14:35:21.809Z</time></trkpt><trkpt lat="45.56669" lon="10.7384367"><ele>237.0</ele><time>2026-03-28T14:35:22.809Z</time></trkpt><trkpt lat="45.566755" lon="10.7383417"><ele>237.0</ele><time>2026-03-28T14:35:23.809Z</time></trkpt><trkpt lat="45.5669267" lon="10.7381067"><ele>237.0</ele><time>2026-03-28T14:35:26.809Z</time></trkpt><trkpt lat="45.56701" lon="10.738"><ele>237.0</ele><time>2026-03-28T14:35:28.81Z</time></trkpt><trkpt lat="45.5670683" lon="10.73791"><ele>237.0</ele><time>2026-03-28T14:35:30.809Z</time></trkpt><trkpt lat="45.567175" lon="10.7377267"><ele>237.0</ele><time>2026-03-28T14:35:33.809Z</time></trkpt><trkpt lat="45.5672383" lon="10.7376183"><ele>235.25</ele><time>2026-03-28T14:35:34.809Z</time></trkpt><trkpt lat="45.5673067" lon="10.7374883"><ele>233.5</ele><time>2026-03-28T14:35:35.81Z</time></trkpt><trkpt lat="45.5673867" lon="10.7373517"><ele>231.75</ele><time>2026-03-28T14:35:36.809Z</time></trkpt><trkpt lat="45.5674683" lon="10.7371883"><ele>230.0</ele><time>2026-03-28T14:35:37.809Z</time></trkpt><trkpt lat="45.56755" lon="10.737035"><ele>229.75</ele><time>2026-03-28T14:35:38.809Z</time></trkpt><trkpt lat="45.567605" lon="10.7368733"><ele>229.5</ele><time>2026-03-28T14:35:39.809Z</time></trkpt><trkpt lat="45.567625" lon="10.736715"><ele>229.25</ele><time>2026-03-28T14:35:40.81Z</time></trkpt><trkpt lat="45.5676333" lon="10.7365583"><ele>229.0</ele><time>2026-03-28T14:35:41.81Z</time></trkpt><trkpt lat="45.56763" lon="10.7364133"><ele>228.99999999999997</ele><time>2026-03-28T14:35:42.81Z</time></trkpt><trkpt lat="45.5676367" lon="10.7362933"><ele>229.0</ele><time>2026-03-28T14:35:43.81Z</time></trkpt><trkpt lat="45.5676867" lon="10.7362067"><ele>229.0</ele><time>2026-03-28T14:35:45.809Z</time></trkpt><trkpt lat="45.56777" lon="10.736295"><ele>229.0</ele><time>2026-03-28T14:35:47.809Z</time></trkpt><trkpt lat="45.5678117" lon="10.7363783"><ele>228.99999999999997</ele><time>2026-03-28T14:35:48.81Z</time></trkpt><trkpt lat="45.5678867" lon="10.7364833"><ele>229.0</ele><time>2026-03-28T14:35:50.81Z</time></trkpt><trkpt lat="45.5679167" lon="10.7364"><ele>229.0</ele><time>2026-03-28T14:35:58.809Z</time></trkpt><trkpt lat="45.5678583" lon="10.7362117"><ele>228.99999999999997</ele><time>2026-03-28T14:36:00.81Z</time></trkpt><trkpt lat="45.56781" lon="10.7360983"><ele>228.99999999999997</ele><time>2026-03-28T14:36:01.81Z</time></trkpt><trkpt lat="45.5677683" lon="10.7359717"><ele>229.0</ele><time>2026-03-28T14:36:02.81Z</time></trkpt><trkpt lat="45.5677417" lon="10.7358633"><ele>229.0</ele><time>2026-03-28T14:36:03.81Z</time></trkpt><trkpt lat="45.5678" lon="10.7358017"><ele>226.75</ele><time>2026-03-28T14:36:05.809Z</time></trkpt><trkpt lat="45.5679433" lon="10.735845"><ele>224.5</ele><time>2026-03-28T14:36:07.809Z</time></trkpt><trkpt lat="45.5680583" lon="10.7358933"><ele>222.25</ele><time>2026-03-28T14:36:08.809Z</time></trkpt><trkpt lat="45.5681967" lon="10.7359517"><ele>220.0</ele><time>2026-03-28T14:36:09.81Z</time></trkpt><trkpt lat="45.568335" lon="10.7360017"><ele>220.0</ele><time>2026-03-28T14:36:10.81Z</time></trkpt><trkpt lat="45.568465" lon="10.73604"><ele>220.0</ele><time>2026-03-28T14:36:11.809Z</time></trkpt><trkpt lat="45.5685967" lon="10.7360533"><ele>220.0</ele><time>2026-03-28T14:36:12.809Z</time></trkpt><trkpt lat="45.5687267" lon="10.7360433"><ele>220.0</ele><time>2026-03-28T14:36:13.81Z</time></trkpt><trkpt lat="45.56885" lon="10.7360367"><ele>219.75</ele><time>2026-03-28T14:36:14.81Z</time></trkpt><trkpt lat="45.568975" lon="10.736045"><ele>219.5</ele><time>2026-03-28T14:36:15.81Z</time></trkpt><trkpt lat="45.5691" lon="10.7360733"><ele>219.25</ele><time>2026-03-28T14:36:16.81Z</time></trkpt><trkpt lat="45.5692283" lon="10.736115"><ele>219.0</ele><time>2026-03-28T14:36:17.81Z</time></trkpt><trkpt lat="45.569355" lon="10.7361667"><ele>219.0</ele><time>2026-03-28T14:36:18.81Z</time></trkpt><trkpt lat="45.5694817" lon="10.7362067"><ele>219.0</ele><time>2026-03-28T14:36:19.81Z</time></trkpt><trkpt lat="45.5696117" lon="10.7362383"><ele>219.0</ele><time>2026-03-28T14:36:20.809Z</time></trkpt><trkpt lat="45.5697467" lon="10.736255"><ele>219.0</ele><time>2026-03-28T14:36:21.81Z</time></trkpt><trkpt lat="45.5698783" lon="10.73627"><ele>219.0</ele><time>2026-03-28T14:36:22.809Z</time></trkpt><trkpt lat="45.5700167" lon="10.736285"><ele>219.0</ele><time>2026-03-28T14:36:23.809Z</time></trkpt><trkpt lat="45.57016" lon="10.7362917"><ele>219.0</ele><time>2026-03-28T14:36:24.809Z</time></trkpt><trkpt lat="45.5703" lon="10.7363133"><ele>219.0</ele><time>2026-03-28T14:36:25.809Z</time></trkpt><trkpt lat="45.5704233" lon="10.73632"><ele>219.5</ele><time>2026-03-28T14:36:26.809Z</time></trkpt><trkpt lat="45.5705317" lon="10.7363233"><ele>220.0</ele><time>2026-03-28T14:36:27.809Z</time></trkpt><trkpt lat="45.5706083" lon="10.736345"><ele>220.5</ele><time>2026-03-28T14:36:28.809Z</time></trkpt><trkpt lat="45.57067" lon="10.736365"><ele>221.0</ele><time>2026-03-28T14:36:29.809Z</time></trkpt><trkpt lat="45.57072" lon="10.7365"><ele>221.5</ele><time>2026-03-28T14:36:31.809Z</time></trkpt><trkpt lat="45.57074" lon="10.7366217"><ele>222.0</ele><time>2026-03-28T14:36:32.809Z</time></trkpt><trkpt lat="45.570765" lon="10.7367783"><ele>222.0</ele><time>2026-03-28T14:36:33.809Z</time></trkpt><trkpt lat="45.5708" lon="10.7369617"><ele>222.0</ele><time>2026-03-28T14:36:34.809Z</time></trkpt><trkpt lat="45.5708217" lon="10.7371583"><ele>222.0</ele><time>2026-03-28T14:36:35.809Z</time></trkpt><trkpt lat="45.5708383" lon="10.7373483"><ele>222.0</ele><time>2026-03-28T14:36:36.809Z</time></trkpt><trkpt lat="45.57084" lon="10.7375317"><ele>222.0</ele><time>2026-03-28T14:36:37.81Z</time></trkpt><trkpt lat="45.5708433" lon="10.7376983"><ele>222.0</ele><time>2026-03-28T14:36:38.809Z</time></trkpt><trkpt lat="45.5708433" lon="10.73784"><ele>222.0</ele><time>2026-03-28T14:36:39.81Z</time></trkpt><trkpt lat="45.5708567" lon="10.7379733"><ele>222.0</ele><time>2026-03-28T14:36:40.81Z</time></trkpt><trkpt lat="45.570865" lon="10.7381017"><ele>222.0</ele><time>2026-03-28T14:36:41.81Z</time></trkpt><trkpt lat="45.570875" lon="10.7382267"><ele>221.8</ele><time>2026-03-28T14:36:42.81Z</time></trkpt><trkpt lat="45.5708883" lon="10.7383467"><ele>221.6</ele><time>2026-03-28T14:36:43.809Z</time></trkpt><trkpt lat="45.5708933" lon="10.7384433"><ele>221.40000000000003</ele><time>2026-03-28T14:36:44.81Z</time></trkpt><trkpt lat="45.5709017" lon="10.7385367"><ele>221.20000000000002</ele><time>2026-03-28T14:36:45.809Z</time></trkpt><trkpt lat="45.5709133" lon="10.7387"><ele>221.0</ele><time>2026-03-28T14:36:47.81Z</time></trkpt><trkpt lat="45.5709217" lon="10.7388967"><ele>221.0</ele><time>2026-03-28T14:36:49.81Z</time></trkpt><trkpt lat="45.5709133" lon="10.739025"><ele>221.00000000000003</ele><time>2026-03-28T14:36:50.809Z</time></trkpt><trkpt lat="45.5709117" lon="10.73918"><ele>221.00000000000003</ele><time>2026-03-28T14:36:51.81Z</time></trkpt><trkpt lat="45.5709017" lon="10.739345"><ele>221.0</ele><time>2026-03-28T14:36:52.809Z</time></trkpt><trkpt lat="45.5709" lon="10.7394967"><ele>221.0</ele><time>2026-03-28T14:36:53.81Z</time></trkpt><trkpt lat="45.5708967" lon="10.73962"><ele>221.0</ele><time>2026-03-28T14:36:54.81Z</time></trkpt><trkpt lat="45.57091" lon="10.7397633"><ele>221.00000000000003</ele><time>2026-03-28T14:36:56.81Z</time></trkpt><trkpt lat="45.5709883" lon="10.7397783"><ele>221.00000000000003</ele><time>2026-03-28T14:36:59.809Z</time></trkpt><trkpt lat="45.5710933" lon="10.7397183"><ele>221.0</ele><time>2026-03-28T14:37:01.809Z</time></trkpt><trkpt lat="45.5711917" lon="10.7397367"><ele>221.0</ele><time>2026-03-28T14:37:03.808Z</time></trkpt><trkpt lat="45.57123" lon="10.73985"><ele>218.0</ele><time>2026-03-28T14:37:05.808Z</time></trkpt><trkpt lat="45.5712283" lon="10.7399817"><ele>215.00000000000003</ele><time>2026-03-28T14:37:06.809Z</time></trkpt><trkpt lat="45.571225" lon="10.740145"><ele>212.0</ele><time>2026-03-28T14:37:07.808Z</time></trkpt><trkpt lat="45.571215" lon="10.7403117"><ele>209.0</ele><time>2026-03-28T14:37:08.808Z</time></trkpt><trkpt lat="45.57121" lon="10.7404717"><ele>206.0</ele><time>2026-03-28T14:37:09.808Z</time></trkpt><trkpt lat="45.5712033" lon="10.7406233"><ele>205.50000000000003</ele><time>2026-03-28T14:37:10.808Z</time></trkpt><trkpt lat="45.5712083" lon="10.7407483"><ele>205.0</ele><time>2026-03-28T14:37:11.808Z</time></trkpt><trkpt lat="45.5712117" lon="10.74086"><ele>204.5</ele><time>2026-03-28T14:37:12.808Z</time></trkpt><trkpt lat="45.5712033" lon="10.740955"><ele>204.0</ele><time>2026-03-28T14:37:13.808Z</time></trkpt><trkpt lat="45.5711533" lon="10.7411117"><ele>203.50000000000003</ele><time>2026-03-28T14:37:15.809Z</time></trkpt><trkpt lat="45.5711067" lon="10.741175"><ele>203.0</ele><time>2026-03-28T14:37:16.808Z</time></trkpt><trkpt lat="45.5710633" lon="10.7412467"><ele>207.33333333333334</ele><time>2026-03-28T14:37:17.808Z</time></trkpt><trkpt lat="45.571025" lon="10.74134"><ele>211.66666666666669</ele><time>2026-03-28T14:37:18.809Z</time></trkpt><trkpt lat="45.5710133" lon="10.7414617"><ele>216.0</ele><time>2026-03-28T14:37:19.809Z</time></trkpt><trkpt lat="45.5710433" lon="10.7415817"><ele>220.33333333333331</ele><time>2026-03-28T14:37:20.809Z</time></trkpt><trkpt lat="45.5710667" lon="10.7416933"><ele>224.66666666666666</ele><time>2026-03-28T14:37:21.808Z</time></trkpt><trkpt lat="45.5710883" lon="10.74178"><ele>229.0</ele><time>2026-03-28T14:37:22.809Z</time></trkpt><trkpt lat="45.5711133" lon="10.74192"><ele>229.16666666666666</ele><time>2026-03-28T14:37:24.808Z</time></trkpt><trkpt lat="45.5711417" lon="10.7420817"><ele>229.33333333333331</ele><time>2026-03-28T14:37:26.808Z</time></trkpt><trkpt lat="45.5711717" lon="10.7421817"><ele>229.5</ele><time>2026-03-28T14:37:27.809Z</time></trkpt><trkpt lat="45.571205" lon="10.742285"><ele>229.66666666666669</ele><time>2026-03-28T14:37:28.808Z</time></trkpt><trkpt lat="45.571245" lon="10.7423767"><ele>229.83333333333334</ele><time>2026-03-28T14:37:29.808Z</time></trkpt><trkpt lat="45.5712717" lon="10.74246"><ele>230.0</ele><time>2026-03-28T14:37:30.809Z</time></trkpt><trkpt lat="45.5712983" lon="10.7425883"><ele>226.4</ele><time>2026-03-28T14:37:32.809Z</time></trkpt><trkpt lat="45.5713083" lon="10.7427"><ele>222.8</ele><time>2026-03-28T14:37:34.809Z</time></trkpt><trkpt lat="45.5713267" lon="10.742825"><ele>219.2</ele><time>2026-03-28T14:37:36.808Z</time></trkpt><trkpt lat="45.57136" lon="10.7429733"><ele>215.6</ele><time>2026-03-28T14:37:38.809Z</time></trkpt><trkpt lat="45.571395" lon="10.743125"><ele>212.0</ele><time>2026-03-28T14:37:40.809Z</time></trkpt><trkpt lat="45.571425" lon="10.743215"><ele>212.0</ele><time>2026-03-28T14:37:42.809Z</time></trkpt><trkpt lat="45.5714867" lon="10.743235"><ele>212.0</ele><time>2026-03-28T14:37:46.808Z</time></trkpt><trkpt lat="45.57145" lon="10.74314"><ele>212.0</ele><time>2026-03-28T14:37:49.808Z</time></trkpt><trkpt lat="45.5713967" lon="10.7429767"><ele>212.0</ele><time>2026-03-28T14:37:51.808Z</time></trkpt><trkpt lat="45.5713733" lon="10.74285"><ele>212.0</ele><time>2026-03-28T14:37:52.808Z</time></trkpt><trkpt lat="45.5713483" lon="10.742705"><ele>211.5</ele><time>2026-03-28T14:37:53.808Z</time></trkpt><trkpt lat="45.5713183" lon="10.7425417"><ele>211.0</ele><time>2026-03-28T14:37:54.809Z</time></trkpt><trkpt lat="45.5712783" lon="10.7423633"><ele>210.5</ele><time>2026-03-28T14:37:55.809Z</time></trkpt><trkpt lat="45.5712333" lon="10.7422067"><ele>210.0</ele><time>2026-03-28T14:37:56.809Z</time></trkpt><trkpt lat="45.5711983" lon="10.7420783"><ele>210.0</ele><time>2026-03-28T14:37:57.808Z</time></trkpt><trkpt lat="45.5711817" lon="10.7419817"><ele>210.0</ele><time>2026-03-28T14:37:58.808Z</time></trkpt><trkpt lat="45.5712733" lon="10.74201"><ele>210.0</ele><time>2026-03-28T14:38:05.809Z</time></trkpt><trkpt lat="45.57132" lon="10.742075"><ele>210.0</ele><time>2026-03-28T14:38:06.808Z</time></trkpt><trkpt lat="45.5713633" lon="10.7421483"><ele>210.0</ele><time>2026-03-28T14:38:07.808Z</time></trkpt><trkpt lat="45.571415" lon="10.7422167"><ele>210.0</ele><time>2026-03-28T14:38:08.808Z</time></trkpt><trkpt lat="45.571465" lon="10.742285"><ele>210.0</ele><time>2026-03-28T14:38:09.809Z</time></trkpt><trkpt lat="45.5715183" lon="10.7423367"><ele>210.0</ele><time>2026-03-28T14:38:10.809Z</time></trkpt><trkpt lat="45.57157" lon="10.7424"><ele>210.0</ele><time>2026-03-28T14:38:11.809Z</time></trkpt><trkpt lat="45.5716517" lon="10.7425267"><ele>210.0</ele><time>2026-03-28T14:38:13.809Z</time></trkpt><trkpt lat="45.5717367" lon="10.7426267"><ele>210.0</ele><time>2026-03-28T14:38:15.809Z</time></trkpt><trkpt lat="45.571825" lon="10.7426317"><ele>210.0</ele><time>2026-03-28T14:38:17.809Z</time></trkpt><trkpt lat="45.5718917" lon="10.7426033"><ele>210.0</ele><time>2026-03-28T14:38:19.808Z</time></trkpt><trkpt lat="45.5719733" lon="10.7425633"><ele>210.0</ele><time>2026-03-28T14:38:21.809Z</time></trkpt><trkpt lat="45.572035" lon="10.7425417"><ele>210.0</ele><time>2026-03-28T14:38:22.808Z</time></trkpt><trkpt lat="45.57214" lon="10.7425117"><ele>210.0</ele><time>2026-03-28T14:38:24.809Z</time></trkpt><trkpt lat="45.5722267" lon="10.7425317"><ele>210.0</ele><time>2026-03-28T14:38:26.808Z</time></trkpt><trkpt lat="45.5723283" lon="10.7426333"><ele>209.2</ele><time>2026-03-28T14:38:28.809Z</time></trkpt><trkpt lat="45.5723967" lon="10.74271"><ele>208.4</ele><time>2026-03-28T14:38:29.808Z</time></trkpt><trkpt lat="45.572475" lon="10.74279"><ele>207.60000000000002</ele><time>2026-03-28T14:38:30.809Z</time></trkpt><trkpt lat="45.5725567" lon="10.7428683"><ele>206.8</ele><time>2026-03-28T14:38:31.808Z</time></trkpt><trkpt lat="45.57264" lon="10.7429517"><ele>206.0</ele><time>2026-03-28T14:38:32.808Z</time></trkpt><trkpt lat="45.5727283" lon="10.7430383"><ele>205.75</ele><time>2026-03-28T14:38:33.808Z</time></trkpt><trkpt lat="45.572825" lon="10.7431233"><ele>205.5</ele><time>2026-03-28T14:38:34.809Z</time></trkpt><trkpt lat="45.5729283" lon="10.743205"><ele>205.25</ele><time>2026-03-28T14:38:35.809Z</time></trkpt><trkpt lat="45.57302" lon="10.7433017"><ele>205.0</ele><time>2026-03-28T14:38:36.809Z</time></trkpt><trkpt lat="45.5731167" lon="10.7434"><ele>205.0</ele><time>2026-03-28T14:38:37.809Z</time></trkpt><trkpt lat="45.573215" lon="10.7435067"><ele>205.0</ele><time>2026-03-28T14:38:38.809Z</time></trkpt><trkpt lat="45.57331" lon="10.7436083"><ele>205.0</ele><time>2026-03-28T14:38:39.809Z</time></trkpt><trkpt lat="45.5733917" lon="10.7436933"><ele>205.0</ele><time>2026-03-28T14:38:40.808Z</time></trkpt><trkpt lat="45.57347" lon="10.7438"><ele>204.6</ele><time>2026-03-28T14:38:41.808Z</time></trkpt><trkpt lat="45.5735467" lon="10.743915"><ele>204.2</ele><time>2026-03-28T14:38:42.809Z</time></trkpt><trkpt lat="45.573625" lon="10.74401"><ele>203.8</ele><time>2026-03-28T14:38:43.809Z</time></trkpt><trkpt lat="45.5737067" lon="10.74409"><ele>203.4</ele><time>2026-03-28T14:38:44.809Z</time></trkpt><trkpt lat="45.5737717" lon="10.7441483"><ele>203.0</ele><time>2026-03-28T14:38:45.808Z</time></trkpt><trkpt lat="45.57387" lon="10.7442083"><ele>203.0</ele><time>2026-03-28T14:38:47.808Z</time></trkpt><trkpt lat="45.5739717" lon="10.7442383"><ele>203.0</ele><time>2026-03-28T14:38:49.808Z</time></trkpt><trkpt lat="45.5740833" lon="10.74433"><ele>203.0</ele><time>2026-03-28T14:38:51.808Z</time></trkpt><trkpt lat="45.5741583" lon="10.7443833"><ele>203.0</ele><time>2026-03-28T14:38:52.808Z</time></trkpt><trkpt lat="45.5742333" lon="10.7444317"><ele>203.0</ele><time>2026-03-28T14:38:53.809Z</time></trkpt><trkpt lat="45.5743217" lon="10.744475"><ele>203.4</ele><time>2026-03-28T14:38:54.809Z</time></trkpt><trkpt lat="45.5744017" lon="10.7445283"><ele>203.8</ele><time>2026-03-28T14:38:55.808Z</time></trkpt><trkpt lat="45.5744667" lon="10.7445733"><ele>204.2</ele><time>2026-03-28T14:38:56.808Z</time></trkpt><trkpt lat="45.5745833" lon="10.7446133"><ele>204.6</ele><time>2026-03-28T14:38:58.809Z</time></trkpt><trkpt lat="45.5747117" lon="10.7446133"><ele>205.0</ele><time>2026-03-28T14:39:00.809Z</time></trkpt><trkpt lat="45.574795" lon="10.74463"><ele>205.0</ele><time>2026-03-28T14:39:01.809Z</time></trkpt><trkpt lat="45.5748917" lon="10.744665"><ele>205.0</ele><time>2026-03-28T14:39:02.809Z</time></trkpt><trkpt lat="45.57499" lon="10.74471"><ele>205.0</ele><time>2026-03-28T14:39:03.808Z</time></trkpt><trkpt lat="45.5750833" lon="10.74474"><ele>205.0</ele><time>2026-03-28T14:39:04.809Z</time></trkpt><trkpt lat="45.575165" lon="10.7447633"><ele>205.0</ele><time>2026-03-28T14:39:05.809Z</time></trkpt><trkpt lat="45.5752317" lon="10.744785"><ele>205.0</ele><time>2026-03-28T14:39:06.809Z</time></trkpt><trkpt lat="45.5753033" lon="10.7448183"><ele>205.0</ele><time>2026-03-28T14:39:09.809Z</time></trkpt><trkpt lat="45.575255" lon="10.7447583"><ele>205.0</ele><time>2026-03-28T14:39:27.808Z</time></trkpt><trkpt lat="45.5751167" lon="10.74472"><ele>205.0</ele><time>2026-03-28T14:39:29.808Z</time></trkpt><trkpt lat="45.5750067" lon="10.7446767"><ele>205.0</ele><time>2026-03-28T14:39:30.808Z</time></trkpt><trkpt lat="45.5748883" lon="10.744615"><ele>204.99999999999997</ele><time>2026-03-28T14:39:31.809Z</time></trkpt><trkpt lat="45.5747867" lon="10.7445767"><ele>205.0</ele><time>2026-03-28T14:39:32.808Z</time></trkpt><trkpt lat="45.574705" lon="10.7445617"><ele>205.0</ele><time>2026-03-28T14:39:33.809Z</time></trkpt><trkpt lat="45.574635" lon="10.7445683"><ele>205.0</ele><time>2026-03-28T14:39:34.809Z</time></trkpt><trkpt lat="45.57457" lon="10.7445733"><ele>204.99999999999997</ele><time>2026-03-28T14:39:35.808Z</time></trkpt><trkpt lat="45.574505" lon="10.7445683"><ele>205.0</ele><time>2026-03-28T14:39:36.809Z</time></trkpt><trkpt lat="45.574435" lon="10.7445417"><ele>204.66666666666666</ele><time>2026-03-28T14:39:37.809Z</time></trkpt><trkpt lat="45.5743633" lon="10.7445"><ele>204.33333333333331</ele><time>2026-03-28T14:39:38.808Z</time></trkpt><trkpt lat="45.5742783" lon="10.74444"><ele>204.0</ele><time>2026-03-28T14:39:39.808Z</time></trkpt><trkpt lat="45.5742017" lon="10.7443883"><ele>203.66666666666669</ele><time>2026-03-28T14:39:40.808Z</time></trkpt><trkpt lat="45.5741267" lon="10.7443283"><ele>203.33333333333334</ele><time>2026-03-28T14:39:41.808Z</time></trkpt><trkpt lat="45.57406" lon="10.744265"><ele>203.0</ele><time>2026-03-28T14:39:42.808Z</time></trkpt><trkpt lat="45.573995" lon="10.7442117"><ele>203.0</ele><time>2026-03-28T14:39:43.808Z</time></trkpt><trkpt lat="45.5739" lon="10.7441483"><ele>203.0</ele><time>2026-03-28T14:39:45.808Z</time></trkpt><trkpt lat="45.573875" lon="10.7442317"><ele>203.0</ele><time>2026-03-28T14:39:51.808Z</time></trkpt><trkpt lat="45.57391" lon="10.74431"><ele>203.0</ele><time>2026-03-28T14:40:14.809Z</time></trkpt><trkpt lat="45.573995" lon="10.7443933"><ele>203.0</ele><time>2026-03-28T14:40:16.808Z</time></trkpt><trkpt lat="45.574095" lon="10.74449"><ele>206.33333333333334</ele><time>2026-03-28T14:40:18.808Z</time></trkpt><trkpt lat="45.5741567" lon="10.7445633"><ele>209.66666666666669</ele><time>2026-03-28T14:40:20.808Z</time></trkpt><trkpt lat="45.5742083" lon="10.74462"><ele>213.0</ele><time>2026-03-28T14:40:23.808Z</time></trkpt><trkpt lat="45.5742767" lon="10.7447317"><ele>216.33333333333331</ele><time>2026-03-28T14:40:25.809Z</time></trkpt><trkpt lat="45.5743217" lon="10.7448017"><ele>219.66666666666666</ele><time>2026-03-28T14:40:26.808Z</time></trkpt><trkpt lat="45.5743733" lon="10.74488"><ele>223.0</ele><time>2026-03-28T14:40:27.809Z</time></trkpt><trkpt lat="45.5744367" lon="10.744975"><ele>223.0</ele><time>2026-03-28T14:40:28.809Z</time></trkpt><trkpt lat="45.5745" lon="10.7450767"><ele>223.0</ele><time>2026-03-28T14:40:29.808Z</time></trkpt><trkpt lat="45.5745833" lon="10.74518"><ele>223.0</ele><time>2026-03-28T14:40:30.808Z</time></trkpt><trkpt lat="45.5746617" lon="10.74527"><ele>223.0</ele><time>2026-03-28T14:40:31.808Z</time></trkpt><trkpt lat="45.57473" lon="10.74535"><ele>223.0</ele><time>2026-03-28T14:40:32.808Z</time></trkpt><trkpt lat="45.5747883" lon="10.745415"><ele>223.2</ele><time>2026-03-28T14:40:33.809Z</time></trkpt><trkpt lat="45.57487" lon="10.745495"><ele>223.4</ele><time>2026-03-28T14:40:35.808Z</time></trkpt><trkpt lat="45.5750067" lon="10.7455217"><ele>223.59999999999997</ele><time>2026-03-28T14:40:52.808Z</time></trkpt><trkpt lat="45.5750817" lon="10.7455467"><ele>223.79999999999998</ele><time>2026-03-28T14:40:53.808Z</time></trkpt><trkpt lat="45.5751817" lon="10.7455867"><ele>224.0</ele><time>2026-03-28T14:40:54.808Z</time></trkpt><trkpt lat="45.5752883" lon="10.7456467"><ele>222.79999999999998</ele><time>2026-03-28T14:40:55.808Z</time></trkpt><trkpt lat="45.5754067" lon="10.7457017"><ele>221.59999999999997</ele><time>2026-03-28T14:40:56.808Z</time></trkpt><trkpt lat="45.57552" lon="10.7457417"><ele>220.4</ele><time>2026-03-28T14:40:57.809Z</time></trkpt><trkpt lat="45.5756217" lon="10.7457583"><ele>219.2</ele><time>2026-03-28T14:40:58.808Z</time></trkpt><trkpt lat="45.5757067" lon="10.7457533"><ele>218.0</ele><time>2026-03-28T14:40:59.809Z</time></trkpt><trkpt lat="45.5757817" lon="10.74575"><ele>218.0</ele><time>2026-03-28T14:41:00.808Z</time></trkpt><trkpt lat="45.5758733" lon="10.7457567"><ele>218.0</ele><time>2026-03-28T14:41:02.808Z</time></trkpt><trkpt lat="45.5757833" lon="10.7457317"><ele>218.0</ele><time>2026-03-28T14:41:22.808Z</time></trkpt><trkpt lat="45.575705" lon="10.7457333"><ele>218.0</ele><time>2026-03-28T14:41:23.809Z</time></trkpt><trkpt lat="45.57559" lon="10.7457217"><ele>218.0</ele><time>2026-03-28T14:41:24.809Z</time></trkpt><trkpt lat="45.5754583" lon="10.74569"><ele>219.5</ele><time>2026-03-28T14:41:25.808Z</time></trkpt><trkpt lat="45.57532" lon="10.7456367"><ele>221.0</ele><time>2026-03-28T14:41:26.809Z</time></trkpt><trkpt lat="45.5751867" lon="10.7455667"><ele>222.5</ele><time>2026-03-28T14:41:27.808Z</time></trkpt><trkpt lat="45.5750817" lon="10.7455033"><ele>224.0</ele><time>2026-03-28T14:41:28.808Z</time></trkpt><trkpt lat="45.5749983" lon="10.74547"><ele>224.0</ele><time>2026-03-28T14:41:29.809Z</time></trkpt><trkpt lat="45.5749317" lon="10.745465"><ele>223.99999999999997</ele><time>2026-03-28T14:41:30.808Z</time></trkpt><trkpt lat="45.5749033" lon="10.7455567"><ele>223.99999999999997</ele><time>2026-03-28T14:41:32.809Z</time></trkpt><trkpt lat="45.57496" lon="10.7457267"><ele>224.0</ele><time>2026-03-28T14:41:34.809Z</time></trkpt><trkpt lat="45.57502" lon="10.745815"><ele>224.0</ele><time>2026-03-28T14:41:35.808Z</time></trkpt><trkpt lat="45.5751067" lon="10.74589"><ele>224.0</ele><time>2026-03-28T14:41:36.808Z</time></trkpt><trkpt lat="45.5752117" lon="10.7459633"><ele>224.0</ele><time>2026-03-28T14:41:37.808Z</time></trkpt><trkpt lat="45.5753133" lon="10.74604"><ele>224.0</ele><time>2026-03-28T14:41:38.809Z</time></trkpt><trkpt lat="45.5754183" lon="10.7461267"><ele>224.0</ele><time>2026-03-28T14:41:39.808Z</time></trkpt><trkpt lat="45.5755333" lon="10.74621"><ele>226.25</ele><time>2026-03-28T14:41:40.808Z</time></trkpt><trkpt lat="45.57566" lon="10.7462633"><ele>228.5</ele><time>2026-03-28T14:41:41.808Z</time></trkpt><trkpt lat="45.5757933" lon="10.7463067"><ele>230.75</ele><time>2026-03-28T14:41:42.809Z</time></trkpt><trkpt lat="45.5759583" lon="10.7463283"><ele>233.0</ele><time>2026-03-28T14:41:43.809Z</time></trkpt><trkpt lat="45.576105" lon="10.7463317"><ele>233.5</ele><time>2026-03-28T14:41:44.808Z</time></trkpt><trkpt lat="45.5762467" lon="10.7463117"><ele>234.0</ele><time>2026-03-28T14:41:45.809Z</time></trkpt><trkpt lat="45.5763767" lon="10.7463017"><ele>234.5</ele><time>2026-03-28T14:41:46.809Z</time></trkpt><trkpt lat="45.5764783" lon="10.746295"><ele>235.0</ele><time>2026-03-28T14:41:47.808Z</time></trkpt><trkpt lat="45.5765717" lon="10.746305"><ele>234.99999999999997</ele><time>2026-03-28T14:41:48.809Z</time></trkpt><trkpt lat="45.5766433" lon="10.7463383"><ele>235.0</ele><time>2026-03-28T14:41:49.809Z</time></trkpt><trkpt lat="45.5766933" lon="10.746405"><ele>235.0</ele><time>2026-03-28T14:41:50.808Z</time></trkpt><trkpt lat="45.576725" lon="10.7464867"><ele>235.0</ele><time>2026-03-28T14:41:51.808Z</time></trkpt><trkpt lat="45.5767467" lon="10.7466033"><ele>234.99999999999997</ele><time>2026-03-28T14:41:52.808Z</time></trkpt><trkpt lat="45.5767733" lon="10.746715"><ele>235.0</ele><time>2026-03-28T14:41:53.809Z</time></trkpt><trkpt lat="45.5768167" lon="10.746815"><ele>235.0</ele><time>2026-03-28T14:41:54.809Z</time></trkpt><trkpt lat="45.5768933" lon="10.7468617"><ele>235.0</ele><time>2026-03-28T14:41:55.808Z</time></trkpt><trkpt lat="45.5769883" lon="10.7468683"><ele>235.0</ele><time>2026-03-28T14:41:56.808Z</time></trkpt><trkpt lat="45.577105" lon="10.74684"><ele>235.0</ele><time>2026-03-28T14:41:57.809Z</time></trkpt><trkpt lat="45.5772283" lon="10.7467933"><ele>235.0</ele><time>2026-03-28T14:41:58.808Z</time></trkpt><trkpt lat="45.5773433" lon="10.7467333"><ele>234.75</ele><time>2026-03-28T14:41:59.809Z</time></trkpt><trkpt lat="45.57747" lon="10.7466517"><ele>234.5</ele><time>2026-03-28T14:42:00.808Z</time></trkpt><trkpt lat="45.5776033" lon="10.7465467"><ele>234.25</ele><time>2026-03-28T14:42:01.809Z</time></trkpt><trkpt lat="45.5777167" lon="10.7464283"><ele>234.0</ele><time>2026-03-28T14:42:02.808Z</time></trkpt><trkpt lat="45.5778133" lon="10.74631"><ele>232.79999999999998</ele><time>2026-03-28T14:42:03.808Z</time></trkpt><trkpt lat="45.5779083" lon="10.7462"><ele>231.59999999999997</ele><time>2026-03-28T14:42:04.809Z</time></trkpt><trkpt lat="45.577995" lon="10.7461033"><ele>230.4</ele><time>2026-03-28T14:42:05.809Z</time></trkpt><trkpt lat="45.57809" lon="10.7460283"><ele>229.2</ele><time>2026-03-28T14:42:06.807Z</time></trkpt><trkpt lat="45.578175" lon="10.7459533"><ele>228.0</ele><time>2026-03-28T14:42:07.807Z</time></trkpt><trkpt lat="45.5782667" lon="10.7458783"><ele>227.8</ele><time>2026-03-28T14:42:08.807Z</time></trkpt><trkpt lat="45.578355" lon="10.745805"><ele>227.60000000000002</ele><time>2026-03-28T14:42:09.807Z</time></trkpt><trkpt lat="45.57844" lon="10.745745"><ele>227.39999999999998</ele><time>2026-03-28T14:42:10.807Z</time></trkpt><trkpt lat="45.5785433" lon="10.7456617"><ele>227.2</ele><time>2026-03-28T14:42:11.807Z</time></trkpt><trkpt lat="45.5786383" lon="10.7455533"><ele>227.0</ele><time>2026-03-28T14:42:12.807Z</time></trkpt><trkpt lat="45.5787483" lon="10.7454383"><ele>226.5</ele><time>2026-03-28T14:42:13.808Z</time></trkpt><trkpt lat="45.57885" lon="10.74531"><ele>226.0</ele><time>2026-03-28T14:42:14.807Z</time></trkpt><trkpt lat="45.57895" lon="10.7451667"><ele>225.5</ele><time>2026-03-28T14:42:15.807Z</time></trkpt><trkpt lat="45.57905" lon="10.7450117"><ele>225.0</ele><time>2026-03-28T14:42:16.808Z</time></trkpt><trkpt lat="45.5791267" lon="10.7448683"><ele>224.0</ele><time>2026-03-28T14:42:17.808Z</time></trkpt><trkpt lat="45.5792067" lon="10.7447483"><ele>223.0</ele><time>2026-03-28T14:42:18.807Z</time></trkpt><trkpt lat="45.5792817" lon="10.744665"><ele>222.0</ele><time>2026-03-28T14:42:19.807Z</time></trkpt><trkpt lat="45.5793567" lon="10.7446267"><ele>221.0</ele><time>2026-03-28T14:42:20.807Z</time></trkpt><trkpt lat="45.579435" lon="10.7446083"><ele>220.0</ele><time>2026-03-28T14:42:21.807Z</time></trkpt><trkpt lat="45.579515" lon="10.744645"><ele>219.4</ele><time>2026-03-28T14:42:22.807Z</time></trkpt><trkpt lat="45.5795967" lon="10.7447167"><ele>218.8</ele><time>2026-03-28T14:42:23.808Z</time></trkpt><trkpt lat="45.579685" lon="10.7447983"><ele>218.2</ele><time>2026-03-28T14:42:24.807Z</time></trkpt><trkpt lat="45.5797783" lon="10.7448717"><ele>217.6</ele><time>2026-03-28T14:42:25.808Z</time></trkpt><trkpt lat="45.5798683" lon="10.74495"><ele>217.0</ele><time>2026-03-28T14:42:26.808Z</time></trkpt><trkpt lat="45.5799567" lon="10.7450267"><ele>217.0</ele><time>2026-03-28T14:42:27.808Z</time></trkpt><trkpt lat="45.5800517" lon="10.7451233"><ele>217.0</ele><time>2026-03-28T14:42:28.808Z</time></trkpt><trkpt lat="45.5801567" lon="10.7452233"><ele>217.0</ele><time>2026-03-28T14:42:29.808Z</time></trkpt><trkpt lat="45.5802633" lon="10.7453167"><ele>217.0</ele><time>2026-03-28T14:42:30.808Z</time></trkpt><trkpt lat="45.5803733" lon="10.74539"><ele>221.0</ele><time>2026-03-28T14:42:31.807Z</time></trkpt><trkpt lat="45.58051" lon="10.7454333"><ele>225.0</ele><time>2026-03-28T14:42:32.807Z</time></trkpt><trkpt lat="45.5806367" lon="10.7454717"><ele>229.0</ele><time>2026-03-28T14:42:33.808Z</time></trkpt><trkpt lat="45.5807767" lon="10.7455083"><ele>233.0</ele><time>2026-03-28T14:42:34.808Z</time></trkpt><trkpt lat="45.5809133" lon="10.7455533"><ele>233.0</ele><time>2026-03-28T14:42:35.808Z</time></trkpt><trkpt lat="45.581035" lon="10.745595"><ele>233.0</ele><time>2026-03-28T14:42:36.808Z</time></trkpt><trkpt lat="45.581175" lon="10.745635"><ele>233.0</ele><time>2026-03-28T14:42:37.807Z</time></trkpt><trkpt lat="45.5813217" lon="10.745685"><ele>233.0</ele><time>2026-03-28T14:42:38.808Z</time></trkpt><trkpt lat="45.581465" lon="10.7457433"><ele>230.0</ele><time>2026-03-28T14:42:39.807Z</time></trkpt><trkpt lat="45.5816283" lon="10.7458"><ele>227.0</ele><time>2026-03-28T14:42:40.808Z</time></trkpt><trkpt lat="45.581805" lon="10.7458417"><ele>224.0</ele><time>2026-03-28T14:42:41.807Z</time></trkpt><trkpt lat="45.5819817" lon="10.745865"><ele>223.66666666666669</ele><time>2026-03-28T14:42:42.807Z</time></trkpt><trkpt lat="45.58216" lon="10.7458683"><ele>223.33333333333331</ele><time>2026-03-28T14:42:43.807Z</time></trkpt><trkpt lat="45.5823433" lon="10.74588"><ele>223.0</ele><time>2026-03-28T14:42:44.808Z</time></trkpt><trkpt lat="45.58252" lon="10.7458967"><ele>223.0</ele><time>2026-03-28T14:42:45.807Z</time></trkpt><trkpt lat="45.5826917" lon="10.74591"><ele>223.0</ele><time>2026-03-28T14:42:46.808Z</time></trkpt><trkpt lat="45.58287" lon="10.7459033"><ele>223.0</ele><time>2026-03-28T14:42:47.807Z</time></trkpt><trkpt lat="45.5830483" lon="10.7458967"><ele>224.66666666666666</ele><time>2026-03-28T14:42:48.808Z</time></trkpt><trkpt lat="45.5832217" lon="10.7458983"><ele>226.33333333333331</ele><time>2026-03-28T14:42:49.807Z</time></trkpt><trkpt lat="45.5833917" lon="10.7458933"><ele>228.0</ele><time>2026-03-28T14:42:50.807Z</time></trkpt><trkpt lat="45.5835517" lon="10.7459067"><ele>229.25</ele><time>2026-03-28T14:42:51.807Z</time></trkpt><trkpt lat="45.5837017" lon="10.7459167"><ele>230.5</ele><time>2026-03-28T14:42:52.808Z</time></trkpt><trkpt lat="45.58385" lon="10.745915"><ele>231.75</ele><time>2026-03-28T14:42:53.807Z</time></trkpt><trkpt lat="45.583995" lon="10.74591"><ele>233.0</ele><time>2026-03-28T14:42:54.808Z</time></trkpt><trkpt lat="45.5841333" lon="10.7459033"><ele>233.0</ele><time>2026-03-28T14:42:55.808Z</time></trkpt><trkpt lat="45.5842633" lon="10.74588"><ele>233.0</ele><time>2026-03-28T14:42:56.807Z</time></trkpt><trkpt lat="45.58439" lon="10.7458467"><ele>233.0</ele><time>2026-03-28T14:42:57.808Z</time></trkpt><trkpt lat="45.5845117" lon="10.7457883"><ele>233.0</ele><time>2026-03-28T14:42:58.807Z</time></trkpt><trkpt lat="45.5846283" lon="10.74572"><ele>233.60000000000002</ele><time>2026-03-28T14:42:59.807Z</time></trkpt><trkpt lat="45.5847333" lon="10.745645"><ele>234.20000000000002</ele><time>2026-03-28T14:43:00.808Z</time></trkpt><trkpt lat="45.5848367" lon="10.7455467"><ele>234.8</ele><time>2026-03-28T14:43:01.808Z</time></trkpt><trkpt lat="45.584925" lon="10.745455"><ele>235.4</ele><time>2026-03-28T14:43:02.808Z</time></trkpt><trkpt lat="45.5850033" lon="10.7453767"><ele>236.0</ele><time>2026-03-28T14:43:03.808Z</time></trkpt><trkpt lat="45.5850967" lon="10.74532"><ele>236.0</ele><time>2026-03-28T14:43:04.807Z</time></trkpt><trkpt lat="45.5851883" lon="10.7453017"><ele>236.00000000000003</ele><time>2026-03-28T14:43:05.807Z</time></trkpt><trkpt lat="45.5852917" lon="10.7453017"><ele>236.00000000000003</ele><time>2026-03-28T14:43:06.807Z</time></trkpt><trkpt lat="45.585405" lon="10.7453117"><ele>236.0</ele><time>2026-03-28T14:43:07.808Z</time></trkpt><trkpt lat="45.5855183" lon="10.7453283"><ele>236.0</ele><time>2026-03-28T14:43:08.808Z</time></trkpt><trkpt lat="45.5856183" lon="10.7453583"><ele>236.16666666666669</ele><time>2026-03-28T14:43:09.807Z</time></trkpt><trkpt lat="45.5857083" lon="10.7453867"><ele>236.33333333333334</ele><time>2026-03-28T14:43:10.807Z</time></trkpt><trkpt lat="45.58579" lon="10.7454117"><ele>236.5</ele><time>2026-03-28T14:43:11.807Z</time></trkpt><trkpt lat="45.58586" lon="10.7454283"><ele>236.66666666666669</ele><time>2026-03-28T14:43:12.808Z</time></trkpt><trkpt lat="45.5859433" lon="10.7454383"><ele>236.83333333333334</ele><time>2026-03-28T14:43:14.808Z</time></trkpt><trkpt lat="45.5859933" lon="10.7453733"><ele>237.0</ele><time>2026-03-28T14:43:24.807Z</time></trkpt><trkpt lat="45.5860267" lon="10.745285"><ele>238.2</ele><time>2026-03-28T14:43:25.807Z</time></trkpt><trkpt lat="45.5860433" lon="10.745165"><ele>239.39999999999998</ele><time>2026-03-28T14:43:26.807Z</time></trkpt><trkpt lat="45.5860333" lon="10.7450133"><ele>240.60000000000002</ele><time>2026-03-28T14:43:27.808Z</time></trkpt><trkpt lat="45.5860167" lon="10.744845"><ele>241.8</ele><time>2026-03-28T14:43:28.808Z</time></trkpt><trkpt lat="45.586" lon="10.7446683"><ele>243.0</ele><time>2026-03-28T14:43:29.807Z</time></trkpt><trkpt lat="45.5859917" lon="10.7444767"><ele>243.25</ele><time>2026-03-28T14:43:30.808Z</time></trkpt><trkpt lat="45.58597" lon="10.7442817"><ele>243.5</ele><time>2026-03-28T14:43:31.808Z</time></trkpt><trkpt lat="45.58595" lon="10.7440733"><ele>243.75</ele><time>2026-03-28T14:43:32.807Z</time></trkpt><trkpt lat="45.5859217" lon="10.74387"><ele>244.0</ele><time>2026-03-28T14:43:33.808Z</time></trkpt><trkpt lat="45.585895" lon="10.7436733"><ele>242.75</ele><time>2026-03-28T14:43:34.807Z</time></trkpt><trkpt lat="45.585865" lon="10.7434833"><ele>241.5</ele><time>2026-03-28T14:43:35.807Z</time></trkpt><trkpt lat="45.5858467" lon="10.7433067"><ele>240.25</ele><time>2026-03-28T14:43:36.807Z</time></trkpt><trkpt lat="45.58585" lon="10.74315"><ele>239.0</ele><time>2026-03-28T14:43:37.808Z</time></trkpt><trkpt lat="45.5858483" lon="10.743"><ele>239.0</ele><time>2026-03-28T14:43:38.807Z</time></trkpt><trkpt lat="45.5858583" lon="10.742855"><ele>238.99999999999997</ele><time>2026-03-28T14:43:39.808Z</time></trkpt><trkpt lat="45.5858667" lon="10.7427167"><ele>238.99999999999997</ele><time>2026-03-28T14:43:40.807Z</time></trkpt><trkpt lat="45.5858717" lon="10.742575"><ele>239.0</ele><time>2026-03-28T14:43:41.807Z</time></trkpt><trkpt lat="45.58587" lon="10.7424317"><ele>239.0</ele><time>2026-03-28T14:43:42.808Z</time></trkpt><trkpt lat="45.5858783" lon="10.7422967"><ele>238.0</ele><time>2026-03-28T14:43:43.807Z</time></trkpt><trkpt lat="45.5858817" lon="10.742175"><ele>236.99999999999997</ele><time>2026-03-28T14:43:44.807Z</time></trkpt><trkpt lat="45.5858783" lon="10.7420567"><ele>235.99999999999997</ele><time>2026-03-28T14:43:45.808Z</time></trkpt><trkpt lat="45.585875" lon="10.741925"><ele>235.0</ele><time>2026-03-28T14:43:46.807Z</time></trkpt><trkpt lat="45.5858733" lon="10.7417817"><ele>234.0</ele><time>2026-03-28T14:43:47.808Z</time></trkpt><trkpt lat="45.5858633" lon="10.7416417"><ele>232.79999999999998</ele><time>2026-03-28T14:43:48.808Z</time></trkpt><trkpt lat="45.5858567" lon="10.7415"><ele>231.59999999999997</ele><time>2026-03-28T14:43:49.807Z</time></trkpt><trkpt lat="45.5858533" lon="10.7413533"><ele>230.4</ele><time>2026-03-28T14:43:50.808Z</time></trkpt><trkpt lat="45.5858483" lon="10.7412017"><ele>229.2</ele><time>2026-03-28T14:43:51.807Z</time></trkpt><trkpt lat="45.5858317" lon="10.74105"><ele>228.0</ele><time>2026-03-28T14:43:52.808Z</time></trkpt><trkpt lat="45.5858217" lon="10.74091"><ele>227.60000000000002</ele><time>2026-03-28T14:43:53.808Z</time></trkpt><trkpt lat="45.5858117" lon="10.7407867"><ele>227.20000000000002</ele><time>2026-03-28T14:43:54.807Z</time></trkpt><trkpt lat="45.5858017" lon="10.7406717"><ele>226.8</ele><time>2026-03-28T14:43:55.808Z</time></trkpt><trkpt lat="45.5857883" lon="10.7405767"><ele>226.4</ele><time>2026-03-28T14:43:56.808Z</time></trkpt><trkpt lat="45.5857783" lon="10.7404133"><ele>226.0</ele><time>2026-03-28T14:43:58.807Z</time></trkpt><trkpt lat="45.5857767" lon="10.74025"><ele>226.20000000000002</ele><time>2026-03-28T14:44:00.807Z</time></trkpt><trkpt lat="45.58581" lon="10.7401133"><ele>226.40000000000003</ele><time>2026-03-28T14:44:02.807Z</time></trkpt><trkpt lat="45.5858233" lon="10.73994"><ele>226.6</ele><time>2026-03-28T14:44:04.807Z</time></trkpt><trkpt lat="45.5858017" lon="10.7398367"><ele>226.8</ele><time>2026-03-28T14:44:05.808Z</time></trkpt><trkpt lat="45.58577" lon="10.7397233"><ele>227.0</ele><time>2026-03-28T14:44:06.807Z</time></trkpt><trkpt lat="45.5857417" lon="10.739595"><ele>227.0</ele><time>2026-03-28T14:44:07.807Z</time></trkpt><trkpt lat="45.5857267" lon="10.73947"><ele>227.0</ele><time>2026-03-28T14:44:08.807Z</time></trkpt><trkpt lat="45.5857117" lon="10.7393517"><ele>227.0</ele><time>2026-03-28T14:44:09.807Z</time></trkpt><trkpt lat="45.58569" lon="10.739225"><ele>227.0</ele><time>2026-03-28T14:44:10.808Z</time></trkpt><trkpt lat="45.5856617" lon="10.7391017"><ele>227.0</ele><time>2026-03-28T14:44:11.808Z</time></trkpt><trkpt lat="45.5856133" lon="10.7389833"><ele>227.0</ele><time>2026-03-28T14:44:12.807Z</time></trkpt><trkpt lat="45.58558" lon="10.7388583"><ele>227.0</ele><time>2026-03-28T14:44:13.807Z</time></trkpt><trkpt lat="45.585535" lon="10.7387367"><ele>227.0</ele><time>2026-03-28T14:44:14.807Z</time></trkpt><trkpt lat="45.585495" lon="10.7386017"><ele>227.0</ele><time>2026-03-28T14:44:15.808Z</time></trkpt><trkpt lat="45.5854567" lon="10.738455"><ele>227.0</ele><time>2026-03-28T14:44:16.808Z</time></trkpt><trkpt lat="45.5854267" lon="10.738295"><ele>226.6</ele><time>2026-03-28T14:44:17.807Z</time></trkpt><trkpt lat="45.5853883" lon="10.7381433"><ele>226.2</ele><time>2026-03-28T14:44:18.807Z</time></trkpt><trkpt lat="45.58536" lon="10.7380033"><ele>225.8</ele><time>2026-03-28T14:44:19.807Z</time></trkpt><trkpt lat="45.5853283" lon="10.7378783"><ele>225.4</ele><time>2026-03-28T14:44:20.807Z</time></trkpt><trkpt lat="45.5853017" lon="10.7377567"><ele>225.0</ele><time>2026-03-28T14:44:21.807Z</time></trkpt><trkpt lat="45.58528" lon="10.73763"><ele>222.0</ele><time>2026-03-28T14:44:22.807Z</time></trkpt><trkpt lat="45.585265" lon="10.7374917"><ele>219.0</ele><time>2026-03-28T14:44:23.807Z</time></trkpt><trkpt lat="45.5852483" lon="10.7373317"><ele>216.0</ele><time>2026-03-28T14:44:24.807Z</time></trkpt><trkpt lat="45.58524" lon="10.7371633"><ele>213.0</ele><time>2026-03-28T14:44:25.807Z</time></trkpt><trkpt lat="45.585245" lon="10.7369983"><ele>210.0</ele><time>2026-03-28T14:44:26.808Z</time></trkpt><trkpt lat="45.585255" lon="10.736825"><ele>208.75</ele><time>2026-03-28T14:44:27.808Z</time></trkpt><trkpt lat="45.5852733" lon="10.7366483"><ele>207.5</ele><time>2026-03-28T14:44:28.807Z</time></trkpt><trkpt lat="45.5852983" lon="10.736465"><ele>206.25</ele><time>2026-03-28T14:44:29.808Z</time></trkpt><trkpt lat="45.5853467" lon="10.7362833"><ele>205.0</ele><time>2026-03-28T14:44:30.807Z</time></trkpt><trkpt lat="45.5854033" lon="10.7361017"><ele>207.0</ele><time>2026-03-28T14:44:31.807Z</time></trkpt><trkpt lat="45.5854517" lon="10.735925"><ele>209.0</ele><time>2026-03-28T14:44:32.807Z</time></trkpt><trkpt lat="45.58551" lon="10.7357567"><ele>211.0</ele><time>2026-03-28T14:44:33.808Z</time></trkpt><trkpt lat="45.5855567" lon="10.7355967"><ele>213.0</ele><time>2026-03-28T14:44:34.808Z</time></trkpt><trkpt lat="45.5855967" lon="10.7354383"><ele>213.0</ele><time>2026-03-28T14:44:35.808Z</time></trkpt><trkpt lat="45.5856283" lon="10.7352783"><ele>213.0</ele><time>2026-03-28T14:44:36.808Z</time></trkpt><trkpt lat="45.5856583" lon="10.7351133"><ele>213.0</ele><time>2026-03-28T14:44:37.807Z</time></trkpt><trkpt lat="45.5856867" lon="10.7349667"><ele>213.0</ele><time>2026-03-28T14:44:38.807Z</time></trkpt><trkpt lat="45.5857017" lon="10.7348183"><ele>213.0</ele><time>2026-03-28T14:44:39.808Z</time></trkpt><trkpt lat="45.5857183" lon="10.73468"><ele>211.8</ele><time>2026-03-28T14:44:40.807Z</time></trkpt><trkpt lat="45.58573" lon="10.7345467"><ele>210.60000000000002</ele><time>2026-03-28T14:44:41.808Z</time></trkpt><trkpt lat="45.5857467" lon="10.7344067"><ele>209.39999999999998</ele><time>2026-03-28T14:44:42.808Z</time></trkpt><trkpt lat="45.5857583" lon="10.73426"><ele>208.2</ele><time>2026-03-28T14:44:43.807Z</time></trkpt><trkpt lat="45.58577" lon="10.7340967"><ele>207.0</ele><time>2026-03-28T14:44:44.807Z</time></trkpt><trkpt lat="45.585785" lon="10.7339233"><ele>205.25</ele><time>2026-03-28T14:44:45.807Z</time></trkpt><trkpt lat="45.58579" lon="10.7337483"><ele>203.5</ele><time>2026-03-28T14:44:46.808Z</time></trkpt><trkpt lat="45.5857733" lon="10.733565"><ele>201.75</ele><time>2026-03-28T14:44:47.807Z</time></trkpt><trkpt lat="45.585745" lon="10.7334017"><ele>200.0</ele><time>2026-03-28T14:44:48.808Z</time></trkpt><trkpt lat="45.5857" lon="10.733255"><ele>199.75</ele><time>2026-03-28T14:44:49.807Z</time></trkpt><trkpt lat="45.58563" lon="10.7331383"><ele>199.5</ele><time>2026-03-28T14:44:50.808Z</time></trkpt><trkpt lat="45.58553" lon="10.7330533"><ele>199.25</ele><time>2026-03-28T14:44:51.807Z</time></trkpt><trkpt lat="45.5854083" lon="10.732985"><ele>199.0</ele><time>2026-03-28T14:44:52.807Z</time></trkpt><trkpt lat="45.5852983" lon="10.7329083"><ele>195.5</ele><time>2026-03-28T14:44:53.807Z</time></trkpt><trkpt lat="45.58521" lon="10.7328283"><ele>192.0</ele><time>2026-03-28T14:44:54.808Z</time></trkpt><trkpt lat="45.5851217" lon="10.7327117"><ele>188.5</ele><time>2026-03-28T14:44:55.807Z</time></trkpt><trkpt lat="45.5850483" lon="10.7325733"><ele>185.0</ele><time>2026-03-28T14:44:56.807Z</time></trkpt><trkpt lat="45.584995" lon="10.73243"><ele>185.0</ele><time>2026-03-28T14:44:57.808Z</time></trkpt><trkpt lat="45.5849617" lon="10.732295"><ele>185.0</ele><time>2026-03-28T14:44:58.807Z</time></trkpt><trkpt lat="45.5849433" lon="10.732175"><ele>185.0</ele><time>2026-03-28T14:44:59.807Z</time></trkpt><trkpt lat="45.5849267" lon="10.732075"><ele>185.0</ele><time>2026-03-28T14:45:00.807Z</time></trkpt><trkpt lat="45.5849283" lon="10.7319183"><ele>185.0</ele><time>2026-03-28T14:45:02.808Z</time></trkpt><trkpt lat="45.584905" lon="10.7317967"><ele>185.0</ele><time>2026-03-28T14:45:04.807Z</time></trkpt><trkpt lat="45.5848383" lon="10.7317683"><ele>185.0</ele><time>2026-03-28T14:45:06.807Z</time></trkpt><trkpt lat="45.5847567" lon="10.7318733"><ele>185.0</ele><time>2026-03-28T14:45:08.808Z</time></trkpt><trkpt lat="45.5847217" lon="10.7319717"><ele>185.0</ele><time>2026-03-28T14:45:09.807Z</time></trkpt><trkpt lat="45.5846883" lon="10.7320783"><ele>185.0</ele><time>2026-03-28T14:45:10.807Z</time></trkpt><trkpt lat="45.58466" lon="10.7321983"><ele>185.0</ele><time>2026-03-28T14:45:11.808Z</time></trkpt><trkpt lat="45.5846483" lon="10.7323083"><ele>185.0</ele><time>2026-03-28T14:45:12.808Z</time></trkpt><trkpt lat="45.58464" lon="10.7324133"><ele>185.0</ele><time>2026-03-28T14:45:13.807Z</time></trkpt><trkpt lat="45.5846233" lon="10.732575"><ele>185.0</ele><time>2026-03-28T14:45:15.808Z</time></trkpt><trkpt lat="45.5845917" lon="10.7327017"><ele>185.0</ele><time>2026-03-28T14:45:17.807Z</time></trkpt><trkpt lat="45.584535" lon="10.7327683"><ele>185.0</ele><time>2026-03-28T14:45:19.807Z</time></trkpt><trkpt lat="45.584485" lon="10.7326933"><ele>185.0</ele><time>2026-03-28T14:45:21.808Z</time></trkpt><trkpt lat="45.5844867" lon="10.7325383"><ele>185.0</ele><time>2026-03-28T14:45:23.807Z</time></trkpt><trkpt lat="45.5844917" lon="10.73244"><ele>185.0</ele><time>2026-03-28T14:45:24.807Z</time></trkpt><trkpt lat="45.5844983" lon="10.7323417"><ele>185.0</ele><time>2026-03-28T14:45:25.807Z</time></trkpt><trkpt lat="45.5845033" lon="10.73225"><ele>185.0</ele><time>2026-03-28T14:45:26.808Z</time></trkpt><trkpt lat="45.5845067" lon="10.7320617"><ele>185.0</ele><time>2026-03-28T14:45:28.807Z</time></trkpt><trkpt lat="45.584515" lon="10.7319483"><ele>185.0</ele><time>2026-03-28T14:45:29.808Z</time></trkpt><trkpt lat="45.5845183" lon="10.731815"><ele>185.0</ele><time>2026-03-28T14:45:30.807Z</time></trkpt><trkpt lat="45.5845183" lon="10.7316683"><ele>185.0</ele><time>2026-03-28T14:45:31.807Z</time></trkpt><trkpt lat="45.5845117" lon="10.7315017"><ele>185.0</ele><time>2026-03-28T14:45:32.808Z</time></trkpt><trkpt lat="45.5844967" lon="10.731325"><ele>185.0</ele><time>2026-03-28T14:45:33.808Z</time></trkpt><trkpt lat="45.5844717" lon="10.731155"><ele>178.0</ele><time>2026-03-28T14:45:34.808Z</time></trkpt><trkpt lat="45.5844467" lon="10.7309917"><ele>171.0</ele><time>2026-03-28T14:45:35.808Z</time></trkpt><trkpt lat="45.5844217" lon="10.7308333"><ele>164.0</ele><time>2026-03-28T14:45:36.808Z</time></trkpt><trkpt lat="45.5843933" lon="10.73067"><ele>157.0</ele><time>2026-03-28T14:45:37.807Z</time></trkpt><trkpt lat="45.58437" lon="10.7305183"><ele>157.0</ele><time>2026-03-28T14:45:38.808Z</time></trkpt><trkpt lat="45.58436" lon="10.7303833"><ele>157.0</ele><time>2026-03-28T14:45:39.807Z</time></trkpt><trkpt lat="45.5843467" lon="10.730265"><ele>157.0</ele><time>2026-03-28T14:45:40.807Z</time></trkpt><trkpt lat="45.58434" lon="10.73016"><ele>157.0</ele><time>2026-03-28T14:45:41.807Z</time></trkpt><trkpt lat="45.58433" lon="10.730045"><ele>157.0</ele><time>2026-03-28T14:45:42.808Z</time></trkpt><trkpt lat="45.5843183" lon="10.7299283"><ele>157.0</ele><time>2026-03-28T14:45:43.808Z</time></trkpt><trkpt lat="45.5843083" lon="10.7298083"><ele>156.6</ele><time>2026-03-28T14:45:44.807Z</time></trkpt><trkpt lat="45.5842917" lon="10.7296767"><ele>156.2</ele><time>2026-03-28T14:45:45.808Z</time></trkpt><trkpt lat="45.5842717" lon="10.729545"><ele>155.8</ele><time>2026-03-28T14:45:46.808Z</time></trkpt><trkpt lat="45.5842533" lon="10.7294117"><ele>155.4</ele><time>2026-03-28T14:45:47.808Z</time></trkpt><trkpt lat="45.5842417" lon="10.72928"><ele>155.0</ele><time>2026-03-28T14:45:48.808Z</time></trkpt><trkpt lat="45.5842117" lon="10.7291417"><ele>154.25</ele><time>2026-03-28T14:45:49.808Z</time></trkpt><trkpt lat="45.5841817" lon="10.728995"><ele>153.5</ele><time>2026-03-28T14:45:50.807Z</time></trkpt><trkpt lat="45.5841433" lon="10.7288383"><ele>152.75</ele><time>2026-03-28T14:45:51.808Z</time></trkpt><trkpt lat="45.58408" lon="10.7286933"><ele>152.0</ele><time>2026-03-28T14:45:52.808Z</time></trkpt><trkpt lat="45.58399" lon="10.7285483"><ele>151.25</ele><time>2026-03-28T14:45:53.808Z</time></trkpt><trkpt lat="45.5838767" lon="10.7284417"><ele>150.5</ele><time>2026-03-28T14:45:54.807Z</time></trkpt><trkpt lat="45.5837683" lon="10.72831"><ele>149.75</ele><time>2026-03-28T14:45:55.807Z</time></trkpt><trkpt lat="45.5836867" lon="10.7281583"><ele>149.0</ele><time>2026-03-28T14:45:56.808Z</time></trkpt><trkpt lat="45.583635" lon="10.7279967"><ele>145.25</ele><time>2026-03-28T14:45:57.808Z</time></trkpt><trkpt lat="45.583595" lon="10.7278233"><ele>141.5</ele><time>2026-03-28T14:45:58.808Z</time></trkpt><trkpt lat="45.5835683" lon="10.7276383"><ele>137.75</ele><time>2026-03-28T14:45:59.807Z</time></trkpt><trkpt lat="45.5835433" lon="10.7274483"><ele>134.0</ele><time>2026-03-28T14:46:00.807Z</time></trkpt><trkpt lat="45.5835267" lon="10.72727"><ele>133.4</ele><time>2026-03-28T14:46:01.807Z</time></trkpt><trkpt lat="45.5835033" lon="10.7270967"><ele>132.8</ele><time>2026-03-28T14:46:02.808Z</time></trkpt><trkpt lat="45.5834867" lon="10.72694"><ele>132.2</ele><time>2026-03-28T14:46:03.808Z</time></trkpt><trkpt lat="45.5834717" lon="10.7267933"><ele>131.6</ele><time>2026-03-28T14:46:04.807Z</time></trkpt><trkpt lat="45.5834533" lon="10.7266517"><ele>131.0</ele><time>2026-03-28T14:46:05.808Z</time></trkpt><trkpt lat="45.58343" lon="10.7265183"><ele>130.66666666666666</ele><time>2026-03-28T14:46:06.807Z</time></trkpt><trkpt lat="45.58341" lon="10.7263917"><ele>130.33333333333331</ele><time>2026-03-28T14:46:07.807Z</time></trkpt><trkpt lat="45.5833933" lon="10.7262633"><ele>130.0</ele><time>2026-03-28T14:46:08.807Z</time></trkpt><trkpt lat="45.583375" lon="10.72615"><ele>129.66666666666666</ele><time>2026-03-28T14:46:09.807Z</time></trkpt><trkpt lat="45.5833583" lon="10.726045"><ele>129.33333333333334</ele><time>2026-03-28T14:46:10.807Z</time></trkpt><trkpt lat="45.58334" lon="10.725945"><ele>129.0</ele><time>2026-03-28T14:46:11.808Z</time></trkpt><trkpt lat="45.5833067" lon="10.725855"><ele>128.8</ele><time>2026-03-28T14:46:12.808Z</time></trkpt><trkpt lat="45.583265" lon="10.7257733"><ele>128.60000000000002</ele><time>2026-03-28T14:46:13.808Z</time></trkpt><trkpt lat="45.5832017" lon="10.72565"><ele>128.4</ele><time>2026-03-28T14:46:15.808Z</time></trkpt><trkpt lat="45.5831567" lon="10.72555"><ele>128.20000000000002</ele><time>2026-03-28T14:46:17.807Z</time></trkpt><trkpt lat="45.5832083" lon="10.7254583"><ele>128.0</ele><time>2026-03-28T14:46:20.807Z</time></trkpt><trkpt lat="45.5833183" lon="10.72543"><ele>127.99999999999999</ele><time>2026-03-28T14:46:22.807Z</time></trkpt><trkpt lat="45.5833917" lon="10.7254117"><ele>128.0</ele><time>2026-03-28T14:46:23.807Z</time></trkpt><trkpt lat="45.5834717" lon="10.7253783"><ele>128.0</ele><time>2026-03-28T14:46:24.807Z</time></trkpt><trkpt lat="45.5835417" lon="10.72531"><ele>128.0</ele><time>2026-03-28T14:46:25.808Z</time></trkpt><trkpt lat="45.5835917" lon="10.7252133"><ele>127.99999999999999</ele><time>2026-03-28T14:46:26.807Z</time></trkpt><trkpt lat="45.5836283" lon="10.7250917"><ele>128.0</ele><time>2026-03-28T14:46:27.808Z</time></trkpt><trkpt lat="45.58366" lon="10.7249333"><ele>128.5</ele><time>2026-03-28T14:46:28.808Z</time></trkpt><trkpt lat="45.5837" lon="10.7247617"><ele>129.0</ele><time>2026-03-28T14:46:29.807Z</time></trkpt><trkpt lat="45.5837467" lon="10.7246083"><ele>129.5</ele><time>2026-03-28T14:46:30.808Z</time></trkpt><trkpt lat="45.5838" lon="10.7244717"><ele>130.0</ele><time>2026-03-28T14:46:31.807Z</time></trkpt><trkpt lat="45.5838733" lon="10.7243467"><ele>130.25</ele><time>2026-03-28T14:46:32.807Z</time></trkpt><trkpt lat="45.583945" lon="10.724225"><ele>130.5</ele><time>2026-03-28T14:46:33.808Z</time></trkpt><trkpt lat="45.584035" lon="10.7241167"><ele>130.75</ele><time>2026-03-28T14:46:34.807Z</time></trkpt><trkpt lat="45.5841183" lon="10.7239983"><ele>131.0</ele><time>2026-03-28T14:46:35.808Z</time></trkpt><trkpt lat="45.584195" lon="10.7238833"><ele>131.0</ele><time>2026-03-28T14:46:36.808Z</time></trkpt><trkpt lat="45.5842717" lon="10.7237617"><ele>131.0</ele><time>2026-03-28T14:46:37.807Z</time></trkpt><trkpt lat="45.5843617" lon="10.7236717"><ele>131.0</ele><time>2026-03-28T14:46:38.808Z</time></trkpt><trkpt lat="45.5844433" lon="10.7236033"><ele>131.0</ele><time>2026-03-28T14:46:39.807Z</time></trkpt><trkpt lat="45.584535" lon="10.72356"><ele>131.0</ele><time>2026-03-28T14:46:40.808Z</time></trkpt><trkpt lat="45.584615" lon="10.7235367"><ele>134.0</ele><time>2026-03-28T14:46:41.807Z</time></trkpt><trkpt lat="45.584695" lon="10.7235483"><ele>137.0</ele><time>2026-03-28T14:46:42.807Z</time></trkpt><trkpt lat="45.58474" lon="10.7236317"><ele>140.0</ele><time>2026-03-28T14:46:43.808Z</time></trkpt><trkpt lat="45.584775" lon="10.7237433"><ele>143.0</ele><time>2026-03-28T14:46:44.807Z</time></trkpt><trkpt lat="45.5848317" lon="10.7238567"><ele>146.0</ele><time>2026-03-28T14:46:45.808Z</time></trkpt><trkpt lat="45.5848983" lon="10.7239567"><ele>149.0</ele><time>2026-03-28T14:46:46.808Z</time></trkpt><trkpt lat="45.584985" lon="10.7240467"><ele>149.0</ele><time>2026-03-28T14:46:47.807Z</time></trkpt><trkpt lat="45.5850783" lon="10.72409"><ele>149.0</ele><time>2026-03-28T14:46:48.807Z</time></trkpt><trkpt lat="45.5851767" lon="10.7240933"><ele>149.0</ele><time>2026-03-28T14:46:49.808Z</time></trkpt><trkpt lat="45.585285" lon="10.7240767"><ele>149.0</ele><time>2026-03-28T14:46:50.807Z</time></trkpt><trkpt lat="45.585385" lon="10.7240967"><ele>149.0</ele><time>2026-03-28T14:46:51.807Z</time></trkpt><trkpt lat="45.585475" lon="10.7241433"><ele>150.0</ele><time>2026-03-28T14:46:52.806Z</time></trkpt><trkpt lat="45.58556" lon="10.7242083"><ele>151.0</ele><time>2026-03-28T14:46:53.807Z</time></trkpt><trkpt lat="45.5856383" lon="10.7242817"><ele>152.0</ele><time>2026-03-28T14:46:54.806Z</time></trkpt><trkpt lat="45.58571" lon="10.7243483"><ele>153.0</ele><time>2026-03-28T14:46:55.807Z</time></trkpt><trkpt lat="45.5857867" lon="10.7243867"><ele>154.0</ele><time>2026-03-28T14:46:56.807Z</time></trkpt><trkpt lat="45.5858633" lon="10.72442"><ele>155.0</ele><time>2026-03-28T14:46:57.807Z</time></trkpt><trkpt lat="45.585935" lon="10.724455"><ele>155.0</ele><time>2026-03-28T14:46:58.806Z</time></trkpt><trkpt lat="45.5860017" lon="10.7245067"><ele>155.0</ele><time>2026-03-28T14:46:59.806Z</time></trkpt><trkpt lat="45.5860683" lon="10.7245817"><ele>155.0</ele><time>2026-03-28T14:47:00.806Z</time></trkpt><trkpt lat="45.5861417" lon="10.7246733"><ele>155.0</ele><time>2026-03-28T14:47:01.806Z</time></trkpt><trkpt lat="45.5862317" lon="10.7247433"><ele>155.0</ele><time>2026-03-28T14:47:02.806Z</time></trkpt><trkpt lat="45.586335" lon="10.7248"><ele>161.25</ele><time>2026-03-28T14:47:03.807Z</time></trkpt><trkpt lat="45.5864467" lon="10.7248533"><ele>167.5</ele><time>2026-03-28T14:47:04.807Z</time></trkpt><trkpt lat="45.5865633" lon="10.7249083"><ele>173.75</ele><time>2026-03-28T14:47:05.807Z</time></trkpt><trkpt lat="45.5866833" lon="10.7249567"><ele>180.0</ele><time>2026-03-28T14:47:06.806Z</time></trkpt><trkpt lat="45.5867833" lon="10.725005"><ele>180.0</ele><time>2026-03-28T14:47:07.806Z</time></trkpt><trkpt lat="45.58686" lon="10.725045"><ele>180.0</ele><time>2026-03-28T14:47:08.806Z</time></trkpt><trkpt lat="45.58695" lon="10.7250817"><ele>180.0</ele><time>2026-03-28T14:47:10.806Z</time></trkpt><trkpt lat="45.5870367" lon="10.7251217"><ele>180.0</ele><time>2026-03-28T14:47:12.807Z</time></trkpt><trkpt lat="45.587095" lon="10.725045"><ele>180.0</ele><time>2026-03-28T14:47:14.806Z</time></trkpt><trkpt lat="45.58713" lon="10.7248833"><ele>184.2</ele><time>2026-03-28T14:47:16.807Z</time></trkpt><trkpt lat="45.5871467" lon="10.7247617"><ele>188.4</ele><time>2026-03-28T14:47:17.806Z</time></trkpt><trkpt lat="45.5871533" lon="10.7246233"><ele>192.60000000000002</ele><time>2026-03-28T14:47:18.806Z</time></trkpt><trkpt lat="45.5871717" lon="10.72449"><ele>196.8</ele><time>2026-03-28T14:47:19.807Z</time></trkpt><trkpt lat="45.58719" lon="10.724345"><ele>201.0</ele><time>2026-03-28T14:47:20.806Z</time></trkpt><trkpt lat="45.5872183" lon="10.7241983"><ele>201.0</ele><time>2026-03-28T14:47:21.807Z</time></trkpt><trkpt lat="45.5872383" lon="10.72405"><ele>201.0</ele><time>2026-03-28T14:47:22.807Z</time></trkpt><trkpt lat="45.5872483" lon="10.7239033"><ele>201.0</ele><time>2026-03-28T14:47:23.807Z</time></trkpt><trkpt lat="45.5872533" lon="10.7237567"><ele>201.0</ele><time>2026-03-28T14:47:24.807Z</time></trkpt><trkpt lat="45.5872683" lon="10.7236083"><ele>201.0</ele><time>2026-03-28T14:47:25.807Z</time></trkpt><trkpt lat="45.5872683" lon="10.7234617"><ele>200.8</ele><time>2026-03-28T14:47:26.806Z</time></trkpt><trkpt lat="45.5872617" lon="10.723315"><ele>200.60000000000002</ele><time>2026-03-28T14:47:27.806Z</time></trkpt><trkpt lat="45.5872533" lon="10.723175"><ele>200.4</ele><time>2026-03-28T14:47:28.806Z</time></trkpt><trkpt lat="45.5872483" lon="10.7230483"><ele>200.2</ele><time>2026-03-28T14:47:29.807Z</time></trkpt><trkpt lat="45.587245" lon="10.7229317"><ele>200.0</ele><time>2026-03-28T14:47:30.806Z</time></trkpt><trkpt lat="45.5872383" lon="10.722815"><ele>200.00000000000003</ele><time>2026-03-28T14:47:31.806Z</time></trkpt><trkpt lat="45.5872167" lon="10.7226933"><ele>200.0</ele><time>2026-03-28T14:47:32.806Z</time></trkpt><trkpt lat="45.5872" lon="10.7225683"><ele>200.0</ele><time>2026-03-28T14:47:33.807Z</time></trkpt><trkpt lat="45.5871767" lon="10.72245"><ele>200.0</ele><time>2026-03-28T14:47:34.807Z</time></trkpt><trkpt lat="45.587145" lon="10.7223467"><ele>200.00000000000003</ele><time>2026-03-28T14:47:35.806Z</time></trkpt><trkpt lat="45.587105" lon="10.722255"><ele>200.0</ele><time>2026-03-28T14:47:36.807Z</time></trkpt><trkpt lat="45.5869933" lon="10.7221967"><ele>196.16666666666669</ele><time>2026-03-28T14:47:38.806Z</time></trkpt><trkpt lat="45.5869217" lon="10.722215"><ele>192.33333333333334</ele><time>2026-03-28T14:47:39.807Z</time></trkpt><trkpt lat="45.5868483" lon="10.7222267"><ele>188.5</ele><time>2026-03-28T14:47:40.806Z</time></trkpt><trkpt lat="45.5867733" lon="10.72224"><ele>184.66666666666669</ele><time>2026-03-28T14:47:41.806Z</time></trkpt><trkpt lat="45.586695" lon="10.72227"><ele>180.83333333333334</ele><time>2026-03-28T14:47:42.806Z</time></trkpt><trkpt lat="45.58663" lon="10.7222783"><ele>177.0</ele><time>2026-03-28T14:47:43.807Z</time></trkpt><trkpt lat="45.58656" lon="10.72221"><ele>177.0</ele><time>2026-03-28T14:47:45.807Z</time></trkpt><trkpt lat="45.5865183" lon="10.7220433"><ele>177.0</ele><time>2026-03-28T14:47:47.807Z</time></trkpt><trkpt lat="45.5864967" lon="10.7219317"><ele>177.0</ele><time>2026-03-28T14:47:48.806Z</time></trkpt><trkpt lat="45.5864817" lon="10.7217883"><ele>177.0</ele><time>2026-03-28T14:47:49.806Z</time></trkpt><trkpt lat="45.5864683" lon="10.72163"><ele>177.0</ele><time>2026-03-28T14:47:50.807Z</time></trkpt><trkpt lat="45.586465" lon="10.7214717"><ele>177.39999999999998</ele><time>2026-03-28T14:47:51.806Z</time></trkpt><trkpt lat="45.5864533" lon="10.7213167"><ele>177.79999999999998</ele><time>2026-03-28T14:47:52.807Z</time></trkpt><trkpt lat="45.58644" lon="10.72117"><ele>178.2</ele><time>2026-03-28T14:47:53.806Z</time></trkpt><trkpt lat="45.5864233" lon="10.72103"><ele>178.6</ele><time>2026-03-28T14:47:54.807Z</time></trkpt><trkpt lat="45.58641" lon="10.7208917"><ele>179.0</ele><time>2026-03-28T14:47:55.807Z</time></trkpt><trkpt lat="45.5863967" lon="10.7207517"><ele>179.6</ele><time>2026-03-28T14:47:56.806Z</time></trkpt><trkpt lat="45.5863933" lon="10.7206133"><ele>180.2</ele><time>2026-03-28T14:47:57.807Z</time></trkpt><trkpt lat="45.5863917" lon="10.7204767"><ele>180.79999999999998</ele><time>2026-03-28T14:47:58.806Z</time></trkpt><trkpt lat="45.5863833" lon="10.720335"><ele>181.39999999999998</ele><time>2026-03-28T14:47:59.807Z</time></trkpt><trkpt lat="45.5863783" lon="10.72019"><ele>182.0</ele><time>2026-03-28T14:48:00.806Z</time></trkpt><trkpt lat="45.5863767" lon="10.7200467"><ele>182.39999999999998</ele><time>2026-03-28T14:48:01.806Z</time></trkpt><trkpt lat="45.586375" lon="10.7199067"><ele>182.79999999999998</ele><time>2026-03-28T14:48:02.807Z</time></trkpt><trkpt lat="45.586375" lon="10.7197617"><ele>183.2</ele><time>2026-03-28T14:48:03.806Z</time></trkpt><trkpt lat="45.5863683" lon="10.71963"><ele>183.6</ele><time>2026-03-28T14:48:04.806Z</time></trkpt><trkpt lat="45.5863617" lon="10.7195067"><ele>184.0</ele><time>2026-03-28T14:48:05.807Z</time></trkpt><trkpt lat="45.586355" lon="10.7193883"><ele>184.39999999999998</ele><time>2026-03-28T14:48:06.806Z</time></trkpt><trkpt lat="45.5863283" lon="10.71925"><ele>184.8</ele><time>2026-03-28T14:48:08.806Z</time></trkpt><trkpt lat="45.5862283" lon="10.7192133"><ele>185.2</ele><time>2026-03-28T14:48:10.807Z</time></trkpt><trkpt lat="45.5861333" lon="10.7192133"><ele>185.60000000000002</ele><time>2026-03-28T14:48:11.807Z</time></trkpt><trkpt lat="45.5860083" lon="10.7192317"><ele>186.0</ele><time>2026-03-28T14:48:12.806Z</time></trkpt><trkpt lat="45.58587" lon="10.7192433"><ele>183.4</ele><time>2026-03-28T14:48:13.806Z</time></trkpt><trkpt lat="45.58574" lon="10.719235"><ele>180.8</ele><time>2026-03-28T14:48:14.807Z</time></trkpt><trkpt lat="45.5856283" lon="10.71919"><ele>178.20000000000002</ele><time>2026-03-28T14:48:15.807Z</time></trkpt><trkpt lat="45.5855333" lon="10.7191033"><ele>175.60000000000002</ele><time>2026-03-28T14:48:16.807Z</time></trkpt><trkpt lat="45.585485" lon="10.7190133"><ele>173.0</ele><time>2026-03-28T14:48:17.806Z</time></trkpt><trkpt lat="45.5854417" lon="10.71884"><ele>173.0</ele><time>2026-03-28T14:48:19.806Z</time></trkpt><trkpt lat="45.5853567" lon="10.7187017"><ele>173.0</ele><time>2026-03-28T14:48:21.807Z</time></trkpt><trkpt lat="45.5852333" lon="10.7186817"><ele>173.0</ele><time>2026-03-28T14:48:23.807Z</time></trkpt><trkpt lat="45.5851667" lon="10.7187117"><ele>173.0</ele><time>2026-03-28T14:48:24.806Z</time></trkpt><trkpt lat="45.5850617" lon="10.7187433"><ele>173.0</ele><time>2026-03-28T14:48:25.806Z</time></trkpt><trkpt lat="45.5849583" lon="10.7187533"><ele>170.25</ele><time>2026-03-28T14:48:26.807Z</time></trkpt><trkpt lat="45.5848533" lon="10.7187217"><ele>167.5</ele><time>2026-03-28T14:48:27.806Z</time></trkpt><trkpt lat="45.58475" lon="10.71862"><ele>164.75</ele><time>2026-03-28T14:48:28.806Z</time></trkpt><trkpt lat="45.5846533" lon="10.7184833"><ele>162.0</ele><time>2026-03-28T14:48:29.806Z</time></trkpt><trkpt lat="45.584555" lon="10.7183083"><ele>154.0</ele><time>2026-03-28T14:48:30.807Z</time></trkpt><trkpt lat="45.58447" lon="10.7181117"><ele>146.0</ele><time>2026-03-28T14:48:31.806Z</time></trkpt><trkpt lat="45.584385" lon="10.7179117"><ele>138.0</ele><time>2026-03-28T14:48:32.806Z</time></trkpt><trkpt lat="45.5843" lon="10.717725"><ele>138.0</ele><time>2026-03-28T14:48:33.807Z</time></trkpt><trkpt lat="45.5842183" lon="10.7175433"><ele>138.0</ele><time>2026-03-28T14:48:34.806Z</time></trkpt><trkpt lat="45.584135" lon="10.71737"><ele>138.0</ele><time>2026-03-28T14:48:35.807Z</time></trkpt><trkpt lat="45.5840667" lon="10.717185"><ele>138.0</ele><time>2026-03-28T14:48:36.806Z</time></trkpt><trkpt lat="45.5840033" lon="10.7170033"><ele>137.6</ele><time>2026-03-28T14:48:37.807Z</time></trkpt><trkpt lat="45.5839367" lon="10.71682"><ele>137.20000000000002</ele><time>2026-03-28T14:48:38.807Z</time></trkpt><trkpt lat="45.5838867" lon="10.716665"><ele>136.8</ele><time>2026-03-28T14:48:39.806Z</time></trkpt><trkpt lat="45.5838367" lon="10.71656"><ele>136.4</ele><time>2026-03-28T14:48:40.807Z</time></trkpt><trkpt lat="45.58377" lon="10.7164983"><ele>136.0</ele><time>2026-03-28T14:48:41.806Z</time></trkpt><trkpt lat="45.5836683" lon="10.7164917"><ele>130.75</ele><time>2026-03-28T14:48:42.806Z</time></trkpt><trkpt lat="45.5835467" lon="10.7165333"><ele>125.5</ele><time>2026-03-28T14:48:43.807Z</time></trkpt><trkpt lat="45.5834067" lon="10.7165817"><ele>120.25</ele><time>2026-03-28T14:48:44.806Z</time></trkpt><trkpt lat="45.5832417" lon="10.7166233"><ele>115.0</ele><time>2026-03-28T14:48:45.806Z</time></trkpt><trkpt lat="45.5830717" lon="10.7166383"><ele>115.0</ele><time>2026-03-28T14:48:46.807Z</time></trkpt><trkpt lat="45.5829017" lon="10.7166433"><ele>115.0</ele><time>2026-03-28T14:48:47.807Z</time></trkpt><trkpt lat="45.582735" lon="10.7166333"><ele>115.0</ele><time>2026-03-28T14:48:48.807Z</time></trkpt><trkpt lat="45.5825733" lon="10.7166333"><ele>112.75</ele><time>2026-03-28T14:48:49.806Z</time></trkpt><trkpt lat="45.5824333" lon="10.7166283"><ele>110.5</ele><time>2026-03-28T14:48:50.807Z</time></trkpt><trkpt lat="45.5823017" lon="10.7166033"><ele>108.25</ele><time>2026-03-28T14:48:51.807Z</time></trkpt><trkpt lat="45.58216" lon="10.7165683"><ele>106.0</ele><time>2026-03-28T14:48:52.806Z</time></trkpt><trkpt lat="45.5820083" lon="10.716565"><ele>104.66666666666667</ele><time>2026-03-28T14:48:53.807Z</time></trkpt><trkpt lat="45.581855" lon="10.7165783"><ele>103.33333333333334</ele><time>2026-03-28T14:48:54.807Z</time></trkpt><trkpt lat="45.5817033" lon="10.7166117"><ele>102.0</ele><time>2026-03-28T14:48:55.806Z</time></trkpt><trkpt lat="45.5815433" lon="10.716645"><ele>102.0</ele><time>2026-03-28T14:48:56.806Z</time></trkpt><trkpt lat="45.5813933" lon="10.7166917"><ele>102.0</ele><time>2026-03-28T14:48:57.807Z</time></trkpt><trkpt lat="45.58124" lon="10.7166883"><ele>102.0</ele><time>2026-03-28T14:48:58.806Z</time></trkpt><trkpt lat="45.581095" lon="10.7166417"><ele>100.25</ele><time>2026-03-28T14:48:59.806Z</time></trkpt><trkpt lat="45.5809533" lon="10.7165883"><ele>98.5</ele><time>2026-03-28T14:49:00.807Z</time></trkpt><trkpt lat="45.5807983" lon="10.7165817"><ele>96.75</ele><time>2026-03-28T14:49:01.806Z</time></trkpt><trkpt lat="45.5806617" lon="10.7166233"><ele>95.0</ele><time>2026-03-28T14:49:02.806Z</time></trkpt><trkpt lat="45.5805433" lon="10.7166683"><ele>95.0</ele><time>2026-03-28T14:49:03.806Z</time></trkpt><trkpt lat="45.5804367" lon="10.7166933"><ele>95.0</ele><time>2026-03-28T14:49:04.806Z</time></trkpt><trkpt lat="45.5803517" lon="10.71668"><ele>95.0</ele><time>2026-03-28T14:49:05.806Z</time></trkpt><trkpt lat="45.5802783" lon="10.7165817"><ele>95.0</ele><time>2026-03-28T14:49:07.807Z</time></trkpt><trkpt lat="45.5802783" lon="10.7164733"><ele>95.0</ele><time>2026-03-28T14:49:08.806Z</time></trkpt><trkpt lat="45.5802817" lon="10.716345"><ele>94.5</ele><time>2026-03-28T14:49:09.806Z</time></trkpt><trkpt lat="45.58029" lon="10.71618"><ele>94.0</ele><time>2026-03-28T14:49:10.807Z</time></trkpt><trkpt lat="45.5803" lon="10.7159917"><ele>93.5</ele><time>2026-03-28T14:49:11.806Z</time></trkpt><trkpt lat="45.580305" lon="10.7157883"><ele>93.0</ele><time>2026-03-28T14:49:12.806Z</time></trkpt><trkpt lat="45.580305" lon="10.7155817"><ele>92.5</ele><time>2026-03-28T14:49:13.807Z</time></trkpt><trkpt lat="45.5802833" lon="10.71538"><ele>92.0</ele><time>2026-03-28T14:49:14.806Z</time></trkpt><trkpt lat="45.5802533" lon="10.7151833"><ele>91.5</ele><time>2026-03-28T14:49:15.807Z</time></trkpt><trkpt lat="45.5802283" lon="10.71499"><ele>91.0</ele><time>2026-03-28T14:49:16.806Z</time></trkpt><trkpt lat="45.580205" lon="10.714795"><ele>90.75</ele><time>2026-03-28T14:49:17.806Z</time></trkpt><trkpt lat="45.58018" lon="10.7146083"><ele>90.5</ele><time>2026-03-28T14:49:18.806Z</time></trkpt><trkpt lat="45.580155" lon="10.7144233"><ele>90.25</ele><time>2026-03-28T14:49:19.806Z</time></trkpt><trkpt lat="45.5801233" lon="10.7142383"><ele>90.0</ele><time>2026-03-28T14:49:20.807Z</time></trkpt><trkpt lat="45.5800767" lon="10.7140517"><ele>90.5</ele><time>2026-03-28T14:49:21.806Z</time></trkpt><trkpt lat="45.58003" lon="10.713865"><ele>91.0</ele><time>2026-03-28T14:49:22.807Z</time></trkpt><trkpt lat="45.5799783" lon="10.7136583"><ele>91.5</ele><time>2026-03-28T14:49:23.806Z</time></trkpt><trkpt lat="45.579935" lon="10.713455"><ele>92.0</ele><time>2026-03-28T14:49:24.807Z</time></trkpt><trkpt lat="45.5799083" lon="10.7132417"><ele>92.25</ele><time>2026-03-28T14:49:25.806Z</time></trkpt><trkpt lat="45.57988" lon="10.713035"><ele>92.5</ele><time>2026-03-28T14:49:26.807Z</time></trkpt><trkpt lat="45.5798467" lon="10.712835"><ele>92.75</ele><time>2026-03-28T14:49:27.806Z</time></trkpt><trkpt lat="45.57981" lon="10.7126433"><ele>93.0</ele><time>2026-03-28T14:49:28.807Z</time></trkpt><trkpt lat="45.5797767" lon="10.7124633"><ele>93.75</ele><time>2026-03-28T14:49:29.806Z</time></trkpt><trkpt lat="45.5797383" lon="10.71229"><ele>94.5</ele><time>2026-03-28T14:49:30.806Z</time></trkpt><trkpt lat="45.5797117" lon="10.7121133"><ele>95.25</ele><time>2026-03-28T14:49:31.806Z</time></trkpt><trkpt lat="45.5796883" lon="10.711935"><ele>96.0</ele><time>2026-03-28T14:49:32.807Z</time></trkpt><trkpt lat="45.5796533" lon="10.7117517"><ele>96.75</ele><time>2026-03-28T14:49:33.806Z</time></trkpt><trkpt lat="45.5796283" lon="10.7115717"><ele>97.5</ele><time>2026-03-28T14:49:34.806Z</time></trkpt><trkpt lat="45.5796083" lon="10.7113733"><ele>98.25</ele><time>2026-03-28T14:49:35.806Z</time></trkpt><trkpt lat="45.5795967" lon="10.71119"><ele>99.0</ele><time>2026-03-28T14:49:36.807Z</time></trkpt><trkpt lat="45.5795733" lon="10.711"><ele>99.75</ele><time>2026-03-28T14:49:37.806Z</time></trkpt><trkpt lat="45.5795383" lon="10.7108267"><ele>100.5</ele><time>2026-03-28T14:49:38.806Z</time></trkpt><trkpt lat="45.579505" lon="10.7106517"><ele>101.25</ele><time>2026-03-28T14:49:39.807Z</time></trkpt><trkpt lat="45.579465" lon="10.7104733"><ele>102.0</ele><time>2026-03-28T14:49:40.806Z</time></trkpt><trkpt lat="45.5794233" lon="10.7102833"><ele>100.39999999999999</ele><time>2026-03-28T14:49:41.807Z</time></trkpt><trkpt lat="45.5793667" lon="10.7101167"><ele>98.8</ele><time>2026-03-28T14:49:42.806Z</time></trkpt><trkpt lat="45.579335" lon="10.7099783"><ele>97.2</ele><time>2026-03-28T14:49:43.807Z</time></trkpt><trkpt lat="45.5792867" lon="10.70986"><ele>95.6</ele><time>2026-03-28T14:49:44.807Z</time></trkpt><trkpt lat="45.5792317" lon="10.7097683"><ele>94.0</ele><time>2026-03-28T14:49:45.806Z</time></trkpt><trkpt lat="45.5791783" lon="10.7096967"><ele>94.0</ele><time>2026-03-28T14:49:46.806Z</time></trkpt><trkpt lat="45.5791483" lon="10.709575"><ele>94.0</ele><time>2026-03-28T14:49:48.806Z</time></trkpt><trkpt lat="45.579215" lon="10.7095667"><ele>94.0</ele><time>2026-03-28T14:49:50.806Z</time></trkpt><trkpt lat="45.579275" lon="10.70961"><ele>94.0</ele><time>2026-03-28T14:49:51.806Z</time></trkpt><trkpt lat="45.57936" lon="10.70965"><ele>94.0</ele><time>2026-03-28T14:49:52.807Z</time></trkpt><trkpt lat="45.5794683" lon="10.7096867"><ele>94.0</ele><time>2026-03-28T14:49:53.806Z</time></trkpt><trkpt lat="45.57959" lon="10.7097283"><ele>96.0</ele><time>2026-03-28T14:49:54.807Z</time></trkpt><trkpt lat="45.579725" lon="10.709755"><ele>98.0</ele><time>2026-03-28T14:49:55.807Z</time></trkpt><trkpt lat="45.579875" lon="10.7097633"><ele>100.0</ele><time>2026-03-28T14:49:56.806Z</time></trkpt><trkpt lat="45.5800333" lon="10.7097767"><ele>102.0</ele><time>2026-03-28T14:49:57.806Z</time></trkpt><trkpt lat="45.58018" lon="10.7098033"><ele>102.0</ele><time>2026-03-28T14:49:58.806Z</time></trkpt><trkpt lat="45.58033" lon="10.7098417"><ele>102.0</ele><time>2026-03-28T14:49:59.806Z</time></trkpt><trkpt lat="45.5804767" lon="10.7098883"><ele>102.0</ele><time>2026-03-28T14:50:00.807Z</time></trkpt><trkpt lat="45.5806083" lon="10.7099517"><ele>102.0</ele><time>2026-03-28T14:50:01.806Z</time></trkpt><trkpt lat="45.58073" lon="10.71005"><ele>103.75</ele><time>2026-03-28T14:50:02.807Z</time></trkpt><trkpt lat="45.5808483" lon="10.7101233"><ele>105.5</ele><time>2026-03-28T14:50:03.806Z</time></trkpt><trkpt lat="45.58096" lon="10.7101883"><ele>107.25</ele><time>2026-03-28T14:50:04.807Z</time></trkpt><trkpt lat="45.5810783" lon="10.7102333"><ele>109.0</ele><time>2026-03-28T14:50:05.807Z</time></trkpt><trkpt lat="45.5812017" lon="10.7102517"><ele>111.5</ele><time>2026-03-28T14:50:06.806Z</time></trkpt><trkpt lat="45.58134" lon="10.71026"><ele>114.0</ele><time>2026-03-28T14:50:07.807Z</time></trkpt><trkpt lat="45.581495" lon="10.7102733"><ele>116.5</ele><time>2026-03-28T14:50:08.806Z</time></trkpt><trkpt lat="45.5816483" lon="10.7103067"><ele>119.0</ele><time>2026-03-28T14:50:09.807Z</time></trkpt><trkpt lat="45.5818083" lon="10.7103467"><ele>119.0</ele><time>2026-03-28T14:50:10.807Z</time></trkpt><trkpt lat="45.5819833" lon="10.71039"><ele>119.0</ele><time>2026-03-28T14:50:11.807Z</time></trkpt><trkpt lat="45.5821467" lon="10.710425"><ele>119.0</ele><time>2026-03-28T14:50:12.806Z</time></trkpt><trkpt lat="45.5823233" lon="10.71047"><ele>122.33333333333333</ele><time>2026-03-28T14:50:13.807Z</time></trkpt><trkpt lat="45.5825167" lon="10.7104983"><ele>125.66666666666666</ele><time>2026-03-28T14:50:14.806Z</time></trkpt><trkpt lat="45.5827083" lon="10.7104917"><ele>129.0</ele><time>2026-03-28T14:50:15.807Z</time></trkpt><trkpt lat="45.5829167" lon="10.7104667"><ele>132.66666666666666</ele><time>2026-03-28T14:50:16.807Z</time></trkpt><trkpt lat="45.5831233" lon="10.7104183"><ele>136.33333333333331</ele><time>2026-03-28T14:50:17.806Z</time></trkpt><trkpt lat="45.5833267" lon="10.71037"><ele>140.0</ele><time>2026-03-28T14:50:18.806Z</time></trkpt><trkpt lat="45.5835233" lon="10.710335"><ele>143.33333333333331</ele><time>2026-03-28T14:50:19.806Z</time></trkpt><trkpt lat="45.583725" lon="10.7103167"><ele>146.66666666666666</ele><time>2026-03-28T14:50:20.806Z</time></trkpt><trkpt lat="45.58393" lon="10.7103467"><ele>150.0</ele><time>2026-03-28T14:50:21.807Z</time></trkpt><trkpt lat="45.5841317" lon="10.7104033"><ele>150.0</ele><time>2026-03-28T14:50:22.806Z</time></trkpt><trkpt lat="45.5843367" lon="10.71045"><ele>150.0</ele><time>2026-03-28T14:50:23.806Z</time></trkpt><trkpt lat="45.58454" lon="10.7105117"><ele>150.0</ele><time>2026-03-28T14:50:24.807Z</time></trkpt><trkpt lat="45.58475" lon="10.710575"><ele>154.66666666666666</ele><time>2026-03-28T14:50:25.806Z</time></trkpt><trkpt lat="45.584965" lon="10.7106267"><ele>159.33333333333331</ele><time>2026-03-28T14:50:26.807Z</time></trkpt><trkpt lat="45.585175" lon="10.7106383"><ele>164.0</ele><time>2026-03-28T14:50:27.806Z</time></trkpt><trkpt lat="45.5853717" lon="10.7106167"><ele>170.0</ele><time>2026-03-28T14:50:28.807Z</time></trkpt><trkpt lat="45.5855583" lon="10.7105433"><ele>176.0</ele><time>2026-03-28T14:50:29.806Z</time></trkpt><trkpt lat="45.5857317" lon="10.7104683"><ele>182.0</ele><time>2026-03-28T14:50:30.806Z</time></trkpt><trkpt lat="45.5859217" lon="10.7104067"><ele>182.0</ele><time>2026-03-28T14:50:31.806Z</time></trkpt><trkpt lat="45.5861017" lon="10.710395"><ele>182.0</ele><time>2026-03-28T14:50:32.806Z</time></trkpt><trkpt lat="45.586285" lon="10.7104167"><ele>182.0</ele><time>2026-03-28T14:50:33.806Z</time></trkpt><trkpt lat="45.5864667" lon="10.7104583"><ele>189.0</ele><time>2026-03-28T14:50:34.807Z</time></trkpt><trkpt lat="45.58664" lon="10.7104433"><ele>196.0</ele><time>2026-03-28T14:50:35.807Z</time></trkpt><trkpt lat="45.5868217" lon="10.7103817"><ele>203.0</ele><time>2026-03-28T14:50:36.806Z</time></trkpt><trkpt lat="45.58698" lon="10.7102983"><ele>203.4</ele><time>2026-03-28T14:50:37.806Z</time></trkpt><trkpt lat="45.587115" lon="10.7102133"><ele>203.8</ele><time>2026-03-28T14:50:38.806Z</time></trkpt><trkpt lat="45.5872117" lon="10.7101783"><ele>204.2</ele><time>2026-03-28T14:50:39.807Z</time></trkpt><trkpt lat="45.587275" lon="10.710235"><ele>204.6</ele><time>2026-03-28T14:50:41.806Z</time></trkpt><trkpt lat="45.5872317" lon="10.7103733"><ele>205.0</ele><time>2026-03-28T14:50:43.807Z</time></trkpt><trkpt lat="45.58718" lon="10.7104583"><ele>204.6</ele><time>2026-03-28T14:50:44.806Z</time></trkpt><trkpt lat="45.5871133" lon="10.71056"><ele>204.2</ele><time>2026-03-28T14:50:45.806Z</time></trkpt><trkpt lat="45.5870517" lon="10.7106567"><ele>203.8</ele><time>2026-03-28T14:50:46.807Z</time></trkpt><trkpt lat="45.5869983" lon="10.710765"><ele>203.4</ele><time>2026-03-28T14:50:47.807Z</time></trkpt><trkpt lat="45.586945" lon="10.7108617"><ele>203.0</ele><time>2026-03-28T14:50:48.807Z</time></trkpt><trkpt lat="45.5868833" lon="10.7109467"><ele>203.00000000000003</ele><time>2026-03-28T14:50:49.806Z</time></trkpt><trkpt lat="45.5868117" lon="10.7110167"><ele>203.0</ele><time>2026-03-28T14:50:50.806Z</time></trkpt><trkpt lat="45.58673" lon="10.7111"><ele>203.0</ele><time>2026-03-28T14:50:51.806Z</time></trkpt><trkpt lat="45.58666" lon="10.7111767"><ele>203.0</ele><time>2026-03-28T14:50:52.807Z</time></trkpt><trkpt lat="45.5866233" lon="10.711255"><ele>203.00000000000003</ele><time>2026-03-28T14:50:53.807Z</time></trkpt><trkpt lat="45.586625" lon="10.7113667"><ele>203.0</ele><time>2026-03-28T14:50:54.806Z</time></trkpt><trkpt lat="45.58666" lon="10.7114867"><ele>203.5</ele><time>2026-03-28T14:50:55.806Z</time></trkpt><trkpt lat="45.5867167" lon="10.7116183"><ele>204.0</ele><time>2026-03-28T14:50:56.806Z</time></trkpt><trkpt lat="45.586795" lon="10.7117517"><ele>204.5</ele><time>2026-03-28T14:50:57.807Z</time></trkpt><trkpt lat="45.5868733" lon="10.7119"><ele>205.0</ele><time>2026-03-28T14:50:58.807Z</time></trkpt><trkpt lat="45.586955" lon="10.7120483"><ele>214.33333333333331</ele><time>2026-03-28T14:50:59.806Z</time></trkpt><trkpt lat="45.5870533" lon="10.71221"><ele>223.66666666666669</ele><time>2026-03-28T14:51:00.806Z</time></trkpt><trkpt lat="45.5871383" lon="10.712375"><ele>233.0</ele><time>2026-03-28T14:51:01.807Z</time></trkpt><trkpt lat="45.5872283" lon="10.7125583"><ele>231.66666666666669</ele><time>2026-03-28T14:51:02.806Z</time></trkpt><trkpt lat="45.58729" lon="10.7127567"><ele>230.33333333333331</ele><time>2026-03-28T14:51:03.806Z</time></trkpt><trkpt lat="45.587355" lon="10.712975"><ele>229.0</ele><time>2026-03-28T14:51:04.806Z</time></trkpt><trkpt lat="45.5874133" lon="10.7131917"><ele>229.0</ele><time>2026-03-28T14:51:05.806Z</time></trkpt><trkpt lat="45.5874683" lon="10.7134233"><ele>229.0</ele><time>2026-03-28T14:51:06.806Z</time></trkpt><trkpt lat="45.58752" lon="10.7136717"><ele>229.0</ele><time>2026-03-28T14:51:07.807Z</time></trkpt><trkpt lat="45.58758" lon="10.7138917"><ele>229.25</ele><time>2026-03-28T14:51:08.806Z</time></trkpt><trkpt lat="45.5876267" lon="10.7140717"><ele>229.5</ele><time>2026-03-28T14:51:09.806Z</time></trkpt><trkpt lat="45.5876933" lon="10.7142"><ele>229.75</ele><time>2026-03-28T14:51:10.806Z</time></trkpt><trkpt lat="45.58777" lon="10.7143133"><ele>230.0</ele><time>2026-03-28T14:51:11.807Z</time></trkpt><trkpt lat="45.5878367" lon="10.7144433"><ele>234.5</ele><time>2026-03-28T14:51:12.807Z</time></trkpt><trkpt lat="45.58789" lon="10.7145867"><ele>239.0</ele><time>2026-03-28T14:51:13.806Z</time></trkpt><trkpt lat="45.5879483" lon="10.7147467"><ele>243.5</ele><time>2026-03-28T14:51:14.807Z</time></trkpt><trkpt lat="45.5880233" lon="10.7148983"><ele>248.0</ele><time>2026-03-28T14:51:15.806Z</time></trkpt><trkpt lat="45.58812" lon="10.715035"><ele>248.0</ele><time>2026-03-28T14:51:16.807Z</time></trkpt><trkpt lat="45.5882167" lon="10.7151683"><ele>248.0</ele><time>2026-03-28T14:51:17.806Z</time></trkpt><trkpt lat="45.588305" lon="10.71532"><ele>248.0</ele><time>2026-03-28T14:51:18.807Z</time></trkpt><trkpt lat="45.5883633" lon="10.71549"><ele>248.0</ele><time>2026-03-28T14:51:19.806Z</time></trkpt><trkpt lat="45.5884133" lon="10.7156933"><ele>247.25</ele><time>2026-03-28T14:51:20.807Z</time></trkpt><trkpt lat="45.5884533" lon="10.7158917"><ele>246.5</ele><time>2026-03-28T14:51:21.807Z</time></trkpt><trkpt lat="45.5884983" lon="10.7160867"><ele>245.75</ele><time>2026-03-28T14:51:22.806Z</time></trkpt><trkpt lat="45.5885517" lon="10.71626"><ele>245.0</ele><time>2026-03-28T14:51:23.807Z</time></trkpt><trkpt lat="45.5886117" lon="10.71642"><ele>246.0</ele><time>2026-03-28T14:51:24.806Z</time></trkpt><trkpt lat="45.588685" lon="10.7165583"><ele>247.0</ele><time>2026-03-28T14:51:25.807Z</time></trkpt><trkpt lat="45.58876" lon="10.7166433"><ele>248.0</ele><time>2026-03-28T14:51:26.807Z</time></trkpt><trkpt lat="45.5888083" lon="10.7167233"><ele>249.0</ele><time>2026-03-28T14:51:27.806Z</time></trkpt><trkpt lat="45.588845" lon="10.7168183"><ele>250.0</ele><time>2026-03-28T14:51:28.806Z</time></trkpt><trkpt lat="45.58889" lon="10.716965"><ele>250.0</ele><time>2026-03-28T14:51:30.806Z</time></trkpt><trkpt lat="45.58892" lon="10.7170533"><ele>250.0</ele><time>2026-03-28T14:51:31.807Z</time></trkpt><trkpt lat="45.58895" lon="10.717165"><ele>250.0</ele><time>2026-03-28T14:51:32.806Z</time></trkpt><trkpt lat="45.5889917" lon="10.71731"><ele>250.0</ele><time>2026-03-28T14:51:33.807Z</time></trkpt><trkpt lat="45.589045" lon="10.7174633"><ele>250.0</ele><time>2026-03-28T14:51:34.806Z</time></trkpt><trkpt lat="45.5890867" lon="10.7175933"><ele>250.0</ele><time>2026-03-28T14:51:35.806Z</time></trkpt><trkpt lat="45.589145" lon="10.7176667"><ele>250.0</ele><time>2026-03-28T14:51:36.807Z</time></trkpt><trkpt lat="45.5892167" lon="10.7177317"><ele>250.0</ele><time>2026-03-28T14:51:37.806Z</time></trkpt><trkpt lat="45.5893133" lon="10.7177633"><ele>250.0</ele><time>2026-03-28T14:51:38.807Z</time></trkpt><trkpt lat="45.5894233" lon="10.7177667"><ele>250.0</ele><time>2026-03-28T14:51:39.807Z</time></trkpt><trkpt lat="45.589565" lon="10.7177483"><ele>254.0</ele><time>2026-03-28T14:51:40.807Z</time></trkpt><trkpt lat="45.5897183" lon="10.7177067"><ele>258.0</ele><time>2026-03-28T14:51:41.807Z</time></trkpt><trkpt lat="45.5898767" lon="10.7176717"><ele>262.0</ele><time>2026-03-28T14:51:42.807Z</time></trkpt><trkpt lat="45.5900233" lon="10.7176333"><ele>262.0</ele><time>2026-03-28T14:51:43.806Z</time></trkpt><trkpt lat="45.5901267" lon="10.7176467"><ele>262.0</ele><time>2026-03-28T14:51:44.807Z</time></trkpt><trkpt lat="45.590195" lon="10.7177433"><ele>262.0</ele><time>2026-03-28T14:51:45.807Z</time></trkpt><trkpt lat="45.5902733" lon="10.7178817"><ele>262.0</ele><time>2026-03-28T14:51:46.806Z</time></trkpt><trkpt lat="45.5903567" lon="10.7180517"><ele>262.25</ele><time>2026-03-28T14:51:47.807Z</time></trkpt><trkpt lat="45.5904367" lon="10.718225"><ele>262.5</ele><time>2026-03-28T14:51:48.806Z</time></trkpt><trkpt lat="45.5905033" lon="10.7183983"><ele>262.75</ele><time>2026-03-28T14:51:49.807Z</time></trkpt><trkpt lat="45.5905517" lon="10.7185567"><ele>263.0</ele><time>2026-03-28T14:51:50.807Z</time></trkpt><trkpt lat="45.5905917" lon="10.7186767"><ele>262.6666666666667</ele><time>2026-03-28T14:51:51.806Z</time></trkpt><trkpt lat="45.5906317" lon="10.7187733"><ele>262.33333333333337</ele><time>2026-03-28T14:51:52.807Z</time></trkpt><trkpt lat="45.5906817" lon="10.7188783"><ele>262.0</ele><time>2026-03-28T14:51:53.806Z</time></trkpt><trkpt lat="45.5907467" lon="10.718975"><ele>261.6666666666667</ele><time>2026-03-28T14:51:54.806Z</time></trkpt><trkpt lat="45.5908183" lon="10.7190583"><ele>261.3333333333333</ele><time>2026-03-28T14:51:55.806Z</time></trkpt><trkpt lat="45.5909017" lon="10.7191117"><ele>261.0</ele><time>2026-03-28T14:51:56.806Z</time></trkpt><trkpt lat="45.59099" lon="10.7191683"><ele>261.0</ele><time>2026-03-28T14:51:57.805Z</time></trkpt><trkpt lat="45.5910733" lon="10.7192183"><ele>261.0</ele><time>2026-03-28T14:51:58.806Z</time></trkpt><trkpt lat="45.5911517" lon="10.7192767"><ele>261.0</ele><time>2026-03-28T14:51:59.806Z</time></trkpt><trkpt lat="45.5912233" lon="10.7193383"><ele>261.0</ele><time>2026-03-28T14:52:00.806Z</time></trkpt><trkpt lat="45.5913" lon="10.7194183"><ele>261.0</ele><time>2026-03-28T14:52:01.805Z</time></trkpt><trkpt lat="45.591375" lon="10.7195033"><ele>261.0</ele><time>2026-03-28T14:52:02.805Z</time></trkpt><trkpt lat="45.59145" lon="10.7195967"><ele>261.0</ele><time>2026-03-28T14:52:03.806Z</time></trkpt><trkpt lat="45.5915283" lon="10.7196983"><ele>261.0</ele><time>2026-03-28T14:52:04.806Z</time></trkpt><trkpt lat="45.5916117" lon="10.7198067"><ele>261.0</ele><time>2026-03-28T14:52:05.806Z</time></trkpt><trkpt lat="45.591695" lon="10.7199133"><ele>261.0</ele><time>2026-03-28T14:52:06.806Z</time></trkpt><trkpt lat="45.5917833" lon="10.7200217"><ele>261.0</ele><time>2026-03-28T14:52:07.805Z</time></trkpt><trkpt lat="45.5918667" lon="10.7201333"><ele>261.0</ele><time>2026-03-28T14:52:08.806Z</time></trkpt><trkpt lat="45.5919367" lon="10.7202317"><ele>261.0</ele><time>2026-03-28T14:52:09.806Z</time></trkpt><trkpt lat="45.5920133" lon="10.7203233"><ele>261.0</ele><time>2026-03-28T14:52:10.805Z</time></trkpt><trkpt lat="45.5920917" lon="10.7204083"><ele>261.0</ele><time>2026-03-28T14:52:11.805Z</time></trkpt><trkpt lat="45.592165" lon="10.7204983"><ele>261.40000000000003</ele><time>2026-03-28T14:52:12.806Z</time></trkpt><trkpt lat="45.5922367" lon="10.7205833"><ele>261.8</ele><time>2026-03-28T14:52:13.806Z</time></trkpt><trkpt lat="45.5923183" lon="10.7206783"><ele>262.20000000000005</ele><time>2026-03-28T14:52:14.805Z</time></trkpt><trkpt lat="45.592405" lon="10.7207567"><ele>262.6</ele><time>2026-03-28T14:52:15.806Z</time></trkpt><trkpt lat="45.5924883" lon="10.72082"><ele>263.0</ele><time>2026-03-28T14:52:16.805Z</time></trkpt><trkpt lat="45.592585" lon="10.72088"><ele>263.0</ele><time>2026-03-28T14:52:17.805Z</time></trkpt><trkpt lat="45.59268" lon="10.72094"><ele>263.0</ele><time>2026-03-28T14:52:18.806Z</time></trkpt><trkpt lat="45.5927667" lon="10.72101"><ele>263.0</ele><time>2026-03-28T14:52:19.806Z</time></trkpt><trkpt lat="45.5928383" lon="10.7210917"><ele>263.0</ele><time>2026-03-28T14:52:20.805Z</time></trkpt><trkpt lat="45.5929067" lon="10.7212"><ele>263.0</ele><time>2026-03-28T14:52:21.805Z</time></trkpt><trkpt lat="45.5929717" lon="10.721325"><ele>262.75</ele><time>2026-03-28T14:52:22.805Z</time></trkpt><trkpt lat="45.5930417" lon="10.7214617"><ele>262.5</ele><time>2026-03-28T14:52:23.805Z</time></trkpt><trkpt lat="45.5931233" lon="10.721605"><ele>262.25</ele><time>2026-03-28T14:52:24.805Z</time></trkpt><trkpt lat="45.5932" lon="10.7217517"><ele>262.0</ele><time>2026-03-28T14:52:25.806Z</time></trkpt><trkpt lat="45.5932733" lon="10.721905"><ele>262.0</ele><time>2026-03-28T14:52:26.806Z</time></trkpt><trkpt lat="45.5933417" lon="10.7220617"><ele>262.0</ele><time>2026-03-28T14:52:27.805Z</time></trkpt><trkpt lat="45.59341" lon="10.7222117"><ele>262.0</ele><time>2026-03-28T14:52:28.806Z</time></trkpt><trkpt lat="45.5934867" lon="10.7223667"><ele>262.0</ele><time>2026-03-28T14:52:29.806Z</time></trkpt><trkpt lat="45.5935683" lon="10.7225217"><ele>262.0</ele><time>2026-03-28T14:52:30.806Z</time></trkpt><trkpt lat="45.593645" lon="10.7226817"><ele>262.0</ele><time>2026-03-28T14:52:31.805Z</time></trkpt><trkpt lat="45.5937367" lon="10.72285"><ele>262.0</ele><time>2026-03-28T14:52:32.806Z</time></trkpt><trkpt lat="45.5938267" lon="10.7230367"><ele>262.0</ele><time>2026-03-28T14:52:33.805Z</time></trkpt><trkpt lat="45.5939233" lon="10.723215"><ele>261.0</ele><time>2026-03-28T14:52:34.805Z</time></trkpt><trkpt lat="45.5940083" lon="10.72336"><ele>260.0</ele><time>2026-03-28T14:52:35.805Z</time></trkpt><trkpt lat="45.594105" lon="10.7234867"><ele>259.0</ele><time>2026-03-28T14:52:36.806Z</time></trkpt><trkpt lat="45.5942" lon="10.7236"><ele>258.0</ele><time>2026-03-28T14:52:37.806Z</time></trkpt><trkpt lat="45.5942883" lon="10.7236967"><ele>258.0</ele><time>2026-03-28T14:52:38.806Z</time></trkpt><trkpt lat="45.5943683" lon="10.7237583"><ele>258.0</ele><time>2026-03-28T14:52:39.805Z</time></trkpt><trkpt lat="45.594445" lon="10.7238"><ele>258.0</ele><time>2026-03-28T14:52:40.805Z</time></trkpt><trkpt lat="45.5945133" lon="10.7238283"><ele>258.0</ele><time>2026-03-28T14:52:41.806Z</time></trkpt><trkpt lat="45.59461" lon="10.7238833"><ele>258.0</ele><time>2026-03-28T14:52:43.806Z</time></trkpt><trkpt lat="45.5946283" lon="10.7239817"><ele>258.0</ele><time>2026-03-28T14:52:45.806Z</time></trkpt><trkpt lat="45.5946283" lon="10.724075"><ele>258.2</ele><time>2026-03-28T14:52:46.805Z</time></trkpt><trkpt lat="45.5946267" lon="10.724205"><ele>258.4</ele><time>2026-03-28T14:52:47.805Z</time></trkpt><trkpt lat="45.5946267" lon="10.7243567"><ele>258.59999999999997</ele><time>2026-03-28T14:52:48.806Z</time></trkpt><trkpt lat="45.5946433" lon="10.7245183"><ele>258.8</ele><time>2026-03-28T14:52:49.805Z</time></trkpt><trkpt lat="45.59467" lon="10.7247083"><ele>259.0</ele><time>2026-03-28T14:52:50.805Z</time></trkpt><trkpt lat="45.5946917" lon="10.7249067"><ele>258.0</ele><time>2026-03-28T14:52:51.805Z</time></trkpt><trkpt lat="45.594715" lon="10.72511"><ele>257.0</ele><time>2026-03-28T14:52:52.806Z</time></trkpt><trkpt lat="45.5947483" lon="10.725315"><ele>256.0</ele><time>2026-03-28T14:52:53.806Z</time></trkpt><trkpt lat="45.5947833" lon="10.7254967"><ele>255.0</ele><time>2026-03-28T14:52:54.805Z</time></trkpt><trkpt lat="45.5948083" lon="10.72568"><ele>254.4</ele><time>2026-03-28T14:52:55.805Z</time></trkpt><trkpt lat="45.5948367" lon="10.7258417"><ele>253.8</ele><time>2026-03-28T14:52:56.806Z</time></trkpt><trkpt lat="45.594865" lon="10.7259867"><ele>253.2</ele><time>2026-03-28T14:52:57.805Z</time></trkpt><trkpt lat="45.5948933" lon="10.7261367"><ele>252.6</ele><time>2026-03-28T14:52:58.805Z</time></trkpt><trkpt lat="45.59493" lon="10.7262733"><ele>252.0</ele><time>2026-03-28T14:52:59.805Z</time></trkpt><trkpt lat="45.5949733" lon="10.7264167"><ele>251.8</ele><time>2026-03-28T14:53:00.806Z</time></trkpt><trkpt lat="45.595015" lon="10.726575"><ele>251.6</ele><time>2026-03-28T14:53:01.805Z</time></trkpt><trkpt lat="45.5950533" lon="10.7267267"><ele>251.40000000000003</ele><time>2026-03-28T14:53:02.806Z</time></trkpt><trkpt lat="45.5950833" lon="10.726875"><ele>251.20000000000002</ele><time>2026-03-28T14:53:03.805Z</time></trkpt><trkpt lat="45.595105" lon="10.72702"><ele>251.0</ele><time>2026-03-28T14:53:04.805Z</time></trkpt><trkpt lat="45.5951217" lon="10.7271483"><ele>250.66666666666669</ele><time>2026-03-28T14:53:05.805Z</time></trkpt><trkpt lat="45.5951467" lon="10.727255"><ele>250.33333333333334</ele><time>2026-03-28T14:53:06.805Z</time></trkpt><trkpt lat="45.5951833" lon="10.7273567"><ele>250.0</ele><time>2026-03-28T14:53:07.806Z</time></trkpt><trkpt lat="45.5952333" lon="10.7274517"><ele>249.66666666666669</ele><time>2026-03-28T14:53:08.805Z</time></trkpt><trkpt lat="45.5952833" lon="10.72755"><ele>249.33333333333334</ele><time>2026-03-28T14:53:09.805Z</time></trkpt><trkpt lat="45.595335" lon="10.7276533"><ele>249.0</ele><time>2026-03-28T14:53:10.805Z</time></trkpt><trkpt lat="45.5953933" lon="10.7277583"><ele>249.79999999999998</ele><time>2026-03-28T14:53:11.806Z</time></trkpt><trkpt lat="45.5954533" lon="10.7278733"><ele>250.59999999999997</ele><time>2026-03-28T14:53:12.806Z</time></trkpt><trkpt lat="45.5955033" lon="10.7279967"><ele>251.4</ele><time>2026-03-28T14:53:13.806Z</time></trkpt><trkpt lat="45.5955267" lon="10.72812"><ele>252.2</ele><time>2026-03-28T14:53:14.805Z</time></trkpt><trkpt lat="45.5955217" lon="10.72825"><ele>253.0</ele><time>2026-03-28T14:53:15.805Z</time></trkpt><trkpt lat="45.595505" lon="10.7283683"><ele>253.0</ele><time>2026-03-28T14:53:16.806Z</time></trkpt><trkpt lat="45.5954833" lon="10.7284883"><ele>253.0</ele><time>2026-03-28T14:53:17.805Z</time></trkpt><trkpt lat="45.5954733" lon="10.7286083"><ele>253.0</ele><time>2026-03-28T14:53:18.806Z</time></trkpt><trkpt lat="45.59548" lon="10.7287417"><ele>253.0</ele><time>2026-03-28T14:53:19.805Z</time></trkpt><trkpt lat="45.59548" lon="10.7288733"><ele>253.0</ele><time>2026-03-28T14:53:20.806Z</time></trkpt><trkpt lat="45.5954833" lon="10.7290083"><ele>252.8</ele><time>2026-03-28T14:53:21.806Z</time></trkpt><trkpt lat="45.5954817" lon="10.729155"><ele>252.60000000000002</ele><time>2026-03-28T14:53:22.806Z</time></trkpt><trkpt lat="45.595475" lon="10.7292967"><ele>252.39999999999998</ele><time>2026-03-28T14:53:23.805Z</time></trkpt><trkpt lat="45.5954583" lon="10.7294383"><ele>252.2</ele><time>2026-03-28T14:53:24.806Z</time></trkpt><trkpt lat="45.595445" lon="10.7295733"><ele>252.0</ele><time>2026-03-28T14:53:25.805Z</time></trkpt><trkpt lat="45.59544" lon="10.7296883"><ele>252.0</ele><time>2026-03-28T14:53:26.805Z</time></trkpt><trkpt lat="45.595435" lon="10.729805"><ele>252.0</ele><time>2026-03-28T14:53:27.805Z</time></trkpt><trkpt lat="45.59544" lon="10.7299167"><ele>252.0</ele><time>2026-03-28T14:53:28.806Z</time></trkpt><trkpt lat="45.5954467" lon="10.73001"><ele>252.0</ele><time>2026-03-28T14:53:29.805Z</time></trkpt><trkpt lat="45.5954617" lon="10.7301817"><ele>252.0</ele><time>2026-03-28T14:53:31.806Z</time></trkpt><trkpt lat="45.5954783" lon="10.7303483"><ele>252.33333333333334</ele><time>2026-03-28T14:53:33.806Z</time></trkpt><trkpt lat="45.5954967" lon="10.73047"><ele>252.66666666666669</ele><time>2026-03-28T14:53:35.806Z</time></trkpt><trkpt lat="45.5955483" lon="10.730535"><ele>253.0</ele><time>2026-03-28T14:53:37.805Z</time></trkpt><trkpt lat="45.5956333" lon="10.73051"><ele>253.33333333333334</ele><time>2026-03-28T14:53:39.805Z</time></trkpt><trkpt lat="45.5956867" lon="10.7304567"><ele>253.66666666666669</ele><time>2026-03-28T14:53:40.805Z</time></trkpt><trkpt lat="45.5957533" lon="10.7304017"><ele>254.0</ele><time>2026-03-28T14:53:41.805Z</time></trkpt><trkpt lat="45.5958283" lon="10.7303483"><ele>254.00000000000003</ele><time>2026-03-28T14:53:42.805Z</time></trkpt><trkpt lat="45.5959" lon="10.730305"><ele>254.0</ele><time>2026-03-28T14:53:43.806Z</time></trkpt><trkpt lat="45.59598" lon="10.7302917"><ele>254.0</ele><time>2026-03-28T14:53:44.805Z</time></trkpt><trkpt lat="45.59606" lon="10.7302933"><ele>254.0</ele><time>2026-03-28T14:53:45.806Z</time></trkpt><trkpt lat="45.59614" lon="10.7303033"><ele>254.00000000000003</ele><time>2026-03-28T14:53:46.805Z</time></trkpt><trkpt lat="45.5962183" lon="10.7302883"><ele>254.0</ele><time>2026-03-28T14:53:47.805Z</time></trkpt><trkpt lat="45.596315" lon="10.7302583"><ele>255.6</ele><time>2026-03-28T14:53:48.805Z</time></trkpt><trkpt lat="45.5964083" lon="10.73021"><ele>257.2</ele><time>2026-03-28T14:53:49.806Z</time></trkpt><trkpt lat="45.5965067" lon="10.730155"><ele>258.79999999999995</ele><time>2026-03-28T14:53:50.806Z</time></trkpt><trkpt lat="45.5966" lon="10.7301083"><ele>260.4</ele><time>2026-03-28T14:53:51.805Z</time></trkpt><trkpt lat="45.5967" lon="10.73006"><ele>262.0</ele><time>2026-03-28T14:53:52.805Z</time></trkpt><trkpt lat="45.596795" lon="10.73003"><ele>262.0</ele><time>2026-03-28T14:53:53.806Z</time></trkpt><trkpt lat="45.5968833" lon="10.7300067"><ele>262.0</ele><time>2026-03-28T14:53:54.806Z</time></trkpt><trkpt lat="45.596965" lon="10.730005"><ele>262.0</ele><time>2026-03-28T14:53:55.806Z</time></trkpt><trkpt lat="45.5970417" lon="10.7300167"><ele>262.0</ele><time>2026-03-28T14:53:56.806Z</time></trkpt><trkpt lat="45.5971183" lon="10.7300183"><ele>262.0</ele><time>2026-03-28T14:53:57.806Z</time></trkpt><trkpt lat="45.5971983" lon="10.7300067"><ele>262.0</ele><time>2026-03-28T14:53:58.805Z</time></trkpt><trkpt lat="45.5972617" lon="10.7299883"><ele>263.3333333333333</ele><time>2026-03-28T14:53:59.805Z</time></trkpt><trkpt lat="45.5973367" lon="10.729955"><ele>264.66666666666663</ele><time>2026-03-28T14:54:00.805Z</time></trkpt><trkpt lat="45.597405" lon="10.7299117"><ele>266.0</ele><time>2026-03-28T14:54:01.806Z</time></trkpt><trkpt lat="45.5974633" lon="10.7298667"><ele>267.3333333333333</ele><time>2026-03-28T14:54:02.805Z</time></trkpt><trkpt lat="45.5975483" lon="10.72974"><ele>268.6666666666667</ele><time>2026-03-28T14:54:04.805Z</time></trkpt><trkpt lat="45.5976117" lon="10.7297"><ele>270.0</ele><time>2026-03-28T14:54:05.806Z</time></trkpt><trkpt lat="45.5976883" lon="10.7296733"><ele>270.0</ele><time>2026-03-28T14:54:06.805Z</time></trkpt><trkpt lat="45.5977783" lon="10.72965"><ele>270.0</ele><time>2026-03-28T14:54:07.805Z</time></trkpt><trkpt lat="45.5978767" lon="10.72964"><ele>270.0</ele><time>2026-03-28T14:54:08.805Z</time></trkpt><trkpt lat="45.59797" lon="10.729615"><ele>270.0</ele><time>2026-03-28T14:54:09.805Z</time></trkpt><trkpt lat="45.5980417" lon="10.7295717"><ele>270.0</ele><time>2026-03-28T14:54:10.805Z</time></trkpt><trkpt lat="45.598115" lon="10.7295233"><ele>270.0</ele><time>2026-03-28T14:54:11.806Z</time></trkpt><trkpt lat="45.5981967" lon="10.7294683"><ele>270.5</ele><time>2026-03-28T14:54:12.806Z</time></trkpt><trkpt lat="45.5982717" lon="10.729405"><ele>271.0</ele><time>2026-03-28T14:54:13.805Z</time></trkpt><trkpt lat="45.5983467" lon="10.729345"><ele>271.5</ele><time>2026-03-28T14:54:14.805Z</time></trkpt><trkpt lat="45.59842" lon="10.7292767"><ele>272.0</ele><time>2026-03-28T14:54:15.805Z</time></trkpt><trkpt lat="45.5984833" lon="10.7292167"><ele>272.5</ele><time>2026-03-28T14:54:16.806Z</time></trkpt><trkpt lat="45.598535" lon="10.729145"><ele>273.0</ele><time>2026-03-28T14:54:17.805Z</time></trkpt><trkpt lat="45.5985817" lon="10.7290617"><ele>273.4</ele><time>2026-03-28T14:54:18.805Z</time></trkpt><trkpt lat="45.5986033" lon="10.728955"><ele>273.8</ele><time>2026-03-28T14:54:19.805Z</time></trkpt><trkpt lat="45.598615" lon="10.7288283"><ele>274.2</ele><time>2026-03-28T14:54:20.805Z</time></trkpt><trkpt lat="45.5986233" lon="10.728685"><ele>274.6</ele><time>2026-03-28T14:54:21.805Z</time></trkpt><trkpt lat="45.5986367" lon="10.7285417"><ele>275.0</ele><time>2026-03-28T14:54:22.805Z</time></trkpt><trkpt lat="45.59865" lon="10.7284183"><ele>275.1666666666667</ele><time>2026-03-28T14:54:23.805Z</time></trkpt><trkpt lat="45.5986617" lon="10.7283167"><ele>275.33333333333337</ele><time>2026-03-28T14:54:24.806Z</time></trkpt><trkpt lat="45.5986967" lon="10.728205"><ele>275.5</ele><time>2026-03-28T14:54:26.805Z</time></trkpt><trkpt lat="45.59879" lon="10.7281233"><ele>275.6666666666667</ele><time>2026-03-28T14:54:28.805Z</time></trkpt><trkpt lat="45.5988583" lon="10.7280733"><ele>275.8333333333333</ele><time>2026-03-28T14:54:29.806Z</time></trkpt><trkpt lat="45.59892" lon="10.7280333"><ele>276.0</ele><time>2026-03-28T14:54:30.805Z</time></trkpt><trkpt lat="45.5989933" lon="10.7280317"><ele>277.6</ele><time>2026-03-28T14:54:32.806Z</time></trkpt><trkpt lat="45.5990333" lon="10.7281717"><ele>279.20000000000005</ele><time>2026-03-28T14:54:35.806Z</time></trkpt><trkpt lat="45.5990483" lon="10.72826"><ele>280.79999999999995</ele><time>2026-03-28T14:54:36.806Z</time></trkpt><trkpt lat="45.599075" lon="10.7283833"><ele>282.4</ele><time>2026-03-28T14:54:37.806Z</time></trkpt><trkpt lat="45.599115" lon="10.7285217"><ele>284.0</ele><time>2026-03-28T14:54:38.806Z</time></trkpt><trkpt lat="45.59917" lon="10.72866"><ele>284.25</ele><time>2026-03-28T14:54:39.806Z</time></trkpt><trkpt lat="45.5992267" lon="10.728815"><ele>284.5</ele><time>2026-03-28T14:54:40.806Z</time></trkpt><trkpt lat="45.5992833" lon="10.728965"><ele>284.75</ele><time>2026-03-28T14:54:41.805Z</time></trkpt><trkpt lat="45.599335" lon="10.729105"><ele>285.0</ele><time>2026-03-28T14:54:42.805Z</time></trkpt><trkpt lat="45.5993767" lon="10.7292333"><ele>285.0</ele><time>2026-03-28T14:54:43.805Z</time></trkpt><trkpt lat="45.5994133" lon="10.72936"><ele>285.0</ele><time>2026-03-28T14:54:44.805Z</time></trkpt><trkpt lat="45.5994367" lon="10.729495"><ele>285.0</ele><time>2026-03-28T14:54:45.805Z</time></trkpt><trkpt lat="45.5994633" lon="10.729605"><ele>285.0</ele><time>2026-03-28T14:54:46.805Z</time></trkpt><trkpt lat="45.5995017" lon="10.7296967"><ele>285.0</ele><time>2026-03-28T14:54:47.805Z</time></trkpt><trkpt lat="45.5995983" lon="10.72978"><ele>286.1666666666667</ele><time>2026-03-28T14:54:49.806Z</time></trkpt><trkpt lat="45.5996733" lon="10.7297717"><ele>287.3333333333333</ele><time>2026-03-28T14:54:50.805Z</time></trkpt><trkpt lat="45.5997467" lon="10.7297633"><ele>288.5</ele><time>2026-03-28T14:54:51.806Z</time></trkpt><trkpt lat="45.5998183" lon="10.72975"><ele>289.66666666666663</ele><time>2026-03-28T14:54:52.806Z</time></trkpt><trkpt lat="45.5999383" lon="10.7297117"><ele>290.8333333333333</ele><time>2026-03-28T14:54:54.806Z</time></trkpt><trkpt lat="45.6000033" lon="10.7296683"><ele>292.0</ele><time>2026-03-28T14:54:55.805Z</time></trkpt><trkpt lat="45.6000917" lon="10.7296067"><ele>292.0</ele><time>2026-03-28T14:54:56.805Z</time></trkpt><trkpt lat="45.6002017" lon="10.7295317"><ele>292.0</ele><time>2026-03-28T14:54:57.806Z</time></trkpt><trkpt lat="45.6003267" lon="10.72945"><ele>292.0</ele><time>2026-03-28T14:54:58.805Z</time></trkpt><trkpt lat="45.6004667" lon="10.7293783"><ele>292.0</ele><time>2026-03-28T14:54:59.805Z</time></trkpt><trkpt lat="45.60063" lon="10.72929"><ele>293.66666666666663</ele><time>2026-03-28T14:55:00.805Z</time></trkpt><trkpt lat="45.6008067" lon="10.7291817"><ele>295.3333333333333</ele><time>2026-03-28T14:55:01.806Z</time></trkpt><trkpt lat="45.60099" lon="10.7290567"><ele>297.0</ele><time>2026-03-28T14:55:02.805Z</time></trkpt><trkpt lat="45.601145" lon="10.72893"><ele>298.75</ele><time>2026-03-28T14:55:03.806Z</time></trkpt><trkpt lat="45.6012667" lon="10.7287867"><ele>300.5</ele><time>2026-03-28T14:55:04.805Z</time></trkpt><trkpt lat="45.6013683" lon="10.72866"><ele>302.25</ele><time>2026-03-28T14:55:05.806Z</time></trkpt><trkpt lat="45.6014567" lon="10.7285417"><ele>304.0</ele><time>2026-03-28T14:55:06.805Z</time></trkpt><trkpt lat="45.6015567" lon="10.7284667"><ele>304.0</ele><time>2026-03-28T14:55:07.806Z</time></trkpt><trkpt lat="45.60168" lon="10.7284183"><ele>304.0</ele><time>2026-03-28T14:55:08.806Z</time></trkpt><trkpt lat="45.60183" lon="10.7283733"><ele>304.0</ele><time>2026-03-28T14:55:09.806Z</time></trkpt><trkpt lat="45.60199" lon="10.728325"><ele>304.0</ele><time>2026-03-28T14:55:10.806Z</time></trkpt><trkpt lat="45.602155" lon="10.7282583"><ele>306.0</ele><time>2026-03-28T14:55:11.806Z</time></trkpt><trkpt lat="45.6023117" lon="10.728175"><ele>308.0</ele><time>2026-03-28T14:55:12.806Z</time></trkpt><trkpt lat="45.6024733" lon="10.7280967"><ele>310.0</ele><time>2026-03-28T14:55:13.805Z</time></trkpt><trkpt lat="45.60262" lon="10.72801"><ele>310.0</ele><time>2026-03-28T14:55:14.806Z</time></trkpt><trkpt lat="45.60278" lon="10.7279217"><ele>310.0</ele><time>2026-03-28T14:55:15.806Z</time></trkpt><trkpt lat="45.6029417" lon="10.7278433"><ele>310.0</ele><time>2026-03-28T14:55:16.806Z</time></trkpt><trkpt lat="45.603105" lon="10.7277567"><ele>309.66666666666663</ele><time>2026-03-28T14:55:17.806Z</time></trkpt><trkpt lat="45.6032633" lon="10.7276767"><ele>309.3333333333333</ele><time>2026-03-28T14:55:18.805Z</time></trkpt><trkpt lat="45.603425" lon="10.7276167"><ele>309.0</ele><time>2026-03-28T14:55:19.805Z</time></trkpt><trkpt lat="45.6035933" lon="10.7275567"><ele>310.6666666666667</ele><time>2026-03-28T14:55:20.805Z</time></trkpt><trkpt lat="45.6037417" lon="10.7274917"><ele>312.33333333333337</ele><time>2026-03-28T14:55:21.806Z</time></trkpt><trkpt lat="45.603915" lon="10.727435"><ele>314.0</ele><time>2026-03-28T14:55:22.806Z</time></trkpt><trkpt lat="45.6040817" lon="10.727385"><ele>314.0</ele><time>2026-03-28T14:55:23.805Z</time></trkpt><trkpt lat="45.6042383" lon="10.727335"><ele>314.0</ele><time>2026-03-28T14:55:24.806Z</time></trkpt><trkpt lat="45.60439" lon="10.72729"><ele>314.0</ele><time>2026-03-28T14:55:25.805Z</time></trkpt><trkpt lat="45.6045283" lon="10.7272633"><ele>314.0</ele><time>2026-03-28T14:55:26.805Z</time></trkpt><trkpt lat="45.60465" lon="10.72725"><ele>314.0</ele><time>2026-03-28T14:55:27.806Z</time></trkpt><trkpt lat="45.6047733" lon="10.7272367"><ele>314.0</ele><time>2026-03-28T14:55:28.805Z</time></trkpt><trkpt lat="45.6049117" lon="10.7272517"><ele>314.0</ele><time>2026-03-28T14:55:29.805Z</time></trkpt><trkpt lat="45.6050483" lon="10.7272617"><ele>314.0</ele><time>2026-03-28T14:55:30.805Z</time></trkpt><trkpt lat="45.605185" lon="10.72727"><ele>314.0</ele><time>2026-03-28T14:55:31.805Z</time></trkpt><trkpt lat="45.6053267" lon="10.7273067"><ele>314.0</ele><time>2026-03-28T14:55:32.805Z</time></trkpt><trkpt lat="45.6054733" lon="10.727335"><ele>314.0</ele><time>2026-03-28T14:55:33.805Z</time></trkpt><trkpt lat="45.6056083" lon="10.7273533"><ele>313.75</ele><time>2026-03-28T14:55:34.806Z</time></trkpt><trkpt lat="45.6057333" lon="10.727355"><ele>313.5</ele><time>2026-03-28T14:55:35.805Z</time></trkpt><trkpt lat="45.60586" lon="10.727335"><ele>313.25</ele><time>2026-03-28T14:55:36.805Z</time></trkpt><trkpt lat="45.6059683" lon="10.727295"><ele>313.0</ele><time>2026-03-28T14:55:37.806Z</time></trkpt><trkpt lat="45.6060667" lon="10.7272417"><ele>313.0</ele><time>2026-03-28T14:55:38.806Z</time></trkpt><trkpt lat="45.6061467" lon="10.7271717"><ele>313.0</ele><time>2026-03-28T14:55:39.806Z</time></trkpt><trkpt lat="45.6062117" lon="10.727115"><ele>313.0</ele><time>2026-03-28T14:55:40.806Z</time></trkpt><trkpt lat="45.6062733" lon="10.7270717"><ele>313.0</ele><time>2026-03-28T14:55:41.805Z</time></trkpt><trkpt lat="45.606335" lon="10.7270367"><ele>313.0</ele><time>2026-03-28T14:55:42.805Z</time></trkpt><trkpt lat="45.60643" lon="10.726995"><ele>313.0</ele><time>2026-03-28T14:55:44.806Z</time></trkpt><trkpt lat="45.6065" lon="10.7269683"><ele>313.6</ele><time>2026-03-28T14:55:46.805Z</time></trkpt><trkpt lat="45.606565" lon="10.7269467"><ele>314.20000000000005</ele><time>2026-03-28T14:55:50.805Z</time></trkpt><trkpt lat="45.6066283" lon="10.7269617"><ele>314.8</ele><time>2026-03-28T14:55:59.806Z</time></trkpt><trkpt lat="45.6066467" lon="10.727175"><ele>315.40000000000003</ele><time>2026-03-28T14:56:03.805Z</time></trkpt><trkpt lat="45.6066383" lon="10.7272883"><ele>316.0</ele><time>2026-03-28T14:56:04.805Z</time></trkpt><trkpt lat="45.6065933" lon="10.727445"><ele>316.0</ele><time>2026-03-28T14:56:05.806Z</time></trkpt><trkpt lat="45.606555" lon="10.7275967"><ele>316.0</ele><time>2026-03-28T14:56:06.805Z</time></trkpt><trkpt lat="45.6065167" lon="10.72774"><ele>316.0</ele><time>2026-03-28T14:56:07.806Z</time></trkpt><trkpt lat="45.6064633" lon="10.72786"><ele>316.0</ele><time>2026-03-28T14:56:08.805Z</time></trkpt><trkpt lat="45.606425" lon="10.7279667"><ele>316.0</ele><time>2026-03-28T14:56:09.806Z</time></trkpt><trkpt lat="45.606385" lon="10.7280533"><ele>314.8</ele><time>2026-03-28T14:56:10.805Z</time></trkpt><trkpt lat="45.60635" lon="10.7281867"><ele>313.6</ele><time>2026-03-28T14:56:12.805Z</time></trkpt><trkpt lat="45.60632" lon="10.7282717"><ele>312.4</ele><time>2026-03-28T14:56:14.806Z</time></trkpt><trkpt lat="45.60639" lon="10.728055"><ele>311.2</ele><time>2026-03-28T14:58:04.804Z</time></trkpt><trkpt lat="45.6064217" lon="10.727935"><ele>310.0</ele><time>2026-03-28T14:58:05.804Z</time></trkpt><trkpt lat="45.60646" lon="10.72781"><ele>311.2</ele><time>2026-03-28T14:58:06.805Z</time></trkpt><trkpt lat="45.6065033" lon="10.72768"><ele>312.4</ele><time>2026-03-28T14:58:07.804Z</time></trkpt><trkpt lat="45.60654" lon="10.7275383"><ele>313.6</ele><time>2026-03-28T14:58:08.804Z</time></trkpt><trkpt lat="45.6065733" lon="10.7274083"><ele>314.8</ele><time>2026-03-28T14:58:09.805Z</time></trkpt><trkpt lat="45.6066067" lon="10.7272833"><ele>316.0</ele><time>2026-03-28T14:58:10.805Z</time></trkpt><trkpt lat="45.6066333" lon="10.7271583"><ele>316.0</ele><time>2026-03-28T14:58:11.805Z</time></trkpt><trkpt lat="45.6066567" lon="10.7270683"><ele>316.0</ele><time>2026-03-28T14:58:12.805Z</time></trkpt><trkpt lat="45.6066833" lon="10.726945"><ele>316.0</ele><time>2026-03-28T14:58:14.804Z</time></trkpt><trkpt lat="45.6067017" lon="10.7268467"><ele>316.0</ele><time>2026-03-28T14:58:17.804Z</time></trkpt><trkpt lat="45.60666" lon="10.7267733"><ele>316.0</ele><time>2026-03-28T14:58:22.805Z</time></trkpt><trkpt lat="45.6065917" lon="10.7268733"><ele>316.0</ele><time>2026-03-28T15:16:33.801Z</time></trkpt><trkpt lat="45.6065867" lon="10.7269717"><ele>316.0</ele><time>2026-03-28T15:16:56.801Z</time></trkpt><trkpt lat="45.6066033" lon="10.7271033"><ele>316.0</ele><time>2026-03-28T15:17:00.8Z</time></trkpt><trkpt lat="45.606585" lon="10.7272517"><ele>316.0</ele><time>2026-03-28T15:17:02.801Z</time></trkpt><trkpt lat="45.6065533" lon="10.7273367"><ele>316.0</ele><time>2026-03-28T15:17:03.8Z</time></trkpt><trkpt lat="45.6065333" lon="10.7274383"><ele>316.0</ele><time>2026-03-28T15:17:04.801Z</time></trkpt><trkpt lat="45.6065067" lon="10.72752"><ele>316.0</ele><time>2026-03-28T15:17:05.801Z</time></trkpt><trkpt lat="45.606475" lon="10.7276067"><ele>314.8</ele><time>2026-03-28T15:17:06.801Z</time></trkpt><trkpt lat="45.606435" lon="10.7277533"><ele>313.6</ele><time>2026-03-28T15:17:08.8Z</time></trkpt><trkpt lat="45.606405" lon="10.7278583"><ele>312.4</ele><time>2026-03-28T15:17:10.8Z</time></trkpt><trkpt lat="45.6063633" lon="10.7279833"><ele>311.2</ele><time>2026-03-28T15:17:13.8Z</time></trkpt><trkpt lat="45.6063433" lon="10.7280783"><ele>310.0</ele><time>2026-03-28T15:17:15.8Z</time></trkpt><trkpt lat="45.6063183" lon="10.7282167"><ele>310.0</ele><time>2026-03-28T15:17:17.8Z</time></trkpt><trkpt lat="45.606325" lon="10.72834"><ele>310.0</ele><time>2026-03-28T15:17:19.8Z</time></trkpt><trkpt lat="45.60636" lon="10.72844"><ele>310.0</ele><time>2026-03-28T15:17:21.801Z</time></trkpt><trkpt lat="45.6064" lon="10.7285267"><ele>310.0</ele><time>2026-03-28T15:17:23.801Z</time></trkpt><trkpt lat="45.6064333" lon="10.7286267"><ele>310.0</ele><time>2026-03-28T15:17:25.801Z</time></trkpt><trkpt lat="45.6064717" lon="10.7287567"><ele>310.0</ele><time>2026-03-28T15:17:27.8Z</time></trkpt><trkpt lat="45.6065267" lon="10.7288917"><ele>309.66666666666663</ele><time>2026-03-28T15:17:29.801Z</time></trkpt><trkpt lat="45.6065617" lon="10.72901"><ele>309.3333333333333</ele><time>2026-03-28T15:17:31.801Z</time></trkpt><trkpt lat="45.6065867" lon="10.7290933"><ele>309.0</ele><time>2026-03-28T15:17:33.8Z</time></trkpt><trkpt lat="45.6066267" lon="10.729175"><ele>308.6666666666667</ele><time>2026-03-28T15:17:35.801Z</time></trkpt><trkpt lat="45.6066667" lon="10.7292733"><ele>308.33333333333337</ele><time>2026-03-28T15:17:37.8Z</time></trkpt><trkpt lat="45.606695" lon="10.7294017"><ele>308.0</ele><time>2026-03-28T15:17:39.8Z</time></trkpt><trkpt lat="45.6067133" lon="10.7295217"><ele>307.1666666666667</ele><time>2026-03-28T15:17:41.801Z</time></trkpt><trkpt lat="45.60671" lon="10.729635"><ele>306.33333333333337</ele><time>2026-03-28T15:17:43.8Z</time></trkpt><trkpt lat="45.6067183" lon="10.7297517"><ele>305.5</ele><time>2026-03-28T15:17:45.801Z</time></trkpt><trkpt lat="45.6067167" lon="10.72986"><ele>304.6666666666667</ele><time>2026-03-28T15:17:47.801Z</time></trkpt><trkpt lat="45.6067217" lon="10.7299867"><ele>303.8333333333333</ele><time>2026-03-28T15:17:49.801Z</time></trkpt><trkpt lat="45.606725" lon="10.7300917"><ele>303.0</ele><time>2026-03-28T15:17:50.8Z</time></trkpt><trkpt lat="45.6067333" lon="10.73021"><ele>301.75</ele><time>2026-03-28T15:17:51.8Z</time></trkpt><trkpt lat="45.6067383" lon="10.730345"><ele>300.5</ele><time>2026-03-28T15:17:52.8Z</time></trkpt><trkpt lat="45.6067433" lon="10.7305017"><ele>299.25</ele><time>2026-03-28T15:17:53.8Z</time></trkpt><trkpt lat="45.606745" lon="10.7306833"><ele>298.0</ele><time>2026-03-28T15:17:54.8Z</time></trkpt><trkpt lat="45.606745" lon="10.7308833"><ele>297.25</ele><time>2026-03-28T15:17:55.8Z</time></trkpt><trkpt lat="45.6067533" lon="10.731095"><ele>296.5</ele><time>2026-03-28T15:17:56.801Z</time></trkpt><trkpt lat="45.6067583" lon="10.731305"><ele>295.75</ele><time>2026-03-28T15:17:57.801Z</time></trkpt><trkpt lat="45.60676" lon="10.731505"><ele>295.0</ele><time>2026-03-28T15:17:58.8Z</time></trkpt><trkpt lat="45.6067683" lon="10.7317117"><ele>295.0</ele><time>2026-03-28T15:17:59.801Z</time></trkpt><trkpt lat="45.6067683" lon="10.7319367"><ele>295.0</ele><time>2026-03-28T15:18:00.8Z</time></trkpt><trkpt lat="45.606755" lon="10.73214"><ele>295.0</ele><time>2026-03-28T15:18:01.8Z</time></trkpt><trkpt lat="45.6067267" lon="10.7323283"><ele>295.0</ele><time>2026-03-28T15:18:02.8Z</time></trkpt><trkpt lat="45.6066767" lon="10.7325"><ele>295.0</ele><time>2026-03-28T15:18:03.8Z</time></trkpt><trkpt lat="45.6066233" lon="10.732645"><ele>295.0</ele><time>2026-03-28T15:18:04.8Z</time></trkpt><trkpt lat="45.606565" lon="10.7327733"><ele>295.0</ele><time>2026-03-28T15:18:05.801Z</time></trkpt><trkpt lat="45.6065017" lon="10.7328967"><ele>295.0</ele><time>2026-03-28T15:18:06.8Z</time></trkpt><trkpt lat="45.6064533" lon="10.733005"><ele>295.0</ele><time>2026-03-28T15:18:07.801Z</time></trkpt><trkpt lat="45.6063983" lon="10.7331033"><ele>295.3333333333333</ele><time>2026-03-28T15:18:08.8Z</time></trkpt><trkpt lat="45.6063383" lon="10.7331983"><ele>295.66666666666663</ele><time>2026-03-28T15:18:09.801Z</time></trkpt><trkpt lat="45.6062717" lon="10.7332967"><ele>296.0</ele><time>2026-03-28T15:18:10.8Z</time></trkpt><trkpt lat="45.60621" lon="10.7333883"><ele>296.3333333333333</ele><time>2026-03-28T15:18:11.8Z</time></trkpt><trkpt lat="45.6061567" lon="10.733485"><ele>296.6666666666667</ele><time>2026-03-28T15:18:12.8Z</time></trkpt><trkpt lat="45.606115" lon="10.7335817"><ele>297.0</ele><time>2026-03-28T15:18:13.801Z</time></trkpt><trkpt lat="45.6060733" lon="10.733665"><ele>297.0</ele><time>2026-03-28T15:18:14.8Z</time></trkpt><trkpt lat="45.606035" lon="10.7337483"><ele>297.0</ele><time>2026-03-28T15:18:15.801Z</time></trkpt><trkpt lat="45.60599" lon="10.73383"><ele>297.0</ele><time>2026-03-28T15:18:16.801Z</time></trkpt><trkpt lat="45.6059433" lon="10.7339033"><ele>297.0</ele><time>2026-03-28T15:18:17.801Z</time></trkpt><trkpt lat="45.6058967" lon="10.7339833"><ele>297.0</ele><time>2026-03-28T15:18:18.8Z</time></trkpt><trkpt lat="45.6058233" lon="10.7341117"><ele>297.0</ele><time>2026-03-28T15:18:20.8Z</time></trkpt><trkpt lat="45.60575" lon="10.7342233"><ele>297.0</ele><time>2026-03-28T15:18:22.8Z</time></trkpt><trkpt lat="45.6057383" lon="10.7343417"><ele>297.0</ele><time>2026-03-28T15:18:30.8Z</time></trkpt><trkpt lat="45.6057983" lon="10.7343833"><ele>297.0</ele><time>2026-03-28T15:18:32.8Z</time></trkpt><trkpt lat="45.6059017" lon="10.7343783"><ele>297.0</ele><time>2026-03-28T15:18:34.801Z</time></trkpt><trkpt lat="45.6060183" lon="10.7344033"><ele>297.0</ele><time>2026-03-28T15:18:36.8Z</time></trkpt><trkpt lat="45.60611" lon="10.7343517"><ele>301.2</ele><time>2026-03-28T15:18:38.8Z</time></trkpt><trkpt lat="45.606195" lon="10.7342033"><ele>305.4</ele><time>2026-03-28T15:18:40.8Z</time></trkpt><trkpt lat="45.60625" lon="10.7341333"><ele>309.6</ele><time>2026-03-28T15:18:41.801Z</time></trkpt><trkpt lat="45.6063033" lon="10.734065"><ele>313.8</ele><time>2026-03-28T15:18:42.8Z</time></trkpt><trkpt lat="45.6063783" lon="10.734005"><ele>318.0</ele><time>2026-03-28T15:18:43.801Z</time></trkpt><trkpt lat="45.6064733" lon="10.7339533"><ele>318.0</ele><time>2026-03-28T15:18:44.801Z</time></trkpt><trkpt lat="45.60657" lon="10.7339017"><ele>318.0</ele><time>2026-03-28T15:18:45.8Z</time></trkpt><trkpt lat="45.6066667" lon="10.7338567"><ele>318.0</ele><time>2026-03-28T15:18:46.8Z</time></trkpt><trkpt lat="45.60675" lon="10.7338067"><ele>318.0</ele><time>2026-03-28T15:18:47.801Z</time></trkpt><trkpt lat="45.6068183" lon="10.733735"><ele>318.0</ele><time>2026-03-28T15:18:48.801Z</time></trkpt><trkpt lat="45.6068833" lon="10.7336433"><ele>318.2</ele><time>2026-03-28T15:18:49.801Z</time></trkpt><trkpt lat="45.6069433" lon="10.7335383"><ele>318.4</ele><time>2026-03-28T15:18:50.8Z</time></trkpt><trkpt lat="45.6069967" lon="10.73341"><ele>318.59999999999997</ele><time>2026-03-28T15:18:51.801Z</time></trkpt><trkpt lat="45.60705" lon="10.7333083"><ele>318.8</ele><time>2026-03-28T15:18:52.8Z</time></trkpt><trkpt lat="45.6070967" lon="10.7332133"><ele>319.0</ele><time>2026-03-28T15:18:53.801Z</time></trkpt><trkpt lat="45.6071533" lon="10.7331317"><ele>319.0</ele><time>2026-03-28T15:18:54.8Z</time></trkpt><trkpt lat="45.6072067" lon="10.7330617"><ele>319.0</ele><time>2026-03-28T15:18:55.801Z</time></trkpt><trkpt lat="45.6072833" lon="10.7330567"><ele>319.0</ele><time>2026-03-28T15:18:57.8Z</time></trkpt><trkpt lat="45.6073767" lon="10.733135"><ele>319.0</ele><time>2026-03-28T15:18:59.8Z</time></trkpt><trkpt lat="45.60744" lon="10.7331883"><ele>319.0</ele><time>2026-03-28T15:19:00.8Z</time></trkpt><trkpt lat="45.607505" lon="10.7332233"><ele>319.0</ele><time>2026-03-28T15:19:01.801Z</time></trkpt><trkpt lat="45.6075833" lon="10.7332283"><ele>319.0</ele><time>2026-03-28T15:19:02.801Z</time></trkpt><trkpt lat="45.60766" lon="10.7332233"><ele>319.0</ele><time>2026-03-28T15:19:03.801Z</time></trkpt><trkpt lat="45.607725" lon="10.7332217"><ele>319.0</ele><time>2026-03-28T15:19:04.801Z</time></trkpt><trkpt lat="45.6078083" lon="10.7332617"><ele>319.0</ele><time>2026-03-28T15:19:06.8Z</time></trkpt><trkpt lat="45.60786" lon="10.7333867"><ele>319.0</ele><time>2026-03-28T15:19:08.8Z</time></trkpt><trkpt lat="45.6078833" lon="10.733475"><ele>319.0</ele><time>2026-03-28T15:19:09.8Z</time></trkpt><trkpt lat="45.6079167" lon="10.7335617"><ele>323.2</ele><time>2026-03-28T15:19:10.801Z</time></trkpt><trkpt lat="45.6079317" lon="10.7337133"><ele>327.4</ele><time>2026-03-28T15:19:12.8Z</time></trkpt><trkpt lat="45.6078617" lon="10.7338233"><ele>331.6</ele><time>2026-03-28T15:19:14.8Z</time></trkpt><trkpt lat="45.6077883" lon="10.733865"><ele>335.8</ele><time>2026-03-28T15:19:15.801Z</time></trkpt><trkpt lat="45.60768" lon="10.7338883"><ele>340.0</ele><time>2026-03-28T15:19:16.8Z</time></trkpt><trkpt lat="45.6075633" lon="10.7339"><ele>340.0</ele><time>2026-03-28T15:19:17.8Z</time></trkpt><trkpt lat="45.6074383" lon="10.73392"><ele>340.0</ele><time>2026-03-28T15:19:18.8Z</time></trkpt><trkpt lat="45.6073217" lon="10.7339567"><ele>340.0</ele><time>2026-03-28T15:19:19.801Z</time></trkpt><trkpt lat="45.60722" lon="10.734"><ele>340.0</ele><time>2026-03-28T15:19:20.8Z</time></trkpt><trkpt lat="45.6071483" lon="10.7340583"><ele>340.0</ele><time>2026-03-28T15:19:21.8Z</time></trkpt><trkpt lat="45.607105" lon="10.7341267"><ele>340.0</ele><time>2026-03-28T15:19:22.801Z</time></trkpt><trkpt lat="45.60707" lon="10.7342483"><ele>340.0</ele><time>2026-03-28T15:19:24.8Z</time></trkpt><trkpt lat="45.6071317" lon="10.734285"><ele>340.0</ele><time>2026-03-28T15:19:27.801Z</time></trkpt><trkpt lat="45.60721" lon="10.7342717"><ele>340.0</ele><time>2026-03-28T15:19:30.8Z</time></trkpt><trkpt lat="45.6072983" lon="10.7342467"><ele>340.0</ele><time>2026-03-28T15:19:32.801Z</time></trkpt><trkpt lat="45.60742" lon="10.7342083"><ele>340.0</ele><time>2026-03-28T15:19:34.8Z</time></trkpt><trkpt lat="45.6074967" lon="10.73418"><ele>340.0</ele><time>2026-03-28T15:19:35.8Z</time></trkpt><trkpt lat="45.60759" lon="10.7341483"><ele>340.0</ele><time>2026-03-28T15:19:36.8Z</time></trkpt><trkpt lat="45.607695" lon="10.73412"><ele>340.0</ele><time>2026-03-28T15:19:37.801Z</time></trkpt><trkpt lat="45.6078167" lon="10.7340783"><ele>340.0</ele><time>2026-03-28T15:19:38.801Z</time></trkpt><trkpt lat="45.6079383" lon="10.73404"><ele>341.4</ele><time>2026-03-28T15:19:39.801Z</time></trkpt><trkpt lat="45.6080717" lon="10.7340217"><ele>342.8</ele><time>2026-03-28T15:19:40.801Z</time></trkpt><trkpt lat="45.60818" lon="10.7340283"><ele>344.20000000000005</ele><time>2026-03-28T15:19:41.8Z</time></trkpt><trkpt lat="45.6082817" lon="10.7340283"><ele>345.6</ele><time>2026-03-28T15:19:42.8Z</time></trkpt><trkpt lat="45.6083833" lon="10.73405"><ele>347.0</ele><time>2026-03-28T15:19:43.8Z</time></trkpt><trkpt lat="45.60848" lon="10.73404"><ele>347.0</ele><time>2026-03-28T15:19:44.801Z</time></trkpt><trkpt lat="45.6085533" lon="10.7339967"><ele>347.0</ele><time>2026-03-28T15:19:45.8Z</time></trkpt><trkpt lat="45.60862" lon="10.7339317"><ele>347.0</ele><time>2026-03-28T15:19:46.8Z</time></trkpt><trkpt lat="45.6086867" lon="10.7338617"><ele>347.0</ele><time>2026-03-28T15:19:47.799Z</time></trkpt><trkpt lat="45.6087717" lon="10.73376"><ele>347.0</ele><time>2026-03-28T15:19:48.799Z</time></trkpt><trkpt lat="45.6088667" lon="10.7336133"><ele>346.75</ele><time>2026-03-28T15:19:49.799Z</time></trkpt><trkpt lat="45.60897" lon="10.7334583"><ele>346.5</ele><time>2026-03-28T15:19:50.8Z</time></trkpt><trkpt lat="45.609075" lon="10.7333167"><ele>346.25</ele><time>2026-03-28T15:19:51.799Z</time></trkpt><trkpt lat="45.6091783" lon="10.7331867"><ele>346.0</ele><time>2026-03-28T15:19:52.799Z</time></trkpt><trkpt lat="45.6092783" lon="10.73307"><ele>346.0</ele><time>2026-03-28T15:19:53.799Z</time></trkpt><trkpt lat="45.60937" lon="10.7329483"><ele>346.0</ele><time>2026-03-28T15:19:54.8Z</time></trkpt><trkpt lat="45.6094667" lon="10.7328417"><ele>346.0</ele><time>2026-03-28T15:19:55.799Z</time></trkpt><trkpt lat="45.6095683" lon="10.7327583"><ele>346.0</ele><time>2026-03-28T15:19:56.799Z</time></trkpt><trkpt lat="45.6096617" lon="10.732685"><ele>347.0</ele><time>2026-03-28T15:19:57.799Z</time></trkpt><trkpt lat="45.6097583" lon="10.73261"><ele>348.0</ele><time>2026-03-28T15:19:58.8Z</time></trkpt><trkpt lat="45.60985" lon="10.7325617"><ele>349.0</ele><time>2026-03-28T15:19:59.8Z</time></trkpt><trkpt lat="45.6099517" lon="10.7325217"><ele>350.0</ele><time>2026-03-28T15:20:00.799Z</time></trkpt><trkpt lat="45.6100467" lon="10.7324983"><ele>351.0</ele><time>2026-03-28T15:20:01.8Z</time></trkpt><trkpt lat="45.6101417" lon="10.732485"><ele>351.0</ele><time>2026-03-28T15:20:02.8Z</time></trkpt><trkpt lat="45.6102267" lon="10.7324767"><ele>351.0</ele><time>2026-03-28T15:20:03.8Z</time></trkpt><trkpt lat="45.6103017" lon="10.7324817"><ele>351.0</ele><time>2026-03-28T15:20:04.8Z</time></trkpt><trkpt lat="45.6103783" lon="10.732495"><ele>351.0</ele><time>2026-03-28T15:20:05.8Z</time></trkpt><trkpt lat="45.6104517" lon="10.73252"><ele>351.0</ele><time>2026-03-28T15:20:06.799Z</time></trkpt><trkpt lat="45.6105267" lon="10.7325683"><ele>351.0</ele><time>2026-03-28T15:20:07.799Z</time></trkpt><trkpt lat="45.6106067" lon="10.7326167"><ele>353.5</ele><time>2026-03-28T15:20:08.799Z</time></trkpt><trkpt lat="45.61069" lon="10.73266"><ele>356.0</ele><time>2026-03-28T15:20:09.799Z</time></trkpt><trkpt lat="45.6107833" lon="10.7326983"><ele>358.5</ele><time>2026-03-28T15:20:10.8Z</time></trkpt><trkpt lat="45.6108783" lon="10.7327317"><ele>361.0</ele><time>2026-03-28T15:20:11.8Z</time></trkpt><trkpt lat="45.6109567" lon="10.73277"><ele>363.5</ele><time>2026-03-28T15:20:12.799Z</time></trkpt><trkpt lat="45.6110233" lon="10.7328133"><ele>366.0</ele><time>2026-03-28T15:20:13.8Z</time></trkpt><trkpt lat="45.6110883" lon="10.7329"><ele>368.1666666666667</ele><time>2026-03-28T15:20:15.799Z</time></trkpt><trkpt lat="45.611085" lon="10.733025"><ele>370.3333333333333</ele><time>2026-03-28T15:20:17.8Z</time></trkpt><trkpt lat="45.6110633" lon="10.7331783"><ele>372.5</ele><time>2026-03-28T15:20:19.799Z</time></trkpt><trkpt lat="45.6110633" lon="10.7332817"><ele>374.66666666666663</ele><time>2026-03-28T15:20:20.799Z</time></trkpt><trkpt lat="45.61106" lon="10.7333967"><ele>376.8333333333333</ele><time>2026-03-28T15:20:21.799Z</time></trkpt><trkpt lat="45.6110617" lon="10.7335233"><ele>379.0</ele><time>2026-03-28T15:20:22.799Z</time></trkpt><trkpt lat="45.6110667" lon="10.7336417"><ele>381.8333333333333</ele><time>2026-03-28T15:20:23.799Z</time></trkpt><trkpt lat="45.6110783" lon="10.7337667"><ele>384.66666666666663</ele><time>2026-03-28T15:20:24.799Z</time></trkpt><trkpt lat="45.611085" lon="10.7338867"><ele>387.5</ele><time>2026-03-28T15:20:25.8Z</time></trkpt><trkpt lat="45.6110833" lon="10.734"><ele>390.3333333333333</ele><time>2026-03-28T15:20:26.8Z</time></trkpt><trkpt lat="45.611085" lon="10.7341117"><ele>393.1666666666667</ele><time>2026-03-28T15:20:27.8Z</time></trkpt><trkpt lat="45.61108" lon="10.7342133"><ele>396.0</ele><time>2026-03-28T15:20:28.8Z</time></trkpt><trkpt lat="45.6110883" lon="10.7343033"><ele>400.6</ele><time>2026-03-28T15:20:29.799Z</time></trkpt><trkpt lat="45.6111183" lon="10.7344533"><ele>405.20000000000005</ele><time>2026-03-28T15:20:31.799Z</time></trkpt><trkpt lat="45.6111783" lon="10.7345733"><ele>409.79999999999995</ele><time>2026-03-28T15:20:33.8Z</time></trkpt><trkpt lat="45.61126" lon="10.7346433"><ele>414.4</ele><time>2026-03-28T15:20:35.799Z</time></trkpt><trkpt lat="45.6113467" lon="10.7346467"><ele>419.0</ele><time>2026-03-28T15:20:56.8Z</time></trkpt><trkpt lat="45.61144" lon="10.7346433"><ele>419.3333333333333</ele><time>2026-03-28T15:33:02.797Z</time></trkpt><trkpt lat="45.6115217" lon="10.7346517"><ele>419.66666666666663</ele><time>2026-03-28T15:33:07.797Z</time></trkpt><trkpt lat="45.611605" lon="10.73467"><ele>420.0</ele><time>2026-03-28T15:33:18.796Z</time></trkpt><trkpt lat="45.6116883" lon="10.7346983"><ele>420.33333333333337</ele><time>2026-03-28T15:33:20.796Z</time></trkpt><trkpt lat="45.611795" lon="10.7347617"><ele>420.6666666666667</ele><time>2026-03-28T15:33:22.797Z</time></trkpt><trkpt lat="45.6118467" lon="10.7348133"><ele>421.0</ele><time>2026-03-28T15:33:23.796Z</time></trkpt><trkpt lat="45.6119233" lon="10.7348933"><ele>421.00000000000006</ele><time>2026-03-28T15:33:25.796Z</time></trkpt><trkpt lat="45.6119867" lon="10.73495"><ele>421.0</ele><time>2026-03-28T15:33:50.796Z</time></trkpt><trkpt lat="45.6120867" lon="10.7348983"><ele>421.0</ele><time>2026-03-28T15:33:53.797Z</time></trkpt><trkpt lat="45.6121483" lon="10.73485"><ele>421.0</ele><time>2026-03-28T15:33:54.797Z</time></trkpt><trkpt lat="45.6122067" lon="10.7348083"><ele>421.00000000000006</ele><time>2026-03-28T15:33:55.797Z</time></trkpt><trkpt lat="45.61227" lon="10.7347783"><ele>421.0</ele><time>2026-03-28T15:33:56.797Z</time></trkpt><trkpt lat="45.6123617" lon="10.7347467"><ele>421.20000000000005</ele><time>2026-03-28T15:33:58.796Z</time></trkpt><trkpt lat="45.6124483" lon="10.7347667"><ele>421.40000000000003</ele><time>2026-03-28T15:34:01.797Z</time></trkpt><trkpt lat="45.6125133" lon="10.73484"><ele>421.6</ele><time>2026-03-28T15:34:03.797Z</time></trkpt><trkpt lat="45.612625" lon="10.73492"><ele>421.8</ele><time>2026-03-28T15:34:05.796Z</time></trkpt><trkpt lat="45.6126883" lon="10.73493"><ele>422.0</ele><time>2026-03-28T15:34:06.796Z</time></trkpt><trkpt lat="45.612805" lon="10.7349567"><ele>422.0</ele><time>2026-03-28T15:34:08.797Z</time></trkpt><trkpt lat="45.6128983" lon="10.7350333"><ele>422.0</ele><time>2026-03-28T15:34:10.797Z</time></trkpt><trkpt lat="45.6129833" lon="10.7351667"><ele>422.0</ele><time>2026-03-28T15:34:12.797Z</time></trkpt><trkpt lat="45.613025" lon="10.7352533"><ele>422.0</ele><time>2026-03-28T15:34:13.797Z</time></trkpt><trkpt lat="45.6130633" lon="10.735345"><ele>422.0</ele><time>2026-03-28T15:34:14.796Z</time></trkpt><trkpt lat="45.6131133" lon="10.7354383"><ele>425.99999999999994</ele><time>2026-03-28T15:34:15.796Z</time></trkpt><trkpt lat="45.6131683" lon="10.735535"><ele>430.0</ele><time>2026-03-28T15:34:16.797Z</time></trkpt><trkpt lat="45.613225" lon="10.7356367"><ele>434.0</ele><time>2026-03-28T15:34:17.796Z</time></trkpt><trkpt lat="45.6132783" lon="10.7357433"><ele>438.0</ele><time>2026-03-28T15:34:18.797Z</time></trkpt><trkpt lat="45.613335" lon="10.735835"><ele>441.99999999999994</ele><time>2026-03-28T15:34:19.796Z</time></trkpt><trkpt lat="45.61339" lon="10.7359117"><ele>446.0</ele><time>2026-03-28T15:34:20.796Z</time></trkpt><trkpt lat="45.6134533" lon="10.7359883"><ele>445.99999999999994</ele><time>2026-03-28T15:34:21.797Z</time></trkpt><trkpt lat="45.6135283" lon="10.73605"><ele>446.0</ele><time>2026-03-28T15:34:22.796Z</time></trkpt><trkpt lat="45.6136017" lon="10.7361033"><ele>446.0</ele><time>2026-03-28T15:34:23.797Z</time></trkpt><trkpt lat="45.61366" lon="10.736155"><ele>446.0</ele><time>2026-03-28T15:34:24.796Z</time></trkpt><trkpt lat="45.6137217" lon="10.7362067"><ele>445.99999999999994</ele><time>2026-03-28T15:34:25.797Z</time></trkpt><trkpt lat="45.6137783" lon="10.736265"><ele>446.0</ele><time>2026-03-28T15:34:26.796Z</time></trkpt><trkpt lat="45.61384" lon="10.7363233"><ele>448.49999999999994</ele><time>2026-03-28T15:34:27.797Z</time></trkpt><trkpt lat="45.6139133" lon="10.7363767"><ele>451.0</ele><time>2026-03-28T15:34:28.796Z</time></trkpt><trkpt lat="45.6139867" lon="10.7364083"><ele>453.5</ele><time>2026-03-28T15:34:29.796Z</time></trkpt><trkpt lat="45.61406" lon="10.7364267"><ele>456.0</ele><time>2026-03-28T15:34:30.796Z</time></trkpt><trkpt lat="45.6141283" lon="10.73642"><ele>458.49999999999994</ele><time>2026-03-28T15:34:31.797Z</time></trkpt><trkpt lat="45.614225" lon="10.73643"><ele>461.0</ele><time>2026-03-28T15:34:33.796Z</time></trkpt><trkpt lat="45.614255" lon="10.736535"><ele>460.99999999999994</ele><time>2026-03-28T15:34:35.797Z</time></trkpt><trkpt lat="45.6142283" lon="10.7366617"><ele>461.0</ele><time>2026-03-28T15:34:37.796Z</time></trkpt><trkpt lat="45.61418" lon="10.736725"><ele>461.0</ele><time>2026-03-28T15:34:39.796Z</time></trkpt><trkpt lat="45.61424" lon="10.73679"><ele>461.0</ele><time>2026-03-28T15:34:57.797Z</time></trkpt><trkpt lat="45.61432" lon="10.73678"><ele>460.99999999999994</ele><time>2026-03-28T15:34:59.796Z</time></trkpt><trkpt lat="45.6144233" lon="10.7367867"><ele>461.0</ele><time>2026-03-28T15:35:01.796Z</time></trkpt><trkpt lat="45.614535" lon="10.7367633"><ele>458.8333333333333</ele><time>2026-03-28T15:35:03.796Z</time></trkpt><trkpt lat="45.6146383" lon="10.7367083"><ele>456.66666666666663</ele><time>2026-03-28T15:35:05.797Z</time></trkpt><trkpt lat="45.614695" lon="10.73666"><ele>454.5</ele><time>2026-03-28T15:35:06.796Z</time></trkpt><trkpt lat="45.614755" lon="10.736615"><ele>452.33333333333337</ele><time>2026-03-28T15:35:07.797Z</time></trkpt><trkpt lat="45.6148183" lon="10.7365617"><ele>450.1666666666667</ele><time>2026-03-28T15:35:08.796Z</time></trkpt><trkpt lat="45.6149183" lon="10.7364617"><ele>448.0</ele><time>2026-03-28T15:35:10.797Z</time></trkpt><trkpt lat="45.6150083" lon="10.7363467"><ele>448.00000000000006</ele><time>2026-03-28T15:35:12.796Z</time></trkpt><trkpt lat="45.6150533" lon="10.7362833"><ele>448.0</ele><time>2026-03-28T15:35:13.796Z</time></trkpt><trkpt lat="45.6151417" lon="10.7361633"><ele>448.0</ele><time>2026-03-28T15:35:15.796Z</time></trkpt><trkpt lat="45.6151883" lon="10.736085"><ele>448.0</ele><time>2026-03-28T15:35:16.796Z</time></trkpt><trkpt lat="45.6152233" lon="10.7360083"><ele>448.00000000000006</ele><time>2026-03-28T15:35:17.797Z</time></trkpt><trkpt lat="45.61525" lon="10.7359167"><ele>448.0</ele><time>2026-03-28T15:35:18.796Z</time></trkpt><trkpt lat="45.6152967" lon="10.73577"><ele>444.33333333333337</ele><time>2026-03-28T15:35:20.795Z</time></trkpt><trkpt lat="45.6153867" lon="10.7357117"><ele>440.6666666666667</ele><time>2026-03-28T15:35:22.795Z</time></trkpt><trkpt lat="45.61546" lon="10.7357067"><ele>437.0</ele><time>2026-03-28T15:35:23.796Z</time></trkpt><trkpt lat="45.615525" lon="10.7356867"><ele>433.33333333333337</ele><time>2026-03-28T15:35:24.795Z</time></trkpt><trkpt lat="45.615595" lon="10.7356517"><ele>429.6666666666667</ele><time>2026-03-28T15:35:25.796Z</time></trkpt><trkpt lat="45.6156617" lon="10.7356017"><ele>426.0</ele><time>2026-03-28T15:35:26.795Z</time></trkpt><trkpt lat="45.6157217" lon="10.7355383"><ele>426.0</ele><time>2026-03-28T15:35:27.795Z</time></trkpt><trkpt lat="45.6157833" lon="10.7354617"><ele>426.0</ele><time>2026-03-28T15:35:28.795Z</time></trkpt><trkpt lat="45.6158417" lon="10.735385"><ele>426.0</ele><time>2026-03-28T15:35:29.795Z</time></trkpt><trkpt lat="45.615905" lon="10.7352917"><ele>426.0</ele><time>2026-03-28T15:35:30.795Z</time></trkpt><trkpt lat="45.6159683" lon="10.73519"><ele>426.0</ele><time>2026-03-28T15:35:31.795Z</time></trkpt><trkpt lat="45.616025" lon="10.7350917"><ele>426.0</ele><time>2026-03-28T15:35:32.796Z</time></trkpt><trkpt lat="45.6160917" lon="10.7349983"><ele>426.1666666666667</ele><time>2026-03-28T15:35:33.795Z</time></trkpt><trkpt lat="45.61616" lon="10.73491"><ele>426.33333333333337</ele><time>2026-03-28T15:35:34.795Z</time></trkpt><trkpt lat="45.6162233" lon="10.7348283"><ele>426.5</ele><time>2026-03-28T15:35:35.796Z</time></trkpt><trkpt lat="45.6162867" lon="10.734735"><ele>426.6666666666667</ele><time>2026-03-28T15:35:36.795Z</time></trkpt><trkpt lat="45.61635" lon="10.7346433"><ele>426.83333333333337</ele><time>2026-03-28T15:35:37.796Z</time></trkpt><trkpt lat="45.6164133" lon="10.73456"><ele>427.0</ele><time>2026-03-28T15:35:38.795Z</time></trkpt><trkpt lat="45.6164833" lon="10.7344767"><ele>428.0</ele><time>2026-03-28T15:35:39.796Z</time></trkpt><trkpt lat="45.6165383" lon="10.7343733"><ele>429.00000000000006</ele><time>2026-03-28T15:35:40.796Z</time></trkpt><trkpt lat="45.6165967" lon="10.7342617"><ele>430.00000000000006</ele><time>2026-03-28T15:35:41.795Z</time></trkpt><trkpt lat="45.6166383" lon="10.7341117"><ele>431.0</ele><time>2026-03-28T15:35:42.796Z</time></trkpt><trkpt lat="45.6166833" lon="10.73395"><ele>432.0</ele><time>2026-03-28T15:35:43.795Z</time></trkpt><trkpt lat="45.61672" lon="10.733805"><ele>432.0</ele><time>2026-03-28T15:35:44.796Z</time></trkpt><trkpt lat="45.616755" lon="10.73368"><ele>432.0</ele><time>2026-03-28T15:35:45.795Z</time></trkpt><trkpt lat="45.616785" lon="10.7335633"><ele>432.0</ele><time>2026-03-28T15:35:46.795Z</time></trkpt><trkpt lat="45.6168167" lon="10.7334517"><ele>432.0</ele><time>2026-03-28T15:35:47.795Z</time></trkpt><trkpt lat="45.6168583" lon="10.7333383"><ele>432.0</ele><time>2026-03-28T15:35:48.795Z</time></trkpt><trkpt lat="45.6169" lon="10.7332217"><ele>432.0</ele><time>2026-03-28T15:35:49.795Z</time></trkpt><trkpt lat="45.616935" lon="10.7330917"><ele>431.8</ele><time>2026-03-28T15:35:50.796Z</time></trkpt><trkpt lat="45.6169533" lon="10.7329583"><ele>431.6</ele><time>2026-03-28T15:35:51.795Z</time></trkpt><trkpt lat="45.616965" lon="10.732815"><ele>431.40000000000003</ele><time>2026-03-28T15:35:52.795Z</time></trkpt><trkpt lat="45.61697" lon="10.7326833"><ele>431.20000000000005</ele><time>2026-03-28T15:35:53.795Z</time></trkpt><trkpt lat="45.6169583" lon="10.7325467"><ele>431.0</ele><time>2026-03-28T15:35:54.795Z</time></trkpt><trkpt lat="45.6169433" lon="10.73241"><ele>429.4</ele><time>2026-03-28T15:35:55.796Z</time></trkpt><trkpt lat="45.61694" lon="10.732275"><ele>427.8</ele><time>2026-03-28T15:35:56.796Z</time></trkpt><trkpt lat="45.6169217" lon="10.732135"><ele>426.2</ele><time>2026-03-28T15:35:57.795Z</time></trkpt><trkpt lat="45.6168867" lon="10.73201"><ele>424.59999999999997</ele><time>2026-03-28T15:35:58.795Z</time></trkpt><trkpt lat="45.6168333" lon="10.7318667"><ele>423.0</ele><time>2026-03-28T15:35:59.796Z</time></trkpt><trkpt lat="45.6167683" lon="10.7317233"><ele>419.59999999999997</ele><time>2026-03-28T15:36:00.796Z</time></trkpt><trkpt lat="45.6167083" lon="10.7315817"><ele>416.2</ele><time>2026-03-28T15:36:01.795Z</time></trkpt><trkpt lat="45.6166467" lon="10.731445"><ele>412.8</ele><time>2026-03-28T15:36:02.795Z</time></trkpt><trkpt lat="45.6165817" lon="10.7313317"><ele>409.4</ele><time>2026-03-28T15:36:03.795Z</time></trkpt><trkpt lat="45.6165133" lon="10.7312183"><ele>406.0</ele><time>2026-03-28T15:36:04.795Z</time></trkpt><trkpt lat="45.6164367" lon="10.731135"><ele>406.00000000000006</ele><time>2026-03-28T15:36:05.795Z</time></trkpt><trkpt lat="45.616375" lon="10.7310683"><ele>406.0</ele><time>2026-03-28T15:36:06.796Z</time></trkpt><trkpt lat="45.6163017" lon="10.7309167"><ele>406.0</ele><time>2026-03-28T15:36:08.795Z</time></trkpt><trkpt lat="45.6162833" lon="10.730815"><ele>406.0</ele><time>2026-03-28T15:36:09.796Z</time></trkpt><trkpt lat="45.6162783" lon="10.7307017"><ele>406.00000000000006</ele><time>2026-03-28T15:36:10.795Z</time></trkpt><trkpt lat="45.6162833" lon="10.7305883"><ele>406.0</ele><time>2026-03-28T15:36:11.795Z</time></trkpt><trkpt lat="45.6163" lon="10.7304733"><ele>404.6666666666667</ele><time>2026-03-28T15:36:12.795Z</time></trkpt><trkpt lat="45.6163067" lon="10.7303583"><ele>403.33333333333337</ele><time>2026-03-28T15:36:13.796Z</time></trkpt><trkpt lat="45.6163183" lon="10.7302383"><ele>402.0</ele><time>2026-03-28T15:36:14.796Z</time></trkpt><trkpt lat="45.616305" lon="10.7301433"><ele>400.66666666666663</ele><time>2026-03-28T15:36:15.796Z</time></trkpt><trkpt lat="45.6162833" lon="10.7300533"><ele>399.3333333333333</ele><time>2026-03-28T15:36:16.796Z</time></trkpt><trkpt lat="45.6162517" lon="10.729955"><ele>398.0</ele><time>2026-03-28T15:36:17.795Z</time></trkpt><trkpt lat="45.6162" lon="10.7298533"><ele>393.4</ele><time>2026-03-28T15:36:18.795Z</time></trkpt><trkpt lat="45.616145" lon="10.7297667"><ele>388.79999999999995</ele><time>2026-03-28T15:36:19.796Z</time></trkpt><trkpt lat="45.6160733" lon="10.729695"><ele>384.2</ele><time>2026-03-28T15:36:20.796Z</time></trkpt><trkpt lat="45.6159917" lon="10.7296517"><ele>379.6</ele><time>2026-03-28T15:36:21.796Z</time></trkpt><trkpt lat="45.6159017" lon="10.72961"><ele>375.0</ele><time>2026-03-28T15:36:22.796Z</time></trkpt><trkpt lat="45.6157983" lon="10.7295683"><ele>375.0</ele><time>2026-03-28T15:36:23.795Z</time></trkpt><trkpt lat="45.6156967" lon="10.729545"><ele>375.0</ele><time>2026-03-28T15:36:24.796Z</time></trkpt><trkpt lat="45.6156067" lon="10.7295217"><ele>375.0</ele><time>2026-03-28T15:36:25.795Z</time></trkpt><trkpt lat="45.615535" lon="10.729515"><ele>375.0</ele><time>2026-03-28T15:36:26.796Z</time></trkpt><trkpt lat="45.6154383" lon="10.7295767"><ele>375.0</ele><time>2026-03-28T15:36:28.795Z</time></trkpt><trkpt lat="45.615385" lon="10.7296333"><ele>375.0</ele><time>2026-03-28T15:36:30.796Z</time></trkpt><trkpt lat="45.6153517" lon="10.72971"><ele>375.0</ele><time>2026-03-28T15:36:32.795Z</time></trkpt><trkpt lat="45.6153233" lon="10.7298033"><ele>375.0</ele><time>2026-03-28T15:36:34.796Z</time></trkpt><trkpt lat="45.6153017" lon="10.729935"><ele>375.0</ele><time>2026-03-28T15:36:36.795Z</time></trkpt><trkpt lat="45.6152967" lon="10.7300683"><ele>375.0</ele><time>2026-03-28T15:36:38.796Z</time></trkpt><trkpt lat="45.615295" lon="10.7302117"><ele>375.0</ele><time>2026-03-28T15:36:40.795Z</time></trkpt><trkpt lat="45.6152867" lon="10.7303283"><ele>375.0</ele><time>2026-03-28T15:36:42.796Z</time></trkpt><trkpt lat="45.6152667" lon="10.730435"><ele>373.0</ele><time>2026-03-28T15:36:44.795Z</time></trkpt><trkpt lat="45.6152433" lon="10.730535"><ele>371.0</ele><time>2026-03-28T15:36:46.795Z</time></trkpt><trkpt lat="45.61519" lon="10.7305917"><ele>369.0</ele><time>2026-03-28T15:36:48.796Z</time></trkpt><trkpt lat="45.6151367" lon="10.7305233"><ele>367.0</ele><time>2026-03-28T15:36:51.795Z</time></trkpt><trkpt lat="45.6151317" lon="10.7303767"><ele>365.0</ele><time>2026-03-28T15:36:53.796Z</time></trkpt><trkpt lat="45.6151317" lon="10.7302267"><ele>363.0</ele><time>2026-03-28T15:36:55.795Z</time></trkpt><trkpt lat="45.6150967" lon="10.730095"><ele>361.59999999999997</ele><time>2026-03-28T15:36:57.796Z</time></trkpt><trkpt lat="45.6150117" lon="10.729995"><ele>360.2</ele><time>2026-03-28T15:36:59.795Z</time></trkpt><trkpt lat="45.6149383" lon="10.7299367"><ele>358.8</ele><time>2026-03-28T15:37:00.796Z</time></trkpt><trkpt lat="45.6148433" lon="10.7298717"><ele>357.4</ele><time>2026-03-28T15:37:01.796Z</time></trkpt><trkpt lat="45.614735" lon="10.729795"><ele>356.0</ele><time>2026-03-28T15:37:02.796Z</time></trkpt><trkpt lat="45.6146133" lon="10.72971"><ele>356.0</ele><time>2026-03-28T15:37:03.795Z</time></trkpt><trkpt lat="45.6145" lon="10.7296117"><ele>356.0</ele><time>2026-03-28T15:37:04.796Z</time></trkpt><trkpt lat="45.61438" lon="10.72952"><ele>356.0</ele><time>2026-03-28T15:37:05.796Z</time></trkpt><trkpt lat="45.6142767" lon="10.7294433"><ele>356.0</ele><time>2026-03-28T15:37:06.795Z</time></trkpt><trkpt lat="45.614185" lon="10.7293633"><ele>353.8</ele><time>2026-03-28T15:37:07.795Z</time></trkpt><trkpt lat="45.6140767" lon="10.7292833"><ele>351.6</ele><time>2026-03-28T15:37:08.796Z</time></trkpt><trkpt lat="45.6139733" lon="10.7292117"><ele>349.4</ele><time>2026-03-28T15:37:09.795Z</time></trkpt><trkpt lat="45.61389" lon="10.7291167"><ele>347.2</ele><time>2026-03-28T15:37:10.796Z</time></trkpt><trkpt lat="45.6138167" lon="10.729035"><ele>345.0</ele><time>2026-03-28T15:37:11.795Z</time></trkpt><trkpt lat="45.6137483" lon="10.7289633"><ele>345.6</ele><time>2026-03-28T15:37:12.795Z</time></trkpt><trkpt lat="45.61365" lon="10.7288733"><ele>346.2</ele><time>2026-03-28T15:37:14.795Z</time></trkpt><trkpt lat="45.613545" lon="10.7287933"><ele>346.79999999999995</ele><time>2026-03-28T15:37:16.795Z</time></trkpt><trkpt lat="45.6134817" lon="10.7287567"><ele>347.4</ele><time>2026-03-28T15:37:17.795Z</time></trkpt><trkpt lat="45.6134" lon="10.7287383"><ele>348.0</ele><time>2026-03-28T15:37:19.795Z</time></trkpt><trkpt lat="45.6134583" lon="10.7288133"><ele>348.0</ele><time>2026-03-28T15:37:27.796Z</time></trkpt><trkpt lat="45.6135617" lon="10.728835"><ele>348.0</ele><time>2026-03-28T15:37:29.795Z</time></trkpt><trkpt lat="45.61363" lon="10.7287717"><ele>348.0</ele><time>2026-03-28T15:37:32.795Z</time></trkpt><trkpt lat="45.6136933" lon="10.728605"><ele>348.0</ele><time>2026-03-28T15:37:34.795Z</time></trkpt><trkpt lat="45.61374" lon="10.7285283"><ele>348.0</ele><time>2026-03-28T15:37:35.795Z</time></trkpt><trkpt lat="45.61379" lon="10.7284633"><ele>348.6666666666667</ele><time>2026-03-28T15:37:36.795Z</time></trkpt><trkpt lat="45.613825" lon="10.7283833"><ele>349.3333333333333</ele><time>2026-03-28T15:37:37.795Z</time></trkpt><trkpt lat="45.6138933" lon="10.7282333"><ele>350.0</ele><time>2026-03-28T15:37:39.795Z</time></trkpt><trkpt lat="45.6139233" lon="10.7281383"><ele>350.66666666666663</ele><time>2026-03-28T15:37:40.795Z</time></trkpt><trkpt lat="45.6139433" lon="10.7280467"><ele>351.3333333333333</ele><time>2026-03-28T15:37:41.795Z</time></trkpt><trkpt lat="45.6139433" lon="10.7279567"><ele>352.0</ele><time>2026-03-28T15:37:42.796Z</time></trkpt><trkpt lat="45.6139" lon="10.7278117"><ele>352.5</ele><time>2026-03-28T15:37:44.795Z</time></trkpt><trkpt lat="45.6138533" lon="10.727725"><ele>353.0</ele><time>2026-03-28T15:37:45.796Z</time></trkpt><trkpt lat="45.6137917" lon="10.7276317"><ele>353.5</ele><time>2026-03-28T15:37:46.795Z</time></trkpt><trkpt lat="45.6137167" lon="10.7275533"><ele>354.0</ele><time>2026-03-28T15:37:47.796Z</time></trkpt><trkpt lat="45.6136417" lon="10.7275033"><ele>354.5</ele><time>2026-03-28T15:37:48.795Z</time></trkpt><trkpt lat="45.6135667" lon="10.727475"><ele>355.0</ele><time>2026-03-28T15:37:49.795Z</time></trkpt><trkpt lat="45.6134633" lon="10.7274717"><ele>355.0</ele><time>2026-03-28T15:37:50.796Z</time></trkpt><trkpt lat="45.6133583" lon="10.7274767"><ele>355.0</ele><time>2026-03-28T15:37:51.795Z</time></trkpt><trkpt lat="45.6132467" lon="10.7275017"><ele>355.0</ele><time>2026-03-28T15:37:52.795Z</time></trkpt><trkpt lat="45.6131333" lon="10.7275133"><ele>355.0</ele><time>2026-03-28T15:37:53.796Z</time></trkpt><trkpt lat="45.6130333" lon="10.7274933"><ele>355.0</ele><time>2026-03-28T15:37:54.796Z</time></trkpt><trkpt lat="45.6129433" lon="10.7274433"><ele>355.0</ele><time>2026-03-28T15:37:55.795Z</time></trkpt><trkpt lat="45.61287" lon="10.727375"><ele>355.0</ele><time>2026-03-28T15:37:56.796Z</time></trkpt><trkpt lat="45.6128" lon="10.727295"><ele>355.0</ele><time>2026-03-28T15:37:57.795Z</time></trkpt><trkpt lat="45.6127433" lon="10.72722"><ele>355.0</ele><time>2026-03-28T15:37:58.796Z</time></trkpt><trkpt lat="45.6126933" lon="10.7271417"><ele>355.0</ele><time>2026-03-28T15:37:59.796Z</time></trkpt><trkpt lat="45.6126417" lon="10.7270517"><ele>355.0</ele><time>2026-03-28T15:38:00.796Z</time></trkpt><trkpt lat="45.612595" lon="10.7269483"><ele>357.6</ele><time>2026-03-28T15:38:01.795Z</time></trkpt><trkpt lat="45.612545" lon="10.7268317"><ele>360.2</ele><time>2026-03-28T15:38:02.796Z</time></trkpt><trkpt lat="45.6124883" lon="10.72674"><ele>362.79999999999995</ele><time>2026-03-28T15:38:03.796Z</time></trkpt><trkpt lat="45.6124117" lon="10.7266283"><ele>365.4</ele><time>2026-03-28T15:38:04.796Z</time></trkpt><trkpt lat="45.61234" lon="10.726525"><ele>368.0</ele><time>2026-03-28T15:38:05.795Z</time></trkpt><trkpt lat="45.612265" lon="10.7264283"><ele>368.0</ele><time>2026-03-28T15:38:06.795Z</time></trkpt><trkpt lat="45.6121967" lon="10.7263417"><ele>368.0</ele><time>2026-03-28T15:38:07.795Z</time></trkpt><trkpt lat="45.6121483" lon="10.72626"><ele>368.0</ele><time>2026-03-28T15:38:08.795Z</time></trkpt><trkpt lat="45.6121067" lon="10.7261833"><ele>368.0</ele><time>2026-03-28T15:38:09.795Z</time></trkpt><trkpt lat="45.6120883" lon="10.7260217"><ele>368.0</ele><time>2026-03-28T15:38:11.796Z</time></trkpt><trkpt lat="45.6121333" lon="10.725865"><ele>368.83333333333337</ele><time>2026-03-28T15:38:13.796Z</time></trkpt><trkpt lat="45.61219" lon="10.7258"><ele>369.6666666666667</ele><time>2026-03-28T15:38:14.795Z</time></trkpt><trkpt lat="45.6122567" lon="10.7257383"><ele>370.5</ele><time>2026-03-28T15:38:15.796Z</time></trkpt><trkpt lat="45.6123267" lon="10.725655"><ele>371.3333333333333</ele><time>2026-03-28T15:38:16.795Z</time></trkpt><trkpt lat="45.6123967" lon="10.7255567"><ele>372.16666666666663</ele><time>2026-03-28T15:38:17.796Z</time></trkpt><trkpt lat="45.6124667" lon="10.7254583"><ele>373.0</ele><time>2026-03-28T15:38:18.796Z</time></trkpt><trkpt lat="45.6125533" lon="10.7253533"><ele>373.0</ele><time>2026-03-28T15:38:19.795Z</time></trkpt><trkpt lat="45.6126367" lon="10.7252617"><ele>373.0</ele><time>2026-03-28T15:38:20.795Z</time></trkpt><trkpt lat="45.6127183" lon="10.7251683"><ele>373.0</ele><time>2026-03-28T15:38:21.795Z</time></trkpt><trkpt lat="45.6127817" lon="10.7250717"><ele>373.0</ele><time>2026-03-28T15:38:22.795Z</time></trkpt><trkpt lat="45.612825" lon="10.7249767"><ele>373.0</ele><time>2026-03-28T15:38:23.795Z</time></trkpt><trkpt lat="45.6128467" lon="10.7248817"><ele>372.0</ele><time>2026-03-28T15:38:24.795Z</time></trkpt><trkpt lat="45.612815" lon="10.7247283"><ele>371.0</ele><time>2026-03-28T15:38:26.796Z</time></trkpt><trkpt lat="45.612745" lon="10.7246783"><ele>370.0</ele><time>2026-03-28T15:38:27.795Z</time></trkpt><trkpt lat="45.612645" lon="10.7246483"><ele>369.0</ele><time>2026-03-28T15:38:28.795Z</time></trkpt><trkpt lat="45.61253" lon="10.72464"><ele>368.0</ele><time>2026-03-28T15:38:29.795Z</time></trkpt><trkpt lat="45.612405" lon="10.7246367"><ele>368.0</ele><time>2026-03-28T15:38:30.795Z</time></trkpt><trkpt lat="45.6122683" lon="10.72464"><ele>368.0</ele><time>2026-03-28T15:38:31.796Z</time></trkpt><trkpt lat="45.6121483" lon="10.7246617"><ele>368.0</ele><time>2026-03-28T15:38:32.795Z</time></trkpt><trkpt lat="45.61204" lon="10.72469"><ele>368.0</ele><time>2026-03-28T15:38:33.796Z</time></trkpt><trkpt lat="45.61193" lon="10.7247383"><ele>365.59999999999997</ele><time>2026-03-28T15:38:34.796Z</time></trkpt><trkpt lat="45.61181" lon="10.7247983"><ele>363.2</ele><time>2026-03-28T15:38:35.795Z</time></trkpt><trkpt lat="45.6116983" lon="10.7248617"><ele>360.8</ele><time>2026-03-28T15:38:36.795Z</time></trkpt><trkpt lat="45.611605" lon="10.724915"><ele>358.4</ele><time>2026-03-28T15:38:37.796Z</time></trkpt><trkpt lat="45.6115133" lon="10.7249617"><ele>356.0</ele><time>2026-03-28T15:38:38.795Z</time></trkpt><trkpt lat="45.6114117" lon="10.7250067"><ele>356.0</ele><time>2026-03-28T15:38:39.795Z</time></trkpt><trkpt lat="45.61131" lon="10.72504"><ele>356.0</ele><time>2026-03-28T15:38:40.795Z</time></trkpt><trkpt lat="45.6112033" lon="10.7250767"><ele>356.0</ele><time>2026-03-28T15:38:41.795Z</time></trkpt><trkpt lat="45.6110933" lon="10.7251167"><ele>356.0</ele><time>2026-03-28T15:38:42.795Z</time></trkpt><trkpt lat="45.6109633" lon="10.725175"><ele>354.0</ele><time>2026-03-28T15:38:43.796Z</time></trkpt><trkpt lat="45.6108167" lon="10.7252183"><ele>352.0</ele><time>2026-03-28T15:38:44.796Z</time></trkpt><trkpt lat="45.6106467" lon="10.7252383"><ele>350.0</ele><time>2026-03-28T15:38:45.796Z</time></trkpt><trkpt lat="45.6104667" lon="10.7252183"><ele>347.6666666666667</ele><time>2026-03-28T15:38:46.795Z</time></trkpt><trkpt lat="45.6102817" lon="10.7251867"><ele>345.3333333333333</ele><time>2026-03-28T15:38:47.795Z</time></trkpt><trkpt lat="45.610085" lon="10.72514"><ele>343.0</ele><time>2026-03-28T15:38:48.796Z</time></trkpt><trkpt lat="45.609895" lon="10.725105"><ele>343.0</ele><time>2026-03-28T15:38:49.795Z</time></trkpt><trkpt lat="45.609705" lon="10.7250967"><ele>343.0</ele><time>2026-03-28T15:38:50.795Z</time></trkpt><trkpt lat="45.6095317" lon="10.7250917"><ele>343.0</ele><time>2026-03-28T15:38:51.796Z</time></trkpt><trkpt lat="45.6093617" lon="10.7251167"><ele>341.0</ele><time>2026-03-28T15:38:52.796Z</time></trkpt><trkpt lat="45.6092" lon="10.7251533"><ele>339.0</ele><time>2026-03-28T15:38:53.796Z</time></trkpt><trkpt lat="45.6090483" lon="10.7251767"><ele>337.0</ele><time>2026-03-28T15:38:54.795Z</time></trkpt><trkpt lat="45.6089033" lon="10.725195"><ele>337.0</ele><time>2026-03-28T15:38:55.795Z</time></trkpt><trkpt lat="45.608765" lon="10.725215"><ele>337.0</ele><time>2026-03-28T15:38:56.796Z</time></trkpt><trkpt lat="45.6086367" lon="10.7252283"><ele>337.0</ele><time>2026-03-28T15:38:57.796Z</time></trkpt><trkpt lat="45.6085283" lon="10.7252683"><ele>337.0</ele><time>2026-03-28T15:38:58.796Z</time></trkpt><trkpt lat="45.6084383" lon="10.7253467"><ele>336.5</ele><time>2026-03-28T15:38:59.795Z</time></trkpt><trkpt lat="45.608385" lon="10.72544"><ele>336.0</ele><time>2026-03-28T15:39:00.795Z</time></trkpt><trkpt lat="45.60838" lon="10.725555"><ele>335.5</ele><time>2026-03-28T15:39:01.795Z</time></trkpt><trkpt lat="45.60843" lon="10.72567"><ele>335.0</ele><time>2026-03-28T15:39:02.796Z</time></trkpt><trkpt lat="45.6085" lon="10.725755"><ele>334.5</ele><time>2026-03-28T15:39:03.795Z</time></trkpt><trkpt lat="45.60859" lon="10.72578"><ele>334.0</ele><time>2026-03-28T15:39:04.796Z</time></trkpt><trkpt lat="45.6086733" lon="10.72576"><ele>334.0</ele><time>2026-03-28T15:39:05.796Z</time></trkpt><trkpt lat="45.608755" lon="10.7256983"><ele>334.0</ele><time>2026-03-28T15:39:06.796Z</time></trkpt><trkpt lat="45.6088333" lon="10.72564"><ele>334.0</ele><time>2026-03-28T15:39:07.795Z</time></trkpt><trkpt lat="45.6089083" lon="10.7256133"><ele>334.0</ele><time>2026-03-28T15:39:08.796Z</time></trkpt><trkpt lat="45.6089617" lon="10.7257"><ele>334.0</ele><time>2026-03-28T15:39:10.794Z</time></trkpt><trkpt lat="45.6089183" lon="10.7257667"><ele>334.0</ele><time>2026-03-28T15:39:11.794Z</time></trkpt><trkpt lat="45.608845" lon="10.7258183"><ele>334.0</ele><time>2026-03-28T15:39:12.794Z</time></trkpt><trkpt lat="45.6087567" lon="10.72586"><ele>334.0</ele><time>2026-03-28T15:39:13.794Z</time></trkpt><trkpt lat="45.6086517" lon="10.72592"><ele>334.0</ele><time>2026-03-28T15:39:14.795Z</time></trkpt><trkpt lat="45.6085283" lon="10.7259817"><ele>334.0</ele><time>2026-03-28T15:39:15.795Z</time></trkpt><trkpt lat="45.608405" lon="10.7260567"><ele>331.25</ele><time>2026-03-28T15:39:16.795Z</time></trkpt><trkpt lat="45.6082733" lon="10.7261283"><ele>328.5</ele><time>2026-03-28T15:39:17.794Z</time></trkpt><trkpt lat="45.6081483" lon="10.7261817"><ele>325.75</ele><time>2026-03-28T15:39:18.795Z</time></trkpt><trkpt lat="45.608025" lon="10.726225"><ele>323.0</ele><time>2026-03-28T15:39:19.794Z</time></trkpt><trkpt lat="45.607885" lon="10.7262617"><ele>322.0</ele><time>2026-03-28T15:39:20.795Z</time></trkpt><trkpt lat="45.6077483" lon="10.726255"><ele>321.0</ele><time>2026-03-28T15:39:21.794Z</time></trkpt><trkpt lat="45.6076033" lon="10.726255"><ele>320.0</ele><time>2026-03-28T15:39:22.794Z</time></trkpt><trkpt lat="45.6074683" lon="10.7262517"><ele>319.0</ele><time>2026-03-28T15:39:23.795Z</time></trkpt><trkpt lat="45.60734" lon="10.7262567"><ele>319.0</ele><time>2026-03-28T15:39:24.794Z</time></trkpt><trkpt lat="45.6072183" lon="10.72628"><ele>319.0</ele><time>2026-03-28T15:39:25.794Z</time></trkpt><trkpt lat="45.6071083" lon="10.7263067"><ele>319.0</ele><time>2026-03-28T15:39:26.795Z</time></trkpt><trkpt lat="45.607005" lon="10.7263567"><ele>319.0</ele><time>2026-03-28T15:39:27.794Z</time></trkpt><trkpt lat="45.6069117" lon="10.7264267"><ele>319.0</ele><time>2026-03-28T15:39:28.794Z</time></trkpt><trkpt lat="45.606835" lon="10.7265117"><ele>318.66666666666663</ele><time>2026-03-28T15:39:29.794Z</time></trkpt><trkpt lat="45.6067783" lon="10.7265867"><ele>318.3333333333333</ele><time>2026-03-28T15:39:30.794Z</time></trkpt><trkpt lat="45.6067283" lon="10.7266517"><ele>318.0</ele><time>2026-03-28T15:39:31.794Z</time></trkpt><trkpt lat="45.60664" lon="10.7267533"><ele>317.6666666666667</ele><time>2026-03-28T15:39:33.794Z</time></trkpt><trkpt lat="45.606565" lon="10.72677"><ele>317.33333333333337</ele><time>2026-03-28T15:39:35.795Z</time></trkpt><trkpt lat="45.606495" lon="10.7266867"><ele>317.0</ele><time>2026-03-28T15:39:37.794Z</time></trkpt><trkpt lat="45.606475" lon="10.7265883"><ele>317.0</ele><time>2026-03-28T15:39:38.795Z</time></trkpt><trkpt lat="45.6064683" lon="10.7264517"><ele>317.0</ele><time>2026-03-28T15:39:39.794Z</time></trkpt><trkpt lat="45.6064717" lon="10.7262883"><ele>317.0</ele><time>2026-03-28T15:39:40.794Z</time></trkpt><trkpt lat="45.6064583" lon="10.72611"><ele>317.0</ele><time>2026-03-28T15:39:41.794Z</time></trkpt><trkpt lat="45.606445" lon="10.7259267"><ele>316.5</ele><time>2026-03-28T15:39:42.795Z</time></trkpt><trkpt lat="45.60643" lon="10.7257517"><ele>316.0</ele><time>2026-03-28T15:39:43.794Z</time></trkpt><trkpt lat="45.60643" lon="10.7255833"><ele>315.5</ele><time>2026-03-28T15:39:44.795Z</time></trkpt><trkpt lat="45.60644" lon="10.7254117"><ele>315.0</ele><time>2026-03-28T15:39:45.795Z</time></trkpt><trkpt lat="45.6064667" lon="10.72524"><ele>313.75</ele><time>2026-03-28T15:39:46.795Z</time></trkpt><trkpt lat="45.6065067" lon="10.7250767"><ele>312.5</ele><time>2026-03-28T15:39:47.794Z</time></trkpt><trkpt lat="45.6065833" lon="10.7248917"><ele>311.25</ele><time>2026-03-28T15:39:48.795Z</time></trkpt><trkpt lat="45.606655" lon="10.7246983"><ele>310.0</ele><time>2026-03-28T15:39:49.795Z</time></trkpt><trkpt lat="45.6067317" lon="10.7245167"><ele>308.25</ele><time>2026-03-28T15:39:50.795Z</time></trkpt><trkpt lat="45.6068083" lon="10.7243617"><ele>306.5</ele><time>2026-03-28T15:39:51.795Z</time></trkpt><trkpt lat="45.6068767" lon="10.724215"><ele>304.75</ele><time>2026-03-28T15:39:52.794Z</time></trkpt><trkpt lat="45.6069117" lon="10.72407"><ele>303.0</ele><time>2026-03-28T15:39:53.795Z</time></trkpt><trkpt lat="45.6068967" lon="10.7238967"><ele>303.0</ele><time>2026-03-28T15:39:54.795Z</time></trkpt><trkpt lat="45.6068933" lon="10.7237517"><ele>303.0</ele><time>2026-03-28T15:39:55.795Z</time></trkpt><trkpt lat="45.6068717" lon="10.72362"><ele>303.0</ele><time>2026-03-28T15:39:56.795Z</time></trkpt><trkpt lat="45.606865" lon="10.7234767"><ele>303.0</ele><time>2026-03-28T15:39:57.794Z</time></trkpt><trkpt lat="45.6068483" lon="10.7233183"><ele>303.0</ele><time>2026-03-28T15:39:58.794Z</time></trkpt><trkpt lat="45.6068233" lon="10.7231417"><ele>302.75</ele><time>2026-03-28T15:39:59.795Z</time></trkpt><trkpt lat="45.6067783" lon="10.7229617"><ele>302.5</ele><time>2026-03-28T15:40:00.795Z</time></trkpt><trkpt lat="45.606705" lon="10.72282"><ele>302.25</ele><time>2026-03-28T15:40:01.794Z</time></trkpt><trkpt lat="45.6065983" lon="10.7227033"><ele>302.0</ele><time>2026-03-28T15:40:02.794Z</time></trkpt><trkpt lat="45.6064717" lon="10.7226167"><ele>305.33333333333337</ele><time>2026-03-28T15:40:03.795Z</time></trkpt><trkpt lat="45.6063317" lon="10.7225283"><ele>308.6666666666667</ele><time>2026-03-28T15:40:04.795Z</time></trkpt><trkpt lat="45.6061867" lon="10.7224567"><ele>312.0</ele><time>2026-03-28T15:40:05.794Z</time></trkpt><trkpt lat="45.6060367" lon="10.7224133"><ele>313.0</ele><time>2026-03-28T15:40:06.794Z</time></trkpt><trkpt lat="45.6058767" lon="10.7223733"><ele>314.0</ele><time>2026-03-28T15:40:07.794Z</time></trkpt><trkpt lat="45.605725" lon="10.7223367"><ele>315.0</ele><time>2026-03-28T15:40:08.794Z</time></trkpt><trkpt lat="45.6055867" lon="10.7222967"><ele>315.0</ele><time>2026-03-28T15:40:09.795Z</time></trkpt><trkpt lat="45.605475" lon="10.7222683"><ele>315.0</ele><time>2026-03-28T15:40:10.795Z</time></trkpt><trkpt lat="45.6053917" lon="10.7222383"><ele>315.0</ele><time>2026-03-28T15:40:11.795Z</time></trkpt><trkpt lat="45.605335" lon="10.7221733"><ele>315.0</ele><time>2026-03-28T15:40:12.794Z</time></trkpt><trkpt lat="45.6053" lon="10.72208"><ele>315.0</ele><time>2026-03-28T15:40:13.794Z</time></trkpt><trkpt lat="45.6052717" lon="10.7219717"><ele>315.0</ele><time>2026-03-28T15:40:14.795Z</time></trkpt><trkpt lat="45.60526" lon="10.72187"><ele>316.0</ele><time>2026-03-28T15:40:15.794Z</time></trkpt><trkpt lat="45.60526" lon="10.721765"><ele>317.0</ele><time>2026-03-28T15:40:16.795Z</time></trkpt><trkpt lat="45.6052917" lon="10.7216717"><ele>318.0</ele><time>2026-03-28T15:40:17.794Z</time></trkpt><trkpt lat="45.60535" lon="10.7215783"><ele>319.0</ele><time>2026-03-28T15:40:18.794Z</time></trkpt><trkpt lat="45.60542" lon="10.7214817"><ele>320.0</ele><time>2026-03-28T15:40:19.794Z</time></trkpt><trkpt lat="45.605495" lon="10.7213817"><ele>321.0</ele><time>2026-03-28T15:40:20.794Z</time></trkpt><trkpt lat="45.605575" lon="10.7213117"><ele>322.4</ele><time>2026-03-28T15:40:21.794Z</time></trkpt><trkpt lat="45.60567" lon="10.7212667"><ele>323.8</ele><time>2026-03-28T15:40:22.795Z</time></trkpt><trkpt lat="45.60578" lon="10.72124"><ele>325.2</ele><time>2026-03-28T15:40:23.794Z</time></trkpt><trkpt lat="45.6058967" lon="10.7211933"><ele>326.59999999999997</ele><time>2026-03-28T15:40:24.794Z</time></trkpt><trkpt lat="45.6059967" lon="10.721115"><ele>328.0</ele><time>2026-03-28T15:40:25.795Z</time></trkpt><trkpt lat="45.606065" lon="10.72102"><ele>328.2</ele><time>2026-03-28T15:40:26.794Z</time></trkpt><trkpt lat="45.6061233" lon="10.7209"><ele>328.4</ele><time>2026-03-28T15:40:27.795Z</time></trkpt><trkpt lat="45.606165" lon="10.7207567"><ele>328.59999999999997</ele><time>2026-03-28T15:40:28.795Z</time></trkpt><trkpt lat="45.606195" lon="10.7206083"><ele>328.79999999999995</ele><time>2026-03-28T15:40:29.795Z</time></trkpt><trkpt lat="45.606235" lon="10.7204717"><ele>329.0</ele><time>2026-03-28T15:40:30.795Z</time></trkpt><trkpt lat="45.6062967" lon="10.72034"><ele>332.25</ele><time>2026-03-28T15:40:31.794Z</time></trkpt><trkpt lat="45.6063683" lon="10.720225"><ele>335.5</ele><time>2026-03-28T15:40:32.794Z</time></trkpt><trkpt lat="45.606465" lon="10.7201333"><ele>338.75</ele><time>2026-03-28T15:40:33.794Z</time></trkpt><trkpt lat="45.6065633" lon="10.7200433"><ele>342.0</ele><time>2026-03-28T15:40:34.794Z</time></trkpt><trkpt lat="45.6066617" lon="10.719955"><ele>342.0</ele><time>2026-03-28T15:40:35.795Z</time></trkpt><trkpt lat="45.6067233" lon="10.7198717"><ele>342.0</ele><time>2026-03-28T15:40:36.795Z</time></trkpt><trkpt lat="45.6067633" lon="10.7197683"><ele>342.0</ele><time>2026-03-28T15:40:37.795Z</time></trkpt><trkpt lat="45.606775" lon="10.7196483"><ele>342.0</ele><time>2026-03-28T15:40:38.794Z</time></trkpt><trkpt lat="45.6067633" lon="10.71954"><ele>342.0</ele><time>2026-03-28T15:40:39.794Z</time></trkpt><trkpt lat="45.6067367" lon="10.7194567"><ele>342.0</ele><time>2026-03-28T15:40:40.795Z</time></trkpt><trkpt lat="45.6066917" lon="10.7193433"><ele>342.6666666666667</ele><time>2026-03-28T15:40:42.794Z</time></trkpt><trkpt lat="45.6066967" lon="10.71925"><ele>343.3333333333333</ele><time>2026-03-28T15:40:44.795Z</time></trkpt><trkpt lat="45.6067267" lon="10.7191333"><ele>344.0</ele><time>2026-03-28T15:40:47.794Z</time></trkpt><trkpt lat="45.6068133" lon="10.7190467"><ele>344.66666666666663</ele><time>2026-03-28T15:40:49.794Z</time></trkpt><trkpt lat="45.6068767" lon="10.7189883"><ele>345.3333333333333</ele><time>2026-03-28T15:40:50.795Z</time></trkpt><trkpt lat="45.6069483" lon="10.7189217"><ele>346.0</ele><time>2026-03-28T15:40:51.794Z</time></trkpt><trkpt lat="45.60711" lon="10.71879"><ele>348.66666666666663</ele><time>2026-03-28T15:40:53.795Z</time></trkpt><trkpt lat="45.6071883" lon="10.7187233"><ele>351.3333333333333</ele><time>2026-03-28T15:40:54.794Z</time></trkpt><trkpt lat="45.6072517" lon="10.7186667"><ele>354.0</ele><time>2026-03-28T15:40:55.795Z</time></trkpt><trkpt lat="45.6073083" lon="10.71859"><ele>356.6666666666667</ele><time>2026-03-28T15:40:56.794Z</time></trkpt><trkpt lat="45.6073583" lon="10.718525"><ele>359.33333333333337</ele><time>2026-03-28T15:40:57.795Z</time></trkpt><trkpt lat="45.6074033" lon="10.7184"><ele>362.0</ele><time>2026-03-28T15:40:59.795Z</time></trkpt><trkpt lat="45.6074033" lon="10.7182267"><ele>362.1666666666667</ele><time>2026-03-28T15:41:01.795Z</time></trkpt><trkpt lat="45.6073967" lon="10.7181133"><ele>362.33333333333337</ele><time>2026-03-28T15:41:02.794Z</time></trkpt><trkpt lat="45.6073783" lon="10.7180083"><ele>362.5</ele><time>2026-03-28T15:41:03.794Z</time></trkpt><trkpt lat="45.607365" lon="10.717905"><ele>362.6666666666667</ele><time>2026-03-28T15:41:04.795Z</time></trkpt><trkpt lat="45.60735" lon="10.7177567"><ele>362.8333333333333</ele><time>2026-03-28T15:41:06.794Z</time></trkpt><trkpt lat="45.6073317" lon="10.71766"><ele>363.0</ele><time>2026-03-28T15:41:09.795Z</time></trkpt><trkpt lat="45.6073033" lon="10.7175217"><ele>362.6666666666667</ele><time>2026-03-28T15:41:12.794Z</time></trkpt><trkpt lat="45.60726" lon="10.71738"><ele>362.3333333333333</ele><time>2026-03-28T15:41:14.795Z</time></trkpt><trkpt lat="45.607255" lon="10.7172633"><ele>362.0</ele><time>2026-03-28T15:41:16.795Z</time></trkpt><trkpt lat="45.6072717" lon="10.7171583"><ele>361.66666666666663</ele><time>2026-03-28T15:41:18.794Z</time></trkpt><trkpt lat="45.60732" lon="10.7170967"><ele>361.3333333333333</ele><time>2026-03-28T15:41:21.794Z</time></trkpt><trkpt lat="45.6074133" lon="10.71711"><ele>361.0</ele><time>2026-03-28T15:41:24.794Z</time></trkpt><trkpt lat="45.607495" lon="10.71713"><ele>361.0</ele><time>2026-03-28T15:41:26.795Z</time></trkpt><trkpt lat="45.607625" lon="10.717145"><ele>361.0</ele><time>2026-03-28T15:41:28.795Z</time></trkpt><trkpt lat="45.6076967" lon="10.7171533"><ele>361.0</ele><time>2026-03-28T15:41:29.794Z</time></trkpt><trkpt lat="45.6077667" lon="10.717155"><ele>361.0</ele><time>2026-03-28T15:41:30.795Z</time></trkpt><trkpt lat="45.6078867" lon="10.7171567"><ele>361.0</ele><time>2026-03-28T15:41:32.794Z</time></trkpt><trkpt lat="45.6079567" lon="10.71715"><ele>363.3333333333333</ele><time>2026-03-28T15:41:34.795Z</time></trkpt><trkpt lat="45.60803" lon="10.7171367"><ele>365.66666666666663</ele><time>2026-03-28T15:41:36.795Z</time></trkpt><trkpt lat="45.6081167" lon="10.7171483"><ele>368.0</ele><time>2026-03-28T15:41:38.794Z</time></trkpt><trkpt lat="45.6082033" lon="10.7171617"><ele>370.3333333333333</ele><time>2026-03-28T15:41:40.794Z</time></trkpt><trkpt lat="45.6082883" lon="10.7171733"><ele>372.6666666666667</ele><time>2026-03-28T15:41:42.794Z</time></trkpt><trkpt lat="45.6083917" lon="10.717185"><ele>375.0</ele><time>2026-03-28T15:41:44.794Z</time></trkpt><trkpt lat="45.608505" lon="10.71719"><ele>375.0</ele><time>2026-03-28T15:41:46.794Z</time></trkpt><trkpt lat="45.6086167" lon="10.7171683"><ele>375.0</ele><time>2026-03-28T15:41:48.794Z</time></trkpt><trkpt lat="45.6086767" lon="10.7171383"><ele>375.0</ele><time>2026-03-28T15:41:49.795Z</time></trkpt><trkpt lat="45.6087517" lon="10.7170917"><ele>375.0</ele><time>2026-03-28T15:41:50.795Z</time></trkpt><trkpt lat="45.60884" lon="10.717035"><ele>375.0</ele><time>2026-03-28T15:41:51.794Z</time></trkpt><trkpt lat="45.60893" lon="10.716975"><ele>376.0</ele><time>2026-03-28T15:41:52.795Z</time></trkpt><trkpt lat="45.6090183" lon="10.71692"><ele>377.0</ele><time>2026-03-28T15:41:53.795Z</time></trkpt><trkpt lat="45.609105" lon="10.7168717"><ele>378.0</ele><time>2026-03-28T15:41:54.794Z</time></trkpt><trkpt lat="45.6091883" lon="10.7168367"><ele>379.0</ele><time>2026-03-28T15:41:55.794Z</time></trkpt><trkpt lat="45.609275" lon="10.7168133"><ele>380.0</ele><time>2026-03-28T15:41:56.795Z</time></trkpt><trkpt lat="45.6093583" lon="10.71678"><ele>380.0</ele><time>2026-03-28T15:41:57.794Z</time></trkpt><trkpt lat="45.6094417" lon="10.71673"><ele>380.0</ele><time>2026-03-28T15:41:58.794Z</time></trkpt><trkpt lat="45.6095333" lon="10.7167"><ele>380.0</ele><time>2026-03-28T15:41:59.794Z</time></trkpt><trkpt lat="45.6096283" lon="10.7166817"><ele>380.0</ele><time>2026-03-28T15:42:00.794Z</time></trkpt><trkpt lat="45.60973" lon="10.7166567"><ele>380.0</ele><time>2026-03-28T15:42:01.794Z</time></trkpt><trkpt lat="45.609845" lon="10.7166433"><ele>383.4</ele><time>2026-03-28T15:42:02.794Z</time></trkpt><trkpt lat="45.6099633" lon="10.7166117"><ele>386.8</ele><time>2026-03-28T15:42:03.795Z</time></trkpt><trkpt lat="45.6100767" lon="10.7165833"><ele>390.20000000000005</ele><time>2026-03-28T15:42:04.794Z</time></trkpt><trkpt lat="45.61017" lon="10.716545"><ele>393.6</ele><time>2026-03-28T15:42:05.794Z</time></trkpt><trkpt lat="45.61027" lon="10.7165083"><ele>397.0</ele><time>2026-03-28T15:42:06.794Z</time></trkpt><trkpt lat="45.6103633" lon="10.7164667"><ele>399.0</ele><time>2026-03-28T15:42:07.794Z</time></trkpt><trkpt lat="45.61046" lon="10.716425"><ele>401.0</ele><time>2026-03-28T15:42:08.795Z</time></trkpt><trkpt lat="45.61055" lon="10.7163867"><ele>403.0</ele><time>2026-03-28T15:42:09.795Z</time></trkpt><trkpt lat="45.610645" lon="10.7163533"><ele>405.0</ele><time>2026-03-28T15:42:10.795Z</time></trkpt><trkpt lat="45.610745" lon="10.7163333"><ele>407.0</ele><time>2026-03-28T15:42:11.794Z</time></trkpt><trkpt lat="45.6108467" lon="10.7163067"><ele>407.0</ele><time>2026-03-28T15:42:12.795Z</time></trkpt><trkpt lat="45.610955" lon="10.71628"><ele>407.0</ele><time>2026-03-28T15:42:13.795Z</time></trkpt><trkpt lat="45.611055" lon="10.71625"><ele>407.0</ele><time>2026-03-28T15:42:14.795Z</time></trkpt><trkpt lat="45.6111483" lon="10.716215"><ele>407.0</ele><time>2026-03-28T15:42:15.795Z</time></trkpt><trkpt lat="45.6112383" lon="10.7161683"><ele>407.0</ele><time>2026-03-28T15:42:16.795Z</time></trkpt><trkpt lat="45.611325" lon="10.7161217"><ele>408.8</ele><time>2026-03-28T15:42:17.794Z</time></trkpt><trkpt lat="45.6114133" lon="10.716075"><ele>410.6</ele><time>2026-03-28T15:42:18.794Z</time></trkpt><trkpt lat="45.6115083" lon="10.7160167"><ele>412.40000000000003</ele><time>2026-03-28T15:42:19.795Z</time></trkpt><trkpt lat="45.6115933" lon="10.7159783"><ele>414.20000000000005</ele><time>2026-03-28T15:42:20.795Z</time></trkpt><trkpt lat="45.611675" lon="10.7159417"><ele>416.0</ele><time>2026-03-28T15:42:21.795Z</time></trkpt><trkpt lat="45.6117533" lon="10.71591"><ele>412.66666666666663</ele><time>2026-03-28T15:42:22.795Z</time></trkpt><trkpt lat="45.6118333" lon="10.715875"><ele>409.3333333333333</ele><time>2026-03-28T15:42:23.795Z</time></trkpt><trkpt lat="45.611915" lon="10.7158383"><ele>406.0</ele><time>2026-03-28T15:42:24.794Z</time></trkpt><trkpt lat="45.6119867" lon="10.7158233"><ele>402.66666666666663</ele><time>2026-03-28T15:42:25.794Z</time></trkpt><trkpt lat="45.612105" lon="10.71581"><ele>399.3333333333333</ele><time>2026-03-28T15:42:27.795Z</time></trkpt><trkpt lat="45.612175" lon="10.7158483"><ele>396.0</ele><time>2026-03-28T15:42:28.795Z</time></trkpt><trkpt lat="45.6122633" lon="10.7159017"><ele>395.6</ele><time>2026-03-28T15:42:29.794Z</time></trkpt><trkpt lat="45.6123617" lon="10.7159517"><ele>395.20000000000005</ele><time>2026-03-28T15:42:30.794Z</time></trkpt><trkpt lat="45.612465" lon="10.7159833"><ele>394.79999999999995</ele><time>2026-03-28T15:42:31.794Z</time></trkpt><trkpt lat="45.6125617" lon="10.715985"><ele>394.4</ele><time>2026-03-28T15:42:32.795Z</time></trkpt><trkpt lat="45.61265" lon="10.7159733"><ele>394.0</ele><time>2026-03-28T15:42:33.794Z</time></trkpt><trkpt lat="45.6127367" lon="10.7159483"><ele>394.00000000000006</ele><time>2026-03-28T15:42:34.794Z</time></trkpt><trkpt lat="45.612805" lon="10.7159433"><ele>394.0</ele><time>2026-03-28T15:42:35.794Z</time></trkpt><trkpt lat="45.6129117" lon="10.716015"><ele>394.0</ele><time>2026-03-28T15:42:37.794Z</time></trkpt><trkpt lat="45.6130083" lon="10.71612"><ele>394.0</ele><time>2026-03-28T15:42:39.794Z</time></trkpt><trkpt lat="45.6130667" lon="10.7161583"><ele>394.00000000000006</ele><time>2026-03-28T15:42:40.794Z</time></trkpt><trkpt lat="45.6131383" lon="10.7161833"><ele>394.0</ele><time>2026-03-28T15:42:41.794Z</time></trkpt><trkpt lat="45.61322" lon="10.7161717"><ele>393.6</ele><time>2026-03-28T15:42:42.795Z</time></trkpt><trkpt lat="45.6133217" lon="10.71613"><ele>393.2</ele><time>2026-03-28T15:42:43.795Z</time></trkpt><trkpt lat="45.6134283" lon="10.71608"><ele>392.8</ele><time>2026-03-28T15:42:44.794Z</time></trkpt><trkpt lat="45.6135233" lon="10.71605"><ele>392.40000000000003</ele><time>2026-03-28T15:42:45.794Z</time></trkpt><trkpt lat="45.6136133" lon="10.7160333"><ele>392.0</ele><time>2026-03-28T15:42:46.794Z</time></trkpt><trkpt lat="45.6136967" lon="10.7160383"><ele>391.99999999999994</ele><time>2026-03-28T15:42:47.794Z</time></trkpt><trkpt lat="45.6137833" lon="10.7160583"><ele>392.0</ele><time>2026-03-28T15:42:48.794Z</time></trkpt><trkpt lat="45.6138733" lon="10.716085"><ele>392.0</ele><time>2026-03-28T15:42:49.795Z</time></trkpt><trkpt lat="45.6139617" lon="10.7161233"><ele>392.0</ele><time>2026-03-28T15:42:50.794Z</time></trkpt><trkpt lat="45.61404" lon="10.71616"><ele>391.99999999999994</ele><time>2026-03-28T15:42:51.794Z</time></trkpt><trkpt lat="45.6141133" lon="10.7161983"><ele>392.0</ele><time>2026-03-28T15:42:52.794Z</time></trkpt><trkpt lat="45.6141817" lon="10.7162183"><ele>391.8333333333333</ele><time>2026-03-28T15:42:53.794Z</time></trkpt><trkpt lat="45.61431" lon="10.716205"><ele>391.66666666666663</ele><time>2026-03-28T15:42:55.795Z</time></trkpt><trkpt lat="45.6143767" lon="10.716185"><ele>391.5</ele><time>2026-03-28T15:42:56.794Z</time></trkpt><trkpt lat="45.6144417" lon="10.7161483"><ele>391.33333333333337</ele><time>2026-03-28T15:42:57.795Z</time></trkpt><trkpt lat="45.614505" lon="10.7161217"><ele>391.1666666666667</ele><time>2026-03-28T15:42:58.795Z</time></trkpt><trkpt lat="45.6145733" lon="10.7160967"><ele>391.0</ele><time>2026-03-28T15:42:59.794Z</time></trkpt><trkpt lat="45.6146467" lon="10.7160683"><ele>390.99999999999994</ele><time>2026-03-28T15:43:00.794Z</time></trkpt><trkpt lat="45.6147117" lon="10.716025"><ele>391.0</ele><time>2026-03-28T15:43:01.794Z</time></trkpt><trkpt lat="45.6147683" lon="10.7159833"><ele>391.0</ele><time>2026-03-28T15:43:02.795Z</time></trkpt><trkpt lat="45.6148283" lon="10.7159267"><ele>391.0</ele><time>2026-03-28T15:43:03.795Z</time></trkpt><trkpt lat="45.61489" lon="10.7158533"><ele>391.0</ele><time>2026-03-28T15:43:04.794Z</time></trkpt><trkpt lat="45.6149567" lon="10.7157817"><ele>390.99999999999994</ele><time>2026-03-28T15:43:05.794Z</time></trkpt><trkpt lat="45.615015" lon="10.7157217"><ele>391.0</ele><time>2026-03-28T15:43:06.794Z</time></trkpt><trkpt lat="45.6150767" lon="10.715655"><ele>391.00000000000006</ele><time>2026-03-28T15:43:07.795Z</time></trkpt><trkpt lat="45.6151433" lon="10.7156067"><ele>391.0</ele><time>2026-03-28T15:43:08.794Z</time></trkpt><trkpt lat="45.6152183" lon="10.715565"><ele>391.0</ele><time>2026-03-28T15:43:09.794Z</time></trkpt><trkpt lat="45.6152883" lon="10.71553"><ele>391.0</ele><time>2026-03-28T15:43:10.794Z</time></trkpt><trkpt lat="45.6153517" lon="10.7154933"><ele>391.00000000000006</ele><time>2026-03-28T15:43:11.795Z</time></trkpt><trkpt lat="45.6154067" lon="10.7154467"><ele>391.0</ele><time>2026-03-28T15:43:12.795Z</time></trkpt><trkpt lat="45.6154817" lon="10.7153733"><ele>392.00000000000006</ele><time>2026-03-28T15:43:14.794Z</time></trkpt><trkpt lat="45.615535" lon="10.7153083"><ele>393.0</ele><time>2026-03-28T15:43:16.794Z</time></trkpt><trkpt lat="45.6155917" lon="10.7152383"><ele>394.0</ele><time>2026-03-28T15:43:18.795Z</time></trkpt><trkpt lat="45.6156433" lon="10.715165"><ele>395.0</ele><time>2026-03-28T15:43:20.794Z</time></trkpt><trkpt lat="45.6156983" lon="10.715075"><ele>396.00000000000006</ele><time>2026-03-28T15:43:22.795Z</time></trkpt><trkpt lat="45.6157517" lon="10.71497"><ele>397.0</ele><time>2026-03-28T15:43:24.794Z</time></trkpt><trkpt lat="45.6158" lon="10.714885"><ele>397.42857142857144</ele><time>2026-03-28T15:43:26.794Z</time></trkpt><trkpt lat="45.61584" lon="10.7148083"><ele>397.85714285714283</ele><time>2026-03-28T15:43:28.795Z</time></trkpt><trkpt lat="45.61589" lon="10.7147317"><ele>398.28571428571433</ele><time>2026-03-28T15:43:31.795Z</time></trkpt><trkpt lat="45.6159467" lon="10.7146633"><ele>398.7142857142857</ele><time>2026-03-28T15:43:52.793Z</time></trkpt><trkpt lat="45.6160083" lon="10.7146317"><ele>399.14285714285717</ele><time>2026-03-28T15:43:55.794Z</time></trkpt><trkpt lat="45.6160867" lon="10.714595"><ele>399.5714285714286</ele><time>2026-03-28T15:43:58.793Z</time></trkpt><trkpt lat="45.6161634" lon="10.7145495"><ele>400.0</ele><time>2026-03-28T15:44:14.793Z</time></trkpt><trkpt lat="45.6162285" lon="10.7145015"><ele>402.4</ele><time>2026-03-28T15:44:16.793Z</time></trkpt><trkpt lat="45.6163132" lon="10.7144576"><ele>404.8</ele><time>2026-03-28T15:44:19.793Z</time></trkpt><trkpt lat="45.6163867" lon="10.71443"><ele>407.20000000000005</ele><time>2026-03-28T15:44:21.794Z</time></trkpt><trkpt lat="45.6164733" lon="10.7144133"><ele>409.6</ele><time>2026-03-28T15:44:23.793Z</time></trkpt><trkpt lat="45.61657" lon="10.7144067"><ele>412.0</ele><time>2026-03-28T15:44:25.793Z</time></trkpt><trkpt lat="45.6166867" lon="10.7144217"><ele>412.00000000000006</ele><time>2026-03-28T15:44:27.794Z</time></trkpt><trkpt lat="45.6167883" lon="10.7144717"><ele>412.0</ele><time>2026-03-28T15:44:29.793Z</time></trkpt><trkpt lat="45.6168883" lon="10.7144967"><ele>412.0</ele><time>2026-03-28T15:44:31.794Z</time></trkpt><trkpt lat="45.6169567" lon="10.71451"><ele>412.0</ele><time>2026-03-28T15:44:33.793Z</time></trkpt><trkpt lat="45.6170267" lon="10.714505"><ele>412.00000000000006</ele><time>2026-03-28T15:44:35.793Z</time></trkpt><trkpt lat="45.6171" lon="10.7144917"><ele>412.0</ele><time>2026-03-28T15:44:37.793Z</time></trkpt><trkpt lat="45.6171917" lon="10.7144633"><ele>413.6</ele><time>2026-03-28T15:44:40.793Z</time></trkpt><trkpt lat="45.6172833" lon="10.7144517"><ele>415.20000000000005</ele><time>2026-03-28T15:44:42.793Z</time></trkpt><trkpt lat="45.617375" lon="10.7144533"><ele>416.8</ele><time>2026-03-28T15:44:44.793Z</time></trkpt><trkpt lat="45.6174383" lon="10.714465"><ele>418.4</ele><time>2026-03-28T15:44:46.794Z</time></trkpt><trkpt lat="45.6175183" lon="10.7143967"><ele>420.0</ele><time>2026-03-28T15:53:04.792Z</time></trkpt><trkpt lat="45.6176267" lon="10.7144183"><ele>421.3333333333333</ele><time>2026-03-28T15:53:07.792Z</time></trkpt><trkpt lat="45.6177467" lon="10.7144583"><ele>422.66666666666663</ele><time>2026-03-28T15:53:09.793Z</time></trkpt><trkpt lat="45.6178167" lon="10.71447"><ele>424.0</ele><time>2026-03-28T15:53:10.793Z</time></trkpt><trkpt lat="45.6178883" lon="10.7144617"><ele>425.3333333333333</ele><time>2026-03-28T15:53:11.793Z</time></trkpt><trkpt lat="45.6179533" lon="10.7144417"><ele>426.66666666666663</ele><time>2026-03-28T15:53:12.792Z</time></trkpt><trkpt lat="45.6180217" lon="10.7144167"><ele>428.0</ele><time>2026-03-28T15:53:13.792Z</time></trkpt><trkpt lat="45.6181267" lon="10.7143617"><ele>428.42857142857144</ele><time>2026-03-28T15:53:15.793Z</time></trkpt><trkpt lat="45.6181567" lon="10.71428"><ele>428.8571428571429</ele><time>2026-03-28T15:53:17.793Z</time></trkpt><trkpt lat="45.6181467" lon="10.7141883"><ele>429.28571428571433</ele><time>2026-03-28T15:53:19.793Z</time></trkpt><trkpt lat="45.6181133" lon="10.7140983"><ele>429.7142857142857</ele><time>2026-03-28T15:53:21.792Z</time></trkpt><trkpt lat="45.6180633" lon="10.7140283"><ele>430.1428571428571</ele><time>2026-03-28T15:53:41.791Z</time></trkpt><trkpt lat="45.61807" lon="10.7139383"><ele>430.5714285714286</ele><time>2026-03-28T15:53:44.791Z</time></trkpt><trkpt lat="45.6180917" lon="10.7138067"><ele>431.0</ele><time>2026-03-28T15:53:48.791Z</time></trkpt><trkpt lat="45.618115" lon="10.7136733"><ele>429.16666666666663</ele><time>2026-03-28T15:53:50.792Z</time></trkpt><trkpt lat="45.6181383" lon="10.71356"><ele>427.3333333333333</ele><time>2026-03-28T15:53:52.791Z</time></trkpt><trkpt lat="45.6181617" lon="10.71347"><ele>425.5</ele><time>2026-03-28T15:53:55.791Z</time></trkpt><trkpt lat="45.61821" lon="10.71338"><ele>423.66666666666663</ele><time>2026-03-28T15:53:58.791Z</time></trkpt><trkpt lat="45.61827" lon="10.7133083"><ele>421.8333333333333</ele><time>2026-03-28T15:54:01.792Z</time></trkpt><trkpt lat="45.6181917" lon="10.7132833"><ele>420.0</ele><time>2026-03-28T15:54:22.792Z</time></trkpt><trkpt lat="45.618125" lon="10.7133317"><ele>420.0</ele><time>2026-03-28T15:54:36.792Z</time></trkpt><trkpt lat="45.6179933" lon="10.7133483"><ele>420.0</ele><time>2026-03-28T15:54:38.792Z</time></trkpt><trkpt lat="45.6178917" lon="10.713365"><ele>420.0</ele><time>2026-03-28T15:54:39.792Z</time></trkpt><trkpt lat="45.6177733" lon="10.7133833"><ele>420.0</ele><time>2026-03-28T15:54:40.791Z</time></trkpt><trkpt lat="45.6176417" lon="10.7134067"><ele>418.6</ele><time>2026-03-28T15:54:41.792Z</time></trkpt><trkpt lat="45.617515" lon="10.71345"><ele>417.2</ele><time>2026-03-28T15:54:42.792Z</time></trkpt><trkpt lat="45.61741" lon="10.7134817"><ele>415.79999999999995</ele><time>2026-03-28T15:54:43.792Z</time></trkpt><trkpt lat="45.61734" lon="10.7134833"><ele>414.4</ele><time>2026-03-28T15:54:44.791Z</time></trkpt><trkpt lat="45.61728" lon="10.713445"><ele>413.0</ele><time>2026-03-28T15:54:45.791Z</time></trkpt><trkpt lat="45.6172917" lon="10.7133183"><ele>413.0</ele><time>2026-03-28T15:54:47.791Z</time></trkpt><trkpt lat="45.6173583" lon="10.71324"><ele>413.0</ele><time>2026-03-28T15:54:48.791Z</time></trkpt><trkpt lat="45.6174433" lon="10.7131583"><ele>413.0</ele><time>2026-03-28T15:54:49.791Z</time></trkpt><trkpt lat="45.61755" lon="10.7130683"><ele>413.0</ele><time>2026-03-28T15:54:50.791Z</time></trkpt><trkpt lat="45.6176767" lon="10.7129817"><ele>411.3333333333333</ele><time>2026-03-28T15:54:51.791Z</time></trkpt><trkpt lat="45.6178217" lon="10.7128767"><ele>409.66666666666663</ele><time>2026-03-28T15:54:52.791Z</time></trkpt><trkpt lat="45.6179733" lon="10.7127683"><ele>408.0</ele><time>2026-03-28T15:54:53.791Z</time></trkpt><trkpt lat="45.6181367" lon="10.712645"><ele>408.0</ele><time>2026-03-28T15:54:54.791Z</time></trkpt><trkpt lat="45.6182883" lon="10.7125167"><ele>408.0</ele><time>2026-03-28T15:54:55.791Z</time></trkpt><trkpt lat="45.6184483" lon="10.7123967"><ele>408.0</ele><time>2026-03-28T15:54:56.791Z</time></trkpt><trkpt lat="45.6185917" lon="10.7122917"><ele>407.75</ele><time>2026-03-28T15:54:57.791Z</time></trkpt><trkpt lat="45.6187167" lon="10.7121883"><ele>407.5</ele><time>2026-03-28T15:54:58.791Z</time></trkpt><trkpt lat="45.61881" lon="10.7120767"><ele>407.25</ele><time>2026-03-28T15:54:59.791Z</time></trkpt><trkpt lat="45.6188633" lon="10.711965"><ele>407.0</ele><time>2026-03-28T15:55:00.792Z</time></trkpt><trkpt lat="45.6188883" lon="10.7118383"><ele>407.0</ele><time>2026-03-28T15:55:01.792Z</time></trkpt><trkpt lat="45.618875" lon="10.7117117"><ele>407.0</ele><time>2026-03-28T15:55:02.792Z</time></trkpt><trkpt lat="45.61882" lon="10.7115983"><ele>407.0</ele><time>2026-03-28T15:55:03.792Z</time></trkpt><trkpt lat="45.6187317" lon="10.711495"><ele>407.0</ele><time>2026-03-28T15:55:04.792Z</time></trkpt><trkpt lat="45.6186317" lon="10.7114017"><ele>407.0</ele><time>2026-03-28T15:55:05.791Z</time></trkpt><trkpt lat="45.6185333" lon="10.7113183"><ele>405.25</ele><time>2026-03-28T15:55:06.791Z</time></trkpt><trkpt lat="45.6184217" lon="10.7112783"><ele>403.5</ele><time>2026-03-28T15:55:07.791Z</time></trkpt><trkpt lat="45.6183067" lon="10.7112667"><ele>401.75</ele><time>2026-03-28T15:55:08.792Z</time></trkpt><trkpt lat="45.6181833" lon="10.711285"><ele>400.0</ele><time>2026-03-28T15:55:09.792Z</time></trkpt><trkpt lat="45.6180567" lon="10.7113133"><ele>400.0</ele><time>2026-03-28T15:55:10.791Z</time></trkpt><trkpt lat="45.6179383" lon="10.7113367"><ele>400.0</ele><time>2026-03-28T15:55:11.791Z</time></trkpt><trkpt lat="45.6178317" lon="10.711325"><ele>400.0</ele><time>2026-03-28T15:55:12.791Z</time></trkpt><trkpt lat="45.6177633" lon="10.71127"><ele>400.0</ele><time>2026-03-28T15:55:13.791Z</time></trkpt><trkpt lat="45.6177617" lon="10.7111233"><ele>400.0</ele><time>2026-03-28T15:55:15.792Z</time></trkpt><trkpt lat="45.617885" lon="10.7110633"><ele>400.0</ele><time>2026-03-28T15:55:17.792Z</time></trkpt><trkpt lat="45.6179817" lon="10.711075"><ele>400.0</ele><time>2026-03-28T15:55:18.791Z</time></trkpt><trkpt lat="45.6180883" lon="10.7110783"><ele>400.0</ele><time>2026-03-28T15:55:19.792Z</time></trkpt><trkpt lat="45.61821" lon="10.7110567"><ele>400.0</ele><time>2026-03-28T15:55:20.792Z</time></trkpt><trkpt lat="45.6183383" lon="10.7110133"><ele>399.0</ele><time>2026-03-28T15:55:21.791Z</time></trkpt><trkpt lat="45.6184783" lon="10.7109567"><ele>398.0</ele><time>2026-03-28T15:55:22.792Z</time></trkpt><trkpt lat="45.6186233" lon="10.710875"><ele>397.0</ele><time>2026-03-28T15:55:23.791Z</time></trkpt><trkpt lat="45.61876" lon="10.7107783"><ele>397.0</ele><time>2026-03-28T15:55:24.791Z</time></trkpt><trkpt lat="45.6188833" lon="10.7106633"><ele>397.0</ele><time>2026-03-28T15:55:25.791Z</time></trkpt><trkpt lat="45.6189867" lon="10.7105183"><ele>397.0</ele><time>2026-03-28T15:55:26.792Z</time></trkpt><trkpt lat="45.6190667" lon="10.7103583"><ele>397.0</ele><time>2026-03-28T15:55:27.791Z</time></trkpt><trkpt lat="45.6191167" lon="10.7102033"><ele>395.33333333333337</ele><time>2026-03-28T15:55:28.792Z</time></trkpt><trkpt lat="45.61914" lon="10.7100717"><ele>393.6666666666667</ele><time>2026-03-28T15:55:29.791Z</time></trkpt><trkpt lat="45.6191417" lon="10.7099433"><ele>392.0</ele><time>2026-03-28T15:55:30.792Z</time></trkpt><trkpt lat="45.619115" lon="10.7098267"><ele>390.33333333333337</ele><time>2026-03-28T15:55:31.792Z</time></trkpt><trkpt lat="45.6190833" lon="10.709725"><ele>388.6666666666667</ele><time>2026-03-28T15:55:32.791Z</time></trkpt><trkpt lat="45.619045" lon="10.709625"><ele>387.0</ele><time>2026-03-28T15:55:33.791Z</time></trkpt><trkpt lat="45.619005" lon="10.7095233"><ele>387.0</ele><time>2026-03-28T15:55:34.792Z</time></trkpt><trkpt lat="45.6189617" lon="10.7094317"><ele>387.0</ele><time>2026-03-28T15:55:35.791Z</time></trkpt><trkpt lat="45.6189267" lon="10.7093467"><ele>387.0</ele><time>2026-03-28T15:55:36.791Z</time></trkpt><trkpt lat="45.61888" lon="10.709265"><ele>387.0</ele><time>2026-03-28T15:55:37.792Z</time></trkpt><trkpt lat="45.6188333" lon="10.7091683"><ele>387.0</ele><time>2026-03-28T15:55:38.792Z</time></trkpt><trkpt lat="45.61878" lon="10.7090567"><ele>387.0</ele><time>2026-03-28T15:55:39.792Z</time></trkpt><trkpt lat="45.6187167" lon="10.7089367"><ele>385.5</ele><time>2026-03-28T15:55:40.792Z</time></trkpt><trkpt lat="45.6186483" lon="10.7087967"><ele>384.0</ele><time>2026-03-28T15:55:41.791Z</time></trkpt><trkpt lat="45.61859" lon="10.7086433"><ele>382.5</ele><time>2026-03-28T15:55:42.791Z</time></trkpt><trkpt lat="45.6185333" lon="10.7084867"><ele>381.0</ele><time>2026-03-28T15:55:43.791Z</time></trkpt><trkpt lat="45.6184767" lon="10.7083233"><ele>381.0</ele><time>2026-03-28T15:55:44.792Z</time></trkpt><trkpt lat="45.6184483" lon="10.70814"><ele>381.0</ele><time>2026-03-28T15:55:45.791Z</time></trkpt><trkpt lat="45.6184317" lon="10.7079467"><ele>381.0</ele><time>2026-03-28T15:55:46.791Z</time></trkpt><trkpt lat="45.6184183" lon="10.7077583"><ele>381.0</ele><time>2026-03-28T15:55:47.791Z</time></trkpt><trkpt lat="45.6184083" lon="10.7075883"><ele>381.0</ele><time>2026-03-28T15:55:48.791Z</time></trkpt><trkpt lat="45.6184083" lon="10.70745"><ele>381.0</ele><time>2026-03-28T15:55:49.791Z</time></trkpt><trkpt lat="45.6184167" lon="10.707335"><ele>381.0</ele><time>2026-03-28T15:55:50.791Z</time></trkpt><trkpt lat="45.6184883" lon="10.7074017"><ele>381.0</ele><time>2026-03-28T15:55:53.791Z</time></trkpt><trkpt lat="45.6185067" lon="10.707505"><ele>381.0</ele><time>2026-03-28T15:55:54.791Z</time></trkpt><trkpt lat="45.61852" lon="10.70764"><ele>381.0</ele><time>2026-03-28T15:55:55.792Z</time></trkpt><trkpt lat="45.6185417" lon="10.7078033"><ele>381.0</ele><time>2026-03-28T15:55:56.792Z</time></trkpt><trkpt lat="45.618595" lon="10.70798"><ele>381.0</ele><time>2026-03-28T15:55:57.792Z</time></trkpt><trkpt lat="45.6186833" lon="10.7081617"><ele>381.0</ele><time>2026-03-28T15:55:58.792Z</time></trkpt><trkpt lat="45.61879" lon="10.7083033"><ele>381.0</ele><time>2026-03-28T15:55:59.792Z</time></trkpt><trkpt lat="45.6189117" lon="10.70842"><ele>381.0</ele><time>2026-03-28T15:56:00.791Z</time></trkpt><trkpt lat="45.6190383" lon="10.708505"><ele>381.0</ele><time>2026-03-28T15:56:01.792Z</time></trkpt><trkpt lat="45.6191783" lon="10.7085583"><ele>381.0</ele><time>2026-03-28T15:56:02.792Z</time></trkpt><trkpt lat="45.6193167" lon="10.7085817"><ele>381.0</ele><time>2026-03-28T15:56:03.792Z</time></trkpt><trkpt lat="45.6194517" lon="10.708595"><ele>381.75</ele><time>2026-03-28T15:56:04.791Z</time></trkpt><trkpt lat="45.61959" lon="10.7085883"><ele>382.5</ele><time>2026-03-28T15:56:05.791Z</time></trkpt><trkpt lat="45.6197283" lon="10.708555"><ele>383.25</ele><time>2026-03-28T15:56:06.791Z</time></trkpt><trkpt lat="45.619865" lon="10.708495"><ele>384.0</ele><time>2026-03-28T15:56:07.791Z</time></trkpt><trkpt lat="45.619995" lon="10.7084383"><ele>380.0</ele><time>2026-03-28T15:56:08.792Z</time></trkpt><trkpt lat="45.6201283" lon="10.7083833"><ele>376.0</ele><time>2026-03-28T15:56:09.792Z</time></trkpt><trkpt lat="45.6202567" lon="10.7083417"><ele>372.0</ele><time>2026-03-28T15:56:10.791Z</time></trkpt><trkpt lat="45.6203767" lon="10.708325"><ele>368.0</ele><time>2026-03-28T15:56:11.791Z</time></trkpt><trkpt lat="45.6204783" lon="10.708345"><ele>367.33333333333337</ele><time>2026-03-28T15:56:12.791Z</time></trkpt><trkpt lat="45.6205567" lon="10.7083633"><ele>366.6666666666667</ele><time>2026-03-28T15:56:13.791Z</time></trkpt><trkpt lat="45.6206217" lon="10.70837"><ele>366.0</ele><time>2026-03-28T15:56:14.791Z</time></trkpt><trkpt lat="45.620675" lon="10.708275"><ele>365.3333333333333</ele><time>2026-03-28T15:56:16.791Z</time></trkpt><trkpt lat="45.6206217" lon="10.7082017"><ele>364.66666666666663</ele><time>2026-03-28T15:56:17.792Z</time></trkpt><trkpt lat="45.6205433" lon="10.7081433"><ele>364.0</ele><time>2026-03-28T15:56:18.791Z</time></trkpt><trkpt lat="45.6204517" lon="10.708095"><ele>364.0</ele><time>2026-03-28T15:56:19.791Z</time></trkpt><trkpt lat="45.620345" lon="10.7080517"><ele>364.0</ele><time>2026-03-28T15:56:20.791Z</time></trkpt><trkpt lat="45.620225" lon="10.7080083"><ele>364.0</ele><time>2026-03-28T15:56:21.792Z</time></trkpt><trkpt lat="45.6200967" lon="10.70797"><ele>364.0</ele><time>2026-03-28T15:56:22.791Z</time></trkpt><trkpt lat="45.619955" lon="10.707935"><ele>365.0</ele><time>2026-03-28T15:56:23.792Z</time></trkpt><trkpt lat="45.6198083" lon="10.7078883"><ele>366.0</ele><time>2026-03-28T15:56:24.791Z</time></trkpt><trkpt lat="45.61967" lon="10.70784"><ele>367.0</ele><time>2026-03-28T15:56:25.792Z</time></trkpt><trkpt lat="45.6195483" lon="10.7077883"><ele>368.0</ele><time>2026-03-28T15:56:26.791Z</time></trkpt><trkpt lat="45.61945" lon="10.7077117"><ele>365.59999999999997</ele><time>2026-03-28T15:56:27.792Z</time></trkpt><trkpt lat="45.619395" lon="10.70759"><ele>363.2</ele><time>2026-03-28T15:56:28.792Z</time></trkpt><trkpt lat="45.6193833" lon="10.707455"><ele>360.8</ele><time>2026-03-28T15:56:29.791Z</time></trkpt><trkpt lat="45.619395" lon="10.7072933"><ele>358.4</ele><time>2026-03-28T15:56:30.792Z</time></trkpt><trkpt lat="45.6193983" lon="10.7071367"><ele>356.0</ele><time>2026-03-28T15:56:31.791Z</time></trkpt><trkpt lat="45.6193817" lon="10.7069833"><ele>354.25</ele><time>2026-03-28T15:56:32.792Z</time></trkpt><trkpt lat="45.6193433" lon="10.7068333"><ele>352.5</ele><time>2026-03-28T15:56:33.791Z</time></trkpt><trkpt lat="45.619285" lon="10.7066933"><ele>350.75</ele><time>2026-03-28T15:56:34.791Z</time></trkpt><trkpt lat="45.61922" lon="10.7065533"><ele>349.0</ele><time>2026-03-28T15:56:35.792Z</time></trkpt><trkpt lat="45.6191433" lon="10.7064317"><ele>349.0</ele><time>2026-03-28T15:56:36.791Z</time></trkpt><trkpt lat="45.619055" lon="10.7063167"><ele>349.0</ele><time>2026-03-28T15:56:37.792Z</time></trkpt><trkpt lat="45.6189533" lon="10.7062"><ele>349.0</ele><time>2026-03-28T15:56:38.791Z</time></trkpt><trkpt lat="45.618845" lon="10.7060983"><ele>349.0</ele><time>2026-03-28T15:56:39.791Z</time></trkpt><trkpt lat="45.6187417" lon="10.7059783"><ele>348.25</ele><time>2026-03-28T15:56:40.791Z</time></trkpt><trkpt lat="45.61863" lon="10.70587"><ele>347.5</ele><time>2026-03-28T15:56:41.792Z</time></trkpt><trkpt lat="45.618525" lon="10.705755"><ele>346.75</ele><time>2026-03-28T15:56:42.791Z</time></trkpt><trkpt lat="45.618415" lon="10.7056317"><ele>346.0</ele><time>2026-03-28T15:56:43.791Z</time></trkpt><trkpt lat="45.6183017" lon="10.7055117"><ele>346.0</ele><time>2026-03-28T15:56:44.792Z</time></trkpt><trkpt lat="45.618185" lon="10.7053967"><ele>346.0</ele><time>2026-03-28T15:56:45.792Z</time></trkpt><trkpt lat="45.6180667" lon="10.70528"><ele>346.0</ele><time>2026-03-28T15:56:46.791Z</time></trkpt><trkpt lat="45.6179533" lon="10.70517"><ele>346.0</ele><time>2026-03-28T15:56:47.791Z</time></trkpt><trkpt lat="45.61784" lon="10.7050567"><ele>344.20000000000005</ele><time>2026-03-28T15:56:48.792Z</time></trkpt><trkpt lat="45.6177483" lon="10.704955"><ele>342.40000000000003</ele><time>2026-03-28T15:56:49.791Z</time></trkpt><trkpt lat="45.6176733" lon="10.7048517"><ele>340.6</ele><time>2026-03-28T15:56:50.792Z</time></trkpt><trkpt lat="45.6176033" lon="10.704775"><ele>338.8</ele><time>2026-03-28T15:56:51.792Z</time></trkpt><trkpt lat="45.6175117" lon="10.7047383"><ele>337.0</ele><time>2026-03-28T15:56:52.791Z</time></trkpt><trkpt lat="45.6174133" lon="10.7047333"><ele>337.0</ele><time>2026-03-28T15:56:53.792Z</time></trkpt><trkpt lat="45.617305" lon="10.7047517"><ele>337.0</ele><time>2026-03-28T15:56:54.791Z</time></trkpt><trkpt lat="45.6171867" lon="10.7047767"><ele>337.0</ele><time>2026-03-28T15:56:55.792Z</time></trkpt><trkpt lat="45.617065" lon="10.7048017"><ele>337.0</ele><time>2026-03-28T15:56:56.792Z</time></trkpt><trkpt lat="45.6169317" lon="10.7048233"><ele>336.5</ele><time>2026-03-28T15:56:57.791Z</time></trkpt><trkpt lat="45.6167983" lon="10.70484"><ele>336.0</ele><time>2026-03-28T15:56:58.792Z</time></trkpt><trkpt lat="45.6166733" lon="10.7048533"><ele>335.5</ele><time>2026-03-28T15:56:59.792Z</time></trkpt><trkpt lat="45.6165583" lon="10.7048683"><ele>335.0</ele><time>2026-03-28T15:57:00.792Z</time></trkpt><trkpt lat="45.6164533" lon="10.7048783"><ele>335.0</ele><time>2026-03-28T15:57:01.792Z</time></trkpt><trkpt lat="45.61634" lon="10.7048483"><ele>335.0</ele><time>2026-03-28T15:57:02.791Z</time></trkpt><trkpt lat="45.61624" lon="10.7047917"><ele>335.0</ele><time>2026-03-28T15:57:03.791Z</time></trkpt><trkpt lat="45.6161417" lon="10.70469"><ele>335.0</ele><time>2026-03-28T15:57:04.791Z</time></trkpt><trkpt lat="45.61604" lon="10.704565"><ele>335.5</ele><time>2026-03-28T15:57:05.792Z</time></trkpt><trkpt lat="45.6159367" lon="10.7044417"><ele>336.0</ele><time>2026-03-28T15:57:06.791Z</time></trkpt><trkpt lat="45.615835" lon="10.7043117"><ele>336.5</ele><time>2026-03-28T15:57:07.791Z</time></trkpt><trkpt lat="45.615725" lon="10.7041883"><ele>337.0</ele><time>2026-03-28T15:57:08.791Z</time></trkpt><trkpt lat="45.61561" lon="10.7040617"><ele>333.75</ele><time>2026-03-28T15:57:09.791Z</time></trkpt><trkpt lat="45.615495" lon="10.7039283"><ele>330.5</ele><time>2026-03-28T15:57:10.791Z</time></trkpt><trkpt lat="45.6153833" lon="10.7037933"><ele>327.25</ele><time>2026-03-28T15:57:11.792Z</time></trkpt><trkpt lat="45.6152683" lon="10.7036533"><ele>324.0</ele><time>2026-03-28T15:57:12.791Z</time></trkpt><trkpt lat="45.615145" lon="10.70353"><ele>322.25</ele><time>2026-03-28T15:57:13.792Z</time></trkpt><trkpt lat="45.615025" lon="10.7034017"><ele>320.5</ele><time>2026-03-28T15:57:14.791Z</time></trkpt><trkpt lat="45.6149067" lon="10.7032733"><ele>318.75</ele><time>2026-03-28T15:57:15.792Z</time></trkpt><trkpt lat="45.6147883" lon="10.7031483"><ele>317.0</ele><time>2026-03-28T15:57:16.792Z</time></trkpt><trkpt lat="45.614675" lon="10.703045"><ele>317.0</ele><time>2026-03-28T15:57:17.791Z</time></trkpt><trkpt lat="45.6145567" lon="10.7029733"><ele>317.0</ele><time>2026-03-28T15:57:18.791Z</time></trkpt><trkpt lat="45.6144317" lon="10.7029117"><ele>317.0</ele><time>2026-03-28T15:57:19.791Z</time></trkpt><trkpt lat="45.6143083" lon="10.7028617"><ele>317.0</ele><time>2026-03-28T15:57:20.791Z</time></trkpt><trkpt lat="45.61418" lon="10.7028267"><ele>316.0</ele><time>2026-03-28T15:57:21.792Z</time></trkpt><trkpt lat="45.6140483" lon="10.70279"><ele>315.0</ele><time>2026-03-28T15:57:22.791Z</time></trkpt><trkpt lat="45.61392" lon="10.7027383"><ele>314.0</ele><time>2026-03-28T15:57:23.791Z</time></trkpt><trkpt lat="45.6137967" lon="10.70269"><ele>313.0</ele><time>2026-03-28T15:57:24.791Z</time></trkpt><trkpt lat="45.61368" lon="10.70265"><ele>312.2</ele><time>2026-03-28T15:57:25.791Z</time></trkpt><trkpt lat="45.6135717" lon="10.7026083"><ele>311.4</ele><time>2026-03-28T15:57:26.791Z</time></trkpt><trkpt lat="45.613475" lon="10.7025717"><ele>310.59999999999997</ele><time>2026-03-28T15:57:27.791Z</time></trkpt><trkpt lat="45.6133883" lon="10.70254"><ele>309.8</ele><time>2026-03-28T15:57:28.792Z</time></trkpt><trkpt lat="45.6133083" lon="10.702515"><ele>309.0</ele><time>2026-03-28T15:57:29.791Z</time></trkpt><trkpt lat="45.613225" lon="10.702485"><ele>309.0</ele><time>2026-03-28T15:57:30.791Z</time></trkpt><trkpt lat="45.6131333" lon="10.7024433"><ele>309.0</ele><time>2026-03-28T15:57:31.792Z</time></trkpt><trkpt lat="45.6130333" lon="10.7024033"><ele>309.0</ele><time>2026-03-28T15:57:32.791Z</time></trkpt><trkpt lat="45.6129367" lon="10.702365"><ele>309.0</ele><time>2026-03-28T15:57:33.791Z</time></trkpt><trkpt lat="45.6128383" lon="10.7023183"><ele>309.0</ele><time>2026-03-28T15:57:34.792Z</time></trkpt><trkpt lat="45.612735" lon="10.7022783"><ele>309.0</ele><time>2026-03-28T15:57:35.792Z</time></trkpt><trkpt lat="45.6126317" lon="10.7022417"><ele>309.0</ele><time>2026-03-28T15:57:36.792Z</time></trkpt><trkpt lat="45.6125283" lon="10.7022133"><ele>309.0</ele><time>2026-03-28T15:57:37.792Z</time></trkpt><trkpt lat="45.6124383" lon="10.7021783"><ele>309.0</ele><time>2026-03-28T15:57:38.792Z</time></trkpt><trkpt lat="45.6123633" lon="10.7021483"><ele>309.0</ele><time>2026-03-28T15:57:39.791Z</time></trkpt><trkpt lat="45.6123" lon="10.7021317"><ele>309.0</ele><time>2026-03-28T15:57:40.791Z</time></trkpt><trkpt lat="45.6122383" lon="10.70211"><ele>309.00000000000006</ele><time>2026-03-28T15:57:41.791Z</time></trkpt><trkpt lat="45.6121733" lon="10.7020867"><ele>309.0</ele><time>2026-03-28T15:57:42.79Z</time></trkpt><trkpt lat="45.61211" lon="10.70207"><ele>309.0</ele><time>2026-03-28T15:57:43.791Z</time></trkpt><trkpt lat="45.6120417" lon="10.70205"><ele>309.0</ele><time>2026-03-28T15:57:44.79Z</time></trkpt><trkpt lat="45.6119733" lon="10.7020283"><ele>309.0</ele><time>2026-03-28T15:57:45.791Z</time></trkpt><trkpt lat="45.6119083" lon="10.7020133"><ele>309.00000000000006</ele><time>2026-03-28T15:57:46.79Z</time></trkpt><trkpt lat="45.611845" lon="10.7020133"><ele>309.0</ele><time>2026-03-28T15:57:47.791Z</time></trkpt><trkpt lat="45.6117367" lon="10.7020883"><ele>309.0</ele><time>2026-03-28T15:57:49.79Z</time></trkpt><trkpt lat="45.6116467" lon="10.7021433"><ele>309.0</ele><time>2026-03-28T15:57:51.79Z</time></trkpt><trkpt lat="45.6115567" lon="10.7021083"><ele>309.0</ele><time>2026-03-28T15:57:53.791Z</time></trkpt><trkpt lat="45.61148" lon="10.702015"><ele>309.0</ele><time>2026-03-28T15:57:55.791Z</time></trkpt><trkpt lat="45.6113983" lon="10.70198"><ele>309.0</ele><time>2026-03-28T15:57:57.79Z</time></trkpt><trkpt lat="45.61128" lon="10.701975"><ele>309.0</ele><time>2026-03-28T15:57:59.79Z</time></trkpt><trkpt lat="45.6112117" lon="10.7019333"><ele>309.0</ele><time>2026-03-28T15:58:02.79Z</time></trkpt><trkpt lat="45.61111" lon="10.7019367"><ele>309.0</ele><time>2026-03-28T15:58:15.791Z</time></trkpt><trkpt lat="45.6109733" lon="10.7019517"><ele>309.0</ele><time>2026-03-28T15:58:17.791Z</time></trkpt><trkpt lat="45.610885" lon="10.701955"><ele>309.0</ele><time>2026-03-28T15:58:18.79Z</time></trkpt><trkpt lat="45.6107933" lon="10.7019517"><ele>308.59999999999997</ele><time>2026-03-28T15:58:19.79Z</time></trkpt><trkpt lat="45.6107117" lon="10.70194"><ele>308.2</ele><time>2026-03-28T15:58:20.79Z</time></trkpt><trkpt lat="45.6106283" lon="10.701915"><ele>307.79999999999995</ele><time>2026-03-28T15:58:21.79Z</time></trkpt><trkpt lat="45.6105383" lon="10.701875"><ele>307.4</ele><time>2026-03-28T15:58:22.79Z</time></trkpt><trkpt lat="45.6104467" lon="10.7018217"><ele>307.0</ele><time>2026-03-28T15:58:23.79Z</time></trkpt><trkpt lat="45.6103467" lon="10.7017517"><ele>306.5</ele><time>2026-03-28T15:58:24.79Z</time></trkpt><trkpt lat="45.61024" lon="10.7016683"><ele>306.0</ele><time>2026-03-28T15:58:25.79Z</time></trkpt><trkpt lat="45.6101333" lon="10.701605"><ele>305.5</ele><time>2026-03-28T15:58:26.79Z</time></trkpt><trkpt lat="45.6100283" lon="10.7015433"><ele>305.0</ele><time>2026-03-28T15:58:27.791Z</time></trkpt><trkpt lat="45.60993" lon="10.7014733"><ele>305.0</ele><time>2026-03-28T15:58:28.791Z</time></trkpt><trkpt lat="45.60983" lon="10.7013967"><ele>305.0</ele><time>2026-03-28T15:58:29.79Z</time></trkpt><trkpt lat="45.6097283" lon="10.7013067"><ele>305.0</ele><time>2026-03-28T15:58:30.79Z</time></trkpt><trkpt lat="45.60962" lon="10.7012333"><ele>305.0</ele><time>2026-03-28T15:58:31.791Z</time></trkpt><trkpt lat="45.6095117" lon="10.701175"><ele>305.25</ele><time>2026-03-28T15:58:32.79Z</time></trkpt><trkpt lat="45.609395" lon="10.7011283"><ele>305.5</ele><time>2026-03-28T15:58:33.79Z</time></trkpt><trkpt lat="45.6092733" lon="10.701105"><ele>305.75</ele><time>2026-03-28T15:58:34.79Z</time></trkpt><trkpt lat="45.6091533" lon="10.70108"><ele>306.0</ele><time>2026-03-28T15:58:35.791Z</time></trkpt><trkpt lat="45.6090317" lon="10.7010417"><ele>304.75</ele><time>2026-03-28T15:58:36.79Z</time></trkpt><trkpt lat="45.6089017" lon="10.7010133"><ele>303.5</ele><time>2026-03-28T15:58:37.791Z</time></trkpt><trkpt lat="45.60876" lon="10.70099"><ele>302.25</ele><time>2026-03-28T15:58:38.79Z</time></trkpt><trkpt lat="45.608615" lon="10.7009467"><ele>301.0</ele><time>2026-03-28T15:58:39.791Z</time></trkpt><trkpt lat="45.60847" lon="10.7008983"><ele>301.0</ele><time>2026-03-28T15:58:40.79Z</time></trkpt><trkpt lat="45.60833" lon="10.700835"><ele>301.0</ele><time>2026-03-28T15:58:41.79Z</time></trkpt><trkpt lat="45.6081917" lon="10.700775"><ele>301.0</ele><time>2026-03-28T15:58:42.791Z</time></trkpt><trkpt lat="45.60806" lon="10.7007033"><ele>301.0</ele><time>2026-03-28T15:58:43.791Z</time></trkpt><trkpt lat="45.6079267" lon="10.7006367"><ele>301.75</ele><time>2026-03-28T15:58:44.79Z</time></trkpt><trkpt lat="45.6078" lon="10.7005833"><ele>302.5</ele><time>2026-03-28T15:58:45.79Z</time></trkpt><trkpt lat="45.607675" lon="10.7005433"><ele>303.25</ele><time>2026-03-28T15:58:46.791Z</time></trkpt><trkpt lat="45.60756" lon="10.7005417"><ele>304.0</ele><time>2026-03-28T15:58:47.79Z</time></trkpt><trkpt lat="45.6074567" lon="10.70053"><ele>304.0</ele><time>2026-03-28T15:58:48.791Z</time></trkpt><trkpt lat="45.6073483" lon="10.7005567"><ele>304.0</ele><time>2026-03-28T15:58:49.791Z</time></trkpt><trkpt lat="45.6072367" lon="10.7005533"><ele>304.0</ele><time>2026-03-28T15:58:50.791Z</time></trkpt><trkpt lat="45.6071333" lon="10.7005633"><ele>304.0</ele><time>2026-03-28T15:58:51.79Z</time></trkpt><trkpt lat="45.6070333" lon="10.7005667"><ele>304.0</ele><time>2026-03-28T15:58:52.791Z</time></trkpt><trkpt lat="45.6069383" lon="10.70057"><ele>303.8</ele><time>2026-03-28T15:58:53.79Z</time></trkpt><trkpt lat="45.606845" lon="10.70055"><ele>303.59999999999997</ele><time>2026-03-28T15:58:54.791Z</time></trkpt><trkpt lat="45.606755" lon="10.7004683"><ele>303.4</ele><time>2026-03-28T15:58:56.791Z</time></trkpt><trkpt lat="45.606785" lon="10.7003433"><ele>303.2</ele><time>2026-03-28T15:59:06.79Z</time></trkpt><trkpt lat="45.6068733" lon="10.70022"><ele>303.0</ele><time>2026-03-28T15:59:08.791Z</time></trkpt><trkpt lat="45.60695" lon="10.7001917"><ele>300.6</ele><time>2026-03-28T15:59:09.79Z</time></trkpt><trkpt lat="45.6070433" lon="10.7001733"><ele>298.20000000000005</ele><time>2026-03-28T15:59:10.79Z</time></trkpt><trkpt lat="45.6071483" lon="10.7001617"><ele>295.8</ele><time>2026-03-28T15:59:11.791Z</time></trkpt><trkpt lat="45.6072667" lon="10.7001383"><ele>293.40000000000003</ele><time>2026-03-28T15:59:12.79Z</time></trkpt><trkpt lat="45.6073867" lon="10.70012"><ele>291.0</ele><time>2026-03-28T15:59:13.791Z</time></trkpt><trkpt lat="45.60751" lon="10.7000817"><ele>291.0</ele><time>2026-03-28T15:59:14.79Z</time></trkpt><trkpt lat="45.6076383" lon="10.700025"><ele>291.0</ele><time>2026-03-28T15:59:15.79Z</time></trkpt><trkpt lat="45.6077583" lon="10.6999667"><ele>291.0</ele><time>2026-03-28T15:59:16.79Z</time></trkpt><trkpt lat="45.6078583" lon="10.6999317"><ele>291.0</ele><time>2026-03-28T15:59:17.79Z</time></trkpt><trkpt lat="45.6079583" lon="10.6999233"><ele>289.75</ele><time>2026-03-28T15:59:18.791Z</time></trkpt><trkpt lat="45.6080567" lon="10.6999367"><ele>288.5</ele><time>2026-03-28T15:59:19.79Z</time></trkpt><trkpt lat="45.6081683" lon="10.6999883"><ele>287.25</ele><time>2026-03-28T15:59:20.79Z</time></trkpt><trkpt lat="45.6082967" lon="10.7000333"><ele>286.0</ele><time>2026-03-28T15:59:21.791Z</time></trkpt><trkpt lat="45.608435" lon="10.7000867"><ele>286.0</ele><time>2026-03-28T15:59:22.791Z</time></trkpt><trkpt lat="45.6085767" lon="10.7001167"><ele>286.0</ele><time>2026-03-28T15:59:23.79Z</time></trkpt><trkpt lat="45.6087017" lon="10.7001333"><ele>286.0</ele><time>2026-03-28T15:59:24.79Z</time></trkpt><trkpt lat="45.6088167" lon="10.7001533"><ele>286.0</ele><time>2026-03-28T15:59:25.79Z</time></trkpt><trkpt lat="45.6089167" lon="10.7001683"><ele>284.0</ele><time>2026-03-28T15:59:26.79Z</time></trkpt><trkpt lat="45.6090133" lon="10.7001733"><ele>282.0</ele><time>2026-03-28T15:59:27.791Z</time></trkpt><trkpt lat="45.60911" lon="10.7001883"><ele>280.0</ele><time>2026-03-28T15:59:28.79Z</time></trkpt><trkpt lat="45.6091917" lon="10.7002017"><ele>278.0</ele><time>2026-03-28T15:59:29.791Z</time></trkpt><trkpt lat="45.6092667" lon="10.7001917"><ele>276.0</ele><time>2026-03-28T15:59:30.791Z</time></trkpt><trkpt lat="45.6093183" lon="10.700115"><ele>274.0</ele><time>2026-03-28T15:59:32.791Z</time></trkpt><trkpt lat="45.609175" lon="10.7000033"><ele>274.0</ele><time>2026-03-28T15:59:34.791Z</time></trkpt><trkpt lat="45.60904" lon="10.699965"><ele>274.0</ele><time>2026-03-28T15:59:35.79Z</time></trkpt><trkpt lat="45.6088933" lon="10.699935"><ele>274.0</ele><time>2026-03-28T15:59:36.79Z</time></trkpt><trkpt lat="45.6087717" lon="10.6999067"><ele>274.0</ele><time>2026-03-28T15:59:37.79Z</time></trkpt><trkpt lat="45.608655" lon="10.6998617"><ele>276.4</ele><time>2026-03-28T15:59:38.791Z</time></trkpt><trkpt lat="45.6085467" lon="10.6998133"><ele>278.79999999999995</ele><time>2026-03-28T15:59:39.79Z</time></trkpt><trkpt lat="45.608455" lon="10.699745"><ele>281.20000000000005</ele><time>2026-03-28T15:59:40.79Z</time></trkpt><trkpt lat="45.6083683" lon="10.6996967"><ele>283.6</ele><time>2026-03-28T15:59:41.791Z</time></trkpt><trkpt lat="45.60829" lon="10.6996517"><ele>286.0</ele><time>2026-03-28T15:59:42.79Z</time></trkpt><trkpt lat="45.6082183" lon="10.6996067"><ele>286.0</ele><time>2026-03-28T15:59:43.79Z</time></trkpt><trkpt lat="45.6081283" lon="10.699515"><ele>286.0</ele><time>2026-03-28T15:59:45.79Z</time></trkpt><trkpt lat="45.6080317" lon="10.6994467"><ele>286.0</ele><time>2026-03-28T15:59:47.79Z</time></trkpt><trkpt lat="45.60797" lon="10.6994183"><ele>286.0</ele><time>2026-03-28T15:59:48.79Z</time></trkpt><trkpt lat="45.60789" lon="10.6993883"><ele>286.0</ele><time>2026-03-28T15:59:49.79Z</time></trkpt><trkpt lat="45.60779" lon="10.6993833"><ele>282.25</ele><time>2026-03-28T15:59:50.79Z</time></trkpt><trkpt lat="45.607675" lon="10.6993633"><ele>278.5</ele><time>2026-03-28T15:59:51.79Z</time></trkpt><trkpt lat="45.6075633" lon="10.6993167"><ele>274.75</ele><time>2026-03-28T15:59:52.791Z</time></trkpt><trkpt lat="45.6074583" lon="10.6992283"><ele>271.0</ele><time>2026-03-28T15:59:53.79Z</time></trkpt><trkpt lat="45.6073633" lon="10.69912"><ele>271.0</ele><time>2026-03-28T15:59:54.791Z</time></trkpt><trkpt lat="45.6072867" lon="10.6990083"><ele>271.0</ele><time>2026-03-28T15:59:55.791Z</time></trkpt><trkpt lat="45.6072333" lon="10.6988667"><ele>271.0</ele><time>2026-03-28T15:59:56.791Z</time></trkpt><trkpt lat="45.607195" lon="10.6987117"><ele>271.0</ele><time>2026-03-28T15:59:57.791Z</time></trkpt><trkpt lat="45.6071483" lon="10.69855"><ele>270.0</ele><time>2026-03-28T15:59:58.79Z</time></trkpt><trkpt lat="45.6071033" lon="10.6983933"><ele>269.0</ele><time>2026-03-28T15:59:59.791Z</time></trkpt><trkpt lat="45.60704" lon="10.698255"><ele>268.0</ele><time>2026-03-28T16:00:00.791Z</time></trkpt><trkpt lat="45.6069633" lon="10.6981183"><ele>267.0</ele><time>2026-03-28T16:00:01.791Z</time></trkpt><trkpt lat="45.6068767" lon="10.69799"><ele>267.0</ele><time>2026-03-28T16:00:02.79Z</time></trkpt><trkpt lat="45.6067867" lon="10.6978667"><ele>267.0</ele><time>2026-03-28T16:00:03.791Z</time></trkpt><trkpt lat="45.606715" lon="10.6977317"><ele>267.0</ele><time>2026-03-28T16:00:04.79Z</time></trkpt><trkpt lat="45.6066483" lon="10.6976017"><ele>267.0</ele><time>2026-03-28T16:00:05.79Z</time></trkpt><trkpt lat="45.6065817" lon="10.6974917"><ele>265.3333333333333</ele><time>2026-03-28T16:00:06.79Z</time></trkpt><trkpt lat="45.6065233" lon="10.69739"><ele>263.6666666666667</ele><time>2026-03-28T16:00:07.791Z</time></trkpt><trkpt lat="45.6064683" lon="10.6973133"><ele>262.0</ele><time>2026-03-28T16:00:08.791Z</time></trkpt><trkpt lat="45.6064333" lon="10.6972133"><ele>260.33333333333337</ele><time>2026-03-28T16:00:09.79Z</time></trkpt><trkpt lat="45.606425" lon="10.6971167"><ele>258.6666666666667</ele><time>2026-03-28T16:00:10.79Z</time></trkpt><trkpt lat="45.6064417" lon="10.69702"><ele>257.0</ele><time>2026-03-28T16:00:11.791Z</time></trkpt><trkpt lat="45.6064517" lon="10.6969017"><ele>255.2</ele><time>2026-03-28T16:00:12.79Z</time></trkpt><trkpt lat="45.6064667" lon="10.696765"><ele>253.39999999999998</ele><time>2026-03-28T16:00:13.79Z</time></trkpt><trkpt lat="45.60648" lon="10.696615"><ele>251.60000000000002</ele><time>2026-03-28T16:00:14.79Z</time></trkpt><trkpt lat="45.6064833" lon="10.696485"><ele>249.8</ele><time>2026-03-28T16:00:15.791Z</time></trkpt><trkpt lat="45.6064667" lon="10.696355"><ele>248.0</ele><time>2026-03-28T16:00:16.791Z</time></trkpt><trkpt lat="45.606415" lon="10.6962417"><ele>248.0</ele><time>2026-03-28T16:00:17.791Z</time></trkpt><trkpt lat="45.606335" lon="10.6961483"><ele>248.0</ele><time>2026-03-28T16:00:18.79Z</time></trkpt><trkpt lat="45.6062333" lon="10.6960783"><ele>248.0</ele><time>2026-03-28T16:00:19.791Z</time></trkpt><trkpt lat="45.6061333" lon="10.6960033"><ele>248.0</ele><time>2026-03-28T16:00:20.79Z</time></trkpt><trkpt lat="45.606025" lon="10.6959183"><ele>247.75</ele><time>2026-03-28T16:00:21.79Z</time></trkpt><trkpt lat="45.6059283" lon="10.6958183"><ele>247.5</ele><time>2026-03-28T16:00:22.79Z</time></trkpt><trkpt lat="45.6058283" lon="10.6957117"><ele>247.25</ele><time>2026-03-28T16:00:23.79Z</time></trkpt><trkpt lat="45.6057367" lon="10.695595"><ele>247.0</ele><time>2026-03-28T16:00:24.79Z</time></trkpt><trkpt lat="45.6056583" lon="10.6954883"><ele>246.99999999999997</ele><time>2026-03-28T16:00:25.791Z</time></trkpt><trkpt lat="45.6055933" lon="10.6954117"><ele>247.0</ele><time>2026-03-28T16:00:26.79Z</time></trkpt><trkpt lat="45.6055433" lon="10.6953483"><ele>247.0</ele><time>2026-03-28T16:00:27.791Z</time></trkpt><trkpt lat="45.605525" lon="10.6952283"><ele>247.0</ele><time>2026-03-28T16:00:29.791Z</time></trkpt><trkpt lat="45.6056083" lon="10.6952133"><ele>246.99999999999997</ele><time>2026-03-28T16:00:31.79Z</time></trkpt><trkpt lat="45.6056783" lon="10.69525"><ele>247.0</ele><time>2026-03-28T16:00:32.79Z</time></trkpt><trkpt lat="45.6057667" lon="10.6953233"><ele>247.0</ele><time>2026-03-28T16:00:33.791Z</time></trkpt><trkpt lat="45.605865" lon="10.695405"><ele>247.0</ele><time>2026-03-28T16:00:34.79Z</time></trkpt><trkpt lat="45.6059667" lon="10.69549"><ele>247.0</ele><time>2026-03-28T16:00:35.791Z</time></trkpt><trkpt lat="45.6060667" lon="10.6955617"><ele>247.0</ele><time>2026-03-28T16:00:36.79Z</time></trkpt><trkpt lat="45.6061667" lon="10.69563"><ele>244.66666666666666</ele><time>2026-03-28T16:00:37.79Z</time></trkpt><trkpt lat="45.6062617" lon="10.6956833"><ele>242.33333333333331</ele><time>2026-03-28T16:00:38.79Z</time></trkpt><trkpt lat="45.6063467" lon="10.6957383"><ele>240.0</ele><time>2026-03-28T16:00:39.79Z</time></trkpt><trkpt lat="45.606425" lon="10.695795"><ele>237.66666666666669</ele><time>2026-03-28T16:00:40.79Z</time></trkpt><trkpt lat="45.6065017" lon="10.6958467"><ele>235.33333333333334</ele><time>2026-03-28T16:00:41.79Z</time></trkpt><trkpt lat="45.60657" lon="10.695885"><ele>233.0</ele><time>2026-03-28T16:00:42.791Z</time></trkpt><trkpt lat="45.6066367" lon="10.6959017"><ele>233.00000000000003</ele><time>2026-03-28T16:00:43.79Z</time></trkpt><trkpt lat="45.6067133" lon="10.6959233"><ele>233.0</ele><time>2026-03-28T16:00:44.791Z</time></trkpt><trkpt lat="45.6067883" lon="10.6959683"><ele>233.0</ele><time>2026-03-28T16:00:45.79Z</time></trkpt><trkpt lat="45.60687" lon="10.6960133"><ele>233.0</ele><time>2026-03-28T16:00:46.791Z</time></trkpt><trkpt lat="45.60693" lon="10.6960767"><ele>233.00000000000003</ele><time>2026-03-28T16:00:47.79Z</time></trkpt><trkpt lat="45.6069817" lon="10.6961417"><ele>233.0</ele><time>2026-03-28T16:00:48.79Z</time></trkpt><trkpt lat="45.60703" lon="10.6962033"><ele>232.4</ele><time>2026-03-28T16:00:49.79Z</time></trkpt><trkpt lat="45.607085" lon="10.696255"><ele>231.8</ele><time>2026-03-28T16:00:50.79Z</time></trkpt><trkpt lat="45.6071817" lon="10.6963083"><ele>231.2</ele><time>2026-03-28T16:00:52.791Z</time></trkpt><trkpt lat="45.60723" lon="10.6962133"><ele>230.6</ele><time>2026-03-28T16:00:54.79Z</time></trkpt><trkpt lat="45.6071467" lon="10.69605"><ele>230.0</ele><time>2026-03-28T16:00:56.79Z</time></trkpt><trkpt lat="45.6070783" lon="10.6959517"><ele>230.75</ele><time>2026-03-28T16:00:57.79Z</time></trkpt><trkpt lat="45.6069933" lon="10.6958433"><ele>231.5</ele><time>2026-03-28T16:00:58.791Z</time></trkpt><trkpt lat="45.60691" lon="10.6957283"><ele>232.25</ele><time>2026-03-28T16:00:59.79Z</time></trkpt><trkpt lat="45.6068183" lon="10.69562"><ele>233.0</ele><time>2026-03-28T16:01:00.79Z</time></trkpt><trkpt lat="45.6067217" lon="10.695515"><ele>233.0</ele><time>2026-03-28T16:01:01.791Z</time></trkpt><trkpt lat="45.606625" lon="10.6954117"><ele>233.0</ele><time>2026-03-28T16:01:02.79Z</time></trkpt><trkpt lat="45.6065183" lon="10.6953083"><ele>233.0</ele><time>2026-03-28T16:01:03.791Z</time></trkpt><trkpt lat="45.60641" lon="10.6952033"><ele>233.0</ele><time>2026-03-28T16:01:04.791Z</time></trkpt><trkpt lat="45.6063017" lon="10.6950967"><ele>232.0</ele><time>2026-03-28T16:01:05.791Z</time></trkpt><trkpt lat="45.60619" lon="10.6949817"><ele>231.0</ele><time>2026-03-28T16:01:06.791Z</time></trkpt><trkpt lat="45.606085" lon="10.6948717"><ele>230.0</ele><time>2026-03-28T16:01:07.791Z</time></trkpt><trkpt lat="45.6059983" lon="10.69477"><ele>229.0</ele><time>2026-03-28T16:01:08.791Z</time></trkpt><trkpt lat="45.6059367" lon="10.69469"><ele>228.99999999999997</ele><time>2026-03-28T16:01:09.791Z</time></trkpt><trkpt lat="45.6058783" lon="10.69461"><ele>229.0</ele><time>2026-03-28T16:01:11.791Z</time></trkpt><trkpt lat="45.605925" lon="10.6946767"><ele>229.0</ele><time>2026-03-28T16:01:25.791Z</time></trkpt><trkpt lat="45.6059833" lon="10.6947767"><ele>229.0</ele><time>2026-03-28T16:01:27.791Z</time></trkpt><trkpt lat="45.6060683" lon="10.69488"><ele>228.99999999999997</ele><time>2026-03-28T16:01:29.791Z</time></trkpt><trkpt lat="45.606155" lon="10.6949433"><ele>229.0</ele><time>2026-03-28T16:01:31.79Z</time></trkpt><trkpt lat="45.6062133" lon="10.6948683"><ele>229.0</ele><time>2026-03-28T16:01:34.791Z</time></trkpt><trkpt lat="45.606135" lon="10.6947917"><ele>229.0</ele><time>2026-03-28T16:05:13.789Z</time></trkpt><trkpt lat="45.60601" lon="10.694695"><ele>229.0</ele><time>2026-03-28T16:05:15.789Z</time></trkpt><trkpt lat="45.60593" lon="10.6946017"><ele>229.0</ele><time>2026-03-28T16:05:16.789Z</time></trkpt><trkpt lat="45.6058383" lon="10.694485"><ele>224.25</ele><time>2026-03-28T16:05:17.789Z</time></trkpt><trkpt lat="45.6057383" lon="10.69436"><ele>219.5</ele><time>2026-03-28T16:05:18.79Z</time></trkpt><trkpt lat="45.6056267" lon="10.694215"><ele>214.75</ele><time>2026-03-28T16:05:19.79Z</time></trkpt><trkpt lat="45.6055067" lon="10.6940517"><ele>210.0</ele><time>2026-03-28T16:05:20.79Z</time></trkpt><trkpt lat="45.6053733" lon="10.6939167"><ele>208.66666666666669</ele><time>2026-03-28T16:05:21.789Z</time></trkpt><trkpt lat="45.60525" lon="10.693785"><ele>207.33333333333334</ele><time>2026-03-28T16:05:22.789Z</time></trkpt><trkpt lat="45.6051267" lon="10.693675"><ele>206.0</ele><time>2026-03-28T16:05:23.789Z</time></trkpt><trkpt lat="45.6049983" lon="10.6935483"><ele>206.0</ele><time>2026-03-28T16:05:24.79Z</time></trkpt><trkpt lat="45.6048567" lon="10.6934117"><ele>206.0</ele><time>2026-03-28T16:05:25.789Z</time></trkpt><trkpt lat="45.6047133" lon="10.6933083"><ele>206.0</ele><time>2026-03-28T16:05:26.789Z</time></trkpt><trkpt lat="45.6045867" lon="10.693225"><ele>208.5</ele><time>2026-03-28T16:05:27.79Z</time></trkpt><trkpt lat="45.6044833" lon="10.6931317"><ele>211.0</ele><time>2026-03-28T16:05:28.79Z</time></trkpt><trkpt lat="45.604375" lon="10.6930383"><ele>213.5</ele><time>2026-03-28T16:05:29.79Z</time></trkpt><trkpt lat="45.6042767" lon="10.6929183"><ele>216.0</ele><time>2026-03-28T16:05:30.789Z</time></trkpt><trkpt lat="45.604185" lon="10.6928083"><ele>212.8</ele><time>2026-03-28T16:05:31.79Z</time></trkpt><trkpt lat="45.6040933" lon="10.6927167"><ele>209.60000000000002</ele><time>2026-03-28T16:05:32.789Z</time></trkpt><trkpt lat="45.60402" lon="10.6926267"><ele>206.4</ele><time>2026-03-28T16:05:33.789Z</time></trkpt><trkpt lat="45.60396" lon="10.69254"><ele>203.2</ele><time>2026-03-28T16:05:34.79Z</time></trkpt><trkpt lat="45.60389" lon="10.6924583"><ele>200.0</ele><time>2026-03-28T16:05:35.789Z</time></trkpt><trkpt lat="45.6038117" lon="10.6923817"><ele>200.0</ele><time>2026-03-28T16:05:36.789Z</time></trkpt><trkpt lat="45.60372" lon="10.692305"><ele>200.0</ele><time>2026-03-28T16:05:37.79Z</time></trkpt><trkpt lat="45.6036217" lon="10.692225"><ele>200.0</ele><time>2026-03-28T16:05:38.79Z</time></trkpt><trkpt lat="45.6035183" lon="10.6921517"><ele>200.0</ele><time>2026-03-28T16:05:39.789Z</time></trkpt><trkpt lat="45.603405" lon="10.692075"><ele>198.75</ele><time>2026-03-28T16:05:40.789Z</time></trkpt><trkpt lat="45.6033" lon="10.6919767"><ele>197.5</ele><time>2026-03-28T16:05:41.789Z</time></trkpt><trkpt lat="45.6031783" lon="10.6918983"><ele>196.25</ele><time>2026-03-28T16:05:42.789Z</time></trkpt><trkpt lat="45.6030667" lon="10.6918067"><ele>195.0</ele><time>2026-03-28T16:05:43.789Z</time></trkpt><trkpt lat="45.6029383" lon="10.691715"><ele>197.25</ele><time>2026-03-28T16:05:44.789Z</time></trkpt><trkpt lat="45.6028233" lon="10.6916217"><ele>199.5</ele><time>2026-03-28T16:05:45.789Z</time></trkpt><trkpt lat="45.6027283" lon="10.6915167"><ele>201.75</ele><time>2026-03-28T16:05:46.789Z</time></trkpt><trkpt lat="45.6026333" lon="10.6914167"><ele>204.0</ele><time>2026-03-28T16:05:47.789Z</time></trkpt><trkpt lat="45.6025433" lon="10.6913083"><ele>204.0</ele><time>2026-03-28T16:05:48.789Z</time></trkpt><trkpt lat="45.60244" lon="10.691215"><ele>204.0</ele><time>2026-03-28T16:05:49.789Z</time></trkpt><trkpt lat="45.602335" lon="10.6911067"><ele>204.0</ele><time>2026-03-28T16:05:50.79Z</time></trkpt><trkpt lat="45.60222" lon="10.69101"><ele>204.0</ele><time>2026-03-28T16:05:51.79Z</time></trkpt><trkpt lat="45.6021017" lon="10.6909283"><ele>200.0</ele><time>2026-03-28T16:05:52.789Z</time></trkpt><trkpt lat="45.6019733" lon="10.6908733"><ele>196.0</ele><time>2026-03-28T16:05:53.79Z</time></trkpt><trkpt lat="45.6018433" lon="10.69083"><ele>192.0</ele><time>2026-03-28T16:05:54.79Z</time></trkpt><trkpt lat="45.6017267" lon="10.6907833"><ele>188.0</ele><time>2026-03-28T16:05:55.79Z</time></trkpt><trkpt lat="45.6016217" lon="10.6907367"><ele>188.0</ele><time>2026-03-28T16:05:56.79Z</time></trkpt><trkpt lat="45.6015233" lon="10.6906983"><ele>188.0</ele><time>2026-03-28T16:05:57.789Z</time></trkpt><trkpt lat="45.6014317" lon="10.690655"><ele>188.0</ele><time>2026-03-28T16:05:58.789Z</time></trkpt><trkpt lat="45.601345" lon="10.6906117"><ele>188.0</ele><time>2026-03-28T16:05:59.789Z</time></trkpt><trkpt lat="45.6012633" lon="10.690575"><ele>188.0</ele><time>2026-03-28T16:06:00.79Z</time></trkpt><trkpt lat="45.60118" lon="10.69054"><ele>189.5</ele><time>2026-03-28T16:06:01.789Z</time></trkpt><trkpt lat="45.601095" lon="10.690495"><ele>191.0</ele><time>2026-03-28T16:06:02.79Z</time></trkpt><trkpt lat="45.6010117" lon="10.69044"><ele>192.5</ele><time>2026-03-28T16:06:03.789Z</time></trkpt><trkpt lat="45.6009383" lon="10.6904033"><ele>194.0</ele><time>2026-03-28T16:06:04.789Z</time></trkpt><trkpt lat="45.6008683" lon="10.6903683"><ele>195.50000000000003</ele><time>2026-03-28T16:06:05.789Z</time></trkpt><trkpt lat="45.6008017" lon="10.690345"><ele>197.0</ele><time>2026-03-28T16:06:06.789Z</time></trkpt><trkpt lat="45.600705" lon="10.6903067"><ele>191.6</ele><time>2026-03-28T16:06:08.789Z</time></trkpt><trkpt lat="45.6007583" lon="10.69022"><ele>186.2</ele><time>2026-03-28T16:06:11.789Z</time></trkpt><trkpt lat="45.6008267" lon="10.6902033"><ele>180.8</ele><time>2026-03-28T16:06:12.789Z</time></trkpt><trkpt lat="45.6009317" lon="10.6902217"><ele>175.4</ele><time>2026-03-28T16:06:13.79Z</time></trkpt><trkpt lat="45.6010483" lon="10.6902333"><ele>170.0</ele><time>2026-03-28T16:06:14.79Z</time></trkpt><trkpt lat="45.6011783" lon="10.6902367"><ele>168.5</ele><time>2026-03-28T16:06:15.789Z</time></trkpt><trkpt lat="45.6013183" lon="10.6902333"><ele>167.0</ele><time>2026-03-28T16:06:16.79Z</time></trkpt><trkpt lat="45.6014583" lon="10.6902283"><ele>165.5</ele><time>2026-03-28T16:06:17.79Z</time></trkpt><trkpt lat="45.6016017" lon="10.6902333"><ele>164.0</ele><time>2026-03-28T16:06:18.789Z</time></trkpt><trkpt lat="45.601745" lon="10.6902417"><ele>169.66666666666666</ele><time>2026-03-28T16:06:19.789Z</time></trkpt><trkpt lat="45.6018917" lon="10.6902667"><ele>175.33333333333334</ele><time>2026-03-28T16:06:20.79Z</time></trkpt><trkpt lat="45.602045" lon="10.6902683"><ele>181.0</ele><time>2026-03-28T16:06:21.789Z</time></trkpt><trkpt lat="45.6021983" lon="10.6902667"><ele>181.0</ele><time>2026-03-28T16:06:22.79Z</time></trkpt><trkpt lat="45.60235" lon="10.6902867"><ele>181.0</ele><time>2026-03-28T16:06:23.79Z</time></trkpt><trkpt lat="45.6024967" lon="10.69031"><ele>181.0</ele><time>2026-03-28T16:06:24.79Z</time></trkpt><trkpt lat="45.6026383" lon="10.6903417"><ele>181.0</ele><time>2026-03-28T16:06:25.79Z</time></trkpt><trkpt lat="45.6027733" lon="10.6903533"><ele>178.75</ele><time>2026-03-28T16:06:26.789Z</time></trkpt><trkpt lat="45.602905" lon="10.690355"><ele>176.5</ele><time>2026-03-28T16:06:27.789Z</time></trkpt><trkpt lat="45.603035" lon="10.690345"><ele>174.25</ele><time>2026-03-28T16:06:28.789Z</time></trkpt><trkpt lat="45.603165" lon="10.69034"><ele>172.0</ele><time>2026-03-28T16:06:29.79Z</time></trkpt><trkpt lat="45.6033" lon="10.690335"><ele>172.0</ele><time>2026-03-28T16:06:30.789Z</time></trkpt><trkpt lat="45.6034383" lon="10.6903283"><ele>172.0</ele><time>2026-03-28T16:06:31.79Z</time></trkpt><trkpt lat="45.6035883" lon="10.6903067"><ele>172.0</ele><time>2026-03-28T16:06:32.79Z</time></trkpt><trkpt lat="45.603745" lon="10.6902883"><ele>172.0</ele><time>2026-03-28T16:06:33.789Z</time></trkpt><trkpt lat="45.6039033" lon="10.6902817"><ele>170.25</ele><time>2026-03-28T16:06:34.789Z</time></trkpt><trkpt lat="45.6040483" lon="10.6902967"><ele>168.5</ele><time>2026-03-28T16:06:35.79Z</time></trkpt><trkpt lat="45.6041867" lon="10.6903067"><ele>166.75</ele><time>2026-03-28T16:06:36.789Z</time></trkpt><trkpt lat="45.6043133" lon="10.690315"><ele>165.0</ele><time>2026-03-28T16:06:37.789Z</time></trkpt><trkpt lat="45.6044267" lon="10.6903483"><ele>162.0</ele><time>2026-03-28T16:06:38.789Z</time></trkpt><trkpt lat="45.604545" lon="10.6903967"><ele>159.0</ele><time>2026-03-28T16:06:39.789Z</time></trkpt><trkpt lat="45.604655" lon="10.6904633"><ele>156.0</ele><time>2026-03-28T16:06:40.789Z</time></trkpt><trkpt lat="45.6047667" lon="10.69052"><ele>153.0</ele><time>2026-03-28T16:06:41.789Z</time></trkpt><trkpt lat="45.604885" lon="10.6905617"><ele>153.0</ele><time>2026-03-28T16:06:42.79Z</time></trkpt><trkpt lat="45.6050167" lon="10.6905733"><ele>153.0</ele><time>2026-03-28T16:06:43.79Z</time></trkpt><trkpt lat="45.6051417" lon="10.6905867"><ele>153.0</ele><time>2026-03-28T16:06:44.789Z</time></trkpt><trkpt lat="45.6052667" lon="10.69061"><ele>153.0</ele><time>2026-03-28T16:06:45.79Z</time></trkpt><trkpt lat="45.6053833" lon="10.69065"><ele>149.0</ele><time>2026-03-28T16:06:46.79Z</time></trkpt><trkpt lat="45.6054983" lon="10.6907217"><ele>145.0</ele><time>2026-03-28T16:06:47.79Z</time></trkpt><trkpt lat="45.6056067" lon="10.6908067"><ele>141.0</ele><time>2026-03-28T16:06:48.79Z</time></trkpt><trkpt lat="45.6057117" lon="10.6909067"><ele>137.0</ele><time>2026-03-28T16:06:49.789Z</time></trkpt><trkpt lat="45.6058017" lon="10.6909933"><ele>137.0</ele><time>2026-03-28T16:06:50.79Z</time></trkpt><trkpt lat="45.6058733" lon="10.6910567"><ele>137.0</ele><time>2026-03-28T16:06:51.789Z</time></trkpt><trkpt lat="45.6059767" lon="10.6910517"><ele>137.0</ele><time>2026-03-28T16:06:53.79Z</time></trkpt><trkpt lat="45.605955" lon="10.6909333"><ele>137.0</ele><time>2026-03-28T16:06:55.789Z</time></trkpt><trkpt lat="45.60591" lon="10.6908667"><ele>137.0</ele><time>2026-03-28T16:06:56.789Z</time></trkpt><trkpt lat="45.605845" lon="10.6908"><ele>137.0</ele><time>2026-03-28T16:06:57.789Z</time></trkpt><trkpt lat="45.6057583" lon="10.69071"><ele>137.0</ele><time>2026-03-28T16:06:58.789Z</time></trkpt><trkpt lat="45.6056667" lon="10.6905867"><ele>137.0</ele><time>2026-03-28T16:06:59.79Z</time></trkpt><trkpt lat="45.6055633" lon="10.6904583"><ele>137.0</ele><time>2026-03-28T16:07:00.789Z</time></trkpt><trkpt lat="45.6054433" lon="10.6903333"><ele>137.0</ele><time>2026-03-28T16:07:01.788Z</time></trkpt><trkpt lat="45.6053233" lon="10.6902"><ele>136.0</ele><time>2026-03-28T16:07:02.789Z</time></trkpt><trkpt lat="45.6051933" lon="10.6900767"><ele>135.0</ele><time>2026-03-28T16:07:03.788Z</time></trkpt><trkpt lat="45.6050533" lon="10.6899483"><ele>134.0</ele><time>2026-03-28T16:07:04.789Z</time></trkpt><trkpt lat="45.6049283" lon="10.6898283"><ele>134.0</ele><time>2026-03-28T16:07:05.789Z</time></trkpt><trkpt lat="45.604795" lon="10.689725"><ele>134.0</ele><time>2026-03-28T16:07:06.788Z</time></trkpt><trkpt lat="45.60468" lon="10.689615"><ele>134.0</ele><time>2026-03-28T16:07:07.789Z</time></trkpt><trkpt lat="45.6045683" lon="10.6895283"><ele>134.0</ele><time>2026-03-28T16:07:08.788Z</time></trkpt><trkpt lat="45.6044767" lon="10.689445"><ele>132.83333333333331</ele><time>2026-03-28T16:07:09.789Z</time></trkpt><trkpt lat="45.6043867" lon="10.6893617"><ele>131.66666666666666</ele><time>2026-03-28T16:07:10.789Z</time></trkpt><trkpt lat="45.604345" lon="10.689275"><ele>130.5</ele><time>2026-03-28T16:07:11.789Z</time></trkpt><trkpt lat="45.6044133" lon="10.68918"><ele>129.33333333333334</ele><time>2026-03-28T16:07:14.789Z</time></trkpt><trkpt lat="45.6044833" lon="10.6891967"><ele>128.16666666666669</ele><time>2026-03-28T16:07:15.789Z</time></trkpt><trkpt lat="45.6045733" lon="10.6892383"><ele>127.0</ele><time>2026-03-28T16:07:16.789Z</time></trkpt><trkpt lat="45.60468" lon="10.68928"><ele>125.25</ele><time>2026-03-28T16:07:17.788Z</time></trkpt><trkpt lat="45.6048117" lon="10.6893067"><ele>123.5</ele><time>2026-03-28T16:07:18.789Z</time></trkpt><trkpt lat="45.60495" lon="10.6893417"><ele>121.75</ele><time>2026-03-28T16:07:19.789Z</time></trkpt><trkpt lat="45.605065" lon="10.6893633"><ele>120.0</ele><time>2026-03-28T16:07:20.788Z</time></trkpt><trkpt lat="45.6051867" lon="10.6893717"><ele>120.0</ele><time>2026-03-28T16:07:21.788Z</time></trkpt><trkpt lat="45.60531" lon="10.68942"><ele>120.0</ele><time>2026-03-28T16:07:22.789Z</time></trkpt><trkpt lat="45.6054367" lon="10.6894967"><ele>120.0</ele><time>2026-03-28T16:07:23.788Z</time></trkpt><trkpt lat="45.605575" lon="10.68958"><ele>120.0</ele><time>2026-03-28T16:07:24.789Z</time></trkpt><trkpt lat="45.6057133" lon="10.6896583"><ele>120.25</ele><time>2026-03-28T16:07:25.789Z</time></trkpt><trkpt lat="45.6058383" lon="10.6897433"><ele>120.5</ele><time>2026-03-28T16:07:26.788Z</time></trkpt><trkpt lat="45.6059683" lon="10.689835"><ele>120.75</ele><time>2026-03-28T16:07:27.788Z</time></trkpt><trkpt lat="45.6060833" lon="10.6899417"><ele>121.0</ele><time>2026-03-28T16:07:28.789Z</time></trkpt><trkpt lat="45.6061817" lon="10.69006"><ele>121.25</ele><time>2026-03-28T16:07:29.788Z</time></trkpt><trkpt lat="45.6062817" lon="10.6901783"><ele>121.5</ele><time>2026-03-28T16:07:30.788Z</time></trkpt><trkpt lat="45.60638" lon="10.6903033"><ele>121.75</ele><time>2026-03-28T16:07:31.788Z</time></trkpt><trkpt lat="45.6064867" lon="10.6904083"><ele>122.0</ele><time>2026-03-28T16:07:32.788Z</time></trkpt><trkpt lat="45.6066117" lon="10.6904967"><ele>122.0</ele><time>2026-03-28T16:07:33.789Z</time></trkpt><trkpt lat="45.6067417" lon="10.690575"><ele>122.0</ele><time>2026-03-28T16:07:34.788Z</time></trkpt><trkpt lat="45.606875" lon="10.69065"><ele>122.0</ele><time>2026-03-28T16:07:35.789Z</time></trkpt><trkpt lat="45.6070133" lon="10.6907267"><ele>122.0</ele><time>2026-03-28T16:07:36.789Z</time></trkpt><trkpt lat="45.6071583" lon="10.6907983"><ele>116.0</ele><time>2026-03-28T16:07:37.789Z</time></trkpt><trkpt lat="45.607305" lon="10.6908683"><ele>110.0</ele><time>2026-03-28T16:07:38.789Z</time></trkpt><trkpt lat="45.6074533" lon="10.690935"><ele>104.0</ele><time>2026-03-28T16:07:39.789Z</time></trkpt><trkpt lat="45.6075933" lon="10.690995"><ele>104.0</ele><time>2026-03-28T16:07:40.789Z</time></trkpt><trkpt lat="45.60773" lon="10.6910733"><ele>104.0</ele><time>2026-03-28T16:07:41.789Z</time></trkpt><trkpt lat="45.60786" lon="10.691155"><ele>104.0</ele><time>2026-03-28T16:07:42.789Z</time></trkpt><trkpt lat="45.6080083" lon="10.6911917"><ele>104.0</ele><time>2026-03-28T16:07:43.788Z</time></trkpt><trkpt lat="45.60815" lon="10.6912167"><ele>105.66666666666666</ele><time>2026-03-28T16:07:44.789Z</time></trkpt><trkpt lat="45.6083" lon="10.691215"><ele>107.33333333333334</ele><time>2026-03-28T16:07:45.789Z</time></trkpt><trkpt lat="45.60845" lon="10.6911983"><ele>109.0</ele><time>2026-03-28T16:07:46.789Z</time></trkpt><trkpt lat="45.6086067" lon="10.691195"><ele>105.66666666666667</ele><time>2026-03-28T16:07:47.788Z</time></trkpt><trkpt lat="45.6087617" lon="10.6911967"><ele>102.33333333333334</ele><time>2026-03-28T16:07:48.788Z</time></trkpt><trkpt lat="45.608915" lon="10.6911883"><ele>99.0</ele><time>2026-03-28T16:07:49.788Z</time></trkpt><trkpt lat="45.60907" lon="10.6911783"><ele>99.0</ele><time>2026-03-28T16:07:50.789Z</time></trkpt><trkpt lat="45.6092133" lon="10.691185"><ele>99.0</ele><time>2026-03-28T16:07:51.788Z</time></trkpt><trkpt lat="45.60935" lon="10.6912017"><ele>99.0</ele><time>2026-03-28T16:07:52.789Z</time></trkpt><trkpt lat="45.6094717" lon="10.69122"><ele>99.0</ele><time>2026-03-28T16:07:53.789Z</time></trkpt><trkpt lat="45.6095833" lon="10.69122"><ele>98.6</ele><time>2026-03-28T16:07:54.788Z</time></trkpt><trkpt lat="45.6096833" lon="10.6911717"><ele>98.2</ele><time>2026-03-28T16:07:55.788Z</time></trkpt><trkpt lat="45.6097733" lon="10.691095"><ele>97.8</ele><time>2026-03-28T16:07:56.788Z</time></trkpt><trkpt lat="45.6098283" lon="10.6909683"><ele>97.39999999999999</ele><time>2026-03-28T16:07:57.788Z</time></trkpt><trkpt lat="45.60986" lon="10.6908233"><ele>97.0</ele><time>2026-03-28T16:07:58.789Z</time></trkpt><trkpt lat="45.609875" lon="10.6906533"><ele>89.0</ele><time>2026-03-28T16:07:59.788Z</time></trkpt><trkpt lat="45.6098683" lon="10.6904717"><ele>89.0</ele><time>2026-03-28T16:08:00.789Z</time></trkpt><trkpt lat="45.6098667" lon="10.6902917"><ele>89.0</ele><time>2026-03-28T16:08:01.789Z</time></trkpt><trkpt lat="45.609855" lon="10.6901217"><ele>83.0</ele><time>2026-03-28T16:08:02.789Z</time></trkpt></trkseg><trkseg><trkpt lat="45.6057433" lon="10.68542"><ele>67.99999999999999</ele><time>2026-03-28T16:15:54.842Z</time></trkpt><trkpt lat="45.60566" lon="10.6853167"><ele>68.0</ele><time>2026-03-28T16:17:49.843Z</time></trkpt><trkpt lat="45.6056167" lon="10.68525"><ele>68.0</ele><time>2026-03-28T16:17:52.842Z</time></trkpt><trkpt lat="45.60557" lon="10.6851833"><ele>68.0</ele><time>2026-03-28T16:17:58.842Z</time></trkpt><trkpt lat="45.6055283" lon="10.6851133"><ele>68.0</ele><time>2026-03-28T16:23:21.84Z</time></trkpt><trkpt lat="45.6055033" lon="10.68503"><ele>67.99999999999999</ele><time>2026-03-28T16:23:34.841Z</time></trkpt><trkpt lat="45.6054767" lon="10.6849383"><ele>68.0</ele><time>2026-03-28T16:23:41.841Z</time></trkpt><trkpt lat="45.6054567" lon="10.6848417"><ele>67.42857142857142</ele><time>2026-03-28T16:23:45.841Z</time></trkpt><trkpt lat="45.605415" lon="10.6847417"><ele>66.85714285714286</ele><time>2026-03-28T16:23:50.84Z</time></trkpt><trkpt lat="45.60537" lon="10.68466"><ele>66.28571428571428</ele><time>2026-03-28T16:23:53.84Z</time></trkpt><trkpt lat="45.6053317" lon="10.68456"><ele>65.71428571428571</ele><time>2026-03-28T16:23:56.84Z</time></trkpt><trkpt lat="45.6053033" lon="10.6844733"><ele>65.14285714285714</ele><time>2026-03-28T16:23:58.84Z</time></trkpt><trkpt lat="45.6052717" lon="10.6843817"><ele>64.57142857142857</ele><time>2026-03-28T16:24:00.841Z</time></trkpt><trkpt lat="45.6052417" lon="10.6842917"><ele>64.0</ele><time>2026-03-28T16:24:02.841Z</time></trkpt><trkpt lat="45.60521" lon="10.6842017"><ele>63.83333333333333</ele><time>2026-03-28T16:24:04.84Z</time></trkpt><trkpt lat="45.6051783" lon="10.6841"><ele>63.666666666666664</ele><time>2026-03-28T16:24:06.84Z</time></trkpt><trkpt lat="45.6051483" lon="10.683995"><ele>63.5</ele><time>2026-03-28T16:24:08.84Z</time></trkpt><trkpt lat="45.6051183" lon="10.6838883"><ele>63.33333333333333</ele><time>2026-03-28T16:24:10.841Z</time></trkpt><trkpt lat="45.6050917" lon="10.683775"><ele>63.166666666666664</ele><time>2026-03-28T16:24:12.841Z</time></trkpt><trkpt lat="45.6050683" lon="10.68366"><ele>63.0</ele><time>2026-03-28T16:24:14.841Z</time></trkpt><trkpt lat="45.605045" lon="10.6835467"><ele>62.8</ele><time>2026-03-28T16:24:16.84Z</time></trkpt><trkpt lat="45.6050267" lon="10.68342"><ele>62.599999999999994</ele><time>2026-03-28T16:24:18.841Z</time></trkpt><trkpt lat="45.6050117" lon="10.683295"><ele>62.400000000000006</ele><time>2026-03-28T16:24:20.84Z</time></trkpt><trkpt lat="45.6049983" lon="10.6831633"><ele>62.2</ele><time>2026-03-28T16:24:22.841Z</time></trkpt><trkpt lat="45.6049867" lon="10.683035"><ele>62.0</ele><time>2026-03-28T16:24:24.841Z</time></trkpt><trkpt lat="45.6049717" lon="10.6829083"><ele>62.00000000000001</ele><time>2026-03-28T16:24:26.84Z</time></trkpt><trkpt lat="45.6049567" lon="10.6827883"><ele>62.0</ele><time>2026-03-28T16:24:28.84Z</time></trkpt><trkpt lat="45.604955" lon="10.6826633"><ele>62.0</ele><time>2026-03-28T16:24:30.84Z</time></trkpt><trkpt lat="45.6049567" lon="10.6825317"><ele>62.0</ele><time>2026-03-28T16:24:32.84Z</time></trkpt><trkpt lat="45.6049617" lon="10.6824017"><ele>62.00000000000001</ele><time>2026-03-28T16:24:34.841Z</time></trkpt><trkpt lat="45.6049717" lon="10.6822733"><ele>62.0</ele><time>2026-03-28T16:24:36.84Z</time></trkpt><trkpt lat="45.6049833" lon="10.6821383"><ele>62.0</ele><time>2026-03-28T16:24:38.841Z</time></trkpt><trkpt lat="45.6049983" lon="10.6819983"><ele>62.0</ele><time>2026-03-28T16:24:40.84Z</time></trkpt><trkpt lat="45.60501" lon="10.68187"><ele>62.0</ele><time>2026-03-28T16:24:42.84Z</time></trkpt><trkpt lat="45.6050217" lon="10.6817367"><ele>62.0</ele><time>2026-03-28T16:24:44.84Z</time></trkpt><trkpt lat="45.6050383" lon="10.6816"><ele>62.0</ele><time>2026-03-28T16:24:46.841Z</time></trkpt><trkpt lat="45.60505" lon="10.6814417"><ele>62.0</ele><time>2026-03-28T16:24:48.84Z</time></trkpt><trkpt lat="45.60507" lon="10.6813017"><ele>62.0</ele><time>2026-03-28T16:24:50.84Z</time></trkpt><trkpt lat="45.6050933" lon="10.6811733"><ele>62.0</ele><time>2026-03-28T16:24:52.84Z</time></trkpt><trkpt lat="45.6051283" lon="10.6810517"><ele>62.0</ele><time>2026-03-28T16:24:54.841Z</time></trkpt><trkpt lat="45.6051667" lon="10.6809167"><ele>62.0</ele><time>2026-03-28T16:24:56.841Z</time></trkpt><trkpt lat="45.6051967" lon="10.6807867"><ele>62.0</ele><time>2026-03-28T16:24:58.841Z</time></trkpt><trkpt lat="45.6052333" lon="10.68065"><ele>62.0</ele><time>2026-03-28T16:25:00.841Z</time></trkpt><trkpt lat="45.6052717" lon="10.6805167"><ele>62.0</ele><time>2026-03-28T16:25:02.84Z</time></trkpt><trkpt lat="45.60531" lon="10.6803833"><ele>62.0</ele><time>2026-03-28T16:25:04.841Z</time></trkpt><trkpt lat="45.6053517" lon="10.6802517"><ele>62.0</ele><time>2026-03-28T16:25:06.84Z</time></trkpt><trkpt lat="45.6053967" lon="10.68012"><ele>62.0</ele><time>2026-03-28T16:25:08.84Z</time></trkpt><trkpt lat="45.6054417" lon="10.67999"><ele>62.0</ele><time>2026-03-28T16:25:10.841Z</time></trkpt><trkpt lat="45.60548" lon="10.6798567"><ele>62.0</ele><time>2026-03-28T16:25:12.841Z</time></trkpt><trkpt lat="45.60552" lon="10.6797267"><ele>62.0</ele><time>2026-03-28T16:25:14.841Z</time></trkpt><trkpt lat="45.6055683" lon="10.6795983"><ele>62.0</ele><time>2026-03-28T16:25:16.841Z</time></trkpt><trkpt lat="45.6056167" lon="10.6794717"><ele>62.0</ele><time>2026-03-28T16:25:18.84Z</time></trkpt><trkpt lat="45.605665" lon="10.6793433"><ele>62.0</ele><time>2026-03-28T16:25:20.84Z</time></trkpt><trkpt lat="45.605715" lon="10.679215"><ele>62.0</ele><time>2026-03-28T16:25:22.84Z</time></trkpt><trkpt lat="45.60576" lon="10.6790867"><ele>62.0</ele><time>2026-03-28T16:25:24.84Z</time></trkpt><trkpt lat="45.6057967" lon="10.678975"><ele>62.0</ele><time>2026-03-28T16:25:26.84Z</time></trkpt><trkpt lat="45.6058467" lon="10.6788533"><ele>62.0</ele><time>2026-03-28T16:25:28.84Z</time></trkpt><trkpt lat="45.605895" lon="10.6787317"><ele>62.0</ele><time>2026-03-28T16:25:30.84Z</time></trkpt><trkpt lat="45.6059483" lon="10.6786067"><ele>62.0</ele><time>2026-03-28T16:25:32.84Z</time></trkpt><trkpt lat="45.606005" lon="10.6784767"><ele>62.0</ele><time>2026-03-28T16:25:34.84Z</time></trkpt><trkpt lat="45.6060617" lon="10.678345"><ele>62.0</ele><time>2026-03-28T16:25:36.841Z</time></trkpt><trkpt lat="45.6061183" lon="10.6782083"><ele>62.0</ele><time>2026-03-28T16:25:38.841Z</time></trkpt><trkpt lat="45.60617" lon="10.6780767"><ele>62.0</ele><time>2026-03-28T16:25:40.84Z</time></trkpt><trkpt lat="45.60622" lon="10.6779483"><ele>62.0</ele><time>2026-03-28T16:25:42.84Z</time></trkpt><trkpt lat="45.60627" lon="10.6778217"><ele>62.0</ele><time>2026-03-28T16:25:44.84Z</time></trkpt><trkpt lat="45.60632" lon="10.677705"><ele>62.0</ele><time>2026-03-28T16:25:46.841Z</time></trkpt><trkpt lat="45.6063683" lon="10.6775883"><ele>62.0</ele><time>2026-03-28T16:25:48.841Z</time></trkpt><trkpt lat="45.6064167" lon="10.6774583"><ele>62.0</ele><time>2026-03-28T16:25:50.84Z</time></trkpt><trkpt lat="45.6064667" lon="10.6773283"><ele>62.0</ele><time>2026-03-28T16:25:52.84Z</time></trkpt><trkpt lat="45.60652" lon="10.6771967"><ele>62.0</ele><time>2026-03-28T16:25:54.841Z</time></trkpt><trkpt lat="45.6065717" lon="10.6770567"><ele>62.0</ele><time>2026-03-28T16:25:56.841Z</time></trkpt><trkpt lat="45.6066183" lon="10.676925"><ele>62.0</ele><time>2026-03-28T16:25:58.841Z</time></trkpt><trkpt lat="45.6066683" lon="10.67679"><ele>62.0</ele><time>2026-03-28T16:26:00.841Z</time></trkpt><trkpt lat="45.6067183" lon="10.676655"><ele>62.0</ele><time>2026-03-28T16:26:02.84Z</time></trkpt><trkpt lat="45.6067633" lon="10.676525"><ele>62.0</ele><time>2026-03-28T16:26:04.84Z</time></trkpt><trkpt lat="45.6068083" lon="10.6763867"><ele>62.0</ele><time>2026-03-28T16:26:06.841Z</time></trkpt><trkpt lat="45.6068583" lon="10.6762483"><ele>62.0</ele><time>2026-03-28T16:26:08.84Z</time></trkpt><trkpt lat="45.6069083" lon="10.6761167"><ele>62.0</ele><time>2026-03-28T16:26:10.84Z</time></trkpt><trkpt lat="45.606955" lon="10.6759767"><ele>62.0</ele><time>2026-03-28T16:26:12.84Z</time></trkpt><trkpt lat="45.607" lon="10.675845"><ele>62.0</ele><time>2026-03-28T16:26:14.841Z</time></trkpt><trkpt lat="45.607045" lon="10.6757167"><ele>62.0</ele><time>2026-03-28T16:26:16.84Z</time></trkpt><trkpt lat="45.6070917" lon="10.6755867"><ele>62.0</ele><time>2026-03-28T16:26:18.841Z</time></trkpt><trkpt lat="45.6071333" lon="10.6754583"><ele>62.0</ele><time>2026-03-28T16:26:20.84Z</time></trkpt><trkpt lat="45.6071767" lon="10.6753217"><ele>62.0</ele><time>2026-03-28T16:26:22.841Z</time></trkpt><trkpt lat="45.6072167" lon="10.6751967"><ele>62.0</ele><time>2026-03-28T16:26:24.84Z</time></trkpt><trkpt lat="45.607265" lon="10.6750733"><ele>62.0</ele><time>2026-03-28T16:26:26.841Z</time></trkpt><trkpt lat="45.6073167" lon="10.6749517"><ele>62.0</ele><time>2026-03-28T16:26:28.841Z</time></trkpt><trkpt lat="45.6073683" lon="10.67483"><ele>62.0</ele><time>2026-03-28T16:26:30.84Z</time></trkpt><trkpt lat="45.6074183" lon="10.6747"><ele>62.0</ele><time>2026-03-28T16:26:32.84Z</time></trkpt><trkpt lat="45.607465" lon="10.6745683"><ele>62.0</ele><time>2026-03-28T16:26:34.84Z</time></trkpt><trkpt lat="45.6075117" lon="10.674425"><ele>62.0</ele><time>2026-03-28T16:26:36.841Z</time></trkpt><trkpt lat="45.607545" lon="10.674305"><ele>62.0</ele><time>2026-03-28T16:26:38.84Z</time></trkpt><trkpt lat="45.6075833" lon="10.6741867"><ele>62.0</ele><time>2026-03-28T16:26:40.841Z</time></trkpt><trkpt lat="45.6076483" lon="10.6740567"><ele>62.0</ele><time>2026-03-28T16:26:42.841Z</time></trkpt><trkpt lat="45.6077067" lon="10.6739267"><ele>62.0</ele><time>2026-03-28T16:26:44.84Z</time></trkpt><trkpt lat="45.607765" lon="10.6738"><ele>62.0</ele><time>2026-03-28T16:26:46.84Z</time></trkpt><trkpt lat="45.6078167" lon="10.6736583"><ele>62.0</ele><time>2026-03-28T16:26:48.841Z</time></trkpt><trkpt lat="45.6078683" lon="10.6735283"><ele>62.0</ele><time>2026-03-28T16:26:50.841Z</time></trkpt><trkpt lat="45.6079183" lon="10.673405"><ele>62.0</ele><time>2026-03-28T16:26:52.84Z</time></trkpt><trkpt lat="45.607965" lon="10.673275"><ele>62.0</ele><time>2026-03-28T16:26:54.84Z</time></trkpt><trkpt lat="45.6080083" lon="10.6731517"><ele>62.0</ele><time>2026-03-28T16:26:56.84Z</time></trkpt><trkpt lat="45.6080517" lon="10.6730217"><ele>62.0</ele><time>2026-03-28T16:26:58.841Z</time></trkpt><trkpt lat="45.6080967" lon="10.67289"><ele>62.0</ele><time>2026-03-28T16:27:00.84Z</time></trkpt><trkpt lat="45.60813" lon="10.6727533"><ele>62.0</ele><time>2026-03-28T16:27:02.84Z</time></trkpt><trkpt lat="45.60817" lon="10.6726233"><ele>62.0</ele><time>2026-03-28T16:27:04.841Z</time></trkpt><trkpt lat="45.6082133" lon="10.6724933"><ele>62.0</ele><time>2026-03-28T16:27:06.84Z</time></trkpt><trkpt lat="45.6082583" lon="10.672375"><ele>62.0</ele><time>2026-03-28T16:27:08.841Z</time></trkpt><trkpt lat="45.60831" lon="10.672235"><ele>62.0</ele><time>2026-03-28T16:27:10.84Z</time></trkpt><trkpt lat="45.60836" lon="10.6720883"><ele>62.0</ele><time>2026-03-28T16:27:12.84Z</time></trkpt><trkpt lat="45.60841" lon="10.6719567"><ele>62.0</ele><time>2026-03-28T16:27:14.841Z</time></trkpt><trkpt lat="45.6084617" lon="10.6718267"><ele>62.0</ele><time>2026-03-28T16:27:16.841Z</time></trkpt><trkpt lat="45.6084983" lon="10.6716933"><ele>62.0</ele><time>2026-03-28T16:27:18.841Z</time></trkpt><trkpt lat="45.608535" lon="10.6715733"><ele>62.0</ele><time>2026-03-28T16:27:20.841Z</time></trkpt><trkpt lat="45.6085733" lon="10.6714567"><ele>62.0</ele><time>2026-03-28T16:27:22.84Z</time></trkpt><trkpt lat="45.608605" lon="10.67134"><ele>62.0</ele><time>2026-03-28T16:27:24.841Z</time></trkpt><trkpt lat="45.6086517" lon="10.671215"><ele>62.0</ele><time>2026-03-28T16:27:26.841Z</time></trkpt><trkpt lat="45.6087" lon="10.671085"><ele>62.0</ele><time>2026-03-28T16:27:28.84Z</time></trkpt><trkpt lat="45.6087533" lon="10.6709533"><ele>62.0</ele><time>2026-03-28T16:27:30.84Z</time></trkpt><trkpt lat="45.6088117" lon="10.6708167"><ele>62.0</ele><time>2026-03-28T16:27:32.841Z</time></trkpt><trkpt lat="45.6088667" lon="10.6706867"><ele>62.0</ele><time>2026-03-28T16:27:34.84Z</time></trkpt><trkpt lat="45.6089183" lon="10.6705467"><ele>62.0</ele><time>2026-03-28T16:27:36.84Z</time></trkpt><trkpt lat="45.6089783" lon="10.6704"><ele>62.0</ele><time>2026-03-28T16:27:38.841Z</time></trkpt><trkpt lat="45.6090133" lon="10.67027"><ele>62.0</ele><time>2026-03-28T16:27:40.841Z</time></trkpt><trkpt lat="45.609045" lon="10.6701483"><ele>62.0</ele><time>2026-03-28T16:27:42.84Z</time></trkpt><trkpt lat="45.6090833" lon="10.670025"><ele>62.0</ele><time>2026-03-28T16:27:44.84Z</time></trkpt><trkpt lat="45.609125" lon="10.6699"><ele>62.0</ele><time>2026-03-28T16:27:46.84Z</time></trkpt><trkpt lat="45.6091717" lon="10.66977"><ele>62.0</ele><time>2026-03-28T16:27:48.84Z</time></trkpt><trkpt lat="45.60922" lon="10.66964"><ele>62.0</ele><time>2026-03-28T16:27:50.841Z</time></trkpt><trkpt lat="45.6092633" lon="10.6695117"><ele>62.0</ele><time>2026-03-28T16:27:52.84Z</time></trkpt><trkpt lat="45.6093067" lon="10.6693717"><ele>62.0</ele><time>2026-03-28T16:27:54.841Z</time></trkpt><trkpt lat="45.609365" lon="10.6692333"><ele>62.0</ele><time>2026-03-28T16:27:56.84Z</time></trkpt><trkpt lat="45.6094283" lon="10.6690967"><ele>62.0</ele><time>2026-03-28T16:27:58.841Z</time></trkpt><trkpt lat="45.609495" lon="10.668945"><ele>62.0</ele><time>2026-03-28T16:28:00.84Z</time></trkpt><trkpt lat="45.6095267" lon="10.6688633"><ele>62.0</ele><time>2026-03-28T16:28:01.84Z</time></trkpt><trkpt lat="45.6095817" lon="10.6687233"><ele>62.0</ele><time>2026-03-28T16:28:03.84Z</time></trkpt><trkpt lat="45.60963" lon="10.6685883"><ele>62.0</ele><time>2026-03-28T16:28:05.841Z</time></trkpt><trkpt lat="45.6096783" lon="10.66845"><ele>62.0</ele><time>2026-03-28T16:28:07.841Z</time></trkpt><trkpt lat="45.6097283" lon="10.6683083"><ele>62.0</ele><time>2026-03-28T16:28:09.841Z</time></trkpt><trkpt lat="45.60977" lon="10.668175"><ele>62.0</ele><time>2026-03-28T16:28:11.84Z</time></trkpt><trkpt lat="45.6098167" lon="10.6680617"><ele>62.0</ele><time>2026-03-28T16:28:13.84Z</time></trkpt><trkpt lat="45.6098633" lon="10.667945"><ele>62.0</ele><time>2026-03-28T16:28:15.841Z</time></trkpt><trkpt lat="45.6099117" lon="10.6678233"><ele>62.0</ele><time>2026-03-28T16:28:17.841Z</time></trkpt><trkpt lat="45.609955" lon="10.6676967"><ele>62.0</ele><time>2026-03-28T16:28:19.84Z</time></trkpt><trkpt lat="45.6099883" lon="10.6675733"><ele>62.0</ele><time>2026-03-28T16:28:21.84Z</time></trkpt><trkpt lat="45.6100233" lon="10.667445"><ele>62.0</ele><time>2026-03-28T16:28:23.84Z</time></trkpt><trkpt lat="45.6100633" lon="10.6673183"><ele>62.0</ele><time>2026-03-28T16:28:25.84Z</time></trkpt><trkpt lat="45.6101183" lon="10.6671833"><ele>62.0</ele><time>2026-03-28T16:28:27.84Z</time></trkpt><trkpt lat="45.610175" lon="10.667045"><ele>62.0</ele><time>2026-03-28T16:28:29.841Z</time></trkpt><trkpt lat="45.6102333" lon="10.6669117"><ele>62.0</ele><time>2026-03-28T16:28:31.841Z</time></trkpt><trkpt lat="45.61029" lon="10.66678"><ele>62.0</ele><time>2026-03-28T16:28:33.84Z</time></trkpt><trkpt lat="45.6103467" lon="10.6666433"><ele>62.0</ele><time>2026-03-28T16:28:35.841Z</time></trkpt><trkpt lat="45.6104067" lon="10.6665183"><ele>62.0</ele><time>2026-03-28T16:28:37.841Z</time></trkpt><trkpt lat="45.6104467" lon="10.6663983"><ele>62.0</ele><time>2026-03-28T16:28:39.841Z</time></trkpt><trkpt lat="45.61049" lon="10.6662767"><ele>62.0</ele><time>2026-03-28T16:28:41.84Z</time></trkpt><trkpt lat="45.6105367" lon="10.66615"><ele>62.0</ele><time>2026-03-28T16:28:43.84Z</time></trkpt><trkpt lat="45.6105783" lon="10.6660083"><ele>62.0</ele><time>2026-03-28T16:28:45.841Z</time></trkpt><trkpt lat="45.6106133" lon="10.6658767"><ele>62.0</ele><time>2026-03-28T16:28:47.84Z</time></trkpt><trkpt lat="45.610655" lon="10.665745"><ele>62.0</ele><time>2026-03-28T16:28:49.84Z</time></trkpt><trkpt lat="45.6106967" lon="10.6656083"><ele>62.0</ele><time>2026-03-28T16:28:51.841Z</time></trkpt><trkpt lat="45.6107383" lon="10.66547"><ele>62.0</ele><time>2026-03-28T16:28:53.84Z</time></trkpt><trkpt lat="45.6107833" lon="10.6653333"><ele>62.0</ele><time>2026-03-28T16:28:55.84Z</time></trkpt><trkpt lat="45.6108267" lon="10.6652017"><ele>62.0</ele><time>2026-03-28T16:28:57.841Z</time></trkpt><trkpt lat="45.6108683" lon="10.6650717"><ele>62.0</ele><time>2026-03-28T16:28:59.84Z</time></trkpt><trkpt lat="45.610915" lon="10.6649417"><ele>62.0</ele><time>2026-03-28T16:29:01.841Z</time></trkpt><trkpt lat="45.61096" lon="10.6648117"><ele>62.0</ele><time>2026-03-28T16:29:03.841Z</time></trkpt><trkpt lat="45.6110067" lon="10.664685"><ele>62.0</ele><time>2026-03-28T16:29:05.841Z</time></trkpt><trkpt lat="45.6110483" lon="10.6645667"><ele>62.0</ele><time>2026-03-28T16:29:07.84Z</time></trkpt><trkpt lat="45.6111017" lon="10.6644317"><ele>62.0</ele><time>2026-03-28T16:29:09.84Z</time></trkpt><trkpt lat="45.6111533" lon="10.664295"><ele>62.0</ele><time>2026-03-28T16:29:11.841Z</time></trkpt><trkpt lat="45.611205" lon="10.66415"><ele>62.0</ele><time>2026-03-28T16:29:13.841Z</time></trkpt><trkpt lat="45.6112517" lon="10.6640267"><ele>62.0</ele><time>2026-03-28T16:29:15.841Z</time></trkpt><trkpt lat="45.6112933" lon="10.663895"><ele>62.0</ele><time>2026-03-28T16:29:17.84Z</time></trkpt><trkpt lat="45.6113367" lon="10.6637667"><ele>62.0</ele><time>2026-03-28T16:29:19.84Z</time></trkpt><trkpt lat="45.611385" lon="10.6636333"><ele>62.0</ele><time>2026-03-28T16:29:21.841Z</time></trkpt><trkpt lat="45.611435" lon="10.6635133"><ele>62.0</ele><time>2026-03-28T16:29:23.84Z</time></trkpt><trkpt lat="45.6114883" lon="10.66339"><ele>62.0</ele><time>2026-03-28T16:29:25.841Z</time></trkpt><trkpt lat="45.611545" lon="10.6632483"><ele>62.0</ele><time>2026-03-28T16:29:27.84Z</time></trkpt><trkpt lat="45.6115983" lon="10.6631017"><ele>62.0</ele><time>2026-03-28T16:29:29.84Z</time></trkpt><trkpt lat="45.61165" lon="10.66296"><ele>62.0</ele><time>2026-03-28T16:29:31.841Z</time></trkpt><trkpt lat="45.6116967" lon="10.6628217"><ele>62.0</ele><time>2026-03-28T16:29:33.841Z</time></trkpt><trkpt lat="45.6117467" lon="10.662675"><ele>62.0</ele><time>2026-03-28T16:29:35.84Z</time></trkpt><trkpt lat="45.6117867" lon="10.662535"><ele>62.0</ele><time>2026-03-28T16:29:37.841Z</time></trkpt><trkpt lat="45.611825" lon="10.6624067"><ele>62.0</ele><time>2026-03-28T16:29:39.841Z</time></trkpt><trkpt lat="45.6118683" lon="10.6622867"><ele>62.0</ele><time>2026-03-28T16:29:41.841Z</time></trkpt><trkpt lat="45.6119067" lon="10.662155"><ele>62.0</ele><time>2026-03-28T16:29:43.84Z</time></trkpt><trkpt lat="45.6119467" lon="10.662025"><ele>62.0</ele><time>2026-03-28T16:29:45.841Z</time></trkpt><trkpt lat="45.6119867" lon="10.661895"><ele>62.0</ele><time>2026-03-28T16:29:47.84Z</time></trkpt><trkpt lat="45.6120317" lon="10.6617633"><ele>62.0</ele><time>2026-03-28T16:29:49.841Z</time></trkpt><trkpt lat="45.6120767" lon="10.6616283"><ele>62.0</ele><time>2026-03-28T16:29:51.84Z</time></trkpt><trkpt lat="45.612125" lon="10.6615017"><ele>62.0</ele><time>2026-03-28T16:29:53.841Z</time></trkpt><trkpt lat="45.61217" lon="10.6613683"><ele>62.0</ele><time>2026-03-28T16:29:55.841Z</time></trkpt><trkpt lat="45.61221" lon="10.6612383"><ele>62.0</ele><time>2026-03-28T16:29:57.841Z</time></trkpt><trkpt lat="45.6122533" lon="10.661105"><ele>62.0</ele><time>2026-03-28T16:29:59.841Z</time></trkpt><trkpt lat="45.6122933" lon="10.66097"><ele>62.0</ele><time>2026-03-28T16:30:01.841Z</time></trkpt><trkpt lat="45.612335" lon="10.6608367"><ele>62.0</ele><time>2026-03-28T16:30:03.84Z</time></trkpt><trkpt lat="45.6123767" lon="10.6607017"><ele>62.0</ele><time>2026-03-28T16:30:05.84Z</time></trkpt><trkpt lat="45.61242" lon="10.6605733"><ele>62.0</ele><time>2026-03-28T16:30:07.84Z</time></trkpt><trkpt lat="45.6124583" lon="10.660445"><ele>62.0</ele><time>2026-03-28T16:30:09.84Z</time></trkpt><trkpt lat="45.6125" lon="10.66032"><ele>62.0</ele><time>2026-03-28T16:30:11.841Z</time></trkpt><trkpt lat="45.6125383" lon="10.6601783"><ele>62.0</ele><time>2026-03-28T16:30:13.841Z</time></trkpt><trkpt lat="45.6125767" lon="10.6600383"><ele>62.0</ele><time>2026-03-28T16:30:15.84Z</time></trkpt><trkpt lat="45.6126167" lon="10.659905"><ele>62.0</ele><time>2026-03-28T16:30:17.84Z</time></trkpt><trkpt lat="45.6126567" lon="10.6597683"><ele>62.0</ele><time>2026-03-28T16:30:19.84Z</time></trkpt><trkpt lat="45.6126983" lon="10.6596317"><ele>62.0</ele><time>2026-03-28T16:30:21.841Z</time></trkpt><trkpt lat="45.6127383" lon="10.6595067"><ele>62.0</ele><time>2026-03-28T16:30:23.841Z</time></trkpt><trkpt lat="45.612775" lon="10.6593867"><ele>62.0</ele><time>2026-03-28T16:30:25.84Z</time></trkpt><trkpt lat="45.61281" lon="10.6592617"><ele>62.0</ele><time>2026-03-28T16:30:27.84Z</time></trkpt><trkpt lat="45.6128467" lon="10.6591317"><ele>62.0</ele><time>2026-03-28T16:30:29.841Z</time></trkpt><trkpt lat="45.6128883" lon="10.6590017"><ele>62.0</ele><time>2026-03-28T16:30:31.84Z</time></trkpt><trkpt lat="45.6129333" lon="10.6588683"><ele>62.0</ele><time>2026-03-28T16:30:33.841Z</time></trkpt><trkpt lat="45.6129683" lon="10.6587367"><ele>62.0</ele><time>2026-03-28T16:30:35.84Z</time></trkpt><trkpt lat="45.613005" lon="10.6585967"><ele>62.0</ele><time>2026-03-28T16:30:37.841Z</time></trkpt><trkpt lat="45.6130467" lon="10.6584567"><ele>62.0</ele><time>2026-03-28T16:30:39.841Z</time></trkpt><trkpt lat="45.6130933" lon="10.658315"><ele>62.0</ele><time>2026-03-28T16:30:41.84Z</time></trkpt><trkpt lat="45.6131417" lon="10.65816"><ele>62.0</ele><time>2026-03-28T16:30:43.84Z</time></trkpt><trkpt lat="45.6131867" lon="10.6580283"><ele>62.0</ele><time>2026-03-28T16:30:45.84Z</time></trkpt><trkpt lat="45.6132283" lon="10.6578983"><ele>62.0</ele><time>2026-03-28T16:30:47.841Z</time></trkpt><trkpt lat="45.6132667" lon="10.657755"><ele>62.0</ele><time>2026-03-28T16:30:49.841Z</time></trkpt><trkpt lat="45.613315" lon="10.6576133"><ele>62.0</ele><time>2026-03-28T16:30:51.84Z</time></trkpt><trkpt lat="45.61336" lon="10.6574683"><ele>62.0</ele><time>2026-03-28T16:30:53.84Z</time></trkpt><trkpt lat="45.6134067" lon="10.6573367"><ele>62.0</ele><time>2026-03-28T16:30:55.84Z</time></trkpt><trkpt lat="45.6134567" lon="10.657195"><ele>62.0</ele><time>2026-03-28T16:30:57.841Z</time></trkpt><trkpt lat="45.6135067" lon="10.657055"><ele>62.0</ele><time>2026-03-28T16:30:59.841Z</time></trkpt><trkpt lat="45.6135433" lon="10.6569133"><ele>62.0</ele><time>2026-03-28T16:31:01.841Z</time></trkpt><trkpt lat="45.6135817" lon="10.65677"><ele>62.0</ele><time>2026-03-28T16:31:03.84Z</time></trkpt><trkpt lat="45.6136217" lon="10.6566383"><ele>62.0</ele><time>2026-03-28T16:31:05.841Z</time></trkpt><trkpt lat="45.613665" lon="10.6565033"><ele>62.0</ele><time>2026-03-28T16:31:07.841Z</time></trkpt><trkpt lat="45.6136933" lon="10.6563783"><ele>62.0</ele><time>2026-03-28T16:31:09.84Z</time></trkpt><trkpt lat="45.6137267" lon="10.6562583"><ele>62.0</ele><time>2026-03-28T16:31:11.84Z</time></trkpt><trkpt lat="45.6137667" lon="10.6561267"><ele>62.0</ele><time>2026-03-28T16:31:13.841Z</time></trkpt><trkpt lat="45.6138067" lon="10.6559917"><ele>62.0</ele><time>2026-03-28T16:31:15.841Z</time></trkpt><trkpt lat="45.6138467" lon="10.65586"><ele>62.0</ele><time>2026-03-28T16:31:17.841Z</time></trkpt><trkpt lat="45.6138867" lon="10.6557267"><ele>62.0</ele><time>2026-03-28T16:31:19.841Z</time></trkpt><trkpt lat="45.61392" lon="10.65559"><ele>62.0</ele><time>2026-03-28T16:31:21.84Z</time></trkpt><trkpt lat="45.613965" lon="10.6554567"><ele>62.0</ele><time>2026-03-28T16:31:23.84Z</time></trkpt><trkpt lat="45.61402" lon="10.65532"><ele>62.0</ele><time>2026-03-28T16:31:25.841Z</time></trkpt><trkpt lat="45.614075" lon="10.6551867"><ele>62.0</ele><time>2026-03-28T16:31:27.841Z</time></trkpt><trkpt lat="45.6141167" lon="10.655055"><ele>62.0</ele><time>2026-03-28T16:31:29.841Z</time></trkpt><trkpt lat="45.6141567" lon="10.6549233"><ele>62.0</ele><time>2026-03-28T16:31:31.84Z</time></trkpt><trkpt lat="45.6142017" lon="10.654795"><ele>62.0</ele><time>2026-03-28T16:31:33.84Z</time></trkpt><trkpt lat="45.6142483" lon="10.65467"><ele>62.0</ele><time>2026-03-28T16:31:35.84Z</time></trkpt><trkpt lat="45.6142933" lon="10.6545383"><ele>62.0</ele><time>2026-03-28T16:31:37.841Z</time></trkpt><trkpt lat="45.614335" lon="10.6544017"><ele>62.0</ele><time>2026-03-28T16:31:39.84Z</time></trkpt><trkpt lat="45.61438" lon="10.6542683"><ele>62.0</ele><time>2026-03-28T16:31:41.84Z</time></trkpt><trkpt lat="45.6144183" lon="10.6541383"><ele>62.0</ele><time>2026-03-28T16:31:43.841Z</time></trkpt><trkpt lat="45.614455" lon="10.6540083"><ele>62.0</ele><time>2026-03-28T16:31:45.841Z</time></trkpt><trkpt lat="45.6144883" lon="10.6538733"><ele>62.0</ele><time>2026-03-28T16:31:47.841Z</time></trkpt><trkpt lat="45.6145233" lon="10.6537417"><ele>62.0</ele><time>2026-03-28T16:31:49.84Z</time></trkpt><trkpt lat="45.6145717" lon="10.6536"><ele>62.0</ele><time>2026-03-28T16:31:51.84Z</time></trkpt><trkpt lat="45.6146217" lon="10.6534583"><ele>62.0</ele><time>2026-03-28T16:31:53.841Z</time></trkpt><trkpt lat="45.61466" lon="10.6533133"><ele>62.0</ele><time>2026-03-28T16:31:55.84Z</time></trkpt><trkpt lat="45.614695" lon="10.6531783"><ele>62.0</ele><time>2026-03-28T16:31:57.84Z</time></trkpt><trkpt lat="45.6147383" lon="10.6530467"><ele>62.0</ele><time>2026-03-28T16:31:59.84Z</time></trkpt><trkpt lat="45.614775" lon="10.6529033"><ele>62.0</ele><time>2026-03-28T16:32:01.841Z</time></trkpt><trkpt lat="45.6148083" lon="10.6527683"><ele>62.0</ele><time>2026-03-28T16:32:03.84Z</time></trkpt><trkpt lat="45.6148483" lon="10.652635"><ele>62.0</ele><time>2026-03-28T16:32:05.84Z</time></trkpt><trkpt lat="45.6148917" lon="10.6524933"><ele>62.0</ele><time>2026-03-28T16:32:07.84Z</time></trkpt><trkpt lat="45.614935" lon="10.6523567"><ele>62.0</ele><time>2026-03-28T16:32:09.841Z</time></trkpt><trkpt lat="45.6149717" lon="10.6522217"><ele>62.0</ele><time>2026-03-28T16:32:11.841Z</time></trkpt><trkpt lat="45.6150067" lon="10.652085"><ele>62.0</ele><time>2026-03-28T16:32:13.841Z</time></trkpt><trkpt lat="45.6150433" lon="10.6519617"><ele>62.0</ele><time>2026-03-28T16:32:15.841Z</time></trkpt><trkpt lat="45.6150833" lon="10.65184"><ele>62.0</ele><time>2026-03-28T16:32:17.841Z</time></trkpt><trkpt lat="45.6151183" lon="10.6517083"><ele>62.0</ele><time>2026-03-28T16:32:19.84Z</time></trkpt><trkpt lat="45.615155" lon="10.6515833"><ele>62.0</ele><time>2026-03-28T16:32:21.84Z</time></trkpt><trkpt lat="45.615195" lon="10.6514533"><ele>62.0</ele><time>2026-03-28T16:32:23.84Z</time></trkpt><trkpt lat="45.6152383" lon="10.6513133"><ele>62.0</ele><time>2026-03-28T16:32:25.84Z</time></trkpt><trkpt lat="45.6152817" lon="10.65118"><ele>62.0</ele><time>2026-03-28T16:32:27.84Z</time></trkpt><trkpt lat="45.61532" lon="10.6510417"><ele>62.0</ele><time>2026-03-28T16:32:29.84Z</time></trkpt><trkpt lat="45.6153567" lon="10.6509033"><ele>62.0</ele><time>2026-03-28T16:32:31.841Z</time></trkpt><trkpt lat="45.61539" lon="10.650755"><ele>62.0</ele><time>2026-03-28T16:32:33.84Z</time></trkpt><trkpt lat="45.61542" lon="10.6506033"><ele>62.0</ele><time>2026-03-28T16:32:35.84Z</time></trkpt><trkpt lat="45.6154533" lon="10.6504567"><ele>62.0</ele><time>2026-03-28T16:32:37.84Z</time></trkpt><trkpt lat="45.6155" lon="10.6503183"><ele>62.0</ele><time>2026-03-28T16:32:39.841Z</time></trkpt><trkpt lat="45.615555" lon="10.6501717"><ele>62.0</ele><time>2026-03-28T16:32:41.84Z</time></trkpt><trkpt lat="45.6156017" lon="10.6500367"><ele>62.0</ele><time>2026-03-28T16:32:43.84Z</time></trkpt><trkpt lat="45.6156483" lon="10.6499"><ele>62.0</ele><time>2026-03-28T16:32:45.841Z</time></trkpt><trkpt lat="45.6156883" lon="10.649765"><ele>62.0</ele><time>2026-03-28T16:32:47.84Z</time></trkpt><trkpt lat="45.6157317" lon="10.6496333"><ele>62.0</ele><time>2026-03-28T16:32:49.84Z</time></trkpt><trkpt lat="45.6157617" lon="10.649505"><ele>62.0</ele><time>2026-03-28T16:32:51.841Z</time></trkpt><trkpt lat="45.6157967" lon="10.6493717"><ele>62.0</ele><time>2026-03-28T16:32:53.841Z</time></trkpt><trkpt lat="45.615835" lon="10.649245"><ele>62.0</ele><time>2026-03-28T16:32:55.841Z</time></trkpt><trkpt lat="45.61587" lon="10.6491117"><ele>62.0</ele><time>2026-03-28T16:32:57.84Z</time></trkpt><trkpt lat="45.6159083" lon="10.6489783"><ele>62.0</ele><time>2026-03-28T16:32:59.84Z</time></trkpt><trkpt lat="45.615945" lon="10.648845"><ele>62.0</ele><time>2026-03-28T16:33:01.841Z</time></trkpt><trkpt lat="45.6159833" lon="10.648705"><ele>62.0</ele><time>2026-03-28T16:33:03.84Z</time></trkpt><trkpt lat="45.6160183" lon="10.6485667"><ele>62.0</ele><time>2026-03-28T16:33:05.84Z</time></trkpt><trkpt lat="45.6160533" lon="10.6484317"><ele>62.0</ele><time>2026-03-28T16:33:07.841Z</time></trkpt><trkpt lat="45.61609" lon="10.648295"><ele>62.0</ele><time>2026-03-28T16:33:09.84Z</time></trkpt><trkpt lat="45.61613" lon="10.648155"><ele>62.0</ele><time>2026-03-28T16:33:11.841Z</time></trkpt><trkpt lat="45.6161717" lon="10.64801"><ele>62.0</ele><time>2026-03-28T16:33:13.84Z</time></trkpt><trkpt lat="45.6162117" lon="10.6478683"><ele>62.0</ele><time>2026-03-28T16:33:15.84Z</time></trkpt><trkpt lat="45.6162517" lon="10.6477217"><ele>62.0</ele><time>2026-03-28T16:33:17.84Z</time></trkpt><trkpt lat="45.61629" lon="10.647575"><ele>62.0</ele><time>2026-03-28T16:33:19.84Z</time></trkpt><trkpt lat="45.6163283" lon="10.6474333"><ele>62.0</ele><time>2026-03-28T16:33:21.841Z</time></trkpt><trkpt lat="45.616365" lon="10.6472817"><ele>62.0</ele><time>2026-03-28T16:33:23.841Z</time></trkpt><trkpt lat="45.6163933" lon="10.6471433"><ele>62.0</ele><time>2026-03-28T16:33:25.84Z</time></trkpt><trkpt lat="45.6164217" lon="10.647005"><ele>62.0</ele><time>2026-03-28T16:33:27.84Z</time></trkpt><trkpt lat="45.6164583" lon="10.6468667"><ele>62.0</ele><time>2026-03-28T16:33:29.84Z</time></trkpt><trkpt lat="45.6164917" lon="10.646725"><ele>62.0</ele><time>2026-03-28T16:33:31.84Z</time></trkpt><trkpt lat="45.6165283" lon="10.6465833"><ele>62.0</ele><time>2026-03-28T16:33:33.84Z</time></trkpt><trkpt lat="45.6165617" lon="10.6464433"><ele>62.0</ele><time>2026-03-28T16:33:35.841Z</time></trkpt><trkpt lat="45.6165917" lon="10.6463"><ele>62.0</ele><time>2026-03-28T16:33:37.84Z</time></trkpt><trkpt lat="45.6166267" lon="10.6461567"><ele>62.0</ele><time>2026-03-28T16:33:39.841Z</time></trkpt><trkpt lat="45.616665" lon="10.6460233"><ele>62.0</ele><time>2026-03-28T16:33:41.841Z</time></trkpt><trkpt lat="45.6167083" lon="10.6458933"><ele>62.0</ele><time>2026-03-28T16:33:43.84Z</time></trkpt><trkpt lat="45.6167483" lon="10.6457533"><ele>62.0</ele><time>2026-03-28T16:33:45.841Z</time></trkpt><trkpt lat="45.6167817" lon="10.6456133"><ele>62.0</ele><time>2026-03-28T16:33:47.84Z</time></trkpt><trkpt lat="45.616825" lon="10.6454733"><ele>62.0</ele><time>2026-03-28T16:33:49.84Z</time></trkpt><trkpt lat="45.6168617" lon="10.6453317"><ele>62.0</ele><time>2026-03-28T16:33:51.84Z</time></trkpt><trkpt lat="45.6169" lon="10.645185"><ele>62.0</ele><time>2026-03-28T16:33:53.84Z</time></trkpt><trkpt lat="45.6169333" lon="10.6450433"><ele>62.0</ele><time>2026-03-28T16:33:55.84Z</time></trkpt><trkpt lat="45.6169767" lon="10.64491"><ele>62.0</ele><time>2026-03-28T16:33:57.84Z</time></trkpt><trkpt lat="45.617015" lon="10.644775"><ele>62.0</ele><time>2026-03-28T16:33:59.84Z</time></trkpt><trkpt lat="45.6170483" lon="10.6446383"><ele>62.0</ele><time>2026-03-28T16:34:01.841Z</time></trkpt><trkpt lat="45.6170867" lon="10.6445067"><ele>62.0</ele><time>2026-03-28T16:34:03.84Z</time></trkpt><trkpt lat="45.61712" lon="10.6443833"><ele>62.0</ele><time>2026-03-28T16:34:05.84Z</time></trkpt><trkpt lat="45.6171567" lon="10.6442583"><ele>62.0</ele><time>2026-03-28T16:34:07.841Z</time></trkpt><trkpt lat="45.6172033" lon="10.6441233"><ele>62.0</ele><time>2026-03-28T16:34:09.84Z</time></trkpt><trkpt lat="45.6172433" lon="10.6439833"><ele>62.0</ele><time>2026-03-28T16:34:11.841Z</time></trkpt><trkpt lat="45.6172833" lon="10.64385"><ele>62.0</ele><time>2026-03-28T16:34:13.84Z</time></trkpt><trkpt lat="45.6173233" lon="10.6437133"><ele>62.0</ele><time>2026-03-28T16:34:15.841Z</time></trkpt><trkpt lat="45.6173633" lon="10.6435567"><ele>62.0</ele><time>2026-03-28T16:34:17.84Z</time></trkpt><trkpt lat="45.617395" lon="10.6434"><ele>62.0</ele><time>2026-03-28T16:34:19.841Z</time></trkpt><trkpt lat="45.617425" lon="10.6432433"><ele>62.0</ele><time>2026-03-28T16:34:21.841Z</time></trkpt><trkpt lat="45.6174617" lon="10.6430917"><ele>62.0</ele><time>2026-03-28T16:34:23.84Z</time></trkpt><trkpt lat="45.6175067" lon="10.642955"><ele>62.0</ele><time>2026-03-28T16:34:25.84Z</time></trkpt><trkpt lat="45.6175467" lon="10.6428083"><ele>62.0</ele><time>2026-03-28T16:34:27.84Z</time></trkpt><trkpt lat="45.6175817" lon="10.6426633"><ele>62.0</ele><time>2026-03-28T16:34:29.84Z</time></trkpt><trkpt lat="45.6176217" lon="10.6425283"><ele>62.0</ele><time>2026-03-28T16:34:31.841Z</time></trkpt><trkpt lat="45.6176567" lon="10.6423933"><ele>62.0</ele><time>2026-03-28T16:34:33.84Z</time></trkpt><trkpt lat="45.6176933" lon="10.6422717"><ele>62.0</ele><time>2026-03-28T16:34:35.841Z</time></trkpt><trkpt lat="45.6177217" lon="10.642155"><ele>62.0</ele><time>2026-03-28T16:34:37.84Z</time></trkpt><trkpt lat="45.6177533" lon="10.64204"><ele>62.0</ele><time>2026-03-28T16:34:39.84Z</time></trkpt><trkpt lat="45.6177883" lon="10.64193"><ele>62.0</ele><time>2026-03-28T16:34:41.841Z</time></trkpt><trkpt lat="45.6178267" lon="10.6418033"><ele>62.0</ele><time>2026-03-28T16:34:43.841Z</time></trkpt><trkpt lat="45.6178617" lon="10.64166"><ele>62.0</ele><time>2026-03-28T16:34:45.84Z</time></trkpt><trkpt lat="45.6179067" lon="10.6415167"><ele>62.0</ele><time>2026-03-28T16:34:47.84Z</time></trkpt><trkpt lat="45.617955" lon="10.6413733"><ele>62.0</ele><time>2026-03-28T16:34:49.841Z</time></trkpt><trkpt lat="45.6180017" lon="10.641225"><ele>62.0</ele><time>2026-03-28T16:34:51.84Z</time></trkpt><trkpt lat="45.6180333" lon="10.6410883"><ele>62.0</ele><time>2026-03-28T16:34:53.841Z</time></trkpt><trkpt lat="45.61807" lon="10.6409517"><ele>62.0</ele><time>2026-03-28T16:34:55.84Z</time></trkpt><trkpt lat="45.6181117" lon="10.6408133"><ele>62.0</ele><time>2026-03-28T16:34:57.841Z</time></trkpt><trkpt lat="45.61814" lon="10.6406717"><ele>62.0</ele><time>2026-03-28T16:34:59.84Z</time></trkpt><trkpt lat="45.6181667" lon="10.6405333"><ele>62.0</ele><time>2026-03-28T16:35:01.841Z</time></trkpt><trkpt lat="45.6181967" lon="10.6403983"><ele>62.0</ele><time>2026-03-28T16:35:03.84Z</time></trkpt><trkpt lat="45.61822" lon="10.640255"><ele>62.0</ele><time>2026-03-28T16:35:05.84Z</time></trkpt><trkpt lat="45.6182583" lon="10.6401017"><ele>62.0</ele><time>2026-03-28T16:35:07.84Z</time></trkpt><trkpt lat="45.6182917" lon="10.6399567"><ele>62.0</ele><time>2026-03-28T16:35:09.841Z</time></trkpt><trkpt lat="45.6183333" lon="10.63981"><ele>62.0</ele><time>2026-03-28T16:35:11.841Z</time></trkpt><trkpt lat="45.61837" lon="10.6396633"><ele>62.0</ele><time>2026-03-28T16:35:13.84Z</time></trkpt><trkpt lat="45.6184033" lon="10.6395283"><ele>62.0</ele><time>2026-03-28T16:35:15.841Z</time></trkpt><trkpt lat="45.6184483" lon="10.6394"><ele>62.0</ele><time>2026-03-28T16:35:17.841Z</time></trkpt><trkpt lat="45.6184917" lon="10.6392617"><ele>62.0</ele><time>2026-03-28T16:35:19.841Z</time></trkpt><trkpt lat="45.61853" lon="10.6391333"><ele>62.0</ele><time>2026-03-28T16:35:21.84Z</time></trkpt><trkpt lat="45.6185717" lon="10.6389967"><ele>62.0</ele><time>2026-03-28T16:35:23.84Z</time></trkpt><trkpt lat="45.6186067" lon="10.6388617"><ele>62.0</ele><time>2026-03-28T16:35:25.841Z</time></trkpt><trkpt lat="45.618655" lon="10.6387233"><ele>62.0</ele><time>2026-03-28T16:35:27.841Z</time></trkpt><trkpt lat="45.6187033" lon="10.6385967"><ele>62.0</ele><time>2026-03-28T16:35:29.84Z</time></trkpt><trkpt lat="45.6187467" lon="10.638475"><ele>62.0</ele><time>2026-03-28T16:35:31.841Z</time></trkpt><trkpt lat="45.618785" lon="10.6383433"><ele>62.0</ele><time>2026-03-28T16:35:33.841Z</time></trkpt><trkpt lat="45.6188233" lon="10.6381983"><ele>62.0</ele><time>2026-03-28T16:35:35.841Z</time></trkpt><trkpt lat="45.6188583" lon="10.6380617"><ele>62.0</ele><time>2026-03-28T16:35:37.84Z</time></trkpt><trkpt lat="45.6188883" lon="10.6379383"><ele>62.0</ele><time>2026-03-28T16:35:39.84Z</time></trkpt><trkpt lat="45.6189183" lon="10.6378067"><ele>62.0</ele><time>2026-03-28T16:35:41.84Z</time></trkpt><trkpt lat="45.6189483" lon="10.63768"><ele>62.0</ele><time>2026-03-28T16:35:43.84Z</time></trkpt><trkpt lat="45.6189817" lon="10.6375417"><ele>62.0</ele><time>2026-03-28T16:35:45.841Z</time></trkpt><trkpt lat="45.6190117" lon="10.6374033"><ele>62.0</ele><time>2026-03-28T16:35:47.84Z</time></trkpt><trkpt lat="45.6190417" lon="10.6372633"><ele>62.0</ele><time>2026-03-28T16:35:49.84Z</time></trkpt><trkpt lat="45.6190833" lon="10.63713"><ele>62.0</ele><time>2026-03-28T16:35:51.84Z</time></trkpt><trkpt lat="45.6191217" lon="10.6369933"><ele>62.0</ele><time>2026-03-28T16:35:53.84Z</time></trkpt><trkpt lat="45.6191933" lon="10.6367733"><ele>62.0</ele><time>2026-03-28T16:35:56.841Z</time></trkpt><trkpt lat="45.619245" lon="10.6366383"><ele>62.0</ele><time>2026-03-28T16:35:58.84Z</time></trkpt><trkpt lat="45.61929" lon="10.6365067"><ele>62.0</ele><time>2026-03-28T16:36:00.84Z</time></trkpt><trkpt lat="45.6193217" lon="10.6363733"><ele>62.0</ele><time>2026-03-28T16:36:02.84Z</time></trkpt><trkpt lat="45.61935" lon="10.636235"><ele>62.0</ele><time>2026-03-28T16:36:04.84Z</time></trkpt><trkpt lat="45.6193833" lon="10.6361"><ele>62.0</ele><time>2026-03-28T16:36:06.841Z</time></trkpt><trkpt lat="45.6194167" lon="10.6359533"><ele>62.0</ele><time>2026-03-28T16:36:08.841Z</time></trkpt><trkpt lat="45.6194583" lon="10.6358083"><ele>62.0</ele><time>2026-03-28T16:36:10.84Z</time></trkpt><trkpt lat="45.619495" lon="10.6356717"><ele>62.0</ele><time>2026-03-28T16:36:12.84Z</time></trkpt><trkpt lat="45.6195233" lon="10.6355483"><ele>62.0</ele><time>2026-03-28T16:36:14.841Z</time></trkpt><trkpt lat="45.61956" lon="10.6354167"><ele>62.0</ele><time>2026-03-28T16:36:16.841Z</time></trkpt><trkpt lat="45.619595" lon="10.63528"><ele>62.0</ele><time>2026-03-28T16:36:18.84Z</time></trkpt><trkpt lat="45.6196317" lon="10.6351333"><ele>62.0</ele><time>2026-03-28T16:36:20.84Z</time></trkpt><trkpt lat="45.6196683" lon="10.63499"><ele>62.0</ele><time>2026-03-28T16:36:22.84Z</time></trkpt><trkpt lat="45.6197067" lon="10.63485"><ele>62.0</ele><time>2026-03-28T16:36:24.84Z</time></trkpt><trkpt lat="45.619745" lon="10.634705"><ele>62.0</ele><time>2026-03-28T16:36:26.84Z</time></trkpt><trkpt lat="45.6197833" lon="10.6345683"><ele>62.0</ele><time>2026-03-28T16:36:28.841Z</time></trkpt><trkpt lat="45.6198183" lon="10.6344317"><ele>62.0</ele><time>2026-03-28T16:36:30.84Z</time></trkpt><trkpt lat="45.61985" lon="10.6342933"><ele>62.0</ele><time>2026-03-28T16:36:32.84Z</time></trkpt><trkpt lat="45.6198817" lon="10.6341567"><ele>62.0</ele><time>2026-03-28T16:36:34.84Z</time></trkpt><trkpt lat="45.6199167" lon="10.634015"><ele>62.0</ele><time>2026-03-28T16:36:36.84Z</time></trkpt><trkpt lat="45.61995" lon="10.63388"><ele>62.0</ele><time>2026-03-28T16:36:38.841Z</time></trkpt><trkpt lat="45.6199833" lon="10.633745"><ele>62.0</ele><time>2026-03-28T16:36:40.841Z</time></trkpt><trkpt lat="45.620015" lon="10.6336067"><ele>62.0</ele><time>2026-03-28T16:36:42.841Z</time></trkpt><trkpt lat="45.6200517" lon="10.6334783"><ele>62.0</ele><time>2026-03-28T16:36:44.84Z</time></trkpt><trkpt lat="45.6200867" lon="10.633355"><ele>62.0</ele><time>2026-03-28T16:36:46.84Z</time></trkpt><trkpt lat="45.6201167" lon="10.633225"><ele>62.0</ele><time>2026-03-28T16:36:48.841Z</time></trkpt><trkpt lat="45.62015" lon="10.6330933"><ele>62.0</ele><time>2026-03-28T16:36:50.84Z</time></trkpt><trkpt lat="45.6201833" lon="10.6329583"><ele>62.0</ele><time>2026-03-28T16:36:52.84Z</time></trkpt><trkpt lat="45.62022" lon="10.632815"><ele>62.0</ele><time>2026-03-28T16:36:54.84Z</time></trkpt><trkpt lat="45.62025" lon="10.6326667"><ele>62.0</ele><time>2026-03-28T16:36:56.841Z</time></trkpt><trkpt lat="45.6202833" lon="10.6325183"><ele>62.0</ele><time>2026-03-28T16:36:58.84Z</time></trkpt><trkpt lat="45.620315" lon="10.6323767"><ele>62.0</ele><time>2026-03-28T16:37:00.84Z</time></trkpt><trkpt lat="45.6203467" lon="10.6322333"><ele>62.0</ele><time>2026-03-28T16:37:02.841Z</time></trkpt><trkpt lat="45.6203783" lon="10.6320967"><ele>62.0</ele><time>2026-03-28T16:37:04.841Z</time></trkpt><trkpt lat="45.620415" lon="10.631965"><ele>62.0</ele><time>2026-03-28T16:37:06.84Z</time></trkpt><trkpt lat="45.620455" lon="10.6318283"><ele>62.0</ele><time>2026-03-28T16:37:08.841Z</time></trkpt><trkpt lat="45.6204917" lon="10.6316883"><ele>62.0</ele><time>2026-03-28T16:37:10.84Z</time></trkpt><trkpt lat="45.6205283" lon="10.6315517"><ele>62.0</ele><time>2026-03-28T16:37:12.841Z</time></trkpt><trkpt lat="45.620565" lon="10.6314183"><ele>62.0</ele><time>2026-03-28T16:37:14.841Z</time></trkpt><trkpt lat="45.6206" lon="10.631285"><ele>62.0</ele><time>2026-03-28T16:37:16.84Z</time></trkpt><trkpt lat="45.620635" lon="10.6311417"><ele>62.0</ele><time>2026-03-28T16:37:18.841Z</time></trkpt><trkpt lat="45.6206733" lon="10.631"><ele>62.0</ele><time>2026-03-28T16:37:20.841Z</time></trkpt><trkpt lat="45.62071" lon="10.6308583"><ele>62.0</ele><time>2026-03-28T16:37:22.84Z</time></trkpt><trkpt lat="45.620745" lon="10.63072"><ele>62.0</ele><time>2026-03-28T16:37:24.841Z</time></trkpt><trkpt lat="45.6207817" lon="10.63058"><ele>62.0</ele><time>2026-03-28T16:37:26.841Z</time></trkpt><trkpt lat="45.620815" lon="10.6304433"><ele>62.0</ele><time>2026-03-28T16:37:28.841Z</time></trkpt><trkpt lat="45.6208483" lon="10.6303117"><ele>62.0</ele><time>2026-03-28T16:37:30.84Z</time></trkpt><trkpt lat="45.6208833" lon="10.6301783"><ele>62.0</ele><time>2026-03-28T16:37:32.84Z</time></trkpt><trkpt lat="45.6209217" lon="10.630045"><ele>62.0</ele><time>2026-03-28T16:37:34.841Z</time></trkpt><trkpt lat="45.620955" lon="10.6299133"><ele>62.0</ele><time>2026-03-28T16:37:36.841Z</time></trkpt><trkpt lat="45.6209867" lon="10.6297817"><ele>62.0</ele><time>2026-03-28T16:37:38.841Z</time></trkpt><trkpt lat="45.62102" lon="10.62965"><ele>62.0</ele><time>2026-03-28T16:37:40.84Z</time></trkpt><trkpt lat="45.6210533" lon="10.6295167"><ele>62.0</ele><time>2026-03-28T16:37:42.841Z</time></trkpt><trkpt lat="45.6210833" lon="10.62938"><ele>62.0</ele><time>2026-03-28T16:37:44.84Z</time></trkpt><trkpt lat="45.621115" lon="10.6292533"><ele>62.0</ele><time>2026-03-28T16:37:46.841Z</time></trkpt><trkpt lat="45.6211517" lon="10.629115"><ele>62.0</ele><time>2026-03-28T16:37:48.84Z</time></trkpt><trkpt lat="45.6211817" lon="10.6289817"><ele>62.0</ele><time>2026-03-28T16:37:50.84Z</time></trkpt><trkpt lat="45.621215" lon="10.6288517"><ele>62.0</ele><time>2026-03-28T16:37:52.84Z</time></trkpt><trkpt lat="45.6212533" lon="10.6287133"><ele>62.0</ele><time>2026-03-28T16:37:54.84Z</time></trkpt><trkpt lat="45.6212917" lon="10.6285733"><ele>62.0</ele><time>2026-03-28T16:37:56.841Z</time></trkpt><trkpt lat="45.621325" lon="10.62844"><ele>62.0</ele><time>2026-03-28T16:37:58.84Z</time></trkpt><trkpt lat="45.62136" lon="10.6283017"><ele>62.0</ele><time>2026-03-28T16:38:00.841Z</time></trkpt><trkpt lat="45.6214033" lon="10.62816"><ele>62.0</ele><time>2026-03-28T16:38:02.84Z</time></trkpt><trkpt lat="45.6214383" lon="10.62802"><ele>62.0</ele><time>2026-03-28T16:38:04.84Z</time></trkpt><trkpt lat="45.6214717" lon="10.6278983"><ele>62.0</ele><time>2026-03-28T16:38:06.84Z</time></trkpt><trkpt lat="45.62151" lon="10.6277633"><ele>62.0</ele><time>2026-03-28T16:38:08.841Z</time></trkpt><trkpt lat="45.6215433" lon="10.6276333"><ele>62.0</ele><time>2026-03-28T16:38:10.84Z</time></trkpt><trkpt lat="45.6215783" lon="10.6274967"><ele>62.0</ele><time>2026-03-28T16:38:12.84Z</time></trkpt><trkpt lat="45.6216" lon="10.6273617"><ele>62.0</ele><time>2026-03-28T16:38:14.84Z</time></trkpt><trkpt lat="45.6216317" lon="10.6272283"><ele>62.0</ele><time>2026-03-28T16:38:16.841Z</time></trkpt><trkpt lat="45.6216683" lon="10.6270983"><ele>62.0</ele><time>2026-03-28T16:38:18.84Z</time></trkpt><trkpt lat="45.6217" lon="10.62696"><ele>62.0</ele><time>2026-03-28T16:38:20.841Z</time></trkpt><trkpt lat="45.6217317" lon="10.626825"><ele>62.0</ele><time>2026-03-28T16:38:22.84Z</time></trkpt><trkpt lat="45.6217683" lon="10.626685"><ele>62.0</ele><time>2026-03-28T16:38:24.84Z</time></trkpt><trkpt lat="45.6218033" lon="10.6265483"><ele>62.0</ele><time>2026-03-28T16:38:26.84Z</time></trkpt><trkpt lat="45.621835" lon="10.6264167"><ele>62.0</ele><time>2026-03-28T16:38:28.841Z</time></trkpt><trkpt lat="45.6218683" lon="10.62628"><ele>62.0</ele><time>2026-03-28T16:38:30.841Z</time></trkpt><trkpt lat="45.6218983" lon="10.6261433"><ele>62.0</ele><time>2026-03-28T16:38:32.84Z</time></trkpt><trkpt lat="45.62193" lon="10.6260067"><ele>62.0</ele><time>2026-03-28T16:38:34.84Z</time></trkpt><trkpt lat="45.6219633" lon="10.625875"><ele>62.0</ele><time>2026-03-28T16:38:36.84Z</time></trkpt><trkpt lat="45.6219967" lon="10.62574"><ele>62.0</ele><time>2026-03-28T16:38:38.841Z</time></trkpt><trkpt lat="45.62203" lon="10.6256017"><ele>62.0</ele><time>2026-03-28T16:38:40.84Z</time></trkpt><trkpt lat="45.62206" lon="10.625465"><ele>62.0</ele><time>2026-03-28T16:38:42.84Z</time></trkpt><trkpt lat="45.6220883" lon="10.62533"><ele>62.0</ele><time>2026-03-28T16:38:44.841Z</time></trkpt><trkpt lat="45.6221183" lon="10.6251983"><ele>62.0</ele><time>2026-03-28T16:38:46.84Z</time></trkpt><trkpt lat="45.622155" lon="10.6250567"><ele>62.0</ele><time>2026-03-28T16:38:48.84Z</time></trkpt><trkpt lat="45.62219" lon="10.6249167"><ele>62.0</ele><time>2026-03-28T16:38:50.841Z</time></trkpt><trkpt lat="45.6222283" lon="10.6247733"><ele>62.0</ele><time>2026-03-28T16:38:52.84Z</time></trkpt><trkpt lat="45.622265" lon="10.6246333"><ele>62.0</ele><time>2026-03-28T16:38:54.84Z</time></trkpt><trkpt lat="45.6223017" lon="10.6244983"><ele>62.0</ele><time>2026-03-28T16:38:56.84Z</time></trkpt><trkpt lat="45.6223383" lon="10.6243583"><ele>62.0</ele><time>2026-03-28T16:38:58.84Z</time></trkpt><trkpt lat="45.6223717" lon="10.6242183"><ele>62.0</ele><time>2026-03-28T16:39:00.84Z</time></trkpt><trkpt lat="45.6224033" lon="10.6240817"><ele>62.0</ele><time>2026-03-28T16:39:02.84Z</time></trkpt><trkpt lat="45.6224333" lon="10.6239467"><ele>62.0</ele><time>2026-03-28T16:39:04.841Z</time></trkpt><trkpt lat="45.6224667" lon="10.623825"><ele>62.0</ele><time>2026-03-28T16:39:06.841Z</time></trkpt><trkpt lat="45.6224933" lon="10.6236983"><ele>62.0</ele><time>2026-03-28T16:39:08.841Z</time></trkpt><trkpt lat="45.622515" lon="10.62357"><ele>62.0</ele><time>2026-03-28T16:39:10.84Z</time></trkpt><trkpt lat="45.6225467" lon="10.6234333"><ele>62.0</ele><time>2026-03-28T16:39:12.841Z</time></trkpt><trkpt lat="45.6225817" lon="10.6232967"><ele>62.0</ele><time>2026-03-28T16:39:14.84Z</time></trkpt><trkpt lat="45.6226183" lon="10.623155"><ele>62.0</ele><time>2026-03-28T16:39:16.841Z</time></trkpt><trkpt lat="45.6226517" lon="10.623015"><ele>62.0</ele><time>2026-03-28T16:39:18.84Z</time></trkpt><trkpt lat="45.6226767" lon="10.622875"><ele>62.0</ele><time>2026-03-28T16:39:20.841Z</time></trkpt><trkpt lat="45.622705" lon="10.6227367"><ele>62.0</ele><time>2026-03-28T16:39:22.84Z</time></trkpt><trkpt lat="45.6227383" lon="10.6225983"><ele>62.0</ele><time>2026-03-28T16:39:24.84Z</time></trkpt><trkpt lat="45.6227733" lon="10.6224567"><ele>62.0</ele><time>2026-03-28T16:39:26.84Z</time></trkpt><trkpt lat="45.622805" lon="10.62232"><ele>62.0</ele><time>2026-03-28T16:39:28.841Z</time></trkpt><trkpt lat="45.6228333" lon="10.62218"><ele>62.0</ele><time>2026-03-28T16:39:30.84Z</time></trkpt><trkpt lat="45.6228617" lon="10.6220467"><ele>62.0</ele><time>2026-03-28T16:39:32.84Z</time></trkpt><trkpt lat="45.6228917" lon="10.6219117"><ele>62.0</ele><time>2026-03-28T16:39:34.841Z</time></trkpt><trkpt lat="45.622925" lon="10.621775"><ele>62.0</ele><time>2026-03-28T16:39:36.841Z</time></trkpt><trkpt lat="45.622955" lon="10.62164"><ele>62.0</ele><time>2026-03-28T16:39:38.841Z</time></trkpt><trkpt lat="45.6229867" lon="10.621505"><ele>62.0</ele><time>2026-03-28T16:39:40.841Z</time></trkpt><trkpt lat="45.6230183" lon="10.621365"><ele>62.0</ele><time>2026-03-28T16:39:42.84Z</time></trkpt><trkpt lat="45.62305" lon="10.6212317"><ele>62.0</ele><time>2026-03-28T16:39:44.84Z</time></trkpt><trkpt lat="45.6230833" lon="10.62109"><ele>62.0</ele><time>2026-03-28T16:39:46.84Z</time></trkpt><trkpt lat="45.6231167" lon="10.62095"><ele>62.0</ele><time>2026-03-28T16:39:48.84Z</time></trkpt><trkpt lat="45.6231483" lon="10.6208117"><ele>62.0</ele><time>2026-03-28T16:39:50.84Z</time></trkpt><trkpt lat="45.6231833" lon="10.6206783"><ele>62.0</ele><time>2026-03-28T16:39:52.841Z</time></trkpt><trkpt lat="45.6232133" lon="10.62054"><ele>62.0</ele><time>2026-03-28T16:39:54.84Z</time></trkpt><trkpt lat="45.623245" lon="10.6204017"><ele>62.0</ele><time>2026-03-28T16:39:56.84Z</time></trkpt><trkpt lat="45.6232733" lon="10.620265"><ele>62.0</ele><time>2026-03-28T16:39:58.841Z</time></trkpt><trkpt lat="45.6232983" lon="10.6201267"><ele>62.0</ele><time>2026-03-28T16:40:00.84Z</time></trkpt><trkpt lat="45.6233267" lon="10.619995"><ele>62.0</ele><time>2026-03-28T16:40:02.841Z</time></trkpt><trkpt lat="45.6233617" lon="10.619855"><ele>62.0</ele><time>2026-03-28T16:40:04.841Z</time></trkpt><trkpt lat="45.62339" lon="10.6197383"><ele>62.0</ele><time>2026-03-28T16:40:06.84Z</time></trkpt><trkpt lat="45.6234183" lon="10.6196017"><ele>62.0</ele><time>2026-03-28T16:40:08.841Z</time></trkpt><trkpt lat="45.6234467" lon="10.619465"><ele>62.0</ele><time>2026-03-28T16:40:10.841Z</time></trkpt><trkpt lat="45.6234733" lon="10.6193183"><ele>62.0</ele><time>2026-03-28T16:40:12.841Z</time></trkpt><trkpt lat="45.6235017" lon="10.619175"><ele>62.0</ele><time>2026-03-28T16:40:14.841Z</time></trkpt><trkpt lat="45.6235333" lon="10.6190333"><ele>62.0</ele><time>2026-03-28T16:40:16.84Z</time></trkpt><trkpt lat="45.6235633" lon="10.61889"><ele>62.0</ele><time>2026-03-28T16:40:18.84Z</time></trkpt><trkpt lat="45.6235867" lon="10.6187517"><ele>62.0</ele><time>2026-03-28T16:40:20.84Z</time></trkpt><trkpt lat="45.6236133" lon="10.61861"><ele>62.0</ele><time>2026-03-28T16:40:22.841Z</time></trkpt><trkpt lat="45.6236533" lon="10.6184683"><ele>62.0</ele><time>2026-03-28T16:40:24.841Z</time></trkpt><trkpt lat="45.6236833" lon="10.6183283"><ele>62.0</ele><time>2026-03-28T16:40:26.841Z</time></trkpt><trkpt lat="45.6237167" lon="10.618185"><ele>62.0</ele><time>2026-03-28T16:40:28.84Z</time></trkpt><trkpt lat="45.6237483" lon="10.6180383"><ele>62.0</ele><time>2026-03-28T16:40:30.841Z</time></trkpt><trkpt lat="45.6237733" lon="10.617905"><ele>62.0</ele><time>2026-03-28T16:40:32.84Z</time></trkpt><trkpt lat="45.6238033" lon="10.6177717"><ele>62.0</ele><time>2026-03-28T16:40:34.84Z</time></trkpt><trkpt lat="45.623835" lon="10.6176433"><ele>62.0</ele><time>2026-03-28T16:40:36.84Z</time></trkpt><trkpt lat="45.6238733" lon="10.6175083"><ele>62.0</ele><time>2026-03-28T16:40:38.841Z</time></trkpt><trkpt lat="45.6239067" lon="10.6173683"><ele>62.0</ele><time>2026-03-28T16:40:40.841Z</time></trkpt><trkpt lat="45.6239383" lon="10.617225"><ele>62.0</ele><time>2026-03-28T16:40:42.84Z</time></trkpt><trkpt lat="45.6239717" lon="10.6170817"><ele>62.0</ele><time>2026-03-28T16:40:44.84Z</time></trkpt><trkpt lat="45.6240083" lon="10.6169417"><ele>62.0</ele><time>2026-03-28T16:40:46.84Z</time></trkpt><trkpt lat="45.62404" lon="10.616795"><ele>62.0</ele><time>2026-03-28T16:40:48.84Z</time></trkpt><trkpt lat="45.6240717" lon="10.616645"><ele>62.0</ele><time>2026-03-28T16:40:50.84Z</time></trkpt><trkpt lat="45.6241033" lon="10.6165"><ele>62.0</ele><time>2026-03-28T16:40:52.841Z</time></trkpt><trkpt lat="45.6241383" lon="10.616355"><ele>62.0</ele><time>2026-03-28T16:40:54.841Z</time></trkpt><trkpt lat="45.6241617" lon="10.6162067"><ele>62.0</ele><time>2026-03-28T16:40:56.841Z</time></trkpt><trkpt lat="45.6241833" lon="10.6160683"><ele>62.0</ele><time>2026-03-28T16:40:58.84Z</time></trkpt><trkpt lat="45.6242067" lon="10.6159217"><ele>62.0</ele><time>2026-03-28T16:41:00.841Z</time></trkpt><trkpt lat="45.6242333" lon="10.615785"><ele>62.0</ele><time>2026-03-28T16:41:02.841Z</time></trkpt><trkpt lat="45.6242617" lon="10.6156583"><ele>62.0</ele><time>2026-03-28T16:41:04.841Z</time></trkpt><trkpt lat="45.62429" lon="10.615515"><ele>62.0</ele><time>2026-03-28T16:41:06.841Z</time></trkpt><trkpt lat="45.6243167" lon="10.6153817"><ele>62.0</ele><time>2026-03-28T16:41:08.841Z</time></trkpt><trkpt lat="45.6243433" lon="10.61524"><ele>62.0</ele><time>2026-03-28T16:41:10.841Z</time></trkpt><trkpt lat="45.6243717" lon="10.6150933"><ele>62.0</ele><time>2026-03-28T16:41:12.84Z</time></trkpt><trkpt lat="45.6244" lon="10.6149517"><ele>62.0</ele><time>2026-03-28T16:41:14.84Z</time></trkpt><trkpt lat="45.6244317" lon="10.6148117"><ele>62.0</ele><time>2026-03-28T16:41:16.841Z</time></trkpt><trkpt lat="45.62447" lon="10.6146767"><ele>62.0</ele><time>2026-03-28T16:41:18.841Z</time></trkpt><trkpt lat="45.6245033" lon="10.6145467"><ele>62.0</ele><time>2026-03-28T16:41:20.841Z</time></trkpt><trkpt lat="45.6245367" lon="10.6144133"><ele>62.0</ele><time>2026-03-28T16:41:22.84Z</time></trkpt><trkpt lat="45.62456" lon="10.6142767"><ele>62.0</ele><time>2026-03-28T16:41:24.84Z</time></trkpt><trkpt lat="45.62459" lon="10.6141333"><ele>62.0</ele><time>2026-03-28T16:41:26.841Z</time></trkpt><trkpt lat="45.6246217" lon="10.6139867"><ele>62.0</ele><time>2026-03-28T16:41:28.84Z</time></trkpt><trkpt lat="45.6246467" lon="10.6138467"><ele>62.0</ele><time>2026-03-28T16:41:30.841Z</time></trkpt><trkpt lat="45.6246717" lon="10.6137167"><ele>62.0</ele><time>2026-03-28T16:41:32.84Z</time></trkpt><trkpt lat="45.6246967" lon="10.613585"><ele>62.0</ele><time>2026-03-28T16:41:34.84Z</time></trkpt><trkpt lat="45.6247233" lon="10.6134467"><ele>62.0</ele><time>2026-03-28T16:41:36.841Z</time></trkpt><trkpt lat="45.6247533" lon="10.6133033"><ele>62.0</ele><time>2026-03-28T16:41:38.84Z</time></trkpt><trkpt lat="45.6247817" lon="10.61316"><ele>62.0</ele><time>2026-03-28T16:41:40.84Z</time></trkpt><trkpt lat="45.6248133" lon="10.6130183"><ele>62.0</ele><time>2026-03-28T16:41:42.84Z</time></trkpt><trkpt lat="45.6248417" lon="10.6128767"><ele>62.0</ele><time>2026-03-28T16:41:44.841Z</time></trkpt><trkpt lat="45.6248667" lon="10.6127383"><ele>62.0</ele><time>2026-03-28T16:41:46.841Z</time></trkpt><trkpt lat="45.6248967" lon="10.612595"><ele>62.0</ele><time>2026-03-28T16:41:48.84Z</time></trkpt><trkpt lat="45.6249283" lon="10.6124533"><ele>62.0</ele><time>2026-03-28T16:41:50.84Z</time></trkpt><trkpt lat="45.6249617" lon="10.6123133"><ele>62.0</ele><time>2026-03-28T16:41:52.841Z</time></trkpt><trkpt lat="45.62499" lon="10.6121633"><ele>62.0</ele><time>2026-03-28T16:41:54.841Z</time></trkpt><trkpt lat="45.6250183" lon="10.612015"><ele>62.0</ele><time>2026-03-28T16:41:56.841Z</time></trkpt><trkpt lat="45.625055" lon="10.61187"><ele>62.0</ele><time>2026-03-28T16:41:58.84Z</time></trkpt><trkpt lat="45.6250967" lon="10.6117167"><ele>62.0</ele><time>2026-03-28T16:42:00.84Z</time></trkpt><trkpt lat="45.6251333" lon="10.61158"><ele>62.0</ele><time>2026-03-28T16:42:02.841Z</time></trkpt><trkpt lat="45.6251683" lon="10.6114483"><ele>62.0</ele><time>2026-03-28T16:42:04.84Z</time></trkpt><trkpt lat="45.6252033" lon="10.6113067"><ele>62.0</ele><time>2026-03-28T16:42:06.84Z</time></trkpt><trkpt lat="45.6252333" lon="10.6111617"><ele>62.0</ele><time>2026-03-28T16:42:08.84Z</time></trkpt><trkpt lat="45.62526" lon="10.611025"><ele>62.0</ele><time>2026-03-28T16:42:10.841Z</time></trkpt><trkpt lat="45.6252883" lon="10.6108883"><ele>62.0</ele><time>2026-03-28T16:42:12.841Z</time></trkpt><trkpt lat="45.6253167" lon="10.610745"><ele>62.0</ele><time>2026-03-28T16:42:14.84Z</time></trkpt><trkpt lat="45.625345" lon="10.6106017"><ele>62.0</ele><time>2026-03-28T16:42:16.841Z</time></trkpt><trkpt lat="45.625375" lon="10.6104633"><ele>62.0</ele><time>2026-03-28T16:42:18.841Z</time></trkpt><trkpt lat="45.6254033" lon="10.61032"><ele>62.0</ele><time>2026-03-28T16:42:20.84Z</time></trkpt><trkpt lat="45.6254333" lon="10.6101783"><ele>62.0</ele><time>2026-03-28T16:42:22.841Z</time></trkpt><trkpt lat="45.6254633" lon="10.6100367"><ele>62.0</ele><time>2026-03-28T16:42:24.841Z</time></trkpt><trkpt lat="45.625495" lon="10.6098983"><ele>62.0</ele><time>2026-03-28T16:42:26.841Z</time></trkpt><trkpt lat="45.625525" lon="10.6097583"><ele>62.0</ele><time>2026-03-28T16:42:28.841Z</time></trkpt><trkpt lat="45.6255533" lon="10.60962"><ele>62.0</ele><time>2026-03-28T16:42:30.841Z</time></trkpt><trkpt lat="45.6255833" lon="10.60948"><ele>62.0</ele><time>2026-03-28T16:42:32.841Z</time></trkpt><trkpt lat="45.62561" lon="10.60934"><ele>62.0</ele><time>2026-03-28T16:42:34.841Z</time></trkpt><trkpt lat="45.625635" lon="10.6091967"><ele>62.0</ele><time>2026-03-28T16:42:36.84Z</time></trkpt><trkpt lat="45.6256633" lon="10.609055"><ele>62.0</ele><time>2026-03-28T16:42:38.841Z</time></trkpt><trkpt lat="45.6256867" lon="10.6089117"><ele>62.0</ele><time>2026-03-28T16:42:40.84Z</time></trkpt><trkpt lat="45.625715" lon="10.6087717"><ele>62.0</ele><time>2026-03-28T16:42:42.84Z</time></trkpt><trkpt lat="45.6257433" lon="10.6086417"><ele>62.0</ele><time>2026-03-28T16:42:44.841Z</time></trkpt><trkpt lat="45.62577" lon="10.6085067"><ele>62.0</ele><time>2026-03-28T16:42:46.84Z</time></trkpt><trkpt lat="45.6257917" lon="10.60837"><ele>62.0</ele><time>2026-03-28T16:42:48.841Z</time></trkpt><trkpt lat="45.62582" lon="10.6082267"><ele>62.0</ele><time>2026-03-28T16:42:50.84Z</time></trkpt><trkpt lat="45.6258517" lon="10.60809"><ele>62.0</ele><time>2026-03-28T16:42:52.84Z</time></trkpt><trkpt lat="45.62588" lon="10.6079483"><ele>62.0</ele><time>2026-03-28T16:42:54.841Z</time></trkpt><trkpt lat="45.625905" lon="10.6078233"><ele>62.0</ele><time>2026-03-28T16:42:56.84Z</time></trkpt><trkpt lat="45.6259333" lon="10.6076817"><ele>62.0</ele><time>2026-03-28T16:42:58.84Z</time></trkpt><trkpt lat="45.6259633" lon="10.607545"><ele>62.0</ele><time>2026-03-28T16:43:00.84Z</time></trkpt><trkpt lat="45.6259967" lon="10.6074167"><ele>62.0</ele><time>2026-03-28T16:43:02.84Z</time></trkpt><trkpt lat="45.6260267" lon="10.6072983"><ele>62.0</ele><time>2026-03-28T16:43:04.84Z</time></trkpt><trkpt lat="45.626055" lon="10.6071533"><ele>62.0</ele><time>2026-03-28T16:43:06.841Z</time></trkpt><trkpt lat="45.626085" lon="10.6070133"><ele>62.0</ele><time>2026-03-28T16:43:08.84Z</time></trkpt><trkpt lat="45.6261083" lon="10.606875"><ele>62.0</ele><time>2026-03-28T16:43:10.84Z</time></trkpt><trkpt lat="45.62612" lon="10.6067483"><ele>62.0</ele><time>2026-03-28T16:43:12.841Z</time></trkpt><trkpt lat="45.6261317" lon="10.60662"><ele>62.0</ele><time>2026-03-28T16:43:14.841Z</time></trkpt><trkpt lat="45.6261467" lon="10.6064867"><ele>62.0</ele><time>2026-03-28T16:43:16.84Z</time></trkpt><trkpt lat="45.6261667" lon="10.6063567"><ele>62.0</ele><time>2026-03-28T16:43:18.84Z</time></trkpt><trkpt lat="45.6261883" lon="10.606225"><ele>62.0</ele><time>2026-03-28T16:43:20.84Z</time></trkpt><trkpt lat="45.6262117" lon="10.6060833"><ele>62.0</ele><time>2026-03-28T16:43:22.84Z</time></trkpt><trkpt lat="45.62624" lon="10.6059467"><ele>62.0</ele><time>2026-03-28T16:43:24.841Z</time></trkpt><trkpt lat="45.6262633" lon="10.6058"><ele>62.0</ele><time>2026-03-28T16:43:26.84Z</time></trkpt><trkpt lat="45.6262867" lon="10.6056533"><ele>62.0</ele><time>2026-03-28T16:43:28.841Z</time></trkpt><trkpt lat="45.626315" lon="10.6055067"><ele>62.0</ele><time>2026-03-28T16:43:30.841Z</time></trkpt><trkpt lat="45.62635" lon="10.6053617"><ele>62.0</ele><time>2026-03-28T16:43:32.84Z</time></trkpt><trkpt lat="45.6263883" lon="10.605215"><ele>62.0</ele><time>2026-03-28T16:43:34.84Z</time></trkpt><trkpt lat="45.6264167" lon="10.6050533"><ele>62.0</ele><time>2026-03-28T16:43:36.84Z</time></trkpt><trkpt lat="45.6264383" lon="10.604895"><ele>62.0</ele><time>2026-03-28T16:43:38.84Z</time></trkpt><trkpt lat="45.6264667" lon="10.60474"><ele>62.0</ele><time>2026-03-28T16:43:40.84Z</time></trkpt><trkpt lat="45.6264983" lon="10.6045867"><ele>62.0</ele><time>2026-03-28T16:43:42.84Z</time></trkpt><trkpt lat="45.6265267" lon="10.604435"><ele>62.0</ele><time>2026-03-28T16:43:44.84Z</time></trkpt><trkpt lat="45.6265517" lon="10.6043017"><ele>62.0</ele><time>2026-03-28T16:43:46.84Z</time></trkpt><trkpt lat="45.6265833" lon="10.6041683"><ele>62.0</ele><time>2026-03-28T16:43:48.84Z</time></trkpt><trkpt lat="45.62661" lon="10.604035"><ele>62.0</ele><time>2026-03-28T16:43:50.841Z</time></trkpt><trkpt lat="45.6266483" lon="10.6038983"><ele>62.0</ele><time>2026-03-28T16:43:52.84Z</time></trkpt><trkpt lat="45.626695" lon="10.603785"><ele>62.0</ele><time>2026-03-28T16:43:54.84Z</time></trkpt><trkpt lat="45.6267417" lon="10.6036583"><ele>62.0</ele><time>2026-03-28T16:43:56.841Z</time></trkpt><trkpt lat="45.6267883" lon="10.6035333"><ele>62.0</ele><time>2026-03-28T16:43:58.84Z</time></trkpt><trkpt lat="45.6268383" lon="10.6034133"><ele>62.0</ele><time>2026-03-28T16:44:00.841Z</time></trkpt><trkpt lat="45.6268917" lon="10.6032883"><ele>62.0</ele><time>2026-03-28T16:44:02.841Z</time></trkpt><trkpt lat="45.62695" lon="10.603165"><ele>62.0</ele><time>2026-03-28T16:44:04.841Z</time></trkpt><trkpt lat="45.6270083" lon="10.6030533"><ele>62.0</ele><time>2026-03-28T16:44:06.84Z</time></trkpt><trkpt lat="45.62707" lon="10.6029333"><ele>62.0</ele><time>2026-03-28T16:44:08.84Z</time></trkpt><trkpt lat="45.62713" lon="10.6028267"><ele>62.0</ele><time>2026-03-28T16:44:10.841Z</time></trkpt><trkpt lat="45.627195" lon="10.6027167"><ele>62.0</ele><time>2026-03-28T16:44:12.84Z</time></trkpt><trkpt lat="45.62727" lon="10.6026183"><ele>62.0</ele><time>2026-03-28T16:44:14.841Z</time></trkpt><trkpt lat="45.6273533" lon="10.6025233"><ele>62.0</ele><time>2026-03-28T16:44:16.84Z</time></trkpt><trkpt lat="45.6274383" lon="10.6024383"><ele>62.0</ele><time>2026-03-28T16:44:18.841Z</time></trkpt><trkpt lat="45.6275183" lon="10.6023567"><ele>62.0</ele><time>2026-03-28T16:44:20.84Z</time></trkpt><trkpt lat="45.6276" lon="10.6022783"><ele>62.0</ele><time>2026-03-28T16:44:22.84Z</time></trkpt><trkpt lat="45.6276783" lon="10.6022067"><ele>62.0</ele><time>2026-03-28T16:44:24.841Z</time></trkpt><trkpt lat="45.62777" lon="10.6021333"><ele>62.0</ele><time>2026-03-28T16:44:26.84Z</time></trkpt><trkpt lat="45.6278667" lon="10.6020583"><ele>62.0</ele><time>2026-03-28T16:44:28.841Z</time></trkpt><trkpt lat="45.6279517" lon="10.6019933"><ele>62.0</ele><time>2026-03-28T16:44:30.841Z</time></trkpt><trkpt lat="45.6280417" lon="10.6019317"><ele>62.0</ele><time>2026-03-28T16:44:32.84Z</time></trkpt><trkpt lat="45.62814" lon="10.601885"><ele>62.0</ele><time>2026-03-28T16:44:34.84Z</time></trkpt><trkpt lat="45.6282283" lon="10.6018417"><ele>62.0</ele><time>2026-03-28T16:44:36.84Z</time></trkpt><trkpt lat="45.6283117" lon="10.6018033"><ele>62.0</ele><time>2026-03-28T16:44:38.841Z</time></trkpt><trkpt lat="45.628405" lon="10.6017667"><ele>62.0</ele><time>2026-03-28T16:44:40.841Z</time></trkpt><trkpt lat="45.6285017" lon="10.6017183"><ele>62.0</ele><time>2026-03-28T16:44:42.84Z</time></trkpt><trkpt lat="45.628585" lon="10.6016783"><ele>62.0</ele><time>2026-03-28T16:44:44.84Z</time></trkpt><trkpt lat="45.62867" lon="10.601645"><ele>62.00000000000001</ele><time>2026-03-28T16:44:46.84Z</time></trkpt><trkpt lat="45.62876" lon="10.60162"><ele>62.0</ele><time>2026-03-28T16:44:48.84Z</time></trkpt><trkpt lat="45.6288483" lon="10.6015983"><ele>62.0</ele><time>2026-03-28T16:44:50.84Z</time></trkpt><trkpt lat="45.6289383" lon="10.60158"><ele>62.0</ele><time>2026-03-28T16:44:52.841Z</time></trkpt><trkpt lat="45.62903" lon="10.6015633"><ele>62.00000000000001</ele><time>2026-03-28T16:44:54.841Z</time></trkpt><trkpt lat="45.6291133" lon="10.6015417"><ele>62.0</ele><time>2026-03-28T16:44:56.84Z</time></trkpt><trkpt lat="45.6291983" lon="10.6015117"><ele>62.00000000000001</ele><time>2026-03-28T16:44:58.841Z</time></trkpt><trkpt lat="45.62928" lon="10.6014867"><ele>62.0</ele><time>2026-03-28T16:45:00.84Z</time></trkpt><trkpt lat="45.629365" lon="10.6014583"><ele>62.0</ele><time>2026-03-28T16:45:02.841Z</time></trkpt><trkpt lat="45.62944" lon="10.6014433"><ele>62.0</ele><time>2026-03-28T16:45:04.84Z</time></trkpt><trkpt lat="45.629515" lon="10.6014283"><ele>62.00000000000001</ele><time>2026-03-28T16:45:06.84Z</time></trkpt><trkpt lat="45.62958" lon="10.6014217"><ele>62.0</ele><time>2026-03-28T16:45:08.841Z</time></trkpt><trkpt lat="45.6296467" lon="10.6014017"><ele>62.00000000000001</ele><time>2026-03-28T16:45:10.84Z</time></trkpt><trkpt lat="45.6297133" lon="10.601385"><ele>62.0</ele><time>2026-03-28T16:45:12.84Z</time></trkpt><trkpt lat="45.6297767" lon="10.6013633"><ele>62.0</ele><time>2026-03-28T16:45:14.841Z</time></trkpt><trkpt lat="45.6298433" lon="10.601345"><ele>62.0</ele><time>2026-03-28T16:45:16.841Z</time></trkpt><trkpt lat="45.62994" lon="10.601325"><ele>62.00000000000001</ele><time>2026-03-28T16:45:19.841Z</time></trkpt><trkpt lat="45.6300267" lon="10.601305"><ele>62.0</ele><time>2026-03-28T16:45:22.841Z</time></trkpt><trkpt lat="45.6301167" lon="10.6012933"><ele>62.0</ele><time>2026-03-28T16:45:25.84Z</time></trkpt><trkpt lat="45.63018" lon="10.6012867"><ele>62.00000000000001</ele><time>2026-03-28T16:45:27.841Z</time></trkpt><trkpt lat="45.6302733" lon="10.60127"><ele>62.0</ele><time>2026-03-28T16:45:30.84Z</time></trkpt><trkpt lat="45.6303367" lon="10.6012667"><ele>62.0</ele><time>2026-03-28T16:45:32.841Z</time></trkpt><trkpt lat="45.6304067" lon="10.6012567"><ele>62.00000000000001</ele><time>2026-03-28T16:45:34.841Z</time></trkpt><trkpt lat="45.63048" lon="10.60125"><ele>62.0</ele><time>2026-03-28T16:45:36.84Z</time></trkpt><trkpt lat="45.630555" lon="10.6012383"><ele>62.0</ele><time>2026-03-28T16:45:38.841Z</time></trkpt><trkpt lat="45.63063" lon="10.6012217"><ele>62.0</ele><time>2026-03-28T16:45:40.841Z</time></trkpt><trkpt lat="45.6307067" lon="10.601205"><ele>62.00000000000001</ele><time>2026-03-28T16:45:42.841Z</time></trkpt><trkpt lat="45.6307733" lon="10.60119"><ele>62.0</ele><time>2026-03-28T16:45:44.84Z</time></trkpt><trkpt lat="45.6308433" lon="10.6011733"><ele>62.0</ele><time>2026-03-28T16:45:46.84Z</time></trkpt><trkpt lat="45.6309217" lon="10.60115"><ele>62.00000000000001</ele><time>2026-03-28T16:45:48.841Z</time></trkpt><trkpt lat="45.630985" lon="10.601135"><ele>62.0</ele><time>2026-03-28T16:45:50.841Z</time></trkpt><trkpt lat="45.63105" lon="10.6011183"><ele>62.0</ele><time>2026-03-28T16:45:52.841Z</time></trkpt><trkpt lat="45.63112" lon="10.60111"><ele>62.00000000000001</ele><time>2026-03-28T16:45:54.841Z</time></trkpt><trkpt lat="45.631185" lon="10.601105"><ele>62.0</ele><time>2026-03-28T16:45:56.84Z</time></trkpt><trkpt lat="45.6312833" lon="10.6010917"><ele>62.0</ele><time>2026-03-28T16:45:59.841Z</time></trkpt><trkpt lat="45.6313683" lon="10.6010833"><ele>62.0</ele><time>2026-03-28T16:46:02.841Z</time></trkpt><trkpt lat="45.6314467" lon="10.60108"><ele>62.00000000000001</ele><time>2026-03-28T16:46:05.841Z</time></trkpt><trkpt lat="45.6315283" lon="10.6010683"><ele>62.0</ele><time>2026-03-28T16:46:08.84Z</time></trkpt><trkpt lat="45.6316" lon="10.6010567"><ele>62.0</ele><time>2026-03-28T16:46:11.84Z</time></trkpt><trkpt lat="45.6316767" lon="10.601055"><ele>62.00000000000001</ele><time>2026-03-28T16:46:15.841Z</time></trkpt><trkpt lat="45.63174" lon="10.6010533"><ele>62.0</ele><time>2026-03-28T16:46:18.841Z</time></trkpt><trkpt lat="45.63181" lon="10.601055"><ele>62.0</ele><time>2026-03-28T16:46:21.84Z</time></trkpt><trkpt lat="45.6318767" lon="10.6010483"><ele>62.00000000000001</ele><time>2026-03-28T16:46:24.84Z</time></trkpt><trkpt lat="45.6319567" lon="10.6010583"><ele>62.0</ele><time>2026-03-28T16:46:28.84Z</time></trkpt><trkpt lat="45.6320183" lon="10.6010867"><ele>62.0</ele><time>2026-03-28T16:46:33.84Z</time></trkpt><trkpt lat="45.6320817" lon="10.6010567"><ele>62.16666666666667</ele><time>2026-03-28T16:46:39.84Z</time></trkpt><trkpt lat="45.6321433" lon="10.6010317"><ele>62.333333333333336</ele><time>2026-03-28T16:46:46.84Z</time></trkpt><trkpt lat="45.6322183" lon="10.60102"><ele>62.5</ele><time>2026-03-28T16:46:58.841Z</time></trkpt><trkpt lat="45.632345" lon="10.60102"><ele>62.66666666666667</ele><time>2026-03-28T16:49:05.839Z</time></trkpt><trkpt lat="45.63241" lon="10.6009867"><ele>62.833333333333336</ele><time>2026-03-28T16:49:24.839Z</time></trkpt><trkpt lat="45.6324733" lon="10.6010167"><ele>63.0</ele><time>2026-03-28T16:49:32.84Z</time></trkpt><trkpt lat="45.63257" lon="10.600995"><ele>63.0</ele><time>2026-03-28T16:49:47.84Z</time></trkpt><trkpt lat="45.632645" lon="10.6009683"><ele>63.0</ele><time>2026-03-28T16:49:52.84Z</time></trkpt><trkpt lat="45.6327117" lon="10.600945"><ele>63.0</ele><time>2026-03-28T16:49:55.839Z</time></trkpt><trkpt lat="45.6327967" lon="10.6009433"><ele>63.0</ele><time>2026-03-28T16:49:58.84Z</time></trkpt><trkpt lat="45.63286" lon="10.60096"><ele>63.0</ele><time>2026-03-28T16:50:00.839Z</time></trkpt><trkpt lat="45.6329283" lon="10.6010033"><ele>63.0</ele><time>2026-03-28T16:50:03.839Z</time></trkpt><trkpt lat="45.6329817" lon="10.6010667"><ele>63.0</ele><time>2026-03-28T16:50:08.839Z</time></trkpt><trkpt lat="45.6329683" lon="10.6011833"><ele>63.4</ele><time>2026-03-28T16:50:12.839Z</time></trkpt><trkpt lat="45.6329367" lon="10.6013083"><ele>63.8</ele><time>2026-03-28T16:50:15.839Z</time></trkpt><trkpt lat="45.6329" lon="10.6014233"><ele>64.2</ele><time>2026-03-28T16:50:17.84Z</time></trkpt><trkpt lat="45.632855" lon="10.6015533"><ele>64.6</ele><time>2026-03-28T16:50:19.839Z</time></trkpt><trkpt lat="45.63281" lon="10.6017067"><ele>65.0</ele><time>2026-03-28T16:50:21.839Z</time></trkpt><trkpt lat="45.6327867" lon="10.6017933"><ele>65.00000000000001</ele><time>2026-03-28T16:50:22.84Z</time></trkpt><trkpt lat="45.6327583" lon="10.601885"><ele>65.0</ele><time>2026-03-28T16:50:23.839Z</time></trkpt><trkpt lat="45.6327317" lon="10.60198"><ele>65.0</ele><time>2026-03-28T16:50:24.84Z</time></trkpt><trkpt lat="45.6327067" lon="10.6020717"><ele>65.0</ele><time>2026-03-28T16:50:25.84Z</time></trkpt><trkpt lat="45.6326817" lon="10.60216"><ele>65.0</ele><time>2026-03-28T16:50:26.839Z</time></trkpt><trkpt lat="45.6326617" lon="10.6022533"><ele>65.00000000000001</ele><time>2026-03-28T16:50:27.84Z</time></trkpt><trkpt lat="45.6326417" lon="10.602355"><ele>65.0</ele><time>2026-03-28T16:50:28.84Z</time></trkpt><trkpt lat="45.6326" lon="10.6024517"><ele>65.42857142857143</ele><time>2026-03-28T16:50:29.84Z</time></trkpt><trkpt lat="45.6325667" lon="10.6025467"><ele>65.85714285714286</ele><time>2026-03-28T16:50:30.839Z</time></trkpt><trkpt lat="45.63254" lon="10.6026433"><ele>66.28571428571428</ele><time>2026-03-28T16:50:31.84Z</time></trkpt><trkpt lat="45.6325183" lon="10.602735"><ele>66.71428571428572</ele><time>2026-03-28T16:50:32.839Z</time></trkpt><trkpt lat="45.6324883" lon="10.6028283"><ele>67.14285714285714</ele><time>2026-03-28T16:50:33.84Z</time></trkpt><trkpt lat="45.6324567" lon="10.6029283"><ele>67.57142857142857</ele><time>2026-03-28T16:50:34.84Z</time></trkpt><trkpt lat="45.63242" lon="10.603035"><ele>68.0</ele><time>2026-03-28T16:50:35.839Z</time></trkpt><trkpt lat="45.6323867" lon="10.6031417"><ele>68.16666666666667</ele><time>2026-03-28T16:50:36.839Z</time></trkpt><trkpt lat="45.63235" lon="10.6032567"><ele>68.33333333333334</ele><time>2026-03-28T16:50:37.839Z</time></trkpt><trkpt lat="45.6323167" lon="10.6033667"><ele>68.5</ele><time>2026-03-28T16:50:38.839Z</time></trkpt><trkpt lat="45.6322783" lon="10.60348"><ele>68.66666666666667</ele><time>2026-03-28T16:50:39.839Z</time></trkpt><trkpt lat="45.63223" lon="10.6035833"><ele>68.83333333333333</ele><time>2026-03-28T16:50:40.84Z</time></trkpt><trkpt lat="45.6322033" lon="10.6036717"><ele>69.0</ele><time>2026-03-28T16:50:41.839Z</time></trkpt><trkpt lat="45.6321883" lon="10.6037717"><ele>69.0</ele><time>2026-03-28T16:50:43.839Z</time></trkpt><trkpt lat="45.6321967" lon="10.6038983"><ele>69.0</ele><time>2026-03-28T16:51:13.84Z</time></trkpt><trkpt lat="45.6322667" lon="10.6040433"><ele>69.0</ele><time>2026-03-28T16:51:15.839Z</time></trkpt><trkpt lat="45.6323083" lon="10.604115"><ele>69.0</ele><time>2026-03-28T16:51:16.84Z</time></trkpt><trkpt lat="45.6323533" lon="10.6042"><ele>69.0</ele><time>2026-03-28T16:51:17.839Z</time></trkpt><trkpt lat="45.6324033" lon="10.6042783"><ele>69.0</ele><time>2026-03-28T16:51:18.839Z</time></trkpt><trkpt lat="45.6324517" lon="10.6043517"><ele>69.0</ele><time>2026-03-28T16:51:19.84Z</time></trkpt><trkpt lat="45.6325067" lon="10.6044333"><ele>69.0</ele><time>2026-03-28T16:51:20.84Z</time></trkpt><trkpt lat="45.6325633" lon="10.6045133"><ele>69.0</ele><time>2026-03-28T16:51:21.84Z</time></trkpt><trkpt lat="45.632625" lon="10.6046"><ele>69.0</ele><time>2026-03-28T16:51:22.84Z</time></trkpt><trkpt lat="45.6326933" lon="10.6046917"><ele>69.0</ele><time>2026-03-28T16:51:23.84Z</time></trkpt><trkpt lat="45.6327633" lon="10.6047883"><ele>69.0</ele><time>2026-03-28T16:51:24.84Z</time></trkpt><trkpt lat="45.63284" lon="10.6048917"><ele>68.75</ele><time>2026-03-28T16:51:25.84Z</time></trkpt><trkpt lat="45.6329183" lon="10.6050117"><ele>68.5</ele><time>2026-03-28T16:51:26.839Z</time></trkpt><trkpt lat="45.6330017" lon="10.6051283"><ele>68.25</ele><time>2026-03-28T16:51:27.84Z</time></trkpt><trkpt lat="45.6330867" lon="10.6052483"><ele>68.0</ele><time>2026-03-28T16:51:28.839Z</time></trkpt><trkpt lat="45.6331783" lon="10.60538"><ele>68.5</ele><time>2026-03-28T16:51:29.84Z</time></trkpt><trkpt lat="45.6332633" lon="10.60554"><ele>69.0</ele><time>2026-03-28T16:51:30.84Z</time></trkpt><trkpt lat="45.6333567" lon="10.6056733"><ele>69.5</ele><time>2026-03-28T16:51:31.839Z</time></trkpt><trkpt lat="45.633455" lon="10.60581"><ele>70.0</ele><time>2026-03-28T16:51:32.839Z</time></trkpt><trkpt lat="45.6335617" lon="10.6059367"><ele>70.0</ele><time>2026-03-28T16:51:33.84Z</time></trkpt><trkpt lat="45.63367" lon="10.6060683"><ele>70.0</ele><time>2026-03-28T16:51:34.839Z</time></trkpt><trkpt lat="45.633775" lon="10.6061917"><ele>70.0</ele><time>2026-03-28T16:51:35.84Z</time></trkpt><trkpt lat="45.6338767" lon="10.6063083"><ele>70.0</ele><time>2026-03-28T16:51:36.84Z</time></trkpt><trkpt lat="45.6339667" lon="10.6064067"><ele>70.0</ele><time>2026-03-28T16:51:37.84Z</time></trkpt><trkpt lat="45.6340483" lon="10.6064833"><ele>70.0</ele><time>2026-03-28T16:51:38.84Z</time></trkpt><trkpt lat="45.63411" lon="10.606555"><ele>70.0</ele><time>2026-03-28T16:51:39.839Z</time></trkpt><trkpt lat="45.63418" lon="10.6066083"><ele>70.0</ele><time>2026-03-28T16:51:40.839Z</time></trkpt><trkpt lat="45.6342583" lon="10.6066683"><ele>70.0</ele><time>2026-03-28T16:51:41.839Z</time></trkpt><trkpt lat="45.6343467" lon="10.6067367"><ele>70.0</ele><time>2026-03-28T16:51:42.84Z</time></trkpt><trkpt lat="45.6344417" lon="10.6068133"><ele>70.25</ele><time>2026-03-28T16:51:43.839Z</time></trkpt><trkpt lat="45.6345433" lon="10.606905"><ele>70.5</ele><time>2026-03-28T16:51:44.84Z</time></trkpt><trkpt lat="45.6346417" lon="10.6070167"><ele>70.75</ele><time>2026-03-28T16:51:45.84Z</time></trkpt><trkpt lat="45.6347233" lon="10.6071333"><ele>71.0</ele><time>2026-03-28T16:51:46.839Z</time></trkpt><trkpt lat="45.63479" lon="10.6072417"><ele>71.0</ele><time>2026-03-28T16:51:47.839Z</time></trkpt><trkpt lat="45.6348467" lon="10.6073317"><ele>71.0</ele><time>2026-03-28T16:51:48.84Z</time></trkpt><trkpt lat="45.6348933" lon="10.6074067"><ele>71.0</ele><time>2026-03-28T16:51:49.84Z</time></trkpt><trkpt lat="45.63496" lon="10.60752"><ele>71.0</ele><time>2026-03-28T16:51:51.84Z</time></trkpt><trkpt lat="45.6350083" lon="10.6076283"><ele>71.0</ele><time>2026-03-28T16:51:54.84Z</time></trkpt><trkpt lat="45.6350567" lon="10.6076967"><ele>71.0</ele><time>2026-03-28T16:51:57.839Z</time></trkpt><trkpt lat="45.63513" lon="10.6077233"><ele>71.0</ele><time>2026-03-28T16:52:00.84Z</time></trkpt><trkpt lat="45.6352217" lon="10.6076433"><ele>71.0</ele><time>2026-03-28T16:52:02.84Z</time></trkpt><trkpt lat="45.63528" lon="10.6075667"><ele>71.0</ele><time>2026-03-28T16:52:03.84Z</time></trkpt><trkpt lat="45.6353333" lon="10.60748"><ele>71.0</ele><time>2026-03-28T16:52:04.84Z</time></trkpt><trkpt lat="45.63539" lon="10.6073883"><ele>71.0</ele><time>2026-03-28T16:52:05.839Z</time></trkpt><trkpt lat="45.6354517" lon="10.60728"><ele>71.2</ele><time>2026-03-28T16:52:06.839Z</time></trkpt><trkpt lat="45.6355217" lon="10.607175"><ele>71.39999999999999</ele><time>2026-03-28T16:52:07.839Z</time></trkpt><trkpt lat="45.635595" lon="10.6070667"><ele>71.6</ele><time>2026-03-28T16:52:08.839Z</time></trkpt><trkpt lat="45.63568" lon="10.60695"><ele>71.8</ele><time>2026-03-28T16:52:09.839Z</time></trkpt><trkpt lat="45.6357617" lon="10.6068267"><ele>72.0</ele><time>2026-03-28T16:52:10.839Z</time></trkpt><trkpt lat="45.63585" lon="10.6066983"><ele>72.0</ele><time>2026-03-28T16:52:11.839Z</time></trkpt><trkpt lat="45.6359367" lon="10.6065717"><ele>72.0</ele><time>2026-03-28T16:52:12.84Z</time></trkpt><trkpt lat="45.63602" lon="10.6064417"><ele>72.0</ele><time>2026-03-28T16:52:13.839Z</time></trkpt><trkpt lat="45.6361" lon="10.60632"><ele>72.0</ele><time>2026-03-28T16:52:14.839Z</time></trkpt><trkpt lat="45.636175" lon="10.6062083"><ele>72.4</ele><time>2026-03-28T16:52:15.84Z</time></trkpt><trkpt lat="45.6362417" lon="10.6060933"><ele>72.80000000000001</ele><time>2026-03-28T16:52:16.84Z</time></trkpt><trkpt lat="45.6363067" lon="10.6059867"><ele>73.2</ele><time>2026-03-28T16:52:17.839Z</time></trkpt><trkpt lat="45.6363683" lon="10.6058933"><ele>73.60000000000001</ele><time>2026-03-28T16:52:18.839Z</time></trkpt><trkpt lat="45.6364133" lon="10.605815"><ele>74.0</ele><time>2026-03-28T16:52:19.839Z</time></trkpt><trkpt lat="45.6364917" lon="10.6057283"><ele>74.0</ele><time>2026-03-28T16:52:21.84Z</time></trkpt><trkpt lat="45.6365617" lon="10.6056233"><ele>74.0</ele><time>2026-03-28T16:52:25.84Z</time></trkpt><trkpt lat="45.6366033" lon="10.605545"><ele>74.0</ele><time>2026-03-28T16:52:28.84Z</time></trkpt><trkpt lat="45.6366433" lon="10.6054683"><ele>74.0</ele><time>2026-03-28T16:52:30.839Z</time></trkpt><trkpt lat="45.6366917" lon="10.60538"><ele>74.0</ele><time>2026-03-28T16:52:33.839Z</time></trkpt><trkpt lat="45.6367683" lon="10.605305"><ele>74.0</ele><time>2026-03-28T16:52:39.839Z</time></trkpt><trkpt lat="45.6368283" lon="10.60523"><ele>73.83333333333334</ele><time>2026-03-28T16:52:41.84Z</time></trkpt><trkpt lat="45.6368367" lon="10.6051267"><ele>73.66666666666667</ele><time>2026-03-28T16:52:44.839Z</time></trkpt><trkpt lat="45.6367883" lon="10.6050567"><ele>73.5</ele><time>2026-03-28T16:52:46.839Z</time></trkpt><trkpt lat="45.6367267" lon="10.6049917"><ele>73.33333333333333</ele><time>2026-03-28T16:52:48.84Z</time></trkpt><trkpt lat="45.6366583" lon="10.604895"><ele>73.16666666666666</ele><time>2026-03-28T16:52:50.839Z</time></trkpt><trkpt lat="45.6366133" lon="10.604825"><ele>73.0</ele><time>2026-03-28T16:52:51.839Z</time></trkpt><trkpt lat="45.63657" lon="10.60474"><ele>73.0</ele><time>2026-03-28T16:52:52.84Z</time></trkpt><trkpt lat="45.636525" lon="10.6046483"><ele>73.0</ele><time>2026-03-28T16:52:53.839Z</time></trkpt><trkpt lat="45.6364767" lon="10.6045517"><ele>73.0</ele><time>2026-03-28T16:52:54.839Z</time></trkpt><trkpt lat="45.6364317" lon="10.6044433"><ele>73.0</ele><time>2026-03-28T16:52:55.839Z</time></trkpt><trkpt lat="45.6363817" lon="10.6043333"><ele>73.0</ele><time>2026-03-28T16:52:56.839Z</time></trkpt><trkpt lat="45.6363233" lon="10.6042133"><ele>73.0</ele><time>2026-03-28T16:52:57.839Z</time></trkpt><trkpt lat="45.6362633" lon="10.6041117"><ele>72.83333333333333</ele><time>2026-03-28T16:52:58.839Z</time></trkpt><trkpt lat="45.6362117" lon="10.6040117"><ele>72.66666666666666</ele><time>2026-03-28T16:52:59.839Z</time></trkpt><trkpt lat="45.636165" lon="10.603915"><ele>72.5</ele><time>2026-03-28T16:53:00.839Z</time></trkpt><trkpt lat="45.6361167" lon="10.6038167"><ele>72.33333333333333</ele><time>2026-03-28T16:53:01.839Z</time></trkpt><trkpt lat="45.6360667" lon="10.6037167"><ele>72.16666666666667</ele><time>2026-03-28T16:53:02.839Z</time></trkpt><trkpt lat="45.6360133" lon="10.6036167"><ele>72.0</ele><time>2026-03-28T16:53:03.839Z</time></trkpt><trkpt lat="45.6359583" lon="10.6035133"><ele>71.66666666666667</ele><time>2026-03-28T16:53:04.84Z</time></trkpt><trkpt lat="45.6359033" lon="10.6034067"><ele>71.33333333333333</ele><time>2026-03-28T16:53:05.84Z</time></trkpt><trkpt lat="45.635855" lon="10.6033133"><ele>71.0</ele><time>2026-03-28T16:53:06.84Z</time></trkpt><trkpt lat="45.63581" lon="10.60323"><ele>70.66666666666666</ele><time>2026-03-28T16:53:07.839Z</time></trkpt><trkpt lat="45.63577" lon="10.6031517"><ele>70.33333333333333</ele><time>2026-03-28T16:53:08.84Z</time></trkpt><trkpt lat="45.635735" lon="10.6030767"><ele>70.0</ele><time>2026-03-28T16:53:09.84Z</time></trkpt><trkpt lat="45.635665" lon="10.602945"><ele>70.2</ele><time>2026-03-28T16:53:11.84Z</time></trkpt><trkpt lat="45.6355883" lon="10.6028117"><ele>70.4</ele><time>2026-03-28T16:53:13.839Z</time></trkpt><trkpt lat="45.63551" lon="10.6026783"><ele>70.6</ele><time>2026-03-28T16:53:15.84Z</time></trkpt><trkpt lat="45.63544" lon="10.602525"><ele>70.8</ele><time>2026-03-28T16:53:17.84Z</time></trkpt><trkpt lat="45.6354" lon="10.6024367"><ele>71.0</ele><time>2026-03-28T16:53:18.84Z</time></trkpt><trkpt lat="45.6353583" lon="10.60234"><ele>71.0</ele><time>2026-03-28T16:53:19.839Z</time></trkpt><trkpt lat="45.6353117" lon="10.6022383"><ele>71.0</ele><time>2026-03-28T16:53:20.839Z</time></trkpt><trkpt lat="45.63526" lon="10.6021367"><ele>71.0</ele><time>2026-03-28T16:53:21.84Z</time></trkpt><trkpt lat="45.6352067" lon="10.6020283"><ele>71.0</ele><time>2026-03-28T16:53:22.84Z</time></trkpt><trkpt lat="45.6351533" lon="10.6019217"><ele>71.0</ele><time>2026-03-28T16:53:23.84Z</time></trkpt><trkpt lat="45.6350983" lon="10.6018083"><ele>70.8</ele><time>2026-03-28T16:53:24.84Z</time></trkpt><trkpt lat="45.6350433" lon="10.601685"><ele>70.6</ele><time>2026-03-28T16:53:25.84Z</time></trkpt><trkpt lat="45.6349917" lon="10.6015517"><ele>70.4</ele><time>2026-03-28T16:53:26.839Z</time></trkpt><trkpt lat="45.63495" lon="10.6013983"><ele>70.2</ele><time>2026-03-28T16:53:27.84Z</time></trkpt><trkpt lat="45.6349267" lon="10.60124"><ele>70.0</ele><time>2026-03-28T16:53:28.839Z</time></trkpt><trkpt lat="45.6349167" lon="10.601085"><ele>70.0</ele><time>2026-03-28T16:53:29.84Z</time></trkpt><trkpt lat="45.6349267" lon="10.6009467"><ele>70.0</ele><time>2026-03-28T16:53:30.84Z</time></trkpt><trkpt lat="45.634945" lon="10.600835"><ele>70.0</ele><time>2026-03-28T16:53:31.839Z</time></trkpt><trkpt lat="45.63496" lon="10.6007433"><ele>70.0</ele><time>2026-03-28T16:53:32.84Z</time></trkpt><trkpt lat="45.634975" lon="10.6006533"><ele>70.0</ele><time>2026-03-28T16:53:33.839Z</time></trkpt><trkpt lat="45.635" lon="10.6005667"><ele>70.0</ele><time>2026-03-28T16:53:34.84Z</time></trkpt><trkpt lat="45.63502" lon="10.60048"><ele>70.0</ele><time>2026-03-28T16:53:35.839Z</time></trkpt><trkpt lat="45.63506" lon="10.60036"><ele>70.5</ele><time>2026-03-28T16:53:37.839Z</time></trkpt><trkpt lat="45.63509" lon="10.60028"><ele>71.0</ele><time>2026-03-28T16:53:40.839Z</time></trkpt><trkpt lat="45.6351267" lon="10.6001867"><ele>71.5</ele><time>2026-03-28T16:53:45.839Z</time></trkpt><trkpt lat="45.6351817" lon="10.600085"><ele>72.0</ele><time>2026-03-28T16:53:53.84Z</time></trkpt><trkpt lat="45.6352317" lon="10.599965"><ele>72.5</ele><time>2026-03-28T16:53:55.84Z</time></trkpt><trkpt lat="45.6352767" lon="10.5998617"><ele>73.0</ele><time>2026-03-28T16:53:57.839Z</time></trkpt><trkpt lat="45.6353033" lon="10.5997733"><ele>72.83333333333333</ele><time>2026-03-28T16:53:59.839Z</time></trkpt><trkpt lat="45.6353483" lon="10.5996717"><ele>72.66666666666666</ele><time>2026-03-28T16:54:01.84Z</time></trkpt><trkpt lat="45.63542" lon="10.59955"><ele>72.5</ele><time>2026-03-28T16:54:03.84Z</time></trkpt><trkpt lat="45.63546" lon="10.5994767"><ele>72.33333333333333</ele><time>2026-03-28T16:54:04.84Z</time></trkpt><trkpt lat="45.635505" lon="10.5993917"><ele>72.16666666666667</ele><time>2026-03-28T16:54:05.839Z</time></trkpt><trkpt lat="45.6355583" lon="10.5992933"><ele>72.0</ele><time>2026-03-28T16:54:06.839Z</time></trkpt><trkpt lat="45.635605" lon="10.5991917"><ele>72.0</ele><time>2026-03-28T16:54:07.84Z</time></trkpt><trkpt lat="45.63565" lon="10.5990833"><ele>72.0</ele><time>2026-03-28T16:54:08.84Z</time></trkpt><trkpt lat="45.635685" lon="10.5989717"><ele>72.0</ele><time>2026-03-28T16:54:09.84Z</time></trkpt><trkpt lat="45.6357133" lon="10.5988583"><ele>72.0</ele><time>2026-03-28T16:54:10.839Z</time></trkpt><trkpt lat="45.6357283" lon="10.5987317"><ele>72.0</ele><time>2026-03-28T16:54:11.839Z</time></trkpt><trkpt lat="45.6357333" lon="10.5986183"><ele>72.0</ele><time>2026-03-28T16:54:12.839Z</time></trkpt><trkpt lat="45.635735" lon="10.5985183"><ele>72.4</ele><time>2026-03-28T16:54:13.84Z</time></trkpt><trkpt lat="45.63573" lon="10.5984067"><ele>72.80000000000001</ele><time>2026-03-28T16:54:14.84Z</time></trkpt><trkpt lat="45.6357217" lon="10.5982817"><ele>73.2</ele><time>2026-03-28T16:54:15.839Z</time></trkpt><trkpt lat="45.6356983" lon="10.5981483"><ele>73.60000000000001</ele><time>2026-03-28T16:54:16.839Z</time></trkpt><trkpt lat="45.63568" lon="10.5980117"><ele>74.0</ele><time>2026-03-28T16:54:17.84Z</time></trkpt><trkpt lat="45.6356767" lon="10.59784"><ele>75.25</ele><time>2026-03-28T16:54:18.839Z</time></trkpt><trkpt lat="45.635655" lon="10.5976767"><ele>76.5</ele><time>2026-03-28T16:54:19.839Z</time></trkpt><trkpt lat="45.6356217" lon="10.5975133"><ele>77.75</ele><time>2026-03-28T16:54:20.84Z</time></trkpt><trkpt lat="45.63558" lon="10.5973417"><ele>79.0</ele><time>2026-03-28T16:54:21.839Z</time></trkpt><trkpt lat="45.6355367" lon="10.5971683"><ele>83.25</ele><time>2026-03-28T16:54:22.839Z</time></trkpt><trkpt lat="45.6354883" lon="10.597"><ele>87.5</ele><time>2026-03-28T16:54:23.839Z</time></trkpt><trkpt lat="45.63543" lon="10.5968417"><ele>91.75</ele><time>2026-03-28T16:54:24.839Z</time></trkpt><trkpt lat="45.6353733" lon="10.5966833"><ele>96.0</ele><time>2026-03-28T16:54:25.839Z</time></trkpt><trkpt lat="45.635305" lon="10.59653"><ele>91.5</ele><time>2026-03-28T16:54:26.839Z</time></trkpt><trkpt lat="45.6352383" lon="10.5963817"><ele>87.0</ele><time>2026-03-28T16:54:27.84Z</time></trkpt><trkpt lat="45.6351733" lon="10.5962233"><ele>82.5</ele><time>2026-03-28T16:54:28.84Z</time></trkpt><trkpt lat="45.6351083" lon="10.596085"><ele>78.0</ele><time>2026-03-28T16:54:29.84Z</time></trkpt><trkpt lat="45.63506" lon="10.59594"><ele>78.0</ele><time>2026-03-28T16:54:30.839Z</time></trkpt><trkpt lat="45.634995" lon="10.595815"><ele>78.0</ele><time>2026-03-28T16:54:31.839Z</time></trkpt><trkpt lat="45.6349383" lon="10.595685"><ele>78.0</ele><time>2026-03-28T16:54:32.84Z</time></trkpt><trkpt lat="45.63488" lon="10.595535"><ele>78.0</ele><time>2026-03-28T16:54:33.84Z</time></trkpt><trkpt lat="45.63482" lon="10.59538"><ele>85.25</ele><time>2026-03-28T16:54:34.84Z</time></trkpt><trkpt lat="45.6347617" lon="10.5952267"><ele>92.5</ele><time>2026-03-28T16:54:35.839Z</time></trkpt><trkpt lat="45.6347" lon="10.5950783"><ele>99.75</ele><time>2026-03-28T16:54:36.84Z</time></trkpt><trkpt lat="45.6346333" lon="10.59493"><ele>107.0</ele><time>2026-03-28T16:54:37.839Z</time></trkpt><trkpt lat="45.6345733" lon="10.594785"><ele>107.0</ele><time>2026-03-28T16:54:38.84Z</time></trkpt><trkpt lat="45.6345033" lon="10.5946383"><ele>107.0</ele><time>2026-03-28T16:54:39.839Z</time></trkpt><trkpt lat="45.6344283" lon="10.5944867"><ele>107.0</ele><time>2026-03-28T16:54:40.839Z</time></trkpt><trkpt lat="45.6343467" lon="10.59433"><ele>107.0</ele><time>2026-03-28T16:54:41.84Z</time></trkpt><trkpt lat="45.6342683" lon="10.5941683"><ele>104.25</ele><time>2026-03-28T16:54:42.84Z</time></trkpt><trkpt lat="45.6341867" lon="10.5940117"><ele>101.5</ele><time>2026-03-28T16:54:43.839Z</time></trkpt><trkpt lat="45.6341083" lon="10.5938667"><ele>98.75</ele><time>2026-03-28T16:54:44.839Z</time></trkpt><trkpt lat="45.6340217" lon="10.5937"><ele>96.0</ele><time>2026-03-28T16:54:45.839Z</time></trkpt><trkpt lat="45.6339367" lon="10.593535"><ele>96.0</ele><time>2026-03-28T16:54:46.839Z</time></trkpt><trkpt lat="45.6338483" lon="10.593365"><ele>96.0</ele><time>2026-03-28T16:54:47.84Z</time></trkpt><trkpt lat="45.6337617" lon="10.5932083"><ele>96.0</ele><time>2026-03-28T16:54:48.839Z</time></trkpt><trkpt lat="45.633675" lon="10.5930417"><ele>96.0</ele><time>2026-03-28T16:54:49.839Z</time></trkpt><trkpt lat="45.6335883" lon="10.59287"><ele>90.75</ele><time>2026-03-28T16:54:50.839Z</time></trkpt><trkpt lat="45.6335017" lon="10.5926967"><ele>85.5</ele><time>2026-03-28T16:54:51.84Z</time></trkpt><trkpt lat="45.6334217" lon="10.5925367"><ele>80.25</ele><time>2026-03-28T16:54:52.84Z</time></trkpt><trkpt lat="45.633335" lon="10.5923767"><ele>75.0</ele><time>2026-03-28T16:54:53.839Z</time></trkpt><trkpt lat="45.633245" lon="10.5922233"><ele>75.0</ele><time>2026-03-28T16:54:54.839Z</time></trkpt><trkpt lat="45.633155" lon="10.59208"><ele>75.0</ele><time>2026-03-28T16:54:55.839Z</time></trkpt><trkpt lat="45.6330567" lon="10.5919467"><ele>75.0</ele><time>2026-03-28T16:54:56.839Z</time></trkpt><trkpt lat="45.632955" lon="10.5918283"><ele>75.0</ele><time>2026-03-28T16:54:57.839Z</time></trkpt><trkpt lat="45.6328433" lon="10.5917117"><ele>74.5</ele><time>2026-03-28T16:54:58.839Z</time></trkpt><trkpt lat="45.6327283" lon="10.5915933"><ele>74.0</ele><time>2026-03-28T16:54:59.84Z</time></trkpt><trkpt lat="45.6326117" lon="10.591465"><ele>73.5</ele><time>2026-03-28T16:55:00.839Z</time></trkpt><trkpt lat="45.6325083" lon="10.59132"><ele>73.0</ele><time>2026-03-28T16:55:01.84Z</time></trkpt><trkpt lat="45.6324133" lon="10.5911467"><ele>79.0</ele><time>2026-03-28T16:55:02.839Z</time></trkpt><trkpt lat="45.6323333" lon="10.59095"><ele>85.0</ele><time>2026-03-28T16:55:03.84Z</time></trkpt><trkpt lat="45.6322417" lon="10.59075"><ele>91.0</ele><time>2026-03-28T16:55:04.84Z</time></trkpt><trkpt lat="45.6321583" lon="10.5905117"><ele>86.0</ele><time>2026-03-28T16:55:05.839Z</time></trkpt><trkpt lat="45.6320667" lon="10.5902783"><ele>81.0</ele><time>2026-03-28T16:55:06.839Z</time></trkpt><trkpt lat="45.6319683" lon="10.5900483"><ele>76.0</ele><time>2026-03-28T16:55:07.84Z</time></trkpt><trkpt lat="45.6318567" lon="10.589835"><ele>76.0</ele><time>2026-03-28T16:55:08.84Z</time></trkpt><trkpt lat="45.6317333" lon="10.589635"><ele>76.0</ele><time>2026-03-28T16:55:09.84Z</time></trkpt><trkpt lat="45.6316067" lon="10.589435"><ele>76.0</ele><time>2026-03-28T16:55:10.839Z</time></trkpt><trkpt lat="45.631485" lon="10.5892167"><ele>76.0</ele><time>2026-03-28T16:55:11.839Z</time></trkpt><trkpt lat="45.6313633" lon="10.589015"><ele>76.0</ele><time>2026-03-28T16:55:12.84Z</time></trkpt><trkpt lat="45.63124" lon="10.5888133"><ele>76.0</ele><time>2026-03-28T16:55:13.839Z</time></trkpt><trkpt lat="45.6311133" lon="10.588615"><ele>76.0</ele><time>2026-03-28T16:55:14.84Z</time></trkpt><trkpt lat="45.6309817" lon="10.5884167"><ele>76.0</ele><time>2026-03-28T16:55:15.84Z</time></trkpt><trkpt lat="45.6308433" lon="10.588215"><ele>76.0</ele><time>2026-03-28T16:55:16.839Z</time></trkpt><trkpt lat="45.6307033" lon="10.5880083"><ele>77.33333333333333</ele><time>2026-03-28T16:55:17.839Z</time></trkpt><trkpt lat="45.6305617" lon="10.5878283"><ele>78.66666666666667</ele><time>2026-03-28T16:55:18.839Z</time></trkpt><trkpt lat="45.6304283" lon="10.587635"><ele>80.0</ele><time>2026-03-28T16:55:19.84Z</time></trkpt><trkpt lat="45.6303017" lon="10.5874517"><ele>80.0</ele><time>2026-03-28T16:55:20.839Z</time></trkpt><trkpt lat="45.6301717" lon="10.5872683"><ele>80.0</ele><time>2026-03-28T16:55:21.839Z</time></trkpt><trkpt lat="45.6300417" lon="10.5870967"><ele>80.0</ele><time>2026-03-28T16:55:22.839Z</time></trkpt><trkpt lat="45.6299067" lon="10.5869367"><ele>79.0</ele><time>2026-03-28T16:55:23.839Z</time></trkpt><trkpt lat="45.6297583" lon="10.5867983"><ele>78.0</ele><time>2026-03-28T16:55:24.84Z</time></trkpt><trkpt lat="45.6296033" lon="10.5866867"><ele>77.0</ele><time>2026-03-28T16:55:25.84Z</time></trkpt><trkpt lat="45.6294433" lon="10.5866183"><ele>77.0</ele><time>2026-03-28T16:55:26.84Z</time></trkpt><trkpt lat="45.6292767" lon="10.5865717"><ele>77.0</ele><time>2026-03-28T16:55:27.84Z</time></trkpt><trkpt lat="45.6291017" lon="10.5865433"><ele>77.0</ele><time>2026-03-28T16:55:28.84Z</time></trkpt><trkpt lat="45.62891" lon="10.5865633"><ele>77.0</ele><time>2026-03-28T16:55:29.839Z</time></trkpt><trkpt lat="45.6287283" lon="10.5865817"><ele>77.0</ele><time>2026-03-28T16:55:30.84Z</time></trkpt><trkpt lat="45.628545" lon="10.5865917"><ele>77.0</ele><time>2026-03-28T16:55:31.84Z</time></trkpt><trkpt lat="45.62837" lon="10.5866017"><ele>76.33333333333334</ele><time>2026-03-28T16:55:32.84Z</time></trkpt><trkpt lat="45.6281917" lon="10.5866133"><ele>75.66666666666667</ele><time>2026-03-28T16:55:33.839Z</time></trkpt><trkpt lat="45.6280267" lon="10.5866217"><ele>75.0</ele><time>2026-03-28T16:55:34.84Z</time></trkpt><trkpt lat="45.62786" lon="10.5866133"><ele>75.33333333333333</ele><time>2026-03-28T16:55:35.84Z</time></trkpt><trkpt lat="45.6276967" lon="10.5865467"><ele>75.66666666666666</ele><time>2026-03-28T16:55:36.839Z</time></trkpt><trkpt lat="45.627545" lon="10.58644"><ele>76.0</ele><time>2026-03-28T16:55:37.839Z</time></trkpt><trkpt lat="45.6273933" lon="10.5863083"><ele>76.66666666666666</ele><time>2026-03-28T16:55:38.84Z</time></trkpt><trkpt lat="45.627245" lon="10.5861683"><ele>77.33333333333333</ele><time>2026-03-28T16:55:39.839Z</time></trkpt><trkpt lat="45.6270967" lon="10.5860283"><ele>78.0</ele><time>2026-03-28T16:55:40.839Z</time></trkpt><trkpt lat="45.626945" lon="10.58589"><ele>78.0</ele><time>2026-03-28T16:55:41.84Z</time></trkpt><trkpt lat="45.6267983" lon="10.5857467"><ele>78.0</ele><time>2026-03-28T16:55:42.84Z</time></trkpt><trkpt lat="45.62665" lon="10.5856067"><ele>78.0</ele><time>2026-03-28T16:55:43.839Z</time></trkpt><trkpt lat="45.626505" lon="10.58546"><ele>78.33333333333333</ele><time>2026-03-28T16:55:44.84Z</time></trkpt><trkpt lat="45.6263683" lon="10.5852983"><ele>78.66666666666666</ele><time>2026-03-28T16:55:45.84Z</time></trkpt><trkpt lat="45.6262333" lon="10.5851333"><ele>79.0</ele><time>2026-03-28T16:55:46.84Z</time></trkpt><trkpt lat="45.626125" lon="10.5849583"><ele>77.75</ele><time>2026-03-28T16:55:47.84Z</time></trkpt><trkpt lat="45.62606" lon="10.5847817"><ele>76.5</ele><time>2026-03-28T16:55:48.84Z</time></trkpt><trkpt lat="45.626015" lon="10.5845917"><ele>75.25</ele><time>2026-03-28T16:55:49.84Z</time></trkpt><trkpt lat="45.62599" lon="10.5843983"><ele>74.0</ele><time>2026-03-28T16:55:50.839Z</time></trkpt><trkpt lat="45.6259833" lon="10.5842067"><ele>74.0</ele><time>2026-03-28T16:55:51.84Z</time></trkpt><trkpt lat="45.6259933" lon="10.5840267"><ele>74.0</ele><time>2026-03-28T16:55:52.84Z</time></trkpt><trkpt lat="45.6260167" lon="10.5838683"><ele>74.0</ele><time>2026-03-28T16:55:53.839Z</time></trkpt><trkpt lat="45.6260383" lon="10.5837333"><ele>74.0</ele><time>2026-03-28T16:55:54.84Z</time></trkpt><trkpt lat="45.62606" lon="10.5836083"><ele>74.0</ele><time>2026-03-28T16:55:55.84Z</time></trkpt><trkpt lat="45.6260767" lon="10.58349"><ele>73.66666666666667</ele><time>2026-03-28T16:55:56.84Z</time></trkpt><trkpt lat="45.626095" lon="10.58338"><ele>73.33333333333334</ele><time>2026-03-28T16:55:57.839Z</time></trkpt><trkpt lat="45.6261183" lon="10.5832733"><ele>73.0</ele><time>2026-03-28T16:55:58.839Z</time></trkpt><trkpt lat="45.6261283" lon="10.5831767"><ele>72.66666666666667</ele><time>2026-03-28T16:55:59.839Z</time></trkpt><trkpt lat="45.6261433" lon="10.5830867"><ele>72.33333333333333</ele><time>2026-03-28T16:56:00.84Z</time></trkpt><trkpt lat="45.6261583" lon="10.582995"><ele>72.0</ele><time>2026-03-28T16:56:01.839Z</time></trkpt><trkpt lat="45.6261733" lon="10.5828183"><ele>74.16666666666667</ele><time>2026-03-28T16:56:03.839Z</time></trkpt><trkpt lat="45.6261917" lon="10.5826783"><ele>76.33333333333333</ele><time>2026-03-28T16:56:05.84Z</time></trkpt><trkpt lat="45.6262033" lon="10.58254"><ele>78.5</ele><time>2026-03-28T16:56:07.839Z</time></trkpt><trkpt lat="45.62621" lon="10.5823783"><ele>80.66666666666666</ele><time>2026-03-28T16:56:09.84Z</time></trkpt><trkpt lat="45.6262133" lon="10.582285"><ele>82.83333333333333</ele><time>2026-03-28T16:56:10.839Z</time></trkpt><trkpt lat="45.626215" lon="10.58219"><ele>85.0</ele><time>2026-03-28T16:56:11.839Z</time></trkpt><trkpt lat="45.626215" lon="10.5820867"><ele>84.83333333333333</ele><time>2026-03-28T16:56:12.84Z</time></trkpt><trkpt lat="45.6262067" lon="10.5819733"><ele>84.66666666666666</ele><time>2026-03-28T16:56:13.84Z</time></trkpt><trkpt lat="45.6262" lon="10.5818483"><ele>84.5</ele><time>2026-03-28T16:56:14.839Z</time></trkpt><trkpt lat="45.6262017" lon="10.5817233"><ele>84.33333333333333</ele><time>2026-03-28T16:56:15.84Z</time></trkpt><trkpt lat="45.6262017" lon="10.58161"><ele>84.16666666666667</ele><time>2026-03-28T16:56:16.84Z</time></trkpt><trkpt lat="45.6261983" lon="10.5815083"><ele>84.0</ele><time>2026-03-28T16:56:17.839Z</time></trkpt><trkpt lat="45.6261933" lon="10.5814117"><ele>84.0</ele><time>2026-03-28T16:56:18.84Z</time></trkpt><trkpt lat="45.62619" lon="10.581315"><ele>84.0</ele><time>2026-03-28T16:56:19.84Z</time></trkpt><trkpt lat="45.62619" lon="10.5811783"><ele>84.0</ele><time>2026-03-28T16:56:21.84Z</time></trkpt><trkpt lat="45.6261967" lon="10.5810417"><ele>84.0</ele><time>2026-03-28T16:56:23.839Z</time></trkpt><trkpt lat="45.6261967" lon="10.5808667"><ele>84.0</ele><time>2026-03-28T16:56:25.839Z</time></trkpt><trkpt lat="45.626195" lon="10.580775"><ele>84.0</ele><time>2026-03-28T16:56:26.84Z</time></trkpt><trkpt lat="45.6261933" lon="10.5806817"><ele>84.16666666666667</ele><time>2026-03-28T16:56:27.839Z</time></trkpt><trkpt lat="45.626195" lon="10.5805883"><ele>84.33333333333333</ele><time>2026-03-28T16:56:28.84Z</time></trkpt><trkpt lat="45.6261933" lon="10.5804083"><ele>84.5</ele><time>2026-03-28T16:56:30.839Z</time></trkpt><trkpt lat="45.62619" lon="10.5803117"><ele>84.66666666666666</ele><time>2026-03-28T16:56:31.839Z</time></trkpt><trkpt lat="45.6261833" lon="10.5802183"><ele>84.83333333333333</ele><time>2026-03-28T16:56:32.839Z</time></trkpt><trkpt lat="45.6261833" lon="10.5801083"><ele>85.0</ele><time>2026-03-28T16:56:33.84Z</time></trkpt><trkpt lat="45.6261833" lon="10.5800067"><ele>85.6</ele><time>2026-03-28T16:56:34.839Z</time></trkpt><trkpt lat="45.62618" lon="10.5799133"><ele>86.2</ele><time>2026-03-28T16:56:35.839Z</time></trkpt><trkpt lat="45.6261717" lon="10.5797733"><ele>86.80000000000001</ele><time>2026-03-28T16:56:37.839Z</time></trkpt><trkpt lat="45.6261617" lon="10.5796117"><ele>87.4</ele><time>2026-03-28T16:56:39.839Z</time></trkpt><trkpt lat="45.6261467" lon="10.579415"><ele>88.0</ele><time>2026-03-28T16:56:41.839Z</time></trkpt><trkpt lat="45.62614" lon="10.5792883"><ele>85.2</ele><time>2026-03-28T16:56:42.84Z</time></trkpt><trkpt lat="45.6261283" lon="10.579145"><ele>82.4</ele><time>2026-03-28T16:56:43.839Z</time></trkpt><trkpt lat="45.626115" lon="10.5790017"><ele>79.60000000000001</ele><time>2026-03-28T16:56:44.839Z</time></trkpt><trkpt lat="45.6261017" lon="10.578845"><ele>76.80000000000001</ele><time>2026-03-28T16:56:45.839Z</time></trkpt><trkpt lat="45.6260867" lon="10.5786833"><ele>74.0</ele><time>2026-03-28T16:56:46.84Z</time></trkpt><trkpt lat="45.626075" lon="10.578525"><ele>74.0</ele><time>2026-03-28T16:56:47.84Z</time></trkpt><trkpt lat="45.6260617" lon="10.57838"><ele>74.0</ele><time>2026-03-28T16:56:48.84Z</time></trkpt><trkpt lat="45.6260483" lon="10.5782533"><ele>74.0</ele><time>2026-03-28T16:56:49.839Z</time></trkpt><trkpt lat="45.6260383" lon="10.5781383"><ele>74.0</ele><time>2026-03-28T16:56:50.839Z</time></trkpt><trkpt lat="45.6260267" lon="10.57803"><ele>74.0</ele><time>2026-03-28T16:56:51.839Z</time></trkpt><trkpt lat="45.6260117" lon="10.5779283"><ele>74.0</ele><time>2026-03-28T16:56:52.839Z</time></trkpt><trkpt lat="45.625995" lon="10.5778267"><ele>74.8</ele><time>2026-03-28T16:56:53.839Z</time></trkpt><trkpt lat="45.6259833" lon="10.5777067"><ele>75.60000000000001</ele><time>2026-03-28T16:56:54.84Z</time></trkpt><trkpt lat="45.6259733" lon="10.5775817"><ele>76.4</ele><time>2026-03-28T16:56:55.839Z</time></trkpt><trkpt lat="45.6259533" lon="10.577445"><ele>77.2</ele><time>2026-03-28T16:56:56.839Z</time></trkpt><trkpt lat="45.625925" lon="10.577295"><ele>78.0</ele><time>2026-03-28T16:56:57.84Z</time></trkpt><trkpt lat="45.6258867" lon="10.5771483"><ele>78.75</ele><time>2026-03-28T16:56:58.84Z</time></trkpt><trkpt lat="45.625855" lon="10.5769817"><ele>79.5</ele><time>2026-03-28T16:56:59.839Z</time></trkpt><trkpt lat="45.62582" lon="10.576815"><ele>80.25</ele><time>2026-03-28T16:57:00.839Z</time></trkpt><trkpt lat="45.625785" lon="10.5766567"><ele>81.0</ele><time>2026-03-28T16:57:01.839Z</time></trkpt><trkpt lat="45.625745" lon="10.5765033"><ele>81.0</ele><time>2026-03-28T16:57:02.84Z</time></trkpt><trkpt lat="45.6257067" lon="10.57635"><ele>81.0</ele><time>2026-03-28T16:57:03.84Z</time></trkpt><trkpt lat="45.62567" lon="10.5761883"><ele>81.0</ele><time>2026-03-28T16:57:04.839Z</time></trkpt><trkpt lat="45.6256317" lon="10.5760317"><ele>81.0</ele><time>2026-03-28T16:57:05.839Z</time></trkpt><trkpt lat="45.6255933" lon="10.5758683"><ele>82.19999999999999</ele><time>2026-03-28T16:57:06.84Z</time></trkpt><trkpt lat="45.62555" lon="10.57573"><ele>83.39999999999999</ele><time>2026-03-28T16:57:07.839Z</time></trkpt><trkpt lat="45.6255117" lon="10.5755983"><ele>84.6</ele><time>2026-03-28T16:57:08.84Z</time></trkpt><trkpt lat="45.625475" lon="10.5754833"><ele>85.8</ele><time>2026-03-28T16:57:09.84Z</time></trkpt><trkpt lat="45.6254367" lon="10.575375"><ele>87.0</ele><time>2026-03-28T16:57:10.84Z</time></trkpt><trkpt lat="45.6254" lon="10.5752733"><ele>89.16666666666667</ele><time>2026-03-28T16:57:11.84Z</time></trkpt><trkpt lat="45.6253633" lon="10.575175"><ele>91.33333333333334</ele><time>2026-03-28T16:57:12.839Z</time></trkpt><trkpt lat="45.6253317" lon="10.5750767"><ele>93.5</ele><time>2026-03-28T16:57:13.84Z</time></trkpt><trkpt lat="45.6252983" lon="10.5749817"><ele>95.66666666666667</ele><time>2026-03-28T16:57:14.84Z</time></trkpt><trkpt lat="45.625265" lon="10.5748917"><ele>97.83333333333334</ele><time>2026-03-28T16:57:15.84Z</time></trkpt><trkpt lat="45.6252333" lon="10.574805"><ele>100.0</ele><time>2026-03-28T16:57:16.839Z</time></trkpt><trkpt lat="45.6251717" lon="10.574665"><ele>97.00000000000001</ele><time>2026-03-28T16:57:18.84Z</time></trkpt><trkpt lat="45.62511" lon="10.5745533"><ele>94.0</ele><time>2026-03-28T16:57:20.84Z</time></trkpt><trkpt lat="45.62504" lon="10.5744383"><ele>91.0</ele><time>2026-03-28T16:57:22.84Z</time></trkpt><trkpt lat="45.6249983" lon="10.5743683"><ele>88.0</ele><time>2026-03-28T16:57:24.84Z</time></trkpt><trkpt lat="45.62495" lon="10.574285"><ele>85.0</ele><time>2026-03-28T16:57:29.839Z</time></trkpt><trkpt lat="45.6248883" lon="10.5741867"><ele>82.0</ele><time>2026-03-28T16:57:31.84Z</time></trkpt><trkpt lat="45.6247933" lon="10.5740683"><ele>82.0</ele><time>2026-03-28T16:57:33.839Z</time></trkpt><trkpt lat="45.6247" lon="10.5739683"><ele>82.0</ele><time>2026-03-28T16:57:35.839Z</time></trkpt><trkpt lat="45.6246267" lon="10.5738783"><ele>82.0</ele><time>2026-03-28T16:57:37.84Z</time></trkpt><trkpt lat="45.6245433" lon="10.5737833"><ele>82.0</ele><time>2026-03-28T16:57:39.839Z</time></trkpt><trkpt lat="45.6244783" lon="10.5737017"><ele>82.0</ele><time>2026-03-28T16:57:41.84Z</time></trkpt><trkpt lat="45.6244183" lon="10.5736167"><ele>81.0</ele><time>2026-03-28T16:57:44.84Z</time></trkpt><trkpt lat="45.6243717" lon="10.5735333"><ele>80.0</ele><time>2026-03-28T16:57:46.839Z</time></trkpt><trkpt lat="45.6243083" lon="10.5734217"><ele>79.0</ele><time>2026-03-28T16:57:48.84Z</time></trkpt><trkpt lat="45.624235" lon="10.573275"><ele>78.0</ele><time>2026-03-28T16:57:50.839Z</time></trkpt><trkpt lat="45.62419" lon="10.573185"><ele>77.0</ele><time>2026-03-28T16:57:51.84Z</time></trkpt><trkpt lat="45.6241417" lon="10.57308"><ele>77.0</ele><time>2026-03-28T16:57:52.839Z</time></trkpt><trkpt lat="45.62409" lon="10.5729567"><ele>77.0</ele><time>2026-03-28T16:57:53.84Z</time></trkpt><trkpt lat="45.6240383" lon="10.5728133"><ele>77.0</ele><time>2026-03-28T16:57:54.839Z</time></trkpt><trkpt lat="45.623985" lon="10.5726733"><ele>77.0</ele><time>2026-03-28T16:57:55.839Z</time></trkpt><trkpt lat="45.62394" lon="10.57251"><ele>77.0</ele><time>2026-03-28T16:57:56.839Z</time></trkpt><trkpt lat="45.62389" lon="10.5723367"><ele>78.0</ele><time>2026-03-28T16:57:57.839Z</time></trkpt><trkpt lat="45.6238317" lon="10.5721533"><ele>79.0</ele><time>2026-03-28T16:57:58.839Z</time></trkpt><trkpt lat="45.62378" lon="10.57199"><ele>80.0</ele><time>2026-03-28T16:57:59.84Z</time></trkpt><trkpt lat="45.62374" lon="10.5718633"><ele>81.0</ele><time>2026-03-28T16:58:00.84Z</time></trkpt><trkpt lat="45.6237" lon="10.571765"><ele>82.0</ele><time>2026-03-28T16:58:01.84Z</time></trkpt><trkpt lat="45.623665" lon="10.5716833"><ele>81.83333333333333</ele><time>2026-03-28T16:58:02.839Z</time></trkpt><trkpt lat="45.6235983" lon="10.5715533"><ele>81.66666666666666</ele><time>2026-03-28T16:58:04.84Z</time></trkpt><trkpt lat="45.6235617" lon="10.5714783"><ele>81.5</ele><time>2026-03-28T16:58:05.839Z</time></trkpt><trkpt lat="45.6235167" lon="10.5714033"><ele>81.33333333333333</ele><time>2026-03-28T16:58:06.839Z</time></trkpt><trkpt lat="45.623475" lon="10.5713317"><ele>81.16666666666667</ele><time>2026-03-28T16:58:07.839Z</time></trkpt><trkpt lat="45.6234017" lon="10.5712067"><ele>81.0</ele><time>2026-03-28T16:58:09.839Z</time></trkpt><trkpt lat="45.6233233" lon="10.5711033"><ele>81.0</ele><time>2026-03-28T16:58:11.839Z</time></trkpt><trkpt lat="45.6232333" lon="10.57099"><ele>81.0</ele><time>2026-03-28T16:58:13.839Z</time></trkpt><trkpt lat="45.6231833" lon="10.57093"><ele>81.0</ele><time>2026-03-28T16:58:14.84Z</time></trkpt><trkpt lat="45.62313" lon="10.5708733"><ele>81.0</ele><time>2026-03-28T16:58:15.839Z</time></trkpt><trkpt lat="45.62308" lon="10.5708183"><ele>81.0</ele><time>2026-03-28T16:58:16.84Z</time></trkpt><trkpt lat="45.62299" lon="10.5707217"><ele>81.0</ele><time>2026-03-28T16:58:18.84Z</time></trkpt><trkpt lat="45.6229117" lon="10.570625"><ele>81.0</ele><time>2026-03-28T16:58:20.84Z</time></trkpt><trkpt lat="45.6228383" lon="10.57053"><ele>81.0</ele><time>2026-03-28T16:58:22.84Z</time></trkpt><trkpt lat="45.622765" lon="10.57044"><ele>81.0</ele><time>2026-03-28T16:58:24.839Z</time></trkpt><trkpt lat="45.622705" lon="10.5703583"><ele>81.0</ele><time>2026-03-28T16:58:26.839Z</time></trkpt><trkpt lat="45.6226433" lon="10.5702667"><ele>81.0</ele><time>2026-03-28T16:58:28.839Z</time></trkpt><trkpt lat="45.6225683" lon="10.570185"><ele>79.8</ele><time>2026-03-28T16:58:30.84Z</time></trkpt><trkpt lat="45.6224867" lon="10.5700633"><ele>78.6</ele><time>2026-03-28T16:58:32.839Z</time></trkpt><trkpt lat="45.6224483" lon="10.5699917"><ele>77.4</ele><time>2026-03-28T16:58:33.839Z</time></trkpt><trkpt lat="45.6224083" lon="10.56992"><ele>76.2</ele><time>2026-03-28T16:58:34.84Z</time></trkpt><trkpt lat="45.622345" lon="10.5697717"><ele>75.0</ele><time>2026-03-28T16:58:36.839Z</time></trkpt><trkpt lat="45.6222783" lon="10.5696267"><ele>76.66666666666667</ele><time>2026-03-28T16:58:38.84Z</time></trkpt><trkpt lat="45.6222133" lon="10.5694983"><ele>78.33333333333333</ele><time>2026-03-28T16:58:40.84Z</time></trkpt><trkpt lat="45.6221817" lon="10.5694167"><ele>80.0</ele><time>2026-03-28T16:58:41.84Z</time></trkpt><trkpt lat="45.622145" lon="10.5693383"><ele>81.66666666666666</ele><time>2026-03-28T16:58:42.84Z</time></trkpt><trkpt lat="45.62211" lon="10.5692567"><ele>83.33333333333333</ele><time>2026-03-28T16:58:43.84Z</time></trkpt><trkpt lat="45.6220733" lon="10.569165"><ele>85.0</ele><time>2026-03-28T16:58:44.84Z</time></trkpt><trkpt lat="45.622035" lon="10.5690633"><ele>85.0</ele><time>2026-03-28T16:58:45.84Z</time></trkpt><trkpt lat="45.6219933" lon="10.5689667"><ele>85.0</ele><time>2026-03-28T16:58:46.84Z</time></trkpt><trkpt lat="45.62195" lon="10.56885"><ele>85.0</ele><time>2026-03-28T16:58:47.839Z</time></trkpt><trkpt lat="45.6219033" lon="10.5687317"><ele>85.0</ele><time>2026-03-28T16:58:48.839Z</time></trkpt><trkpt lat="45.6218583" lon="10.5686333"><ele>85.0</ele><time>2026-03-28T16:58:49.84Z</time></trkpt><trkpt lat="45.6218167" lon="10.5685383"><ele>85.0</ele><time>2026-03-28T16:58:50.84Z</time></trkpt><trkpt lat="45.6217783" lon="10.5684533"><ele>83.5</ele><time>2026-03-28T16:58:51.839Z</time></trkpt><trkpt lat="45.621735" lon="10.5683633"><ele>82.0</ele><time>2026-03-28T16:58:52.84Z</time></trkpt><trkpt lat="45.621685" lon="10.568275"><ele>80.5</ele><time>2026-03-28T16:58:53.839Z</time></trkpt><trkpt lat="45.6216317" lon="10.5681767"><ele>79.0</ele><time>2026-03-28T16:58:54.84Z</time></trkpt><trkpt lat="45.6215717" lon="10.5680767"><ele>77.5</ele><time>2026-03-28T16:58:55.84Z</time></trkpt><trkpt lat="45.62151" lon="10.567975"><ele>76.0</ele><time>2026-03-28T16:58:56.84Z</time></trkpt><trkpt lat="45.6214467" lon="10.5678683"><ele>77.8</ele><time>2026-03-28T16:58:57.84Z</time></trkpt><trkpt lat="45.6213817" lon="10.5677617"><ele>79.6</ele><time>2026-03-28T16:58:58.839Z</time></trkpt><trkpt lat="45.6213167" lon="10.5676517"><ele>81.4</ele><time>2026-03-28T16:58:59.839Z</time></trkpt><trkpt lat="45.6212517" lon="10.5675383"><ele>83.2</ele><time>2026-03-28T16:59:00.839Z</time></trkpt><trkpt lat="45.621185" lon="10.567425"><ele>85.0</ele><time>2026-03-28T16:59:01.839Z</time></trkpt><trkpt lat="45.6211183" lon="10.567315"><ele>83.0</ele><time>2026-03-28T16:59:02.84Z</time></trkpt><trkpt lat="45.6210517" lon="10.5672083"><ele>81.0</ele><time>2026-03-28T16:59:03.84Z</time></trkpt><trkpt lat="45.6209833" lon="10.5671067"><ele>79.0</ele><time>2026-03-28T16:59:04.84Z</time></trkpt><trkpt lat="45.6209167" lon="10.5670033"><ele>77.0</ele><time>2026-03-28T16:59:05.839Z</time></trkpt><trkpt lat="45.6208433" lon="10.5669033"><ele>75.0</ele><time>2026-03-28T16:59:06.84Z</time></trkpt><trkpt lat="45.62077" lon="10.566795"><ele>75.0</ele><time>2026-03-28T16:59:07.839Z</time></trkpt><trkpt lat="45.6206933" lon="10.5666817"><ele>75.0</ele><time>2026-03-28T16:59:08.839Z</time></trkpt><trkpt lat="45.620615" lon="10.56657"><ele>75.0</ele><time>2026-03-28T16:59:09.84Z</time></trkpt><trkpt lat="45.6205367" lon="10.5664583"><ele>75.0</ele><time>2026-03-28T16:59:10.84Z</time></trkpt><trkpt lat="45.6204567" lon="10.5663467"><ele>75.0</ele><time>2026-03-28T16:59:11.839Z</time></trkpt><trkpt lat="45.620375" lon="10.5662333"><ele>73.5</ele><time>2026-03-28T16:59:12.84Z</time></trkpt><trkpt lat="45.620295" lon="10.5661167"><ele>72.0</ele><time>2026-03-28T16:59:13.839Z</time></trkpt><trkpt lat="45.620215" lon="10.5660017"><ele>70.5</ele><time>2026-03-28T16:59:14.84Z</time></trkpt><trkpt lat="45.620135" lon="10.5658833"><ele>69.0</ele><time>2026-03-28T16:59:15.839Z</time></trkpt><trkpt lat="45.620055" lon="10.5657667"><ele>69.0</ele><time>2026-03-28T16:59:16.839Z</time></trkpt><trkpt lat="45.6199783" lon="10.5656517"><ele>69.0</ele><time>2026-03-28T16:59:17.84Z</time></trkpt><trkpt lat="45.6199017" lon="10.5655383"><ele>69.0</ele><time>2026-03-28T16:59:18.84Z</time></trkpt><trkpt lat="45.6198233" lon="10.565425"><ele>69.0</ele><time>2026-03-28T16:59:19.839Z</time></trkpt><trkpt lat="45.61975" lon="10.5653117"><ele>69.0</ele><time>2026-03-28T16:59:20.839Z</time></trkpt><trkpt lat="45.6196767" lon="10.5652067"><ele>68.83333333333333</ele><time>2026-03-28T16:59:21.839Z</time></trkpt><trkpt lat="45.6196117" lon="10.565105"><ele>68.66666666666667</ele><time>2026-03-28T16:59:22.839Z</time></trkpt><trkpt lat="45.6195567" lon="10.5650183"><ele>68.5</ele><time>2026-03-28T16:59:23.839Z</time></trkpt><trkpt lat="45.61951" lon="10.5649483"><ele>68.33333333333334</ele><time>2026-03-28T16:59:24.839Z</time></trkpt><trkpt lat="45.619435" lon="10.5648167"><ele>68.16666666666667</ele><time>2026-03-28T16:59:26.839Z</time></trkpt><trkpt lat="45.619395" lon="10.5647367"><ele>68.0</ele><time>2026-03-28T16:59:27.84Z</time></trkpt><trkpt lat="45.6193517" lon="10.564645"><ele>68.0</ele><time>2026-03-28T16:59:28.839Z</time></trkpt><trkpt lat="45.619315" lon="10.56455"><ele>68.0</ele><time>2026-03-28T16:59:29.839Z</time></trkpt><trkpt lat="45.6192817" lon="10.5644683"><ele>68.0</ele><time>2026-03-28T16:59:30.84Z</time></trkpt><trkpt lat="45.61923" lon="10.5642933"><ele>68.0</ele><time>2026-03-28T16:59:32.839Z</time></trkpt><trkpt lat="45.6191983" lon="10.5641867"><ele>68.0</ele><time>2026-03-28T16:59:33.84Z</time></trkpt><trkpt lat="45.61916" lon="10.564065"><ele>68.0</ele><time>2026-03-28T16:59:34.84Z</time></trkpt><trkpt lat="45.6191217" lon="10.5639183"><ele>69.25</ele><time>2026-03-28T16:59:35.839Z</time></trkpt><trkpt lat="45.6190767" lon="10.5637717"><ele>70.5</ele><time>2026-03-28T16:59:36.839Z</time></trkpt><trkpt lat="45.6190333" lon="10.5636133"><ele>71.75</ele><time>2026-03-28T16:59:37.84Z</time></trkpt><trkpt lat="45.6189983" lon="10.5634367"><ele>73.0</ele><time>2026-03-28T16:59:38.839Z</time></trkpt><trkpt lat="45.6189517" lon="10.5632667"><ele>73.6</ele><time>2026-03-28T16:59:39.839Z</time></trkpt><trkpt lat="45.6189133" lon="10.5631"><ele>74.19999999999999</ele><time>2026-03-28T16:59:40.839Z</time></trkpt><trkpt lat="45.6188767" lon="10.5629833"><ele>74.8</ele><time>2026-03-28T16:59:41.84Z</time></trkpt><trkpt lat="45.6188383" lon="10.5628483"><ele>75.39999999999999</ele><time>2026-03-28T16:59:43.84Z</time></trkpt><trkpt lat="45.6188067" lon="10.562755"><ele>76.0</ele><time>2026-03-28T16:59:46.839Z</time></trkpt><trkpt lat="45.6187767" lon="10.562605"><ele>76.8</ele><time>2026-03-28T16:59:48.84Z</time></trkpt><trkpt lat="45.618735" lon="10.562435"><ele>77.6</ele><time>2026-03-28T16:59:50.839Z</time></trkpt><trkpt lat="45.6187133" lon="10.5623467"><ele>78.4</ele><time>2026-03-28T16:59:51.839Z</time></trkpt><trkpt lat="45.6186783" lon="10.56227"><ele>79.2</ele><time>2026-03-28T16:59:52.84Z</time></trkpt><trkpt lat="45.618645" lon="10.5621133"><ele>80.0</ele><time>2026-03-28T16:59:54.84Z</time></trkpt><trkpt lat="45.618615" lon="10.5619333"><ele>78.4</ele><time>2026-03-28T16:59:56.839Z</time></trkpt><trkpt lat="45.6185917" lon="10.561825"><ele>76.8</ele><time>2026-03-28T16:59:57.839Z</time></trkpt><trkpt lat="45.6185633" lon="10.5616983"><ele>75.2</ele><time>2026-03-28T16:59:58.84Z</time></trkpt><trkpt lat="45.6185367" lon="10.5615583"><ele>73.6</ele><time>2026-03-28T16:59:59.84Z</time></trkpt><trkpt lat="45.6185133" lon="10.5614117"><ele>72.0</ele><time>2026-03-28T17:00:00.84Z</time></trkpt><trkpt lat="45.6184867" lon="10.56127"><ele>72.16666666666667</ele><time>2026-03-28T17:00:01.84Z</time></trkpt><trkpt lat="45.61846" lon="10.5611333"><ele>72.33333333333333</ele><time>2026-03-28T17:00:02.84Z</time></trkpt><trkpt lat="45.6184383" lon="10.5610133"><ele>72.5</ele><time>2026-03-28T17:00:03.839Z</time></trkpt><trkpt lat="45.61842" lon="10.5609133"><ele>72.66666666666666</ele><time>2026-03-28T17:00:04.84Z</time></trkpt><trkpt lat="45.6184" lon="10.56082"><ele>72.83333333333333</ele><time>2026-03-28T17:00:05.839Z</time></trkpt><trkpt lat="45.6183733" lon="10.560675"><ele>73.0</ele><time>2026-03-28T17:00:07.839Z</time></trkpt><trkpt lat="45.618345" lon="10.560545"><ele>73.0</ele><time>2026-03-28T17:00:09.839Z</time></trkpt><trkpt lat="45.618315" lon="10.560425"><ele>73.0</ele><time>2026-03-28T17:00:11.839Z</time></trkpt><trkpt lat="45.6183" lon="10.5603167"><ele>73.0</ele><time>2026-03-28T17:00:13.84Z</time></trkpt><trkpt lat="45.6182817" lon="10.5602233"><ele>73.0</ele><time>2026-03-28T17:00:15.839Z</time></trkpt><trkpt lat="45.61827" lon="10.5601333"><ele>73.0</ele><time>2026-03-28T17:00:17.839Z</time></trkpt><trkpt lat="45.6182533" lon="10.560025"><ele>73.0</ele><time>2026-03-28T17:00:19.84Z</time></trkpt><trkpt lat="45.6182317" lon="10.5599167"><ele>73.16666666666666</ele><time>2026-03-28T17:00:21.839Z</time></trkpt><trkpt lat="45.6182133" lon="10.5598217"><ele>73.33333333333333</ele><time>2026-03-28T17:00:23.839Z</time></trkpt><trkpt lat="45.6181917" lon="10.5597117"><ele>73.5</ele><time>2026-03-28T17:00:26.84Z</time></trkpt><trkpt lat="45.6181683" lon="10.5596017"><ele>73.66666666666667</ele><time>2026-03-28T17:00:30.839Z</time></trkpt><trkpt lat="45.6181383" lon="10.5594717"><ele>73.83333333333334</ele><time>2026-03-28T17:00:33.84Z</time></trkpt><trkpt lat="45.6181167" lon="10.5593783"><ele>74.0</ele><time>2026-03-28T17:00:35.84Z</time></trkpt><trkpt lat="45.6180917" lon="10.5592667"><ele>74.33333333333334</ele><time>2026-03-28T17:00:38.839Z</time></trkpt><trkpt lat="45.618065" lon="10.5591383"><ele>74.66666666666667</ele><time>2026-03-28T17:00:42.839Z</time></trkpt><trkpt lat="45.6180383" lon="10.5590267"><ele>75.0</ele><time>2026-03-28T17:00:45.839Z</time></trkpt><trkpt lat="45.6180367" lon="10.558935"><ele>75.33333333333333</ele><time>2026-03-28T17:00:48.839Z</time></trkpt><trkpt lat="45.6180067" lon="10.5588417"><ele>75.66666666666666</ele><time>2026-03-28T17:00:51.839Z</time></trkpt><trkpt lat="45.6179933" lon="10.5587383"><ele>76.0</ele><time>2026-03-28T17:00:53.839Z</time></trkpt><trkpt lat="45.61797" lon="10.55862"><ele>75.8</ele><time>2026-03-28T17:00:55.84Z</time></trkpt><trkpt lat="45.617925" lon="10.5584717"><ele>75.6</ele><time>2026-03-28T17:00:57.839Z</time></trkpt><trkpt lat="45.6178933" lon="10.5583883"><ele>75.4</ele><time>2026-03-28T17:00:58.839Z</time></trkpt><trkpt lat="45.61783" lon="10.5582317"><ele>75.2</ele><time>2026-03-28T17:01:00.84Z</time></trkpt><trkpt lat="45.61779" lon="10.5581483"><ele>75.0</ele><time>2026-03-28T17:01:01.839Z</time></trkpt><trkpt lat="45.6177417" lon="10.558055"><ele>75.0</ele><time>2026-03-28T17:01:02.84Z</time></trkpt><trkpt lat="45.6176867" lon="10.5579417"><ele>75.0</ele><time>2026-03-28T17:01:03.84Z</time></trkpt><trkpt lat="45.6176283" lon="10.5578233"><ele>75.0</ele><time>2026-03-28T17:01:04.839Z</time></trkpt><trkpt lat="45.6175783" lon="10.5577167"><ele>75.0</ele><time>2026-03-28T17:01:05.839Z</time></trkpt><trkpt lat="45.6175367" lon="10.5576233"><ele>75.0</ele><time>2026-03-28T17:01:06.84Z</time></trkpt><trkpt lat="45.6174917" lon="10.5575383"><ele>75.0</ele><time>2026-03-28T17:01:07.839Z</time></trkpt><trkpt lat="45.61744" lon="10.5574333"><ele>75.8</ele><time>2026-03-28T17:01:08.839Z</time></trkpt><trkpt lat="45.61738" lon="10.5573067"><ele>76.6</ele><time>2026-03-28T17:01:09.839Z</time></trkpt><trkpt lat="45.6173233" lon="10.5571733"><ele>77.4</ele><time>2026-03-28T17:01:10.839Z</time></trkpt><trkpt lat="45.6172717" lon="10.55706"><ele>78.2</ele><time>2026-03-28T17:01:11.84Z</time></trkpt><trkpt lat="45.6172317" lon="10.5569683"><ele>79.0</ele><time>2026-03-28T17:01:12.839Z</time></trkpt><trkpt lat="45.6171967" lon="10.5568883"><ele>79.2</ele><time>2026-03-28T17:01:13.839Z</time></trkpt><trkpt lat="45.6171317" lon="10.5567567"><ele>79.4</ele><time>2026-03-28T17:01:15.839Z</time></trkpt><trkpt lat="45.6170783" lon="10.5566383"><ele>79.6</ele><time>2026-03-28T17:01:17.84Z</time></trkpt><trkpt lat="45.61701" lon="10.55649"><ele>79.8</ele><time>2026-03-28T17:01:19.839Z</time></trkpt><trkpt lat="45.61695" lon="10.5564017"><ele>80.0</ele><time>2026-03-28T17:01:21.84Z</time></trkpt><trkpt lat="45.6169083" lon="10.5563183"><ele>79.5</ele><time>2026-03-28T17:01:24.839Z</time></trkpt><trkpt lat="45.6168567" lon="10.5562133"><ele>79.0</ele><time>2026-03-28T17:01:27.84Z</time></trkpt><trkpt lat="45.6168033" lon="10.55611"><ele>78.5</ele><time>2026-03-28T17:01:29.84Z</time></trkpt><trkpt lat="45.616775" lon="10.5560283"><ele>78.0</ele><time>2026-03-28T17:01:31.84Z</time></trkpt><trkpt lat="45.6167283" lon="10.5559617"><ele>77.5</ele><time>2026-03-28T17:01:33.839Z</time></trkpt><trkpt lat="45.6166617" lon="10.5558483"><ele>77.0</ele><time>2026-03-28T17:01:35.839Z</time></trkpt><trkpt lat="45.6165867" lon="10.55571"><ele>77.0</ele><time>2026-03-28T17:01:37.839Z</time></trkpt><trkpt lat="45.6165217" lon="10.5555867"><ele>77.0</ele><time>2026-03-28T17:01:39.84Z</time></trkpt><trkpt lat="45.6164517" lon="10.5554633"><ele>77.0</ele><time>2026-03-28T17:01:41.84Z</time></trkpt><trkpt lat="45.6164017" lon="10.5553783"><ele>77.0</ele><time>2026-03-28T17:01:43.839Z</time></trkpt><trkpt lat="45.6163583" lon="10.55529"><ele>77.0</ele><time>2026-03-28T17:01:46.839Z</time></trkpt><trkpt lat="45.6163167" lon="10.55519"><ele>77.0</ele><time>2026-03-28T17:01:49.84Z</time></trkpt><trkpt lat="45.6162767" lon="10.5551133"><ele>77.0</ele><time>2026-03-28T17:01:51.839Z</time></trkpt><trkpt lat="45.6162133" lon="10.5549917"><ele>77.0</ele><time>2026-03-28T17:01:54.839Z</time></trkpt><trkpt lat="45.6161467" lon="10.5548567"><ele>77.0</ele><time>2026-03-28T17:01:56.839Z</time></trkpt><trkpt lat="45.6161033" lon="10.554775"><ele>77.0</ele><time>2026-03-28T17:01:57.839Z</time></trkpt><trkpt lat="45.6160583" lon="10.55468"><ele>77.0</ele><time>2026-03-28T17:01:58.839Z</time></trkpt><trkpt lat="45.6160133" lon="10.554585"><ele>77.8</ele><time>2026-03-28T17:01:59.839Z</time></trkpt><trkpt lat="45.6159583" lon="10.55448"><ele>78.6</ele><time>2026-03-28T17:02:00.84Z</time></trkpt><trkpt lat="45.615905" lon="10.5543783"><ele>79.39999999999999</ele><time>2026-03-28T17:02:01.84Z</time></trkpt><trkpt lat="45.6158483" lon="10.5542717"><ele>80.2</ele><time>2026-03-28T17:02:02.84Z</time></trkpt><trkpt lat="45.615795" lon="10.554165"><ele>81.0</ele><time>2026-03-28T17:02:03.84Z</time></trkpt><trkpt lat="45.6157417" lon="10.554055"><ele>81.0</ele><time>2026-03-28T17:02:04.839Z</time></trkpt><trkpt lat="45.6156967" lon="10.553965"><ele>81.0</ele><time>2026-03-28T17:02:05.84Z</time></trkpt><trkpt lat="45.61566" lon="10.553885"><ele>81.0</ele><time>2026-03-28T17:02:06.839Z</time></trkpt><trkpt lat="45.6156267" lon="10.5538017"><ele>81.0</ele><time>2026-03-28T17:02:07.84Z</time></trkpt><trkpt lat="45.61559" lon="10.553715"><ele>81.0</ele><time>2026-03-28T17:02:08.84Z</time></trkpt><trkpt lat="45.6155567" lon="10.5536333"><ele>81.0</ele><time>2026-03-28T17:02:09.84Z</time></trkpt><trkpt lat="45.6154967" lon="10.5534733"><ele>81.16666666666667</ele><time>2026-03-28T17:02:11.84Z</time></trkpt><trkpt lat="45.6154583" lon="10.553385"><ele>81.33333333333333</ele><time>2026-03-28T17:02:12.84Z</time></trkpt><trkpt lat="45.6154217" lon="10.5532967"><ele>81.5</ele><time>2026-03-28T17:02:13.839Z</time></trkpt><trkpt lat="45.6153817" lon="10.5532133"><ele>81.66666666666666</ele><time>2026-03-28T17:02:14.839Z</time></trkpt><trkpt lat="45.6153433" lon="10.5531217"><ele>81.83333333333333</ele><time>2026-03-28T17:02:15.84Z</time></trkpt><trkpt lat="45.61531" lon="10.5530283"><ele>82.0</ele><time>2026-03-28T17:02:16.84Z</time></trkpt><trkpt lat="45.615255" lon="10.5528817"><ele>81.0</ele><time>2026-03-28T17:02:18.839Z</time></trkpt><trkpt lat="45.6152017" lon="10.552765"><ele>80.0</ele><time>2026-03-28T17:02:20.839Z</time></trkpt><trkpt lat="45.6151633" lon="10.5526517"><ele>79.0</ele><time>2026-03-28T17:02:22.84Z</time></trkpt><trkpt lat="45.6151217" lon="10.5525467"><ele>78.0</ele><time>2026-03-28T17:02:24.839Z</time></trkpt><trkpt lat="45.6150817" lon="10.552445"><ele>77.0</ele><time>2026-03-28T17:02:26.839Z</time></trkpt><trkpt lat="45.6150283" lon="10.5523317"><ele>76.0</ele><time>2026-03-28T17:02:28.839Z</time></trkpt><trkpt lat="45.6149967" lon="10.55222"><ele>76.0</ele><time>2026-03-28T17:02:30.839Z</time></trkpt><trkpt lat="45.6149583" lon="10.5520883"><ele>76.0</ele><time>2026-03-28T17:02:32.839Z</time></trkpt><trkpt lat="45.6149283" lon="10.5519983"><ele>76.0</ele><time>2026-03-28T17:02:33.839Z</time></trkpt><trkpt lat="45.6148917" lon="10.5519083"><ele>76.0</ele><time>2026-03-28T17:02:34.84Z</time></trkpt><trkpt lat="45.6148533" lon="10.5518133"><ele>76.0</ele><time>2026-03-28T17:02:35.84Z</time></trkpt><trkpt lat="45.6148183" lon="10.5517283"><ele>76.0</ele><time>2026-03-28T17:02:36.84Z</time></trkpt><trkpt lat="45.6147533" lon="10.55159"><ele>76.16666666666666</ele><time>2026-03-28T17:02:38.84Z</time></trkpt><trkpt lat="45.6147183" lon="10.5515117"><ele>76.33333333333333</ele><time>2026-03-28T17:02:39.84Z</time></trkpt><trkpt lat="45.61468" lon="10.55142"><ele>76.5</ele><time>2026-03-28T17:02:40.839Z</time></trkpt><trkpt lat="45.61464" lon="10.5513233"><ele>76.66666666666667</ele><time>2026-03-28T17:02:41.839Z</time></trkpt><trkpt lat="45.614595" lon="10.55121"><ele>76.83333333333334</ele><time>2026-03-28T17:02:42.839Z</time></trkpt><trkpt lat="45.61455" lon="10.55109"><ele>77.0</ele><time>2026-03-28T17:02:43.84Z</time></trkpt><trkpt lat="45.6145017" lon="10.5509667"><ele>76.33333333333334</ele><time>2026-03-28T17:02:44.839Z</time></trkpt><trkpt lat="45.6144483" lon="10.5508567"><ele>75.66666666666667</ele><time>2026-03-28T17:02:45.839Z</time></trkpt><trkpt lat="45.6144017" lon="10.55075"><ele>75.0</ele><time>2026-03-28T17:02:46.839Z</time></trkpt><trkpt lat="45.6143683" lon="10.550655"><ele>74.33333333333333</ele><time>2026-03-28T17:02:47.84Z</time></trkpt><trkpt lat="45.614345" lon="10.5505667"><ele>73.66666666666666</ele><time>2026-03-28T17:02:48.839Z</time></trkpt><trkpt lat="45.614325" lon="10.5504417"><ele>73.0</ele><time>2026-03-28T17:02:50.839Z</time></trkpt><trkpt lat="45.6143083" lon="10.5503467"><ele>73.0</ele><time>2026-03-28T17:02:52.84Z</time></trkpt><trkpt lat="45.61429" lon="10.55023"><ele>73.0</ele><time>2026-03-28T17:02:54.839Z</time></trkpt><trkpt lat="45.61427" lon="10.55012"><ele>73.0</ele><time>2026-03-28T17:02:56.839Z</time></trkpt><trkpt lat="45.6142483" lon="10.55002"><ele>73.0</ele><time>2026-03-28T17:02:58.839Z</time></trkpt><trkpt lat="45.6142267" lon="10.5499033"><ele>73.0</ele><time>2026-03-28T17:03:01.839Z</time></trkpt><trkpt lat="45.61421" lon="10.5497533"><ele>73.0</ele><time>2026-03-28T17:03:09.84Z</time></trkpt><trkpt lat="45.6141733" lon="10.5496033"><ele>73.0</ele><time>2026-03-28T17:03:11.839Z</time></trkpt><trkpt lat="45.6141067" lon="10.54946"><ele>73.0</ele><time>2026-03-28T17:03:13.84Z</time></trkpt><trkpt lat="45.6140367" lon="10.5493783"><ele>73.0</ele><time>2026-03-28T17:03:15.839Z</time></trkpt><trkpt lat="45.6139967" lon="10.54927"><ele>73.0</ele><time>2026-03-28T17:03:18.84Z</time></trkpt><trkpt lat="45.6139883" lon="10.5491667"><ele>73.0</ele><time>2026-03-28T17:03:21.84Z</time></trkpt><trkpt lat="45.61397" lon="10.5490733"><ele>73.0</ele><time>2026-03-28T17:03:38.839Z</time></trkpt><trkpt lat="45.6139067" lon="10.5490917"><ele>73.0</ele><time>2026-03-28T17:03:42.839Z</time></trkpt><trkpt lat="45.613945" lon="10.549185"><ele>73.0</ele><time>2026-03-28T17:03:45.84Z</time></trkpt><trkpt lat="45.6140083" lon="10.5491933"><ele>73.0</ele><time>2026-03-28T17:08:02.84Z</time></trkpt><trkpt lat="45.6140117" lon="10.5490983"><ele>73.0</ele><time>2026-03-28T17:08:05.841Z</time></trkpt><trkpt lat="45.613995" lon="10.548995"><ele>73.0</ele><time>2026-03-28T17:10:56.84Z</time></trkpt><trkpt lat="45.6140333" lon="10.548915"><ele>73.0</ele><time>2026-03-28T17:11:09.84Z</time></trkpt><trkpt lat="45.61405" lon="10.5487717"><ele>73.0</ele><time>2026-03-28T17:11:13.84Z</time></trkpt><trkpt lat="45.614045" lon="10.5486717"><ele>73.4</ele><time>2026-03-28T17:11:14.841Z</time></trkpt><trkpt lat="45.6140317" lon="10.5485483"><ele>73.8</ele><time>2026-03-28T17:11:15.84Z</time></trkpt><trkpt lat="45.6140083" lon="10.5484167"><ele>74.2</ele><time>2026-03-28T17:11:16.841Z</time></trkpt><trkpt lat="45.6139833" lon="10.5482733"><ele>74.6</ele><time>2026-03-28T17:11:17.841Z</time></trkpt><trkpt lat="45.6139583" lon="10.5481283"><ele>75.0</ele><time>2026-03-28T17:11:18.84Z</time></trkpt><trkpt lat="45.6139317" lon="10.5479717"><ele>76.0</ele><time>2026-03-28T17:11:19.84Z</time></trkpt><trkpt lat="45.6139033" lon="10.5478033"><ele>77.0</ele><time>2026-03-28T17:11:20.84Z</time></trkpt><trkpt lat="45.613865" lon="10.54763"><ele>78.0</ele><time>2026-03-28T17:11:21.841Z</time></trkpt><trkpt lat="45.6138317" lon="10.54746"><ele>79.0</ele><time>2026-03-28T17:11:22.841Z</time></trkpt><trkpt lat="45.6137967" lon="10.54729"><ele>79.0</ele><time>2026-03-28T17:11:23.84Z</time></trkpt><trkpt lat="45.6137683" lon="10.5471083"><ele>79.0</ele><time>2026-03-28T17:11:24.84Z</time></trkpt><trkpt lat="45.613735" lon="10.54692"><ele>79.0</ele><time>2026-03-28T17:11:25.84Z</time></trkpt><trkpt lat="45.6136883" lon="10.5467383"><ele>79.0</ele><time>2026-03-28T17:11:26.84Z</time></trkpt><trkpt lat="45.6136317" lon="10.5465667"><ele>78.25</ele><time>2026-03-28T17:11:27.841Z</time></trkpt><trkpt lat="45.6135833" lon="10.5463733"><ele>77.5</ele><time>2026-03-28T17:11:28.841Z</time></trkpt><trkpt lat="45.6135417" lon="10.5461917"><ele>76.75</ele><time>2026-03-28T17:11:29.841Z</time></trkpt><trkpt lat="45.6135033" lon="10.546"><ele>76.0</ele><time>2026-03-28T17:11:30.84Z</time></trkpt><trkpt lat="45.613465" lon="10.5458117"><ele>76.0</ele><time>2026-03-28T17:11:31.84Z</time></trkpt><trkpt lat="45.613425" lon="10.545635"><ele>76.0</ele><time>2026-03-28T17:11:32.841Z</time></trkpt><trkpt lat="45.6133833" lon="10.5454567"><ele>76.0</ele><time>2026-03-28T17:11:33.841Z</time></trkpt><trkpt lat="45.6133383" lon="10.5452733"><ele>76.0</ele><time>2026-03-28T17:11:34.84Z</time></trkpt><trkpt lat="45.613285" lon="10.5450933"><ele>78.25</ele><time>2026-03-28T17:11:35.841Z</time></trkpt><trkpt lat="45.6132233" lon="10.5449233"><ele>80.5</ele><time>2026-03-28T17:11:36.841Z</time></trkpt><trkpt lat="45.6131583" lon="10.5447483"><ele>82.75</ele><time>2026-03-28T17:11:37.841Z</time></trkpt><trkpt lat="45.6130967" lon="10.5445733"><ele>85.0</ele><time>2026-03-28T17:11:38.84Z</time></trkpt><trkpt lat="45.61304" lon="10.5444217"><ele>88.75</ele><time>2026-03-28T17:11:39.841Z</time></trkpt><trkpt lat="45.612985" lon="10.5442717"><ele>92.5</ele><time>2026-03-28T17:11:40.841Z</time></trkpt><trkpt lat="45.61293" lon="10.5441233"><ele>96.25</ele><time>2026-03-28T17:11:41.841Z</time></trkpt><trkpt lat="45.6128767" lon="10.5439717"><ele>100.0</ele><time>2026-03-28T17:11:42.84Z</time></trkpt><trkpt lat="45.612825" lon="10.5438183"><ele>93.5</ele><time>2026-03-28T17:11:43.84Z</time></trkpt><trkpt lat="45.6127833" lon="10.543655"><ele>87.0</ele><time>2026-03-28T17:11:44.841Z</time></trkpt><trkpt lat="45.6127483" lon="10.543485"><ele>80.5</ele><time>2026-03-28T17:11:45.841Z</time></trkpt><trkpt lat="45.6127133" lon="10.5433133"><ele>74.0</ele><time>2026-03-28T17:11:46.841Z</time></trkpt><trkpt lat="45.6126883" lon="10.5431367"><ele>74.0</ele><time>2026-03-28T17:11:47.841Z</time></trkpt><trkpt lat="45.6126633" lon="10.542975"><ele>74.0</ele><time>2026-03-28T17:11:48.84Z</time></trkpt><trkpt lat="45.6126367" lon="10.5428067"><ele>74.0</ele><time>2026-03-28T17:11:49.841Z</time></trkpt><trkpt lat="45.6126017" lon="10.54263"><ele>74.0</ele><time>2026-03-28T17:11:50.841Z</time></trkpt><trkpt lat="45.6125583" lon="10.542455"><ele>75.25</ele><time>2026-03-28T17:11:51.84Z</time></trkpt><trkpt lat="45.612505" lon="10.5422767"><ele>76.5</ele><time>2026-03-28T17:11:52.841Z</time></trkpt><trkpt lat="45.6124367" lon="10.5420967"><ele>77.75</ele><time>2026-03-28T17:11:53.84Z</time></trkpt><trkpt lat="45.6123633" lon="10.5419067"><ele>79.0</ele><time>2026-03-28T17:11:54.84Z</time></trkpt><trkpt lat="45.6122917" lon="10.54173"><ele>80.5</ele><time>2026-03-28T17:11:55.84Z</time></trkpt><trkpt lat="45.6122233" lon="10.5415433"><ele>82.0</ele><time>2026-03-28T17:11:56.84Z</time></trkpt><trkpt lat="45.61216" lon="10.5413617"><ele>83.5</ele><time>2026-03-28T17:11:57.841Z</time></trkpt><trkpt lat="45.6121033" lon="10.5411833"><ele>85.0</ele><time>2026-03-28T17:11:58.84Z</time></trkpt><trkpt lat="45.6120517" lon="10.5410083"><ele>85.25</ele><time>2026-03-28T17:11:59.841Z</time></trkpt><trkpt lat="45.6119817" lon="10.5408433"><ele>85.5</ele><time>2026-03-28T17:12:00.841Z</time></trkpt><trkpt lat="45.6119233" lon="10.540685"><ele>85.75</ele><time>2026-03-28T17:12:01.841Z</time></trkpt><trkpt lat="45.6118683" lon="10.5405133"><ele>86.0</ele><time>2026-03-28T17:12:02.841Z</time></trkpt><trkpt lat="45.6118133" lon="10.5403517"><ele>86.0</ele><time>2026-03-28T17:12:03.84Z</time></trkpt><trkpt lat="45.6117517" lon="10.5401917"><ele>86.0</ele><time>2026-03-28T17:12:04.84Z</time></trkpt><trkpt lat="45.6116883" lon="10.5400283"><ele>86.0</ele><time>2026-03-28T17:12:05.84Z</time></trkpt><trkpt lat="45.611625" lon="10.5398683"><ele>86.0</ele><time>2026-03-28T17:12:06.841Z</time></trkpt><trkpt lat="45.6115667" lon="10.53971"><ele>86.0</ele><time>2026-03-28T17:12:07.84Z</time></trkpt><trkpt lat="45.6115133" lon="10.5395617"><ele>86.0</ele><time>2026-03-28T17:12:08.84Z</time></trkpt><trkpt lat="45.611455" lon="10.5394217"><ele>86.0</ele><time>2026-03-28T17:12:09.84Z</time></trkpt><trkpt lat="45.6114033" lon="10.5393"><ele>86.0</ele><time>2026-03-28T17:12:10.841Z</time></trkpt><trkpt lat="45.61136" lon="10.5391933"><ele>86.0</ele><time>2026-03-28T17:12:11.84Z</time></trkpt><trkpt lat="45.611315" lon="10.5390817"><ele>85.5</ele><time>2026-03-28T17:12:12.84Z</time></trkpt><trkpt lat="45.6112717" lon="10.5389483"><ele>85.0</ele><time>2026-03-28T17:12:13.841Z</time></trkpt><trkpt lat="45.6112167" lon="10.5388183"><ele>84.5</ele><time>2026-03-28T17:12:14.84Z</time></trkpt><trkpt lat="45.6111567" lon="10.5386583"><ele>84.0</ele><time>2026-03-28T17:12:15.841Z</time></trkpt><trkpt lat="45.6110933" lon="10.5384967"><ele>84.0</ele><time>2026-03-28T17:12:16.841Z</time></trkpt><trkpt lat="45.6110333" lon="10.5383167"><ele>84.0</ele><time>2026-03-28T17:12:17.841Z</time></trkpt><trkpt lat="45.6109617" lon="10.5381367"><ele>84.0</ele><time>2026-03-28T17:12:18.841Z</time></trkpt><trkpt lat="45.6109033" lon="10.5379383"><ele>84.0</ele><time>2026-03-28T17:12:19.841Z</time></trkpt><trkpt lat="45.6108533" lon="10.5377233"><ele>86.25</ele><time>2026-03-28T17:12:20.841Z</time></trkpt><trkpt lat="45.6108133" lon="10.5375167"><ele>88.5</ele><time>2026-03-28T17:12:21.84Z</time></trkpt><trkpt lat="45.6107833" lon="10.5373083"><ele>90.75</ele><time>2026-03-28T17:12:22.841Z</time></trkpt><trkpt lat="45.6107633" lon="10.5371083"><ele>93.0</ele><time>2026-03-28T17:12:23.841Z</time></trkpt><trkpt lat="45.6107883" lon="10.5369067"><ele>95.25</ele><time>2026-03-28T17:12:24.841Z</time></trkpt><trkpt lat="45.610815" lon="10.536675"><ele>97.5</ele><time>2026-03-28T17:12:25.841Z</time></trkpt><trkpt lat="45.6107933" lon="10.5364833"><ele>99.75</ele><time>2026-03-28T17:12:26.841Z</time></trkpt><trkpt lat="45.6107467" lon="10.5362883"><ele>102.0</ele><time>2026-03-28T17:12:27.841Z</time></trkpt><trkpt lat="45.6106683" lon="10.5361183"><ele>107.0</ele><time>2026-03-28T17:12:28.841Z</time></trkpt><trkpt lat="45.6105733" lon="10.53595"><ele>112.0</ele><time>2026-03-28T17:12:29.84Z</time></trkpt><trkpt lat="45.6104817" lon="10.5357667"><ele>117.0</ele><time>2026-03-28T17:12:30.84Z</time></trkpt><trkpt lat="45.6104017" lon="10.5355967"><ele>117.0</ele><time>2026-03-28T17:12:31.84Z</time></trkpt><trkpt lat="45.6103283" lon="10.53544"><ele>117.0</ele><time>2026-03-28T17:12:32.84Z</time></trkpt><trkpt lat="45.61027" lon="10.5352833"><ele>117.0</ele><time>2026-03-28T17:12:33.841Z</time></trkpt><trkpt lat="45.610225" lon="10.535135"><ele>117.0</ele><time>2026-03-28T17:12:34.84Z</time></trkpt><trkpt lat="45.610185" lon="10.5350017"><ele>116.8</ele><time>2026-03-28T17:12:35.84Z</time></trkpt><trkpt lat="45.6101467" lon="10.534875"><ele>116.6</ele><time>2026-03-28T17:12:36.841Z</time></trkpt><trkpt lat="45.61009" lon="10.534755"><ele>116.39999999999999</ele><time>2026-03-28T17:12:37.84Z</time></trkpt><trkpt lat="45.6100217" lon="10.534635"><ele>116.19999999999999</ele><time>2026-03-28T17:12:38.84Z</time></trkpt><trkpt lat="45.609945" lon="10.5345217"><ele>116.0</ele><time>2026-03-28T17:12:39.841Z</time></trkpt><trkpt lat="45.6098583" lon="10.5344067"><ele>116.0</ele><time>2026-03-28T17:12:40.84Z</time></trkpt><trkpt lat="45.6097783" lon="10.5343067"><ele>116.0</ele><time>2026-03-28T17:12:41.84Z</time></trkpt><trkpt lat="45.6097117" lon="10.5341983"><ele>116.0</ele><time>2026-03-28T17:12:42.841Z</time></trkpt><trkpt lat="45.609645" lon="10.5340733"><ele>116.0</ele><time>2026-03-28T17:12:43.84Z</time></trkpt><trkpt lat="45.6095917" lon="10.533935"><ele>116.0</ele><time>2026-03-28T17:12:44.84Z</time></trkpt><trkpt lat="45.609555" lon="10.5337867"><ele>118.75</ele><time>2026-03-28T17:12:45.84Z</time></trkpt><trkpt lat="45.60953" lon="10.5336333"><ele>121.5</ele><time>2026-03-28T17:12:46.84Z</time></trkpt><trkpt lat="45.6095133" lon="10.5334683"><ele>124.25</ele><time>2026-03-28T17:12:47.841Z</time></trkpt><trkpt lat="45.6095" lon="10.5333017"><ele>127.0</ele><time>2026-03-28T17:12:48.841Z</time></trkpt><trkpt lat="45.6095" lon="10.5331283"><ele>127.0</ele><time>2026-03-28T17:12:49.841Z</time></trkpt><trkpt lat="45.60951" lon="10.532955"><ele>127.0</ele><time>2026-03-28T17:12:50.84Z</time></trkpt><trkpt lat="45.6095417" lon="10.5327817"><ele>127.0</ele><time>2026-03-28T17:12:51.84Z</time></trkpt><trkpt lat="45.6095917" lon="10.5326133"><ele>127.0</ele><time>2026-03-28T17:12:52.841Z</time></trkpt><trkpt lat="45.60967" lon="10.5324433"><ele>125.75</ele><time>2026-03-28T17:12:53.84Z</time></trkpt><trkpt lat="45.609755" lon="10.532285"><ele>124.5</ele><time>2026-03-28T17:12:54.841Z</time></trkpt><trkpt lat="45.6098317" lon="10.5321283"><ele>123.25</ele><time>2026-03-28T17:12:55.84Z</time></trkpt><trkpt lat="45.6098683" lon="10.5319583"><ele>122.0</ele><time>2026-03-28T17:12:56.84Z</time></trkpt><trkpt lat="45.6098717" lon="10.5317717"><ele>121.25</ele><time>2026-03-28T17:12:57.841Z</time></trkpt><trkpt lat="45.609835" lon="10.5315933"><ele>120.5</ele><time>2026-03-28T17:12:58.841Z</time></trkpt><trkpt lat="45.60977" lon="10.5314217"><ele>119.75</ele><time>2026-03-28T17:12:59.84Z</time></trkpt><trkpt lat="45.6096867" lon="10.5312617"><ele>119.0</ele><time>2026-03-28T17:13:00.84Z</time></trkpt><trkpt lat="45.6096033" lon="10.531115"><ele>122.0</ele><time>2026-03-28T17:13:01.84Z</time></trkpt><trkpt lat="45.6095267" lon="10.5309483"><ele>125.0</ele><time>2026-03-28T17:13:02.841Z</time></trkpt><trkpt lat="45.60944" lon="10.530775"><ele>128.0</ele><time>2026-03-28T17:13:03.841Z</time></trkpt><trkpt lat="45.6093567" lon="10.5306017"><ele>131.0</ele><time>2026-03-28T17:13:04.841Z</time></trkpt><trkpt lat="45.6092683" lon="10.5304167"><ele>125.66666666666666</ele><time>2026-03-28T17:13:05.84Z</time></trkpt><trkpt lat="45.6091833" lon="10.53022"><ele>120.33333333333334</ele><time>2026-03-28T17:13:06.841Z</time></trkpt><trkpt lat="45.6091133" lon="10.5300233"><ele>115.0</ele><time>2026-03-28T17:13:07.84Z</time></trkpt><trkpt lat="45.6090633" lon="10.5298183"><ele>115.0</ele><time>2026-03-28T17:13:08.841Z</time></trkpt><trkpt lat="45.609005" lon="10.5296133"><ele>115.0</ele><time>2026-03-28T17:13:09.84Z</time></trkpt><trkpt lat="45.608935" lon="10.52939"><ele>115.0</ele><time>2026-03-28T17:13:10.841Z</time></trkpt><trkpt lat="45.6088817" lon="10.5291517"><ele>118.66666666666667</ele><time>2026-03-28T17:13:11.841Z</time></trkpt><trkpt lat="45.6088333" lon="10.5288967"><ele>122.33333333333334</ele><time>2026-03-28T17:13:12.84Z</time></trkpt><trkpt lat="45.608805" lon="10.52863"><ele>126.0</ele><time>2026-03-28T17:13:13.84Z</time></trkpt><trkpt lat="45.6087817" lon="10.52836"><ele>127.66666666666666</ele><time>2026-03-28T17:13:14.841Z</time></trkpt><trkpt lat="45.6087617" lon="10.5281017"><ele>129.33333333333331</ele><time>2026-03-28T17:13:15.841Z</time></trkpt><trkpt lat="45.6087417" lon="10.527855"><ele>131.0</ele><time>2026-03-28T17:13:16.84Z</time></trkpt><trkpt lat="45.6087217" lon="10.52762"><ele>131.5</ele><time>2026-03-28T17:13:17.84Z</time></trkpt><trkpt lat="45.6087017" lon="10.527395"><ele>132.0</ele><time>2026-03-28T17:13:18.84Z</time></trkpt><trkpt lat="45.608685" lon="10.5271883"><ele>132.5</ele><time>2026-03-28T17:13:19.841Z</time></trkpt><trkpt lat="45.6086583" lon="10.526995"><ele>133.0</ele><time>2026-03-28T17:13:20.84Z</time></trkpt><trkpt lat="45.6086367" lon="10.5267967"><ele>125.5</ele><time>2026-03-28T17:13:21.84Z</time></trkpt><trkpt lat="45.6086183" lon="10.5266"><ele>118.0</ele><time>2026-03-28T17:13:22.84Z</time></trkpt><trkpt lat="45.6086283" lon="10.5264017"><ele>110.5</ele><time>2026-03-28T17:13:23.841Z</time></trkpt><trkpt lat="45.6086183" lon="10.5262133"><ele>103.0</ele><time>2026-03-28T17:13:24.841Z</time></trkpt><trkpt lat="45.608615" lon="10.5260183"><ele>102.5</ele><time>2026-03-28T17:13:25.84Z</time></trkpt><trkpt lat="45.6086233" lon="10.525815"><ele>102.0</ele><time>2026-03-28T17:13:26.841Z</time></trkpt><trkpt lat="45.6086483" lon="10.52561"><ele>101.5</ele><time>2026-03-28T17:13:27.84Z</time></trkpt><trkpt lat="45.6086667" lon="10.5254"><ele>101.0</ele><time>2026-03-28T17:13:28.84Z</time></trkpt><trkpt lat="45.6086817" lon="10.52518"><ele>109.0</ele><time>2026-03-28T17:13:29.84Z</time></trkpt><trkpt lat="45.60869" lon="10.5249767"><ele>117.0</ele><time>2026-03-28T17:13:30.841Z</time></trkpt><trkpt lat="45.6087083" lon="10.5247717"><ele>125.0</ele><time>2026-03-28T17:13:31.84Z</time></trkpt><trkpt lat="45.6087167" lon="10.5245933"><ele>133.0</ele><time>2026-03-28T17:13:32.84Z</time></trkpt><trkpt lat="45.6087267" lon="10.5243933"><ele>133.0</ele><time>2026-03-28T17:13:33.841Z</time></trkpt><trkpt lat="45.6087383" lon="10.5241817"><ele>133.0</ele><time>2026-03-28T17:13:34.841Z</time></trkpt><trkpt lat="45.6087283" lon="10.524005"><ele>133.0</ele><time>2026-03-28T17:13:35.84Z</time></trkpt><trkpt lat="45.6087383" lon="10.523805"><ele>133.0</ele><time>2026-03-28T17:13:36.84Z</time></trkpt><trkpt lat="45.6087317" lon="10.523615"><ele>132.4</ele><time>2026-03-28T17:13:37.84Z</time></trkpt><trkpt lat="45.6087217" lon="10.5234433"><ele>131.8</ele><time>2026-03-28T17:13:38.841Z</time></trkpt><trkpt lat="45.6087067" lon="10.5232817"><ele>131.2</ele><time>2026-03-28T17:13:39.841Z</time></trkpt><trkpt lat="45.6086767" lon="10.5231567"><ele>130.6</ele><time>2026-03-28T17:13:40.841Z</time></trkpt><trkpt lat="45.6086617" lon="10.52301"><ele>130.0</ele><time>2026-03-28T17:13:41.841Z</time></trkpt><trkpt lat="45.6086217" lon="10.5228683"><ele>123.25</ele><time>2026-03-28T17:13:42.84Z</time></trkpt><trkpt lat="45.60858" lon="10.5227183"><ele>116.5</ele><time>2026-03-28T17:13:43.84Z</time></trkpt><trkpt lat="45.60854" lon="10.5225367"><ele>109.75</ele><time>2026-03-28T17:13:44.841Z</time></trkpt><trkpt lat="45.60852" lon="10.5223683"><ele>103.0</ele><time>2026-03-28T17:13:45.841Z</time></trkpt><trkpt lat="45.6085183" lon="10.5221917"><ele>101.5</ele><time>2026-03-28T17:13:46.841Z</time></trkpt><trkpt lat="45.6085517" lon="10.522015"><ele>100.0</ele><time>2026-03-28T17:13:47.841Z</time></trkpt><trkpt lat="45.6086017" lon="10.5218467"><ele>98.5</ele><time>2026-03-28T17:13:48.84Z</time></trkpt><trkpt lat="45.608685" lon="10.5216733"><ele>97.0</ele><time>2026-03-28T17:13:49.84Z</time></trkpt><trkpt lat="45.6087767" lon="10.5215117"><ele>99.25</ele><time>2026-03-28T17:13:50.84Z</time></trkpt><trkpt lat="45.6088767" lon="10.521365"><ele>101.5</ele><time>2026-03-28T17:13:51.84Z</time></trkpt><trkpt lat="45.608985" lon="10.5212367"><ele>103.75</ele><time>2026-03-28T17:13:52.84Z</time></trkpt><trkpt lat="45.6090917" lon="10.521105"><ele>106.0</ele><time>2026-03-28T17:13:53.84Z</time></trkpt><trkpt lat="45.6091883" lon="10.52095"><ele>106.0</ele><time>2026-03-28T17:13:54.841Z</time></trkpt><trkpt lat="45.609285" lon="10.5207867"><ele>106.0</ele><time>2026-03-28T17:13:55.841Z</time></trkpt><trkpt lat="45.6093933" lon="10.52063"><ele>106.0</ele><time>2026-03-28T17:13:56.841Z</time></trkpt><trkpt lat="45.6094967" lon="10.5204783"><ele>107.66666666666667</ele><time>2026-03-28T17:13:57.841Z</time></trkpt><trkpt lat="45.6095933" lon="10.5203167"><ele>109.33333333333334</ele><time>2026-03-28T17:13:58.84Z</time></trkpt><trkpt lat="45.6096967" lon="10.52014"><ele>111.0</ele><time>2026-03-28T17:13:59.84Z</time></trkpt><trkpt lat="45.6097983" lon="10.5199517"><ele>111.0</ele><time>2026-03-28T17:14:00.84Z</time></trkpt><trkpt lat="45.6098867" lon="10.51977"><ele>111.0</ele><time>2026-03-28T17:14:01.84Z</time></trkpt><trkpt lat="45.6099667" lon="10.5195967"><ele>111.0</ele><time>2026-03-28T17:14:02.841Z</time></trkpt><trkpt lat="45.6100417" lon="10.5194283"><ele>111.0</ele><time>2026-03-28T17:14:03.841Z</time></trkpt><trkpt lat="45.6101183" lon="10.51924"><ele>110.0</ele><time>2026-03-28T17:14:04.84Z</time></trkpt><trkpt lat="45.6101783" lon="10.5190467"><ele>109.0</ele><time>2026-03-28T17:14:05.841Z</time></trkpt><trkpt lat="45.6102317" lon="10.5188483"><ele>108.0</ele><time>2026-03-28T17:14:06.841Z</time></trkpt><trkpt lat="45.6102767" lon="10.5186333"><ele>107.0</ele><time>2026-03-28T17:14:07.84Z</time></trkpt><trkpt lat="45.61032" lon="10.5184183"><ele>106.0</ele><time>2026-03-28T17:14:08.841Z</time></trkpt><trkpt lat="45.6103733" lon="10.5181933"><ele>105.0</ele><time>2026-03-28T17:14:09.84Z</time></trkpt><trkpt lat="45.6104183" lon="10.5179783"><ele>108.75</ele><time>2026-03-28T17:14:10.841Z</time></trkpt><trkpt lat="45.61046" lon="10.517785"><ele>112.5</ele><time>2026-03-28T17:14:11.841Z</time></trkpt><trkpt lat="45.6104983" lon="10.5176117"><ele>116.25</ele><time>2026-03-28T17:14:12.84Z</time></trkpt><trkpt lat="45.6105433" lon="10.5174433"><ele>120.0</ele><time>2026-03-28T17:14:13.841Z</time></trkpt><trkpt lat="45.6105883" lon="10.5172617"><ele>120.0</ele><time>2026-03-28T17:14:14.84Z</time></trkpt><trkpt lat="45.61063" lon="10.5170783"><ele>120.0</ele><time>2026-03-28T17:14:15.841Z</time></trkpt><trkpt lat="45.6106717" lon="10.5168967"><ele>120.0</ele><time>2026-03-28T17:14:16.841Z</time></trkpt><trkpt lat="45.6107117" lon="10.5167117"><ele>120.0</ele><time>2026-03-28T17:14:17.84Z</time></trkpt><trkpt lat="45.6107483" lon="10.51654"><ele>119.0</ele><time>2026-03-28T17:14:18.841Z</time></trkpt><trkpt lat="45.610785" lon="10.5163783"><ele>118.0</ele><time>2026-03-28T17:14:19.841Z</time></trkpt><trkpt lat="45.61082" lon="10.5162133"><ele>117.0</ele><time>2026-03-28T17:14:20.841Z</time></trkpt><trkpt lat="45.6108517" lon="10.5160483"><ele>116.0</ele><time>2026-03-28T17:14:21.84Z</time></trkpt><trkpt lat="45.6109033" lon="10.51585"><ele>115.0</ele><time>2026-03-28T17:14:22.84Z</time></trkpt><trkpt lat="45.610935" lon="10.5156933"><ele>114.0</ele><time>2026-03-28T17:14:23.84Z</time></trkpt><trkpt lat="45.6109683" lon="10.5155233"><ele>113.0</ele><time>2026-03-28T17:14:24.841Z</time></trkpt><trkpt lat="45.6110017" lon="10.51536"><ele>112.0</ele><time>2026-03-28T17:14:25.84Z</time></trkpt><trkpt lat="45.6110483" lon="10.51521"><ele>111.25</ele><time>2026-03-28T17:14:26.841Z</time></trkpt><trkpt lat="45.61108" lon="10.5150217"><ele>110.5</ele><time>2026-03-28T17:14:27.84Z</time></trkpt><trkpt lat="45.61112" lon="10.51484"><ele>109.75</ele><time>2026-03-28T17:14:28.84Z</time></trkpt><trkpt lat="45.6111567" lon="10.5146733"><ele>109.0</ele><time>2026-03-28T17:14:29.84Z</time></trkpt><trkpt lat="45.61119" lon="10.51449"><ele>111.5</ele><time>2026-03-28T17:14:30.84Z</time></trkpt><trkpt lat="45.611225" lon="10.5143183"><ele>114.0</ele><time>2026-03-28T17:14:31.84Z</time></trkpt><trkpt lat="45.61126" lon="10.5141467"><ele>116.5</ele><time>2026-03-28T17:14:32.841Z</time></trkpt><trkpt lat="45.6112983" lon="10.5139717"><ele>119.0</ele><time>2026-03-28T17:14:33.841Z</time></trkpt><trkpt lat="45.611335" lon="10.5138083"><ele>118.4</ele><time>2026-03-28T17:14:34.841Z</time></trkpt><trkpt lat="45.61137" lon="10.5136533"><ele>117.80000000000001</ele><time>2026-03-28T17:14:35.84Z</time></trkpt><trkpt lat="45.6114033" lon="10.51353"><ele>117.19999999999999</ele><time>2026-03-28T17:14:36.84Z</time></trkpt><trkpt lat="45.6114267" lon="10.5134217"><ele>116.6</ele><time>2026-03-28T17:14:37.841Z</time></trkpt><trkpt lat="45.6114517" lon="10.5133033"><ele>116.0</ele><time>2026-03-28T17:14:38.841Z</time></trkpt><trkpt lat="45.611475" lon="10.5131883"><ele>116.00000000000001</ele><time>2026-03-28T17:14:39.84Z</time></trkpt><trkpt lat="45.6115067" lon="10.51308"><ele>116.0</ele><time>2026-03-28T17:14:40.84Z</time></trkpt><trkpt lat="45.6115317" lon="10.5129833"><ele>116.00000000000001</ele><time>2026-03-28T17:14:41.84Z</time></trkpt><trkpt lat="45.61155" lon="10.5128967"><ele>116.00000000000001</ele><time>2026-03-28T17:14:42.841Z</time></trkpt><trkpt lat="45.6115683" lon="10.5128033"><ele>116.0</ele><time>2026-03-28T17:14:43.84Z</time></trkpt><trkpt lat="45.6115917" lon="10.5127033"><ele>116.00000000000001</ele><time>2026-03-28T17:14:44.84Z</time></trkpt><trkpt lat="45.6116117" lon="10.51261"><ele>116.00000000000001</ele><time>2026-03-28T17:14:45.84Z</time></trkpt><trkpt lat="45.6116317" lon="10.5125167"><ele>115.85714285714288</ele><time>2026-03-28T17:14:46.84Z</time></trkpt><trkpt lat="45.6116483" lon="10.5124167"><ele>115.71428571428572</ele><time>2026-03-28T17:14:47.84Z</time></trkpt><trkpt lat="45.6116767" lon="10.5123233"><ele>115.57142857142857</ele><time>2026-03-28T17:14:48.84Z</time></trkpt><trkpt lat="45.6116983" lon="10.512205"><ele>115.42857142857143</ele><time>2026-03-28T17:14:49.84Z</time></trkpt><trkpt lat="45.6117183" lon="10.5120983"><ele>115.28571428571428</ele><time>2026-03-28T17:14:50.84Z</time></trkpt><trkpt lat="45.6117383" lon="10.5120083"><ele>115.14285714285712</ele><time>2026-03-28T17:14:51.841Z</time></trkpt><trkpt lat="45.61176" lon="10.5119183"><ele>114.99999999999999</ele><time>2026-03-28T17:14:52.84Z</time></trkpt><trkpt lat="45.6117933" lon="10.5117333"><ele>114.4</ele><time>2026-03-28T17:14:54.84Z</time></trkpt><trkpt lat="45.6118133" lon="10.511615"><ele>113.8</ele><time>2026-03-28T17:14:55.84Z</time></trkpt><trkpt lat="45.6118317" lon="10.5114967"><ele>113.19999999999999</ele><time>2026-03-28T17:14:56.841Z</time></trkpt><trkpt lat="45.611855" lon="10.5113633"><ele>112.6</ele><time>2026-03-28T17:14:57.84Z</time></trkpt><trkpt lat="45.61187" lon="10.5112117"><ele>112.0</ele><time>2026-03-28T17:14:58.841Z</time></trkpt><trkpt lat="45.6118817" lon="10.5110767"><ele>112.33333333333334</ele><time>2026-03-28T17:14:59.84Z</time></trkpt><trkpt lat="45.6118983" lon="10.5109667"><ele>112.66666666666667</ele><time>2026-03-28T17:15:00.84Z</time></trkpt><trkpt lat="45.6119083" lon="10.51087"><ele>113.0</ele><time>2026-03-28T17:15:01.84Z</time></trkpt><trkpt lat="45.611915" lon="10.5107733"><ele>113.33333333333334</ele><time>2026-03-28T17:15:02.841Z</time></trkpt><trkpt lat="45.6119517" lon="10.5106183"><ele>113.66666666666667</ele><time>2026-03-28T17:15:04.84Z</time></trkpt><trkpt lat="45.6120083" lon="10.510475"><ele>114.0</ele><time>2026-03-28T17:15:06.841Z</time></trkpt><trkpt lat="45.6120383" lon="10.5103933"><ele>113.6</ele><time>2026-03-28T17:15:07.84Z</time></trkpt><trkpt lat="45.6120617" lon="10.51026"><ele>113.2</ele><time>2026-03-28T17:15:09.84Z</time></trkpt><trkpt lat="45.6120317" lon="10.5101333"><ele>112.79999999999998</ele><time>2026-03-28T17:15:11.84Z</time></trkpt><trkpt lat="45.6119467" lon="10.5099933"><ele>112.39999999999999</ele><time>2026-03-28T17:15:13.84Z</time></trkpt><trkpt lat="45.6118983" lon="10.5098983"><ele>112.0</ele><time>2026-03-28T17:15:14.841Z</time></trkpt><trkpt lat="45.61185" lon="10.5097983"><ele>112.0</ele><time>2026-03-28T17:15:15.841Z</time></trkpt><trkpt lat="45.6117983" lon="10.509685"><ele>111.99999999999999</ele><time>2026-03-28T17:15:16.841Z</time></trkpt><trkpt lat="45.6117517" lon="10.5095633"><ele>111.99999999999999</ele><time>2026-03-28T17:15:17.84Z</time></trkpt><trkpt lat="45.6117083" lon="10.5094367"><ele>112.0</ele><time>2026-03-28T17:15:18.84Z</time></trkpt><trkpt lat="45.6116617" lon="10.50931"><ele>112.0</ele><time>2026-03-28T17:15:19.84Z</time></trkpt><trkpt lat="45.6116083" lon="10.5091867"><ele>113.25</ele><time>2026-03-28T17:15:20.841Z</time></trkpt><trkpt lat="45.6115483" lon="10.5090417"><ele>114.5</ele><time>2026-03-28T17:15:21.841Z</time></trkpt><trkpt lat="45.6114667" lon="10.50886"><ele>115.75</ele><time>2026-03-28T17:15:22.841Z</time></trkpt><trkpt lat="45.611375" lon="10.5086533"><ele>117.0</ele><time>2026-03-28T17:15:23.84Z</time></trkpt><trkpt lat="45.6112867" lon="10.5084233"><ele>115.66666666666666</ele><time>2026-03-28T17:15:24.841Z</time></trkpt><trkpt lat="45.6111917" lon="10.5081833"><ele>114.33333333333333</ele><time>2026-03-28T17:15:25.84Z</time></trkpt><trkpt lat="45.6110933" lon="10.5079467"><ele>113.0</ele><time>2026-03-28T17:15:26.84Z</time></trkpt><trkpt lat="45.610995" lon="10.5077267"><ele>113.0</ele><time>2026-03-28T17:15:27.84Z</time></trkpt><trkpt lat="45.610905" lon="10.507525"><ele>113.0</ele><time>2026-03-28T17:15:28.841Z</time></trkpt><trkpt lat="45.6108283" lon="10.5073417"><ele>113.0</ele><time>2026-03-28T17:15:29.841Z</time></trkpt><trkpt lat="45.6107633" lon="10.5071833"><ele>113.0</ele><time>2026-03-28T17:15:30.84Z</time></trkpt><trkpt lat="45.61071" lon="10.5070317"><ele>116.5</ele><time>2026-03-28T17:15:31.84Z</time></trkpt><trkpt lat="45.6106533" lon="10.5068767"><ele>120.0</ele><time>2026-03-28T17:15:32.841Z</time></trkpt><trkpt lat="45.6106017" lon="10.506715"><ele>123.5</ele><time>2026-03-28T17:15:33.841Z</time></trkpt><trkpt lat="45.6105583" lon="10.5065617"><ele>127.0</ele><time>2026-03-28T17:15:34.84Z</time></trkpt><trkpt lat="45.6105217" lon="10.5064083"><ele>127.0</ele><time>2026-03-28T17:15:35.84Z</time></trkpt><trkpt lat="45.6104783" lon="10.5062633"><ele>127.0</ele><time>2026-03-28T17:15:36.841Z</time></trkpt><trkpt lat="45.6104417" lon="10.5061017"><ele>127.0</ele><time>2026-03-28T17:15:37.841Z</time></trkpt><trkpt lat="45.6104167" lon="10.5059167"><ele>127.0</ele><time>2026-03-28T17:15:38.841Z</time></trkpt><trkpt lat="45.610385" lon="10.505725"><ele>131.0</ele><time>2026-03-28T17:15:39.84Z</time></trkpt><trkpt lat="45.6103883" lon="10.5054867"><ele>135.0</ele><time>2026-03-28T17:15:40.841Z</time></trkpt><trkpt lat="45.6104317" lon="10.5052"><ele>139.0</ele><time>2026-03-28T17:15:41.84Z</time></trkpt><trkpt lat="45.6104567" lon="10.5049533"><ele>139.66666666666669</ele><time>2026-03-28T17:15:42.841Z</time></trkpt><trkpt lat="45.610495" lon="10.5047133"><ele>140.33333333333334</ele><time>2026-03-28T17:15:43.841Z</time></trkpt><trkpt lat="45.6105267" lon="10.5044833"><ele>141.0</ele><time>2026-03-28T17:15:44.841Z</time></trkpt><trkpt lat="45.61056" lon="10.5042567"><ele>136.66666666666666</ele><time>2026-03-28T17:15:45.841Z</time></trkpt><trkpt lat="45.610595" lon="10.504015"><ele>132.33333333333331</ele><time>2026-03-28T17:15:46.841Z</time></trkpt><trkpt lat="45.610625" lon="10.50376"><ele>128.0</ele><time>2026-03-28T17:15:47.841Z</time></trkpt><trkpt lat="45.6106583" lon="10.5034867"><ele>127.0</ele><time>2026-03-28T17:15:48.84Z</time></trkpt><trkpt lat="45.6107033" lon="10.5032033"><ele>126.0</ele><time>2026-03-28T17:15:49.841Z</time></trkpt><trkpt lat="45.6107483" lon="10.50292"><ele>125.0</ele><time>2026-03-28T17:15:50.84Z</time></trkpt><trkpt lat="45.6107917" lon="10.5026483"><ele>125.0</ele><time>2026-03-28T17:15:51.841Z</time></trkpt><trkpt lat="45.6108267" lon="10.5024017"><ele>125.0</ele><time>2026-03-28T17:15:52.841Z</time></trkpt><trkpt lat="45.61084" lon="10.5021767"><ele>125.0</ele><time>2026-03-28T17:15:53.84Z</time></trkpt><trkpt lat="45.6108367" lon="10.50197"><ele>127.75</ele><time>2026-03-28T17:15:54.841Z</time></trkpt><trkpt lat="45.610825" lon="10.50178"><ele>130.5</ele><time>2026-03-28T17:15:55.84Z</time></trkpt><trkpt lat="45.61081" lon="10.5016117"><ele>133.25</ele><time>2026-03-28T17:15:56.84Z</time></trkpt><trkpt lat="45.6107933" lon="10.5014633"><ele>136.0</ele><time>2026-03-28T17:15:57.84Z</time></trkpt><trkpt lat="45.610785" lon="10.501325"><ele>136.8</ele><time>2026-03-28T17:15:58.84Z</time></trkpt><trkpt lat="45.6107833" lon="10.501185"><ele>137.6</ele><time>2026-03-28T17:15:59.84Z</time></trkpt><trkpt lat="45.6107883" lon="10.5010433"><ele>138.4</ele><time>2026-03-28T17:16:00.841Z</time></trkpt><trkpt lat="45.6107833" lon="10.500905"><ele>139.2</ele><time>2026-03-28T17:16:01.841Z</time></trkpt><trkpt lat="45.6107783" lon="10.50075"><ele>140.0</ele><time>2026-03-28T17:16:02.841Z</time></trkpt><trkpt lat="45.6107567" lon="10.5006217"><ele>140.0</ele><time>2026-03-28T17:16:03.84Z</time></trkpt><trkpt lat="45.61071" lon="10.500535"><ele>140.0</ele><time>2026-03-28T17:16:04.84Z</time></trkpt><trkpt lat="45.6106033" lon="10.5004483"><ele>140.0</ele><time>2026-03-28T17:16:06.84Z</time></trkpt><trkpt lat="45.6105283" lon="10.5004517"><ele>140.0</ele><time>2026-03-28T17:16:07.84Z</time></trkpt><trkpt lat="45.610455" lon="10.5005183"><ele>140.0</ele><time>2026-03-28T17:16:08.841Z</time></trkpt><trkpt lat="45.6103933" lon="10.5006183"><ele>140.0</ele><time>2026-03-28T17:16:09.841Z</time></trkpt><trkpt lat="45.6103283" lon="10.500725"><ele>140.0</ele><time>2026-03-28T17:16:10.84Z</time></trkpt><trkpt lat="45.6102517" lon="10.5008217"><ele>140.0</ele><time>2026-03-28T17:16:11.84Z</time></trkpt><trkpt lat="45.6101583" lon="10.5008783"><ele>140.0</ele><time>2026-03-28T17:16:12.841Z</time></trkpt><trkpt lat="45.6100483" lon="10.500885"><ele>140.0</ele><time>2026-03-28T17:16:13.841Z</time></trkpt><trkpt lat="45.6099217" lon="10.5008567"><ele>137.66666666666666</ele><time>2026-03-28T17:16:14.841Z</time></trkpt><trkpt lat="45.60978" lon="10.5008167"><ele>135.33333333333334</ele><time>2026-03-28T17:16:15.84Z</time></trkpt><trkpt lat="45.6096233" lon="10.500755"><ele>133.0</ele><time>2026-03-28T17:16:16.841Z</time></trkpt><trkpt lat="45.609455" lon="10.5006733"><ele>127.33333333333334</ele><time>2026-03-28T17:16:17.841Z</time></trkpt><trkpt lat="45.6092717" lon="10.5005867"><ele>121.66666666666666</ele><time>2026-03-28T17:16:18.84Z</time></trkpt><trkpt lat="45.6090733" lon="10.5005033"><ele>116.0</ele><time>2026-03-28T17:16:19.84Z</time></trkpt><trkpt lat="45.60887" lon="10.5004317"><ele>119.33333333333333</ele><time>2026-03-28T17:16:20.84Z</time></trkpt><trkpt lat="45.6086533" lon="10.5004133"><ele>122.66666666666666</ele><time>2026-03-28T17:16:21.84Z</time></trkpt><trkpt lat="45.6084317" lon="10.500425"><ele>126.0</ele><time>2026-03-28T17:16:22.841Z</time></trkpt><trkpt lat="45.60821" lon="10.50045"><ele>126.0</ele><time>2026-03-28T17:16:23.841Z</time></trkpt><trkpt lat="45.6080033" lon="10.5005017"><ele>126.0</ele><time>2026-03-28T17:16:24.84Z</time></trkpt><trkpt lat="45.6077917" lon="10.5005633"><ele>126.0</ele><time>2026-03-28T17:16:25.841Z</time></trkpt><trkpt lat="45.6075783" lon="10.5006333"><ele>129.33333333333334</ele><time>2026-03-28T17:16:26.84Z</time></trkpt><trkpt lat="45.6073633" lon="10.5007117"><ele>132.66666666666669</ele><time>2026-03-28T17:16:27.841Z</time></trkpt><trkpt lat="45.60715" lon="10.500785"><ele>136.0</ele><time>2026-03-28T17:16:28.84Z</time></trkpt><trkpt lat="45.6063867" lon="10.503215"><ele>130.0</ele><time>2026-03-28T17:16:38.846Z</time></trkpt><trkpt lat="45.6063867" lon="10.5034133"><ele>124.0</ele><time>2026-03-28T17:16:39.845Z</time></trkpt><trkpt lat="45.6064267" lon="10.5036267"><ele>118.0</ele><time>2026-03-28T17:16:40.845Z</time></trkpt><trkpt lat="45.60646" lon="10.5038083"><ele>112.0</ele><time>2026-03-28T17:16:41.845Z</time></trkpt><trkpt lat="45.6065017" lon="10.503945"><ele>110.8</ele><time>2026-03-28T17:16:42.846Z</time></trkpt><trkpt lat="45.6065517" lon="10.50404"><ele>109.6</ele><time>2026-03-28T17:16:43.845Z</time></trkpt><trkpt lat="45.6065667" lon="10.50414"><ele>108.39999999999999</ele><time>2026-03-28T17:16:44.846Z</time></trkpt><trkpt lat="45.6065683" lon="10.50429"><ele>107.19999999999999</ele><time>2026-03-28T17:16:46.845Z</time></trkpt><trkpt lat="45.6065083" lon="10.5044517"><ele>106.0</ele><time>2026-03-28T17:16:48.845Z</time></trkpt><trkpt lat="45.6064683" lon="10.5045517"><ele>105.6</ele><time>2026-03-28T17:16:49.845Z</time></trkpt><trkpt lat="45.6064133" lon="10.5046483"><ele>105.19999999999999</ele><time>2026-03-28T17:16:50.846Z</time></trkpt><trkpt lat="45.6063517" lon="10.504735"><ele>104.80000000000001</ele><time>2026-03-28T17:16:51.845Z</time></trkpt><trkpt lat="45.6062733" lon="10.50481"><ele>104.4</ele><time>2026-03-28T17:16:52.845Z</time></trkpt><trkpt lat="45.6061817" lon="10.5048817"><ele>104.0</ele><time>2026-03-28T17:16:53.845Z</time></trkpt><trkpt lat="45.6060883" lon="10.504945"><ele>104.0</ele><time>2026-03-28T17:16:54.846Z</time></trkpt><trkpt lat="45.60599" lon="10.5049983"><ele>104.0</ele><time>2026-03-28T17:16:55.846Z</time></trkpt><trkpt lat="45.6058867" lon="10.505055"><ele>104.0</ele><time>2026-03-28T17:16:56.846Z</time></trkpt><trkpt lat="45.6057883" lon="10.5051067"><ele>104.0</ele><time>2026-03-28T17:16:57.845Z</time></trkpt><trkpt lat="45.6057017" lon="10.505165"><ele>104.0</ele><time>2026-03-28T17:16:58.846Z</time></trkpt><trkpt lat="45.6056233" lon="10.5052167"><ele>103.99999999999999</ele><time>2026-03-28T17:16:59.845Z</time></trkpt><trkpt lat="45.6055483" lon="10.5052533"><ele>104.0</ele><time>2026-03-28T17:17:00.846Z</time></trkpt><trkpt lat="45.60548" lon="10.5052867"><ele>104.0</ele><time>2026-03-28T17:17:01.846Z</time></trkpt><trkpt lat="45.6053967" lon="10.5053317"><ele>104.0</ele><time>2026-03-28T17:17:02.846Z</time></trkpt><trkpt lat="45.60531" lon="10.505385"><ele>103.99999999999999</ele><time>2026-03-28T17:17:03.845Z</time></trkpt><trkpt lat="45.6052083" lon="10.5054467"><ele>104.0</ele><time>2026-03-28T17:17:04.846Z</time></trkpt><trkpt lat="45.6051" lon="10.5055117"><ele>105.25</ele><time>2026-03-28T17:17:05.845Z</time></trkpt><trkpt lat="45.60499" lon="10.5055783"><ele>106.5</ele><time>2026-03-28T17:17:06.845Z</time></trkpt><trkpt lat="45.6048883" lon="10.50564"><ele>107.75</ele><time>2026-03-28T17:17:07.845Z</time></trkpt><trkpt lat="45.6047817" lon="10.5056983"><ele>109.0</ele><time>2026-03-28T17:17:08.845Z</time></trkpt><trkpt lat="45.60468" lon="10.505755"><ele>109.0</ele><time>2026-03-28T17:17:09.846Z</time></trkpt><trkpt lat="45.604575" lon="10.5058167"><ele>109.0</ele><time>2026-03-28T17:17:10.845Z</time></trkpt><trkpt lat="45.6044767" lon="10.5058817"><ele>109.0</ele><time>2026-03-28T17:17:11.845Z</time></trkpt><trkpt lat="45.6043767" lon="10.5059383"><ele>109.0</ele><time>2026-03-28T17:17:12.845Z</time></trkpt><trkpt lat="45.604275" lon="10.506"><ele>109.0</ele><time>2026-03-28T17:17:13.846Z</time></trkpt><trkpt lat="45.6041733" lon="10.50606"><ele>108.5</ele><time>2026-03-28T17:17:14.845Z</time></trkpt><trkpt lat="45.60406" lon="10.50613"><ele>108.0</ele><time>2026-03-28T17:17:15.845Z</time></trkpt><trkpt lat="45.603945" lon="10.5062017"><ele>107.5</ele><time>2026-03-28T17:17:16.845Z</time></trkpt><trkpt lat="45.6038317" lon="10.50627"><ele>107.0</ele><time>2026-03-28T17:17:17.845Z</time></trkpt><trkpt lat="45.6037167" lon="10.50634"><ele>107.75</ele><time>2026-03-28T17:17:18.846Z</time></trkpt><trkpt lat="45.6035983" lon="10.5064117"><ele>108.5</ele><time>2026-03-28T17:17:19.845Z</time></trkpt><trkpt lat="45.6034817" lon="10.5064833"><ele>109.25</ele><time>2026-03-28T17:17:20.846Z</time></trkpt><trkpt lat="45.603355" lon="10.506555"><ele>110.0</ele><time>2026-03-28T17:17:21.846Z</time></trkpt><trkpt lat="45.6032317" lon="10.5066267"><ele>110.0</ele><time>2026-03-28T17:17:22.846Z</time></trkpt><trkpt lat="45.6031083" lon="10.5066917"><ele>110.0</ele><time>2026-03-28T17:17:23.846Z</time></trkpt><trkpt lat="45.60298" lon="10.50677"><ele>110.0</ele><time>2026-03-28T17:17:24.845Z</time></trkpt><trkpt lat="45.6028417" lon="10.506865"><ele>110.0</ele><time>2026-03-28T17:17:25.846Z</time></trkpt><trkpt lat="45.6027083" lon="10.506965"><ele>111.33333333333333</ele><time>2026-03-28T17:17:26.846Z</time></trkpt><trkpt lat="45.6025683" lon="10.5070667"><ele>112.66666666666666</ele><time>2026-03-28T17:17:27.845Z</time></trkpt><trkpt lat="45.6024333" lon="10.50717"><ele>114.0</ele><time>2026-03-28T17:17:28.846Z</time></trkpt><trkpt lat="45.6022983" lon="10.507275"><ele>114.0</ele><time>2026-03-28T17:17:29.846Z</time></trkpt><trkpt lat="45.6021617" lon="10.507385"><ele>114.0</ele><time>2026-03-28T17:17:30.845Z</time></trkpt><trkpt lat="45.6020317" lon="10.5074733"><ele>114.0</ele><time>2026-03-28T17:17:31.845Z</time></trkpt><trkpt lat="45.6018983" lon="10.50757"><ele>116.0</ele><time>2026-03-28T17:17:32.846Z</time></trkpt><trkpt lat="45.6017633" lon="10.5076717"><ele>118.0</ele><time>2026-03-28T17:17:33.845Z</time></trkpt><trkpt lat="45.60162" lon="10.5077733"><ele>120.0</ele><time>2026-03-28T17:17:34.845Z</time></trkpt><trkpt lat="45.60148" lon="10.50787"><ele>117.66666666666666</ele><time>2026-03-28T17:17:35.845Z</time></trkpt><trkpt lat="45.601335" lon="10.5079567"><ele>115.33333333333333</ele><time>2026-03-28T17:17:36.845Z</time></trkpt><trkpt lat="45.601185" lon="10.50803"><ele>113.0</ele><time>2026-03-28T17:17:37.846Z</time></trkpt><trkpt lat="45.6010233" lon="10.5080667"><ele>113.0</ele><time>2026-03-28T17:17:38.845Z</time></trkpt><trkpt lat="45.6008617" lon="10.5080667"><ele>113.0</ele><time>2026-03-28T17:17:39.846Z</time></trkpt><trkpt lat="45.6006967" lon="10.508035"><ele>113.0</ele><time>2026-03-28T17:17:40.845Z</time></trkpt><trkpt lat="45.60054" lon="10.5079783"><ele>116.0</ele><time>2026-03-28T17:17:41.846Z</time></trkpt><trkpt lat="45.600385" lon="10.50791"><ele>119.0</ele><time>2026-03-28T17:17:42.845Z</time></trkpt><trkpt lat="45.6002267" lon="10.507825"><ele>122.0</ele><time>2026-03-28T17:17:43.846Z</time></trkpt><trkpt lat="45.60008" lon="10.5077283"><ele>122.25</ele><time>2026-03-28T17:17:44.845Z</time></trkpt><trkpt lat="45.5999433" lon="10.5076417"><ele>122.5</ele><time>2026-03-28T17:17:45.845Z</time></trkpt><trkpt lat="45.5998117" lon="10.5075717"><ele>122.75</ele><time>2026-03-28T17:17:46.845Z</time></trkpt><trkpt lat="45.5996717" lon="10.5075233"><ele>123.0</ele><time>2026-03-28T17:17:47.845Z</time></trkpt><trkpt lat="45.5995267" lon="10.507505"><ele>124.66666666666666</ele><time>2026-03-28T17:17:48.845Z</time></trkpt><trkpt lat="45.5993833" lon="10.5075167"><ele>126.33333333333333</ele><time>2026-03-28T17:17:49.846Z</time></trkpt><trkpt lat="45.599225" lon="10.5075467"><ele>128.0</ele><time>2026-03-28T17:17:50.845Z</time></trkpt><trkpt lat="45.5990633" lon="10.5075967"><ele>128.0</ele><time>2026-03-28T17:17:51.845Z</time></trkpt><trkpt lat="45.5988883" lon="10.5076567"><ele>128.0</ele><time>2026-03-28T17:17:52.846Z</time></trkpt><trkpt lat="45.5986983" lon="10.5077117"><ele>128.0</ele><time>2026-03-28T17:17:53.845Z</time></trkpt><trkpt lat="45.5985017" lon="10.50778"><ele>129.0</ele><time>2026-03-28T17:17:54.846Z</time></trkpt><trkpt lat="45.598315" lon="10.5078467"><ele>130.0</ele><time>2026-03-28T17:17:55.846Z</time></trkpt><trkpt lat="45.5981233" lon="10.5079233"><ele>131.0</ele><time>2026-03-28T17:17:56.846Z</time></trkpt><trkpt lat="45.59793" lon="10.5079917"><ele>128.66666666666666</ele><time>2026-03-28T17:17:57.846Z</time></trkpt><trkpt lat="45.5977333" lon="10.5080617"><ele>126.33333333333334</ele><time>2026-03-28T17:17:58.845Z</time></trkpt><trkpt lat="45.5975383" lon="10.5081283"><ele>124.0</ele><time>2026-03-28T17:17:59.845Z</time></trkpt><trkpt lat="45.597345" lon="10.508185"><ele>124.0</ele><time>2026-03-28T17:18:00.845Z</time></trkpt><trkpt lat="45.5971417" lon="10.50824"><ele>124.0</ele><time>2026-03-28T17:18:01.846Z</time></trkpt><trkpt lat="45.596945" lon="10.5083033"><ele>124.0</ele><time>2026-03-28T17:18:02.845Z</time></trkpt><trkpt lat="45.596765" lon="10.5083733"><ele>124.33333333333334</ele><time>2026-03-28T17:18:03.845Z</time></trkpt><trkpt lat="45.5966" lon="10.5084367"><ele>124.66666666666666</ele><time>2026-03-28T17:18:04.845Z</time></trkpt><trkpt lat="45.5964433" lon="10.508495"><ele>125.0</ele><time>2026-03-28T17:18:05.845Z</time></trkpt><trkpt lat="45.5962967" lon="10.5085617"><ele>126.5</ele><time>2026-03-28T17:18:06.846Z</time></trkpt><trkpt lat="45.5961567" lon="10.50864"><ele>128.0</ele><time>2026-03-28T17:18:07.846Z</time></trkpt><trkpt lat="45.5960317" lon="10.5087367"><ele>129.5</ele><time>2026-03-28T17:18:08.845Z</time></trkpt><trkpt lat="45.5959217" lon="10.5088633"><ele>131.0</ele><time>2026-03-28T17:18:09.845Z</time></trkpt><trkpt lat="45.595825" lon="10.5089933"><ele>131.0</ele><time>2026-03-28T17:18:10.845Z</time></trkpt><trkpt lat="45.5957383" lon="10.5091367"><ele>131.0</ele><time>2026-03-28T17:18:11.845Z</time></trkpt><trkpt lat="45.5956667" lon="10.5092983"><ele>131.0</ele><time>2026-03-28T17:18:12.846Z</time></trkpt><trkpt lat="45.5956033" lon="10.5094467"><ele>131.0</ele><time>2026-03-28T17:18:13.845Z</time></trkpt><trkpt lat="45.5955483" lon="10.5095967"><ele>129.75</ele><time>2026-03-28T17:18:14.846Z</time></trkpt><trkpt lat="45.595495" lon="10.5097467"><ele>128.5</ele><time>2026-03-28T17:18:15.846Z</time></trkpt><trkpt lat="45.5954333" lon="10.5099017"><ele>127.25</ele><time>2026-03-28T17:18:16.846Z</time></trkpt><trkpt lat="45.5953717" lon="10.5100583"><ele>126.0</ele><time>2026-03-28T17:18:17.846Z</time></trkpt><trkpt lat="45.595305" lon="10.510215"><ele>127.75</ele><time>2026-03-28T17:18:18.845Z</time></trkpt><trkpt lat="45.5952317" lon="10.5103717"><ele>129.5</ele><time>2026-03-28T17:18:19.845Z</time></trkpt><trkpt lat="45.5951533" lon="10.5105233"><ele>131.25</ele><time>2026-03-28T17:18:20.845Z</time></trkpt><trkpt lat="45.59506" lon="10.51068"><ele>133.0</ele><time>2026-03-28T17:18:21.845Z</time></trkpt><trkpt lat="45.5949583" lon="10.5108333"><ele>133.0</ele><time>2026-03-28T17:18:22.845Z</time></trkpt><trkpt lat="45.5948483" lon="10.5109767"><ele>133.0</ele><time>2026-03-28T17:18:23.845Z</time></trkpt><trkpt lat="45.5947183" lon="10.5110933"><ele>133.0</ele><time>2026-03-28T17:18:24.845Z</time></trkpt><trkpt lat="45.5945617" lon="10.5111917"><ele>133.33333333333334</ele><time>2026-03-28T17:18:25.846Z</time></trkpt><trkpt lat="45.5944017" lon="10.511295"><ele>133.66666666666666</ele><time>2026-03-28T17:18:26.845Z</time></trkpt><trkpt lat="45.594245" lon="10.5114033"><ele>134.0</ele><time>2026-03-28T17:18:27.846Z</time></trkpt><trkpt lat="45.5940867" lon="10.511495"><ele>134.0</ele><time>2026-03-28T17:18:28.846Z</time></trkpt><trkpt lat="45.5939533" lon="10.511575"><ele>134.0</ele><time>2026-03-28T17:18:29.845Z</time></trkpt><trkpt lat="45.593825" lon="10.51164"><ele>134.0</ele><time>2026-03-28T17:18:30.846Z</time></trkpt><trkpt lat="45.5937033" lon="10.51171"><ele>134.0</ele><time>2026-03-28T17:18:31.845Z</time></trkpt><trkpt lat="45.5935917" lon="10.5117933"><ele>134.25</ele><time>2026-03-28T17:18:32.846Z</time></trkpt><trkpt lat="45.5934767" lon="10.5118817"><ele>134.5</ele><time>2026-03-28T17:18:33.845Z</time></trkpt><trkpt lat="45.5933683" lon="10.5119917"><ele>134.75</ele><time>2026-03-28T17:18:34.845Z</time></trkpt><trkpt lat="45.59328" lon="10.5121333"><ele>135.0</ele><time>2026-03-28T17:18:35.845Z</time></trkpt><trkpt lat="45.5932067" lon="10.512295"><ele>135.0</ele><time>2026-03-28T17:18:36.846Z</time></trkpt><trkpt lat="45.5931533" lon="10.5124783"><ele>135.0</ele><time>2026-03-28T17:18:37.845Z</time></trkpt><trkpt lat="45.5931133" lon="10.5126533"><ele>135.0</ele><time>2026-03-28T17:18:38.846Z</time></trkpt><trkpt lat="45.5930967" lon="10.5128467"><ele>135.0</ele><time>2026-03-28T17:18:39.846Z</time></trkpt><trkpt lat="45.5931" lon="10.5130417"><ele>135.5</ele><time>2026-03-28T17:18:40.846Z</time></trkpt><trkpt lat="45.59312" lon="10.5132433"><ele>136.0</ele><time>2026-03-28T17:18:41.845Z</time></trkpt><trkpt lat="45.59315" lon="10.5134433"><ele>136.5</ele><time>2026-03-28T17:18:42.846Z</time></trkpt><trkpt lat="45.59319" lon="10.51363"><ele>137.0</ele><time>2026-03-28T17:18:43.846Z</time></trkpt><trkpt lat="45.593235" lon="10.5137983"><ele>138.75</ele><time>2026-03-28T17:18:44.845Z</time></trkpt><trkpt lat="45.593275" lon="10.51398"><ele>140.5</ele><time>2026-03-28T17:18:45.846Z</time></trkpt><trkpt lat="45.593305" lon="10.51415"><ele>142.25</ele><time>2026-03-28T17:18:46.845Z</time></trkpt><trkpt lat="45.5933383" lon="10.51431"><ele>144.0</ele><time>2026-03-28T17:18:47.845Z</time></trkpt><trkpt lat="45.5933733" lon="10.5144783"><ele>145.2</ele><time>2026-03-28T17:18:48.845Z</time></trkpt><trkpt lat="45.5934033" lon="10.5146283"><ele>146.4</ele><time>2026-03-28T17:18:49.846Z</time></trkpt><trkpt lat="45.59343" lon="10.514765"><ele>147.6</ele><time>2026-03-28T17:18:50.846Z</time></trkpt><trkpt lat="45.5934583" lon="10.5148983"><ele>148.8</ele><time>2026-03-28T17:18:51.846Z</time></trkpt><trkpt lat="45.5934867" lon="10.5150317"><ele>150.0</ele><time>2026-03-28T17:18:52.845Z</time></trkpt><trkpt lat="45.5935117" lon="10.5151517"><ele>150.0</ele><time>2026-03-28T17:18:53.846Z</time></trkpt><trkpt lat="45.5935367" lon="10.5152783"><ele>150.0</ele><time>2026-03-28T17:18:54.846Z</time></trkpt><trkpt lat="45.59356" lon="10.5154067"><ele>150.0</ele><time>2026-03-28T17:18:55.845Z</time></trkpt><trkpt lat="45.593575" lon="10.5155367"><ele>150.0</ele><time>2026-03-28T17:18:56.845Z</time></trkpt><trkpt lat="45.593585" lon="10.5156517"><ele>150.0</ele><time>2026-03-28T17:18:57.846Z</time></trkpt><trkpt lat="45.5936" lon="10.5158083"><ele>150.0</ele><time>2026-03-28T17:18:59.846Z</time></trkpt><trkpt lat="45.593605" lon="10.5159633"><ele>150.0</ele><time>2026-03-28T17:19:01.846Z</time></trkpt><trkpt lat="45.5936017" lon="10.516065"><ele>150.0</ele><time>2026-03-28T17:19:02.845Z</time></trkpt><trkpt lat="45.5935917" lon="10.51619"><ele>150.0</ele><time>2026-03-28T17:19:03.846Z</time></trkpt><trkpt lat="45.59357" lon="10.5163417"><ele>150.0</ele><time>2026-03-28T17:19:04.845Z</time></trkpt><trkpt lat="45.5935417" lon="10.5165183"><ele>150.0</ele><time>2026-03-28T17:19:05.846Z</time></trkpt><trkpt lat="45.5935133" lon="10.516715"><ele>150.0</ele><time>2026-03-28T17:19:06.845Z</time></trkpt><trkpt lat="45.5934833" lon="10.5169433"><ele>150.0</ele><time>2026-03-28T17:19:07.845Z</time></trkpt><trkpt lat="45.593445" lon="10.5171883"><ele>148.33333333333334</ele><time>2026-03-28T17:19:08.845Z</time></trkpt><trkpt lat="45.593395" lon="10.5174417"><ele>146.66666666666669</ele><time>2026-03-28T17:19:09.845Z</time></trkpt><trkpt lat="45.5933417" lon="10.5176867"><ele>145.0</ele><time>2026-03-28T17:19:10.846Z</time></trkpt><trkpt lat="45.5933033" lon="10.5179017"><ele>144.66666666666669</ele><time>2026-03-28T17:19:11.846Z</time></trkpt><trkpt lat="45.5932517" lon="10.51811"><ele>144.33333333333334</ele><time>2026-03-28T17:19:12.845Z</time></trkpt><trkpt lat="45.5932117" lon="10.5183467"><ele>144.0</ele><time>2026-03-28T17:19:13.846Z</time></trkpt><trkpt lat="45.5931767" lon="10.5185917"><ele>144.66666666666666</ele><time>2026-03-28T17:19:14.845Z</time></trkpt><trkpt lat="45.5931283" lon="10.5188617"><ele>145.33333333333331</ele><time>2026-03-28T17:19:15.845Z</time></trkpt><trkpt lat="45.59307" lon="10.51914"><ele>146.0</ele><time>2026-03-28T17:19:16.845Z</time></trkpt><trkpt lat="45.5930033" lon="10.51944"><ele>147.5</ele><time>2026-03-28T17:19:17.845Z</time></trkpt><trkpt lat="45.5929217" lon="10.5197417"><ele>149.0</ele><time>2026-03-28T17:19:18.845Z</time></trkpt><trkpt lat="45.5928283" lon="10.5200367"><ele>152.33333333333331</ele><time>2026-03-28T17:19:19.845Z</time></trkpt><trkpt lat="45.5927417" lon="10.5203167"><ele>155.66666666666666</ele><time>2026-03-28T17:19:20.846Z</time></trkpt><trkpt lat="45.5926367" lon="10.520585"><ele>159.0</ele><time>2026-03-28T17:19:21.846Z</time></trkpt><trkpt lat="45.5925183" lon="10.5208383"><ele>159.0</ele><time>2026-03-28T17:19:22.846Z</time></trkpt><trkpt lat="45.59239" lon="10.5210717"><ele>159.0</ele><time>2026-03-28T17:19:23.846Z</time></trkpt><trkpt lat="45.59226" lon="10.5213117"><ele>159.0</ele><time>2026-03-28T17:19:24.846Z</time></trkpt><trkpt lat="45.5921317" lon="10.52155"><ele>158.66666666666666</ele><time>2026-03-28T17:19:25.845Z</time></trkpt><trkpt lat="45.5920067" lon="10.5217817"><ele>158.33333333333331</ele><time>2026-03-28T17:19:26.845Z</time></trkpt><trkpt lat="45.5919" lon="10.5219967"><ele>158.0</ele><time>2026-03-28T17:19:27.846Z</time></trkpt><trkpt lat="45.5917983" lon="10.5221867"><ele>158.0</ele><time>2026-03-28T17:19:28.845Z</time></trkpt><trkpt lat="45.5917017" lon="10.5223333"><ele>158.0</ele><time>2026-03-28T17:19:29.846Z</time></trkpt><trkpt lat="45.59162" lon="10.5224433"><ele>158.0</ele><time>2026-03-28T17:19:30.846Z</time></trkpt><trkpt lat="45.5915533" lon="10.5225083"><ele>158.0</ele><time>2026-03-28T17:19:31.846Z</time></trkpt><trkpt lat="45.5914883" lon="10.5225633"><ele>158.0</ele><time>2026-03-28T17:19:32.845Z</time></trkpt><trkpt lat="45.5913967" lon="10.522635"><ele>158.0</ele><time>2026-03-28T17:19:34.846Z</time></trkpt><trkpt lat="45.5913317" lon="10.5226567"><ele>158.0</ele><time>2026-03-28T17:19:38.846Z</time></trkpt><trkpt lat="45.59126" lon="10.522655"><ele>158.0</ele><time>2026-03-28T17:19:41.845Z</time></trkpt><trkpt lat="45.591135" lon="10.52271"><ele>158.0</ele><time>2026-03-28T17:19:43.845Z</time></trkpt><trkpt lat="45.591065" lon="10.522775"><ele>158.0</ele><time>2026-03-28T17:19:44.846Z</time></trkpt><trkpt lat="45.5909983" lon="10.5228383"><ele>158.0</ele><time>2026-03-28T17:19:45.845Z</time></trkpt><trkpt lat="45.5909433" lon="10.5229083"><ele>157.83333333333331</ele><time>2026-03-28T17:19:46.846Z</time></trkpt><trkpt lat="45.59089" lon="10.52296"><ele>157.66666666666666</ele><time>2026-03-28T17:19:47.846Z</time></trkpt><trkpt lat="45.590825" lon="10.52298"><ele>157.5</ele><time>2026-03-28T17:19:48.845Z</time></trkpt><trkpt lat="45.5907483" lon="10.5229717"><ele>157.33333333333334</ele><time>2026-03-28T17:19:49.846Z</time></trkpt><trkpt lat="45.5906633" lon="10.5229417"><ele>157.16666666666669</ele><time>2026-03-28T17:19:50.846Z</time></trkpt><trkpt lat="45.5905683" lon="10.52288"><ele>157.0</ele><time>2026-03-28T17:19:51.845Z</time></trkpt><trkpt lat="45.5904683" lon="10.522805"><ele>157.0</ele><time>2026-03-28T17:19:52.845Z</time></trkpt><trkpt lat="45.5903633" lon="10.5227217"><ele>157.0</ele><time>2026-03-28T17:19:53.846Z</time></trkpt><trkpt lat="45.5902417" lon="10.522645"><ele>157.0</ele><time>2026-03-28T17:19:54.846Z</time></trkpt><trkpt lat="45.5901117" lon="10.5225533"><ele>157.0</ele><time>2026-03-28T17:19:55.845Z</time></trkpt><trkpt lat="45.58998" lon="10.5224567"><ele>157.0</ele><time>2026-03-28T17:19:56.845Z</time></trkpt><trkpt lat="45.58985" lon="10.52236"><ele>157.0</ele><time>2026-03-28T17:19:57.846Z</time></trkpt><trkpt lat="45.5897267" lon="10.522285"><ele>157.0</ele><time>2026-03-28T17:19:58.845Z</time></trkpt><trkpt lat="45.5896117" lon="10.5221933"><ele>157.0</ele><time>2026-03-28T17:19:59.846Z</time></trkpt><trkpt lat="45.5894983" lon="10.5221033"><ele>156.0</ele><time>2026-03-28T17:20:00.846Z</time></trkpt><trkpt lat="45.5893883" lon="10.5220133"><ele>155.0</ele><time>2026-03-28T17:20:01.845Z</time></trkpt><trkpt lat="45.5892733" lon="10.521925"><ele>154.0</ele><time>2026-03-28T17:20:02.845Z</time></trkpt><trkpt lat="45.5891533" lon="10.52184"><ele>153.0</ele><time>2026-03-28T17:20:03.845Z</time></trkpt><trkpt lat="45.5890383" lon="10.5217467"><ele>153.0</ele><time>2026-03-28T17:20:04.845Z</time></trkpt><trkpt lat="45.58891" lon="10.5216583"><ele>153.0</ele><time>2026-03-28T17:20:05.845Z</time></trkpt><trkpt lat="45.5887883" lon="10.5215567"><ele>153.0</ele><time>2026-03-28T17:20:06.846Z</time></trkpt><trkpt lat="45.588665" lon="10.521455"><ele>153.0</ele><time>2026-03-28T17:20:07.845Z</time></trkpt><trkpt lat="45.58854" lon="10.52136"><ele>153.0</ele><time>2026-03-28T17:20:08.846Z</time></trkpt><trkpt lat="45.58841" lon="10.5212617"><ele>153.0</ele><time>2026-03-28T17:20:09.845Z</time></trkpt><trkpt lat="45.58828" lon="10.521155"><ele>153.0</ele><time>2026-03-28T17:20:10.845Z</time></trkpt><trkpt lat="45.5881517" lon="10.5210483"><ele>153.0</ele><time>2026-03-28T17:20:11.846Z</time></trkpt><trkpt lat="45.5880417" lon="10.5209133"><ele>153.0</ele><time>2026-03-28T17:20:12.846Z</time></trkpt><trkpt lat="45.5879333" lon="10.5207817"><ele>153.0</ele><time>2026-03-28T17:20:13.845Z</time></trkpt><trkpt lat="45.5878333" lon="10.5206583"><ele>153.0</ele><time>2026-03-28T17:20:14.845Z</time></trkpt><trkpt lat="45.5877483" lon="10.5205333"><ele>153.0</ele><time>2026-03-28T17:20:15.845Z</time></trkpt><trkpt lat="45.5876617" lon="10.5204117"><ele>152.6</ele><time>2026-03-28T17:20:16.846Z</time></trkpt><trkpt lat="45.5875933" lon="10.5202933"><ele>152.20000000000002</ele><time>2026-03-28T17:20:17.846Z</time></trkpt><trkpt lat="45.5875417" lon="10.5201667"><ele>151.8</ele><time>2026-03-28T17:20:18.846Z</time></trkpt><trkpt lat="45.5874967" lon="10.52005"><ele>151.4</ele><time>2026-03-28T17:20:19.845Z</time></trkpt><trkpt lat="45.5874583" lon="10.5199167"><ele>151.0</ele><time>2026-03-28T17:20:20.846Z</time></trkpt><trkpt lat="45.5874233" lon="10.51979"><ele>151.0</ele><time>2026-03-28T17:20:21.845Z</time></trkpt><trkpt lat="45.5873883" lon="10.5196767"><ele>151.0</ele><time>2026-03-28T17:20:22.845Z</time></trkpt><trkpt lat="45.5873583" lon="10.5195817"><ele>151.0</ele><time>2026-03-28T17:20:23.845Z</time></trkpt><trkpt lat="45.58732" lon="10.5194583"><ele>151.0</ele><time>2026-03-28T17:20:25.845Z</time></trkpt><trkpt lat="45.5872983" lon="10.5193483"><ele>151.0</ele><time>2026-03-28T17:20:27.846Z</time></trkpt><trkpt lat="45.5872617" lon="10.519235"><ele>151.0</ele><time>2026-03-28T17:20:29.845Z</time></trkpt><trkpt lat="45.58722" lon="10.51913"><ele>151.0</ele><time>2026-03-28T17:20:31.846Z</time></trkpt><trkpt lat="45.58717" lon="10.5189583"><ele>151.0</ele><time>2026-03-28T17:20:33.845Z</time></trkpt><trkpt lat="45.58714" lon="10.5188517"><ele>151.0</ele><time>2026-03-28T17:20:34.846Z</time></trkpt><trkpt lat="45.5871067" lon="10.5187417"><ele>151.0</ele><time>2026-03-28T17:20:35.845Z</time></trkpt><trkpt lat="45.587075" lon="10.5186367"><ele>151.0</ele><time>2026-03-28T17:20:36.846Z</time></trkpt><trkpt lat="45.587045" lon="10.51854"><ele>151.0</ele><time>2026-03-28T17:20:37.846Z</time></trkpt><trkpt lat="45.5869967" lon="10.5183983"><ele>151.33333333333334</ele><time>2026-03-28T17:20:39.846Z</time></trkpt><trkpt lat="45.5869633" lon="10.5182867"><ele>151.66666666666669</ele><time>2026-03-28T17:20:41.846Z</time></trkpt><trkpt lat="45.5869433" lon="10.5181867"><ele>152.0</ele><time>2026-03-28T17:20:43.846Z</time></trkpt><trkpt lat="45.5869217" lon="10.51807"><ele>152.33333333333334</ele><time>2026-03-28T17:20:45.845Z</time></trkpt><trkpt lat="45.586895" lon="10.5179433"><ele>152.66666666666666</ele><time>2026-03-28T17:20:47.846Z</time></trkpt><trkpt lat="45.5868867" lon="10.5177883"><ele>153.0</ele><time>2026-03-28T17:20:49.845Z</time></trkpt><trkpt lat="45.5869067" lon="10.51762"><ele>153.8</ele><time>2026-03-28T17:20:51.846Z</time></trkpt><trkpt lat="45.5869533" lon="10.517485"><ele>154.60000000000002</ele><time>2026-03-28T17:20:53.845Z</time></trkpt><trkpt lat="45.5869467" lon="10.5173317"><ele>155.39999999999998</ele><time>2026-03-28T17:20:55.846Z</time></trkpt><trkpt lat="45.5868667" lon="10.5172083"><ele>156.2</ele><time>2026-03-28T17:20:57.846Z</time></trkpt><trkpt lat="45.5868017" lon="10.5171717"><ele>157.0</ele><time>2026-03-28T17:20:58.845Z</time></trkpt><trkpt lat="45.586735" lon="10.5171217"><ele>157.16666666666669</ele><time>2026-03-28T17:20:59.845Z</time></trkpt><trkpt lat="45.5866783" lon="10.5170533"><ele>157.33333333333334</ele><time>2026-03-28T17:21:00.846Z</time></trkpt><trkpt lat="45.5866217" lon="10.5169733"><ele>157.5</ele><time>2026-03-28T17:21:01.845Z</time></trkpt><trkpt lat="45.586575" lon="10.5168767"><ele>157.66666666666666</ele><time>2026-03-28T17:21:02.845Z</time></trkpt><trkpt lat="45.5865317" lon="10.5167617"><ele>157.83333333333331</ele><time>2026-03-28T17:21:03.846Z</time></trkpt><trkpt lat="45.5864867" lon="10.516645"><ele>158.0</ele><time>2026-03-28T17:21:04.845Z</time></trkpt><trkpt lat="45.58644" lon="10.516515"><ele>158.0</ele><time>2026-03-28T17:21:05.845Z</time></trkpt><trkpt lat="45.5863833" lon="10.5163733"><ele>158.0</ele><time>2026-03-28T17:21:06.846Z</time></trkpt><trkpt lat="45.5863083" lon="10.5162333"><ele>158.0</ele><time>2026-03-28T17:21:07.846Z</time></trkpt><trkpt lat="45.5862183" lon="10.516095"><ele>158.0</ele><time>2026-03-28T17:21:08.846Z</time></trkpt><trkpt lat="45.58611" lon="10.5159517"><ele>159.33333333333331</ele><time>2026-03-28T17:21:09.846Z</time></trkpt><trkpt lat="45.58598" lon="10.5158183"><ele>160.66666666666666</ele><time>2026-03-28T17:21:10.845Z</time></trkpt><trkpt lat="45.5858383" lon="10.515715"><ele>162.0</ele><time>2026-03-28T17:21:11.846Z</time></trkpt><trkpt lat="45.5857067" lon="10.5156283"><ele>162.0</ele><time>2026-03-28T17:21:12.845Z</time></trkpt><trkpt lat="45.5855917" lon="10.515545"><ele>162.0</ele><time>2026-03-28T17:21:13.845Z</time></trkpt><trkpt lat="45.585495" lon="10.5154467"><ele>162.0</ele><time>2026-03-28T17:21:14.846Z</time></trkpt><trkpt lat="45.5854167" lon="10.515345"><ele>162.0</ele><time>2026-03-28T17:21:15.846Z</time></trkpt><trkpt lat="45.5853467" lon="10.5152683"><ele>162.0</ele><time>2026-03-28T17:21:16.845Z</time></trkpt><trkpt lat="45.5852833" lon="10.5152117"><ele>162.66666666666666</ele><time>2026-03-28T17:21:17.846Z</time></trkpt><trkpt lat="45.5852183" lon="10.51518"><ele>163.33333333333334</ele><time>2026-03-28T17:21:18.846Z</time></trkpt><trkpt lat="45.5851517" lon="10.5151517"><ele>164.0</ele><time>2026-03-28T17:21:19.845Z</time></trkpt><trkpt lat="45.5850867" lon="10.51513"><ele>164.66666666666669</ele><time>2026-03-28T17:21:20.845Z</time></trkpt><trkpt lat="45.5849983" lon="10.5151167"><ele>165.33333333333334</ele><time>2026-03-28T17:21:22.846Z</time></trkpt><trkpt lat="45.5850483" lon="10.5152417"><ele>166.0</ele><time>2026-03-28T17:32:03.847Z</time></trkpt><trkpt lat="45.5851283" lon="10.5152433"><ele>166.0</ele><time>2026-03-28T17:32:06.847Z</time></trkpt><trkpt lat="45.5852083" lon="10.5152267"><ele>166.0</ele><time>2026-03-28T17:32:08.847Z</time></trkpt><trkpt lat="45.5852633" lon="10.5152967"><ele>166.0</ele><time>2026-03-28T17:33:05.846Z</time></trkpt><trkpt lat="45.5851883" lon="10.5153717"><ele>166.0</ele><time>2026-03-28T17:33:07.846Z</time></trkpt><trkpt lat="45.585125" lon="10.515415"><ele>166.0</ele><time>2026-03-28T17:33:08.847Z</time></trkpt><trkpt lat="45.5850433" lon="10.5154517"><ele>166.0</ele><time>2026-03-28T17:33:09.846Z</time></trkpt><trkpt lat="45.58496" lon="10.51549"><ele>166.4</ele><time>2026-03-28T17:33:10.846Z</time></trkpt><trkpt lat="45.5848667" lon="10.5155167"><ele>166.8</ele><time>2026-03-28T17:33:11.846Z</time></trkpt><trkpt lat="45.5847633" lon="10.5155183"><ele>167.20000000000002</ele><time>2026-03-28T17:33:12.847Z</time></trkpt><trkpt lat="45.5846517" lon="10.51553"><ele>167.60000000000002</ele><time>2026-03-28T17:33:13.846Z</time></trkpt><trkpt lat="45.5845333" lon="10.515555"><ele>168.0</ele><time>2026-03-28T17:33:14.847Z</time></trkpt><trkpt lat="45.584415" lon="10.5155683"><ele>170.5</ele><time>2026-03-28T17:33:15.846Z</time></trkpt><trkpt lat="45.5842967" lon="10.5155717"><ele>173.0</ele><time>2026-03-28T17:33:16.847Z</time></trkpt><trkpt lat="45.5841683" lon="10.5155717"><ele>175.5</ele><time>2026-03-28T17:33:17.847Z</time></trkpt><trkpt lat="45.5840383" lon="10.5155617"><ele>178.0</ele><time>2026-03-28T17:33:18.846Z</time></trkpt><trkpt lat="45.5838983" lon="10.51557"><ele>178.0</ele><time>2026-03-28T17:33:19.846Z</time></trkpt><trkpt lat="45.583755" lon="10.5155767"><ele>178.0</ele><time>2026-03-28T17:33:20.847Z</time></trkpt><trkpt lat="45.58361" lon="10.5155733"><ele>178.0</ele><time>2026-03-28T17:33:21.846Z</time></trkpt><trkpt lat="45.5834667" lon="10.515565"><ele>178.0</ele><time>2026-03-28T17:33:22.846Z</time></trkpt><trkpt lat="45.583315" lon="10.5155583"><ele>178.33333333333334</ele><time>2026-03-28T17:33:23.847Z</time></trkpt><trkpt lat="45.5831667" lon="10.5155533"><ele>178.66666666666666</ele><time>2026-03-28T17:33:24.846Z</time></trkpt><trkpt lat="45.583015" lon="10.5155617"><ele>179.0</ele><time>2026-03-28T17:33:25.846Z</time></trkpt><trkpt lat="45.5828583" lon="10.51556"><ele>178.66666666666666</ele><time>2026-03-28T17:33:26.846Z</time></trkpt><trkpt lat="45.5826983" lon="10.51557"><ele>178.33333333333334</ele><time>2026-03-28T17:33:27.847Z</time></trkpt><trkpt lat="45.5825317" lon="10.5155783"><ele>178.0</ele><time>2026-03-28T17:33:28.847Z</time></trkpt><trkpt lat="45.5823683" lon="10.51559"><ele>178.0</ele><time>2026-03-28T17:33:29.846Z</time></trkpt><trkpt lat="45.5821983" lon="10.515595"><ele>178.0</ele><time>2026-03-28T17:33:30.847Z</time></trkpt><trkpt lat="45.5820233" lon="10.5156083"><ele>178.0</ele><time>2026-03-28T17:33:31.846Z</time></trkpt><trkpt lat="45.5818467" lon="10.5156367"><ele>178.33333333333334</ele><time>2026-03-28T17:33:32.847Z</time></trkpt><trkpt lat="45.5816883" lon="10.5156617"><ele>178.66666666666666</ele><time>2026-03-28T17:33:33.846Z</time></trkpt><trkpt lat="45.5815217" lon="10.515685"><ele>179.0</ele><time>2026-03-28T17:33:34.847Z</time></trkpt><trkpt lat="45.5813483" lon="10.5157067"><ele>178.66666666666666</ele><time>2026-03-28T17:33:35.846Z</time></trkpt><trkpt lat="45.5811733" lon="10.5157233"><ele>178.33333333333334</ele><time>2026-03-28T17:33:36.847Z</time></trkpt><trkpt lat="45.5809883" lon="10.515715"><ele>178.0</ele><time>2026-03-28T17:33:37.846Z</time></trkpt><trkpt lat="45.580805" lon="10.5156717"><ele>178.0</ele><time>2026-03-28T17:33:38.847Z</time></trkpt><trkpt lat="45.58064" lon="10.5156083"><ele>178.0</ele><time>2026-03-28T17:33:39.847Z</time></trkpt><trkpt lat="45.580445" lon="10.5155367"><ele>178.0</ele><time>2026-03-28T17:33:40.847Z</time></trkpt><trkpt lat="45.580265" lon="10.51548"><ele>179.0</ele><time>2026-03-28T17:33:41.846Z</time></trkpt><trkpt lat="45.5800867" lon="10.5154383"><ele>180.0</ele><time>2026-03-28T17:33:42.846Z</time></trkpt><trkpt lat="45.579905" lon="10.5153967"><ele>181.0</ele><time>2026-03-28T17:33:43.846Z</time></trkpt><trkpt lat="45.5797333" lon="10.515365"><ele>183.33333333333334</ele><time>2026-03-28T17:33:44.846Z</time></trkpt><trkpt lat="45.5795717" lon="10.5153267"><ele>185.66666666666666</ele><time>2026-03-28T17:33:45.846Z</time></trkpt><trkpt lat="45.5794067" lon="10.5153"><ele>188.0</ele><time>2026-03-28T17:33:46.846Z</time></trkpt><trkpt lat="45.5792533" lon="10.51528"><ele>188.0</ele><time>2026-03-28T17:33:47.847Z</time></trkpt><trkpt lat="45.579105" lon="10.5152617"><ele>188.0</ele><time>2026-03-28T17:33:48.847Z</time></trkpt><trkpt lat="45.5789583" lon="10.5152633"><ele>188.0</ele><time>2026-03-28T17:33:49.846Z</time></trkpt><trkpt lat="45.578805" lon="10.5152433"><ele>188.0</ele><time>2026-03-28T17:33:50.846Z</time></trkpt><trkpt lat="45.5786583" lon="10.5152467"><ele>187.5</ele><time>2026-03-28T17:33:51.846Z</time></trkpt><trkpt lat="45.57852" lon="10.5152333"><ele>187.0</ele><time>2026-03-28T17:33:52.847Z</time></trkpt><trkpt lat="45.5783767" lon="10.5152267"><ele>186.5</ele><time>2026-03-28T17:33:53.847Z</time></trkpt><trkpt lat="45.5782317" lon="10.5152217"><ele>186.0</ele><time>2026-03-28T17:33:54.846Z</time></trkpt><trkpt lat="45.578085" lon="10.5152183"><ele>186.0</ele><time>2026-03-28T17:33:55.846Z</time></trkpt><trkpt lat="45.5779483" lon="10.5152133"><ele>186.0</ele><time>2026-03-28T17:33:56.847Z</time></trkpt><trkpt lat="45.577805" lon="10.5152"><ele>186.0</ele><time>2026-03-28T17:33:57.846Z</time></trkpt><trkpt lat="45.5776633" lon="10.5151933"><ele>186.0</ele><time>2026-03-28T17:33:58.846Z</time></trkpt><trkpt lat="45.5775133" lon="10.5151883"><ele>186.33333333333334</ele><time>2026-03-28T17:33:59.847Z</time></trkpt><trkpt lat="45.577355" lon="10.5151683"><ele>186.66666666666669</ele><time>2026-03-28T17:34:00.847Z</time></trkpt><trkpt lat="45.5771917" lon="10.5151317"><ele>187.0</ele><time>2026-03-28T17:34:01.846Z</time></trkpt><trkpt lat="45.57702" lon="10.5151"><ele>187.0</ele><time>2026-03-28T17:34:02.847Z</time></trkpt><trkpt lat="45.5768467" lon="10.5150617"><ele>187.0</ele><time>2026-03-28T17:34:03.847Z</time></trkpt><trkpt lat="45.57668" lon="10.5150233"><ele>187.0</ele><time>2026-03-28T17:34:04.846Z</time></trkpt><trkpt lat="45.5765117" lon="10.5149817"><ele>187.0</ele><time>2026-03-28T17:34:05.846Z</time></trkpt><trkpt lat="45.576335" lon="10.51494"><ele>187.0</ele><time>2026-03-28T17:34:06.846Z</time></trkpt><trkpt lat="45.576145" lon="10.5149"><ele>187.0</ele><time>2026-03-28T17:34:07.847Z</time></trkpt><trkpt lat="45.5759417" lon="10.5148667"><ele>187.0</ele><time>2026-03-28T17:34:08.847Z</time></trkpt><trkpt lat="45.57574" lon="10.514805"><ele>187.0</ele><time>2026-03-28T17:34:09.846Z</time></trkpt><trkpt lat="45.5755267" lon="10.51473"><ele>187.0</ele><time>2026-03-28T17:34:10.846Z</time></trkpt><trkpt lat="45.5753117" lon="10.5146717"><ele>187.0</ele><time>2026-03-28T17:34:11.846Z</time></trkpt><trkpt lat="45.5750933" lon="10.5146067"><ele>187.0</ele><time>2026-03-28T17:34:12.847Z</time></trkpt><trkpt lat="45.5748833" lon="10.51455"><ele>187.0</ele><time>2026-03-28T17:34:13.846Z</time></trkpt><trkpt lat="45.5746583" lon="10.5144933"><ele>189.0</ele><time>2026-03-28T17:34:14.847Z</time></trkpt><trkpt lat="45.57444" lon="10.5144333"><ele>191.0</ele><time>2026-03-28T17:34:15.847Z</time></trkpt><trkpt lat="45.574235" lon="10.5143817"><ele>193.0</ele><time>2026-03-28T17:34:16.846Z</time></trkpt><trkpt lat="45.57405" lon="10.51437"><ele>193.0</ele><time>2026-03-28T17:34:17.846Z</time></trkpt><trkpt lat="45.573895" lon="10.51437"><ele>193.0</ele><time>2026-03-28T17:34:18.846Z</time></trkpt><trkpt lat="45.57376" lon="10.5144267"><ele>193.0</ele><time>2026-03-28T17:34:19.847Z</time></trkpt><trkpt lat="45.5736517" lon="10.51455"><ele>193.0</ele><time>2026-03-28T17:34:20.847Z</time></trkpt><trkpt lat="45.5735667" lon="10.5147167"><ele>197.33333333333331</ele><time>2026-03-28T17:34:21.846Z</time></trkpt><trkpt lat="45.5735" lon="10.5149117"><ele>201.66666666666669</ele><time>2026-03-28T17:34:22.846Z</time></trkpt><trkpt lat="45.5734583" lon="10.515125"><ele>206.0</ele><time>2026-03-28T17:34:23.847Z</time></trkpt><trkpt lat="45.5734417" lon="10.51536"><ele>204.33333333333334</ele><time>2026-03-28T17:34:24.847Z</time></trkpt><trkpt lat="45.5734083" lon="10.5155833"><ele>202.66666666666669</ele><time>2026-03-28T17:34:25.847Z</time></trkpt><trkpt lat="45.5733533" lon="10.5157933"><ele>201.0</ele><time>2026-03-28T17:34:26.847Z</time></trkpt><trkpt lat="45.5732883" lon="10.5159767"><ele>201.0</ele><time>2026-03-28T17:34:27.846Z</time></trkpt><trkpt lat="45.57319" lon="10.516135"><ele>201.0</ele><time>2026-03-28T17:34:28.847Z</time></trkpt><trkpt lat="45.57306" lon="10.5162733"><ele>201.0</ele><time>2026-03-28T17:34:29.847Z</time></trkpt><trkpt lat="45.5729183" lon="10.5163933"><ele>200.0</ele><time>2026-03-28T17:34:30.847Z</time></trkpt><trkpt lat="45.5727667" lon="10.516505"><ele>199.0</ele><time>2026-03-28T17:34:31.847Z</time></trkpt><trkpt lat="45.57259" lon="10.5165767"><ele>198.0</ele><time>2026-03-28T17:34:32.847Z</time></trkpt><trkpt lat="45.5723867" lon="10.516605"><ele>198.0</ele><time>2026-03-28T17:34:33.846Z</time></trkpt><trkpt lat="45.57218" lon="10.516625"><ele>198.0</ele><time>2026-03-28T17:34:34.846Z</time></trkpt><trkpt lat="45.5719967" lon="10.51659"><ele>198.0</ele><time>2026-03-28T17:34:35.847Z</time></trkpt><trkpt lat="45.5718467" lon="10.516495"><ele>196.66666666666669</ele><time>2026-03-28T17:34:36.846Z</time></trkpt><trkpt lat="45.5717033" lon="10.5163317"><ele>195.33333333333334</ele><time>2026-03-28T17:34:37.846Z</time></trkpt><trkpt lat="45.5715717" lon="10.5161517"><ele>194.0</ele><time>2026-03-28T17:34:38.846Z</time></trkpt><trkpt lat="45.5714417" lon="10.5159683"><ele>195.33333333333334</ele><time>2026-03-28T17:34:39.846Z</time></trkpt><trkpt lat="45.571305" lon="10.5157833"><ele>196.66666666666669</ele><time>2026-03-28T17:34:40.847Z</time></trkpt><trkpt lat="45.5711483" lon="10.5155883"><ele>198.0</ele><time>2026-03-28T17:34:41.846Z</time></trkpt><trkpt lat="45.570995" lon="10.5153917"><ele>201.33333333333331</ele><time>2026-03-28T17:34:42.847Z</time></trkpt><trkpt lat="45.5708483" lon="10.5151983"><ele>204.66666666666666</ele><time>2026-03-28T17:34:43.847Z</time></trkpt><trkpt lat="45.5707283" lon="10.51503"><ele>208.0</ele><time>2026-03-28T17:34:44.846Z</time></trkpt><trkpt lat="45.5706483" lon="10.5148417"><ele>208.0</ele><time>2026-03-28T17:34:45.847Z</time></trkpt><trkpt lat="45.5706083" lon="10.5146217"><ele>208.0</ele><time>2026-03-28T17:34:46.846Z</time></trkpt><trkpt lat="45.5705867" lon="10.5143917"><ele>208.0</ele><time>2026-03-28T17:34:47.846Z</time></trkpt><trkpt lat="45.570575" lon="10.51415"><ele>209.66666666666666</ele><time>2026-03-28T17:34:48.846Z</time></trkpt><trkpt lat="45.570545" lon="10.5139117"><ele>211.33333333333331</ele><time>2026-03-28T17:34:49.847Z</time></trkpt><trkpt lat="45.570485" lon="10.513685"><ele>213.0</ele><time>2026-03-28T17:34:50.846Z</time></trkpt><trkpt lat="45.5703967" lon="10.513495"><ele>209.0</ele><time>2026-03-28T17:34:51.846Z</time></trkpt><trkpt lat="45.5702767" lon="10.513335"><ele>205.0</ele><time>2026-03-28T17:34:52.846Z</time></trkpt><trkpt lat="45.570125" lon="10.5132"><ele>201.0</ele><time>2026-03-28T17:34:53.847Z</time></trkpt><trkpt lat="45.56999" lon="10.5130533"><ele>201.0</ele><time>2026-03-28T17:34:54.847Z</time></trkpt><trkpt lat="45.5698683" lon="10.5129217"><ele>201.0</ele><time>2026-03-28T17:34:55.846Z</time></trkpt><trkpt lat="45.5698" lon="10.5127683"><ele>201.0</ele><time>2026-03-28T17:34:56.846Z</time></trkpt><trkpt lat="45.5697617" lon="10.5125867"><ele>201.0</ele><time>2026-03-28T17:34:57.847Z</time></trkpt><trkpt lat="45.5697633" lon="10.5123883"><ele>203.66666666666669</ele><time>2026-03-28T17:34:58.846Z</time></trkpt><trkpt lat="45.569805" lon="10.5121833"><ele>206.33333333333334</ele><time>2026-03-28T17:34:59.846Z</time></trkpt><trkpt lat="45.5698783" lon="10.5119883"><ele>209.0</ele><time>2026-03-28T17:35:00.846Z</time></trkpt><trkpt lat="45.569965" lon="10.5118183"><ele>209.25</ele><time>2026-03-28T17:35:01.846Z</time></trkpt><trkpt lat="45.57005" lon="10.5116717"><ele>209.5</ele><time>2026-03-28T17:35:02.847Z</time></trkpt><trkpt lat="45.57012" lon="10.5115383"><ele>209.75</ele><time>2026-03-28T17:35:03.847Z</time></trkpt><trkpt lat="45.570185" lon="10.511365"><ele>210.0</ele><time>2026-03-28T17:35:04.847Z</time></trkpt><trkpt lat="45.57022" lon="10.5111533"><ele>210.0</ele><time>2026-03-28T17:35:05.846Z</time></trkpt><trkpt lat="45.570255" lon="10.5109583"><ele>210.0</ele><time>2026-03-28T17:35:06.846Z</time></trkpt><trkpt lat="45.5702967" lon="10.51076"><ele>210.0</ele><time>2026-03-28T17:35:07.847Z</time></trkpt><trkpt lat="45.5703417" lon="10.51055"><ele>210.0</ele><time>2026-03-28T17:35:08.847Z</time></trkpt><trkpt lat="45.5703867" lon="10.5103317"><ele>210.0</ele><time>2026-03-28T17:35:09.847Z</time></trkpt><trkpt lat="45.5704233" lon="10.5101183"><ele>210.0</ele><time>2026-03-28T17:35:10.847Z</time></trkpt><trkpt lat="45.5704683" lon="10.5098917"><ele>210.0</ele><time>2026-03-28T17:35:11.847Z</time></trkpt><trkpt lat="45.5705167" lon="10.509655"><ele>210.0</ele><time>2026-03-28T17:35:12.846Z</time></trkpt><trkpt lat="45.5705567" lon="10.5094433"><ele>210.0</ele><time>2026-03-28T17:35:13.846Z</time></trkpt><trkpt lat="45.5705817" lon="10.509255"><ele>210.0</ele><time>2026-03-28T17:35:14.846Z</time></trkpt><trkpt lat="45.5705717" lon="10.5091133"><ele>210.0</ele><time>2026-03-28T17:35:15.847Z</time></trkpt><trkpt lat="45.5705283" lon="10.509005"><ele>210.0</ele><time>2026-03-28T17:35:16.846Z</time></trkpt><trkpt lat="45.570455" lon="10.5089367"><ele>210.0</ele><time>2026-03-28T17:35:17.847Z</time></trkpt><trkpt lat="45.5703617" lon="10.508905"><ele>210.0</ele><time>2026-03-28T17:35:18.847Z</time></trkpt><trkpt lat="45.57025" lon="10.50893"><ele>210.0</ele><time>2026-03-28T17:35:19.847Z</time></trkpt><trkpt lat="45.5701283" lon="10.509005"><ele>210.0</ele><time>2026-03-28T17:35:20.846Z</time></trkpt><trkpt lat="45.5700083" lon="10.5090933"><ele>210.66666666666669</ele><time>2026-03-28T17:35:21.846Z</time></trkpt><trkpt lat="45.5698733" lon="10.50917"><ele>211.33333333333334</ele><time>2026-03-28T17:35:22.847Z</time></trkpt><trkpt lat="45.5697183" lon="10.5092233"><ele>212.0</ele><time>2026-03-28T17:35:23.846Z</time></trkpt><trkpt lat="45.5695533" lon="10.509265"><ele>214.33333333333334</ele><time>2026-03-28T17:35:24.847Z</time></trkpt><trkpt lat="45.5693817" lon="10.50931"><ele>216.66666666666669</ele><time>2026-03-28T17:35:25.847Z</time></trkpt><trkpt lat="45.5692317" lon="10.509375"><ele>219.0</ele><time>2026-03-28T17:35:26.847Z</time></trkpt><trkpt lat="45.5691067" lon="10.5094633"><ele>216.75</ele><time>2026-03-28T17:35:27.846Z</time></trkpt><trkpt lat="45.5689933" lon="10.50958"><ele>214.5</ele><time>2026-03-28T17:35:28.847Z</time></trkpt><trkpt lat="45.5689133" lon="10.50972"><ele>212.25</ele><time>2026-03-28T17:35:29.847Z</time></trkpt><trkpt lat="45.5688417" lon="10.509885"><ele>210.0</ele><time>2026-03-28T17:35:30.847Z</time></trkpt><trkpt lat="45.5687867" lon="10.5100533"><ele>210.0</ele><time>2026-03-28T17:35:31.846Z</time></trkpt><trkpt lat="45.56872" lon="10.5101933"><ele>210.0</ele><time>2026-03-28T17:35:32.847Z</time></trkpt><trkpt lat="45.5686533" lon="10.5103233"><ele>210.0</ele><time>2026-03-28T17:35:33.846Z</time></trkpt><trkpt lat="45.5685683" lon="10.5103967"><ele>210.0</ele><time>2026-03-28T17:35:34.846Z</time></trkpt><trkpt lat="45.5684783" lon="10.5104233"><ele>210.0</ele><time>2026-03-28T17:35:35.846Z</time></trkpt><trkpt lat="45.5683667" lon="10.5103533"><ele>211.5</ele><time>2026-03-28T17:35:36.847Z</time></trkpt><trkpt lat="45.5682417" lon="10.51026"><ele>213.0</ele><time>2026-03-28T17:35:37.847Z</time></trkpt><trkpt lat="45.568105" lon="10.5101733"><ele>214.5</ele><time>2026-03-28T17:35:38.847Z</time></trkpt><trkpt lat="45.567955" lon="10.5101117"><ele>216.0</ele><time>2026-03-28T17:35:39.847Z</time></trkpt><trkpt lat="45.567795" lon="10.5100683"><ele>216.0</ele><time>2026-03-28T17:35:40.847Z</time></trkpt><trkpt lat="45.5676433" lon="10.51003"><ele>216.0</ele><time>2026-03-28T17:35:41.847Z</time></trkpt><trkpt lat="45.5675083" lon="10.5099967"><ele>216.0</ele><time>2026-03-28T17:35:42.846Z</time></trkpt><trkpt lat="45.56736" lon="10.5099733"><ele>216.0</ele><time>2026-03-28T17:35:43.847Z</time></trkpt><trkpt lat="45.5672033" lon="10.5099767"><ele>216.0</ele><time>2026-03-28T17:35:44.847Z</time></trkpt><trkpt lat="45.567065" lon="10.5099917"><ele>216.0</ele><time>2026-03-28T17:35:45.847Z</time></trkpt><trkpt lat="45.5669433" lon="10.5100083"><ele>216.0</ele><time>2026-03-28T17:35:46.846Z</time></trkpt><trkpt lat="45.5668317" lon="10.51003"><ele>216.0</ele><time>2026-03-28T17:35:47.846Z</time></trkpt><trkpt lat="45.566725" lon="10.510065"><ele>216.25</ele><time>2026-03-28T17:35:48.846Z</time></trkpt><trkpt lat="45.5666083" lon="10.5101017"><ele>216.5</ele><time>2026-03-28T17:35:49.847Z</time></trkpt><trkpt lat="45.56647" lon="10.5101267"><ele>216.75</ele><time>2026-03-28T17:35:50.846Z</time></trkpt><trkpt lat="45.56633" lon="10.5101033"><ele>217.0</ele><time>2026-03-28T17:35:51.847Z</time></trkpt><trkpt lat="45.56618" lon="10.5100733"><ele>215.66666666666666</ele><time>2026-03-28T17:35:52.846Z</time></trkpt><trkpt lat="45.566025" lon="10.5100383"><ele>214.33333333333331</ele><time>2026-03-28T17:35:53.847Z</time></trkpt><trkpt lat="45.5658667" lon="10.5099867"><ele>213.0</ele><time>2026-03-28T17:35:54.847Z</time></trkpt><trkpt lat="45.5656983" lon="10.5099083"><ele>213.0</ele><time>2026-03-28T17:35:55.846Z</time></trkpt><trkpt lat="45.5655283" lon="10.50982"><ele>213.0</ele><time>2026-03-28T17:35:56.846Z</time></trkpt><trkpt lat="45.565355" lon="10.5097083"><ele>213.0</ele><time>2026-03-28T17:35:57.846Z</time></trkpt><trkpt lat="45.565185" lon="10.5095767"><ele>215.0</ele><time>2026-03-28T17:35:58.847Z</time></trkpt><trkpt lat="45.5650333" lon="10.5094633"><ele>217.0</ele><time>2026-03-28T17:35:59.847Z</time></trkpt><trkpt lat="45.5649133" lon="10.5093617"><ele>219.0</ele><time>2026-03-28T17:36:00.847Z</time></trkpt><trkpt lat="45.5648317" lon="10.5092783"><ele>221.0</ele><time>2026-03-28T17:36:01.847Z</time></trkpt><trkpt lat="45.56481" lon="10.5091867"><ele>221.0</ele><time>2026-03-28T17:36:02.847Z</time></trkpt><trkpt lat="45.5648633" lon="10.5090433"><ele>221.00000000000003</ele><time>2026-03-28T17:36:04.847Z</time></trkpt><trkpt lat="45.56493" lon="10.5090133"><ele>221.00000000000003</ele><time>2026-03-28T17:36:05.846Z</time></trkpt><trkpt lat="45.5650283" lon="10.50903"><ele>221.0</ele><time>2026-03-28T17:36:06.846Z</time></trkpt><trkpt lat="45.56513" lon="10.5091017"><ele>221.0</ele><time>2026-03-28T17:36:07.847Z</time></trkpt><trkpt lat="45.5652333" lon="10.50919"><ele>221.0</ele><time>2026-03-28T17:36:08.846Z</time></trkpt><trkpt lat="45.5653383" lon="10.5092883"><ele>221.00000000000003</ele><time>2026-03-28T17:36:09.846Z</time></trkpt><trkpt lat="45.56543" lon="10.5093717"><ele>221.00000000000003</ele><time>2026-03-28T17:36:10.847Z</time></trkpt><trkpt lat="45.5655117" lon="10.50945"><ele>221.0</ele><time>2026-03-28T17:36:11.847Z</time></trkpt><trkpt lat="45.5655867" lon="10.5095183"><ele>221.0</ele><time>2026-03-28T17:36:12.847Z</time></trkpt><trkpt lat="45.565655" lon="10.5095733"><ele>219.85714285714286</ele><time>2026-03-28T17:36:13.846Z</time></trkpt><trkpt lat="45.5657217" lon="10.509625"><ele>218.71428571428572</ele><time>2026-03-28T17:36:14.846Z</time></trkpt><trkpt lat="45.5657983" lon="10.509645"><ele>217.57142857142856</ele><time>2026-03-28T17:36:15.847Z</time></trkpt><trkpt lat="45.5658567" lon="10.5095933"><ele>216.42857142857144</ele><time>2026-03-28T17:36:16.847Z</time></trkpt><trkpt lat="45.5658933" lon="10.5095"><ele>215.28571428571428</ele><time>2026-03-28T17:36:17.846Z</time></trkpt><trkpt lat="45.5658933" lon="10.5093883"><ele>214.14285714285714</ele><time>2026-03-28T17:36:18.847Z</time></trkpt><trkpt lat="45.5658567" lon="10.5092967"><ele>213.0</ele><time>2026-03-28T17:36:19.846Z</time></trkpt><trkpt lat="45.5658017" lon="10.5092033"><ele>217.5</ele><time>2026-03-28T17:36:20.846Z</time></trkpt><trkpt lat="45.5657233" lon="10.5091367"><ele>222.0</ele><time>2026-03-28T17:36:21.847Z</time></trkpt><trkpt lat="45.5656233" lon="10.5090767"><ele>226.5</ele><time>2026-03-28T17:36:22.846Z</time></trkpt><trkpt lat="45.56551" lon="10.5089817"><ele>231.0</ele><time>2026-03-28T17:36:23.847Z</time></trkpt><trkpt lat="45.5654117" lon="10.5088433"><ele>231.75</ele><time>2026-03-28T17:36:24.847Z</time></trkpt><trkpt lat="45.5653317" lon="10.5086767"><ele>232.5</ele><time>2026-03-28T17:36:25.847Z</time></trkpt><trkpt lat="45.56526" lon="10.5084717"><ele>233.25</ele><time>2026-03-28T17:36:26.847Z</time></trkpt><trkpt lat="45.5652167" lon="10.5082817"><ele>234.0</ele><time>2026-03-28T17:36:27.846Z</time></trkpt><trkpt lat="45.565175" lon="10.5081"><ele>234.0</ele><time>2026-03-28T17:36:28.847Z</time></trkpt><trkpt lat="45.5651317" lon="10.5079317"><ele>234.0</ele><time>2026-03-28T17:36:29.846Z</time></trkpt><trkpt lat="45.5650967" lon="10.507775"><ele>234.0</ele><time>2026-03-28T17:36:30.846Z</time></trkpt><trkpt lat="45.5650583" lon="10.507625"><ele>234.0</ele><time>2026-03-28T17:36:31.847Z</time></trkpt><trkpt lat="45.5650167" lon="10.507475"><ele>234.0</ele><time>2026-03-28T17:36:32.846Z</time></trkpt><trkpt lat="45.5649733" lon="10.5073217"><ele>234.0</ele><time>2026-03-28T17:36:33.847Z</time></trkpt><trkpt lat="45.5649283" lon="10.5071667"><ele>234.0</ele><time>2026-03-28T17:36:34.847Z</time></trkpt><trkpt lat="45.5648833" lon="10.5069933"><ele>234.0</ele><time>2026-03-28T17:36:35.846Z</time></trkpt><trkpt lat="45.56484" lon="10.506825"><ele>234.0</ele><time>2026-03-28T17:36:36.847Z</time></trkpt><trkpt lat="45.5648" lon="10.5066633"><ele>234.0</ele><time>2026-03-28T17:36:37.847Z</time></trkpt><trkpt lat="45.5647633" lon="10.5064983"><ele>234.0</ele><time>2026-03-28T17:36:38.847Z</time></trkpt><trkpt lat="45.5647267" lon="10.5063283"><ele>234.0</ele><time>2026-03-28T17:36:39.846Z</time></trkpt><trkpt lat="45.5646833" lon="10.506165"><ele>234.0</ele><time>2026-03-28T17:36:40.847Z</time></trkpt><trkpt lat="45.5646367" lon="10.5059983"><ele>234.0</ele><time>2026-03-28T17:36:41.847Z</time></trkpt><trkpt lat="45.564585" lon="10.505835"><ele>234.0</ele><time>2026-03-28T17:36:42.846Z</time></trkpt><trkpt lat="45.56452" lon="10.5056767"><ele>234.0</ele><time>2026-03-28T17:36:43.846Z</time></trkpt><trkpt lat="45.5644367" lon="10.5055433"><ele>234.0</ele><time>2026-03-28T17:36:44.847Z</time></trkpt><trkpt lat="45.5643333" lon="10.505445"><ele>234.0</ele><time>2026-03-28T17:36:45.846Z</time></trkpt><trkpt lat="45.5642333" lon="10.5053517"><ele>234.0</ele><time>2026-03-28T17:36:46.847Z</time></trkpt><trkpt lat="45.5641383" lon="10.5052717"><ele>234.0</ele><time>2026-03-28T17:36:47.846Z</time></trkpt><trkpt lat="45.5640483" lon="10.5051767"><ele>234.0</ele><time>2026-03-28T17:36:48.847Z</time></trkpt><trkpt lat="45.5639533" lon="10.50507"><ele>234.0</ele><time>2026-03-28T17:36:49.846Z</time></trkpt><trkpt lat="45.56385" lon="10.5049533"><ele>234.0</ele><time>2026-03-28T17:36:50.847Z</time></trkpt><trkpt lat="45.5637333" lon="10.50481"><ele>234.0</ele><time>2026-03-28T17:36:51.846Z</time></trkpt><trkpt lat="45.5636267" lon="10.5046467"><ele>235.66666666666669</ele><time>2026-03-28T17:36:52.847Z</time></trkpt><trkpt lat="45.56351" lon="10.5044717"><ele>237.33333333333334</ele><time>2026-03-28T17:36:53.846Z</time></trkpt><trkpt lat="45.56339" lon="10.5042917"><ele>239.0</ele><time>2026-03-28T17:36:54.847Z</time></trkpt><trkpt lat="45.5632567" lon="10.5041117"><ele>239.0</ele><time>2026-03-28T17:36:55.846Z</time></trkpt><trkpt lat="45.5630983" lon="10.503915"><ele>239.0</ele><time>2026-03-28T17:36:56.846Z</time></trkpt><trkpt lat="45.5629367" lon="10.5037233"><ele>239.0</ele><time>2026-03-28T17:36:57.847Z</time></trkpt><trkpt lat="45.5627733" lon="10.50353"><ele>239.33333333333334</ele><time>2026-03-28T17:36:58.846Z</time></trkpt><trkpt lat="45.5626083" lon="10.503365"><ele>239.66666666666669</ele><time>2026-03-28T17:36:59.847Z</time></trkpt><trkpt lat="45.5624667" lon="10.503215"><ele>240.0</ele><time>2026-03-28T17:37:00.846Z</time></trkpt><trkpt lat="45.5623333" lon="10.5030867"><ele>240.0</ele><time>2026-03-28T17:37:01.847Z</time></trkpt><trkpt lat="45.5622067" lon="10.5029783"><ele>240.0</ele><time>2026-03-28T17:37:02.846Z</time></trkpt><trkpt lat="45.5620817" lon="10.5028867"><ele>240.0</ele><time>2026-03-28T17:37:03.847Z</time></trkpt><trkpt lat="45.561965" lon="10.5028117"><ele>240.0</ele><time>2026-03-28T17:37:04.846Z</time></trkpt><trkpt lat="45.5618417" lon="10.5027533"><ele>239.75</ele><time>2026-03-28T17:37:05.847Z</time></trkpt><trkpt lat="45.5617033" lon="10.50269"><ele>239.5</ele><time>2026-03-28T17:37:06.846Z</time></trkpt><trkpt lat="45.5615633" lon="10.5026267"><ele>239.25</ele><time>2026-03-28T17:37:07.847Z</time></trkpt><trkpt lat="45.5614083" lon="10.5026067"><ele>239.0</ele><time>2026-03-28T17:37:08.846Z</time></trkpt><trkpt lat="45.56125" lon="10.5026467"><ele>237.33333333333334</ele><time>2026-03-28T17:37:09.846Z</time></trkpt><trkpt lat="45.561095" lon="10.5027567"><ele>235.66666666666669</ele><time>2026-03-28T17:37:10.847Z</time></trkpt><trkpt lat="45.5609617" lon="10.502915"><ele>234.0</ele><time>2026-03-28T17:37:11.846Z</time></trkpt><trkpt lat="45.5608333" lon="10.5030783"><ele>234.0</ele><time>2026-03-28T17:37:12.847Z</time></trkpt><trkpt lat="45.56072" lon="10.5032333"><ele>234.0</ele><time>2026-03-28T17:37:13.847Z</time></trkpt><trkpt lat="45.5606" lon="10.5033717"><ele>234.0</ele><time>2026-03-28T17:37:14.846Z</time></trkpt><trkpt lat="45.5604533" lon="10.5034333"><ele>234.0</ele><time>2026-03-28T17:37:15.846Z</time></trkpt><trkpt lat="45.5602883" lon="10.5034383"><ele>234.0</ele><time>2026-03-28T17:37:16.847Z</time></trkpt><trkpt lat="45.5601017" lon="10.5034"><ele>234.0</ele><time>2026-03-28T17:37:17.846Z</time></trkpt><trkpt lat="45.55992" lon="10.5033433"><ele>234.0</ele><time>2026-03-28T17:37:18.846Z</time></trkpt><trkpt lat="45.5597567" lon="10.5032767"><ele>234.0</ele><time>2026-03-28T17:37:19.847Z</time></trkpt><trkpt lat="45.559605" lon="10.5032017"><ele>234.0</ele><time>2026-03-28T17:37:20.846Z</time></trkpt><trkpt lat="45.559465" lon="10.5030783"><ele>233.66666666666669</ele><time>2026-03-28T17:37:21.846Z</time></trkpt><trkpt lat="45.559345" lon="10.5028917"><ele>233.33333333333334</ele><time>2026-03-28T17:37:22.846Z</time></trkpt><trkpt lat="45.55924" lon="10.5027017"><ele>233.0</ele><time>2026-03-28T17:37:23.846Z</time></trkpt><trkpt lat="45.5591283" lon="10.50248"><ele>233.0</ele><time>2026-03-28T17:37:24.847Z</time></trkpt><trkpt lat="45.559" lon="10.5022733"><ele>233.0</ele><time>2026-03-28T17:37:25.846Z</time></trkpt><trkpt lat="45.5588833" lon="10.50207"><ele>233.0</ele><time>2026-03-28T17:37:26.847Z</time></trkpt><trkpt lat="45.5587583" lon="10.5019017"><ele>232.66666666666669</ele><time>2026-03-28T17:37:27.847Z</time></trkpt><trkpt lat="45.55864" lon="10.50174"><ele>232.33333333333331</ele><time>2026-03-28T17:37:28.846Z</time></trkpt><trkpt lat="45.5585217" lon="10.5016233"><ele>232.0</ele><time>2026-03-28T17:37:29.846Z</time></trkpt><trkpt lat="45.5583983" lon="10.5014867"><ele>232.0</ele><time>2026-03-28T17:37:30.847Z</time></trkpt><trkpt lat="45.5582633" lon="10.501355"><ele>232.0</ele><time>2026-03-28T17:37:31.846Z</time></trkpt><trkpt lat="45.5581133" lon="10.5012383"><ele>232.0</ele><time>2026-03-28T17:37:32.847Z</time></trkpt><trkpt lat="45.557955" lon="10.5011017"><ele>232.0</ele><time>2026-03-28T17:37:33.846Z</time></trkpt><trkpt lat="45.557795" lon="10.500975"><ele>232.0</ele><time>2026-03-28T17:37:34.846Z</time></trkpt><trkpt lat="45.5576283" lon="10.50084"><ele>232.0</ele><time>2026-03-28T17:37:35.846Z</time></trkpt><trkpt lat="45.5574467" lon="10.500695"><ele>232.0</ele><time>2026-03-28T17:37:36.846Z</time></trkpt><trkpt lat="45.5572667" lon="10.5005483"><ele>232.0</ele><time>2026-03-28T17:37:37.846Z</time></trkpt><trkpt lat="45.5570817" lon="10.5004067"><ele>232.0</ele><time>2026-03-28T17:37:38.846Z</time></trkpt><trkpt lat="45.5569167" lon="10.500285"><ele>231.5</ele><time>2026-03-28T17:37:39.847Z</time></trkpt><trkpt lat="45.556775" lon="10.5001783"><ele>231.0</ele><time>2026-03-28T17:37:40.846Z</time></trkpt><trkpt lat="45.5566533" lon="10.5000983"><ele>230.5</ele><time>2026-03-28T17:37:41.846Z</time></trkpt><trkpt lat="45.5565483" lon="10.5000333"><ele>230.0</ele><time>2026-03-28T17:37:42.847Z</time></trkpt><trkpt lat="45.5564567" lon="10.4999983"><ele>230.00000000000003</ele><time>2026-03-28T17:37:43.846Z</time></trkpt><trkpt lat="45.556375" lon="10.49996"><ele>230.0</ele><time>2026-03-28T17:37:44.847Z</time></trkpt><trkpt lat="45.5562967" lon="10.499945"><ele>230.0</ele><time>2026-03-28T17:37:45.847Z</time></trkpt><trkpt lat="45.5562217" lon="10.4999217"><ele>230.0</ele><time>2026-03-28T17:37:46.847Z</time></trkpt><trkpt lat="45.556145" lon="10.4999033"><ele>230.00000000000003</ele><time>2026-03-28T17:37:47.847Z</time></trkpt><trkpt lat="45.5560317" lon="10.4998883"><ele>230.0</ele><time>2026-03-28T17:37:49.846Z</time></trkpt><trkpt lat="45.5559683" lon="10.4998883"><ele>228.6</ele><time>2026-03-28T17:37:51.847Z</time></trkpt><trkpt lat="45.555905" lon="10.499895"><ele>227.2</ele><time>2026-03-28T17:39:06.846Z</time></trkpt><trkpt lat="45.5558333" lon="10.4999233"><ele>225.8</ele><time>2026-03-28T17:39:07.846Z</time></trkpt><trkpt lat="45.555735" lon="10.4999617"><ele>224.4</ele><time>2026-03-28T17:39:08.846Z</time></trkpt><trkpt lat="45.5556233" lon="10.5000067"><ele>223.0</ele><time>2026-03-28T17:39:09.846Z</time></trkpt><trkpt lat="45.5555033" lon="10.5000417"><ele>223.0</ele><time>2026-03-28T17:39:10.846Z</time></trkpt><trkpt lat="45.5553717" lon="10.5001083"><ele>223.0</ele><time>2026-03-28T17:39:11.846Z</time></trkpt><trkpt lat="45.555245" lon="10.500185"><ele>223.0</ele><time>2026-03-28T17:39:12.847Z</time></trkpt><trkpt lat="45.5551183" lon="10.500275"><ele>223.0</ele><time>2026-03-28T17:39:13.846Z</time></trkpt><trkpt lat="45.5549933" lon="10.5003617"><ele>221.66666666666666</ele><time>2026-03-28T17:39:14.847Z</time></trkpt><trkpt lat="45.5548517" lon="10.5004417"><ele>220.33333333333331</ele><time>2026-03-28T17:39:15.846Z</time></trkpt><trkpt lat="45.55471" lon="10.5005317"><ele>219.0</ele><time>2026-03-28T17:39:16.847Z</time></trkpt><trkpt lat="45.5545583" lon="10.50061"><ele>220.33333333333331</ele><time>2026-03-28T17:39:17.846Z</time></trkpt><trkpt lat="45.5544067" lon="10.5006983"><ele>221.66666666666666</ele><time>2026-03-28T17:39:18.847Z</time></trkpt><trkpt lat="45.55425" lon="10.5007967"><ele>223.0</ele><time>2026-03-28T17:39:19.847Z</time></trkpt><trkpt lat="45.5541067" lon="10.5009133"><ele>223.0</ele><time>2026-03-28T17:39:20.847Z</time></trkpt><trkpt lat="45.5539733" lon="10.501035"><ele>223.0</ele><time>2026-03-28T17:39:21.847Z</time></trkpt><trkpt lat="45.5538583" lon="10.5011783"><ele>223.0</ele><time>2026-03-28T17:39:22.846Z</time></trkpt><trkpt lat="45.553755" lon="10.5013217"><ele>223.25</ele><time>2026-03-28T17:39:23.846Z</time></trkpt><trkpt lat="45.5536617" lon="10.5014767"><ele>223.5</ele><time>2026-03-28T17:39:24.847Z</time></trkpt><trkpt lat="45.5535583" lon="10.50163"><ele>223.75</ele><time>2026-03-28T17:39:25.847Z</time></trkpt><trkpt lat="45.5534683" lon="10.5017983"><ele>224.0</ele><time>2026-03-28T17:39:26.846Z</time></trkpt><trkpt lat="45.55337" lon="10.50195"><ele>223.0</ele><time>2026-03-28T17:39:27.847Z</time></trkpt><trkpt lat="45.5532717" lon="10.5021083"><ele>222.0</ele><time>2026-03-28T17:39:28.847Z</time></trkpt><trkpt lat="45.55317" lon="10.502265"><ele>221.0</ele><time>2026-03-28T17:39:29.846Z</time></trkpt><trkpt lat="45.55306" lon="10.5024233"><ele>221.0</ele><time>2026-03-28T17:39:30.847Z</time></trkpt><trkpt lat="45.552955" lon="10.502585"><ele>221.0</ele><time>2026-03-28T17:39:31.846Z</time></trkpt><trkpt lat="45.5528517" lon="10.5027383"><ele>221.0</ele><time>2026-03-28T17:39:32.846Z</time></trkpt><trkpt lat="45.5527533" lon="10.5028767"><ele>221.0</ele><time>2026-03-28T17:39:33.846Z</time></trkpt><trkpt lat="45.552645" lon="10.5030067"><ele>220.5</ele><time>2026-03-28T17:39:34.846Z</time></trkpt><trkpt lat="45.55253" lon="10.5031367"><ele>220.0</ele><time>2026-03-28T17:39:35.847Z</time></trkpt><trkpt lat="45.5524133" lon="10.5032667"><ele>219.5</ele><time>2026-03-28T17:39:36.847Z</time></trkpt><trkpt lat="45.5522983" lon="10.503395"><ele>219.0</ele><time>2026-03-28T17:39:37.846Z</time></trkpt><trkpt lat="45.5521883" lon="10.5035317"><ele>219.0</ele><time>2026-03-28T17:39:38.846Z</time></trkpt><trkpt lat="45.5520883" lon="10.5036733"><ele>219.0</ele><time>2026-03-28T17:39:39.846Z</time></trkpt><trkpt lat="45.552" lon="10.50383"><ele>219.0</ele><time>2026-03-28T17:39:40.847Z</time></trkpt><trkpt lat="45.5519183" lon="10.5039817"><ele>219.0</ele><time>2026-03-28T17:39:41.847Z</time></trkpt><trkpt lat="45.55184" lon="10.5040983"><ele>218.66666666666666</ele><time>2026-03-28T17:39:42.847Z</time></trkpt><trkpt lat="45.5517733" lon="10.5041767"><ele>218.33333333333331</ele><time>2026-03-28T17:39:43.846Z</time></trkpt><trkpt lat="45.5517133" lon="10.5042283"><ele>218.0</ele><time>2026-03-28T17:39:44.847Z</time></trkpt><trkpt lat="45.551595" lon="10.5042383"><ele>217.66666666666666</ele><time>2026-03-28T17:39:46.847Z</time></trkpt><trkpt lat="45.5515317" lon="10.5042067"><ele>217.33333333333331</ele><time>2026-03-28T17:39:47.846Z</time></trkpt><trkpt lat="45.5514567" lon="10.5041767"><ele>217.0</ele><time>2026-03-28T17:39:48.846Z</time></trkpt><trkpt lat="45.55137" lon="10.5041383"><ele>217.0</ele><time>2026-03-28T17:39:49.846Z</time></trkpt><trkpt lat="45.5512717" lon="10.5041"><ele>217.0</ele><time>2026-03-28T17:39:50.847Z</time></trkpt><trkpt lat="45.5511667" lon="10.504065"><ele>217.0</ele><time>2026-03-28T17:39:51.847Z</time></trkpt><trkpt lat="45.551055" lon="10.5040333"><ele>217.0</ele><time>2026-03-28T17:39:52.847Z</time></trkpt><trkpt lat="45.5509383" lon="10.5040083"><ele>217.0</ele><time>2026-03-28T17:39:53.846Z</time></trkpt><trkpt lat="45.5508183" lon="10.5039883"><ele>216.83333333333331</ele><time>2026-03-28T17:39:54.847Z</time></trkpt><trkpt lat="45.5507033" lon="10.5039783"><ele>216.66666666666666</ele><time>2026-03-28T17:39:55.847Z</time></trkpt><trkpt lat="45.5506033" lon="10.5039767"><ele>216.5</ele><time>2026-03-28T17:39:56.847Z</time></trkpt><trkpt lat="45.5505183" lon="10.50397"><ele>216.33333333333331</ele><time>2026-03-28T17:39:57.846Z</time></trkpt><trkpt lat="45.5504467" lon="10.5039583"><ele>216.16666666666666</ele><time>2026-03-28T17:39:58.846Z</time></trkpt><trkpt lat="45.55038" lon="10.5039433"><ele>216.0</ele><time>2026-03-28T17:39:59.847Z</time></trkpt><trkpt lat="45.5503133" lon="10.5039417"><ele>214.83333333333334</ele><time>2026-03-28T17:40:00.846Z</time></trkpt><trkpt lat="45.55024" lon="10.5039483"><ele>213.66666666666669</ele><time>2026-03-28T17:40:01.846Z</time></trkpt><trkpt lat="45.550175" lon="10.50396"><ele>212.5</ele><time>2026-03-28T17:40:02.846Z</time></trkpt><trkpt lat="45.5500733" lon="10.503955"><ele>211.33333333333334</ele><time>2026-03-28T17:40:04.846Z</time></trkpt><trkpt lat="45.5499933" lon="10.5039167"><ele>210.16666666666669</ele><time>2026-03-28T17:40:07.846Z</time></trkpt><trkpt lat="45.549885" lon="10.5038583"><ele>209.0</ele><time>2026-03-28T17:40:09.846Z</time></trkpt><trkpt lat="45.5497967" lon="10.50386"><ele>209.0</ele><time>2026-03-28T17:40:10.846Z</time></trkpt><trkpt lat="45.5496967" lon="10.5038617"><ele>209.0</ele><time>2026-03-28T17:40:11.846Z</time></trkpt><trkpt lat="45.549595" lon="10.5038033"><ele>209.0</ele><time>2026-03-28T17:40:12.847Z</time></trkpt><trkpt lat="45.5495033" lon="10.503745"><ele>209.0</ele><time>2026-03-28T17:40:13.847Z</time></trkpt><trkpt lat="45.549435" lon="10.5036783"><ele>209.0</ele><time>2026-03-28T17:40:14.846Z</time></trkpt><trkpt lat="45.5493717" lon="10.5036317"><ele>209.0</ele><time>2026-03-28T17:40:15.847Z</time></trkpt><trkpt lat="45.5492467" lon="10.5035917"><ele>209.0</ele><time>2026-03-28T17:40:17.847Z</time></trkpt><trkpt lat="45.5491733" lon="10.5036"><ele>209.0</ele><time>2026-03-28T17:40:18.846Z</time></trkpt><trkpt lat="45.549095" lon="10.503635"><ele>209.0</ele><time>2026-03-28T17:40:19.846Z</time></trkpt><trkpt lat="45.549005" lon="10.5036783"><ele>209.0</ele><time>2026-03-28T17:40:20.847Z</time></trkpt><trkpt lat="45.5489233" lon="10.50374"><ele>207.66666666666669</ele><time>2026-03-28T17:40:21.847Z</time></trkpt><trkpt lat="45.5488483" lon="10.5038183"><ele>206.33333333333334</ele><time>2026-03-28T17:40:22.847Z</time></trkpt><trkpt lat="45.5487783" lon="10.5038983"><ele>205.0</ele><time>2026-03-28T17:40:23.847Z</time></trkpt><trkpt lat="45.5487067" lon="10.503975"><ele>203.66666666666669</ele><time>2026-03-28T17:40:24.846Z</time></trkpt><trkpt lat="45.5486467" lon="10.5040617"><ele>202.33333333333334</ele><time>2026-03-28T17:40:25.846Z</time></trkpt><trkpt lat="45.5485933" lon="10.5041583"><ele>201.0</ele><time>2026-03-28T17:40:26.847Z</time></trkpt><trkpt lat="45.5485433" lon="10.50424"><ele>201.0</ele><time>2026-03-28T17:40:27.846Z</time></trkpt><trkpt lat="45.5485017" lon="10.5043183"><ele>201.0</ele><time>2026-03-28T17:40:28.846Z</time></trkpt><trkpt lat="45.548455" lon="10.50439"><ele>201.0</ele><time>2026-03-28T17:40:29.846Z</time></trkpt><trkpt lat="45.548345" lon="10.5044783"><ele>201.0</ele><time>2026-03-28T17:40:31.847Z</time></trkpt><trkpt lat="45.5482617" lon="10.5045033"><ele>201.0</ele><time>2026-03-28T17:40:32.847Z</time></trkpt><trkpt lat="45.5481717" lon="10.5045117"><ele>201.0</ele><time>2026-03-28T17:40:33.847Z</time></trkpt><trkpt lat="45.5480833" lon="10.5045017"><ele>201.0</ele><time>2026-03-28T17:40:34.847Z</time></trkpt><trkpt lat="45.548" lon="10.50449"><ele>201.0</ele><time>2026-03-28T17:40:35.847Z</time></trkpt><trkpt lat="45.5479183" lon="10.5044683"><ele>201.0</ele><time>2026-03-28T17:40:36.847Z</time></trkpt><trkpt lat="45.5478317" lon="10.5044483"><ele>201.0</ele><time>2026-03-28T17:40:37.846Z</time></trkpt><trkpt lat="45.5477483" lon="10.504425"><ele>201.0</ele><time>2026-03-28T17:40:38.847Z</time></trkpt><trkpt lat="45.54766" lon="10.504395"><ele>201.0</ele><time>2026-03-28T17:40:39.846Z</time></trkpt><trkpt lat="45.54757" lon="10.5043617"><ele>201.4</ele><time>2026-03-28T17:40:40.846Z</time></trkpt><trkpt lat="45.5474767" lon="10.50434"><ele>201.8</ele><time>2026-03-28T17:40:41.847Z</time></trkpt><trkpt lat="45.5473683" lon="10.5043367"><ele>202.20000000000002</ele><time>2026-03-28T17:40:42.846Z</time></trkpt><trkpt lat="45.54726" lon="10.5043567"><ele>202.60000000000002</ele><time>2026-03-28T17:40:43.846Z</time></trkpt><trkpt lat="45.5471367" lon="10.5043867"><ele>203.0</ele><time>2026-03-28T17:40:44.846Z</time></trkpt><trkpt lat="45.5469967" lon="10.5044317"><ele>203.0</ele><time>2026-03-28T17:40:45.847Z</time></trkpt><trkpt lat="45.5468517" lon="10.5044933"><ele>203.0</ele><time>2026-03-28T17:40:46.846Z</time></trkpt><trkpt lat="45.546695" lon="10.5045717"><ele>203.0</ele><time>2026-03-28T17:40:47.846Z</time></trkpt><trkpt lat="45.546525" lon="10.5046633"><ele>201.33333333333334</ele><time>2026-03-28T17:40:48.847Z</time></trkpt><trkpt lat="45.5463567" lon="10.50476"><ele>199.66666666666669</ele><time>2026-03-28T17:40:49.847Z</time></trkpt><trkpt lat="45.5461983" lon="10.5048517"><ele>198.0</ele><time>2026-03-28T17:40:50.847Z</time></trkpt><trkpt lat="45.5460533" lon="10.5049417"><ele>198.0</ele><time>2026-03-28T17:40:51.847Z</time></trkpt><trkpt lat="45.5459017" lon="10.5049983"><ele>198.0</ele><time>2026-03-28T17:40:52.846Z</time></trkpt><trkpt lat="45.5457417" lon="10.505015"><ele>198.0</ele><time>2026-03-28T17:40:53.846Z</time></trkpt><trkpt lat="45.5455867" lon="10.50501"><ele>198.0</ele><time>2026-03-28T17:40:54.846Z</time></trkpt><trkpt lat="45.545425" lon="10.5050233"><ele>198.0</ele><time>2026-03-28T17:40:55.846Z</time></trkpt><trkpt lat="45.5452667" lon="10.5050467"><ele>198.0</ele><time>2026-03-28T17:40:56.847Z</time></trkpt><trkpt lat="45.5451083" lon="10.5050933"><ele>198.33333333333331</ele><time>2026-03-28T17:40:57.847Z</time></trkpt><trkpt lat="45.5449483" lon="10.5051467"><ele>198.66666666666666</ele><time>2026-03-28T17:40:58.847Z</time></trkpt><trkpt lat="45.54479" lon="10.5052317"><ele>199.0</ele><time>2026-03-28T17:40:59.846Z</time></trkpt><trkpt lat="45.54464" lon="10.5053133"><ele>198.66666666666666</ele><time>2026-03-28T17:41:00.846Z</time></trkpt><trkpt lat="45.544485" lon="10.5053933"><ele>198.33333333333331</ele><time>2026-03-28T17:41:01.846Z</time></trkpt><trkpt lat="45.544305" lon="10.5054983"><ele>198.0</ele><time>2026-03-28T17:41:02.846Z</time></trkpt><trkpt lat="45.54412" lon="10.505575"><ele>198.0</ele><time>2026-03-28T17:41:03.846Z</time></trkpt><trkpt lat="45.543935" lon="10.5056283"><ele>198.0</ele><time>2026-03-28T17:41:04.846Z</time></trkpt><trkpt lat="45.5437417" lon="10.5056783"><ele>198.0</ele><time>2026-03-28T17:41:05.847Z</time></trkpt><trkpt lat="45.5435433" lon="10.50573"><ele>198.33333333333331</ele><time>2026-03-28T17:41:06.847Z</time></trkpt><trkpt lat="45.5433383" lon="10.5057633"><ele>198.66666666666666</ele><time>2026-03-28T17:41:07.847Z</time></trkpt><trkpt lat="45.5431583" lon="10.5058367"><ele>199.0</ele><time>2026-03-28T17:41:08.847Z</time></trkpt><trkpt lat="45.542995" lon="10.50593"><ele>200.0</ele><time>2026-03-28T17:41:09.847Z</time></trkpt><trkpt lat="45.54283" lon="10.5060283"><ele>201.0</ele><time>2026-03-28T17:41:10.846Z</time></trkpt><trkpt lat="45.5426717" lon="10.5061083"><ele>202.0</ele><time>2026-03-28T17:41:11.847Z</time></trkpt><trkpt lat="45.542515" lon="10.506135"><ele>202.0</ele><time>2026-03-28T17:41:12.846Z</time></trkpt><trkpt lat="45.54234" lon="10.50614"><ele>202.0</ele><time>2026-03-28T17:41:13.847Z</time></trkpt><trkpt lat="45.54216" lon="10.50612"><ele>202.0</ele><time>2026-03-28T17:41:14.847Z</time></trkpt><trkpt lat="45.5419883" lon="10.5060883"><ele>200.66666666666666</ele><time>2026-03-28T17:41:15.847Z</time></trkpt><trkpt lat="45.541825" lon="10.5060467"><ele>199.33333333333331</ele><time>2026-03-28T17:41:16.847Z</time></trkpt><trkpt lat="45.541675" lon="10.5059867"><ele>198.0</ele><time>2026-03-28T17:41:17.846Z</time></trkpt><trkpt lat="45.5415467" lon="10.5059667"><ele>198.0</ele><time>2026-03-28T17:41:18.847Z</time></trkpt><trkpt lat="45.54144" lon="10.5059967"><ele>198.0</ele><time>2026-03-28T17:41:19.846Z</time></trkpt><trkpt lat="45.5413533" lon="10.5060983"><ele>198.0</ele><time>2026-03-28T17:41:20.847Z</time></trkpt><trkpt lat="45.5412783" lon="10.50625"><ele>198.0</ele><time>2026-03-28T17:41:21.847Z</time></trkpt><trkpt lat="45.5412267" lon="10.5064183"><ele>197.0</ele><time>2026-03-28T17:41:22.847Z</time></trkpt><trkpt lat="45.5411917" lon="10.5066"><ele>196.0</ele><time>2026-03-28T17:41:23.846Z</time></trkpt><trkpt lat="45.5411633" lon="10.50679"><ele>195.0</ele><time>2026-03-28T17:41:24.846Z</time></trkpt><trkpt lat="45.5411433" lon="10.5069983"><ele>194.0</ele><time>2026-03-28T17:41:25.847Z</time></trkpt><trkpt lat="45.5411067" lon="10.5072117"><ele>193.5</ele><time>2026-03-28T17:41:26.846Z</time></trkpt><trkpt lat="45.5410383" lon="10.5073867"><ele>193.0</ele><time>2026-03-28T17:41:27.846Z</time></trkpt><trkpt lat="45.540955" lon="10.50754"><ele>192.5</ele><time>2026-03-28T17:41:28.847Z</time></trkpt><trkpt lat="45.5408483" lon="10.5076633"><ele>192.0</ele><time>2026-03-28T17:41:29.847Z</time></trkpt><trkpt lat="45.5407267" lon="10.5077633"><ele>192.0</ele><time>2026-03-28T17:41:30.847Z</time></trkpt><trkpt lat="45.540595" lon="10.5078283"><ele>192.0</ele><time>2026-03-28T17:41:31.847Z</time></trkpt><trkpt lat="45.5404683" lon="10.5078667"><ele>192.0</ele><time>2026-03-28T17:41:32.847Z</time></trkpt><trkpt lat="45.540375" lon="10.507935"><ele>192.0</ele><time>2026-03-28T17:41:33.846Z</time></trkpt><trkpt lat="45.5403117" lon="10.5080483"><ele>190.0</ele><time>2026-03-28T17:41:34.846Z</time></trkpt><trkpt lat="45.5402867" lon="10.5082017"><ele>188.0</ele><time>2026-03-28T17:41:35.847Z</time></trkpt><trkpt lat="45.5402767" lon="10.50838"><ele>186.0</ele><time>2026-03-28T17:41:36.847Z</time></trkpt><trkpt lat="45.5402633" lon="10.508575"><ele>184.0</ele><time>2026-03-28T17:41:37.846Z</time></trkpt><trkpt lat="45.540245" lon="10.508775"><ele>183.6</ele><time>2026-03-28T17:41:38.846Z</time></trkpt><trkpt lat="45.5402317" lon="10.5089467"><ele>183.2</ele><time>2026-03-28T17:41:39.847Z</time></trkpt><trkpt lat="45.5402017" lon="10.5090867"><ele>182.79999999999998</ele><time>2026-03-28T17:41:40.846Z</time></trkpt><trkpt lat="45.5401667" lon="10.5091833"><ele>182.39999999999998</ele><time>2026-03-28T17:41:41.846Z</time></trkpt><trkpt lat="45.54011" lon="10.5092717"><ele>182.0</ele><time>2026-03-28T17:41:42.847Z</time></trkpt><trkpt lat="45.5400483" lon="10.5093667"><ele>182.0</ele><time>2026-03-28T17:41:43.846Z</time></trkpt><trkpt lat="45.5399917" lon="10.5094767"><ele>182.0</ele><time>2026-03-28T17:41:44.846Z</time></trkpt><trkpt lat="45.5399333" lon="10.509605"><ele>182.0</ele><time>2026-03-28T17:41:45.847Z</time></trkpt><trkpt lat="45.5398683" lon="10.5097433"><ele>182.0</ele><time>2026-03-28T17:41:46.847Z</time></trkpt><trkpt lat="45.5397983" lon="10.5098933"><ele>182.0</ele><time>2026-03-28T17:41:47.846Z</time></trkpt><trkpt lat="45.5397183" lon="10.5100417"><ele>183.0</ele><time>2026-03-28T17:41:48.846Z</time></trkpt><trkpt lat="45.539635" lon="10.5102133"><ele>184.0</ele><time>2026-03-28T17:41:49.846Z</time></trkpt><trkpt lat="45.5395433" lon="10.5104033"><ele>185.0</ele><time>2026-03-28T17:41:50.847Z</time></trkpt><trkpt lat="45.539445" lon="10.5106067"><ele>187.33333333333331</ele><time>2026-03-28T17:41:51.847Z</time></trkpt><trkpt lat="45.5393483" lon="10.510815"><ele>189.66666666666666</ele><time>2026-03-28T17:41:52.846Z</time></trkpt><trkpt lat="45.5392583" lon="10.5110183"><ele>192.0</ele><time>2026-03-28T17:41:53.847Z</time></trkpt><trkpt lat="45.5391883" lon="10.511205"><ele>192.6</ele><time>2026-03-28T17:41:54.846Z</time></trkpt><trkpt lat="45.5391367" lon="10.5113767"><ele>193.2</ele><time>2026-03-28T17:41:55.847Z</time></trkpt><trkpt lat="45.5390933" lon="10.5115383"><ele>193.8</ele><time>2026-03-28T17:41:56.846Z</time></trkpt><trkpt lat="45.53905" lon="10.5116817"><ele>194.4</ele><time>2026-03-28T17:41:57.846Z</time></trkpt><trkpt lat="45.5390067" lon="10.5117617"><ele>195.0</ele><time>2026-03-28T17:41:58.846Z</time></trkpt><trkpt lat="45.5389333" lon="10.5119083"><ele>195.0</ele><time>2026-03-28T17:42:00.846Z</time></trkpt><trkpt lat="45.538905" lon="10.5120117"><ele>195.0</ele><time>2026-03-28T17:42:01.847Z</time></trkpt><trkpt lat="45.53888" lon="10.5121417"><ele>195.0</ele><time>2026-03-28T17:42:02.846Z</time></trkpt><trkpt lat="45.5388383" lon="10.5122933"><ele>195.0</ele><time>2026-03-28T17:42:03.846Z</time></trkpt><trkpt lat="45.5387967" lon="10.512475"><ele>195.0</ele><time>2026-03-28T17:42:04.846Z</time></trkpt><trkpt lat="45.5387483" lon="10.5126483"><ele>195.0</ele><time>2026-03-28T17:42:05.846Z</time></trkpt><trkpt lat="45.538695" lon="10.51283"><ele>195.0</ele><time>2026-03-28T17:42:06.847Z</time></trkpt><trkpt lat="45.5386283" lon="10.51301"><ele>195.0</ele><time>2026-03-28T17:42:07.847Z</time></trkpt><trkpt lat="45.5385683" lon="10.513175"><ele>195.0</ele><time>2026-03-28T17:42:08.847Z</time></trkpt><trkpt lat="45.5385033" lon="10.5133183"><ele>195.0</ele><time>2026-03-28T17:42:09.846Z</time></trkpt><trkpt lat="45.5384267" lon="10.51345"><ele>195.0</ele><time>2026-03-28T17:42:10.847Z</time></trkpt><trkpt lat="45.5383267" lon="10.5135567"><ele>195.0</ele><time>2026-03-28T17:42:11.847Z</time></trkpt><trkpt lat="45.5381983" lon="10.5136217"><ele>195.0</ele><time>2026-03-28T17:42:12.847Z</time></trkpt><trkpt lat="45.5380483" lon="10.5136367"><ele>195.0</ele><time>2026-03-28T17:42:13.847Z</time></trkpt><trkpt lat="45.5379117" lon="10.5136717"><ele>195.0</ele><time>2026-03-28T17:42:14.846Z</time></trkpt><trkpt lat="45.5377733" lon="10.5137117"><ele>195.0</ele><time>2026-03-28T17:42:15.846Z</time></trkpt><trkpt lat="45.53761" lon="10.5137633"><ele>195.0</ele><time>2026-03-28T17:42:16.846Z</time></trkpt><trkpt lat="45.5374433" lon="10.5138117"><ele>191.33333333333334</ele><time>2026-03-28T17:42:17.846Z</time></trkpt><trkpt lat="45.5372633" lon="10.5138667"><ele>187.66666666666669</ele><time>2026-03-28T17:42:18.846Z</time></trkpt><trkpt lat="45.537105" lon="10.5139217"><ele>184.0</ele><time>2026-03-28T17:42:19.846Z</time></trkpt><trkpt lat="45.5369533" lon="10.5139667"><ele>184.0</ele><time>2026-03-28T17:42:20.847Z</time></trkpt><trkpt lat="45.5368217" lon="10.514"><ele>184.0</ele><time>2026-03-28T17:42:21.847Z</time></trkpt><trkpt lat="45.5367083" lon="10.5140283"><ele>184.0</ele><time>2026-03-28T17:42:22.847Z</time></trkpt><trkpt lat="45.5365917" lon="10.5140383"><ele>184.0</ele><time>2026-03-28T17:42:23.846Z</time></trkpt><trkpt lat="45.5364833" lon="10.5139883"><ele>184.0</ele><time>2026-03-28T17:42:24.846Z</time></trkpt><trkpt lat="45.536375" lon="10.5139167"><ele>184.0</ele><time>2026-03-28T17:42:25.846Z</time></trkpt><trkpt lat="45.5362617" lon="10.5138033"><ele>184.0</ele><time>2026-03-28T17:42:26.846Z</time></trkpt><trkpt lat="45.5361233" lon="10.51372"><ele>184.0</ele><time>2026-03-28T17:42:27.847Z</time></trkpt><trkpt lat="45.5359667" lon="10.5136617"><ele>185.33333333333334</ele><time>2026-03-28T17:42:28.846Z</time></trkpt><trkpt lat="45.5357933" lon="10.5135883"><ele>186.66666666666666</ele><time>2026-03-28T17:42:29.847Z</time></trkpt><trkpt lat="45.5356167" lon="10.513555"><ele>188.0</ele><time>2026-03-28T17:42:30.847Z</time></trkpt><trkpt lat="45.5354617" lon="10.51354"><ele>187.33333333333331</ele><time>2026-03-28T17:42:31.847Z</time></trkpt><trkpt lat="45.5353117" lon="10.5135767"><ele>186.66666666666666</ele><time>2026-03-28T17:42:32.847Z</time></trkpt><trkpt lat="45.53518" lon="10.5136817"><ele>186.0</ele><time>2026-03-28T17:42:33.847Z</time></trkpt><trkpt lat="45.535045" lon="10.5138167"><ele>186.0</ele><time>2026-03-28T17:42:34.846Z</time></trkpt><trkpt lat="45.53493" lon="10.5139917"><ele>186.0</ele><time>2026-03-28T17:42:35.847Z</time></trkpt><trkpt lat="45.5348233" lon="10.514165"><ele>186.0</ele><time>2026-03-28T17:42:36.847Z</time></trkpt><trkpt lat="45.5347367" lon="10.514305"><ele>186.0</ele><time>2026-03-28T17:42:37.847Z</time></trkpt><trkpt lat="45.53465" lon="10.5144033"><ele>186.0</ele><time>2026-03-28T17:42:38.847Z</time></trkpt><trkpt lat="45.5345667" lon="10.51445"><ele>186.0</ele><time>2026-03-28T17:42:39.847Z</time></trkpt><trkpt lat="45.5344867" lon="10.5144667"><ele>186.0</ele><time>2026-03-28T17:42:40.847Z</time></trkpt><trkpt lat="45.534405" lon="10.5144833"><ele>186.0</ele><time>2026-03-28T17:42:41.846Z</time></trkpt><trkpt lat="45.53432" lon="10.5144683"><ele>186.0</ele><time>2026-03-28T17:42:42.847Z</time></trkpt><trkpt lat="45.5342233" lon="10.51444"><ele>187.25</ele><time>2026-03-28T17:42:43.847Z</time></trkpt><trkpt lat="45.5341133" lon="10.5143733"><ele>188.5</ele><time>2026-03-28T17:42:44.846Z</time></trkpt><trkpt lat="45.5340017" lon="10.514285"><ele>189.75</ele><time>2026-03-28T17:42:45.846Z</time></trkpt><trkpt lat="45.5338833" lon="10.51419"><ele>191.0</ele><time>2026-03-28T17:42:46.846Z</time></trkpt><trkpt lat="45.5337517" lon="10.5140933"><ele>190.0</ele><time>2026-03-28T17:42:47.846Z</time></trkpt><trkpt lat="45.5336233" lon="10.5139783"><ele>189.0</ele><time>2026-03-28T17:42:48.846Z</time></trkpt><trkpt lat="45.5334883" lon="10.5138517"><ele>188.0</ele><time>2026-03-28T17:42:49.846Z</time></trkpt><trkpt lat="45.5333583" lon="10.5137083"><ele>190.0</ele><time>2026-03-28T17:42:50.846Z</time></trkpt><trkpt lat="45.533245" lon="10.5135783"><ele>192.0</ele><time>2026-03-28T17:42:51.847Z</time></trkpt><trkpt lat="45.53315" lon="10.5134583"><ele>194.0</ele><time>2026-03-28T17:42:52.846Z</time></trkpt><trkpt lat="45.5330667" lon="10.5133467"><ele>196.0</ele><time>2026-03-28T17:42:53.847Z</time></trkpt><trkpt lat="45.5329867" lon="10.5132383"><ele>196.0</ele><time>2026-03-28T17:42:54.846Z</time></trkpt><trkpt lat="45.5329233" lon="10.5131083"><ele>196.0</ele><time>2026-03-28T17:42:55.847Z</time></trkpt><trkpt lat="45.5328667" lon="10.5129667"><ele>196.0</ele><time>2026-03-28T17:42:56.846Z</time></trkpt><trkpt lat="45.53281" lon="10.5128333"><ele>196.0</ele><time>2026-03-28T17:42:57.847Z</time></trkpt><trkpt lat="45.5327433" lon="10.5127033"><ele>196.0</ele><time>2026-03-28T17:42:58.846Z</time></trkpt><trkpt lat="45.5326633" lon="10.512575"><ele>195.5</ele><time>2026-03-28T17:42:59.847Z</time></trkpt><trkpt lat="45.5325533" lon="10.5124867"><ele>195.0</ele><time>2026-03-28T17:43:00.846Z</time></trkpt><trkpt lat="45.5324633" lon="10.5123933"><ele>194.5</ele><time>2026-03-28T17:43:01.847Z</time></trkpt><trkpt lat="45.5323733" lon="10.5122867"><ele>194.0</ele><time>2026-03-28T17:43:02.847Z</time></trkpt><trkpt lat="45.53229" lon="10.5121533"><ele>194.5</ele><time>2026-03-28T17:43:03.846Z</time></trkpt><trkpt lat="45.5322233" lon="10.511995"><ele>195.0</ele><time>2026-03-28T17:43:04.846Z</time></trkpt><trkpt lat="45.53215" lon="10.5118367"><ele>195.5</ele><time>2026-03-28T17:43:05.847Z</time></trkpt><trkpt lat="45.532055" lon="10.51167"><ele>196.0</ele><time>2026-03-28T17:43:06.847Z</time></trkpt><trkpt lat="45.5319367" lon="10.5115067"><ele>196.0</ele><time>2026-03-28T17:43:07.847Z</time></trkpt><trkpt lat="45.5318033" lon="10.5113467"><ele>196.0</ele><time>2026-03-28T17:43:08.846Z</time></trkpt><trkpt lat="45.5316533" lon="10.511225"><ele>196.0</ele><time>2026-03-28T17:43:09.846Z</time></trkpt><trkpt lat="45.5314833" lon="10.5111167"><ele>196.66666666666666</ele><time>2026-03-28T17:43:10.846Z</time></trkpt><trkpt lat="45.5312983" lon="10.5110267"><ele>197.33333333333331</ele><time>2026-03-28T17:43:11.847Z</time></trkpt><trkpt lat="45.5311233" lon="10.51093"><ele>198.0</ele><time>2026-03-28T17:43:12.846Z</time></trkpt><trkpt lat="45.5309417" lon="10.5108367"><ele>198.0</ele><time>2026-03-28T17:43:13.847Z</time></trkpt><trkpt lat="45.5307617" lon="10.5107567"><ele>198.0</ele><time>2026-03-28T17:43:14.846Z</time></trkpt><trkpt lat="45.5305783" lon="10.51069"><ele>198.0</ele><time>2026-03-28T17:43:15.846Z</time></trkpt><trkpt lat="45.5303833" lon="10.5106167"><ele>199.33333333333331</ele><time>2026-03-28T17:43:16.847Z</time></trkpt><trkpt lat="45.5301967" lon="10.5105517"><ele>200.66666666666666</ele><time>2026-03-28T17:43:17.847Z</time></trkpt><trkpt lat="45.53002" lon="10.51047"><ele>202.0</ele><time>2026-03-28T17:43:18.846Z</time></trkpt><trkpt lat="45.529845" lon="10.51039"><ele>202.33333333333331</ele><time>2026-03-28T17:43:19.846Z</time></trkpt><trkpt lat="45.529665" lon="10.5103083"><ele>202.66666666666669</ele><time>2026-03-28T17:43:20.847Z</time></trkpt><trkpt lat="45.5295083" lon="10.5102317"><ele>203.0</ele><time>2026-03-28T17:43:21.846Z</time></trkpt><trkpt lat="45.5293617" lon="10.5101517"><ele>203.0</ele><time>2026-03-28T17:43:22.846Z</time></trkpt><trkpt lat="45.5292283" lon="10.5100633"><ele>203.0</ele><time>2026-03-28T17:43:23.847Z</time></trkpt><trkpt lat="45.5291167" lon="10.5099817"><ele>203.0</ele><time>2026-03-28T17:43:24.846Z</time></trkpt><trkpt lat="45.52902" lon="10.5098967"><ele>203.0</ele><time>2026-03-28T17:43:25.847Z</time></trkpt><trkpt lat="45.52894" lon="10.509815"><ele>203.00000000000003</ele><time>2026-03-28T17:43:26.846Z</time></trkpt><trkpt lat="45.5288867" lon="10.5097183"><ele>203.0</ele><time>2026-03-28T17:43:27.847Z</time></trkpt><trkpt lat="45.528835" lon="10.509625"><ele>203.0</ele><time>2026-03-28T17:43:28.846Z</time></trkpt><trkpt lat="45.52878" lon="10.5095367"><ele>203.0</ele><time>2026-03-28T17:43:29.846Z</time></trkpt><trkpt lat="45.5287233" lon="10.509475"><ele>203.00000000000003</ele><time>2026-03-28T17:43:30.847Z</time></trkpt><trkpt lat="45.5286667" lon="10.5094133"><ele>203.0</ele><time>2026-03-28T17:43:31.847Z</time></trkpt><trkpt lat="45.5286133" lon="10.5093483"><ele>202.2</ele><time>2026-03-28T17:43:32.846Z</time></trkpt><trkpt lat="45.5285583" lon="10.50926"><ele>201.4</ele><time>2026-03-28T17:43:33.846Z</time></trkpt><trkpt lat="45.528515" lon="10.50913"><ele>200.6</ele><time>2026-03-28T17:43:34.846Z</time></trkpt><trkpt lat="45.528475" lon="10.5089783"><ele>199.79999999999998</ele><time>2026-03-28T17:43:35.846Z</time></trkpt><trkpt lat="45.528445" lon="10.50879"><ele>199.0</ele><time>2026-03-28T17:43:36.846Z</time></trkpt><trkpt lat="45.528405" lon="10.508595"><ele>198.75</ele><time>2026-03-28T17:43:37.846Z</time></trkpt><trkpt lat="45.5283717" lon="10.5083833"><ele>198.5</ele><time>2026-03-28T17:43:38.846Z</time></trkpt><trkpt lat="45.528325" lon="10.5081867"><ele>198.25</ele><time>2026-03-28T17:43:39.846Z</time></trkpt><trkpt lat="45.5282767" lon="10.5079817"><ele>198.0</ele><time>2026-03-28T17:43:40.847Z</time></trkpt><trkpt lat="45.5282467" lon="10.50776"><ele>198.66666666666669</ele><time>2026-03-28T17:43:41.847Z</time></trkpt><trkpt lat="45.5282283" lon="10.507515"><ele>199.33333333333334</ele><time>2026-03-28T17:43:42.847Z</time></trkpt><trkpt lat="45.5282133" lon="10.50726"><ele>200.0</ele><time>2026-03-28T17:43:43.846Z</time></trkpt><trkpt lat="45.5282" lon="10.5069933"><ele>201.66666666666669</ele><time>2026-03-28T17:43:44.847Z</time></trkpt><trkpt lat="45.52817" lon="10.5067183"><ele>203.33333333333331</ele><time>2026-03-28T17:43:45.846Z</time></trkpt><trkpt lat="45.5281467" lon="10.5064533"><ele>205.0</ele><time>2026-03-28T17:43:46.846Z</time></trkpt><trkpt lat="45.5281167" lon="10.5061983"><ele>205.66666666666666</ele><time>2026-03-28T17:43:47.847Z</time></trkpt><trkpt lat="45.5280683" lon="10.5059483"><ele>206.33333333333331</ele><time>2026-03-28T17:43:48.847Z</time></trkpt><trkpt lat="45.5280283" lon="10.5057233"><ele>207.0</ele><time>2026-03-28T17:43:49.847Z</time></trkpt><trkpt lat="45.52799" lon="10.5055167"><ele>207.0</ele><time>2026-03-28T17:43:50.847Z</time></trkpt><trkpt lat="45.5279683" lon="10.5053317"><ele>207.0</ele><time>2026-03-28T17:43:51.846Z</time></trkpt><trkpt lat="45.52796" lon="10.50512"><ele>207.0</ele><time>2026-03-28T17:43:52.847Z</time></trkpt><trkpt lat="45.5279683" lon="10.504885"><ele>207.0</ele><time>2026-03-28T17:43:53.846Z</time></trkpt><trkpt lat="45.5280383" lon="10.5040633"><ele>207.39999999999998</ele><time>2026-03-28T17:43:57.847Z</time></trkpt><trkpt lat="45.5280417" lon="10.5039233"><ele>207.79999999999998</ele><time>2026-03-28T17:43:58.846Z</time></trkpt><trkpt lat="45.5280267" lon="10.5038083"><ele>208.2</ele><time>2026-03-28T17:43:59.846Z</time></trkpt><trkpt lat="45.527995" lon="10.5036717"><ele>208.6</ele><time>2026-03-28T17:44:00.846Z</time></trkpt><trkpt lat="45.5279567" lon="10.50353"><ele>209.0</ele><time>2026-03-28T17:44:01.846Z</time></trkpt><trkpt lat="45.527895" lon="10.5033833"><ele>208.5</ele><time>2026-03-28T17:44:02.846Z</time></trkpt><trkpt lat="45.527825" lon="10.5032383"><ele>208.0</ele><time>2026-03-28T17:44:03.847Z</time></trkpt><trkpt lat="45.5277533" lon="10.5030967"><ele>207.5</ele><time>2026-03-28T17:44:04.846Z</time></trkpt><trkpt lat="45.5276717" lon="10.5029717"><ele>207.0</ele><time>2026-03-28T17:44:05.847Z</time></trkpt><trkpt lat="45.52758" lon="10.5028333"><ele>207.0</ele><time>2026-03-28T17:44:06.846Z</time></trkpt><trkpt lat="45.52748" lon="10.5027017"><ele>207.0</ele><time>2026-03-28T17:44:07.847Z</time></trkpt><trkpt lat="45.5273833" lon="10.5025683"><ele>207.0</ele><time>2026-03-28T17:44:08.847Z</time></trkpt><trkpt lat="45.5272767" lon="10.5024333"><ele>207.0</ele><time>2026-03-28T17:44:09.846Z</time></trkpt><trkpt lat="45.5271533" lon="10.5022883"><ele>206.33333333333331</ele><time>2026-03-28T17:44:10.847Z</time></trkpt><trkpt lat="45.52703" lon="10.5021533"><ele>205.66666666666666</ele><time>2026-03-28T17:44:11.847Z</time></trkpt><trkpt lat="45.5268967" lon="10.5020183"><ele>205.0</ele><time>2026-03-28T17:44:12.847Z</time></trkpt><trkpt lat="45.526765" lon="10.5018667"><ele>205.0</ele><time>2026-03-28T17:44:13.847Z</time></trkpt><trkpt lat="45.52665" lon="10.5017383"><ele>205.0</ele><time>2026-03-28T17:44:14.846Z</time></trkpt><trkpt lat="45.5265433" lon="10.5016117"><ele>205.0</ele><time>2026-03-28T17:44:15.847Z</time></trkpt><trkpt lat="45.5264433" lon="10.501485"><ele>205.0</ele><time>2026-03-28T17:44:16.847Z</time></trkpt><trkpt lat="45.5263583" lon="10.5013467"><ele>202.5</ele><time>2026-03-28T17:44:17.847Z</time></trkpt><trkpt lat="45.5263" lon="10.5011817"><ele>200.0</ele><time>2026-03-28T17:44:18.847Z</time></trkpt><trkpt lat="45.5262533" lon="10.5009867"><ele>197.5</ele><time>2026-03-28T17:44:19.846Z</time></trkpt><trkpt lat="45.5262033" lon="10.5007717"><ele>195.0</ele><time>2026-03-28T17:44:20.847Z</time></trkpt><trkpt lat="45.526155" lon="10.50055"><ele>196.0</ele><time>2026-03-28T17:44:21.847Z</time></trkpt><trkpt lat="45.5261117" lon="10.5002917"><ele>197.0</ele><time>2026-03-28T17:44:22.846Z</time></trkpt><trkpt lat="45.5260567" lon="10.5000267"><ele>198.0</ele><time>2026-03-28T17:44:23.847Z</time></trkpt><trkpt lat="45.52599" lon="10.4997617"><ele>199.0</ele><time>2026-03-28T17:44:24.847Z</time></trkpt><trkpt lat="45.5259283" lon="10.4995267"><ele>200.0</ele><time>2026-03-28T17:44:25.846Z</time></trkpt><trkpt lat="45.52586" lon="10.4993067"><ele>201.0</ele><time>2026-03-28T17:44:26.846Z</time></trkpt><trkpt lat="45.525795" lon="10.4991183"><ele>201.0</ele><time>2026-03-28T17:44:27.846Z</time></trkpt><trkpt lat="45.5257067" lon="10.4989633"><ele>201.0</ele><time>2026-03-28T17:44:28.847Z</time></trkpt><trkpt lat="45.5256167" lon="10.49885"><ele>201.0</ele><time>2026-03-28T17:44:29.847Z</time></trkpt><trkpt lat="45.5255133" lon="10.498755"><ele>201.0</ele><time>2026-03-28T17:44:30.847Z</time></trkpt><trkpt lat="45.5253917" lon="10.4986667"><ele>199.0</ele><time>2026-03-28T17:44:31.847Z</time></trkpt><trkpt lat="45.5252633" lon="10.4985733"><ele>197.0</ele><time>2026-03-28T17:44:32.847Z</time></trkpt><trkpt lat="45.5251317" lon="10.4984717"><ele>195.0</ele><time>2026-03-28T17:44:33.847Z</time></trkpt><trkpt lat="45.5249883" lon="10.4983667"><ele>195.0</ele><time>2026-03-28T17:44:34.846Z</time></trkpt><trkpt lat="45.5248417" lon="10.498265"><ele>195.0</ele><time>2026-03-28T17:44:35.846Z</time></trkpt><trkpt lat="45.5246933" lon="10.49817"><ele>195.0</ele><time>2026-03-28T17:44:36.846Z</time></trkpt><trkpt lat="45.524535" lon="10.498065"><ele>194.0</ele><time>2026-03-28T17:44:37.847Z</time></trkpt><trkpt lat="45.52438" lon="10.4979417"><ele>193.0</ele><time>2026-03-28T17:44:38.847Z</time></trkpt><trkpt lat="45.5242267" lon="10.4978317"><ele>192.0</ele><time>2026-03-28T17:44:39.846Z</time></trkpt><trkpt lat="45.5240817" lon="10.4976917"><ele>194.66666666666669</ele><time>2026-03-28T17:44:40.846Z</time></trkpt><trkpt lat="45.523955" lon="10.4974983"><ele>197.33333333333334</ele><time>2026-03-28T17:44:41.846Z</time></trkpt><trkpt lat="45.523845" lon="10.49726"><ele>200.0</ele><time>2026-03-28T17:44:42.847Z</time></trkpt><trkpt lat="45.523735" lon="10.4970117"><ele>199.66666666666669</ele><time>2026-03-28T17:44:43.847Z</time></trkpt><trkpt lat="45.5236417" lon="10.496745"><ele>199.33333333333331</ele><time>2026-03-28T17:44:44.846Z</time></trkpt><trkpt lat="45.5235483" lon="10.4964817"><ele>199.0</ele><time>2026-03-28T17:44:45.846Z</time></trkpt><trkpt lat="45.52345" lon="10.4962217"><ele>203.0</ele><time>2026-03-28T17:44:46.847Z</time></trkpt><trkpt lat="45.5233283" lon="10.49597"><ele>207.0</ele><time>2026-03-28T17:44:47.846Z</time></trkpt><trkpt lat="45.5231817" lon="10.495755"><ele>211.0</ele><time>2026-03-28T17:44:48.846Z</time></trkpt><trkpt lat="45.5230433" lon="10.495545"><ele>211.33333333333331</ele><time>2026-03-28T17:44:49.847Z</time></trkpt><trkpt lat="45.522905" lon="10.4953583"><ele>211.66666666666669</ele><time>2026-03-28T17:44:50.846Z</time></trkpt><trkpt lat="45.5227933" lon="10.4951733"><ele>212.0</ele><time>2026-03-28T17:44:51.846Z</time></trkpt><trkpt lat="45.522675" lon="10.495015"><ele>212.0</ele><time>2026-03-28T17:44:52.847Z</time></trkpt><trkpt lat="45.5225767" lon="10.4948433"><ele>212.0</ele><time>2026-03-28T17:44:53.846Z</time></trkpt><trkpt lat="45.5225017" lon="10.4946317"><ele>212.0</ele><time>2026-03-28T17:44:54.846Z</time></trkpt><trkpt lat="45.5224433" lon="10.4944067"><ele>214.66666666666669</ele><time>2026-03-28T17:44:55.847Z</time></trkpt><trkpt lat="45.5224017" lon="10.4941567"><ele>217.33333333333331</ele><time>2026-03-28T17:44:56.847Z</time></trkpt><trkpt lat="45.52234" lon="10.4939033"><ele>220.0</ele><time>2026-03-28T17:44:57.846Z</time></trkpt><trkpt lat="45.52229" lon="10.4936433"><ele>221.0</ele><time>2026-03-28T17:44:58.846Z</time></trkpt><trkpt lat="45.5222317" lon="10.4933683"><ele>222.0</ele><time>2026-03-28T17:44:59.846Z</time></trkpt><trkpt lat="45.5221667" lon="10.4931167"><ele>223.0</ele><time>2026-03-28T17:45:00.847Z</time></trkpt><trkpt lat="45.5221133" lon="10.4928333"><ele>220.33333333333331</ele><time>2026-03-28T17:45:01.847Z</time></trkpt><trkpt lat="45.5220533" lon="10.4925683"><ele>217.66666666666669</ele><time>2026-03-28T17:45:02.847Z</time></trkpt><trkpt lat="45.52198" lon="10.49229"><ele>215.0</ele><time>2026-03-28T17:45:03.847Z</time></trkpt><trkpt lat="45.521915" lon="10.492015"><ele>215.0</ele><time>2026-03-28T17:45:04.846Z</time></trkpt><trkpt lat="45.5218317" lon="10.4917417"><ele>215.0</ele><time>2026-03-28T17:45:05.847Z</time></trkpt><trkpt lat="45.521735" lon="10.4914533"><ele>215.0</ele><time>2026-03-28T17:45:06.846Z</time></trkpt><trkpt lat="45.5216267" lon="10.4911533"><ele>215.0</ele><time>2026-03-28T17:45:07.846Z</time></trkpt><trkpt lat="45.5215133" lon="10.4908633"><ele>215.0</ele><time>2026-03-28T17:45:08.846Z</time></trkpt><trkpt lat="45.52139" lon="10.4905783"><ele>215.66666666666669</ele><time>2026-03-28T17:45:09.846Z</time></trkpt><trkpt lat="45.5212783" lon="10.4903017"><ele>216.33333333333331</ele><time>2026-03-28T17:45:10.846Z</time></trkpt><trkpt lat="45.5211783" lon="10.490025"><ele>217.0</ele><time>2026-03-28T17:45:11.847Z</time></trkpt><trkpt lat="45.52108" lon="10.4897633"><ele>218.0</ele><time>2026-03-28T17:45:12.847Z</time></trkpt><trkpt lat="45.520985" lon="10.489525"><ele>219.0</ele><time>2026-03-28T17:45:13.846Z</time></trkpt><trkpt lat="45.5209217" lon="10.48932"><ele>220.0</ele><time>2026-03-28T17:45:14.846Z</time></trkpt><trkpt lat="45.5208983" lon="10.48912"><ele>220.0</ele><time>2026-03-28T17:45:15.846Z</time></trkpt><trkpt lat="45.5208983" lon="10.4889133"><ele>220.0</ele><time>2026-03-28T17:45:16.847Z</time></trkpt><trkpt lat="45.5209367" lon="10.4887017"><ele>220.0</ele><time>2026-03-28T17:45:17.846Z</time></trkpt><trkpt lat="45.5210083" lon="10.4884833"><ele>220.33333333333331</ele><time>2026-03-28T17:45:18.847Z</time></trkpt><trkpt lat="45.52108" lon="10.4882617"><ele>220.66666666666669</ele><time>2026-03-28T17:45:19.847Z</time></trkpt><trkpt lat="45.52115" lon="10.48802"><ele>221.0</ele><time>2026-03-28T17:45:20.847Z</time></trkpt><trkpt lat="45.5212317" lon="10.4877717"><ele>222.0</ele><time>2026-03-28T17:45:21.847Z</time></trkpt><trkpt lat="45.5213017" lon="10.4875083"><ele>223.0</ele><time>2026-03-28T17:45:22.846Z</time></trkpt><trkpt lat="45.5213833" lon="10.48723"><ele>224.0</ele><time>2026-03-28T17:45:23.846Z</time></trkpt><trkpt lat="45.521455" lon="10.4869667"><ele>225.33333333333334</ele><time>2026-03-28T17:45:24.847Z</time></trkpt><trkpt lat="45.521525" lon="10.4867017"><ele>226.66666666666669</ele><time>2026-03-28T17:45:25.846Z</time></trkpt><trkpt lat="45.5215467" lon="10.48641"><ele>228.0</ele><time>2026-03-28T17:45:26.846Z</time></trkpt><trkpt lat="45.5215517" lon="10.4861333"><ele>229.66666666666669</ele><time>2026-03-28T17:45:27.847Z</time></trkpt><trkpt lat="45.5215333" lon="10.4858433"><ele>231.33333333333334</ele><time>2026-03-28T17:45:28.847Z</time></trkpt><trkpt lat="45.521495" lon="10.4855817"><ele>233.0</ele><time>2026-03-28T17:45:29.846Z</time></trkpt><trkpt lat="45.5214517" lon="10.4853267"><ele>232.33333333333334</ele><time>2026-03-28T17:45:30.846Z</time></trkpt><trkpt lat="45.52139" lon="10.48509"><ele>231.66666666666669</ele><time>2026-03-28T17:45:31.846Z</time></trkpt><trkpt lat="45.5212833" lon="10.4848767"><ele>231.0</ele><time>2026-03-28T17:45:32.846Z</time></trkpt><trkpt lat="45.5211567" lon="10.484695"><ele>234.66666666666669</ele><time>2026-03-28T17:45:33.847Z</time></trkpt><trkpt lat="45.5210233" lon="10.484505"><ele>238.33333333333334</ele><time>2026-03-28T17:45:34.846Z</time></trkpt><trkpt lat="45.5208683" lon="10.4843417"><ele>242.0</ele><time>2026-03-28T17:45:35.846Z</time></trkpt><trkpt lat="45.5207167" lon="10.484165"><ele>242.0</ele><time>2026-03-28T17:45:36.846Z</time></trkpt><trkpt lat="45.5205633" lon="10.4839717"><ele>242.0</ele><time>2026-03-28T17:45:37.846Z</time></trkpt><trkpt lat="45.520415" lon="10.483795"><ele>242.0</ele><time>2026-03-28T17:45:38.846Z</time></trkpt><trkpt lat="45.5202767" lon="10.4836217"><ele>241.33333333333334</ele><time>2026-03-28T17:45:39.847Z</time></trkpt><trkpt lat="45.520135" lon="10.4834333"><ele>240.66666666666669</ele><time>2026-03-28T17:45:40.846Z</time></trkpt><trkpt lat="45.519995" lon="10.4832067"><ele>240.0</ele><time>2026-03-28T17:45:41.847Z</time></trkpt><trkpt lat="45.5198667" lon="10.4829833"><ele>240.0</ele><time>2026-03-28T17:45:42.847Z</time></trkpt><trkpt lat="45.5197383" lon="10.4827317"><ele>240.0</ele><time>2026-03-28T17:45:43.846Z</time></trkpt><trkpt lat="45.519605" lon="10.48249"><ele>240.0</ele><time>2026-03-28T17:45:44.846Z</time></trkpt><trkpt lat="45.519475" lon="10.4822483"><ele>240.33333333333331</ele><time>2026-03-28T17:45:45.847Z</time></trkpt><trkpt lat="45.5193483" lon="10.4820133"><ele>240.66666666666666</ele><time>2026-03-28T17:45:46.847Z</time></trkpt><trkpt lat="45.5192417" lon="10.4817933"><ele>241.0</ele><time>2026-03-28T17:45:47.846Z</time></trkpt><trkpt lat="45.5191583" lon="10.4815833"><ele>241.0</ele><time>2026-03-28T17:45:48.846Z</time></trkpt><trkpt lat="45.5191183" lon="10.4813833"><ele>241.0</ele><time>2026-03-28T17:45:49.846Z</time></trkpt><trkpt lat="45.51912" lon="10.48117"><ele>241.0</ele><time>2026-03-28T17:45:50.847Z</time></trkpt><trkpt lat="45.519135" lon="10.4809333"><ele>243.33333333333331</ele><time>2026-03-28T17:45:51.846Z</time></trkpt><trkpt lat="45.51916" lon="10.480715"><ele>245.66666666666669</ele><time>2026-03-28T17:45:52.847Z</time></trkpt><trkpt lat="45.5191867" lon="10.4805017"><ele>248.0</ele><time>2026-03-28T17:45:53.847Z</time></trkpt><trkpt lat="45.5192267" lon="10.4802917"><ele>249.0</ele><time>2026-03-28T17:45:54.846Z</time></trkpt><trkpt lat="45.5192917" lon="10.480105"><ele>250.0</ele><time>2026-03-28T17:45:55.846Z</time></trkpt><trkpt lat="45.5193883" lon="10.4799283"><ele>251.0</ele><time>2026-03-28T17:45:56.846Z</time></trkpt><trkpt lat="45.5194917" lon="10.4797417"><ele>252.33333333333334</ele><time>2026-03-28T17:45:57.846Z</time></trkpt><trkpt lat="45.5196033" lon="10.479565"><ele>253.66666666666669</ele><time>2026-03-28T17:45:58.846Z</time></trkpt><trkpt lat="45.519715" lon="10.4793833"><ele>255.0</ele><time>2026-03-28T17:45:59.847Z</time></trkpt><trkpt lat="45.5197983" lon="10.479215"><ele>255.0</ele><time>2026-03-28T17:46:00.846Z</time></trkpt><trkpt lat="45.5198467" lon="10.4790483"><ele>255.0</ele><time>2026-03-28T17:46:01.846Z</time></trkpt><trkpt lat="45.5198583" lon="10.4788767"><ele>255.0</ele><time>2026-03-28T17:46:02.847Z</time></trkpt><trkpt lat="45.5198417" lon="10.4787183"><ele>255.0</ele><time>2026-03-28T17:46:03.846Z</time></trkpt><trkpt lat="45.51981" lon="10.4785283"><ele>253.33333333333331</ele><time>2026-03-28T17:46:04.846Z</time></trkpt><trkpt lat="45.5197817" lon="10.4783233"><ele>251.66666666666666</ele><time>2026-03-28T17:46:05.847Z</time></trkpt><trkpt lat="45.519755" lon="10.4781"><ele>250.0</ele><time>2026-03-28T17:46:06.846Z</time></trkpt><trkpt lat="45.5197367" lon="10.4778617"><ele>248.33333333333331</ele><time>2026-03-28T17:46:07.847Z</time></trkpt><trkpt lat="45.519735" lon="10.4776033"><ele>246.66666666666669</ele><time>2026-03-28T17:46:08.847Z</time></trkpt><trkpt lat="45.51976" lon="10.477345"><ele>245.0</ele><time>2026-03-28T17:46:09.847Z</time></trkpt><trkpt lat="45.5198017" lon="10.4770783"><ele>243.0</ele><time>2026-03-28T17:46:10.846Z</time></trkpt><trkpt lat="45.519845" lon="10.47679"><ele>241.0</ele><time>2026-03-28T17:46:11.846Z</time></trkpt><trkpt lat="45.5198883" lon="10.4764717"><ele>239.0</ele><time>2026-03-28T17:46:12.847Z</time></trkpt><trkpt lat="45.5199333" lon="10.4761417"><ele>239.0</ele><time>2026-03-28T17:46:13.847Z</time></trkpt><trkpt lat="45.5199833" lon="10.47581"><ele>239.0</ele><time>2026-03-28T17:46:14.847Z</time></trkpt><trkpt lat="45.5200267" lon="10.475465"><ele>239.0</ele><time>2026-03-28T17:46:15.846Z</time></trkpt><trkpt lat="45.5200733" lon="10.4751433"><ele>239.0</ele><time>2026-03-28T17:46:16.847Z</time></trkpt><trkpt lat="45.5201167" lon="10.4748267"><ele>239.33333333333334</ele><time>2026-03-28T17:46:17.846Z</time></trkpt><trkpt lat="45.520155" lon="10.4745367"><ele>239.66666666666669</ele><time>2026-03-28T17:46:18.847Z</time></trkpt><trkpt lat="45.520195" lon="10.47426"><ele>240.0</ele><time>2026-03-28T17:46:19.847Z</time></trkpt><trkpt lat="45.52025" lon="10.4740067"><ele>238.66666666666669</ele><time>2026-03-28T17:46:20.846Z</time></trkpt><trkpt lat="45.5203133" lon="10.4737267"><ele>237.33333333333334</ele><time>2026-03-28T17:46:21.846Z</time></trkpt><trkpt lat="45.52039" lon="10.4734467"><ele>236.0</ele><time>2026-03-28T17:46:22.846Z</time></trkpt><trkpt lat="45.52047" lon="10.473155"><ele>232.66666666666669</ele><time>2026-03-28T17:46:23.847Z</time></trkpt><trkpt lat="45.520555" lon="10.4728783"><ele>229.33333333333331</ele><time>2026-03-28T17:46:24.847Z</time></trkpt><trkpt lat="45.5206283" lon="10.4726267"><ele>226.0</ele><time>2026-03-28T17:46:25.846Z</time></trkpt><trkpt lat="45.520655" lon="10.4723933"><ele>226.0</ele><time>2026-03-28T17:46:26.846Z</time></trkpt><trkpt lat="45.5206667" lon="10.4721767"><ele>226.0</ele><time>2026-03-28T17:46:27.847Z</time></trkpt><trkpt lat="45.520665" lon="10.471955"><ele>226.0</ele><time>2026-03-28T17:46:28.847Z</time></trkpt><trkpt lat="45.5206533" lon="10.4717067"><ele>224.0</ele><time>2026-03-28T17:46:29.846Z</time></trkpt><trkpt lat="45.5206667" lon="10.4714517"><ele>222.0</ele><time>2026-03-28T17:46:30.846Z</time></trkpt><trkpt lat="45.5206783" lon="10.4712"><ele>220.0</ele><time>2026-03-28T17:46:31.846Z</time></trkpt><trkpt lat="45.520725" lon="10.4709783"><ele>219.0</ele><time>2026-03-28T17:46:32.847Z</time></trkpt><trkpt lat="45.5207917" lon="10.4707867"><ele>218.0</ele><time>2026-03-28T17:46:33.847Z</time></trkpt><trkpt lat="45.5208617" lon="10.470585"><ele>217.0</ele><time>2026-03-28T17:46:34.846Z</time></trkpt><trkpt lat="45.5209283" lon="10.4704017"><ele>216.39999999999998</ele><time>2026-03-28T17:46:35.846Z</time></trkpt><trkpt lat="45.520985" lon="10.47027"><ele>215.79999999999998</ele><time>2026-03-28T17:46:36.846Z</time></trkpt><trkpt lat="45.5210433" lon="10.4701617"><ele>215.2</ele><time>2026-03-28T17:46:37.846Z</time></trkpt><trkpt lat="45.5210983" lon="10.4700517"><ele>214.6</ele><time>2026-03-28T17:46:38.847Z</time></trkpt><trkpt lat="45.5211633" lon="10.4699433"><ele>214.0</ele><time>2026-03-28T17:46:39.846Z</time></trkpt><trkpt lat="45.52119" lon="10.4698333"><ele>214.0</ele><time>2026-03-28T17:46:40.846Z</time></trkpt><trkpt lat="45.52117" lon="10.4696883"><ele>214.0</ele><time>2026-03-28T17:46:41.846Z</time></trkpt><trkpt lat="45.5211433" lon="10.4695333"><ele>214.0</ele><time>2026-03-28T17:46:42.847Z</time></trkpt><trkpt lat="45.5211283" lon="10.46936"><ele>214.0</ele><time>2026-03-28T17:46:43.846Z</time></trkpt><trkpt lat="45.52113" lon="10.4691533"><ele>213.66666666666666</ele><time>2026-03-28T17:46:44.846Z</time></trkpt><trkpt lat="45.52116" lon="10.4689217"><ele>213.33333333333331</ele><time>2026-03-28T17:46:45.847Z</time></trkpt><trkpt lat="45.5211867" lon="10.468675"><ele>213.0</ele><time>2026-03-28T17:46:46.846Z</time></trkpt><trkpt lat="45.5212217" lon="10.468425"><ele>212.0</ele><time>2026-03-28T17:46:47.846Z</time></trkpt><trkpt lat="45.5212467" lon="10.4681333"><ele>211.0</ele><time>2026-03-28T17:46:48.847Z</time></trkpt><trkpt lat="45.5212883" lon="10.46785"><ele>210.0</ele><time>2026-03-28T17:46:49.846Z</time></trkpt><trkpt lat="45.5213417" lon="10.4675683"><ele>209.66666666666669</ele><time>2026-03-28T17:46:50.846Z</time></trkpt><trkpt lat="45.5213967" lon="10.467275"><ele>209.33333333333334</ele><time>2026-03-28T17:46:51.847Z</time></trkpt><trkpt lat="45.5214683" lon="10.4669833"><ele>209.0</ele><time>2026-03-28T17:46:52.846Z</time></trkpt><trkpt lat="45.521545" lon="10.46668"><ele>208.33333333333334</ele><time>2026-03-28T17:46:53.846Z</time></trkpt><trkpt lat="45.5216233" lon="10.4663867"><ele>207.66666666666669</ele><time>2026-03-28T17:46:54.846Z</time></trkpt><trkpt lat="45.521695" lon="10.4660833"><ele>207.0</ele><time>2026-03-28T17:46:55.847Z</time></trkpt><trkpt lat="45.5217533" lon="10.46577"><ele>207.0</ele><time>2026-03-28T17:46:56.847Z</time></trkpt><trkpt lat="45.5218133" lon="10.4654817"><ele>207.0</ele><time>2026-03-28T17:46:57.846Z</time></trkpt><trkpt lat="45.521865" lon="10.4651983"><ele>207.0</ele><time>2026-03-28T17:46:58.847Z</time></trkpt><trkpt lat="45.5219133" lon="10.4649267"><ele>206.33333333333331</ele><time>2026-03-28T17:46:59.847Z</time></trkpt><trkpt lat="45.5219567" lon="10.4646567"><ele>205.66666666666666</ele><time>2026-03-28T17:47:00.847Z</time></trkpt><trkpt lat="45.5220083" lon="10.46442"><ele>205.0</ele><time>2026-03-28T17:47:01.846Z</time></trkpt><trkpt lat="45.5220533" lon="10.464195"><ele>205.33333333333331</ele><time>2026-03-28T17:47:02.846Z</time></trkpt><trkpt lat="45.5220983" lon="10.4639783"><ele>205.66666666666669</ele><time>2026-03-28T17:47:03.846Z</time></trkpt><trkpt lat="45.52215" lon="10.4637683"><ele>206.0</ele><time>2026-03-28T17:47:04.847Z</time></trkpt><trkpt lat="45.5222" lon="10.46357"><ele>206.0</ele><time>2026-03-28T17:47:05.846Z</time></trkpt><trkpt lat="45.522235" lon="10.4634217"><ele>206.0</ele><time>2026-03-28T17:47:06.846Z</time></trkpt><trkpt lat="45.5222617" lon="10.46333"><ele>206.0</ele><time>2026-03-28T17:47:07.846Z</time></trkpt><trkpt lat="45.5223133" lon="10.4632283"><ele>206.0</ele><time>2026-03-28T17:47:09.846Z</time></trkpt><trkpt lat="45.5222817" lon="10.4631133"><ele>206.0</ele><time>2026-03-28T17:47:13.846Z</time></trkpt><trkpt lat="45.5221667" lon="10.4630917"><ele>206.0</ele><time>2026-03-28T17:47:15.846Z</time></trkpt><trkpt lat="45.5221067" lon="10.4630483"><ele>206.0</ele><time>2026-03-28T17:47:16.846Z</time></trkpt><trkpt lat="45.5220483" lon="10.462975"><ele>206.0</ele><time>2026-03-28T17:47:17.847Z</time></trkpt><trkpt lat="45.52198" lon="10.46288"><ele>206.0</ele><time>2026-03-28T17:47:18.847Z</time></trkpt><trkpt lat="45.5218933" lon="10.462765"><ele>206.0</ele><time>2026-03-28T17:47:19.846Z</time></trkpt><trkpt lat="45.5217967" lon="10.4626267"><ele>205.33333333333334</ele><time>2026-03-28T17:47:20.846Z</time></trkpt><trkpt lat="45.5216833" lon="10.4624817"><ele>204.66666666666669</ele><time>2026-03-28T17:47:21.847Z</time></trkpt><trkpt lat="45.521555" lon="10.4623267"><ele>204.0</ele><time>2026-03-28T17:47:22.847Z</time></trkpt><trkpt lat="45.5214183" lon="10.462155"><ele>203.33333333333331</ele><time>2026-03-28T17:47:23.846Z</time></trkpt><trkpt lat="45.5212767" lon="10.4619933"><ele>202.66666666666666</ele><time>2026-03-28T17:47:24.846Z</time></trkpt><trkpt lat="45.521145" lon="10.46183"><ele>202.0</ele><time>2026-03-28T17:47:25.846Z</time></trkpt><trkpt lat="45.5210267" lon="10.4616767"><ele>202.0</ele><time>2026-03-28T17:47:26.846Z</time></trkpt><trkpt lat="45.5209267" lon="10.4615367"><ele>202.0</ele><time>2026-03-28T17:47:27.846Z</time></trkpt><trkpt lat="45.5208433" lon="10.4614083"><ele>202.0</ele><time>2026-03-28T17:47:28.846Z</time></trkpt><trkpt lat="45.520765" lon="10.4612933"><ele>202.0</ele><time>2026-03-28T17:47:29.846Z</time></trkpt><trkpt lat="45.5207067" lon="10.4611867"><ele>201.99999999999997</ele><time>2026-03-28T17:47:30.847Z</time></trkpt><trkpt lat="45.5206667" lon="10.4611083"><ele>202.0</ele><time>2026-03-28T17:47:31.847Z</time></trkpt><trkpt lat="45.52063" lon="10.4610017"><ele>202.0</ele><time>2026-03-28T17:47:33.846Z</time></trkpt><trkpt lat="45.5206783" lon="10.4608883"><ele>202.0</ele><time>2026-03-28T17:47:55.846Z</time></trkpt><trkpt lat="45.5207433" lon="10.4608333"><ele>201.99999999999997</ele><time>2026-03-28T17:47:56.846Z</time></trkpt><trkpt lat="45.520835" lon="10.460785"><ele>202.0</ele><time>2026-03-28T17:47:57.847Z</time></trkpt><trkpt lat="45.5209433" lon="10.46074"><ele>202.0</ele><time>2026-03-28T17:47:58.847Z</time></trkpt><trkpt lat="45.521075" lon="10.460675"><ele>202.0</ele><time>2026-03-28T17:47:59.846Z</time></trkpt><trkpt lat="45.5212167" lon="10.460605"><ele>202.0</ele><time>2026-03-28T17:48:00.846Z</time></trkpt><trkpt lat="45.52136" lon="10.46053"><ele>202.0</ele><time>2026-03-28T17:48:01.847Z</time></trkpt><trkpt lat="45.5214933" lon="10.4604567"><ele>201.8</ele><time>2026-03-28T17:48:02.847Z</time></trkpt><trkpt lat="45.5216167" lon="10.46039"><ele>201.6</ele><time>2026-03-28T17:48:03.846Z</time></trkpt><trkpt lat="45.5217233" lon="10.460345"><ele>201.4</ele><time>2026-03-28T17:48:04.847Z</time></trkpt><trkpt lat="45.521815" lon="10.4603067"><ele>201.20000000000002</ele><time>2026-03-28T17:48:05.847Z</time></trkpt><trkpt lat="45.5218917" lon="10.4602683"><ele>201.0</ele><time>2026-03-28T17:48:06.847Z</time></trkpt><trkpt lat="45.52195" lon="10.4602333"><ele>201.0</ele><time>2026-03-28T17:48:07.846Z</time></trkpt><trkpt lat="45.5219983" lon="10.4600933"><ele>201.0</ele><time>2026-03-28T17:48:09.847Z</time></trkpt><trkpt lat="45.5219517" lon="10.4599567"><ele>201.0</ele><time>2026-03-28T17:48:11.846Z</time></trkpt><trkpt lat="45.5218633" lon="10.459875"><ele>201.0</ele><time>2026-03-28T17:48:13.847Z</time></trkpt><trkpt lat="45.5217383" lon="10.4598083"><ele>201.0</ele><time>2026-03-28T17:48:15.847Z</time></trkpt><trkpt lat="45.52166" lon="10.45976"><ele>201.0</ele><time>2026-03-28T17:48:16.847Z</time></trkpt><trkpt lat="45.5215633" lon="10.4596983"><ele>201.0</ele><time>2026-03-28T17:48:17.846Z</time></trkpt><trkpt lat="45.5214517" lon="10.4596317"><ele>201.0</ele><time>2026-03-28T17:48:18.847Z</time></trkpt><trkpt lat="45.521325" lon="10.4595483"><ele>200.33333333333331</ele><time>2026-03-28T17:48:19.846Z</time></trkpt><trkpt lat="45.521175" lon="10.4594533"><ele>199.66666666666666</ele><time>2026-03-28T17:48:20.846Z</time></trkpt><trkpt lat="45.5210317" lon="10.4593667"><ele>199.0</ele><time>2026-03-28T17:48:21.847Z</time></trkpt><trkpt lat="45.5209033" lon="10.4592867"><ele>199.0</ele><time>2026-03-28T17:48:22.847Z</time></trkpt><trkpt lat="45.5207867" lon="10.4592083"><ele>199.0</ele><time>2026-03-28T17:48:23.847Z</time></trkpt><trkpt lat="45.52066" lon="10.45911"><ele>199.0</ele><time>2026-03-28T17:48:24.847Z</time></trkpt><trkpt lat="45.520545" lon="10.459015"><ele>199.0</ele><time>2026-03-28T17:48:25.847Z</time></trkpt><trkpt lat="45.520435" lon="10.4589167"><ele>198.75</ele><time>2026-03-28T17:48:26.847Z</time></trkpt><trkpt lat="45.520315" lon="10.45882"><ele>198.5</ele><time>2026-03-28T17:48:27.847Z</time></trkpt><trkpt lat="45.5201983" lon="10.4587117"><ele>198.25</ele><time>2026-03-28T17:48:28.846Z</time></trkpt><trkpt lat="45.52007" lon="10.4586033"><ele>198.0</ele><time>2026-03-28T17:48:29.846Z</time></trkpt><trkpt lat="45.5199433" lon="10.4585167"><ele>197.5</ele><time>2026-03-28T17:48:30.847Z</time></trkpt><trkpt lat="45.5198167" lon="10.458445"><ele>197.0</ele><time>2026-03-28T17:48:31.846Z</time></trkpt><trkpt lat="45.5196883" lon="10.4583817"><ele>196.5</ele><time>2026-03-28T17:48:32.847Z</time></trkpt><trkpt lat="45.5195717" lon="10.4583383"><ele>196.0</ele><time>2026-03-28T17:48:33.846Z</time></trkpt><trkpt lat="45.519465" lon="10.4583133"><ele>195.5</ele><time>2026-03-28T17:48:34.847Z</time></trkpt><trkpt lat="45.5193483" lon="10.4582983"><ele>195.0</ele><time>2026-03-28T17:48:35.847Z</time></trkpt><trkpt lat="45.51922" lon="10.4582767"><ele>194.5</ele><time>2026-03-28T17:48:36.847Z</time></trkpt><trkpt lat="45.5190933" lon="10.4582433"><ele>194.0</ele><time>2026-03-28T17:48:37.846Z</time></trkpt><trkpt lat="45.5189867" lon="10.45821"><ele>194.0</ele><time>2026-03-28T17:48:38.846Z</time></trkpt><trkpt lat="45.5188717" lon="10.4581683"><ele>194.0</ele><time>2026-03-28T17:48:39.847Z</time></trkpt><trkpt lat="45.518765" lon="10.4581183"><ele>194.0</ele><time>2026-03-28T17:48:40.846Z</time></trkpt><trkpt lat="45.5186417" lon="10.4580617"><ele>194.0</ele><time>2026-03-28T17:48:41.847Z</time></trkpt><trkpt lat="45.518535" lon="10.4580133"><ele>194.25</ele><time>2026-03-28T17:48:42.846Z</time></trkpt><trkpt lat="45.5184167" lon="10.45797"><ele>194.5</ele><time>2026-03-28T17:48:43.847Z</time></trkpt><trkpt lat="45.5182933" lon="10.4579217"><ele>194.75</ele><time>2026-03-28T17:48:44.846Z</time></trkpt><trkpt lat="45.518175" lon="10.4578783"><ele>195.0</ele><time>2026-03-28T17:48:45.846Z</time></trkpt><trkpt lat="45.518055" lon="10.4578433"><ele>194.5</ele><time>2026-03-28T17:48:46.846Z</time></trkpt><trkpt lat="45.5179283" lon="10.4578067"><ele>194.0</ele><time>2026-03-28T17:48:47.847Z</time></trkpt><trkpt lat="45.5177967" lon="10.457755"><ele>193.5</ele><time>2026-03-28T17:48:48.846Z</time></trkpt><trkpt lat="45.517665" lon="10.4577167"><ele>193.0</ele><time>2026-03-28T17:48:49.846Z</time></trkpt><trkpt lat="45.5175333" lon="10.45769"><ele>192.5</ele><time>2026-03-28T17:48:50.847Z</time></trkpt><trkpt lat="45.5174083" lon="10.4576433"><ele>192.0</ele><time>2026-03-28T17:48:51.846Z</time></trkpt><trkpt lat="45.5172717" lon="10.4575767"><ele>191.5</ele><time>2026-03-28T17:48:52.847Z</time></trkpt><trkpt lat="45.51714" lon="10.4575067"><ele>191.0</ele><time>2026-03-28T17:48:53.846Z</time></trkpt><trkpt lat="45.517015" lon="10.457455"><ele>191.0</ele><time>2026-03-28T17:48:54.847Z</time></trkpt><trkpt lat="45.51689" lon="10.4573917"><ele>191.0</ele><time>2026-03-28T17:48:55.846Z</time></trkpt><trkpt lat="45.5167767" lon="10.4573383"><ele>191.0</ele><time>2026-03-28T17:48:56.846Z</time></trkpt><trkpt lat="45.516665" lon="10.4572883"><ele>191.0</ele><time>2026-03-28T17:48:57.847Z</time></trkpt><trkpt lat="45.5165617" lon="10.4572567"><ele>191.0</ele><time>2026-03-28T17:48:58.847Z</time></trkpt><trkpt lat="45.5164717" lon="10.45722"><ele>191.0</ele><time>2026-03-28T17:48:59.847Z</time></trkpt><trkpt lat="45.516385" lon="10.45718"><ele>191.0</ele><time>2026-03-28T17:49:00.846Z</time></trkpt><trkpt lat="45.5162933" lon="10.4571283"><ele>191.0</ele><time>2026-03-28T17:49:01.847Z</time></trkpt><trkpt lat="45.5161967" lon="10.4570633"><ele>191.0</ele><time>2026-03-28T17:49:02.846Z</time></trkpt><trkpt lat="45.51611" lon="10.4569983"><ele>190.5</ele><time>2026-03-28T17:49:03.846Z</time></trkpt><trkpt lat="45.5160133" lon="10.456925"><ele>190.0</ele><time>2026-03-28T17:49:04.846Z</time></trkpt><trkpt lat="45.5159133" lon="10.45684"><ele>189.5</ele><time>2026-03-28T17:49:05.846Z</time></trkpt><trkpt lat="45.5158233" lon="10.4567533"><ele>189.0</ele><time>2026-03-28T17:49:06.847Z</time></trkpt><trkpt lat="45.515725" lon="10.4566633"><ele>189.0</ele><time>2026-03-28T17:49:07.847Z</time></trkpt><trkpt lat="45.5156333" lon="10.4565833"><ele>189.0</ele><time>2026-03-28T17:49:08.846Z</time></trkpt><trkpt lat="45.51555" lon="10.4565117"><ele>189.0</ele><time>2026-03-28T17:49:09.846Z</time></trkpt><trkpt lat="45.515465" lon="10.4564467"><ele>189.0</ele><time>2026-03-28T17:49:10.846Z</time></trkpt><trkpt lat="45.51538" lon="10.4564083"><ele>189.0</ele><time>2026-03-28T17:49:11.847Z</time></trkpt><trkpt lat="45.5152917" lon="10.456375"><ele>188.79999999999998</ele><time>2026-03-28T17:49:12.846Z</time></trkpt><trkpt lat="45.5152033" lon="10.4563383"><ele>188.6</ele><time>2026-03-28T17:49:13.847Z</time></trkpt><trkpt lat="45.5150983" lon="10.45631"><ele>188.4</ele><time>2026-03-28T17:49:14.847Z</time></trkpt><trkpt lat="45.5149967" lon="10.456285"><ele>188.2</ele><time>2026-03-28T17:49:15.846Z</time></trkpt><trkpt lat="45.5148933" lon="10.4562533"><ele>188.0</ele><time>2026-03-28T17:49:16.847Z</time></trkpt><trkpt lat="45.514795" lon="10.456225"><ele>188.0</ele><time>2026-03-28T17:49:17.847Z</time></trkpt><trkpt lat="45.5147067" lon="10.456185"><ele>188.0</ele><time>2026-03-28T17:49:18.846Z</time></trkpt><trkpt lat="45.5146133" lon="10.456145"><ele>188.0</ele><time>2026-03-28T17:49:19.847Z</time></trkpt><trkpt lat="45.51452" lon="10.4560967"><ele>188.0</ele><time>2026-03-28T17:49:20.847Z</time></trkpt><trkpt lat="45.514435" lon="10.4560517"><ele>188.0</ele><time>2026-03-28T17:49:21.846Z</time></trkpt><trkpt lat="45.51434" lon="10.456005"><ele>187.60000000000002</ele><time>2026-03-28T17:49:22.846Z</time></trkpt><trkpt lat="45.5142433" lon="10.4559583"><ele>187.20000000000002</ele><time>2026-03-28T17:49:23.846Z</time></trkpt><trkpt lat="45.5141617" lon="10.4559267"><ele>186.8</ele><time>2026-03-28T17:49:24.846Z</time></trkpt><trkpt lat="45.5140633" lon="10.4558767"><ele>186.4</ele><time>2026-03-28T17:49:25.846Z</time></trkpt><trkpt lat="45.5139683" lon="10.4558317"><ele>186.0</ele><time>2026-03-28T17:49:26.846Z</time></trkpt><trkpt lat="45.5138633" lon="10.4557733"><ele>186.0</ele><time>2026-03-28T17:49:27.846Z</time></trkpt><trkpt lat="45.5137633" lon="10.4557083"><ele>186.0</ele><time>2026-03-28T17:49:28.846Z</time></trkpt><trkpt lat="45.5136583" lon="10.45564"><ele>186.0</ele><time>2026-03-28T17:49:29.846Z</time></trkpt><trkpt lat="45.5135483" lon="10.45557"><ele>186.0</ele><time>2026-03-28T17:49:30.846Z</time></trkpt><trkpt lat="45.5134433" lon="10.4554917"><ele>185.8</ele><time>2026-03-28T17:49:31.847Z</time></trkpt><trkpt lat="45.5133383" lon="10.4554233"><ele>185.60000000000002</ele><time>2026-03-28T17:49:32.846Z</time></trkpt><trkpt lat="45.5132417" lon="10.4553583"><ele>185.4</ele><time>2026-03-28T17:49:33.846Z</time></trkpt><trkpt lat="45.5131467" lon="10.455305"><ele>185.2</ele><time>2026-03-28T17:49:34.846Z</time></trkpt><trkpt lat="45.5130567" lon="10.4552583"><ele>185.0</ele><time>2026-03-28T17:49:35.847Z</time></trkpt><trkpt lat="45.5129833" lon="10.4552333"><ele>184.8</ele><time>2026-03-28T17:49:36.846Z</time></trkpt><trkpt lat="45.5129017" lon="10.4552083"><ele>184.6</ele><time>2026-03-28T17:49:37.847Z</time></trkpt><trkpt lat="45.5128217" lon="10.45521"><ele>184.39999999999998</ele><time>2026-03-28T17:49:38.847Z</time></trkpt><trkpt lat="45.512725" lon="10.455215"><ele>184.2</ele><time>2026-03-28T17:49:39.847Z</time></trkpt><trkpt lat="45.5126083" lon="10.4552533"><ele>184.0</ele><time>2026-03-28T17:49:40.846Z</time></trkpt><trkpt lat="45.5125017" lon="10.4553033"><ele>184.0</ele><time>2026-03-28T17:49:41.846Z</time></trkpt><trkpt lat="45.5124033" lon="10.455355"><ele>184.0</ele><time>2026-03-28T17:49:42.847Z</time></trkpt><trkpt lat="45.5123233" lon="10.4554117"><ele>184.0</ele><time>2026-03-28T17:49:43.846Z</time></trkpt><trkpt lat="45.512245" lon="10.45547"><ele>184.0</ele><time>2026-03-28T17:49:44.847Z</time></trkpt><trkpt lat="45.5121633" lon="10.4555467"><ele>184.0</ele><time>2026-03-28T17:49:45.846Z</time></trkpt><trkpt lat="45.5120767" lon="10.4556267"><ele>184.25</ele><time>2026-03-28T17:49:46.846Z</time></trkpt><trkpt lat="45.5119883" lon="10.4557283"><ele>184.5</ele><time>2026-03-28T17:49:47.846Z</time></trkpt><trkpt lat="45.5118933" lon="10.4558383"><ele>184.75</ele><time>2026-03-28T17:49:48.847Z</time></trkpt><trkpt lat="45.511795" lon="10.4559567"><ele>185.0</ele><time>2026-03-28T17:49:49.846Z</time></trkpt><trkpt lat="45.5116933" lon="10.45607"><ele>185.0</ele><time>2026-03-28T17:49:50.847Z</time></trkpt><trkpt lat="45.51159" lon="10.4561917"><ele>185.0</ele><time>2026-03-28T17:49:51.847Z</time></trkpt><trkpt lat="45.5115" lon="10.45631"><ele>185.0</ele><time>2026-03-28T17:49:52.846Z</time></trkpt><trkpt lat="45.511405" lon="10.4564267"><ele>185.0</ele><time>2026-03-28T17:49:53.847Z</time></trkpt><trkpt lat="45.51132" lon="10.4565433"><ele>185.0</ele><time>2026-03-28T17:49:54.847Z</time></trkpt><trkpt lat="45.511235" lon="10.4566717"><ele>185.0</ele><time>2026-03-28T17:49:55.847Z</time></trkpt><trkpt lat="45.511145" lon="10.4568017"><ele>185.0</ele><time>2026-03-28T17:49:56.846Z</time></trkpt><trkpt lat="45.51106" lon="10.4569267"><ele>185.0</ele><time>2026-03-28T17:49:57.846Z</time></trkpt><trkpt lat="45.5109617" lon="10.457045"><ele>185.0</ele><time>2026-03-28T17:49:58.846Z</time></trkpt><trkpt lat="45.5108633" lon="10.4571417"><ele>185.0</ele><time>2026-03-28T17:49:59.846Z</time></trkpt><trkpt lat="45.510785" lon="10.4572433"><ele>185.0</ele><time>2026-03-28T17:50:00.846Z</time></trkpt><trkpt lat="45.510715" lon="10.4573317"><ele>185.0</ele><time>2026-03-28T17:50:01.847Z</time></trkpt><trkpt lat="45.5106467" lon="10.4574117"><ele>185.0</ele><time>2026-03-28T17:50:02.847Z</time></trkpt><trkpt lat="45.5105883" lon="10.4574933"><ele>185.0</ele><time>2026-03-28T17:50:03.846Z</time></trkpt><trkpt lat="45.5105233" lon="10.4575733"><ele>185.0</ele><time>2026-03-28T17:50:04.846Z</time></trkpt><trkpt lat="45.5104483" lon="10.45767"><ele>185.0</ele><time>2026-03-28T17:50:05.847Z</time></trkpt><trkpt lat="45.510365" lon="10.45778"><ele>185.0</ele><time>2026-03-28T17:50:06.846Z</time></trkpt><trkpt lat="45.51027" lon="10.4579067"><ele>185.0</ele><time>2026-03-28T17:50:07.847Z</time></trkpt><trkpt lat="45.5101767" lon="10.4580633"><ele>184.66666666666666</ele><time>2026-03-28T17:50:08.847Z</time></trkpt><trkpt lat="45.5100767" lon="10.4582567"><ele>184.33333333333334</ele><time>2026-03-28T17:50:09.847Z</time></trkpt><trkpt lat="45.5099617" lon="10.4584667"><ele>184.0</ele><time>2026-03-28T17:50:10.846Z</time></trkpt><trkpt lat="45.509845" lon="10.458675"><ele>184.0</ele><time>2026-03-28T17:50:11.846Z</time></trkpt><trkpt lat="45.509715" lon="10.45889"><ele>184.0</ele><time>2026-03-28T17:50:12.847Z</time></trkpt><trkpt lat="45.5096" lon="10.45909"><ele>184.0</ele><time>2026-03-28T17:50:13.847Z</time></trkpt><trkpt lat="45.509495" lon="10.4592817"><ele>184.0</ele><time>2026-03-28T17:50:14.847Z</time></trkpt><trkpt lat="45.5093933" lon="10.4594833"><ele>184.0</ele><time>2026-03-28T17:50:15.847Z</time></trkpt><trkpt lat="45.509285" lon="10.45968"><ele>184.0</ele><time>2026-03-28T17:50:16.847Z</time></trkpt><trkpt lat="45.5091867" lon="10.459885"><ele>184.0</ele><time>2026-03-28T17:50:17.846Z</time></trkpt><trkpt lat="45.5090883" lon="10.4600783"><ele>184.0</ele><time>2026-03-28T17:50:18.846Z</time></trkpt><trkpt lat="45.5089917" lon="10.460285"><ele>184.0</ele><time>2026-03-28T17:50:19.846Z</time></trkpt><trkpt lat="45.5088933" lon="10.4604767"><ele>184.0</ele><time>2026-03-28T17:50:20.847Z</time></trkpt><trkpt lat="45.50879" lon="10.4606567"><ele>184.0</ele><time>2026-03-28T17:50:21.846Z</time></trkpt><trkpt lat="45.50869" lon="10.4608433"><ele>184.0</ele><time>2026-03-28T17:50:22.846Z</time></trkpt><trkpt lat="45.5085867" lon="10.461005"><ele>184.0</ele><time>2026-03-28T17:50:23.847Z</time></trkpt><trkpt lat="45.5084883" lon="10.4611317"><ele>184.0</ele><time>2026-03-28T17:50:24.846Z</time></trkpt><trkpt lat="45.5083983" lon="10.4612683"><ele>184.0</ele><time>2026-03-28T17:50:25.846Z</time></trkpt><trkpt lat="45.50832" lon="10.4613783"><ele>184.0</ele><time>2026-03-28T17:50:26.846Z</time></trkpt><trkpt lat="45.50826" lon="10.461495"><ele>184.5</ele><time>2026-03-28T17:50:27.847Z</time></trkpt><trkpt lat="45.50821" lon="10.4616317"><ele>185.0</ele><time>2026-03-28T17:50:28.846Z</time></trkpt><trkpt lat="45.5081817" lon="10.4617767"><ele>185.5</ele><time>2026-03-28T17:50:29.846Z</time></trkpt><trkpt lat="45.5081817" lon="10.4619517"><ele>186.0</ele><time>2026-03-28T17:50:30.847Z</time></trkpt><trkpt lat="45.5081933" lon="10.4621267"><ele>186.5</ele><time>2026-03-28T17:50:31.847Z</time></trkpt><trkpt lat="45.5082167" lon="10.4623183"><ele>187.0</ele><time>2026-03-28T17:50:32.846Z</time></trkpt><trkpt lat="45.508245" lon="10.4625083"><ele>187.5</ele><time>2026-03-28T17:50:33.846Z</time></trkpt><trkpt lat="45.508275" lon="10.4626883"><ele>188.0</ele><time>2026-03-28T17:50:34.846Z</time></trkpt><trkpt lat="45.508295" lon="10.46285"><ele>188.0</ele><time>2026-03-28T17:50:35.847Z</time></trkpt><trkpt lat="45.5083083" lon="10.4629967"><ele>188.0</ele><time>2026-03-28T17:50:36.847Z</time></trkpt><trkpt lat="45.5083217" lon="10.46313"><ele>188.0</ele><time>2026-03-28T17:50:37.846Z</time></trkpt><trkpt lat="45.50834" lon="10.4632633"><ele>188.0</ele><time>2026-03-28T17:50:38.847Z</time></trkpt><trkpt lat="45.5083633" lon="10.4633983"><ele>188.0</ele><time>2026-03-28T17:50:39.846Z</time></trkpt><trkpt lat="45.5083833" lon="10.4635233"><ele>188.0</ele><time>2026-03-28T17:50:40.846Z</time></trkpt><trkpt lat="45.5083933" lon="10.4636267"><ele>188.0</ele><time>2026-03-28T17:50:42.847Z</time></trkpt><trkpt lat="45.5083233" lon="10.46362"><ele>188.0</ele><time>2026-03-28T17:50:44.846Z</time></trkpt><trkpt lat="45.50825" lon="10.463525"><ele>188.0</ele><time>2026-03-28T17:50:47.846Z</time></trkpt><trkpt lat="45.5082033" lon="10.4634367"><ele>188.0</ele><time>2026-03-28T17:50:49.847Z</time></trkpt><trkpt lat="45.5081217" lon="10.4633533"><ele>188.0</ele><time>2026-03-28T17:50:52.846Z</time></trkpt><trkpt lat="45.508025" lon="10.4633367"><ele>187.0</ele><time>2026-03-28T17:50:54.847Z</time></trkpt><trkpt lat="45.5079" lon="10.4633333"><ele>186.0</ele><time>2026-03-28T17:50:56.847Z</time></trkpt><trkpt lat="45.50783" lon="10.4633367"><ele>185.0</ele><time>2026-03-28T17:50:57.847Z</time></trkpt><trkpt lat="45.50776" lon="10.463345"><ele>184.0</ele><time>2026-03-28T17:50:58.847Z</time></trkpt><trkpt lat="45.5076967" lon="10.4633567"><ele>183.0</ele><time>2026-03-28T17:50:59.847Z</time></trkpt><trkpt lat="45.5076083" lon="10.4633767"><ele>182.0</ele><time>2026-03-28T17:51:01.846Z</time></trkpt><trkpt lat="45.5076717" lon="10.46345"><ele>182.0</ele><time>2026-03-28T17:57:10.848Z</time></trkpt><trkpt lat="45.507795" lon="10.46345"><ele>182.0</ele><time>2026-03-28T17:57:12.848Z</time></trkpt><trkpt lat="45.5078633" lon="10.46345"><ele>182.0</ele><time>2026-03-28T17:57:13.848Z</time></trkpt><trkpt lat="45.50793" lon="10.4634633"><ele>182.0</ele><time>2026-03-28T17:57:14.847Z</time></trkpt><trkpt lat="45.5079933" lon="10.463475"><ele>182.0</ele><time>2026-03-28T17:57:15.848Z</time></trkpt><trkpt lat="45.508055" lon="10.4634933"><ele>182.0</ele><time>2026-03-28T17:57:16.847Z</time></trkpt><trkpt lat="45.5081183" lon="10.4635067"><ele>183.2</ele><time>2026-03-28T17:57:17.847Z</time></trkpt><trkpt lat="45.5082183" lon="10.46353"><ele>184.39999999999998</ele><time>2026-03-28T17:57:19.847Z</time></trkpt><trkpt lat="45.5082817" lon="10.4636117"><ele>185.60000000000002</ele><time>2026-03-28T17:57:21.847Z</time></trkpt><trkpt lat="45.5082617" lon="10.4637367"><ele>186.8</ele><time>2026-03-28T17:57:24.848Z</time></trkpt><trkpt lat="45.50814" lon="10.4637683"><ele>188.0</ele><time>2026-03-28T17:57:26.848Z</time></trkpt><trkpt lat="45.5080283" lon="10.4637683"><ele>187.0</ele><time>2026-03-28T17:57:27.847Z</time></trkpt><trkpt lat="45.5079067" lon="10.4637967"><ele>186.0</ele><time>2026-03-28T17:57:28.847Z</time></trkpt><trkpt lat="45.50777" lon="10.4638217"><ele>185.0</ele><time>2026-03-28T17:57:29.847Z</time></trkpt><trkpt lat="45.5076067" lon="10.4638267"><ele>184.0</ele><time>2026-03-28T17:57:30.847Z</time></trkpt><trkpt lat="45.5074417" lon="10.4638367"><ele>184.0</ele><time>2026-03-28T17:57:31.847Z</time></trkpt><trkpt lat="45.5072883" lon="10.4638317"><ele>184.0</ele><time>2026-03-28T17:57:32.848Z</time></trkpt><trkpt lat="45.5071683" lon="10.4638567"><ele>184.0</ele><time>2026-03-28T17:57:33.848Z</time></trkpt><trkpt lat="45.50707" lon="10.4638617"><ele>184.0</ele><time>2026-03-28T17:57:34.847Z</time></trkpt><trkpt lat="45.50699" lon="10.4638383"><ele>183.6</ele><time>2026-03-28T17:57:35.847Z</time></trkpt><trkpt lat="45.5069333" lon="10.463795"><ele>183.2</ele><time>2026-03-28T17:57:36.847Z</time></trkpt><trkpt lat="45.5068717" lon="10.4637133"><ele>182.79999999999998</ele><time>2026-03-28T17:57:37.848Z</time></trkpt><trkpt lat="45.5068217" lon="10.4635683"><ele>182.39999999999998</ele><time>2026-03-28T17:57:38.847Z</time></trkpt><trkpt lat="45.5067833" lon="10.463405"><ele>182.0</ele><time>2026-03-28T17:57:39.848Z</time></trkpt><trkpt lat="45.5067333" lon="10.4632117"><ele>182.0</ele><time>2026-03-28T17:57:40.847Z</time></trkpt><trkpt lat="45.5066967" lon="10.4629983"><ele>182.0</ele><time>2026-03-28T17:57:41.848Z</time></trkpt><trkpt lat="45.5066533" lon="10.46277"><ele>182.0</ele><time>2026-03-28T17:57:42.847Z</time></trkpt><trkpt lat="45.506605" lon="10.4625417"><ele>182.0</ele><time>2026-03-28T17:57:43.848Z</time></trkpt><trkpt lat="45.5065467" lon="10.4623"><ele>182.0</ele><time>2026-03-28T17:57:44.848Z</time></trkpt><trkpt lat="45.5064883" lon="10.4620367"><ele>182.0</ele><time>2026-03-28T17:57:45.847Z</time></trkpt><trkpt lat="45.5064367" lon="10.46177"><ele>181.66666666666666</ele><time>2026-03-28T17:57:46.848Z</time></trkpt><trkpt lat="45.5063767" lon="10.4614967"><ele>181.33333333333334</ele><time>2026-03-28T17:57:47.848Z</time></trkpt><trkpt lat="45.50633" lon="10.4612083"><ele>181.0</ele><time>2026-03-28T17:57:48.848Z</time></trkpt><trkpt lat="45.506275" lon="10.4609083"><ele>181.0</ele><time>2026-03-28T17:57:49.848Z</time></trkpt><trkpt lat="45.5062317" lon="10.4605983"><ele>181.0</ele><time>2026-03-28T17:57:50.847Z</time></trkpt><trkpt lat="45.5061817" lon="10.4602733"><ele>181.0</ele><time>2026-03-28T17:57:51.847Z</time></trkpt><trkpt lat="45.5061383" lon="10.459945"><ele>181.0</ele><time>2026-03-28T17:57:52.847Z</time></trkpt><trkpt lat="45.5060933" lon="10.459625"><ele>180.66666666666669</ele><time>2026-03-28T17:57:53.847Z</time></trkpt><trkpt lat="45.5060417" lon="10.4593167"><ele>180.33333333333334</ele><time>2026-03-28T17:57:54.848Z</time></trkpt><trkpt lat="45.5059933" lon="10.45901"><ele>180.0</ele><time>2026-03-28T17:57:55.848Z</time></trkpt><trkpt lat="45.5059617" lon="10.4587117"><ele>179.66666666666666</ele><time>2026-03-28T17:57:56.848Z</time></trkpt><trkpt lat="45.50593" lon="10.4584217"><ele>179.33333333333331</ele><time>2026-03-28T17:57:57.848Z</time></trkpt><trkpt lat="45.5058867" lon="10.458125"><ele>179.0</ele><time>2026-03-28T17:57:58.847Z</time></trkpt><trkpt lat="45.50585" lon="10.4578383"><ele>178.66666666666666</ele><time>2026-03-28T17:57:59.847Z</time></trkpt><trkpt lat="45.505815" lon="10.45755"><ele>178.33333333333334</ele><time>2026-03-28T17:58:00.847Z</time></trkpt><trkpt lat="45.50578" lon="10.45727"><ele>178.0</ele><time>2026-03-28T17:58:01.847Z</time></trkpt><trkpt lat="45.505755" lon="10.4569833"><ele>178.0</ele><time>2026-03-28T17:58:02.848Z</time></trkpt><trkpt lat="45.505725" lon="10.4567117"><ele>178.0</ele><time>2026-03-28T17:58:03.847Z</time></trkpt><trkpt lat="45.5056983" lon="10.4564533"><ele>178.0</ele><time>2026-03-28T17:58:04.847Z</time></trkpt><trkpt lat="45.50566" lon="10.45621"><ele>178.0</ele><time>2026-03-28T17:58:05.847Z</time></trkpt><trkpt lat="45.5056517" lon="10.4559917"><ele>178.0</ele><time>2026-03-28T17:58:06.847Z</time></trkpt><trkpt lat="45.5056467" lon="10.4557717"><ele>178.0</ele><time>2026-03-28T17:58:07.847Z</time></trkpt><trkpt lat="45.5056333" lon="10.45557"><ele>178.0</ele><time>2026-03-28T17:58:08.847Z</time></trkpt><trkpt lat="45.50563" lon="10.4553933"><ele>178.4</ele><time>2026-03-28T17:58:09.848Z</time></trkpt><trkpt lat="45.5056183" lon="10.4552333"><ele>178.8</ele><time>2026-03-28T17:58:10.847Z</time></trkpt><trkpt lat="45.50561" lon="10.4550967"><ele>179.2</ele><time>2026-03-28T17:58:11.847Z</time></trkpt><trkpt lat="45.5056133" lon="10.4549633"><ele>179.6</ele><time>2026-03-28T17:58:12.848Z</time></trkpt><trkpt lat="45.50562" lon="10.4548167"><ele>180.0</ele><time>2026-03-28T17:58:13.847Z</time></trkpt><trkpt lat="45.5056283" lon="10.4546667"><ele>179.4</ele><time>2026-03-28T17:58:14.847Z</time></trkpt><trkpt lat="45.5056533" lon="10.454525"><ele>178.8</ele><time>2026-03-28T17:58:15.848Z</time></trkpt><trkpt lat="45.5056883" lon="10.4544"><ele>178.2</ele><time>2026-03-28T17:58:16.847Z</time></trkpt><trkpt lat="45.5057317" lon="10.4543"><ele>177.6</ele><time>2026-03-28T17:58:17.847Z</time></trkpt><trkpt lat="45.505795" lon="10.454195"><ele>177.0</ele><time>2026-03-28T17:58:18.847Z</time></trkpt><trkpt lat="45.5058633" lon="10.454095"><ele>177.0</ele><time>2026-03-28T17:58:19.847Z</time></trkpt><trkpt lat="45.5059233" lon="10.4540017"><ele>177.0</ele><time>2026-03-28T17:58:20.847Z</time></trkpt><trkpt lat="45.5059733" lon="10.4538783"><ele>177.0</ele><time>2026-03-28T17:58:21.847Z</time></trkpt><trkpt lat="45.506005" lon="10.4537633"><ele>177.0</ele><time>2026-03-28T17:58:22.847Z</time></trkpt><trkpt lat="45.5060017" lon="10.4536617"><ele>177.0</ele><time>2026-03-28T17:58:23.848Z</time></trkpt><trkpt lat="45.5059833" lon="10.453575"><ele>177.0</ele><time>2026-03-28T17:58:24.847Z</time></trkpt><trkpt lat="45.5059367" lon="10.453495"><ele>176.83333333333334</ele><time>2026-03-28T17:58:25.847Z</time></trkpt><trkpt lat="45.50587" lon="10.4534383"><ele>176.66666666666666</ele><time>2026-03-28T17:58:26.847Z</time></trkpt><trkpt lat="45.5057967" lon="10.4534"><ele>176.5</ele><time>2026-03-28T17:58:27.848Z</time></trkpt><trkpt lat="45.505715" lon="10.4534017"><ele>176.33333333333331</ele><time>2026-03-28T17:58:28.848Z</time></trkpt><trkpt lat="45.5056283" lon="10.4534317"><ele>176.16666666666666</ele><time>2026-03-28T17:58:29.848Z</time></trkpt><trkpt lat="45.5055433" lon="10.4534667"><ele>176.0</ele><time>2026-03-28T17:58:30.848Z</time></trkpt><trkpt lat="45.50545" lon="10.4535117"><ele>176.0</ele><time>2026-03-28T17:58:31.848Z</time></trkpt><trkpt lat="45.50534" lon="10.4535567"><ele>176.0</ele><time>2026-03-28T17:58:32.847Z</time></trkpt><trkpt lat="45.5052083" lon="10.4535667"><ele>176.0</ele><time>2026-03-28T17:58:33.847Z</time></trkpt><trkpt lat="45.5050733" lon="10.453535"><ele>176.0</ele><time>2026-03-28T17:58:34.848Z</time></trkpt><trkpt lat="45.5049133" lon="10.4534633"><ele>176.0</ele><time>2026-03-28T17:58:35.848Z</time></trkpt><trkpt lat="45.5047583" lon="10.453395"><ele>176.0</ele><time>2026-03-28T17:58:36.848Z</time></trkpt><trkpt lat="45.504595" lon="10.4533267"><ele>176.0</ele><time>2026-03-28T17:58:37.848Z</time></trkpt><trkpt lat="45.5044183" lon="10.4532783"><ele>176.0</ele><time>2026-03-28T17:58:38.847Z</time></trkpt><trkpt lat="45.5042383" lon="10.45322"><ele>176.0</ele><time>2026-03-28T17:58:39.847Z</time></trkpt><trkpt lat="45.5040733" lon="10.4531783"><ele>176.0</ele><time>2026-03-28T17:58:40.847Z</time></trkpt><trkpt lat="45.5039017" lon="10.45314"><ele>175.66666666666666</ele><time>2026-03-28T17:58:41.848Z</time></trkpt><trkpt lat="45.503735" lon="10.4531"><ele>175.33333333333334</ele><time>2026-03-28T17:58:42.847Z</time></trkpt><trkpt lat="45.503575" lon="10.4530533"><ele>175.0</ele><time>2026-03-28T17:58:43.847Z</time></trkpt><trkpt lat="45.5034033" lon="10.453"><ele>174.66666666666669</ele><time>2026-03-28T17:58:44.848Z</time></trkpt><trkpt lat="45.5032283" lon="10.4529317"><ele>174.33333333333334</ele><time>2026-03-28T17:58:45.848Z</time></trkpt><trkpt lat="45.503055" lon="10.4528533"><ele>174.0</ele><time>2026-03-28T17:58:46.847Z</time></trkpt><trkpt lat="45.5028817" lon="10.452775"><ele>173.66666666666666</ele><time>2026-03-28T17:58:47.848Z</time></trkpt><trkpt lat="45.5026967" lon="10.4526833"><ele>173.33333333333331</ele><time>2026-03-28T17:58:48.847Z</time></trkpt><trkpt lat="45.5025267" lon="10.4525833"><ele>173.0</ele><time>2026-03-28T17:58:49.847Z</time></trkpt><trkpt lat="45.5023467" lon="10.4524833"><ele>173.0</ele><time>2026-03-28T17:58:50.847Z</time></trkpt><trkpt lat="45.50217" lon="10.4523833"><ele>173.0</ele><time>2026-03-28T17:58:51.847Z</time></trkpt><trkpt lat="45.50198" lon="10.4522783"><ele>173.0</ele><time>2026-03-28T17:58:52.848Z</time></trkpt><trkpt lat="45.5017867" lon="10.4521667"><ele>173.33333333333331</ele><time>2026-03-28T17:58:53.847Z</time></trkpt><trkpt lat="45.5015933" lon="10.4520567"><ele>173.66666666666666</ele><time>2026-03-28T17:58:54.847Z</time></trkpt><trkpt lat="45.5014083" lon="10.451945"><ele>174.0</ele><time>2026-03-28T17:58:55.848Z</time></trkpt><trkpt lat="45.50122" lon="10.45184"><ele>174.0</ele><time>2026-03-28T17:58:56.847Z</time></trkpt><trkpt lat="45.50104" lon="10.45174"><ele>174.0</ele><time>2026-03-28T17:58:57.848Z</time></trkpt><trkpt lat="45.50087" lon="10.4516433"><ele>174.0</ele><time>2026-03-28T17:58:58.848Z</time></trkpt><trkpt lat="45.500705" lon="10.45154"><ele>174.0</ele><time>2026-03-28T17:58:59.847Z</time></trkpt><trkpt lat="45.500545" lon="10.4514317"><ele>174.0</ele><time>2026-03-28T17:59:00.848Z</time></trkpt><trkpt lat="45.5003883" lon="10.451315"><ele>174.0</ele><time>2026-03-28T17:59:01.848Z</time></trkpt><trkpt lat="45.500235" lon="10.4511917"><ele>172.0</ele><time>2026-03-28T17:59:02.847Z</time></trkpt><trkpt lat="45.5000767" lon="10.4510533"><ele>170.0</ele><time>2026-03-28T17:59:03.848Z</time></trkpt><trkpt lat="45.4999117" lon="10.4509033"><ele>168.0</ele><time>2026-03-28T17:59:04.847Z</time></trkpt><trkpt lat="45.4997467" lon="10.4507567"><ele>168.33333333333334</ele><time>2026-03-28T17:59:05.847Z</time></trkpt><trkpt lat="45.4995833" lon="10.4506083"><ele>168.66666666666669</ele><time>2026-03-28T17:59:06.848Z</time></trkpt><trkpt lat="45.4994217" lon="10.4504783"><ele>169.0</ele><time>2026-03-28T17:59:07.847Z</time></trkpt><trkpt lat="45.4992533" lon="10.450355"><ele>169.0</ele><time>2026-03-28T17:59:08.847Z</time></trkpt><trkpt lat="45.4990867" lon="10.4502117"><ele>169.0</ele><time>2026-03-28T17:59:09.847Z</time></trkpt><trkpt lat="45.49892" lon="10.4500883"><ele>169.0</ele><time>2026-03-28T17:59:10.848Z</time></trkpt><trkpt lat="45.4987383" lon="10.4499667"><ele>168.66666666666669</ele><time>2026-03-28T17:59:11.847Z</time></trkpt><trkpt lat="45.49857" lon="10.4498417"><ele>168.33333333333334</ele><time>2026-03-28T17:59:12.847Z</time></trkpt><trkpt lat="45.4983867" lon="10.44971"><ele>168.0</ele><time>2026-03-28T17:59:13.848Z</time></trkpt><trkpt lat="45.4982017" lon="10.449575"><ele>167.66666666666666</ele><time>2026-03-28T17:59:14.848Z</time></trkpt><trkpt lat="45.4980183" lon="10.4494417"><ele>167.33333333333331</ele><time>2026-03-28T17:59:15.848Z</time></trkpt><trkpt lat="45.4978233" lon="10.4493033"><ele>167.0</ele><time>2026-03-28T17:59:16.847Z</time></trkpt><trkpt lat="45.4976367" lon="10.4491783"><ele>167.0</ele><time>2026-03-28T17:59:17.847Z</time></trkpt><trkpt lat="45.4974367" lon="10.449065"><ele>167.0</ele><time>2026-03-28T17:59:18.848Z</time></trkpt><trkpt lat="45.4972317" lon="10.448955"><ele>167.0</ele><time>2026-03-28T17:59:19.847Z</time></trkpt><trkpt lat="45.4970283" lon="10.448865"><ele>166.0</ele><time>2026-03-28T17:59:20.848Z</time></trkpt><trkpt lat="45.496825" lon="10.4487817"><ele>165.0</ele><time>2026-03-28T17:59:21.847Z</time></trkpt><trkpt lat="45.496635" lon="10.4487017"><ele>164.0</ele><time>2026-03-28T17:59:22.847Z</time></trkpt><trkpt lat="45.4964467" lon="10.4486233"><ele>164.0</ele><time>2026-03-28T17:59:23.848Z</time></trkpt><trkpt lat="45.49626" lon="10.448535"><ele>164.0</ele><time>2026-03-28T17:59:24.848Z</time></trkpt><trkpt lat="45.496075" lon="10.448465"><ele>164.0</ele><time>2026-03-28T17:59:25.848Z</time></trkpt><trkpt lat="45.4958967" lon="10.448395"><ele>164.0</ele><time>2026-03-28T17:59:26.848Z</time></trkpt><trkpt lat="45.495715" lon="10.4483217"><ele>164.0</ele><time>2026-03-28T17:59:27.847Z</time></trkpt><trkpt lat="45.49553" lon="10.4482383"><ele>164.0</ele><time>2026-03-28T17:59:28.847Z</time></trkpt><trkpt lat="45.495335" lon="10.4481683"><ele>163.66666666666666</ele><time>2026-03-28T17:59:29.848Z</time></trkpt><trkpt lat="45.495135" lon="10.448085"><ele>163.33333333333334</ele><time>2026-03-28T17:59:30.847Z</time></trkpt><trkpt lat="45.4949233" lon="10.44799"><ele>163.0</ele><time>2026-03-28T17:59:31.848Z</time></trkpt><trkpt lat="45.4947183" lon="10.4479067"><ele>162.33333333333334</ele><time>2026-03-28T17:59:32.848Z</time></trkpt><trkpt lat="45.4945067" lon="10.4478133"><ele>161.66666666666666</ele><time>2026-03-28T17:59:33.847Z</time></trkpt><trkpt lat="45.4942883" lon="10.447725"><ele>161.0</ele><time>2026-03-28T17:59:34.848Z</time></trkpt><trkpt lat="45.4940667" lon="10.4476233"><ele>161.0</ele><time>2026-03-28T17:59:35.847Z</time></trkpt><trkpt lat="45.4938433" lon="10.4475233"><ele>161.0</ele><time>2026-03-28T17:59:36.848Z</time></trkpt><trkpt lat="45.4936117" lon="10.44743"><ele>161.0</ele><time>2026-03-28T17:59:37.847Z</time></trkpt><trkpt lat="45.493375" lon="10.4473367"><ele>161.0</ele><time>2026-03-28T17:59:38.847Z</time></trkpt><trkpt lat="45.4931383" lon="10.44724"><ele>160.5</ele><time>2026-03-28T17:59:39.848Z</time></trkpt><trkpt lat="45.4929017" lon="10.447145"><ele>160.0</ele><time>2026-03-28T17:59:40.848Z</time></trkpt><trkpt lat="45.492665" lon="10.4470467"><ele>160.0</ele><time>2026-03-28T17:59:41.848Z</time></trkpt><trkpt lat="45.49243" lon="10.4469417"><ele>160.0</ele><time>2026-03-28T17:59:42.848Z</time></trkpt><trkpt lat="45.4922" lon="10.4468483"><ele>159.0</ele><time>2026-03-28T17:59:43.847Z</time></trkpt><trkpt lat="45.4919733" lon="10.4467633"><ele>158.0</ele><time>2026-03-28T17:59:44.848Z</time></trkpt><trkpt lat="45.491755" lon="10.446685"><ele>158.0</ele><time>2026-03-28T17:59:45.848Z</time></trkpt><trkpt lat="45.4915417" lon="10.4466117"><ele>158.0</ele><time>2026-03-28T17:59:46.847Z</time></trkpt><trkpt lat="45.4913383" lon="10.446555"><ele>158.0</ele><time>2026-03-28T17:59:47.847Z</time></trkpt><trkpt lat="45.4911383" lon="10.4465217"><ele>158.0</ele><time>2026-03-28T17:59:48.848Z</time></trkpt><trkpt lat="45.490945" lon="10.4464967"><ele>158.0</ele><time>2026-03-28T17:59:49.847Z</time></trkpt><trkpt lat="45.4907583" lon="10.4464667"><ele>158.0</ele><time>2026-03-28T17:59:50.848Z</time></trkpt><trkpt lat="45.49057" lon="10.4464383"><ele>157.66666666666666</ele><time>2026-03-28T17:59:51.847Z</time></trkpt><trkpt lat="45.4903833" lon="10.4463883"><ele>157.33333333333334</ele><time>2026-03-28T17:59:52.848Z</time></trkpt><trkpt lat="45.4902" lon="10.4463283"><ele>157.0</ele><time>2026-03-28T17:59:53.847Z</time></trkpt><trkpt lat="45.4900117" lon="10.44625"><ele>157.0</ele><time>2026-03-28T17:59:54.848Z</time></trkpt><trkpt lat="45.4898283" lon="10.446165"><ele>157.0</ele><time>2026-03-28T17:59:55.847Z</time></trkpt><trkpt lat="45.4896533" lon="10.4460767"><ele>157.0</ele><time>2026-03-28T17:59:56.847Z</time></trkpt><trkpt lat="45.4894833" lon="10.44599"><ele>157.0</ele><time>2026-03-28T17:59:57.848Z</time></trkpt><trkpt lat="45.489315" lon="10.44591"><ele>157.0</ele><time>2026-03-28T17:59:58.847Z</time></trkpt><trkpt lat="45.4891467" lon="10.4458233"><ele>157.0</ele><time>2026-03-28T17:59:59.847Z</time></trkpt><trkpt lat="45.4889883" lon="10.4457517"><ele>157.0</ele><time>2026-03-28T18:00:00.848Z</time></trkpt><trkpt lat="45.48882" lon="10.4456717"><ele>157.0</ele><time>2026-03-28T18:00:01.847Z</time></trkpt><trkpt lat="45.4886483" lon="10.4455833"><ele>157.0</ele><time>2026-03-28T18:00:02.848Z</time></trkpt><trkpt lat="45.4884733" lon="10.4454967"><ele>156.33333333333334</ele><time>2026-03-28T18:00:03.848Z</time></trkpt><trkpt lat="45.4882983" lon="10.44542"><ele>155.66666666666666</ele><time>2026-03-28T18:00:04.847Z</time></trkpt><trkpt lat="45.4881283" lon="10.445345"><ele>155.0</ele><time>2026-03-28T18:00:05.848Z</time></trkpt><trkpt lat="45.487955" lon="10.445265"><ele>154.66666666666666</ele><time>2026-03-28T18:00:06.848Z</time></trkpt><trkpt lat="45.4877717" lon="10.445175"><ele>154.33333333333334</ele><time>2026-03-28T18:00:07.847Z</time></trkpt><trkpt lat="45.4875933" lon="10.44508"><ele>154.0</ele><time>2026-03-28T18:00:08.848Z</time></trkpt><trkpt lat="45.4874267" lon="10.445"><ele>154.0</ele><time>2026-03-28T18:00:09.848Z</time></trkpt><trkpt lat="45.4872517" lon="10.4449233"><ele>154.0</ele><time>2026-03-28T18:00:10.847Z</time></trkpt><trkpt lat="45.48708" lon="10.4448417"><ele>154.0</ele><time>2026-03-28T18:00:11.848Z</time></trkpt><trkpt lat="45.486915" lon="10.4447617"><ele>154.0</ele><time>2026-03-28T18:00:12.848Z</time></trkpt><trkpt lat="45.486755" lon="10.44468"><ele>154.0</ele><time>2026-03-28T18:00:13.848Z</time></trkpt><trkpt lat="45.486595" lon="10.4446"><ele>154.0</ele><time>2026-03-28T18:00:14.847Z</time></trkpt><trkpt lat="45.4864367" lon="10.444525"><ele>154.0</ele><time>2026-03-28T18:00:15.848Z</time></trkpt><trkpt lat="45.486265" lon="10.444445"><ele>154.0</ele><time>2026-03-28T18:00:16.848Z</time></trkpt><trkpt lat="45.4860967" lon="10.44438"><ele>154.0</ele><time>2026-03-28T18:00:17.848Z</time></trkpt><trkpt lat="45.485925" lon="10.4443183"><ele>153.66666666666669</ele><time>2026-03-28T18:00:18.847Z</time></trkpt><trkpt lat="45.485745" lon="10.4442533"><ele>153.33333333333334</ele><time>2026-03-28T18:00:19.847Z</time></trkpt><trkpt lat="45.4855767" lon="10.44419"><ele>153.0</ele><time>2026-03-28T18:00:20.848Z</time></trkpt><trkpt lat="45.4854033" lon="10.4441383"><ele>153.0</ele><time>2026-03-28T18:00:21.847Z</time></trkpt><trkpt lat="45.4852367" lon="10.4440767"><ele>153.0</ele><time>2026-03-28T18:00:22.847Z</time></trkpt><trkpt lat="45.4850617" lon="10.4440267"><ele>153.0</ele><time>2026-03-28T18:00:23.847Z</time></trkpt><trkpt lat="45.4848867" lon="10.44397"><ele>153.0</ele><time>2026-03-28T18:00:24.848Z</time></trkpt><trkpt lat="45.4847217" lon="10.4439367"><ele>153.0</ele><time>2026-03-28T18:00:25.848Z</time></trkpt><trkpt lat="45.4845583" lon="10.4438867"><ele>153.0</ele><time>2026-03-28T18:00:26.847Z</time></trkpt><trkpt lat="45.48439" lon="10.44384"><ele>152.33333333333334</ele><time>2026-03-28T18:00:27.847Z</time></trkpt><trkpt lat="45.484215" lon="10.4437917"><ele>151.66666666666669</ele><time>2026-03-28T18:00:28.848Z</time></trkpt><trkpt lat="45.48402" lon="10.4437233"><ele>151.0</ele><time>2026-03-28T18:00:29.848Z</time></trkpt><trkpt lat="45.4838" lon="10.4436567"><ele>150.5</ele><time>2026-03-28T18:00:30.847Z</time></trkpt><trkpt lat="45.4835767" lon="10.4435767"><ele>150.0</ele><time>2026-03-28T18:00:31.847Z</time></trkpt><trkpt lat="45.4833483" lon="10.4434933"><ele>150.0</ele><time>2026-03-28T18:00:32.848Z</time></trkpt><trkpt lat="45.4831133" lon="10.4434083"><ele>150.0</ele><time>2026-03-28T18:00:33.848Z</time></trkpt><trkpt lat="45.4828567" lon="10.443315"><ele>150.0</ele><time>2026-03-28T18:00:34.848Z</time></trkpt><trkpt lat="45.4825967" lon="10.443215"><ele>150.0</ele><time>2026-03-28T18:00:35.848Z</time></trkpt><trkpt lat="45.4823333" lon="10.443125"><ele>149.5</ele><time>2026-03-28T18:00:36.847Z</time></trkpt><trkpt lat="45.4820667" lon="10.44303"><ele>149.0</ele><time>2026-03-28T18:00:37.848Z</time></trkpt><trkpt lat="45.481795" lon="10.4429317"><ele>148.5</ele><time>2026-03-28T18:00:38.848Z</time></trkpt><trkpt lat="45.4815233" lon="10.4428383"><ele>148.0</ele><time>2026-03-28T18:00:39.848Z</time></trkpt><trkpt lat="45.4812533" lon="10.4427483"><ele>147.0</ele><time>2026-03-28T18:00:40.848Z</time></trkpt><trkpt lat="45.4809783" lon="10.442655"><ele>146.0</ele><time>2026-03-28T18:00:41.847Z</time></trkpt><trkpt lat="45.4807033" lon="10.4425567"><ele>146.5</ele><time>2026-03-28T18:00:42.848Z</time></trkpt><trkpt lat="45.4804217" lon="10.442465"><ele>147.0</ele><time>2026-03-28T18:00:43.847Z</time></trkpt><trkpt lat="45.48015" lon="10.44238"><ele>147.0</ele><time>2026-03-28T18:00:44.847Z</time></trkpt><trkpt lat="45.4798867" lon="10.4422817"><ele>147.0</ele><time>2026-03-28T18:00:45.847Z</time></trkpt><trkpt lat="45.4796383" lon="10.4422017"><ele>146.5</ele><time>2026-03-28T18:00:46.848Z</time></trkpt><trkpt lat="45.479395" lon="10.4421183"><ele>146.0</ele><time>2026-03-28T18:00:47.848Z</time></trkpt><trkpt lat="45.47916" lon="10.4420367"><ele>146.0</ele><time>2026-03-28T18:00:48.848Z</time></trkpt><trkpt lat="45.4789267" lon="10.4419633"><ele>146.0</ele><time>2026-03-28T18:00:49.848Z</time></trkpt><trkpt lat="45.4787033" lon="10.4418833"><ele>145.66666666666666</ele><time>2026-03-28T18:00:50.848Z</time></trkpt><trkpt lat="45.4784883" lon="10.4418083"><ele>145.33333333333334</ele><time>2026-03-28T18:00:51.848Z</time></trkpt><trkpt lat="45.4782883" lon="10.441735"><ele>145.0</ele><time>2026-03-28T18:00:52.847Z</time></trkpt><trkpt lat="45.4780883" lon="10.44167"><ele>145.0</ele><time>2026-03-28T18:00:53.847Z</time></trkpt><trkpt lat="45.4778983" lon="10.4416067"><ele>145.0</ele><time>2026-03-28T18:00:54.847Z</time></trkpt><trkpt lat="45.477725" lon="10.4415567"><ele>145.0</ele><time>2026-03-28T18:00:55.848Z</time></trkpt><trkpt lat="45.4775683" lon="10.4415217"><ele>145.0</ele><time>2026-03-28T18:00:56.848Z</time></trkpt><trkpt lat="45.4774217" lon="10.4414867"><ele>145.0</ele><time>2026-03-28T18:00:57.848Z</time></trkpt><trkpt lat="45.477285" lon="10.441475"><ele>145.0</ele><time>2026-03-28T18:00:58.848Z</time></trkpt><trkpt lat="45.4771767" lon="10.4414733"><ele>145.0</ele><time>2026-03-28T18:00:59.847Z</time></trkpt><trkpt lat="45.4770967" lon="10.4414683"><ele>145.0</ele><time>2026-03-28T18:01:00.847Z</time></trkpt><trkpt lat="45.4770217" lon="10.4414617"><ele>145.0</ele><time>2026-03-28T18:01:01.848Z</time></trkpt><trkpt lat="45.4769583" lon="10.4414283"><ele>145.0</ele><time>2026-03-28T18:01:02.847Z</time></trkpt><trkpt lat="45.47688" lon="10.4413833"><ele>145.0</ele><time>2026-03-28T18:01:03.848Z</time></trkpt><trkpt lat="45.4767983" lon="10.4413417"><ele>145.0</ele><time>2026-03-28T18:01:04.847Z</time></trkpt><trkpt lat="45.4767083" lon="10.4413083"><ele>145.0</ele><time>2026-03-28T18:01:05.847Z</time></trkpt><trkpt lat="45.476625" lon="10.4413117"><ele>145.0</ele><time>2026-03-28T18:01:06.847Z</time></trkpt><trkpt lat="45.4765517" lon="10.4413467"><ele>145.0</ele><time>2026-03-28T18:01:07.848Z</time></trkpt><trkpt lat="45.4764867" lon="10.4414083"><ele>145.0</ele><time>2026-03-28T18:01:08.847Z</time></trkpt><trkpt lat="45.47644" lon="10.4414967"><ele>145.0</ele><time>2026-03-28T18:01:09.847Z</time></trkpt><trkpt lat="45.4764017" lon="10.4416167"><ele>145.0</ele><time>2026-03-28T18:01:10.847Z</time></trkpt><trkpt lat="45.47638" lon="10.441755"><ele>145.0</ele><time>2026-03-28T18:01:11.848Z</time></trkpt><trkpt lat="45.4763367" lon="10.4418933"><ele>145.0</ele><time>2026-03-28T18:01:12.847Z</time></trkpt><trkpt lat="45.4762717" lon="10.44202"><ele>145.0</ele><time>2026-03-28T18:01:13.847Z</time></trkpt><trkpt lat="45.4761867" lon="10.442115"><ele>145.0</ele><time>2026-03-28T18:01:14.848Z</time></trkpt><trkpt lat="45.4761" lon="10.442205"><ele>145.0</ele><time>2026-03-28T18:01:15.848Z</time></trkpt><trkpt lat="45.476015" lon="10.4422883"><ele>145.0</ele><time>2026-03-28T18:01:16.848Z</time></trkpt><trkpt lat="45.4759383" lon="10.4423667"><ele>145.0</ele><time>2026-03-28T18:01:17.848Z</time></trkpt><trkpt lat="45.475855" lon="10.4424133"><ele>145.0</ele><time>2026-03-28T18:01:18.848Z</time></trkpt><trkpt lat="45.475765" lon="10.44245"><ele>145.0</ele><time>2026-03-28T18:01:19.848Z</time></trkpt><trkpt lat="45.4756667" lon="10.4424417"><ele>145.0</ele><time>2026-03-28T18:01:20.848Z</time></trkpt><trkpt lat="45.4755733" lon="10.4423867"><ele>145.0</ele><time>2026-03-28T18:01:21.848Z</time></trkpt><trkpt lat="45.4754933" lon="10.4422933"><ele>144.8</ele><time>2026-03-28T18:01:22.848Z</time></trkpt><trkpt lat="45.47543" lon="10.4421833"><ele>144.6</ele><time>2026-03-28T18:01:23.848Z</time></trkpt><trkpt lat="45.4753933" lon="10.442045"><ele>144.4</ele><time>2026-03-28T18:01:24.848Z</time></trkpt><trkpt lat="45.4753783" lon="10.44189"><ele>144.2</ele><time>2026-03-28T18:01:25.848Z</time></trkpt><trkpt lat="45.4753917" lon="10.4417467"><ele>144.0</ele><time>2026-03-28T18:01:26.848Z</time></trkpt><trkpt lat="45.4754267" lon="10.44158"><ele>144.0</ele><time>2026-03-28T18:01:27.848Z</time></trkpt><trkpt lat="45.4754783" lon="10.4413867"><ele>144.0</ele><time>2026-03-28T18:01:28.848Z</time></trkpt><trkpt lat="45.47551" lon="10.4411783"><ele>144.0</ele><time>2026-03-28T18:01:29.847Z</time></trkpt><trkpt lat="45.4755733" lon="10.4409533"><ele>144.0</ele><time>2026-03-28T18:01:30.847Z</time></trkpt><trkpt lat="45.4756217" lon="10.4407033"><ele>144.0</ele><time>2026-03-28T18:01:31.848Z</time></trkpt><trkpt lat="45.475685" lon="10.4404333"><ele>144.0</ele><time>2026-03-28T18:01:32.847Z</time></trkpt><trkpt lat="45.4757667" lon="10.44016"><ele>143.33333333333334</ele><time>2026-03-28T18:01:33.847Z</time></trkpt><trkpt lat="45.4758583" lon="10.4398833"><ele>142.66666666666669</ele><time>2026-03-28T18:01:34.848Z</time></trkpt><trkpt lat="45.4759583" lon="10.4395933"><ele>142.0</ele><time>2026-03-28T18:01:35.847Z</time></trkpt><trkpt lat="45.476055" lon="10.43929"><ele>141.5</ele><time>2026-03-28T18:01:36.848Z</time></trkpt><trkpt lat="45.4761567" lon="10.4389717"><ele>141.0</ele><time>2026-03-28T18:01:37.848Z</time></trkpt><trkpt lat="45.476255" lon="10.4386567"><ele>142.0</ele><time>2026-03-28T18:01:38.847Z</time></trkpt><trkpt lat="45.47635" lon="10.4383233"><ele>143.0</ele><time>2026-03-28T18:01:39.847Z</time></trkpt><trkpt lat="45.47645" lon="10.43799"><ele>143.0</ele><time>2026-03-28T18:01:40.848Z</time></trkpt><trkpt lat="45.47655" lon="10.4376467"><ele>143.0</ele><time>2026-03-28T18:01:41.847Z</time></trkpt><trkpt lat="45.4766567" lon="10.4372933"><ele>143.0</ele><time>2026-03-28T18:01:42.847Z</time></trkpt><trkpt lat="45.4767617" lon="10.4369433"><ele>143.0</ele><time>2026-03-28T18:01:43.848Z</time></trkpt><trkpt lat="45.4768667" lon="10.436595"><ele>143.0</ele><time>2026-03-28T18:01:44.848Z</time></trkpt><trkpt lat="45.4769733" lon="10.4362383"><ele>143.0</ele><time>2026-03-28T18:01:45.847Z</time></trkpt><trkpt lat="45.4770733" lon="10.4358767"><ele>143.0</ele><time>2026-03-28T18:01:46.847Z</time></trkpt><trkpt lat="45.4771817" lon="10.4355117"><ele>143.0</ele><time>2026-03-28T18:01:47.848Z</time></trkpt><trkpt lat="45.4772967" lon="10.4351483"><ele>143.0</ele><time>2026-03-28T18:01:48.847Z</time></trkpt><trkpt lat="45.4774167" lon="10.4347767"><ele>143.0</ele><time>2026-03-28T18:01:49.847Z</time></trkpt><trkpt lat="45.4775317" lon="10.4344217"><ele>143.0</ele><time>2026-03-28T18:01:50.848Z</time></trkpt><trkpt lat="45.4776383" lon="10.4340783"><ele>143.0</ele><time>2026-03-28T18:01:51.848Z</time></trkpt><trkpt lat="45.4777383" lon="10.43375"><ele>142.5</ele><time>2026-03-28T18:01:52.847Z</time></trkpt><trkpt lat="45.477835" lon="10.4334433"><ele>142.0</ele><time>2026-03-28T18:01:53.847Z</time></trkpt><trkpt lat="45.4779283" lon="10.43315"><ele>141.0</ele><time>2026-03-28T18:01:54.848Z</time></trkpt><trkpt lat="45.4780183" lon="10.4328483"><ele>140.0</ele><time>2026-03-28T18:01:55.847Z</time></trkpt><trkpt lat="45.47811" lon="10.43254"><ele>140.0</ele><time>2026-03-28T18:01:56.847Z</time></trkpt><trkpt lat="45.4782033" lon="10.4322317"><ele>140.0</ele><time>2026-03-28T18:01:57.848Z</time></trkpt><trkpt lat="45.4783" lon="10.4319283"><ele>140.5</ele><time>2026-03-28T18:01:58.847Z</time></trkpt><trkpt lat="45.4783917" lon="10.4316167"><ele>141.0</ele><time>2026-03-28T18:01:59.847Z</time></trkpt><trkpt lat="45.4784883" lon="10.431305"><ele>141.5</ele><time>2026-03-28T18:02:00.847Z</time></trkpt><trkpt lat="45.4785717" lon="10.4310017"><ele>142.0</ele><time>2026-03-28T18:02:01.848Z</time></trkpt><trkpt lat="45.4786667" lon="10.4307083"><ele>141.66666666666669</ele><time>2026-03-28T18:02:02.847Z</time></trkpt><trkpt lat="45.4787517" lon="10.430415"><ele>141.33333333333334</ele><time>2026-03-28T18:02:03.848Z</time></trkpt><trkpt lat="45.4788483" lon="10.43014"><ele>141.0</ele><time>2026-03-28T18:02:04.847Z</time></trkpt><trkpt lat="45.4789333" lon="10.4298683"><ele>141.33333333333334</ele><time>2026-03-28T18:02:05.847Z</time></trkpt><trkpt lat="45.4790167" lon="10.429605"><ele>141.66666666666669</ele><time>2026-03-28T18:02:06.847Z</time></trkpt><trkpt lat="45.479095" lon="10.42935"><ele>142.0</ele><time>2026-03-28T18:02:07.848Z</time></trkpt><trkpt lat="45.4791683" lon="10.4290983"><ele>142.0</ele><time>2026-03-28T18:02:08.847Z</time></trkpt><trkpt lat="45.479245" lon="10.4288433"><ele>142.0</ele><time>2026-03-28T18:02:09.847Z</time></trkpt><trkpt lat="45.4793133" lon="10.4286067"><ele>142.0</ele><time>2026-03-28T18:02:10.848Z</time></trkpt><trkpt lat="45.4793883" lon="10.4283617"><ele>142.0</ele><time>2026-03-28T18:02:11.847Z</time></trkpt><trkpt lat="45.4794617" lon="10.42811"><ele>142.0</ele><time>2026-03-28T18:02:12.847Z</time></trkpt><trkpt lat="45.4795367" lon="10.4278833"><ele>142.0</ele><time>2026-03-28T18:02:13.847Z</time></trkpt><trkpt lat="45.47961" lon="10.4276533"><ele>142.0</ele><time>2026-03-28T18:02:14.848Z</time></trkpt><trkpt lat="45.4796817" lon="10.4274167"><ele>142.0</ele><time>2026-03-28T18:02:15.848Z</time></trkpt><trkpt lat="45.4797467" lon="10.42718"><ele>142.0</ele><time>2026-03-28T18:02:16.848Z</time></trkpt><trkpt lat="45.4798183" lon="10.4269483"><ele>142.0</ele><time>2026-03-28T18:02:17.848Z</time></trkpt><trkpt lat="45.479885" lon="10.4267067"><ele>142.0</ele><time>2026-03-28T18:02:18.848Z</time></trkpt><trkpt lat="45.4799567" lon="10.42648"><ele>142.0</ele><time>2026-03-28T18:02:19.847Z</time></trkpt><trkpt lat="45.48003" lon="10.4262467"><ele>142.66666666666669</ele><time>2026-03-28T18:02:20.847Z</time></trkpt><trkpt lat="45.4800967" lon="10.426025"><ele>143.33333333333334</ele><time>2026-03-28T18:02:21.848Z</time></trkpt><trkpt lat="45.48017" lon="10.4258117"><ele>144.0</ele><time>2026-03-28T18:02:22.847Z</time></trkpt><trkpt lat="45.4802367" lon="10.42559"><ele>144.66666666666666</ele><time>2026-03-28T18:02:23.847Z</time></trkpt><trkpt lat="45.480315" lon="10.42538"><ele>145.33333333333331</ele><time>2026-03-28T18:02:24.847Z</time></trkpt><trkpt lat="45.480385" lon="10.425165"><ele>146.0</ele><time>2026-03-28T18:02:25.847Z</time></trkpt><trkpt lat="45.4804467" lon="10.4249333"><ele>146.33333333333331</ele><time>2026-03-28T18:02:26.848Z</time></trkpt><trkpt lat="45.480515" lon="10.42471"><ele>146.66666666666666</ele><time>2026-03-28T18:02:27.848Z</time></trkpt><trkpt lat="45.480595" lon="10.4244817"><ele>147.0</ele><time>2026-03-28T18:02:28.847Z</time></trkpt><trkpt lat="45.4806617" lon="10.4242417"><ele>147.33333333333334</ele><time>2026-03-28T18:02:29.848Z</time></trkpt><trkpt lat="45.4807217" lon="10.4239983"><ele>147.66666666666669</ele><time>2026-03-28T18:02:30.847Z</time></trkpt><trkpt lat="45.4807833" lon="10.4237583"><ele>148.0</ele><time>2026-03-28T18:02:31.847Z</time></trkpt><trkpt lat="45.48085" lon="10.4235283"><ele>148.0</ele><time>2026-03-28T18:02:32.847Z</time></trkpt><trkpt lat="45.4809067" lon="10.423305"><ele>148.0</ele><time>2026-03-28T18:02:33.847Z</time></trkpt><trkpt lat="45.4809817" lon="10.423095"><ele>148.0</ele><time>2026-03-28T18:02:34.847Z</time></trkpt><trkpt lat="45.481045" lon="10.422885"><ele>148.33333333333334</ele><time>2026-03-28T18:02:35.848Z</time></trkpt><trkpt lat="45.4811067" lon="10.422665"><ele>148.66666666666666</ele><time>2026-03-28T18:02:36.847Z</time></trkpt><trkpt lat="45.4811683" lon="10.422435"><ele>149.0</ele><time>2026-03-28T18:02:37.847Z</time></trkpt><trkpt lat="45.48122" lon="10.4222033"><ele>149.66666666666666</ele><time>2026-03-28T18:02:38.848Z</time></trkpt><trkpt lat="45.4812667" lon="10.4219583"><ele>150.33333333333334</ele><time>2026-03-28T18:02:39.848Z</time></trkpt><trkpt lat="45.48131" lon="10.42171"><ele>151.0</ele><time>2026-03-28T18:02:40.847Z</time></trkpt><trkpt lat="45.481345" lon="10.4214533"><ele>152.0</ele><time>2026-03-28T18:02:41.848Z</time></trkpt><trkpt lat="45.4813867" lon="10.421195"><ele>153.0</ele><time>2026-03-28T18:02:42.847Z</time></trkpt><trkpt lat="45.481425" lon="10.420935"><ele>154.0</ele><time>2026-03-28T18:02:43.848Z</time></trkpt><trkpt lat="45.4814683" lon="10.420665"><ele>155.0</ele><time>2026-03-28T18:02:44.848Z</time></trkpt><trkpt lat="45.4815117" lon="10.4203967"><ele>156.0</ele><time>2026-03-28T18:02:45.847Z</time></trkpt><trkpt lat="45.4815533" lon="10.4201317"><ele>157.0</ele><time>2026-03-28T18:02:46.847Z</time></trkpt><trkpt lat="45.4815967" lon="10.4198683"><ele>157.5</ele><time>2026-03-28T18:02:47.848Z</time></trkpt><trkpt lat="45.4816383" lon="10.419605"><ele>158.0</ele><time>2026-03-28T18:02:48.847Z</time></trkpt><trkpt lat="45.4800517" lon="10.40543"><ele>150.0</ele><time>2026-03-28T18:03:49.844Z</time></trkpt><trkpt lat="45.4800967" lon="10.4052167"><ele>142.0</ele><time>2026-03-28T18:03:50.844Z</time></trkpt><trkpt lat="45.480095" lon="10.4049833"><ele>134.0</ele><time>2026-03-28T18:03:51.843Z</time></trkpt><trkpt lat="45.4801117" lon="10.40475"><ele>134.33333333333331</ele><time>2026-03-28T18:03:52.844Z</time></trkpt><trkpt lat="45.480135" lon="10.4045167"><ele>134.66666666666666</ele><time>2026-03-28T18:03:53.843Z</time></trkpt><trkpt lat="45.4801683" lon="10.4042833"><ele>135.0</ele><time>2026-03-28T18:03:54.844Z</time></trkpt><trkpt lat="45.4802083" lon="10.40405"><ele>135.0</ele><time>2026-03-28T18:03:55.844Z</time></trkpt><trkpt lat="45.48026" lon="10.4038"><ele>135.0</ele><time>2026-03-28T18:03:56.843Z</time></trkpt><trkpt lat="45.480315" lon="10.403545"><ele>135.0</ele><time>2026-03-28T18:03:57.843Z</time></trkpt><trkpt lat="45.48038" lon="10.4032667"><ele>135.66666666666666</ele><time>2026-03-28T18:03:58.844Z</time></trkpt><trkpt lat="45.4804433" lon="10.402975"><ele>136.33333333333331</ele><time>2026-03-28T18:03:59.843Z</time></trkpt><trkpt lat="45.48052" lon="10.40267"><ele>137.0</ele><time>2026-03-28T18:04:00.844Z</time></trkpt><trkpt lat="45.4805867" lon="10.4023617"><ele>137.0</ele><time>2026-03-28T18:04:01.843Z</time></trkpt><trkpt lat="45.4806717" lon="10.4020667"><ele>137.0</ele><time>2026-03-28T18:04:02.843Z</time></trkpt><trkpt lat="45.480745" lon="10.401785"><ele>137.0</ele><time>2026-03-28T18:04:03.844Z</time></trkpt><trkpt lat="45.4808167" lon="10.4015083"><ele>136.66666666666666</ele><time>2026-03-28T18:04:04.843Z</time></trkpt><trkpt lat="45.480885" lon="10.4012417"><ele>136.33333333333334</ele><time>2026-03-28T18:04:05.843Z</time></trkpt><trkpt lat="45.4809583" lon="10.40097"><ele>136.0</ele><time>2026-03-28T18:04:06.843Z</time></trkpt><trkpt lat="45.4810317" lon="10.4006967"><ele>136.0</ele><time>2026-03-28T18:04:07.844Z</time></trkpt><trkpt lat="45.4811" lon="10.40041"><ele>136.0</ele><time>2026-03-28T18:04:08.843Z</time></trkpt><trkpt lat="45.4811717" lon="10.400125"><ele>136.0</ele><time>2026-03-28T18:04:09.843Z</time></trkpt><trkpt lat="45.481245" lon="10.39983"><ele>135.5</ele><time>2026-03-28T18:04:10.843Z</time></trkpt><trkpt lat="45.4813267" lon="10.399525"><ele>135.0</ele><time>2026-03-28T18:04:11.844Z</time></trkpt><trkpt lat="45.4814017" lon="10.3992283"><ele>135.0</ele><time>2026-03-28T18:04:12.844Z</time></trkpt><trkpt lat="45.4814783" lon="10.3989433"><ele>135.0</ele><time>2026-03-28T18:04:13.844Z</time></trkpt><trkpt lat="45.4815467" lon="10.398685"><ele>135.0</ele><time>2026-03-28T18:04:14.844Z</time></trkpt><trkpt lat="45.4816117" lon="10.3984233"><ele>135.0</ele><time>2026-03-28T18:04:15.843Z</time></trkpt><trkpt lat="45.48167" lon="10.39818"><ele>135.0</ele><time>2026-03-28T18:04:16.844Z</time></trkpt><trkpt lat="45.4817333" lon="10.3979333"><ele>135.0</ele><time>2026-03-28T18:04:17.843Z</time></trkpt><trkpt lat="45.4817917" lon="10.3977033"><ele>135.0</ele><time>2026-03-28T18:04:18.844Z</time></trkpt><trkpt lat="45.4818567" lon="10.3974583"><ele>135.0</ele><time>2026-03-28T18:04:19.843Z</time></trkpt><trkpt lat="45.481915" lon="10.39722"><ele>135.0</ele><time>2026-03-28T18:04:20.844Z</time></trkpt><trkpt lat="45.4819783" lon="10.3969867"><ele>135.0</ele><time>2026-03-28T18:04:21.844Z</time></trkpt><trkpt lat="45.482035" lon="10.3967567"><ele>135.0</ele><time>2026-03-28T18:04:22.844Z</time></trkpt><trkpt lat="45.4820917" lon="10.396525"><ele>135.0</ele><time>2026-03-28T18:04:23.843Z</time></trkpt><trkpt lat="45.4821583" lon="10.3963"><ele>135.33333333333334</ele><time>2026-03-28T18:04:24.844Z</time></trkpt><trkpt lat="45.4822183" lon="10.39605"><ele>135.66666666666669</ele><time>2026-03-28T18:04:25.844Z</time></trkpt><trkpt lat="45.48228" lon="10.395795"><ele>136.0</ele><time>2026-03-28T18:04:26.843Z</time></trkpt><trkpt lat="45.4823417" lon="10.39552"><ele>136.33333333333334</ele><time>2026-03-28T18:04:27.843Z</time></trkpt><trkpt lat="45.48241" lon="10.39524"><ele>136.66666666666666</ele><time>2026-03-28T18:04:28.843Z</time></trkpt><trkpt lat="45.4824833" lon="10.3949417"><ele>137.0</ele><time>2026-03-28T18:04:29.843Z</time></trkpt><trkpt lat="45.482565" lon="10.3946367"><ele>137.5</ele><time>2026-03-28T18:04:30.843Z</time></trkpt><trkpt lat="45.482645" lon="10.394335"><ele>138.0</ele><time>2026-03-28T18:04:31.844Z</time></trkpt><trkpt lat="45.4827367" lon="10.394015"><ele>140.0</ele><time>2026-03-28T18:04:32.843Z</time></trkpt><trkpt lat="45.4828217" lon="10.3936883"><ele>142.0</ele><time>2026-03-28T18:04:33.844Z</time></trkpt><trkpt lat="45.482915" lon="10.3933633"><ele>142.0</ele><time>2026-03-28T18:04:34.844Z</time></trkpt><trkpt lat="45.4830033" lon="10.3930317"><ele>142.0</ele><time>2026-03-28T18:04:35.843Z</time></trkpt><trkpt lat="45.48309" lon="10.3927"><ele>142.0</ele><time>2026-03-28T18:04:36.843Z</time></trkpt><trkpt lat="45.48317" lon="10.3923533"><ele>142.0</ele><time>2026-03-28T18:04:37.844Z</time></trkpt><trkpt lat="45.483255" lon="10.3920283"><ele>142.0</ele><time>2026-03-28T18:04:38.843Z</time></trkpt><trkpt lat="45.48334" lon="10.3916867"><ele>142.0</ele><time>2026-03-28T18:04:39.843Z</time></trkpt><trkpt lat="45.4834217" lon="10.3913483"><ele>141.5</ele><time>2026-03-28T18:04:40.844Z</time></trkpt><trkpt lat="45.483515" lon="10.3910017"><ele>141.0</ele><time>2026-03-28T18:04:41.844Z</time></trkpt><trkpt lat="45.4836133" lon="10.3906767"><ele>142.5</ele><time>2026-03-28T18:04:42.844Z</time></trkpt><trkpt lat="45.4837217" lon="10.3903317"><ele>144.0</ele><time>2026-03-28T18:04:43.844Z</time></trkpt><trkpt lat="45.4838233" lon="10.3899933"><ele>145.0</ele><time>2026-03-28T18:04:44.843Z</time></trkpt><trkpt lat="45.4839233" lon="10.3896517"><ele>146.0</ele><time>2026-03-28T18:04:45.843Z</time></trkpt><trkpt lat="45.4840183" lon="10.389335"><ele>146.0</ele><time>2026-03-28T18:04:46.844Z</time></trkpt><trkpt lat="45.484105" lon="10.389025"><ele>146.0</ele><time>2026-03-28T18:04:47.843Z</time></trkpt><trkpt lat="45.48418" lon="10.3887333"><ele>145.0</ele><time>2026-03-28T18:04:48.844Z</time></trkpt><trkpt lat="45.48426" lon="10.38844"><ele>144.0</ele><time>2026-03-28T18:04:49.844Z</time></trkpt><trkpt lat="45.4843383" lon="10.38815"><ele>143.0</ele><time>2026-03-28T18:04:50.843Z</time></trkpt><trkpt lat="45.4844217" lon="10.3878683"><ele>143.0</ele><time>2026-03-28T18:04:51.844Z</time></trkpt><trkpt lat="45.4844933" lon="10.387575"><ele>143.0</ele><time>2026-03-28T18:04:52.843Z</time></trkpt><trkpt lat="45.48457" lon="10.3873083"><ele>143.0</ele><time>2026-03-28T18:04:53.843Z</time></trkpt><trkpt lat="45.4846533" lon="10.3870283"><ele>143.0</ele><time>2026-03-28T18:04:54.844Z</time></trkpt><trkpt lat="45.4847283" lon="10.386755"><ele>143.0</ele><time>2026-03-28T18:04:55.844Z</time></trkpt><trkpt lat="45.484805" lon="10.3864917"><ele>143.0</ele><time>2026-03-28T18:04:56.843Z</time></trkpt><trkpt lat="45.48488" lon="10.3862283"><ele>143.33333333333331</ele><time>2026-03-28T18:04:57.844Z</time></trkpt><trkpt lat="45.4849533" lon="10.3859833"><ele>143.66666666666666</ele><time>2026-03-28T18:04:58.843Z</time></trkpt><trkpt lat="45.4850267" lon="10.38572"><ele>144.0</ele><time>2026-03-28T18:04:59.843Z</time></trkpt><trkpt lat="45.4850933" lon="10.3854367"><ele>144.0</ele><time>2026-03-28T18:05:00.843Z</time></trkpt><trkpt lat="45.4851667" lon="10.3851517"><ele>144.0</ele><time>2026-03-28T18:05:01.843Z</time></trkpt><trkpt lat="45.48524" lon="10.3848617"><ele>144.0</ele><time>2026-03-28T18:05:02.843Z</time></trkpt><trkpt lat="45.485305" lon="10.3845667"><ele>144.0</ele><time>2026-03-28T18:05:03.843Z</time></trkpt><trkpt lat="45.4853733" lon="10.3842433"><ele>144.0</ele><time>2026-03-28T18:05:04.844Z</time></trkpt><trkpt lat="45.48544" lon="10.3839167"><ele>144.0</ele><time>2026-03-28T18:05:05.843Z</time></trkpt><trkpt lat="45.485485" lon="10.3835867"><ele>144.0</ele><time>2026-03-28T18:05:06.844Z</time></trkpt><trkpt lat="45.4855183" lon="10.3832417"><ele>144.5</ele><time>2026-03-28T18:05:07.843Z</time></trkpt><trkpt lat="45.485555" lon="10.382885"><ele>145.0</ele><time>2026-03-28T18:05:08.843Z</time></trkpt><trkpt lat="45.48558" lon="10.38254"><ele>145.0</ele><time>2026-03-28T18:05:09.843Z</time></trkpt><trkpt lat="45.4855983" lon="10.382185"><ele>145.0</ele><time>2026-03-28T18:05:10.843Z</time></trkpt><trkpt lat="45.48561" lon="10.38183"><ele>145.0</ele><time>2026-03-28T18:05:11.843Z</time></trkpt><trkpt lat="45.48562" lon="10.3815083"><ele>145.0</ele><time>2026-03-28T18:05:12.844Z</time></trkpt><trkpt lat="45.485625" lon="10.38119"><ele>145.0</ele><time>2026-03-28T18:05:13.844Z</time></trkpt><trkpt lat="45.485615" lon="10.3808667"><ele>144.66666666666669</ele><time>2026-03-28T18:05:14.843Z</time></trkpt><trkpt lat="45.4856017" lon="10.380555"><ele>144.33333333333334</ele><time>2026-03-28T18:05:15.843Z</time></trkpt><trkpt lat="45.4855817" lon="10.3802583"><ele>144.0</ele><time>2026-03-28T18:05:16.844Z</time></trkpt><trkpt lat="45.4855533" lon="10.379975"><ele>144.0</ele><time>2026-03-28T18:05:17.843Z</time></trkpt><trkpt lat="45.4855217" lon="10.3796917"><ele>144.0</ele><time>2026-03-28T18:05:18.843Z</time></trkpt><trkpt lat="45.4854767" lon="10.3794183"><ele>144.0</ele><time>2026-03-28T18:05:19.843Z</time></trkpt><trkpt lat="45.4854333" lon="10.37915"><ele>143.66666666666666</ele><time>2026-03-28T18:05:20.843Z</time></trkpt><trkpt lat="45.4853783" lon="10.3788867"><ele>143.33333333333331</ele><time>2026-03-28T18:05:21.843Z</time></trkpt><trkpt lat="45.4853233" lon="10.3786233"><ele>143.0</ele><time>2026-03-28T18:05:22.844Z</time></trkpt><trkpt lat="45.4852717" lon="10.37836"><ele>143.66666666666666</ele><time>2026-03-28T18:05:23.844Z</time></trkpt><trkpt lat="45.4852083" lon="10.37811"><ele>144.33333333333334</ele><time>2026-03-28T18:05:24.843Z</time></trkpt><trkpt lat="45.485145" lon="10.3778633"><ele>145.0</ele><time>2026-03-28T18:05:25.844Z</time></trkpt><trkpt lat="45.48507" lon="10.3776083"><ele>145.0</ele><time>2026-03-28T18:05:26.844Z</time></trkpt><trkpt lat="45.4849967" lon="10.37736"><ele>145.0</ele><time>2026-03-28T18:05:27.844Z</time></trkpt><trkpt lat="45.484925" lon="10.3771167"><ele>145.0</ele><time>2026-03-28T18:05:28.844Z</time></trkpt><trkpt lat="45.48485" lon="10.376875"><ele>144.66666666666669</ele><time>2026-03-28T18:05:29.844Z</time></trkpt><trkpt lat="45.4847767" lon="10.3766267"><ele>144.33333333333334</ele><time>2026-03-28T18:05:30.844Z</time></trkpt><trkpt lat="45.4846833" lon="10.3763833"><ele>144.0</ele><time>2026-03-28T18:05:31.843Z</time></trkpt><trkpt lat="45.4845933" lon="10.3761383"><ele>144.0</ele><time>2026-03-28T18:05:32.844Z</time></trkpt><trkpt lat="45.4845217" lon="10.3759033"><ele>144.0</ele><time>2026-03-28T18:05:33.844Z</time></trkpt><trkpt lat="45.4844383" lon="10.37567"><ele>144.0</ele><time>2026-03-28T18:05:34.843Z</time></trkpt><trkpt lat="45.4843583" lon="10.3754333"><ele>143.66666666666666</ele><time>2026-03-28T18:05:35.844Z</time></trkpt><trkpt lat="45.484265" lon="10.3751817"><ele>143.33333333333331</ele><time>2026-03-28T18:05:36.844Z</time></trkpt><trkpt lat="45.4841933" lon="10.37494"><ele>143.0</ele><time>2026-03-28T18:05:37.843Z</time></trkpt><trkpt lat="45.4841217" lon="10.3746933"><ele>143.33333333333331</ele><time>2026-03-28T18:05:38.844Z</time></trkpt><trkpt lat="45.484045" lon="10.3744467"><ele>143.66666666666666</ele><time>2026-03-28T18:05:39.844Z</time></trkpt><trkpt lat="45.4839633" lon="10.374205"><ele>144.0</ele><time>2026-03-28T18:05:40.843Z</time></trkpt><trkpt lat="45.4838783" lon="10.37395"><ele>144.0</ele><time>2026-03-28T18:05:41.843Z</time></trkpt><trkpt lat="45.4837917" lon="10.3736967"><ele>144.0</ele><time>2026-03-28T18:05:42.843Z</time></trkpt><trkpt lat="45.4836967" lon="10.3734317"><ele>144.0</ele><time>2026-03-28T18:05:43.844Z</time></trkpt><trkpt lat="45.483605" lon="10.3731583"><ele>144.0</ele><time>2026-03-28T18:05:44.843Z</time></trkpt><trkpt lat="45.48351" lon="10.37287"><ele>144.0</ele><time>2026-03-28T18:05:45.843Z</time></trkpt><trkpt lat="45.48341" lon="10.3725733"><ele>144.0</ele><time>2026-03-28T18:05:46.844Z</time></trkpt><trkpt lat="45.4833067" lon="10.3722767"><ele>144.0</ele><time>2026-03-28T18:05:47.843Z</time></trkpt><trkpt lat="45.4832033" lon="10.3719767"><ele>143.5</ele><time>2026-03-28T18:05:48.844Z</time></trkpt><trkpt lat="45.483095" lon="10.3716783"><ele>143.0</ele><time>2026-03-28T18:05:49.843Z</time></trkpt><trkpt lat="45.4830017" lon="10.371385"><ele>142.5</ele><time>2026-03-28T18:05:50.844Z</time></trkpt><trkpt lat="45.4829067" lon="10.3710833"><ele>142.0</ele><time>2026-03-28T18:05:51.844Z</time></trkpt><trkpt lat="45.482815" lon="10.3707683"><ele>143.0</ele><time>2026-03-28T18:05:52.844Z</time></trkpt><trkpt lat="45.4827167" lon="10.3704667"><ele>144.0</ele><time>2026-03-28T18:05:53.844Z</time></trkpt><trkpt lat="45.4826183" lon="10.3701633"><ele>144.0</ele><time>2026-03-28T18:05:54.843Z</time></trkpt><trkpt lat="45.4825167" lon="10.3698617"><ele>144.0</ele><time>2026-03-28T18:05:55.844Z</time></trkpt><trkpt lat="45.4824317" lon="10.3695733"><ele>143.66666666666666</ele><time>2026-03-28T18:05:56.844Z</time></trkpt><trkpt lat="45.482335" lon="10.3692983"><ele>143.33333333333331</ele><time>2026-03-28T18:05:57.844Z</time></trkpt><trkpt lat="45.4822417" lon="10.36903"><ele>143.0</ele><time>2026-03-28T18:05:58.844Z</time></trkpt><trkpt lat="45.4821567" lon="10.368765"><ele>143.0</ele><time>2026-03-28T18:05:59.843Z</time></trkpt><trkpt lat="45.4820667" lon="10.3684967"><ele>143.0</ele><time>2026-03-28T18:06:00.843Z</time></trkpt><trkpt lat="45.481985" lon="10.3682333"><ele>143.0</ele><time>2026-03-28T18:06:01.843Z</time></trkpt><trkpt lat="45.4818967" lon="10.36798"><ele>142.66666666666666</ele><time>2026-03-28T18:06:02.844Z</time></trkpt><trkpt lat="45.481815" lon="10.3677567"><ele>142.33333333333334</ele><time>2026-03-28T18:06:03.843Z</time></trkpt><trkpt lat="45.4817383" lon="10.3675133"><ele>142.0</ele><time>2026-03-28T18:06:04.843Z</time></trkpt><trkpt lat="45.481665" lon="10.3672883"><ele>142.0</ele><time>2026-03-28T18:06:05.844Z</time></trkpt><trkpt lat="45.4815883" lon="10.3670517"><ele>142.0</ele><time>2026-03-28T18:06:06.844Z</time></trkpt><trkpt lat="45.4815017" lon="10.3668217"><ele>142.0</ele><time>2026-03-28T18:06:07.843Z</time></trkpt><trkpt lat="45.4814267" lon="10.366595"><ele>142.0</ele><time>2026-03-28T18:06:08.843Z</time></trkpt><trkpt lat="45.48135" lon="10.366345"><ele>142.0</ele><time>2026-03-28T18:06:09.844Z</time></trkpt><trkpt lat="45.48129" lon="10.3661133"><ele>142.0</ele><time>2026-03-28T18:06:10.843Z</time></trkpt><trkpt lat="45.4812367" lon="10.3659167"><ele>141.5</ele><time>2026-03-28T18:06:11.844Z</time></trkpt><trkpt lat="45.4811767" lon="10.3657367"><ele>141.0</ele><time>2026-03-28T18:06:12.844Z</time></trkpt><trkpt lat="45.48111" lon="10.3655533"><ele>140.5</ele><time>2026-03-28T18:06:13.844Z</time></trkpt><trkpt lat="45.4810417" lon="10.3653917"><ele>140.0</ele><time>2026-03-28T18:06:14.843Z</time></trkpt><trkpt lat="45.48097" lon="10.3652267"><ele>140.0</ele><time>2026-03-28T18:06:15.844Z</time></trkpt><trkpt lat="45.480905" lon="10.3650667"><ele>140.0</ele><time>2026-03-28T18:06:16.843Z</time></trkpt><trkpt lat="45.48084" lon="10.3649183"><ele>140.0</ele><time>2026-03-28T18:06:17.843Z</time></trkpt><trkpt lat="45.4807633" lon="10.3647767"><ele>140.0</ele><time>2026-03-28T18:06:18.844Z</time></trkpt><trkpt lat="45.4806867" lon="10.3646217"><ele>140.0</ele><time>2026-03-28T18:06:19.843Z</time></trkpt><trkpt lat="45.480615" lon="10.36445"><ele>140.0</ele><time>2026-03-28T18:06:20.843Z</time></trkpt><trkpt lat="45.4805467" lon="10.3642633"><ele>140.0</ele><time>2026-03-28T18:06:21.844Z</time></trkpt><trkpt lat="45.4804817" lon="10.3640733"><ele>140.0</ele><time>2026-03-28T18:06:22.843Z</time></trkpt><trkpt lat="45.480415" lon="10.3638867"><ele>140.66666666666666</ele><time>2026-03-28T18:06:23.843Z</time></trkpt><trkpt lat="45.4803467" lon="10.363685"><ele>141.33333333333334</ele><time>2026-03-28T18:06:24.844Z</time></trkpt><trkpt lat="45.4802833" lon="10.36346"><ele>142.0</ele><time>2026-03-28T18:06:25.844Z</time></trkpt><trkpt lat="45.480205" lon="10.36324"><ele>141.66666666666669</ele><time>2026-03-28T18:06:26.843Z</time></trkpt><trkpt lat="45.4801367" lon="10.3630233"><ele>141.33333333333334</ele><time>2026-03-28T18:06:27.844Z</time></trkpt><trkpt lat="45.480085" lon="10.3628067"><ele>141.0</ele><time>2026-03-28T18:06:28.843Z</time></trkpt><trkpt lat="45.48003" lon="10.3625783"><ele>141.0</ele><time>2026-03-28T18:06:29.844Z</time></trkpt><trkpt lat="45.4799817" lon="10.3623667"><ele>141.0</ele><time>2026-03-28T18:06:30.844Z</time></trkpt><trkpt lat="45.4799433" lon="10.362165"><ele>141.0</ele><time>2026-03-28T18:06:31.844Z</time></trkpt><trkpt lat="45.4799017" lon="10.3619517"><ele>141.0</ele><time>2026-03-28T18:06:32.843Z</time></trkpt><trkpt lat="45.4798583" lon="10.3617533"><ele>141.0</ele><time>2026-03-28T18:06:33.843Z</time></trkpt><trkpt lat="45.4797967" lon="10.36155"><ele>141.0</ele><time>2026-03-28T18:06:34.844Z</time></trkpt><trkpt lat="45.47974" lon="10.3613367"><ele>141.0</ele><time>2026-03-28T18:06:35.843Z</time></trkpt><trkpt lat="45.4796833" lon="10.3611333"><ele>141.0</ele><time>2026-03-28T18:06:36.844Z</time></trkpt><trkpt lat="45.4796333" lon="10.3609217"><ele>141.0</ele><time>2026-03-28T18:06:37.843Z</time></trkpt><trkpt lat="45.4795733" lon="10.360695"><ele>141.0</ele><time>2026-03-28T18:06:38.843Z</time></trkpt><trkpt lat="45.47952" lon="10.3604617"><ele>141.0</ele><time>2026-03-28T18:06:39.843Z</time></trkpt><trkpt lat="45.479475" lon="10.3602267"><ele>141.0</ele><time>2026-03-28T18:06:40.844Z</time></trkpt><trkpt lat="45.479435" lon="10.359985"><ele>141.0</ele><time>2026-03-28T18:06:41.844Z</time></trkpt><trkpt lat="45.4793817" lon="10.3597267"><ele>141.0</ele><time>2026-03-28T18:06:42.844Z</time></trkpt><trkpt lat="45.4793333" lon="10.3594583"><ele>141.0</ele><time>2026-03-28T18:06:43.843Z</time></trkpt><trkpt lat="45.4792883" lon="10.359175"><ele>140.33333333333334</ele><time>2026-03-28T18:06:44.843Z</time></trkpt><trkpt lat="45.4792467" lon="10.3588983"><ele>139.66666666666669</ele><time>2026-03-28T18:06:45.844Z</time></trkpt><trkpt lat="45.479205" lon="10.3586267"><ele>139.0</ele><time>2026-03-28T18:06:46.843Z</time></trkpt><trkpt lat="45.4791767" lon="10.3583583"><ele>138.66666666666669</ele><time>2026-03-28T18:06:47.844Z</time></trkpt><trkpt lat="45.4791483" lon="10.3580867"><ele>138.33333333333334</ele><time>2026-03-28T18:06:48.843Z</time></trkpt><trkpt lat="45.4791233" lon="10.3578183"><ele>138.0</ele><time>2026-03-28T18:06:49.843Z</time></trkpt><trkpt lat="45.479095" lon="10.3575383"><ele>138.66666666666666</ele><time>2026-03-28T18:06:50.843Z</time></trkpt><trkpt lat="45.4790767" lon="10.35724"><ele>139.33333333333331</ele><time>2026-03-28T18:06:51.843Z</time></trkpt><trkpt lat="45.47907" lon="10.356945"><ele>140.0</ele><time>2026-03-28T18:06:52.844Z</time></trkpt><trkpt lat="45.4790717" lon="10.3566283"><ele>140.0</ele><time>2026-03-28T18:06:53.843Z</time></trkpt><trkpt lat="45.4790733" lon="10.3563033"><ele>140.0</ele><time>2026-03-28T18:06:54.844Z</time></trkpt><trkpt lat="45.479065" lon="10.3559717"><ele>140.0</ele><time>2026-03-28T18:06:55.843Z</time></trkpt><trkpt lat="45.4790533" lon="10.3556317"><ele>140.0</ele><time>2026-03-28T18:06:56.843Z</time></trkpt><trkpt lat="45.47904" lon="10.35528"><ele>140.5</ele><time>2026-03-28T18:06:57.843Z</time></trkpt><trkpt lat="45.47903" lon="10.35494"><ele>141.0</ele><time>2026-03-28T18:06:58.843Z</time></trkpt><trkpt lat="45.4790217" lon="10.3546117"><ele>141.0</ele><time>2026-03-28T18:06:59.843Z</time></trkpt><trkpt lat="45.4790167" lon="10.3542983"><ele>141.0</ele><time>2026-03-28T18:07:00.843Z</time></trkpt><trkpt lat="45.4790117" lon="10.3539967"><ele>141.0</ele><time>2026-03-28T18:07:01.844Z</time></trkpt><trkpt lat="45.478995" lon="10.3536933"><ele>140.33333333333334</ele><time>2026-03-28T18:07:02.844Z</time></trkpt><trkpt lat="45.47898" lon="10.3534183"><ele>139.66666666666669</ele><time>2026-03-28T18:07:03.844Z</time></trkpt><trkpt lat="45.478975" lon="10.353125"><ele>139.0</ele><time>2026-03-28T18:07:04.844Z</time></trkpt><trkpt lat="45.47898" lon="10.35281"><ele>139.0</ele><time>2026-03-28T18:07:05.844Z</time></trkpt><trkpt lat="45.47898" lon="10.3524817"><ele>139.0</ele><time>2026-03-28T18:07:06.843Z</time></trkpt><trkpt lat="45.4789667" lon="10.35215"><ele>139.0</ele><time>2026-03-28T18:07:07.844Z</time></trkpt><trkpt lat="45.478955" lon="10.3518017"><ele>139.0</ele><time>2026-03-28T18:07:08.843Z</time></trkpt><trkpt lat="45.47894" lon="10.3514417"><ele>140.0</ele><time>2026-03-28T18:07:09.844Z</time></trkpt><trkpt lat="45.4789233" lon="10.3510733"><ele>141.0</ele><time>2026-03-28T18:07:10.844Z</time></trkpt><trkpt lat="45.4789167" lon="10.35069"><ele>140.5</ele><time>2026-03-28T18:07:11.844Z</time></trkpt><trkpt lat="45.4789183" lon="10.350305"><ele>140.0</ele><time>2026-03-28T18:07:12.844Z</time></trkpt><trkpt lat="45.47892" lon="10.3499133"><ele>140.0</ele><time>2026-03-28T18:07:13.844Z</time></trkpt><trkpt lat="45.4789083" lon="10.3495183"><ele>140.0</ele><time>2026-03-28T18:07:14.843Z</time></trkpt><trkpt lat="45.4788983" lon="10.3491333"><ele>140.0</ele><time>2026-03-28T18:07:15.843Z</time></trkpt><trkpt lat="45.478885" lon="10.3487367"><ele>140.0</ele><time>2026-03-28T18:07:16.844Z</time></trkpt><trkpt lat="45.4788767" lon="10.348335"><ele>139.0</ele><time>2026-03-28T18:07:17.843Z</time></trkpt><trkpt lat="45.478875" lon="10.3479267"><ele>138.0</ele><time>2026-03-28T18:07:18.843Z</time></trkpt><trkpt lat="45.4788767" lon="10.3475167"><ele>137.5</ele><time>2026-03-28T18:07:19.843Z</time></trkpt><trkpt lat="45.478895" lon="10.3471283"><ele>137.0</ele><time>2026-03-28T18:07:20.843Z</time></trkpt><trkpt lat="45.4789167" lon="10.3467433"><ele>137.0</ele><time>2026-03-28T18:07:21.843Z</time></trkpt><trkpt lat="45.4789633" lon="10.346375"><ele>137.0</ele><time>2026-03-28T18:07:22.843Z</time></trkpt><trkpt lat="45.4790283" lon="10.3460167"><ele>137.0</ele><time>2026-03-28T18:07:23.844Z</time></trkpt><trkpt lat="45.4790917" lon="10.34568"><ele>137.0</ele><time>2026-03-28T18:07:24.844Z</time></trkpt><trkpt lat="45.4791583" lon="10.3453567"><ele>138.0</ele><time>2026-03-28T18:07:25.844Z</time></trkpt><trkpt lat="45.4792317" lon="10.345045"><ele>139.0</ele><time>2026-03-28T18:07:26.843Z</time></trkpt><trkpt lat="45.479315" lon="10.3447483"><ele>139.0</ele><time>2026-03-28T18:07:27.844Z</time></trkpt><trkpt lat="45.4794" lon="10.3444533"><ele>139.0</ele><time>2026-03-28T18:07:28.843Z</time></trkpt><trkpt lat="45.479495" lon="10.3441883"><ele>139.0</ele><time>2026-03-28T18:07:29.845Z</time></trkpt><trkpt lat="45.4795683" lon="10.34393"><ele>140.0</ele><time>2026-03-28T18:07:30.845Z</time></trkpt><trkpt lat="45.4796333" lon="10.3436783"><ele>141.0</ele><time>2026-03-28T18:07:31.845Z</time></trkpt><trkpt lat="45.4797083" lon="10.343425"><ele>142.0</ele><time>2026-03-28T18:07:32.845Z</time></trkpt><trkpt lat="45.47979" lon="10.3431667"><ele>141.66666666666669</ele><time>2026-03-28T18:07:33.844Z</time></trkpt><trkpt lat="45.4798733" lon="10.3429033"><ele>141.33333333333334</ele><time>2026-03-28T18:07:34.844Z</time></trkpt><trkpt lat="45.4799533" lon="10.3426217"><ele>141.0</ele><time>2026-03-28T18:07:35.845Z</time></trkpt><trkpt lat="45.4800417" lon="10.3423433"><ele>140.0</ele><time>2026-03-28T18:07:36.845Z</time></trkpt><trkpt lat="45.4801433" lon="10.3420567"><ele>139.0</ele><time>2026-03-28T18:07:37.844Z</time></trkpt><trkpt lat="45.4802333" lon="10.341775"><ele>138.0</ele><time>2026-03-28T18:07:38.845Z</time></trkpt><trkpt lat="45.4803217" lon="10.3415"><ele>137.66666666666666</ele><time>2026-03-28T18:07:39.845Z</time></trkpt><trkpt lat="45.4804017" lon="10.3412383"><ele>137.33333333333331</ele><time>2026-03-28T18:07:40.844Z</time></trkpt><trkpt lat="45.4804883" lon="10.3409883"><ele>137.0</ele><time>2026-03-28T18:07:41.844Z</time></trkpt><trkpt lat="45.4805683" lon="10.3407467"><ele>138.0</ele><time>2026-03-28T18:07:42.844Z</time></trkpt><trkpt lat="45.4806467" lon="10.3404967"><ele>139.0</ele><time>2026-03-28T18:07:43.845Z</time></trkpt><trkpt lat="45.4807217" lon="10.34026"><ele>140.0</ele><time>2026-03-28T18:07:44.844Z</time></trkpt><trkpt lat="45.4808017" lon="10.3400433"><ele>140.0</ele><time>2026-03-28T18:07:45.845Z</time></trkpt><trkpt lat="45.4808917" lon="10.339815"><ele>140.0</ele><time>2026-03-28T18:07:46.845Z</time></trkpt><trkpt lat="45.4809833" lon="10.33959"><ele>140.0</ele><time>2026-03-28T18:07:47.844Z</time></trkpt><trkpt lat="45.4810833" lon="10.339375"><ele>139.66666666666666</ele><time>2026-03-28T18:07:48.844Z</time></trkpt><trkpt lat="45.4811767" lon="10.3391533"><ele>139.33333333333334</ele><time>2026-03-28T18:07:49.845Z</time></trkpt><trkpt lat="45.481285" lon="10.3389483"><ele>139.0</ele><time>2026-03-28T18:07:50.845Z</time></trkpt><trkpt lat="45.4813917" lon="10.3387317"><ele>139.0</ele><time>2026-03-28T18:07:51.844Z</time></trkpt><trkpt lat="45.4815117" lon="10.3385217"><ele>139.0</ele><time>2026-03-28T18:07:52.845Z</time></trkpt><trkpt lat="45.4816333" lon="10.338305"><ele>139.0</ele><time>2026-03-28T18:07:53.845Z</time></trkpt><trkpt lat="45.48176" lon="10.3380933"><ele>139.33333333333334</ele><time>2026-03-28T18:07:54.844Z</time></trkpt><trkpt lat="45.48188" lon="10.3379"><ele>139.66666666666666</ele><time>2026-03-28T18:07:55.844Z</time></trkpt><trkpt lat="45.4820033" lon="10.3377267"><ele>140.0</ele><time>2026-03-28T18:07:56.844Z</time></trkpt><trkpt lat="45.4821333" lon="10.3375583"><ele>139.66666666666666</ele><time>2026-03-28T18:07:57.845Z</time></trkpt><trkpt lat="45.4822617" lon="10.33738"><ele>139.33333333333334</ele><time>2026-03-28T18:07:58.845Z</time></trkpt><trkpt lat="45.48239" lon="10.3371933"><ele>139.0</ele><time>2026-03-28T18:07:59.845Z</time></trkpt><trkpt lat="45.4825167" lon="10.3370067"><ele>139.0</ele><time>2026-03-28T18:08:00.845Z</time></trkpt><trkpt lat="45.4826433" lon="10.3368367"><ele>139.0</ele><time>2026-03-28T18:08:01.845Z</time></trkpt><trkpt lat="45.4827767" lon="10.3366667"><ele>139.0</ele><time>2026-03-28T18:08:02.845Z</time></trkpt><trkpt lat="45.4829033" lon="10.3364917"><ele>138.33333333333334</ele><time>2026-03-28T18:08:03.845Z</time></trkpt><trkpt lat="45.483025" lon="10.3363117"><ele>137.66666666666666</ele><time>2026-03-28T18:08:04.845Z</time></trkpt><trkpt lat="45.48315" lon="10.33614"><ele>137.0</ele><time>2026-03-28T18:08:05.844Z</time></trkpt><trkpt lat="45.4832767" lon="10.3359667"><ele>137.0</ele><time>2026-03-28T18:08:06.845Z</time></trkpt><trkpt lat="45.4833967" lon="10.3357767"><ele>137.0</ele><time>2026-03-28T18:08:07.845Z</time></trkpt><trkpt lat="45.48353" lon="10.3355883"><ele>137.0</ele><time>2026-03-28T18:08:08.845Z</time></trkpt><trkpt lat="45.483665" lon="10.3353967"><ele>137.66666666666666</ele><time>2026-03-28T18:08:09.845Z</time></trkpt><trkpt lat="45.4837933" lon="10.3352083"><ele>138.33333333333334</ele><time>2026-03-28T18:08:10.845Z</time></trkpt><trkpt lat="45.4839183" lon="10.3350233"><ele>139.0</ele><time>2026-03-28T18:08:11.844Z</time></trkpt><trkpt lat="45.4840567" lon="10.3348333"><ele>139.33333333333334</ele><time>2026-03-28T18:08:12.844Z</time></trkpt><trkpt lat="45.4841783" lon="10.3346433"><ele>139.66666666666666</ele><time>2026-03-28T18:08:13.845Z</time></trkpt><trkpt lat="45.4843133" lon="10.3344667"><ele>140.0</ele><time>2026-03-28T18:08:14.845Z</time></trkpt><trkpt lat="45.4844467" lon="10.3342867"><ele>140.0</ele><time>2026-03-28T18:08:15.844Z</time></trkpt><trkpt lat="45.4845833" lon="10.3341067"><ele>140.0</ele><time>2026-03-28T18:08:16.844Z</time></trkpt><trkpt lat="45.4847183" lon="10.3339183"><ele>140.0</ele><time>2026-03-28T18:08:17.844Z</time></trkpt><trkpt lat="45.4848583" lon="10.3337267"><ele>138.66666666666666</ele><time>2026-03-28T18:08:18.844Z</time></trkpt><trkpt lat="45.4849983" lon="10.3335317"><ele>137.33333333333334</ele><time>2026-03-28T18:08:19.845Z</time></trkpt><trkpt lat="45.4851333" lon="10.333335"><ele>136.0</ele><time>2026-03-28T18:08:20.845Z</time></trkpt><trkpt lat="45.4852767" lon="10.3331533"><ele>136.33333333333334</ele><time>2026-03-28T18:08:21.845Z</time></trkpt><trkpt lat="45.4854183" lon="10.3329783"><ele>136.66666666666666</ele><time>2026-03-28T18:08:22.845Z</time></trkpt><trkpt lat="45.4855517" lon="10.3327883"><ele>137.0</ele><time>2026-03-28T18:08:23.844Z</time></trkpt><trkpt lat="45.485685" lon="10.3325867"><ele>137.0</ele><time>2026-03-28T18:08:24.845Z</time></trkpt><trkpt lat="45.4858283" lon="10.3324033"><ele>137.0</ele><time>2026-03-28T18:08:25.844Z</time></trkpt><trkpt lat="45.48596" lon="10.33222"><ele>137.0</ele><time>2026-03-28T18:08:26.844Z</time></trkpt><trkpt lat="45.4860917" lon="10.3320383"><ele>137.0</ele><time>2026-03-28T18:08:27.845Z</time></trkpt><trkpt lat="45.48623" lon="10.3318567"><ele>137.0</ele><time>2026-03-28T18:08:28.844Z</time></trkpt><trkpt lat="45.4863617" lon="10.3316833"><ele>137.0</ele><time>2026-03-28T18:08:29.844Z</time></trkpt><trkpt lat="45.486485" lon="10.331505"><ele>137.0</ele><time>2026-03-28T18:08:30.844Z</time></trkpt><trkpt lat="45.4866033" lon="10.3313217"><ele>137.0</ele><time>2026-03-28T18:08:31.845Z</time></trkpt><trkpt lat="45.4867283" lon="10.3311667"><ele>137.0</ele><time>2026-03-28T18:08:32.844Z</time></trkpt><trkpt lat="45.48685" lon="10.3309933"><ele>137.0</ele><time>2026-03-28T18:08:33.845Z</time></trkpt><trkpt lat="45.4869733" lon="10.3308183"><ele>137.0</ele><time>2026-03-28T18:08:34.844Z</time></trkpt><trkpt lat="45.4870917" lon="10.3306333"><ele>137.0</ele><time>2026-03-28T18:08:35.844Z</time></trkpt><trkpt lat="45.487215" lon="10.3304517"><ele>137.0</ele><time>2026-03-28T18:08:36.845Z</time></trkpt><trkpt lat="45.4873483" lon="10.3302817"><ele>137.0</ele><time>2026-03-28T18:08:37.845Z</time></trkpt><trkpt lat="45.4874867" lon="10.330105"><ele>137.0</ele><time>2026-03-28T18:08:38.844Z</time></trkpt><trkpt lat="45.4876217" lon="10.329925"><ele>137.0</ele><time>2026-03-28T18:08:39.845Z</time></trkpt><trkpt lat="45.4877467" lon="10.329745"><ele>137.0</ele><time>2026-03-28T18:08:40.844Z</time></trkpt><trkpt lat="45.4878733" lon="10.329565"><ele>137.0</ele><time>2026-03-28T18:08:41.844Z</time></trkpt><trkpt lat="45.488" lon="10.3293733"><ele>137.33333333333331</ele><time>2026-03-28T18:08:42.844Z</time></trkpt><trkpt lat="45.4881267" lon="10.329175"><ele>137.66666666666666</ele><time>2026-03-28T18:08:43.845Z</time></trkpt><trkpt lat="45.4882733" lon="10.3289867"><ele>138.0</ele><time>2026-03-28T18:08:44.845Z</time></trkpt><trkpt lat="45.4884217" lon="10.32879"><ele>137.66666666666666</ele><time>2026-03-28T18:08:45.845Z</time></trkpt><trkpt lat="45.4885617" lon="10.3285983"><ele>137.33333333333331</ele><time>2026-03-28T18:08:46.845Z</time></trkpt><trkpt lat="45.4886967" lon="10.3284317"><ele>137.0</ele><time>2026-03-28T18:08:47.845Z</time></trkpt><trkpt lat="45.4888233" lon="10.3282533"><ele>137.0</ele><time>2026-03-28T18:08:48.844Z</time></trkpt><trkpt lat="45.488945" lon="10.3280617"><ele>137.0</ele><time>2026-03-28T18:08:49.845Z</time></trkpt><trkpt lat="45.4890667" lon="10.3278683"><ele>137.0</ele><time>2026-03-28T18:08:50.845Z</time></trkpt><trkpt lat="45.4891933" lon="10.3276817"><ele>137.33333333333331</ele><time>2026-03-28T18:08:51.844Z</time></trkpt><trkpt lat="45.4893333" lon="10.3275067"><ele>137.66666666666666</ele><time>2026-03-28T18:08:52.845Z</time></trkpt><trkpt lat="45.4894667" lon="10.327335"><ele>138.0</ele><time>2026-03-28T18:08:53.845Z</time></trkpt><trkpt lat="45.4895983" lon="10.3271533"><ele>138.33333333333334</ele><time>2026-03-28T18:08:54.845Z</time></trkpt><trkpt lat="45.4897283" lon="10.3269783"><ele>138.66666666666669</ele><time>2026-03-28T18:08:55.844Z</time></trkpt><trkpt lat="45.4898517" lon="10.3268117"><ele>139.0</ele><time>2026-03-28T18:08:56.844Z</time></trkpt><trkpt lat="45.489965" lon="10.3266417"><ele>139.0</ele><time>2026-03-28T18:08:57.844Z</time></trkpt><trkpt lat="45.4900767" lon="10.326455"><ele>139.0</ele><time>2026-03-28T18:08:58.845Z</time></trkpt><trkpt lat="45.4901967" lon="10.3263"><ele>139.0</ele><time>2026-03-28T18:08:59.844Z</time></trkpt><trkpt lat="45.49033" lon="10.3261367"><ele>138.66666666666669</ele><time>2026-03-28T18:09:00.844Z</time></trkpt><trkpt lat="45.4904617" lon="10.325955"><ele>138.33333333333334</ele><time>2026-03-28T18:09:01.844Z</time></trkpt><trkpt lat="45.4905983" lon="10.3257783"><ele>138.0</ele><time>2026-03-28T18:09:02.844Z</time></trkpt><trkpt lat="45.4907417" lon="10.3255983"><ele>138.33333333333334</ele><time>2026-03-28T18:09:03.844Z</time></trkpt><trkpt lat="45.4908733" lon="10.325415"><ele>138.66666666666669</ele><time>2026-03-28T18:09:04.844Z</time></trkpt><trkpt lat="45.4909917" lon="10.3252367"><ele>139.0</ele><time>2026-03-28T18:09:05.844Z</time></trkpt><trkpt lat="45.4911" lon="10.32507"><ele>139.0</ele><time>2026-03-28T18:09:06.845Z</time></trkpt><trkpt lat="45.49122" lon="10.3249133"><ele>139.0</ele><time>2026-03-28T18:09:07.844Z</time></trkpt><trkpt lat="45.4913383" lon="10.3247533"><ele>139.0</ele><time>2026-03-28T18:09:08.844Z</time></trkpt><trkpt lat="45.4914433" lon="10.3245867"><ele>138.66666666666669</ele><time>2026-03-28T18:09:09.845Z</time></trkpt><trkpt lat="45.4915617" lon="10.3244117"><ele>138.33333333333334</ele><time>2026-03-28T18:09:10.844Z</time></trkpt><trkpt lat="45.4916783" lon="10.324245"><ele>138.0</ele><time>2026-03-28T18:09:11.844Z</time></trkpt><trkpt lat="45.4918067" lon="10.3240783"><ele>138.0</ele><time>2026-03-28T18:09:12.844Z</time></trkpt><trkpt lat="45.491915" lon="10.32392"><ele>138.0</ele><time>2026-03-28T18:09:13.845Z</time></trkpt><trkpt lat="45.4920367" lon="10.3237567"><ele>138.0</ele><time>2026-03-28T18:09:14.845Z</time></trkpt><trkpt lat="45.4921617" lon="10.3235833"><ele>138.33333333333334</ele><time>2026-03-28T18:09:15.845Z</time></trkpt><trkpt lat="45.492285" lon="10.3234233"><ele>138.66666666666669</ele><time>2026-03-28T18:09:16.844Z</time></trkpt><trkpt lat="45.4924217" lon="10.323245"><ele>139.0</ele><time>2026-03-28T18:09:17.844Z</time></trkpt><trkpt lat="45.4925317" lon="10.3230633"><ele>139.0</ele><time>2026-03-28T18:09:18.844Z</time></trkpt><trkpt lat="45.4926583" lon="10.3228917"><ele>139.0</ele><time>2026-03-28T18:09:19.845Z</time></trkpt><trkpt lat="45.4927783" lon="10.32272"><ele>139.0</ele><time>2026-03-28T18:09:20.844Z</time></trkpt><trkpt lat="45.492895" lon="10.3225567"><ele>139.0</ele><time>2026-03-28T18:09:21.844Z</time></trkpt><trkpt lat="45.4930183" lon="10.3224017"><ele>139.0</ele><time>2026-03-28T18:09:22.845Z</time></trkpt><trkpt lat="45.4931317" lon="10.322245"><ele>139.0</ele><time>2026-03-28T18:09:23.845Z</time></trkpt><trkpt lat="45.4932333" lon="10.3220967"><ele>139.0</ele><time>2026-03-28T18:09:24.845Z</time></trkpt><trkpt lat="45.4933317" lon="10.3219367"><ele>139.0</ele><time>2026-03-28T18:09:25.845Z</time></trkpt><trkpt lat="45.4934467" lon="10.3217833"><ele>139.0</ele><time>2026-03-28T18:09:26.845Z</time></trkpt><trkpt lat="45.4935617" lon="10.32163"><ele>139.0</ele><time>2026-03-28T18:09:27.844Z</time></trkpt><trkpt lat="45.49367" lon="10.321475"><ele>139.0</ele><time>2026-03-28T18:09:28.844Z</time></trkpt><trkpt lat="45.4937817" lon="10.3213183"><ele>139.0</ele><time>2026-03-28T18:09:29.844Z</time></trkpt><trkpt lat="45.4938917" lon="10.321165"><ele>139.66666666666669</ele><time>2026-03-28T18:09:30.845Z</time></trkpt><trkpt lat="45.4940017" lon="10.3210067"><ele>140.33333333333334</ele><time>2026-03-28T18:09:31.845Z</time></trkpt><trkpt lat="45.494115" lon="10.32085"><ele>141.0</ele><time>2026-03-28T18:09:32.844Z</time></trkpt><trkpt lat="45.4942367" lon="10.3206933"><ele>141.0</ele><time>2026-03-28T18:09:33.844Z</time></trkpt><trkpt lat="45.49436" lon="10.320525"><ele>141.0</ele><time>2026-03-28T18:09:34.844Z</time></trkpt><trkpt lat="45.494475" lon="10.32036"><ele>141.0</ele><time>2026-03-28T18:09:35.844Z</time></trkpt><trkpt lat="45.49459" lon="10.320185"><ele>141.0</ele><time>2026-03-28T18:09:36.844Z</time></trkpt><trkpt lat="45.4947117" lon="10.320015"><ele>141.0</ele><time>2026-03-28T18:09:37.844Z</time></trkpt><trkpt lat="45.4948417" lon="10.319855"><ele>141.0</ele><time>2026-03-28T18:09:38.844Z</time></trkpt><trkpt lat="45.4949533" lon="10.3196917"><ele>140.66666666666666</ele><time>2026-03-28T18:09:39.844Z</time></trkpt><trkpt lat="45.4950967" lon="10.3195283"><ele>140.33333333333331</ele><time>2026-03-28T18:09:40.845Z</time></trkpt><trkpt lat="45.4952183" lon="10.3193633"><ele>140.0</ele><time>2026-03-28T18:09:41.844Z</time></trkpt><trkpt lat="45.495325" lon="10.319215"><ele>140.0</ele><time>2026-03-28T18:09:42.845Z</time></trkpt><trkpt lat="45.4954317" lon="10.3191"><ele>140.0</ele><time>2026-03-28T18:09:43.844Z</time></trkpt><trkpt lat="45.495545" lon="10.3190083"><ele>140.0</ele><time>2026-03-28T18:09:44.845Z</time></trkpt><trkpt lat="45.4956567" lon="10.31893"><ele>140.0</ele><time>2026-03-28T18:09:45.844Z</time></trkpt><trkpt lat="45.4957667" lon="10.31889"><ele>139.75</ele><time>2026-03-28T18:09:46.845Z</time></trkpt><trkpt lat="45.49589" lon="10.31891"><ele>139.5</ele><time>2026-03-28T18:09:47.844Z</time></trkpt><trkpt lat="45.4960017" lon="10.3189733"><ele>139.25</ele><time>2026-03-28T18:09:48.844Z</time></trkpt><trkpt lat="45.4961033" lon="10.31908"><ele>139.0</ele><time>2026-03-28T18:09:49.844Z</time></trkpt><trkpt lat="45.49618" lon="10.3192117"><ele>139.0</ele><time>2026-03-28T18:09:50.844Z</time></trkpt><trkpt lat="45.4962267" lon="10.3193833"><ele>139.0</ele><time>2026-03-28T18:09:51.845Z</time></trkpt><trkpt lat="45.4962383" lon="10.31958"><ele>139.0</ele><time>2026-03-28T18:09:52.845Z</time></trkpt><trkpt lat="45.4962167" lon="10.31977"><ele>139.0</ele><time>2026-03-28T18:09:53.844Z</time></trkpt><trkpt lat="45.496155" lon="10.3199333"><ele>139.5</ele><time>2026-03-28T18:09:54.845Z</time></trkpt><trkpt lat="45.496065" lon="10.32007"><ele>140.0</ele><time>2026-03-28T18:09:55.844Z</time></trkpt><trkpt lat="45.495965" lon="10.3201817"><ele>140.5</ele><time>2026-03-28T18:09:56.845Z</time></trkpt><trkpt lat="45.4958433" lon="10.3202567"><ele>141.0</ele><time>2026-03-28T18:09:57.844Z</time></trkpt><trkpt lat="45.49572" lon="10.3202667"><ele>141.0</ele><time>2026-03-28T18:09:58.844Z</time></trkpt><trkpt lat="45.4956" lon="10.3202283"><ele>141.0</ele><time>2026-03-28T18:09:59.844Z</time></trkpt><trkpt lat="45.4954933" lon="10.3201583"><ele>141.0</ele><time>2026-03-28T18:10:00.845Z</time></trkpt><trkpt lat="45.4954017" lon="10.320075"><ele>141.0</ele><time>2026-03-28T18:10:01.844Z</time></trkpt><trkpt lat="45.495325" lon="10.3199683"><ele>141.0</ele><time>2026-03-28T18:10:02.845Z</time></trkpt><trkpt lat="45.4952367" lon="10.3198483"><ele>141.0</ele><time>2026-03-28T18:10:03.844Z</time></trkpt><trkpt lat="45.495145" lon="10.31973"><ele>141.0</ele><time>2026-03-28T18:10:04.845Z</time></trkpt><trkpt lat="45.4950567" lon="10.31963"><ele>141.0</ele><time>2026-03-28T18:10:05.845Z</time></trkpt><trkpt lat="45.4949617" lon="10.3195167"><ele>140.75</ele><time>2026-03-28T18:10:06.845Z</time></trkpt><trkpt lat="45.4948667" lon="10.3194133"><ele>140.5</ele><time>2026-03-28T18:10:07.845Z</time></trkpt><trkpt lat="45.494755" lon="10.319295"><ele>140.25</ele><time>2026-03-28T18:10:08.845Z</time></trkpt><trkpt lat="45.4946383" lon="10.3191717"><ele>140.0</ele><time>2026-03-28T18:10:09.845Z</time></trkpt><trkpt lat="45.4945217" lon="10.3190567"><ele>140.33333333333331</ele><time>2026-03-28T18:10:10.845Z</time></trkpt><trkpt lat="45.4943933" lon="10.318935"><ele>140.66666666666666</ele><time>2026-03-28T18:10:11.844Z</time></trkpt><trkpt lat="45.4942483" lon="10.3188117"><ele>141.0</ele><time>2026-03-28T18:10:12.844Z</time></trkpt><trkpt lat="45.4941117" lon="10.3187"><ele>141.0</ele><time>2026-03-28T18:10:13.845Z</time></trkpt><trkpt lat="45.4939633" lon="10.3186067"><ele>141.0</ele><time>2026-03-28T18:10:14.844Z</time></trkpt><trkpt lat="45.4937983" lon="10.3185183"><ele>141.0</ele><time>2026-03-28T18:10:15.845Z</time></trkpt><trkpt lat="45.49363" lon="10.318435"><ele>140.33333333333334</ele><time>2026-03-28T18:10:16.845Z</time></trkpt><trkpt lat="45.4934383" lon="10.318395"><ele>139.66666666666669</ele><time>2026-03-28T18:10:17.844Z</time></trkpt><trkpt lat="45.4932467" lon="10.31838"><ele>139.0</ele><time>2026-03-28T18:10:18.844Z</time></trkpt><trkpt lat="45.4930517" lon="10.3183917"><ele>139.0</ele><time>2026-03-28T18:10:19.845Z</time></trkpt><trkpt lat="45.4928567" lon="10.3184033"><ele>139.0</ele><time>2026-03-28T18:10:20.845Z</time></trkpt><trkpt lat="45.4926667" lon="10.3184067"><ele>139.0</ele><time>2026-03-28T18:10:21.845Z</time></trkpt><trkpt lat="45.49248" lon="10.3184133"><ele>139.0</ele><time>2026-03-28T18:10:22.845Z</time></trkpt><trkpt lat="45.4922917" lon="10.3184217"><ele>139.0</ele><time>2026-03-28T18:10:23.845Z</time></trkpt><trkpt lat="45.4921067" lon="10.318425"><ele>139.0</ele><time>2026-03-28T18:10:24.845Z</time></trkpt><trkpt lat="45.4919217" lon="10.31842"><ele>138.33333333333334</ele><time>2026-03-28T18:10:25.845Z</time></trkpt><trkpt lat="45.4917483" lon="10.318425"><ele>137.66666666666666</ele><time>2026-03-28T18:10:26.845Z</time></trkpt><trkpt lat="45.4915733" lon="10.318435"><ele>137.0</ele><time>2026-03-28T18:10:27.845Z</time></trkpt><trkpt lat="45.4913933" lon="10.318435"><ele>137.33333333333331</ele><time>2026-03-28T18:10:28.844Z</time></trkpt><trkpt lat="45.4912067" lon="10.3184433"><ele>137.66666666666666</ele><time>2026-03-28T18:10:29.845Z</time></trkpt><trkpt lat="45.4910167" lon="10.3184617"><ele>138.0</ele><time>2026-03-28T18:10:30.844Z</time></trkpt><trkpt lat="45.4908383" lon="10.3184717"><ele>138.0</ele><time>2026-03-28T18:10:31.844Z</time></trkpt><trkpt lat="45.4906733" lon="10.3184733"><ele>138.0</ele><time>2026-03-28T18:10:32.844Z</time></trkpt><trkpt lat="45.4905083" lon="10.318485"><ele>138.0</ele><time>2026-03-28T18:10:33.844Z</time></trkpt><trkpt lat="45.4903617" lon="10.3184917"><ele>138.0</ele><time>2026-03-28T18:10:34.845Z</time></trkpt><trkpt lat="45.49021" lon="10.31849"><ele>138.0</ele><time>2026-03-28T18:10:35.844Z</time></trkpt><trkpt lat="45.49006" lon="10.3185"><ele>138.0</ele><time>2026-03-28T18:10:36.844Z</time></trkpt><trkpt lat="45.4899133" lon="10.3184983"><ele>138.0</ele><time>2026-03-28T18:10:37.844Z</time></trkpt><trkpt lat="45.4897733" lon="10.31851"><ele>138.0</ele><time>2026-03-28T18:10:38.844Z</time></trkpt><trkpt lat="45.48964" lon="10.31851"><ele>138.0</ele><time>2026-03-28T18:10:39.845Z</time></trkpt><trkpt lat="45.4895067" lon="10.3185017"><ele>138.0</ele><time>2026-03-28T18:10:40.844Z</time></trkpt><trkpt lat="45.489375" lon="10.3184983"><ele>138.0</ele><time>2026-03-28T18:10:41.844Z</time></trkpt><trkpt lat="45.4892433" lon="10.3184917"><ele>138.0</ele><time>2026-03-28T18:10:42.845Z</time></trkpt><trkpt lat="45.4891167" lon="10.3184883"><ele>138.0</ele><time>2026-03-28T18:10:43.845Z</time></trkpt><trkpt lat="45.4889833" lon="10.3184933"><ele>138.0</ele><time>2026-03-28T18:10:44.844Z</time></trkpt><trkpt lat="45.4888433" lon="10.3185"><ele>138.0</ele><time>2026-03-28T18:10:45.844Z</time></trkpt><trkpt lat="45.4886983" lon="10.3185083"><ele>138.0</ele><time>2026-03-28T18:10:46.845Z</time></trkpt><trkpt lat="45.4885467" lon="10.3185"><ele>138.0</ele><time>2026-03-28T18:10:47.844Z</time></trkpt><trkpt lat="45.4883983" lon="10.318495"><ele>138.0</ele><time>2026-03-28T18:10:48.845Z</time></trkpt><trkpt lat="45.4882433" lon="10.3185017"><ele>138.0</ele><time>2026-03-28T18:10:49.844Z</time></trkpt><trkpt lat="45.4880983" lon="10.3185033"><ele>138.0</ele><time>2026-03-28T18:10:50.845Z</time></trkpt><trkpt lat="45.487945" lon="10.3184683"><ele>138.0</ele><time>2026-03-28T18:10:51.845Z</time></trkpt><trkpt lat="45.4877833" lon="10.3184483"><ele>137.33333333333334</ele><time>2026-03-28T18:10:52.844Z</time></trkpt><trkpt lat="45.4876317" lon="10.3184467"><ele>136.66666666666669</ele><time>2026-03-28T18:10:53.845Z</time></trkpt><trkpt lat="45.4874833" lon="10.318445"><ele>136.0</ele><time>2026-03-28T18:10:54.844Z</time></trkpt><trkpt lat="45.4873283" lon="10.3184533"><ele>136.0</ele><time>2026-03-28T18:10:55.844Z</time></trkpt><trkpt lat="45.4871717" lon="10.3184633"><ele>136.0</ele><time>2026-03-28T18:10:56.845Z</time></trkpt><trkpt lat="45.4870033" lon="10.318465"><ele>136.0</ele><time>2026-03-28T18:10:57.845Z</time></trkpt><trkpt lat="45.4868433" lon="10.318475"><ele>135.75</ele><time>2026-03-28T18:10:58.844Z</time></trkpt><trkpt lat="45.486685" lon="10.31848"><ele>135.5</ele><time>2026-03-28T18:10:59.845Z</time></trkpt><trkpt lat="45.4865583" lon="10.318475"><ele>135.25</ele><time>2026-03-28T18:11:00.845Z</time></trkpt><trkpt lat="45.486455" lon="10.3184383"><ele>135.0</ele><time>2026-03-28T18:11:01.845Z</time></trkpt><trkpt lat="45.4863633" lon="10.3183717"><ele>135.0</ele><time>2026-03-28T18:11:02.844Z</time></trkpt><trkpt lat="45.4862833" lon="10.3182733"><ele>135.0</ele><time>2026-03-28T18:11:03.844Z</time></trkpt><trkpt lat="45.4862167" lon="10.3181417"><ele>135.0</ele><time>2026-03-28T18:11:04.844Z</time></trkpt><trkpt lat="45.4861683" lon="10.3179783"><ele>135.0</ele><time>2026-03-28T18:11:05.844Z</time></trkpt><trkpt lat="45.48615" lon="10.317795"><ele>135.0</ele><time>2026-03-28T18:11:06.844Z</time></trkpt><trkpt lat="45.4861233" lon="10.3175967"><ele>135.0</ele><time>2026-03-28T18:11:07.844Z</time></trkpt><trkpt lat="45.486095" lon="10.3174217"><ele>135.0</ele><time>2026-03-28T18:11:08.844Z</time></trkpt><trkpt lat="45.4860467" lon="10.317275"><ele>135.0</ele><time>2026-03-28T18:11:09.844Z</time></trkpt><trkpt lat="45.485975" lon="10.3171533"><ele>135.0</ele><time>2026-03-28T18:11:10.845Z</time></trkpt><trkpt lat="45.4858817" lon="10.3170517"><ele>135.0</ele><time>2026-03-28T18:11:11.844Z</time></trkpt><trkpt lat="45.4857883" lon="10.316995"><ele>135.0</ele><time>2026-03-28T18:11:12.845Z</time></trkpt><trkpt lat="45.4856733" lon="10.31696"><ele>135.0</ele><time>2026-03-28T18:11:13.845Z</time></trkpt><trkpt lat="45.4855517" lon="10.316945"><ele>135.0</ele><time>2026-03-28T18:11:14.844Z</time></trkpt><trkpt lat="45.4854283" lon="10.316985"><ele>135.0</ele><time>2026-03-28T18:11:15.844Z</time></trkpt><trkpt lat="45.4853117" lon="10.317055"><ele>135.0</ele><time>2026-03-28T18:11:16.844Z</time></trkpt><trkpt lat="45.4851983" lon="10.31716"><ele>135.0</ele><time>2026-03-28T18:11:17.845Z</time></trkpt><trkpt lat="45.4851017" lon="10.3172933"><ele>135.25</ele><time>2026-03-28T18:11:18.845Z</time></trkpt><trkpt lat="45.4850367" lon="10.3174533"><ele>135.5</ele><time>2026-03-28T18:11:19.844Z</time></trkpt><trkpt lat="45.4849967" lon="10.3176467"><ele>135.75</ele><time>2026-03-28T18:11:20.845Z</time></trkpt><trkpt lat="45.4849633" lon="10.3178783"><ele>136.0</ele><time>2026-03-28T18:11:21.844Z</time></trkpt><trkpt lat="45.4848767" lon="10.31834"><ele>136.0</ele><time>2026-03-28T18:11:23.844Z</time></trkpt><trkpt lat="45.484825" lon="10.3185583"><ele>136.0</ele><time>2026-03-28T18:11:24.844Z</time></trkpt><trkpt lat="45.48477" lon="10.3188117"><ele>136.0</ele><time>2026-03-28T18:11:25.845Z</time></trkpt><trkpt lat="45.4847117" lon="10.3190333"><ele>135.8</ele><time>2026-03-28T18:11:26.844Z</time></trkpt><trkpt lat="45.4846617" lon="10.3192167"><ele>135.6</ele><time>2026-03-28T18:11:27.845Z</time></trkpt><trkpt lat="45.4846383" lon="10.319365"><ele>135.4</ele><time>2026-03-28T18:11:28.845Z</time></trkpt><trkpt lat="45.484615" lon="10.31946"><ele>135.2</ele><time>2026-03-28T18:11:29.845Z</time></trkpt><trkpt lat="45.4846033" lon="10.3195583"><ele>135.0</ele><time>2026-03-28T18:11:30.845Z</time></trkpt><trkpt lat="45.4845567" lon="10.3197183"><ele>135.0</ele><time>2026-03-28T18:11:32.844Z</time></trkpt><trkpt lat="45.4844867" lon="10.3198517"><ele>135.0</ele><time>2026-03-28T18:11:34.844Z</time></trkpt><trkpt lat="45.48437" lon="10.3199333"><ele>135.0</ele><time>2026-03-28T18:11:36.844Z</time></trkpt><trkpt lat="45.4842983" lon="10.3199617"><ele>135.0</ele><time>2026-03-28T18:11:37.844Z</time></trkpt><trkpt lat="45.4842167" lon="10.3200183"><ele>135.0</ele><time>2026-03-28T18:11:38.844Z</time></trkpt><trkpt lat="45.4841383" lon="10.3200883"><ele>135.0</ele><time>2026-03-28T18:11:39.844Z</time></trkpt><trkpt lat="45.484065" lon="10.3201583"><ele>135.0</ele><time>2026-03-28T18:11:40.844Z</time></trkpt><trkpt lat="45.4840067" lon="10.3202217"><ele>135.0</ele><time>2026-03-28T18:11:41.844Z</time></trkpt><trkpt lat="45.483955" lon="10.320275"><ele>135.0</ele><time>2026-03-28T18:11:42.845Z</time></trkpt><trkpt lat="45.4838283" lon="10.320325"><ele>135.0</ele><time>2026-03-28T18:11:44.844Z</time></trkpt><trkpt lat="45.48375" lon="10.32031"><ele>135.0</ele><time>2026-03-28T18:11:45.844Z</time></trkpt><trkpt lat="45.4836667" lon="10.3202633"><ele>134.83333333333334</ele><time>2026-03-28T18:11:46.844Z</time></trkpt><trkpt lat="45.483585" lon="10.3202133"><ele>134.66666666666666</ele><time>2026-03-28T18:11:47.845Z</time></trkpt><trkpt lat="45.483515" lon="10.3201717"><ele>134.5</ele><time>2026-03-28T18:11:48.845Z</time></trkpt><trkpt lat="45.483445" lon="10.32012"><ele>134.33333333333331</ele><time>2026-03-28T18:11:49.845Z</time></trkpt><trkpt lat="45.483385" lon="10.3200633"><ele>134.16666666666666</ele><time>2026-03-28T18:11:50.844Z</time></trkpt><trkpt lat="45.4832833" lon="10.3199733"><ele>134.0</ele><time>2026-03-28T18:11:52.844Z</time></trkpt><trkpt lat="45.48322" lon="10.3200117"><ele>134.0</ele><time>2026-03-28T18:11:54.845Z</time></trkpt><trkpt lat="45.4832083" lon="10.3201267"><ele>134.0</ele><time>2026-03-28T18:11:56.844Z</time></trkpt><trkpt lat="45.4831933" lon="10.3202183"><ele>134.0</ele><time>2026-03-28T18:11:59.844Z</time></trkpt><trkpt lat="45.4831817" lon="10.3203067"><ele>134.0</ele><time>2026-03-28T18:12:20.844Z</time></trkpt><trkpt lat="45.4831467" lon="10.32045"><ele>134.0</ele><time>2026-03-28T18:12:22.844Z</time></trkpt><trkpt lat="45.4831317" lon="10.3205717"><ele>134.0</ele><time>2026-03-28T18:12:24.845Z</time></trkpt><trkpt lat="45.4831717" lon="10.320645"><ele>134.0</ele><time>2026-03-28T18:12:26.844Z</time></trkpt><trkpt lat="45.4832433" lon="10.3206617"><ele>134.0</ele><time>2026-03-28T18:12:28.844Z</time></trkpt><trkpt lat="45.48331" lon="10.3206917"><ele>134.0</ele><time>2026-03-28T18:12:30.845Z</time></trkpt><trkpt lat="45.4834" lon="10.3207333"><ele>134.0</ele><time>2026-03-28T18:12:32.844Z</time></trkpt><trkpt lat="45.483485" lon="10.32077"><ele>134.0</ele><time>2026-03-28T18:12:34.845Z</time></trkpt><trkpt lat="45.48355" lon="10.3207917"><ele>134.0</ele><time>2026-03-28T18:12:37.844Z</time></trkpt></trkseg></trk></gpx>